<?xml version="1.0" encoding="UTF-8" standalone="no" ?>
<gpx xmlns="http://www.topografix.com/GPX/1/1" xmlns:xsi="http://www.w3.org/2001/XMLSchema-instance" xsi:schemaLocation="http://www.topografix.com/GPX/1/1 http://www.topografix.com/GPX/1/1/gpx.xsd" version="1.1" creator="VisuGPX - https://www.visugpx.com">
  <metadata>
    <name>Mons la trivalle - Bédarieux</name>
    <desc><![CDATA[Voie verte]]></desc>
  </metadata>
  <trk>
    <name><![CDATA[Mons La Trivalle — Bédarieux]]></name>
    <desc><![CDATA[Voie verte]]></desc>
    <trkseg>
      <trkpt lat="43.56687" lon="2.95965">
        <ele>251.4</ele>
        <time>2014-02-20T09:10:33.937Z</time>
      </trkpt>
      <trkpt lat="43.56687" lon="2.95965">
        <ele>251.4</ele>
        <time>2014-02-20T09:10:35.838Z</time>
      </trkpt>
      <trkpt lat="43.56687" lon="2.95965">
        <ele>251.4</ele>
        <time>2014-02-20T09:10:36.982Z</time>
      </trkpt>
      <trkpt lat="43.56687" lon="2.95965">
        <ele>251.9</ele>
        <time>2014-02-20T09:11:27.486Z</time>
      </trkpt>
      <trkpt lat="43.56687" lon="2.95966">
        <ele>252</ele>
        <time>2014-02-20T09:11:28.521Z</time>
      </trkpt>
      <trkpt lat="43.56679" lon="2.95961">
        <ele>249</ele>
        <time>2014-02-20T09:11:36.485Z</time>
      </trkpt>
      <trkpt lat="43.56679" lon="2.95961">
        <ele>249</ele>
        <time>2014-02-20T09:11:37.486Z</time>
      </trkpt>
      <trkpt lat="43.56679" lon="2.95962">
        <ele>248.6</ele>
        <time>2014-02-20T09:11:38.511Z</time>
      </trkpt>
      <trkpt lat="43.56679" lon="2.95961">
        <ele>247.7</ele>
        <time>2014-02-20T09:11:39.485Z</time>
      </trkpt>
      <trkpt lat="43.56679" lon="2.9596">
        <ele>247.5</ele>
        <time>2014-02-20T09:11:41.488Z</time>
      </trkpt>
      <trkpt lat="43.56679" lon="2.9596">
        <ele>246.8</ele>
        <time>2014-02-20T09:11:42.487Z</time>
      </trkpt>
      <trkpt lat="43.5668" lon="2.95959">
        <ele>245.6</ele>
        <time>2014-02-20T09:12:07.489Z</time>
      </trkpt>
      <trkpt lat="43.56681" lon="2.95962">
        <ele>244.8</ele>
        <time>2014-02-20T09:12:08.491Z</time>
      </trkpt>
      <trkpt lat="43.56683" lon="2.95973">
        <ele>243.9</ele>
        <time>2014-02-20T09:12:11.490Z</time>
      </trkpt>
      <trkpt lat="43.56683" lon="2.95976">
        <ele>243</ele>
        <time>2014-02-20T09:12:12.489Z</time>
      </trkpt>
      <trkpt lat="43.56684" lon="2.95987">
        <ele>241.5</ele>
        <time>2014-02-20T09:12:15.487Z</time>
      </trkpt>
      <trkpt lat="43.56685" lon="2.95991">
        <ele>240.6</ele>
        <time>2014-02-20T09:12:16.487Z</time>
      </trkpt>
      <trkpt lat="43.56686" lon="2.96">
        <ele>238.9</ele>
        <time>2014-02-20T09:12:18.487Z</time>
      </trkpt>
      <trkpt lat="43.56687" lon="2.96005">
        <ele>238.8</ele>
        <time>2014-02-20T09:12:19.491Z</time>
      </trkpt>
      <trkpt lat="43.56689" lon="2.96014">
        <ele>239.4</ele>
        <time>2014-02-20T09:12:21.484Z</time>
      </trkpt>
      <trkpt lat="43.5669" lon="2.96018">
        <ele>239.5</ele>
        <time>2014-02-20T09:12:22.488Z</time>
      </trkpt>
      <trkpt lat="43.56691" lon="2.96027">
        <ele>239.8</ele>
        <time>2014-02-20T09:12:24.486Z</time>
      </trkpt>
      <trkpt lat="43.56692" lon="2.9603">
        <ele>240</ele>
        <time>2014-02-20T09:12:25.487Z</time>
      </trkpt>
      <trkpt lat="43.56694" lon="2.96042">
        <ele>239.7</ele>
        <time>2014-02-20T09:12:29.487Z</time>
      </trkpt>
      <trkpt lat="43.56693" lon="2.96045">
        <ele>240.8</ele>
        <time>2014-02-20T09:12:30.485Z</time>
      </trkpt>
      <trkpt lat="43.56693" lon="2.96057">
        <ele>240.4</ele>
        <time>2014-02-20T09:12:34.487Z</time>
      </trkpt>
      <trkpt lat="43.56692" lon="2.96059">
        <ele>239.6</ele>
        <time>2014-02-20T09:12:35.487Z</time>
      </trkpt>
      <trkpt lat="43.56692" lon="2.96069">
        <ele>239</ele>
        <time>2014-02-20T09:12:38.487Z</time>
      </trkpt>
      <trkpt lat="43.56693" lon="2.96071">
        <ele>238.7</ele>
        <time>2014-02-20T09:12:39.486Z</time>
      </trkpt>
      <trkpt lat="43.56692" lon="2.96072">
        <ele>239</ele>
        <time>2014-02-20T09:12:42.485Z</time>
      </trkpt>
      <trkpt lat="43.56692" lon="2.96071">
        <ele>239.2</ele>
        <time>2014-02-20T09:12:43.486Z</time>
      </trkpt>
      <trkpt lat="43.56693" lon="2.96071">
        <ele>239.4</ele>
        <time>2014-02-20T09:12:44.488Z</time>
      </trkpt>
      <trkpt lat="43.56692" lon="2.9607">
        <ele>239.4</ele>
        <time>2014-02-20T09:12:45.485Z</time>
      </trkpt>
      <trkpt lat="43.56692" lon="2.96069">
        <ele>239.8</ele>
        <time>2014-02-20T09:12:49.487Z</time>
      </trkpt>
      <trkpt lat="43.56692" lon="2.96068">
        <ele>239.8</ele>
        <time>2014-02-20T09:12:50.488Z</time>
      </trkpt>
      <trkpt lat="43.56692" lon="2.9607">
        <ele>239.8</ele>
        <time>2014-02-20T09:13:27.486Z</time>
      </trkpt>
      <trkpt lat="43.56692" lon="2.96074">
        <ele>238.1</ele>
        <time>2014-02-20T09:13:28.488Z</time>
      </trkpt>
      <trkpt lat="43.56695" lon="2.96084">
        <ele>238.1</ele>
        <time>2014-02-20T09:13:30.510Z</time>
      </trkpt>
      <trkpt lat="43.56696" lon="2.96088">
        <ele>238.1</ele>
        <time>2014-02-20T09:13:31.487Z</time>
      </trkpt>
      <trkpt lat="43.567" lon="2.96096">
        <ele>236</ele>
        <time>2014-02-20T09:13:33.487Z</time>
      </trkpt>
      <trkpt lat="43.56702" lon="2.961">
        <ele>236</ele>
        <time>2014-02-20T09:13:34.487Z</time>
      </trkpt>
      <trkpt lat="43.56704" lon="2.96111">
        <ele>235.5</ele>
        <time>2014-02-20T09:13:37.487Z</time>
      </trkpt>
      <trkpt lat="43.56705" lon="2.96114">
        <ele>235.6</ele>
        <time>2014-02-20T09:13:38.555Z</time>
      </trkpt>
      <trkpt lat="43.56709" lon="2.96125">
        <ele>236.6</ele>
        <time>2014-02-20T09:13:43.486Z</time>
      </trkpt>
      <trkpt lat="43.56709" lon="2.96128">
        <ele>236.6</ele>
        <time>2014-02-20T09:13:44.487Z</time>
      </trkpt>
      <trkpt lat="43.56712" lon="2.96136">
        <ele>238</ele>
        <time>2014-02-20T09:13:52.487Z</time>
      </trkpt>
      <trkpt lat="43.56712" lon="2.96136">
        <ele>238.4</ele>
        <time>2014-02-20T09:13:53.487Z</time>
      </trkpt>
      <trkpt lat="43.56712" lon="2.96136">
        <ele>238.5</ele>
        <time>2014-02-20T09:13:54.485Z</time>
      </trkpt>
      <trkpt lat="43.56711" lon="2.96135">
        <ele>238.2</ele>
        <time>2014-02-20T09:13:56.485Z</time>
      </trkpt>
      <trkpt lat="43.56711" lon="2.96135">
        <ele>237.8</ele>
        <time>2014-02-20T09:13:57.485Z</time>
      </trkpt>
      <trkpt lat="43.56712" lon="2.96136">
        <ele>236.3</ele>
        <time>2014-02-20T09:14:29.492Z</time>
      </trkpt>
      <trkpt lat="43.56712" lon="2.96137">
        <ele>237.4</ele>
        <time>2014-02-20T09:14:30.491Z</time>
      </trkpt>
      <trkpt lat="43.56717" lon="2.96147">
        <ele>233.6</ele>
        <time>2014-02-20T09:14:43.490Z</time>
      </trkpt>
      <trkpt lat="43.56715" lon="2.9615">
        <ele>233.4</ele>
        <time>2014-02-20T09:14:44.493Z</time>
      </trkpt>
      <trkpt lat="43.56715" lon="2.96152">
        <ele>234.7</ele>
        <time>2014-02-20T09:14:51.493Z</time>
      </trkpt>
      <trkpt lat="43.56715" lon="2.96152">
        <ele>234.9</ele>
        <time>2014-02-20T09:14:52.492Z</time>
      </trkpt>
      <trkpt lat="43.56715" lon="2.96153">
        <ele>235.3</ele>
        <time>2014-02-20T09:14:55.490Z</time>
      </trkpt>
      <trkpt lat="43.56716" lon="2.96153">
        <ele>235.2</ele>
        <time>2014-02-20T09:14:56.488Z</time>
      </trkpt>
      <trkpt lat="43.56719" lon="2.96163">
        <ele>235.4</ele>
        <time>2014-02-20T09:15:03.495Z</time>
      </trkpt>
      <trkpt lat="43.56719" lon="2.96167">
        <ele>234.9</ele>
        <time>2014-02-20T09:15:04.494Z</time>
      </trkpt>
      <trkpt lat="43.56721" lon="2.96176">
        <ele>235.1</ele>
        <time>2014-02-20T09:15:06.489Z</time>
      </trkpt>
      <trkpt lat="43.56722" lon="2.96181">
        <ele>234.1</ele>
        <time>2014-02-20T09:15:07.490Z</time>
      </trkpt>
      <trkpt lat="43.56725" lon="2.96189">
        <ele>233.3</ele>
        <time>2014-02-20T09:15:09.492Z</time>
      </trkpt>
      <trkpt lat="43.56726" lon="2.96194">
        <ele>232.4</ele>
        <time>2014-02-20T09:15:10.490Z</time>
      </trkpt>
      <trkpt lat="43.5673" lon="2.962">
        <ele>230.8</ele>
        <time>2014-02-20T09:15:12.489Z</time>
      </trkpt>
      <trkpt lat="43.56732" lon="2.96203">
        <ele>230.4</ele>
        <time>2014-02-20T09:15:13.491Z</time>
      </trkpt>
      <trkpt lat="43.56736" lon="2.96211">
        <ele>229.9</ele>
        <time>2014-02-20T09:15:15.489Z</time>
      </trkpt>
      <trkpt lat="43.56738" lon="2.96216">
        <ele>230.7</ele>
        <time>2014-02-20T09:15:16.489Z</time>
      </trkpt>
      <trkpt lat="43.56739" lon="2.96227">
        <ele>234.1</ele>
        <time>2014-02-20T09:15:19.493Z</time>
      </trkpt>
      <trkpt lat="43.56741" lon="2.96231">
        <ele>232.4</ele>
        <time>2014-02-20T09:15:20.488Z</time>
      </trkpt>
      <trkpt lat="43.56744" lon="2.96239">
        <ele>232.8</ele>
        <time>2014-02-20T09:15:22.485Z</time>
      </trkpt>
      <trkpt lat="43.56746" lon="2.96244">
        <ele>231.9</ele>
        <time>2014-02-20T09:15:23.487Z</time>
      </trkpt>
      <trkpt lat="43.56747" lon="2.9625">
        <ele>232.1</ele>
        <time>2014-02-20T09:15:24.484Z</time>
      </trkpt>
      <trkpt lat="43.56749" lon="2.96256">
        <ele>232.8</ele>
        <time>2014-02-20T09:15:25.486Z</time>
      </trkpt>
      <trkpt lat="43.56753" lon="2.96267">
        <ele>234.3</ele>
        <time>2014-02-20T09:15:27.486Z</time>
      </trkpt>
      <trkpt lat="43.56754" lon="2.96272">
        <ele>235.2</ele>
        <time>2014-02-20T09:15:28.488Z</time>
      </trkpt>
      <trkpt lat="43.56757" lon="2.96281">
        <ele>236.1</ele>
        <time>2014-02-20T09:15:30.484Z</time>
      </trkpt>
      <trkpt lat="43.56758" lon="2.96285">
        <ele>234.3</ele>
        <time>2014-02-20T09:15:31.490Z</time>
      </trkpt>
      <trkpt lat="43.56762" lon="2.96294">
        <ele>235.3</ele>
        <time>2014-02-20T09:15:34.487Z</time>
      </trkpt>
      <trkpt lat="43.56763" lon="2.96298">
        <ele>235.4</ele>
        <time>2014-02-20T09:15:35.489Z</time>
      </trkpt>
      <trkpt lat="43.56767" lon="2.96306">
        <ele>235.4</ele>
        <time>2014-02-20T09:15:37.489Z</time>
      </trkpt>
      <trkpt lat="43.56768" lon="2.9631">
        <ele>235.1</ele>
        <time>2014-02-20T09:15:38.510Z</time>
      </trkpt>
      <trkpt lat="43.56771" lon="2.96318">
        <ele>233.1</ele>
        <time>2014-02-20T09:15:40.488Z</time>
      </trkpt>
      <trkpt lat="43.56773" lon="2.96322">
        <ele>233.1</ele>
        <time>2014-02-20T09:15:41.487Z</time>
      </trkpt>
      <trkpt lat="43.56777" lon="2.96331">
        <ele>233.3</ele>
        <time>2014-02-20T09:15:43.512Z</time>
      </trkpt>
      <trkpt lat="43.56777" lon="2.96335">
        <ele>232.7</ele>
        <time>2014-02-20T09:15:44.490Z</time>
      </trkpt>
      <trkpt lat="43.56777" lon="2.96345">
        <ele>232.3</ele>
        <time>2014-02-20T09:15:46.489Z</time>
      </trkpt>
      <trkpt lat="43.56778" lon="2.96348">
        <ele>232.4</ele>
        <time>2014-02-20T09:15:47.489Z</time>
      </trkpt>
      <trkpt lat="43.56781" lon="2.96356">
        <ele>233.2</ele>
        <time>2014-02-20T09:15:49.501Z</time>
      </trkpt>
      <trkpt lat="43.56783" lon="2.9636">
        <ele>232.6</ele>
        <time>2014-02-20T09:15:50.501Z</time>
      </trkpt>
      <trkpt lat="43.56787" lon="2.96367">
        <ele>231.6</ele>
        <time>2014-02-20T09:15:52.488Z</time>
      </trkpt>
      <trkpt lat="43.56789" lon="2.96371">
        <ele>232.6</ele>
        <time>2014-02-20T09:15:53.523Z</time>
      </trkpt>
      <trkpt lat="43.56793" lon="2.96378">
        <ele>232.9</ele>
        <time>2014-02-20T09:15:55.487Z</time>
      </trkpt>
      <trkpt lat="43.56794" lon="2.96382">
        <ele>232.7</ele>
        <time>2014-02-20T09:15:56.485Z</time>
      </trkpt>
      <trkpt lat="43.56798" lon="2.96392">
        <ele>234.4</ele>
        <time>2014-02-20T09:15:58.487Z</time>
      </trkpt>
      <trkpt lat="43.56801" lon="2.96397">
        <ele>235.2</ele>
        <time>2014-02-20T09:15:59.487Z</time>
      </trkpt>
      <trkpt lat="43.56803" lon="2.96406">
        <ele>235.5</ele>
        <time>2014-02-20T09:16:01.488Z</time>
      </trkpt>
      <trkpt lat="43.56805" lon="2.96411">
        <ele>234.2</ele>
        <time>2014-02-20T09:16:02.487Z</time>
      </trkpt>
      <trkpt lat="43.5681" lon="2.96421">
        <ele>234</ele>
        <time>2014-02-20T09:16:04.486Z</time>
      </trkpt>
      <trkpt lat="43.56812" lon="2.96425">
        <ele>233.4</ele>
        <time>2014-02-20T09:16:05.489Z</time>
      </trkpt>
      <trkpt lat="43.56815" lon="2.96433">
        <ele>233.8</ele>
        <time>2014-02-20T09:16:07.485Z</time>
      </trkpt>
      <trkpt lat="43.56818" lon="2.96436">
        <ele>234.9</ele>
        <time>2014-02-20T09:16:08.487Z</time>
      </trkpt>
      <trkpt lat="43.56822" lon="2.96443">
        <ele>235.1</ele>
        <time>2014-02-20T09:16:10.486Z</time>
      </trkpt>
      <trkpt lat="43.56824" lon="2.96448">
        <ele>234.7</ele>
        <time>2014-02-20T09:16:11.521Z</time>
      </trkpt>
      <trkpt lat="43.56828" lon="2.96457">
        <ele>235.6</ele>
        <time>2014-02-20T09:16:13.486Z</time>
      </trkpt>
      <trkpt lat="43.5683" lon="2.96461">
        <ele>234.6</ele>
        <time>2014-02-20T09:16:14.486Z</time>
      </trkpt>
      <trkpt lat="43.56833" lon="2.9647">
        <ele>234.4</ele>
        <time>2014-02-20T09:16:16.553Z</time>
      </trkpt>
      <trkpt lat="43.56834" lon="2.96473">
        <ele>234.5</ele>
        <time>2014-02-20T09:16:17.488Z</time>
      </trkpt>
      <trkpt lat="43.56837" lon="2.9648">
        <ele>234.6</ele>
        <time>2014-02-20T09:16:19.492Z</time>
      </trkpt>
      <trkpt lat="43.56838" lon="2.96484">
        <ele>234.6</ele>
        <time>2014-02-20T09:16:20.490Z</time>
      </trkpt>
      <trkpt lat="43.56841" lon="2.96492">
        <ele>235.1</ele>
        <time>2014-02-20T09:16:22.498Z</time>
      </trkpt>
      <trkpt lat="43.56842" lon="2.96496">
        <ele>235.5</ele>
        <time>2014-02-20T09:16:23.495Z</time>
      </trkpt>
      <trkpt lat="43.56845" lon="2.96505">
        <ele>235.3</ele>
        <time>2014-02-20T09:16:25.495Z</time>
      </trkpt>
      <trkpt lat="43.56848" lon="2.96509">
        <ele>234.6</ele>
        <time>2014-02-20T09:16:26.500Z</time>
      </trkpt>
      <trkpt lat="43.56853" lon="2.96517">
        <ele>234.1</ele>
        <time>2014-02-20T09:16:29.497Z</time>
      </trkpt>
      <trkpt lat="43.56855" lon="2.9652">
        <ele>234.1</ele>
        <time>2014-02-20T09:16:30.495Z</time>
      </trkpt>
      <trkpt lat="43.56859" lon="2.96527">
        <ele>233.5</ele>
        <time>2014-02-20T09:16:32.497Z</time>
      </trkpt>
      <trkpt lat="43.56862" lon="2.96531">
        <ele>233.6</ele>
        <time>2014-02-20T09:16:33.495Z</time>
      </trkpt>
      <trkpt lat="43.56865" lon="2.96536">
        <ele>234.3</ele>
        <time>2014-02-20T09:16:34.495Z</time>
      </trkpt>
      <trkpt lat="43.56868" lon="2.9654">
        <ele>234.8</ele>
        <time>2014-02-20T09:16:35.496Z</time>
      </trkpt>
      <trkpt lat="43.56872" lon="2.96546">
        <ele>238</ele>
        <time>2014-02-20T09:16:36.492Z</time>
      </trkpt>
      <trkpt lat="43.56877" lon="2.96552">
        <ele>240.3</ele>
        <time>2014-02-20T09:16:37.487Z</time>
      </trkpt>
      <trkpt lat="43.56879" lon="2.96558">
        <ele>237.7</ele>
        <time>2014-02-20T09:16:38.487Z</time>
      </trkpt>
      <trkpt lat="43.56881" lon="2.96564">
        <ele>237.6</ele>
        <time>2014-02-20T09:16:39.485Z</time>
      </trkpt>
      <trkpt lat="43.56887" lon="2.96571">
        <ele>236.8</ele>
        <time>2014-02-20T09:16:41.487Z</time>
      </trkpt>
      <trkpt lat="43.56889" lon="2.96575">
        <ele>236.8</ele>
        <time>2014-02-20T09:16:42.486Z</time>
      </trkpt>
      <trkpt lat="43.56893" lon="2.96582">
        <ele>238.3</ele>
        <time>2014-02-20T09:16:44.488Z</time>
      </trkpt>
      <trkpt lat="43.56895" lon="2.96585">
        <ele>240.3</ele>
        <time>2014-02-20T09:16:45.485Z</time>
      </trkpt>
      <trkpt lat="43.56902" lon="2.96593">
        <ele>243.2</ele>
        <time>2014-02-20T09:16:48.487Z</time>
      </trkpt>
      <trkpt lat="43.56904" lon="2.96595">
        <ele>243.2</ele>
        <time>2014-02-20T09:16:49.486Z</time>
      </trkpt>
      <trkpt lat="43.56911" lon="2.96602">
        <ele>244.6</ele>
        <time>2014-02-20T09:16:52.487Z</time>
      </trkpt>
      <trkpt lat="43.56914" lon="2.96605">
        <ele>245.1</ele>
        <time>2014-02-20T09:16:53.489Z</time>
      </trkpt>
      <trkpt lat="43.5692" lon="2.96613">
        <ele>245.8</ele>
        <time>2014-02-20T09:16:55.493Z</time>
      </trkpt>
      <trkpt lat="43.56922" lon="2.96616">
        <ele>246</ele>
        <time>2014-02-20T09:16:56.487Z</time>
      </trkpt>
      <trkpt lat="43.56928" lon="2.96625">
        <ele>246.7</ele>
        <time>2014-02-20T09:16:58.489Z</time>
      </trkpt>
      <trkpt lat="43.56933" lon="2.96631">
        <ele>244.1</ele>
        <time>2014-02-20T09:16:59.485Z</time>
      </trkpt>
      <trkpt lat="43.56939" lon="2.96639">
        <ele>243.6</ele>
        <time>2014-02-20T09:17:01.485Z</time>
      </trkpt>
      <trkpt lat="43.56942" lon="2.96641">
        <ele>243.7</ele>
        <time>2014-02-20T09:17:02.524Z</time>
      </trkpt>
      <trkpt lat="43.56948" lon="2.96647">
        <ele>245.2</ele>
        <time>2014-02-20T09:17:04.484Z</time>
      </trkpt>
      <trkpt lat="43.56951" lon="2.9665">
        <ele>244.4</ele>
        <time>2014-02-20T09:17:05.486Z</time>
      </trkpt>
      <trkpt lat="43.56956" lon="2.96657">
        <ele>244.3</ele>
        <time>2014-02-20T09:17:07.485Z</time>
      </trkpt>
      <trkpt lat="43.56959" lon="2.96661">
        <ele>243.9</ele>
        <time>2014-02-20T09:17:08.488Z</time>
      </trkpt>
      <trkpt lat="43.56965" lon="2.96667">
        <ele>244.5</ele>
        <time>2014-02-20T09:17:10.486Z</time>
      </trkpt>
      <trkpt lat="43.56966" lon="2.9667">
        <ele>244.7</ele>
        <time>2014-02-20T09:17:11.486Z</time>
      </trkpt>
      <trkpt lat="43.5697" lon="2.96677">
        <ele>245.1</ele>
        <time>2014-02-20T09:17:13.490Z</time>
      </trkpt>
      <trkpt lat="43.56972" lon="2.9668">
        <ele>245.3</ele>
        <time>2014-02-20T09:17:14.486Z</time>
      </trkpt>
      <trkpt lat="43.56978" lon="2.96687">
        <ele>245.4</ele>
        <time>2014-02-20T09:17:16.491Z</time>
      </trkpt>
      <trkpt lat="43.56982" lon="2.96692">
        <ele>244.1</ele>
        <time>2014-02-20T09:17:17.492Z</time>
      </trkpt>
      <trkpt lat="43.56987" lon="2.96697">
        <ele>243.6</ele>
        <time>2014-02-20T09:17:18.488Z</time>
      </trkpt>
      <trkpt lat="43.56992" lon="2.96701">
        <ele>241.6</ele>
        <time>2014-02-20T09:17:19.487Z</time>
      </trkpt>
      <trkpt lat="43.56996" lon="2.96705">
        <ele>241.6</ele>
        <time>2014-02-20T09:17:20.489Z</time>
      </trkpt>
      <trkpt lat="43.57" lon="2.96708">
        <ele>240.7</ele>
        <time>2014-02-20T09:17:21.485Z</time>
      </trkpt>
      <trkpt lat="43.57004" lon="2.96714">
        <ele>240.9</ele>
        <time>2014-02-20T09:17:22.487Z</time>
      </trkpt>
      <trkpt lat="43.57007" lon="2.96719">
        <ele>240.4</ele>
        <time>2014-02-20T09:17:23.489Z</time>
      </trkpt>
      <trkpt lat="43.5701" lon="2.96724">
        <ele>239.3</ele>
        <time>2014-02-20T09:17:24.486Z</time>
      </trkpt>
      <trkpt lat="43.57013" lon="2.96728">
        <ele>239.2</ele>
        <time>2014-02-20T09:17:25.486Z</time>
      </trkpt>
      <trkpt lat="43.57019" lon="2.96736">
        <ele>240.3</ele>
        <time>2014-02-20T09:17:27.486Z</time>
      </trkpt>
      <trkpt lat="43.57021" lon="2.96741">
        <ele>239.6</ele>
        <time>2014-02-20T09:17:28.487Z</time>
      </trkpt>
      <trkpt lat="43.57027" lon="2.96749">
        <ele>239.7</ele>
        <time>2014-02-20T09:17:30.486Z</time>
      </trkpt>
      <trkpt lat="43.5703" lon="2.96753">
        <ele>239.9</ele>
        <time>2014-02-20T09:17:31.489Z</time>
      </trkpt>
      <trkpt lat="43.57038" lon="2.96758">
        <ele>239.9</ele>
        <time>2014-02-20T09:17:33.486Z</time>
      </trkpt>
      <trkpt lat="43.57042" lon="2.96761">
        <ele>239.2</ele>
        <time>2014-02-20T09:17:34.486Z</time>
      </trkpt>
      <trkpt lat="43.5705" lon="2.96765">
        <ele>239.1</ele>
        <time>2014-02-20T09:17:36.487Z</time>
      </trkpt>
      <trkpt lat="43.57053" lon="2.96768">
        <ele>239.2</ele>
        <time>2014-02-20T09:17:37.490Z</time>
      </trkpt>
      <trkpt lat="43.57057" lon="2.96776">
        <ele>238.8</ele>
        <time>2014-02-20T09:17:39.493Z</time>
      </trkpt>
      <trkpt lat="43.5706" lon="2.9678">
        <ele>238.8</ele>
        <time>2014-02-20T09:17:40.490Z</time>
      </trkpt>
      <trkpt lat="43.57064" lon="2.9679">
        <ele>237.5</ele>
        <time>2014-02-20T09:17:42.492Z</time>
      </trkpt>
      <trkpt lat="43.57066" lon="2.96795">
        <ele>236.6</ele>
        <time>2014-02-20T09:17:43.491Z</time>
      </trkpt>
      <trkpt lat="43.5707" lon="2.968">
        <ele>235.2</ele>
        <time>2014-02-20T09:17:44.487Z</time>
      </trkpt>
      <trkpt lat="43.57075" lon="2.96807">
        <ele>233.7</ele>
        <time>2014-02-20T09:17:45.486Z</time>
      </trkpt>
      <trkpt lat="43.57079" lon="2.96813">
        <ele>233.7</ele>
        <time>2014-02-20T09:17:46.487Z</time>
      </trkpt>
      <trkpt lat="43.57082" lon="2.9682">
        <ele>232.8</ele>
        <time>2014-02-20T09:17:47.487Z</time>
      </trkpt>
      <trkpt lat="43.57083" lon="2.96826">
        <ele>233.3</ele>
        <time>2014-02-20T09:17:48.490Z</time>
      </trkpt>
      <trkpt lat="43.57085" lon="2.96834">
        <ele>234.2</ele>
        <time>2014-02-20T09:17:49.489Z</time>
      </trkpt>
      <trkpt lat="43.57087" lon="2.9684">
        <ele>234.5</ele>
        <time>2014-02-20T09:17:50.492Z</time>
      </trkpt>
      <trkpt lat="43.57089" lon="2.96846">
        <ele>234.7</ele>
        <time>2014-02-20T09:17:51.488Z</time>
      </trkpt>
      <trkpt lat="43.57093" lon="2.96856">
        <ele>233.8</ele>
        <time>2014-02-20T09:17:53.489Z</time>
      </trkpt>
      <trkpt lat="43.57095" lon="2.9686">
        <ele>233.8</ele>
        <time>2014-02-20T09:17:54.487Z</time>
      </trkpt>
      <trkpt lat="43.57099" lon="2.96871">
        <ele>233.8</ele>
        <time>2014-02-20T09:17:57.517Z</time>
      </trkpt>
      <trkpt lat="43.57101" lon="2.96874">
        <ele>233.7</ele>
        <time>2014-02-20T09:17:58.499Z</time>
      </trkpt>
      <trkpt lat="43.57105" lon="2.96885">
        <ele>235.8</ele>
        <time>2014-02-20T09:18:01.501Z</time>
      </trkpt>
      <trkpt lat="43.57106" lon="2.96889">
        <ele>235.6</ele>
        <time>2014-02-20T09:18:02.498Z</time>
      </trkpt>
      <trkpt lat="43.57106" lon="2.96899">
        <ele>235.4</ele>
        <time>2014-02-20T09:18:04.500Z</time>
      </trkpt>
      <trkpt lat="43.57106" lon="2.96906">
        <ele>235.6</ele>
        <time>2014-02-20T09:18:05.506Z</time>
      </trkpt>
      <trkpt lat="43.57107" lon="2.96912">
        <ele>235.3</ele>
        <time>2014-02-20T09:18:06.496Z</time>
      </trkpt>
      <trkpt lat="43.57108" lon="2.96918">
        <ele>235.1</ele>
        <time>2014-02-20T09:18:07.497Z</time>
      </trkpt>
      <trkpt lat="43.57111" lon="2.96928">
        <ele>235</ele>
        <time>2014-02-20T09:18:09.498Z</time>
      </trkpt>
      <trkpt lat="43.57112" lon="2.9693">
        <ele>234.2</ele>
        <time>2014-02-20T09:18:10.500Z</time>
      </trkpt>
      <trkpt lat="43.57115" lon="2.96938">
        <ele>234.6</ele>
        <time>2014-02-20T09:18:12.495Z</time>
      </trkpt>
      <trkpt lat="43.57116" lon="2.96943">
        <ele>233.6</ele>
        <time>2014-02-20T09:18:13.497Z</time>
      </trkpt>
      <trkpt lat="43.57119" lon="2.96953">
        <ele>233.2</ele>
        <time>2014-02-20T09:18:15.490Z</time>
      </trkpt>
      <trkpt lat="43.57119" lon="2.96957">
        <ele>231.8</ele>
        <time>2014-02-20T09:18:16.562Z</time>
      </trkpt>
      <trkpt lat="43.57119" lon="2.96964">
        <ele>231.2</ele>
        <time>2014-02-20T09:18:17.497Z</time>
      </trkpt>
      <trkpt lat="43.5712" lon="2.96971">
        <ele>231.6</ele>
        <time>2014-02-20T09:18:18.496Z</time>
      </trkpt>
      <trkpt lat="43.5712" lon="2.96977">
        <ele>231.6</ele>
        <time>2014-02-20T09:18:19.485Z</time>
      </trkpt>
      <trkpt lat="43.5712" lon="2.96985">
        <ele>231</ele>
        <time>2014-02-20T09:18:20.493Z</time>
      </trkpt>
      <trkpt lat="43.57121" lon="2.96993">
        <ele>229.9</ele>
        <time>2014-02-20T09:18:21.489Z</time>
      </trkpt>
      <trkpt lat="43.57124" lon="2.97003">
        <ele>229.2</ele>
        <time>2014-02-20T09:18:22.487Z</time>
      </trkpt>
      <trkpt lat="43.57127" lon="2.97011">
        <ele>227</ele>
        <time>2014-02-20T09:18:23.487Z</time>
      </trkpt>
      <trkpt lat="43.57129" lon="2.97019">
        <ele>224.9</ele>
        <time>2014-02-20T09:18:24.485Z</time>
      </trkpt>
      <trkpt lat="43.57128" lon="2.97031">
        <ele>224.6</ele>
        <time>2014-02-20T09:18:26.489Z</time>
      </trkpt>
      <trkpt lat="43.57127" lon="2.97036">
        <ele>224.4</ele>
        <time>2014-02-20T09:18:27.485Z</time>
      </trkpt>
      <trkpt lat="43.57128" lon="2.97048">
        <ele>223.2</ele>
        <time>2014-02-20T09:18:29.489Z</time>
      </trkpt>
      <trkpt lat="43.57128" lon="2.97051">
        <ele>222.6</ele>
        <time>2014-02-20T09:18:30.488Z</time>
      </trkpt>
      <trkpt lat="43.57128" lon="2.97064">
        <ele>224</ele>
        <time>2014-02-20T09:18:35.489Z</time>
      </trkpt>
      <trkpt lat="43.57128" lon="2.97065">
        <ele>224.1</ele>
        <time>2014-02-20T09:18:36.487Z</time>
      </trkpt>
      <trkpt lat="43.57126" lon="2.97071">
        <ele>225.2</ele>
        <time>2014-02-20T09:18:39.487Z</time>
      </trkpt>
      <trkpt lat="43.57126" lon="2.97078">
        <ele>224.6</ele>
        <time>2014-02-20T09:18:40.487Z</time>
      </trkpt>
      <trkpt lat="43.57125" lon="2.97089">
        <ele>225</ele>
        <time>2014-02-20T09:18:42.485Z</time>
      </trkpt>
      <trkpt lat="43.57125" lon="2.97094">
        <ele>223.9</ele>
        <time>2014-02-20T09:18:43.487Z</time>
      </trkpt>
      <trkpt lat="43.57124" lon="2.97104">
        <ele>223.6</ele>
        <time>2014-02-20T09:18:45.485Z</time>
      </trkpt>
      <trkpt lat="43.57123" lon="2.97108">
        <ele>222.5</ele>
        <time>2014-02-20T09:18:46.487Z</time>
      </trkpt>
      <trkpt lat="43.57121" lon="2.97116">
        <ele>222.7</ele>
        <time>2014-02-20T09:18:48.485Z</time>
      </trkpt>
      <trkpt lat="43.5712" lon="2.9712">
        <ele>222.8</ele>
        <time>2014-02-20T09:18:49.486Z</time>
      </trkpt>
      <trkpt lat="43.57118" lon="2.9713">
        <ele>222.6</ele>
        <time>2014-02-20T09:18:51.485Z</time>
      </trkpt>
      <trkpt lat="43.57118" lon="2.97134">
        <ele>223</ele>
        <time>2014-02-20T09:18:52.501Z</time>
      </trkpt>
      <trkpt lat="43.57116" lon="2.97145">
        <ele>223.3</ele>
        <time>2014-02-20T09:18:55.488Z</time>
      </trkpt>
      <trkpt lat="43.57115" lon="2.97148">
        <ele>223.1</ele>
        <time>2014-02-20T09:18:56.486Z</time>
      </trkpt>
      <trkpt lat="43.57113" lon="2.97157">
        <ele>223.3</ele>
        <time>2014-02-20T09:18:58.486Z</time>
      </trkpt>
      <trkpt lat="43.57112" lon="2.97164">
        <ele>222.9</ele>
        <time>2014-02-20T09:18:59.489Z</time>
      </trkpt>
      <trkpt lat="43.57111" lon="2.9717">
        <ele>222.6</ele>
        <time>2014-02-20T09:19:00.485Z</time>
      </trkpt>
      <trkpt lat="43.57109" lon="2.97177">
        <ele>222.9</ele>
        <time>2014-02-20T09:19:01.488Z</time>
      </trkpt>
      <trkpt lat="43.57108" lon="2.97184">
        <ele>222.6</ele>
        <time>2014-02-20T09:19:02.488Z</time>
      </trkpt>
      <trkpt lat="43.57106" lon="2.97189">
        <ele>222.6</ele>
        <time>2014-02-20T09:19:03.485Z</time>
      </trkpt>
      <trkpt lat="43.57103" lon="2.97197">
        <ele>222.3</ele>
        <time>2014-02-20T09:19:05.493Z</time>
      </trkpt>
      <trkpt lat="43.57102" lon="2.972">
        <ele>222.3</ele>
        <time>2014-02-20T09:19:06.482Z</time>
      </trkpt>
      <trkpt lat="43.57098" lon="2.97209">
        <ele>222.9</ele>
        <time>2014-02-20T09:19:08.492Z</time>
      </trkpt>
      <trkpt lat="43.57096" lon="2.97214">
        <ele>223.4</ele>
        <time>2014-02-20T09:19:09.487Z</time>
      </trkpt>
      <trkpt lat="43.57093" lon="2.97225">
        <ele>223.5</ele>
        <time>2014-02-20T09:19:11.490Z</time>
      </trkpt>
      <trkpt lat="43.57092" lon="2.9723">
        <ele>223.8</ele>
        <time>2014-02-20T09:19:12.488Z</time>
      </trkpt>
      <trkpt lat="43.57089" lon="2.97237">
        <ele>222.7</ele>
        <time>2014-02-20T09:19:13.488Z</time>
      </trkpt>
      <trkpt lat="43.57086" lon="2.97243">
        <ele>222.8</ele>
        <time>2014-02-20T09:19:14.487Z</time>
      </trkpt>
      <trkpt lat="43.57083" lon="2.97249">
        <ele>222.4</ele>
        <time>2014-02-20T09:19:15.486Z</time>
      </trkpt>
      <trkpt lat="43.57078" lon="2.97253">
        <ele>221.6</ele>
        <time>2014-02-20T09:19:16.486Z</time>
      </trkpt>
      <trkpt lat="43.57074" lon="2.97259">
        <ele>221</ele>
        <time>2014-02-20T09:19:17.488Z</time>
      </trkpt>
      <trkpt lat="43.5707" lon="2.97265">
        <ele>220.7</ele>
        <time>2014-02-20T09:19:18.486Z</time>
      </trkpt>
      <trkpt lat="43.57067" lon="2.9727">
        <ele>220.9</ele>
        <time>2014-02-20T09:19:19.487Z</time>
      </trkpt>
      <trkpt lat="43.57065" lon="2.97276">
        <ele>221.7</ele>
        <time>2014-02-20T09:19:20.488Z</time>
      </trkpt>
      <trkpt lat="43.57062" lon="2.97285">
        <ele>220.6</ele>
        <time>2014-02-20T09:19:22.488Z</time>
      </trkpt>
      <trkpt lat="43.5706" lon="2.97289">
        <ele>221.6</ele>
        <time>2014-02-20T09:19:23.488Z</time>
      </trkpt>
      <trkpt lat="43.57053" lon="2.97296">
        <ele>221.2</ele>
        <time>2014-02-20T09:19:25.487Z</time>
      </trkpt>
      <trkpt lat="43.57049" lon="2.97298">
        <ele>221</ele>
        <time>2014-02-20T09:19:26.494Z</time>
      </trkpt>
      <trkpt lat="43.57042" lon="2.97306">
        <ele>221.1</ele>
        <time>2014-02-20T09:19:28.491Z</time>
      </trkpt>
      <trkpt lat="43.57038" lon="2.97311">
        <ele>221.2</ele>
        <time>2014-02-20T09:19:29.493Z</time>
      </trkpt>
      <trkpt lat="43.57034" lon="2.97316">
        <ele>221.2</ele>
        <time>2014-02-20T09:19:30.489Z</time>
      </trkpt>
      <trkpt lat="43.57031" lon="2.9732">
        <ele>221.3</ele>
        <time>2014-02-20T09:19:31.488Z</time>
      </trkpt>
      <trkpt lat="43.57027" lon="2.97325">
        <ele>220.9</ele>
        <time>2014-02-20T09:19:32.483Z</time>
      </trkpt>
      <trkpt lat="43.57024" lon="2.9733">
        <ele>220.7</ele>
        <time>2014-02-20T09:19:33.486Z</time>
      </trkpt>
      <trkpt lat="43.57021" lon="2.97335">
        <ele>221.5</ele>
        <time>2014-02-20T09:19:34.486Z</time>
      </trkpt>
      <trkpt lat="43.57018" lon="2.9734">
        <ele>221.4</ele>
        <time>2014-02-20T09:19:35.489Z</time>
      </trkpt>
      <trkpt lat="43.57015" lon="2.97345">
        <ele>221.4</ele>
        <time>2014-02-20T09:19:36.486Z</time>
      </trkpt>
      <trkpt lat="43.57012" lon="2.9735">
        <ele>220.7</ele>
        <time>2014-02-20T09:19:37.486Z</time>
      </trkpt>
      <trkpt lat="43.57009" lon="2.97356">
        <ele>218.9</ele>
        <time>2014-02-20T09:19:38.487Z</time>
      </trkpt>
      <trkpt lat="43.57006" lon="2.97362">
        <ele>218.3</ele>
        <time>2014-02-20T09:19:39.484Z</time>
      </trkpt>
      <trkpt lat="43.57" lon="2.9737">
        <ele>217.7</ele>
        <time>2014-02-20T09:19:41.489Z</time>
      </trkpt>
      <trkpt lat="43.56998" lon="2.97374">
        <ele>218.8</ele>
        <time>2014-02-20T09:19:42.484Z</time>
      </trkpt>
      <trkpt lat="43.56995" lon="2.97378">
        <ele>218.5</ele>
        <time>2014-02-20T09:19:43.486Z</time>
      </trkpt>
      <trkpt lat="43.56992" lon="2.97384">
        <ele>216.7</ele>
        <time>2014-02-20T09:19:44.484Z</time>
      </trkpt>
      <trkpt lat="43.56986" lon="2.97392">
        <ele>216.1</ele>
        <time>2014-02-20T09:19:46.486Z</time>
      </trkpt>
      <trkpt lat="43.56982" lon="2.97394">
        <ele>217</ele>
        <time>2014-02-20T09:19:47.492Z</time>
      </trkpt>
      <trkpt lat="43.56976" lon="2.97398">
        <ele>217.5</ele>
        <time>2014-02-20T09:19:49.488Z</time>
      </trkpt>
      <trkpt lat="43.56973" lon="2.97402">
        <ele>219.4</ele>
        <time>2014-02-20T09:19:50.491Z</time>
      </trkpt>
      <trkpt lat="43.56968" lon="2.97412">
        <ele>220.6</ele>
        <time>2014-02-20T09:19:52.488Z</time>
      </trkpt>
      <trkpt lat="43.56967" lon="2.97418">
        <ele>221.5</ele>
        <time>2014-02-20T09:19:53.573Z</time>
      </trkpt>
      <trkpt lat="43.56964" lon="2.97428">
        <ele>222.5</ele>
        <time>2014-02-20T09:19:55.490Z</time>
      </trkpt>
      <trkpt lat="43.56963" lon="2.97433">
        <ele>222.5</ele>
        <time>2014-02-20T09:19:56.495Z</time>
      </trkpt>
      <trkpt lat="43.56961" lon="2.97442">
        <ele>222.4</ele>
        <time>2014-02-20T09:19:58.492Z</time>
      </trkpt>
      <trkpt lat="43.5696" lon="2.97446">
        <ele>222.4</ele>
        <time>2014-02-20T09:19:59.493Z</time>
      </trkpt>
      <trkpt lat="43.56957" lon="2.97454">
        <ele>222.4</ele>
        <time>2014-02-20T09:20:01.491Z</time>
      </trkpt>
      <trkpt lat="43.56956" lon="2.97458">
        <ele>222.4</ele>
        <time>2014-02-20T09:20:02.492Z</time>
      </trkpt>
      <trkpt lat="43.56955" lon="2.97462">
        <ele>222.4</ele>
        <time>2014-02-20T09:20:03.490Z</time>
      </trkpt>
      <trkpt lat="43.56922" lon="2.97609">
        <ele>221.5</ele>
        <time>2014-02-20T09:20:25.503Z</time>
      </trkpt>
      <trkpt lat="43.56925" lon="2.97616">
        <ele>220</ele>
        <time>2014-02-20T09:20:26.498Z</time>
      </trkpt>
      <trkpt lat="43.56923" lon="2.97622">
        <ele>220.1</ele>
        <time>2014-02-20T09:20:27.496Z</time>
      </trkpt>
      <trkpt lat="43.56921" lon="2.97632">
        <ele>219.5</ele>
        <time>2014-02-20T09:20:29.493Z</time>
      </trkpt>
      <trkpt lat="43.56922" lon="2.97637">
        <ele>219.9</ele>
        <time>2014-02-20T09:20:30.490Z</time>
      </trkpt>
      <trkpt lat="43.56924" lon="2.97646">
        <ele>217.6</ele>
        <time>2014-02-20T09:20:32.492Z</time>
      </trkpt>
      <trkpt lat="43.56925" lon="2.9765">
        <ele>217.3</ele>
        <time>2014-02-20T09:20:33.490Z</time>
      </trkpt>
      <trkpt lat="43.56925" lon="2.9766">
        <ele>217.5</ele>
        <time>2014-02-20T09:20:35.494Z</time>
      </trkpt>
      <trkpt lat="43.56926" lon="2.97665">
        <ele>216.4</ele>
        <time>2014-02-20T09:20:36.494Z</time>
      </trkpt>
      <trkpt lat="43.56927" lon="2.97671">
        <ele>216.5</ele>
        <time>2014-02-20T09:20:37.496Z</time>
      </trkpt>
      <trkpt lat="43.56928" lon="2.97678">
        <ele>215.7</ele>
        <time>2014-02-20T09:20:38.497Z</time>
      </trkpt>
      <trkpt lat="43.56928" lon="2.97686">
        <ele>215.4</ele>
        <time>2014-02-20T09:20:39.489Z</time>
      </trkpt>
      <trkpt lat="43.56928" lon="2.97693">
        <ele>215.2</ele>
        <time>2014-02-20T09:20:40.491Z</time>
      </trkpt>
      <trkpt lat="43.56929" lon="2.977">
        <ele>215.1</ele>
        <time>2014-02-20T09:20:41.490Z</time>
      </trkpt>
      <trkpt lat="43.56932" lon="2.97708">
        <ele>215.8</ele>
        <time>2014-02-20T09:20:42.485Z</time>
      </trkpt>
      <trkpt lat="43.56933" lon="2.97716">
        <ele>215.7</ele>
        <time>2014-02-20T09:20:43.490Z</time>
      </trkpt>
      <trkpt lat="43.56933" lon="2.97723">
        <ele>214.4</ele>
        <time>2014-02-20T09:20:44.492Z</time>
      </trkpt>
      <trkpt lat="43.56935" lon="2.97733">
        <ele>217</ele>
        <time>2014-02-20T09:20:46.494Z</time>
      </trkpt>
      <trkpt lat="43.56935" lon="2.97737">
        <ele>218.1</ele>
        <time>2014-02-20T09:20:47.494Z</time>
      </trkpt>
      <trkpt lat="43.56936" lon="2.97748">
        <ele>218</ele>
        <time>2014-02-20T09:20:49.489Z</time>
      </trkpt>
      <trkpt lat="43.56936" lon="2.97752">
        <ele>218.3</ele>
        <time>2014-02-20T09:20:50.492Z</time>
      </trkpt>
      <trkpt lat="43.56936" lon="2.9776">
        <ele>217.5</ele>
        <time>2014-02-20T09:20:52.490Z</time>
      </trkpt>
      <trkpt lat="43.56938" lon="2.97766">
        <ele>218.3</ele>
        <time>2014-02-20T09:20:53.490Z</time>
      </trkpt>
      <trkpt lat="43.56939" lon="2.97772">
        <ele>217</ele>
        <time>2014-02-20T09:20:54.489Z</time>
      </trkpt>
      <trkpt lat="43.56939" lon="2.97778">
        <ele>218</ele>
        <time>2014-02-20T09:20:55.490Z</time>
      </trkpt>
      <trkpt lat="43.56939" lon="2.97785">
        <ele>215.5</ele>
        <time>2014-02-20T09:20:56.491Z</time>
      </trkpt>
      <trkpt lat="43.5694" lon="2.97791">
        <ele>215.1</ele>
        <time>2014-02-20T09:20:57.489Z</time>
      </trkpt>
      <trkpt lat="43.56942" lon="2.97803">
        <ele>213.9</ele>
        <time>2014-02-20T09:20:59.492Z</time>
      </trkpt>
      <trkpt lat="43.56942" lon="2.97809">
        <ele>214.1</ele>
        <time>2014-02-20T09:21:00.488Z</time>
      </trkpt>
      <trkpt lat="43.56945" lon="2.97816">
        <ele>215.5</ele>
        <time>2014-02-20T09:21:02.486Z</time>
      </trkpt>
      <trkpt lat="43.56946" lon="2.97821">
        <ele>214.4</ele>
        <time>2014-02-20T09:21:03.486Z</time>
      </trkpt>
      <trkpt lat="43.56946" lon="2.97832">
        <ele>216.2</ele>
        <time>2014-02-20T09:21:05.486Z</time>
      </trkpt>
      <trkpt lat="43.56946" lon="2.97836">
        <ele>215.7</ele>
        <time>2014-02-20T09:21:06.487Z</time>
      </trkpt>
      <trkpt lat="43.56945" lon="2.97836">
        <ele>218.1</ele>
        <time>2014-02-20T09:21:11.497Z</time>
      </trkpt>
      <trkpt lat="43.56945" lon="2.97836">
        <ele>218.7</ele>
        <time>2014-02-20T09:21:12.493Z</time>
      </trkpt>
      <trkpt lat="43.56945" lon="2.97835">
        <ele>218.2</ele>
        <time>2014-02-20T09:21:19.493Z</time>
      </trkpt>
      <trkpt lat="43.56945" lon="2.97836">
        <ele>217.8</ele>
        <time>2014-02-20T09:21:20.493Z</time>
      </trkpt>
      <trkpt lat="43.56947" lon="2.97848">
        <ele>217.4</ele>
        <time>2014-02-20T09:21:24.490Z</time>
      </trkpt>
      <trkpt lat="43.56948" lon="2.97856">
        <ele>216.4</ele>
        <time>2014-02-20T09:21:25.491Z</time>
      </trkpt>
      <trkpt lat="43.56947" lon="2.97864">
        <ele>217.1</ele>
        <time>2014-02-20T09:21:26.493Z</time>
      </trkpt>
      <trkpt lat="43.56946" lon="2.97871">
        <ele>216.8</ele>
        <time>2014-02-20T09:21:27.486Z</time>
      </trkpt>
      <trkpt lat="43.56945" lon="2.97877">
        <ele>218.5</ele>
        <time>2014-02-20T09:21:28.488Z</time>
      </trkpt>
      <trkpt lat="43.56946" lon="2.97883">
        <ele>219.6</ele>
        <time>2014-02-20T09:21:29.499Z</time>
      </trkpt>
      <trkpt lat="43.56945" lon="2.97889">
        <ele>221</ele>
        <time>2014-02-20T09:21:30.494Z</time>
      </trkpt>
      <trkpt lat="43.56946" lon="2.97897">
        <ele>224</ele>
        <time>2014-02-20T09:21:31.486Z</time>
      </trkpt>
      <trkpt lat="43.56946" lon="2.97906">
        <ele>223.8</ele>
        <time>2014-02-20T09:21:32.491Z</time>
      </trkpt>
      <trkpt lat="43.56946" lon="2.97913">
        <ele>224.1</ele>
        <time>2014-02-20T09:21:33.485Z</time>
      </trkpt>
      <trkpt lat="43.56944" lon="2.97924">
        <ele>225.6</ele>
        <time>2014-02-20T09:21:35.487Z</time>
      </trkpt>
      <trkpt lat="43.56943" lon="2.97929">
        <ele>226.5</ele>
        <time>2014-02-20T09:21:36.486Z</time>
      </trkpt>
      <trkpt lat="43.56941" lon="2.97936">
        <ele>229.1</ele>
        <time>2014-02-20T09:21:38.487Z</time>
      </trkpt>
      <trkpt lat="43.56941" lon="2.97942">
        <ele>230</ele>
        <time>2014-02-20T09:21:39.484Z</time>
      </trkpt>
      <trkpt lat="43.56939" lon="2.97953">
        <ele>230.5</ele>
        <time>2014-02-20T09:21:41.487Z</time>
      </trkpt>
      <trkpt lat="43.56939" lon="2.97957">
        <ele>230.5</ele>
        <time>2014-02-20T09:21:42.485Z</time>
      </trkpt>
      <trkpt lat="43.5694" lon="2.97967">
        <ele>226.9</ele>
        <time>2014-02-20T09:21:44.487Z</time>
      </trkpt>
      <trkpt lat="43.5694" lon="2.97971">
        <ele>226.4</ele>
        <time>2014-02-20T09:21:45.486Z</time>
      </trkpt>
      <trkpt lat="43.56938" lon="2.9798">
        <ele>226.1</ele>
        <time>2014-02-20T09:21:47.488Z</time>
      </trkpt>
      <trkpt lat="43.56938" lon="2.97984">
        <ele>226</ele>
        <time>2014-02-20T09:21:48.485Z</time>
      </trkpt>
      <trkpt lat="43.56936" lon="2.97989">
        <ele>225.8</ele>
        <time>2014-02-20T09:21:49.487Z</time>
      </trkpt>
      <trkpt lat="43.56934" lon="2.97995">
        <ele>225.6</ele>
        <time>2014-02-20T09:21:50.488Z</time>
      </trkpt>
      <trkpt lat="43.56931" lon="2.98006">
        <ele>225.6</ele>
        <time>2014-02-20T09:21:52.487Z</time>
      </trkpt>
      <trkpt lat="43.56929" lon="2.98011">
        <ele>225.5</ele>
        <time>2014-02-20T09:21:53.487Z</time>
      </trkpt>
      <trkpt lat="43.56925" lon="2.98022">
        <ele>224.9</ele>
        <time>2014-02-20T09:21:55.488Z</time>
      </trkpt>
      <trkpt lat="43.56923" lon="2.98028">
        <ele>224.6</ele>
        <time>2014-02-20T09:21:56.516Z</time>
      </trkpt>
      <trkpt lat="43.56919" lon="2.98038">
        <ele>224</ele>
        <time>2014-02-20T09:21:58.487Z</time>
      </trkpt>
      <trkpt lat="43.56919" lon="2.98042">
        <ele>223.7</ele>
        <time>2014-02-20T09:21:59.487Z</time>
      </trkpt>
      <trkpt lat="43.56916" lon="2.9805">
        <ele>224.7</ele>
        <time>2014-02-20T09:22:01.547Z</time>
      </trkpt>
      <trkpt lat="43.56914" lon="2.98054">
        <ele>224.5</ele>
        <time>2014-02-20T09:22:02.490Z</time>
      </trkpt>
      <trkpt lat="43.5691" lon="2.98063">
        <ele>224.6</ele>
        <time>2014-02-20T09:22:04.492Z</time>
      </trkpt>
      <trkpt lat="43.56908" lon="2.98067">
        <ele>225</ele>
        <time>2014-02-20T09:22:05.494Z</time>
      </trkpt>
      <trkpt lat="43.56905" lon="2.98077">
        <ele>225.7</ele>
        <time>2014-02-20T09:22:07.495Z</time>
      </trkpt>
      <trkpt lat="43.56903" lon="2.98083">
        <ele>224.8</ele>
        <time>2014-02-20T09:22:08.491Z</time>
      </trkpt>
      <trkpt lat="43.56899" lon="2.98092">
        <ele>223</ele>
        <time>2014-02-20T09:22:10.490Z</time>
      </trkpt>
      <trkpt lat="43.56897" lon="2.98097">
        <ele>222.9</ele>
        <time>2014-02-20T09:22:11.684Z</time>
      </trkpt>
      <trkpt lat="43.56893" lon="2.98105">
        <ele>222.6</ele>
        <time>2014-02-20T09:22:13.490Z</time>
      </trkpt>
      <trkpt lat="43.56891" lon="2.98111">
        <ele>222.9</ele>
        <time>2014-02-20T09:22:14.498Z</time>
      </trkpt>
      <trkpt lat="43.56887" lon="2.98119">
        <ele>222.5</ele>
        <time>2014-02-20T09:22:16.490Z</time>
      </trkpt>
      <trkpt lat="43.56885" lon="2.98123">
        <ele>222.7</ele>
        <time>2014-02-20T09:22:17.491Z</time>
      </trkpt>
      <trkpt lat="43.56881" lon="2.9813">
        <ele>222.9</ele>
        <time>2014-02-20T09:22:19.491Z</time>
      </trkpt>
      <trkpt lat="43.5688" lon="2.98135">
        <ele>222.3</ele>
        <time>2014-02-20T09:22:20.491Z</time>
      </trkpt>
      <trkpt lat="43.56877" lon="2.98145">
        <ele>220.6</ele>
        <time>2014-02-20T09:22:22.488Z</time>
      </trkpt>
      <trkpt lat="43.56875" lon="2.98149">
        <ele>220</ele>
        <time>2014-02-20T09:22:23.490Z</time>
      </trkpt>
      <trkpt lat="43.5687" lon="2.98159">
        <ele>218.6</ele>
        <time>2014-02-20T09:22:26.490Z</time>
      </trkpt>
      <trkpt lat="43.56868" lon="2.98163">
        <ele>218.3</ele>
        <time>2014-02-20T09:22:27.486Z</time>
      </trkpt>
      <trkpt lat="43.56865" lon="2.98169">
        <ele>218.5</ele>
        <time>2014-02-20T09:22:29.486Z</time>
      </trkpt>
      <trkpt lat="43.56862" lon="2.98174">
        <ele>219.8</ele>
        <time>2014-02-20T09:22:30.486Z</time>
      </trkpt>
      <trkpt lat="43.56859" lon="2.98182">
        <ele>220.3</ele>
        <time>2014-02-20T09:22:32.488Z</time>
      </trkpt>
      <trkpt lat="43.56857" lon="2.98187">
        <ele>220.8</ele>
        <time>2014-02-20T09:22:33.487Z</time>
      </trkpt>
      <trkpt lat="43.56852" lon="2.98197">
        <ele>222.1</ele>
        <time>2014-02-20T09:22:36.493Z</time>
      </trkpt>
      <trkpt lat="43.56851" lon="2.982">
        <ele>222.4</ele>
        <time>2014-02-20T09:22:37.487Z</time>
      </trkpt>
      <trkpt lat="43.56848" lon="2.98208">
        <ele>222.9</ele>
        <time>2014-02-20T09:22:39.487Z</time>
      </trkpt>
      <trkpt lat="43.56847" lon="2.98213">
        <ele>223.3</ele>
        <time>2014-02-20T09:22:40.490Z</time>
      </trkpt>
      <trkpt lat="43.56846" lon="2.98221">
        <ele>223.1</ele>
        <time>2014-02-20T09:22:42.490Z</time>
      </trkpt>
      <trkpt lat="43.56845" lon="2.98226">
        <ele>223.4</ele>
        <time>2014-02-20T09:22:43.491Z</time>
      </trkpt>
      <trkpt lat="43.56844" lon="2.98236">
        <ele>223.5</ele>
        <time>2014-02-20T09:22:45.486Z</time>
      </trkpt>
      <trkpt lat="43.56844" lon="2.98243">
        <ele>223</ele>
        <time>2014-02-20T09:22:46.487Z</time>
      </trkpt>
      <trkpt lat="43.56843" lon="2.98253">
        <ele>222.9</ele>
        <time>2014-02-20T09:22:48.489Z</time>
      </trkpt>
      <trkpt lat="43.56842" lon="2.98257">
        <ele>223.2</ele>
        <time>2014-02-20T09:22:49.493Z</time>
      </trkpt>
      <trkpt lat="43.56842" lon="2.98267">
        <ele>223.9</ele>
        <time>2014-02-20T09:22:51.488Z</time>
      </trkpt>
      <trkpt lat="43.56843" lon="2.98273">
        <ele>223.7</ele>
        <time>2014-02-20T09:22:52.487Z</time>
      </trkpt>
      <trkpt lat="43.56843" lon="2.98283">
        <ele>223.8</ele>
        <time>2014-02-20T09:22:55.487Z</time>
      </trkpt>
      <trkpt lat="43.56842" lon="2.98286">
        <ele>223.8</ele>
        <time>2014-02-20T09:22:56.488Z</time>
      </trkpt>
      <trkpt lat="43.56841" lon="2.98293">
        <ele>224.7</ele>
        <time>2014-02-20T09:23:00.552Z</time>
      </trkpt>
      <trkpt lat="43.56838" lon="2.98298">
        <ele>223.9</ele>
        <time>2014-02-20T09:23:01.487Z</time>
      </trkpt>
      <trkpt lat="43.56834" lon="2.98307">
        <ele>224.3</ele>
        <time>2014-02-20T09:23:03.486Z</time>
      </trkpt>
      <trkpt lat="43.56832" lon="2.9831">
        <ele>224.7</ele>
        <time>2014-02-20T09:23:04.486Z</time>
      </trkpt>
      <trkpt lat="43.5683" lon="2.98319">
        <ele>225.2</ele>
        <time>2014-02-20T09:23:07.487Z</time>
      </trkpt>
      <trkpt lat="43.56829" lon="2.98324">
        <ele>225.5</ele>
        <time>2014-02-20T09:23:08.492Z</time>
      </trkpt>
      <trkpt lat="43.5683" lon="2.98333">
        <ele>223.6</ele>
        <time>2014-02-20T09:23:10.487Z</time>
      </trkpt>
      <trkpt lat="43.5683" lon="2.98336">
        <ele>223.2</ele>
        <time>2014-02-20T09:23:11.491Z</time>
      </trkpt>
      <trkpt lat="43.56828" lon="2.98348">
        <ele>223.9</ele>
        <time>2014-02-20T09:23:16.490Z</time>
      </trkpt>
      <trkpt lat="43.56828" lon="2.98351">
        <ele>224.1</ele>
        <time>2014-02-20T09:23:17.494Z</time>
      </trkpt>
      <trkpt lat="43.56829" lon="2.98362">
        <ele>223.7</ele>
        <time>2014-02-20T09:23:20.492Z</time>
      </trkpt>
      <trkpt lat="43.5683" lon="2.98368">
        <ele>223.2</ele>
        <time>2014-02-20T09:23:21.491Z</time>
      </trkpt>
      <trkpt lat="43.56832" lon="2.98378">
        <ele>222.9</ele>
        <time>2014-02-20T09:23:23.488Z</time>
      </trkpt>
      <trkpt lat="43.56833" lon="2.98382">
        <ele>222.8</ele>
        <time>2014-02-20T09:23:24.487Z</time>
      </trkpt>
      <trkpt lat="43.56834" lon="2.98391">
        <ele>222.4</ele>
        <time>2014-02-20T09:23:26.491Z</time>
      </trkpt>
      <trkpt lat="43.56834" lon="2.98396">
        <ele>222.2</ele>
        <time>2014-02-20T09:23:27.486Z</time>
      </trkpt>
      <trkpt lat="43.56834" lon="2.98405">
        <ele>222.4</ele>
        <time>2014-02-20T09:23:29.491Z</time>
      </trkpt>
      <trkpt lat="43.56835" lon="2.9841">
        <ele>222.7</ele>
        <time>2014-02-20T09:23:30.489Z</time>
      </trkpt>
      <trkpt lat="43.56836" lon="2.98421">
        <ele>222.7</ele>
        <time>2014-02-20T09:23:33.489Z</time>
      </trkpt>
      <trkpt lat="43.56837" lon="2.98425">
        <ele>222.7</ele>
        <time>2014-02-20T09:23:34.506Z</time>
      </trkpt>
      <trkpt lat="43.56838" lon="2.98432">
        <ele>222.7</ele>
        <time>2014-02-20T09:23:36.489Z</time>
      </trkpt>
      <trkpt lat="43.56976" lon="2.98773">
        <ele>223.8</ele>
        <time>2014-02-20T09:24:45.502Z</time>
      </trkpt>
      <trkpt lat="43.56976" lon="2.9878">
        <ele>224.2</ele>
        <time>2014-02-20T09:24:46.493Z</time>
      </trkpt>
      <trkpt lat="43.56978" lon="2.98786">
        <ele>225.1</ele>
        <time>2014-02-20T09:24:47.498Z</time>
      </trkpt>
      <trkpt lat="43.56983" lon="2.98795">
        <ele>224.1</ele>
        <time>2014-02-20T09:24:49.501Z</time>
      </trkpt>
      <trkpt lat="43.56986" lon="2.98799">
        <ele>225.8</ele>
        <time>2014-02-20T09:24:50.498Z</time>
      </trkpt>
      <trkpt lat="43.56993" lon="2.98808">
        <ele>226.9</ele>
        <time>2014-02-20T09:24:52.494Z</time>
      </trkpt>
      <trkpt lat="43.56995" lon="2.98813">
        <ele>226.8</ele>
        <time>2014-02-20T09:24:53.494Z</time>
      </trkpt>
      <trkpt lat="43.56999" lon="2.98815">
        <ele>225.9</ele>
        <time>2014-02-20T09:24:54.489Z</time>
      </trkpt>
      <trkpt lat="43.57004" lon="2.98816">
        <ele>225.8</ele>
        <time>2014-02-20T09:24:55.491Z</time>
      </trkpt>
      <trkpt lat="43.5701" lon="2.98822">
        <ele>225.9</ele>
        <time>2014-02-20T09:24:56.492Z</time>
      </trkpt>
      <trkpt lat="43.57015" lon="2.98826">
        <ele>225.3</ele>
        <time>2014-02-20T09:24:57.491Z</time>
      </trkpt>
      <trkpt lat="43.57019" lon="2.9883">
        <ele>225</ele>
        <time>2014-02-20T09:24:58.494Z</time>
      </trkpt>
      <trkpt lat="43.57023" lon="2.98833">
        <ele>225.6</ele>
        <time>2014-02-20T09:24:59.495Z</time>
      </trkpt>
      <trkpt lat="43.5703" lon="2.98841">
        <ele>225.9</ele>
        <time>2014-02-20T09:25:01.495Z</time>
      </trkpt>
      <trkpt lat="43.57032" lon="2.98846">
        <ele>225.6</ele>
        <time>2014-02-20T09:25:02.491Z</time>
      </trkpt>
      <trkpt lat="43.57035" lon="2.98849">
        <ele>224.5</ele>
        <time>2014-02-20T09:25:03.487Z</time>
      </trkpt>
      <trkpt lat="43.57039" lon="2.98854">
        <ele>226.1</ele>
        <time>2014-02-20T09:25:04.487Z</time>
      </trkpt>
      <trkpt lat="43.57043" lon="2.98858">
        <ele>225.9</ele>
        <time>2014-02-20T09:25:05.487Z</time>
      </trkpt>
      <trkpt lat="43.57046" lon="2.98864">
        <ele>225.1</ele>
        <time>2014-02-20T09:25:06.584Z</time>
      </trkpt>
      <trkpt lat="43.57048" lon="2.98869">
        <ele>224.6</ele>
        <time>2014-02-20T09:25:07.487Z</time>
      </trkpt>
      <trkpt lat="43.57051" lon="2.98876">
        <ele>223.4</ele>
        <time>2014-02-20T09:25:08.486Z</time>
      </trkpt>
      <trkpt lat="43.57056" lon="2.98886">
        <ele>225.2</ele>
        <time>2014-02-20T09:25:10.488Z</time>
      </trkpt>
      <trkpt lat="43.57058" lon="2.98889">
        <ele>225.3</ele>
        <time>2014-02-20T09:25:11.553Z</time>
      </trkpt>
      <trkpt lat="43.57062" lon="2.98897">
        <ele>226.5</ele>
        <time>2014-02-20T09:25:13.488Z</time>
      </trkpt>
      <trkpt lat="43.57064" lon="2.98902">
        <ele>227</ele>
        <time>2014-02-20T09:25:14.980Z</time>
      </trkpt>
      <trkpt lat="43.57069" lon="2.98911">
        <ele>227.9</ele>
        <time>2014-02-20T09:25:17.495Z</time>
      </trkpt>
      <trkpt lat="43.57069" lon="2.98914">
        <ele>228.5</ele>
        <time>2014-02-20T09:25:18.494Z</time>
      </trkpt>
      <trkpt lat="43.57073" lon="2.98923">
        <ele>229.2</ele>
        <time>2014-02-20T09:25:21.495Z</time>
      </trkpt>
      <trkpt lat="43.57075" lon="2.98926">
        <ele>229</ele>
        <time>2014-02-20T09:25:22.497Z</time>
      </trkpt>
      <trkpt lat="43.57079" lon="2.9893">
        <ele>229</ele>
        <time>2014-02-20T09:25:23.497Z</time>
      </trkpt>
      <trkpt lat="43.57082" lon="2.98935">
        <ele>228.9</ele>
        <time>2014-02-20T09:25:24.507Z</time>
      </trkpt>
      <trkpt lat="43.57085" lon="2.98943">
        <ele>228.4</ele>
        <time>2014-02-20T09:25:26.497Z</time>
      </trkpt>
      <trkpt lat="43.57088" lon="2.98949">
        <ele>228.8</ele>
        <time>2014-02-20T09:25:27.495Z</time>
      </trkpt>
      <trkpt lat="43.57091" lon="2.98954">
        <ele>229.1</ele>
        <time>2014-02-20T09:25:28.495Z</time>
      </trkpt>
      <trkpt lat="43.57095" lon="2.9896">
        <ele>229.6</ele>
        <time>2014-02-20T09:25:29.772Z</time>
      </trkpt>
      <trkpt lat="43.571" lon="2.98968">
        <ele>228.5</ele>
        <time>2014-02-20T09:25:31.496Z</time>
      </trkpt>
      <trkpt lat="43.57102" lon="2.98972">
        <ele>227.8</ele>
        <time>2014-02-20T09:25:32.497Z</time>
      </trkpt>
      <trkpt lat="43.57108" lon="2.98982">
        <ele>226.3</ele>
        <time>2014-02-20T09:25:34.496Z</time>
      </trkpt>
      <trkpt lat="43.57111" lon="2.98987">
        <ele>226.7</ele>
        <time>2014-02-20T09:25:35.497Z</time>
      </trkpt>
      <trkpt lat="43.57116" lon="2.98993">
        <ele>226.2</ele>
        <time>2014-02-20T09:25:36.495Z</time>
      </trkpt>
      <trkpt lat="43.57121" lon="2.98999">
        <ele>226.2</ele>
        <time>2014-02-20T09:25:37.496Z</time>
      </trkpt>
      <trkpt lat="43.57126" lon="2.99006">
        <ele>226.4</ele>
        <time>2014-02-20T09:25:38.497Z</time>
      </trkpt>
      <trkpt lat="43.57129" lon="2.99013">
        <ele>226.4</ele>
        <time>2014-02-20T09:25:39.496Z</time>
      </trkpt>
      <trkpt lat="43.57133" lon="2.9902">
        <ele>225.4</ele>
        <time>2014-02-20T09:25:40.496Z</time>
      </trkpt>
      <trkpt lat="43.57135" lon="2.99026">
        <ele>225.2</ele>
        <time>2014-02-20T09:25:41.498Z</time>
      </trkpt>
      <trkpt lat="43.5714" lon="2.99036">
        <ele>225.5</ele>
        <time>2014-02-20T09:25:43.546Z</time>
      </trkpt>
      <trkpt lat="43.57141" lon="2.9904">
        <ele>225.7</ele>
        <time>2014-02-20T09:25:44.514Z</time>
      </trkpt>
      <trkpt lat="43.57143" lon="2.99045">
        <ele>226</ele>
        <time>2014-02-20T09:25:45.490Z</time>
      </trkpt>
      <trkpt lat="43.57146" lon="2.99051">
        <ele>226.3</ele>
        <time>2014-02-20T09:25:46.491Z</time>
      </trkpt>
      <trkpt lat="43.57149" lon="2.99058">
        <ele>225.9</ele>
        <time>2014-02-20T09:25:47.507Z</time>
      </trkpt>
      <trkpt lat="43.57151" lon="2.99064">
        <ele>225.5</ele>
        <time>2014-02-20T09:25:48.500Z</time>
      </trkpt>
      <trkpt lat="43.57153" lon="2.99074">
        <ele>226.8</ele>
        <time>2014-02-20T09:25:50.503Z</time>
      </trkpt>
      <trkpt lat="43.57152" lon="2.99079">
        <ele>227.5</ele>
        <time>2014-02-20T09:25:51.491Z</time>
      </trkpt>
      <trkpt lat="43.57152" lon="2.99089">
        <ele>227.8</ele>
        <time>2014-02-20T09:25:53.498Z</time>
      </trkpt>
      <trkpt lat="43.57153" lon="2.99092">
        <ele>228.1</ele>
        <time>2014-02-20T09:25:54.497Z</time>
      </trkpt>
      <trkpt lat="43.57157" lon="2.99097">
        <ele>228.6</ele>
        <time>2014-02-20T09:25:56.501Z</time>
      </trkpt>
      <trkpt lat="43.57162" lon="2.99099">
        <ele>228.7</ele>
        <time>2014-02-20T09:25:57.497Z</time>
      </trkpt>
      <trkpt lat="43.57167" lon="2.99102">
        <ele>228.6</ele>
        <time>2014-02-20T09:25:58.496Z</time>
      </trkpt>
      <trkpt lat="43.57172" lon="2.99106">
        <ele>228.3</ele>
        <time>2014-02-20T09:25:59.497Z</time>
      </trkpt>
      <trkpt lat="43.57176" lon="2.99113">
        <ele>228.5</ele>
        <time>2014-02-20T09:26:00.495Z</time>
      </trkpt>
      <trkpt lat="43.5718" lon="2.99118">
        <ele>227.9</ele>
        <time>2014-02-20T09:26:01.496Z</time>
      </trkpt>
      <trkpt lat="43.57183" lon="2.99123">
        <ele>227.3</ele>
        <time>2014-02-20T09:26:02.505Z</time>
      </trkpt>
      <trkpt lat="43.57185" lon="2.99129">
        <ele>226.8</ele>
        <time>2014-02-20T09:26:03.493Z</time>
      </trkpt>
      <trkpt lat="43.57187" lon="2.99141">
        <ele>226.1</ele>
        <time>2014-02-20T09:26:05.496Z</time>
      </trkpt>
      <trkpt lat="43.57188" lon="2.9915">
        <ele>224.4</ele>
        <time>2014-02-20T09:26:06.494Z</time>
      </trkpt>
      <trkpt lat="43.57188" lon="2.99161">
        <ele>223.6</ele>
        <time>2014-02-20T09:26:07.495Z</time>
      </trkpt>
      <trkpt lat="43.57187" lon="2.9917">
        <ele>223.6</ele>
        <time>2014-02-20T09:26:08.499Z</time>
      </trkpt>
      <trkpt lat="43.57186" lon="2.99179">
        <ele>222.5</ele>
        <time>2014-02-20T09:26:09.494Z</time>
      </trkpt>
      <trkpt lat="43.57186" lon="2.99185">
        <ele>221.9</ele>
        <time>2014-02-20T09:26:10.495Z</time>
      </trkpt>
      <trkpt lat="43.57188" lon="2.99194">
        <ele>222.4</ele>
        <time>2014-02-20T09:26:12.495Z</time>
      </trkpt>
      <trkpt lat="43.57189" lon="2.99198">
        <ele>222.4</ele>
        <time>2014-02-20T09:26:13.494Z</time>
      </trkpt>
      <trkpt lat="43.5719" lon="2.99203">
        <ele>221.4</ele>
        <time>2014-02-20T09:26:14.491Z</time>
      </trkpt>
      <trkpt lat="43.57192" lon="2.99212">
        <ele>222.9</ele>
        <time>2014-02-20T09:26:15.490Z</time>
      </trkpt>
      <trkpt lat="43.57194" lon="2.99219">
        <ele>222.8</ele>
        <time>2014-02-20T09:26:16.491Z</time>
      </trkpt>
      <trkpt lat="43.57197" lon="2.99225">
        <ele>222.9</ele>
        <time>2014-02-20T09:26:17.493Z</time>
      </trkpt>
      <trkpt lat="43.572" lon="2.99233">
        <ele>223.4</ele>
        <time>2014-02-20T09:26:19.495Z</time>
      </trkpt>
      <trkpt lat="43.57202" lon="2.99236">
        <ele>223.8</ele>
        <time>2014-02-20T09:26:20.498Z</time>
      </trkpt>
      <trkpt lat="43.57206" lon="2.99242">
        <ele>223.8</ele>
        <time>2014-02-20T09:26:22.491Z</time>
      </trkpt>
      <trkpt lat="43.57208" lon="2.99247">
        <ele>224.2</ele>
        <time>2014-02-20T09:26:23.492Z</time>
      </trkpt>
      <trkpt lat="43.57211" lon="2.99252">
        <ele>223.5</ele>
        <time>2014-02-20T09:26:24.490Z</time>
      </trkpt>
      <trkpt lat="43.57213" lon="2.99259">
        <ele>222.8</ele>
        <time>2014-02-20T09:26:25.491Z</time>
      </trkpt>
      <trkpt lat="43.57214" lon="2.99265">
        <ele>222.6</ele>
        <time>2014-02-20T09:26:26.491Z</time>
      </trkpt>
      <trkpt lat="43.57215" lon="2.99274">
        <ele>222.8</ele>
        <time>2014-02-20T09:26:27.490Z</time>
      </trkpt>
      <trkpt lat="43.57216" lon="2.9928">
        <ele>223.2</ele>
        <time>2014-02-20T09:26:28.486Z</time>
      </trkpt>
      <trkpt lat="43.57218" lon="2.99286">
        <ele>224.2</ele>
        <time>2014-02-20T09:26:29.490Z</time>
      </trkpt>
      <trkpt lat="43.57219" lon="2.99293">
        <ele>224.2</ele>
        <time>2014-02-20T09:26:30.488Z</time>
      </trkpt>
      <trkpt lat="43.5722" lon="2.99299">
        <ele>224.6</ele>
        <time>2014-02-20T09:26:31.496Z</time>
      </trkpt>
      <trkpt lat="43.57222" lon="2.99309">
        <ele>225.8</ele>
        <time>2014-02-20T09:26:33.498Z</time>
      </trkpt>
      <trkpt lat="43.57225" lon="2.99314">
        <ele>225.7</ele>
        <time>2014-02-20T09:26:34.498Z</time>
      </trkpt>
      <trkpt lat="43.57229" lon="2.99323">
        <ele>224.4</ele>
        <time>2014-02-20T09:26:35.500Z</time>
      </trkpt>
      <trkpt lat="43.57232" lon="2.9933">
        <ele>223.2</ele>
        <time>2014-02-20T09:26:36.506Z</time>
      </trkpt>
      <trkpt lat="43.57237" lon="2.99337">
        <ele>223.1</ele>
        <time>2014-02-20T09:26:37.490Z</time>
      </trkpt>
      <trkpt lat="43.57241" lon="2.99343">
        <ele>220.4</ele>
        <time>2014-02-20T09:26:38.491Z</time>
      </trkpt>
      <trkpt lat="43.57244" lon="2.99348">
        <ele>220.2</ele>
        <time>2014-02-20T09:26:39.490Z</time>
      </trkpt>
      <trkpt lat="43.57247" lon="2.99354">
        <ele>218.8</ele>
        <time>2014-02-20T09:26:40.490Z</time>
      </trkpt>
      <trkpt lat="43.57247" lon="2.99359">
        <ele>216.3</ele>
        <time>2014-02-20T09:26:41.492Z</time>
      </trkpt>
      <trkpt lat="43.57248" lon="2.99366">
        <ele>216.2</ele>
        <time>2014-02-20T09:26:42.490Z</time>
      </trkpt>
      <trkpt lat="43.57249" lon="2.99378">
        <ele>212</ele>
        <time>2014-02-20T09:26:44.491Z</time>
      </trkpt>
      <trkpt lat="43.57252" lon="2.99382">
        <ele>212.7</ele>
        <time>2014-02-20T09:26:45.488Z</time>
      </trkpt>
      <trkpt lat="43.57257" lon="2.99385">
        <ele>211.1</ele>
        <time>2014-02-20T09:26:46.492Z</time>
      </trkpt>
      <trkpt lat="43.57261" lon="2.99388">
        <ele>210.7</ele>
        <time>2014-02-20T09:26:47.492Z</time>
      </trkpt>
      <trkpt lat="43.57266" lon="2.99391">
        <ele>211.6</ele>
        <time>2014-02-20T09:26:48.488Z</time>
      </trkpt>
      <trkpt lat="43.57269" lon="2.99395">
        <ele>213.1</ele>
        <time>2014-02-20T09:26:49.487Z</time>
      </trkpt>
      <trkpt lat="43.57271" lon="2.994">
        <ele>213.9</ele>
        <time>2014-02-20T09:26:50.488Z</time>
      </trkpt>
      <trkpt lat="43.57272" lon="2.99409">
        <ele>213.8</ele>
        <time>2014-02-20T09:26:52.205Z</time>
      </trkpt>
      <trkpt lat="43.57273" lon="2.99418">
        <ele>214.5</ele>
        <time>2014-02-20T09:26:53.488Z</time>
      </trkpt>
      <trkpt lat="43.57278" lon="2.99423">
        <ele>215</ele>
        <time>2014-02-20T09:26:54.795Z</time>
      </trkpt>
      <trkpt lat="43.57283" lon="2.99432">
        <ele>215.9</ele>
        <time>2014-02-20T09:26:56.489Z</time>
      </trkpt>
      <trkpt lat="43.57285" lon="2.99438">
        <ele>215.6</ele>
        <time>2014-02-20T09:26:57.487Z</time>
      </trkpt>
      <trkpt lat="43.57288" lon="2.99448">
        <ele>216.3</ele>
        <time>2014-02-20T09:26:59.487Z</time>
      </trkpt>
      <trkpt lat="43.57289" lon="2.99453">
        <ele>216.4</ele>
        <time>2014-02-20T09:27:00.488Z</time>
      </trkpt>
      <trkpt lat="43.57292" lon="2.99464">
        <ele>218</ele>
        <time>2014-02-20T09:27:03.490Z</time>
      </trkpt>
      <trkpt lat="43.57293" lon="2.99466">
        <ele>218.2</ele>
        <time>2014-02-20T09:27:04.491Z</time>
      </trkpt>
      <trkpt lat="43.573" lon="2.99474">
        <ele>219.9</ele>
        <time>2014-02-20T09:27:06.490Z</time>
      </trkpt>
      <trkpt lat="43.57303" lon="2.99478">
        <ele>220.2</ele>
        <time>2014-02-20T09:27:07.488Z</time>
      </trkpt>
      <trkpt lat="43.57308" lon="2.99488">
        <ele>220.9</ele>
        <time>2014-02-20T09:27:09.553Z</time>
      </trkpt>
      <trkpt lat="43.57308" lon="2.9949">
        <ele>220.9</ele>
        <time>2014-02-20T09:27:10.488Z</time>
      </trkpt>
      <trkpt lat="43.5731" lon="2.99499">
        <ele>222.1</ele>
        <time>2014-02-20T09:27:12.487Z</time>
      </trkpt>
      <trkpt lat="43.57311" lon="2.99504">
        <ele>222.3</ele>
        <time>2014-02-20T09:27:13.492Z</time>
      </trkpt>
      <trkpt lat="43.57314" lon="2.99512">
        <ele>223.5</ele>
        <time>2014-02-20T09:27:15.508Z</time>
      </trkpt>
      <trkpt lat="43.57316" lon="2.99518">
        <ele>223.5</ele>
        <time>2014-02-20T09:27:16.507Z</time>
      </trkpt>
      <trkpt lat="43.57322" lon="2.99523">
        <ele>224</ele>
        <time>2014-02-20T09:27:17.495Z</time>
      </trkpt>
      <trkpt lat="43.57327" lon="2.99529">
        <ele>224.9</ele>
        <time>2014-02-20T09:27:18.494Z</time>
      </trkpt>
      <trkpt lat="43.57332" lon="2.99533">
        <ele>225.3</ele>
        <time>2014-02-20T09:27:19.495Z</time>
      </trkpt>
      <trkpt lat="43.57336" lon="2.99537">
        <ele>225.3</ele>
        <time>2014-02-20T09:27:20.491Z</time>
      </trkpt>
      <trkpt lat="43.57338" lon="2.99543">
        <ele>224.2</ele>
        <time>2014-02-20T09:27:21.493Z</time>
      </trkpt>
      <trkpt lat="43.57341" lon="2.99549">
        <ele>223.1</ele>
        <time>2014-02-20T09:27:22.493Z</time>
      </trkpt>
      <trkpt lat="43.57344" lon="2.99555">
        <ele>221.3</ele>
        <time>2014-02-20T09:27:23.493Z</time>
      </trkpt>
      <trkpt lat="43.57347" lon="2.99562">
        <ele>220.8</ele>
        <time>2014-02-20T09:27:24.492Z</time>
      </trkpt>
      <trkpt lat="43.57353" lon="2.99567">
        <ele>220.7</ele>
        <time>2014-02-20T09:27:25.496Z</time>
      </trkpt>
      <trkpt lat="43.57357" lon="2.99573">
        <ele>219.7</ele>
        <time>2014-02-20T09:27:26.497Z</time>
      </trkpt>
      <trkpt lat="43.57362" lon="2.99581">
        <ele>218.6</ele>
        <time>2014-02-20T09:27:28.493Z</time>
      </trkpt>
      <trkpt lat="43.57365" lon="2.99585">
        <ele>217.9</ele>
        <time>2014-02-20T09:27:29.495Z</time>
      </trkpt>
      <trkpt lat="43.57368" lon="2.9959">
        <ele>217.4</ele>
        <time>2014-02-20T09:27:30.492Z</time>
      </trkpt>
      <trkpt lat="43.57371" lon="2.99594">
        <ele>217.8</ele>
        <time>2014-02-20T09:27:31.494Z</time>
      </trkpt>
      <trkpt lat="43.57377" lon="2.99604">
        <ele>217.8</ele>
        <time>2014-02-20T09:27:33.494Z</time>
      </trkpt>
      <trkpt lat="43.5738" lon="2.99608">
        <ele>217.6</ele>
        <time>2014-02-20T09:27:34.487Z</time>
      </trkpt>
      <trkpt lat="43.57384" lon="2.99618">
        <ele>217.2</ele>
        <time>2014-02-20T09:27:36.485Z</time>
      </trkpt>
      <trkpt lat="43.57386" lon="2.99621">
        <ele>218.2</ele>
        <time>2014-02-20T09:27:37.490Z</time>
      </trkpt>
      <trkpt lat="43.57388" lon="2.99625">
        <ele>219.1</ele>
        <time>2014-02-20T09:27:38.487Z</time>
      </trkpt>
      <trkpt lat="43.5739" lon="2.99632">
        <ele>219.8</ele>
        <time>2014-02-20T09:27:39.490Z</time>
      </trkpt>
      <trkpt lat="43.57393" lon="2.9964">
        <ele>220.3</ele>
        <time>2014-02-20T09:27:40.492Z</time>
      </trkpt>
      <trkpt lat="43.57396" lon="2.99648">
        <ele>221.3</ele>
        <time>2014-02-20T09:27:41.486Z</time>
      </trkpt>
      <trkpt lat="43.57399" lon="2.99654">
        <ele>222.1</ele>
        <time>2014-02-20T09:27:42.487Z</time>
      </trkpt>
      <trkpt lat="43.57401" lon="2.9966">
        <ele>222.7</ele>
        <time>2014-02-20T09:27:43.488Z</time>
      </trkpt>
      <trkpt lat="43.57407" lon="2.99669">
        <ele>223.4</ele>
        <time>2014-02-20T09:27:45.486Z</time>
      </trkpt>
      <trkpt lat="43.5741" lon="2.99671">
        <ele>225.3</ele>
        <time>2014-02-20T09:27:46.487Z</time>
      </trkpt>
      <trkpt lat="43.57415" lon="2.99678">
        <ele>225.5</ele>
        <time>2014-02-20T09:27:48.488Z</time>
      </trkpt>
      <trkpt lat="43.57416" lon="2.99681">
        <ele>226.1</ele>
        <time>2014-02-20T09:27:49.487Z</time>
      </trkpt>
      <trkpt lat="43.57419" lon="2.9969">
        <ele>227.6</ele>
        <time>2014-02-20T09:27:51.487Z</time>
      </trkpt>
      <trkpt lat="43.5742" lon="2.99694">
        <ele>227.5</ele>
        <time>2014-02-20T09:27:52.487Z</time>
      </trkpt>
      <trkpt lat="43.57424" lon="2.99703">
        <ele>226.7</ele>
        <time>2014-02-20T09:27:55.486Z</time>
      </trkpt>
      <trkpt lat="43.57427" lon="2.99706">
        <ele>227.6</ele>
        <time>2014-02-20T09:27:56.510Z</time>
      </trkpt>
      <trkpt lat="43.57431" lon="2.99713">
        <ele>227.4</ele>
        <time>2014-02-20T09:27:58.491Z</time>
      </trkpt>
      <trkpt lat="43.57433" lon="2.99716">
        <ele>227.8</ele>
        <time>2014-02-20T09:27:59.495Z</time>
      </trkpt>
      <trkpt lat="43.57436" lon="2.99727">
        <ele>229.2</ele>
        <time>2014-02-20T09:28:02.500Z</time>
      </trkpt>
      <trkpt lat="43.57437" lon="2.99729">
        <ele>228.6</ele>
        <time>2014-02-20T09:28:03.495Z</time>
      </trkpt>
      <trkpt lat="43.57434" lon="2.99739">
        <ele>226.7</ele>
        <time>2014-02-20T09:28:08.497Z</time>
      </trkpt>
      <trkpt lat="43.57433" lon="2.99744">
        <ele>226.1</ele>
        <time>2014-02-20T09:28:09.493Z</time>
      </trkpt>
      <trkpt lat="43.57441" lon="2.9975">
        <ele>225.1</ele>
        <time>2014-02-20T09:28:13.499Z</time>
      </trkpt>
      <trkpt lat="43.57441" lon="2.99751">
        <ele>223.8</ele>
        <time>2014-02-20T09:28:14.512Z</time>
      </trkpt>
      <trkpt lat="43.57444" lon="2.99759">
        <ele>218.2</ele>
        <time>2014-02-20T09:28:16.555Z</time>
      </trkpt>
      <trkpt lat="43.57446" lon="2.99762">
        <ele>217.8</ele>
        <time>2014-02-20T09:28:17.488Z</time>
      </trkpt>
      <trkpt lat="43.5745" lon="2.99772">
        <ele>215.7</ele>
        <time>2014-02-20T09:28:20.488Z</time>
      </trkpt>
      <trkpt lat="43.57451" lon="2.99776">
        <ele>216.5</ele>
        <time>2014-02-20T09:28:21.484Z</time>
      </trkpt>
      <trkpt lat="43.57455" lon="2.99783">
        <ele>218</ele>
        <time>2014-02-20T09:28:23.487Z</time>
      </trkpt>
      <trkpt lat="43.57456" lon="2.99787">
        <ele>219.5</ele>
        <time>2014-02-20T09:28:24.486Z</time>
      </trkpt>
      <trkpt lat="43.5746" lon="2.99793">
        <ele>220.2</ele>
        <time>2014-02-20T09:28:26.490Z</time>
      </trkpt>
      <trkpt lat="43.57461" lon="2.99797">
        <ele>221.6</ele>
        <time>2014-02-20T09:28:27.485Z</time>
      </trkpt>
      <trkpt lat="43.57467" lon="2.99805">
        <ele>221.8</ele>
        <time>2014-02-20T09:28:29.487Z</time>
      </trkpt>
      <trkpt lat="43.5747" lon="2.99812">
        <ele>222.8</ele>
        <time>2014-02-20T09:28:30.488Z</time>
      </trkpt>
      <trkpt lat="43.57473" lon="2.99818">
        <ele>223.3</ele>
        <time>2014-02-20T09:28:31.487Z</time>
      </trkpt>
      <trkpt lat="43.57475" lon="2.99823">
        <ele>223.3</ele>
        <time>2014-02-20T09:28:32.487Z</time>
      </trkpt>
      <trkpt lat="43.57476" lon="2.99834">
        <ele>220.3</ele>
        <time>2014-02-20T09:28:34.487Z</time>
      </trkpt>
      <trkpt lat="43.57476" lon="2.99838">
        <ele>219.5</ele>
        <time>2014-02-20T09:28:35.486Z</time>
      </trkpt>
      <trkpt lat="43.57479" lon="2.99849">
        <ele>220.1</ele>
        <time>2014-02-20T09:28:38.486Z</time>
      </trkpt>
      <trkpt lat="43.57481" lon="2.99853">
        <ele>221.3</ele>
        <time>2014-02-20T09:28:39.486Z</time>
      </trkpt>
      <trkpt lat="43.57484" lon="2.99861">
        <ele>221.2</ele>
        <time>2014-02-20T09:28:41.488Z</time>
      </trkpt>
      <trkpt lat="43.57486" lon="2.99864">
        <ele>221.7</ele>
        <time>2014-02-20T09:28:42.486Z</time>
      </trkpt>
      <trkpt lat="43.57489" lon="2.99872">
        <ele>221.1</ele>
        <time>2014-02-20T09:28:44.486Z</time>
      </trkpt>
      <trkpt lat="43.57491" lon="2.99876">
        <ele>221.5</ele>
        <time>2014-02-20T09:28:45.485Z</time>
      </trkpt>
      <trkpt lat="43.57495" lon="2.99885">
        <ele>220.5</ele>
        <time>2014-02-20T09:28:47.488Z</time>
      </trkpt>
      <trkpt lat="43.57498" lon="2.9989">
        <ele>220.3</ele>
        <time>2014-02-20T09:28:48.485Z</time>
      </trkpt>
      <trkpt lat="43.57501" lon="2.999">
        <ele>220.3</ele>
        <time>2014-02-20T09:28:50.489Z</time>
      </trkpt>
      <trkpt lat="43.57503" lon="2.99906">
        <ele>220.7</ele>
        <time>2014-02-20T09:28:51.486Z</time>
      </trkpt>
      <trkpt lat="43.57505" lon="2.99917">
        <ele>221</ele>
        <time>2014-02-20T09:28:53.488Z</time>
      </trkpt>
      <trkpt lat="43.57506" lon="2.99921">
        <ele>222</ele>
        <time>2014-02-20T09:28:54.484Z</time>
      </trkpt>
      <trkpt lat="43.57507" lon="2.99929">
        <ele>221.4</ele>
        <time>2014-02-20T09:28:56.486Z</time>
      </trkpt>
      <trkpt lat="43.57507" lon="2.99933">
        <ele>221.6</ele>
        <time>2014-02-20T09:28:57.487Z</time>
      </trkpt>
      <trkpt lat="43.5751" lon="2.99942">
        <ele>222</ele>
        <time>2014-02-20T09:29:00.491Z</time>
      </trkpt>
      <trkpt lat="43.57512" lon="2.99946">
        <ele>221.8</ele>
        <time>2014-02-20T09:29:01.489Z</time>
      </trkpt>
      <trkpt lat="43.57516" lon="2.99952">
        <ele>221.4</ele>
        <time>2014-02-20T09:29:03.491Z</time>
      </trkpt>
      <trkpt lat="43.57518" lon="2.99956">
        <ele>221.8</ele>
        <time>2014-02-20T09:29:04.491Z</time>
      </trkpt>
      <trkpt lat="43.5752" lon="2.99964">
        <ele>223.2</ele>
        <time>2014-02-20T09:29:06.487Z</time>
      </trkpt>
      <trkpt lat="43.57521" lon="2.99969">
        <ele>223</ele>
        <time>2014-02-20T09:29:07.487Z</time>
      </trkpt>
      <trkpt lat="43.57523" lon="2.99978">
        <ele>223.3</ele>
        <time>2014-02-20T09:29:09.486Z</time>
      </trkpt>
      <trkpt lat="43.57525" lon="2.99984">
        <ele>222.3</ele>
        <time>2014-02-20T09:29:10.489Z</time>
      </trkpt>
      <trkpt lat="43.57527" lon="2.99995">
        <ele>223.4</ele>
        <time>2014-02-20T09:29:12.487Z</time>
      </trkpt>
      <trkpt lat="43.57528" lon="2.99999">
        <ele>223.1</ele>
        <time>2014-02-20T09:29:13.486Z</time>
      </trkpt>
      <trkpt lat="43.57531" lon="3.00009">
        <ele>223.1</ele>
        <time>2014-02-20T09:29:16.490Z</time>
      </trkpt>
      <trkpt lat="43.57532" lon="3.00011">
        <ele>223</ele>
        <time>2014-02-20T09:29:17.492Z</time>
      </trkpt>
      <trkpt lat="43.57537" lon="3.00021">
        <ele>221.2</ele>
        <time>2014-02-20T09:29:23.494Z</time>
      </trkpt>
      <trkpt lat="43.57538" lon="3.00022">
        <ele>222.4</ele>
        <time>2014-02-20T09:29:24.487Z</time>
      </trkpt>
      <trkpt lat="43.57543" lon="3.00032">
        <ele>219.2</ele>
        <time>2014-02-20T09:29:28.488Z</time>
      </trkpt>
      <trkpt lat="43.57543" lon="3.00035">
        <ele>219.5</ele>
        <time>2014-02-20T09:29:29.487Z</time>
      </trkpt>
      <trkpt lat="43.57544" lon="3.00046">
        <ele>221.3</ele>
        <time>2014-02-20T09:29:34.490Z</time>
      </trkpt>
      <trkpt lat="43.57543" lon="3.00049">
        <ele>222</ele>
        <time>2014-02-20T09:29:35.492Z</time>
      </trkpt>
      <trkpt lat="43.57544" lon="3.00059">
        <ele>223.2</ele>
        <time>2014-02-20T09:29:38.491Z</time>
      </trkpt>
      <trkpt lat="43.57545" lon="3.00063">
        <ele>223.5</ele>
        <time>2014-02-20T09:29:39.500Z</time>
      </trkpt>
      <trkpt lat="43.57548" lon="3.00072">
        <ele>221.3</ele>
        <time>2014-02-20T09:29:42.497Z</time>
      </trkpt>
      <trkpt lat="43.57549" lon="3.00075">
        <ele>220.9</ele>
        <time>2014-02-20T09:29:43.499Z</time>
      </trkpt>
      <trkpt lat="43.57554" lon="3.00085">
        <ele>220.9</ele>
        <time>2014-02-20T09:29:45.498Z</time>
      </trkpt>
      <trkpt lat="43.57556" lon="3.00091">
        <ele>221.1</ele>
        <time>2014-02-20T09:29:46.498Z</time>
      </trkpt>
      <trkpt lat="43.5756" lon="3.00101">
        <ele>220.6</ele>
        <time>2014-02-20T09:29:48.498Z</time>
      </trkpt>
      <trkpt lat="43.57562" lon="3.00105">
        <ele>220.9</ele>
        <time>2014-02-20T09:29:49.500Z</time>
      </trkpt>
      <trkpt lat="43.57564" lon="3.00117">
        <ele>220.7</ele>
        <time>2014-02-20T09:29:52.497Z</time>
      </trkpt>
      <trkpt lat="43.57565" lon="3.00121">
        <ele>220.4</ele>
        <time>2014-02-20T09:29:53.497Z</time>
      </trkpt>
      <trkpt lat="43.57568" lon="3.00132">
        <ele>220.9</ele>
        <time>2014-02-20T09:29:55.498Z</time>
      </trkpt>
      <trkpt lat="43.57569" lon="3.00137">
        <ele>220.9</ele>
        <time>2014-02-20T09:29:56.489Z</time>
      </trkpt>
      <trkpt lat="43.5757" lon="3.00146">
        <ele>221</ele>
        <time>2014-02-20T09:29:58.497Z</time>
      </trkpt>
      <trkpt lat="43.57571" lon="3.00152">
        <ele>221.4</ele>
        <time>2014-02-20T09:29:59.498Z</time>
      </trkpt>
      <trkpt lat="43.57571" lon="3.00163">
        <ele>221.1</ele>
        <time>2014-02-20T09:30:01.495Z</time>
      </trkpt>
      <trkpt lat="43.57572" lon="3.00169">
        <ele>221.6</ele>
        <time>2014-02-20T09:30:02.497Z</time>
      </trkpt>
      <trkpt lat="43.57573" lon="3.00181">
        <ele>221.4</ele>
        <time>2014-02-20T09:30:04.497Z</time>
      </trkpt>
      <trkpt lat="43.57573" lon="3.00185">
        <ele>220.4</ele>
        <time>2014-02-20T09:30:05.499Z</time>
      </trkpt>
      <trkpt lat="43.57574" lon="3.00196">
        <ele>219.9</ele>
        <time>2014-02-20T09:30:08.498Z</time>
      </trkpt>
      <trkpt lat="43.57574" lon="3.002">
        <ele>219.8</ele>
        <time>2014-02-20T09:30:09.482Z</time>
      </trkpt>
      <trkpt lat="43.57576" lon="3.0021">
        <ele>218.5</ele>
        <time>2014-02-20T09:30:11.489Z</time>
      </trkpt>
      <trkpt lat="43.57575" lon="3.00219">
        <ele>218.3</ele>
        <time>2014-02-20T09:30:12.486Z</time>
      </trkpt>
      <trkpt lat="43.57574" lon="3.00226">
        <ele>218</ele>
        <time>2014-02-20T09:30:13.489Z</time>
      </trkpt>
      <trkpt lat="43.57574" lon="3.00234">
        <ele>219</ele>
        <time>2014-02-20T09:30:14.486Z</time>
      </trkpt>
      <trkpt lat="43.57573" lon="3.00245">
        <ele>219.6</ele>
        <time>2014-02-20T09:30:16.486Z</time>
      </trkpt>
      <trkpt lat="43.57572" lon="3.0025">
        <ele>219.8</ele>
        <time>2014-02-20T09:30:17.489Z</time>
      </trkpt>
      <trkpt lat="43.57572" lon="3.00255">
        <ele>220.1</ele>
        <time>2014-02-20T09:30:18.488Z</time>
      </trkpt>
      <trkpt lat="43.57572" lon="3.00263">
        <ele>220.1</ele>
        <time>2014-02-20T09:30:19.491Z</time>
      </trkpt>
      <trkpt lat="43.57572" lon="3.0027">
        <ele>219.5</ele>
        <time>2014-02-20T09:30:20.491Z</time>
      </trkpt>
      <trkpt lat="43.5757" lon="3.00276">
        <ele>219.9</ele>
        <time>2014-02-20T09:30:21.488Z</time>
      </trkpt>
      <trkpt lat="43.57568" lon="3.00286">
        <ele>221.2</ele>
        <time>2014-02-20T09:30:23.486Z</time>
      </trkpt>
      <trkpt lat="43.57568" lon="3.00291">
        <ele>221.7</ele>
        <time>2014-02-20T09:30:24.488Z</time>
      </trkpt>
      <trkpt lat="43.57568" lon="3.003">
        <ele>221.3</ele>
        <time>2014-02-20T09:30:25.486Z</time>
      </trkpt>
      <trkpt lat="43.57568" lon="3.00307">
        <ele>222.7</ele>
        <time>2014-02-20T09:30:26.488Z</time>
      </trkpt>
      <trkpt lat="43.57569" lon="3.00314">
        <ele>224.1</ele>
        <time>2014-02-20T09:30:27.488Z</time>
      </trkpt>
      <trkpt lat="43.57568" lon="3.0032">
        <ele>224.6</ele>
        <time>2014-02-20T09:30:28.488Z</time>
      </trkpt>
      <trkpt lat="43.57568" lon="3.00327">
        <ele>224</ele>
        <time>2014-02-20T09:30:29.487Z</time>
      </trkpt>
      <trkpt lat="43.57567" lon="3.00333">
        <ele>224.4</ele>
        <time>2014-02-20T09:30:30.485Z</time>
      </trkpt>
      <trkpt lat="43.57566" lon="3.0034">
        <ele>224.9</ele>
        <time>2014-02-20T09:30:31.486Z</time>
      </trkpt>
      <trkpt lat="43.57565" lon="3.00347">
        <ele>224.3</ele>
        <time>2014-02-20T09:30:32.486Z</time>
      </trkpt>
      <trkpt lat="43.57565" lon="3.00354">
        <ele>223.2</ele>
        <time>2014-02-20T09:30:33.484Z</time>
      </trkpt>
      <trkpt lat="43.57564" lon="3.00361">
        <ele>225.9</ele>
        <time>2014-02-20T09:30:34.488Z</time>
      </trkpt>
      <trkpt lat="43.57564" lon="3.00373">
        <ele>227.6</ele>
        <time>2014-02-20T09:30:36.487Z</time>
      </trkpt>
      <trkpt lat="43.57565" lon="3.00379">
        <ele>226.8</ele>
        <time>2014-02-20T09:30:37.487Z</time>
      </trkpt>
      <trkpt lat="43.57566" lon="3.00385">
        <ele>227.1</ele>
        <time>2014-02-20T09:30:38.487Z</time>
      </trkpt>
      <trkpt lat="43.57566" lon="3.00391">
        <ele>226.3</ele>
        <time>2014-02-20T09:30:39.485Z</time>
      </trkpt>
      <trkpt lat="43.57565" lon="3.00403">
        <ele>226.1</ele>
        <time>2014-02-20T09:30:41.486Z</time>
      </trkpt>
      <trkpt lat="43.57564" lon="3.00409">
        <ele>225.2</ele>
        <time>2014-02-20T09:30:42.484Z</time>
      </trkpt>
      <trkpt lat="43.57565" lon="3.00421">
        <ele>226.1</ele>
        <time>2014-02-20T09:30:44.489Z</time>
      </trkpt>
      <trkpt lat="43.57565" lon="3.00426">
        <ele>225.5</ele>
        <time>2014-02-20T09:30:45.485Z</time>
      </trkpt>
      <trkpt lat="43.57566" lon="3.00435">
        <ele>222.7</ele>
        <time>2014-02-20T09:30:47.487Z</time>
      </trkpt>
      <trkpt lat="43.57566" lon="3.00441">
        <ele>223.1</ele>
        <time>2014-02-20T09:30:48.485Z</time>
      </trkpt>
      <trkpt lat="43.57566" lon="3.00451">
        <ele>224</ele>
        <time>2014-02-20T09:30:50.485Z</time>
      </trkpt>
      <trkpt lat="43.57567" lon="3.00456">
        <ele>222.4</ele>
        <time>2014-02-20T09:30:51.487Z</time>
      </trkpt>
      <trkpt lat="43.57566" lon="3.00467">
        <ele>221.6</ele>
        <time>2014-02-20T09:30:53.488Z</time>
      </trkpt>
      <trkpt lat="43.57565" lon="3.00474">
        <ele>220.9</ele>
        <time>2014-02-20T09:30:54.484Z</time>
      </trkpt>
      <trkpt lat="43.57563" lon="3.00481">
        <ele>220.8</ele>
        <time>2014-02-20T09:30:55.487Z</time>
      </trkpt>
      <trkpt lat="43.57562" lon="3.00488">
        <ele>220.9</ele>
        <time>2014-02-20T09:30:56.596Z</time>
      </trkpt>
      <trkpt lat="43.57561" lon="3.00497">
        <ele>221.1</ele>
        <time>2014-02-20T09:30:58.488Z</time>
      </trkpt>
      <trkpt lat="43.57562" lon="3.00502">
        <ele>221.7</ele>
        <time>2014-02-20T09:30:59.490Z</time>
      </trkpt>
      <trkpt lat="43.5756" lon="3.0051">
        <ele>222.9</ele>
        <time>2014-02-20T09:31:00.499Z</time>
      </trkpt>
      <trkpt lat="43.5756" lon="3.00518">
        <ele>223</ele>
        <time>2014-02-20T09:31:01.488Z</time>
      </trkpt>
      <trkpt lat="43.5756" lon="3.00527">
        <ele>225.5</ele>
        <time>2014-02-20T09:31:02.487Z</time>
      </trkpt>
      <trkpt lat="43.57559" lon="3.00534">
        <ele>225.7</ele>
        <time>2014-02-20T09:31:03.485Z</time>
      </trkpt>
      <trkpt lat="43.57559" lon="3.00541">
        <ele>224.1</ele>
        <time>2014-02-20T09:31:04.487Z</time>
      </trkpt>
      <trkpt lat="43.57558" lon="3.00547">
        <ele>224.2</ele>
        <time>2014-02-20T09:31:05.488Z</time>
      </trkpt>
      <trkpt lat="43.57558" lon="3.00554">
        <ele>223.6</ele>
        <time>2014-02-20T09:31:06.507Z</time>
      </trkpt>
      <trkpt lat="43.57558" lon="3.0056">
        <ele>223.5</ele>
        <time>2014-02-20T09:31:07.485Z</time>
      </trkpt>
      <trkpt lat="43.57557" lon="3.00566">
        <ele>223.5</ele>
        <time>2014-02-20T09:31:08.489Z</time>
      </trkpt>
      <trkpt lat="43.57558" lon="3.00573">
        <ele>223</ele>
        <time>2014-02-20T09:31:09.486Z</time>
      </trkpt>
      <trkpt lat="43.57557" lon="3.00584">
        <ele>221.5</ele>
        <time>2014-02-20T09:31:11.545Z</time>
      </trkpt>
      <trkpt lat="43.57557" lon="3.00587">
        <ele>220.1</ele>
        <time>2014-02-20T09:31:12.484Z</time>
      </trkpt>
      <trkpt lat="43.57557" lon="3.00596">
        <ele>220.6</ele>
        <time>2014-02-20T09:31:14.487Z</time>
      </trkpt>
      <trkpt lat="43.57557" lon="3.006">
        <ele>220.2</ele>
        <time>2014-02-20T09:31:15.486Z</time>
      </trkpt>
      <trkpt lat="43.57557" lon="3.00613">
        <ele>220.4</ele>
        <time>2014-02-20T09:31:17.487Z</time>
      </trkpt>
      <trkpt lat="43.57557" lon="3.00619">
        <ele>220.2</ele>
        <time>2014-02-20T09:31:18.484Z</time>
      </trkpt>
      <trkpt lat="43.57556" lon="3.0063">
        <ele>220.3</ele>
        <time>2014-02-20T09:31:20.487Z</time>
      </trkpt>
      <trkpt lat="43.57556" lon="3.00636">
        <ele>220.4</ele>
        <time>2014-02-20T09:31:21.486Z</time>
      </trkpt>
      <trkpt lat="43.57555" lon="3.00643">
        <ele>219.5</ele>
        <time>2014-02-20T09:31:22.487Z</time>
      </trkpt>
      <trkpt lat="43.57555" lon="3.0065">
        <ele>220.6</ele>
        <time>2014-02-20T09:31:23.488Z</time>
      </trkpt>
      <trkpt lat="43.57555" lon="3.00657">
        <ele>219.9</ele>
        <time>2014-02-20T09:31:24.486Z</time>
      </trkpt>
      <trkpt lat="43.57555" lon="3.00663">
        <ele>220</ele>
        <time>2014-02-20T09:31:25.486Z</time>
      </trkpt>
      <trkpt lat="43.57556" lon="3.00675">
        <ele>220.3</ele>
        <time>2014-02-20T09:31:27.486Z</time>
      </trkpt>
      <trkpt lat="43.57556" lon="3.0068">
        <ele>220</ele>
        <time>2014-02-20T09:31:28.487Z</time>
      </trkpt>
      <trkpt lat="43.57555" lon="3.0069">
        <ele>220</ele>
        <time>2014-02-20T09:31:30.486Z</time>
      </trkpt>
      <trkpt lat="43.57555" lon="3.00695">
        <ele>220.6</ele>
        <time>2014-02-20T09:31:31.491Z</time>
      </trkpt>
      <trkpt lat="43.57554" lon="3.00706">
        <ele>220.4</ele>
        <time>2014-02-20T09:31:33.485Z</time>
      </trkpt>
      <trkpt lat="43.57554" lon="3.00712">
        <ele>220.4</ele>
        <time>2014-02-20T09:31:34.487Z</time>
      </trkpt>
      <trkpt lat="43.57553" lon="3.00718">
        <ele>221.1</ele>
        <time>2014-02-20T09:31:35.487Z</time>
      </trkpt>
      <trkpt lat="43.5755" lon="3.00727">
        <ele>220.8</ele>
        <time>2014-02-20T09:31:36.487Z</time>
      </trkpt>
      <trkpt lat="43.57548" lon="3.00736">
        <ele>222.2</ele>
        <time>2014-02-20T09:31:37.486Z</time>
      </trkpt>
      <trkpt lat="43.57548" lon="3.00743">
        <ele>221.1</ele>
        <time>2014-02-20T09:31:38.487Z</time>
      </trkpt>
      <trkpt lat="43.57548" lon="3.00755">
        <ele>221.1</ele>
        <time>2014-02-20T09:31:40.488Z</time>
      </trkpt>
      <trkpt lat="43.57548" lon="3.00758">
        <ele>220.1</ele>
        <time>2014-02-20T09:31:41.487Z</time>
      </trkpt>
      <trkpt lat="43.5755" lon="3.00766">
        <ele>220.7</ele>
        <time>2014-02-20T09:31:43.487Z</time>
      </trkpt>
      <trkpt lat="43.5755" lon="3.00772">
        <ele>220.1</ele>
        <time>2014-02-20T09:31:44.487Z</time>
      </trkpt>
      <trkpt lat="43.57549" lon="3.00783">
        <ele>219.1</ele>
        <time>2014-02-20T09:31:46.486Z</time>
      </trkpt>
      <trkpt lat="43.5755" lon="3.00789">
        <ele>219</ele>
        <time>2014-02-20T09:31:47.487Z</time>
      </trkpt>
      <trkpt lat="43.57551" lon="3.008">
        <ele>220.6</ele>
        <time>2014-02-20T09:31:49.486Z</time>
      </trkpt>
      <trkpt lat="43.5755" lon="3.00804">
        <ele>221</ele>
        <time>2014-02-20T09:31:50.488Z</time>
      </trkpt>
      <trkpt lat="43.57548" lon="3.00813">
        <ele>220.5</ele>
        <time>2014-02-20T09:31:52.486Z</time>
      </trkpt>
      <trkpt lat="43.57548" lon="3.00817">
        <ele>220.5</ele>
        <time>2014-02-20T09:31:53.488Z</time>
      </trkpt>
      <trkpt lat="43.57546" lon="3.00828">
        <ele>220.1</ele>
        <time>2014-02-20T09:31:56.489Z</time>
      </trkpt>
      <trkpt lat="43.57546" lon="3.00831">
        <ele>220.7</ele>
        <time>2014-02-20T09:31:57.486Z</time>
      </trkpt>
      <trkpt lat="43.57547" lon="3.00843">
        <ele>219.4</ele>
        <time>2014-02-20T09:32:05.491Z</time>
      </trkpt>
      <trkpt lat="43.57547" lon="3.00844">
        <ele>219.9</ele>
        <time>2014-02-20T09:32:06.519Z</time>
      </trkpt>
      <trkpt lat="43.57548" lon="3.00855">
        <ele>219.9</ele>
        <time>2014-02-20T09:32:11.490Z</time>
      </trkpt>
      <trkpt lat="43.57548" lon="3.00857">
        <ele>219.8</ele>
        <time>2014-02-20T09:32:12.485Z</time>
      </trkpt>
      <trkpt lat="43.57542" lon="3.00864">
        <ele>218.2</ele>
        <time>2014-02-20T09:32:15.486Z</time>
      </trkpt>
      <trkpt lat="43.5754" lon="3.00866">
        <ele>218.3</ele>
        <time>2014-02-20T09:32:16.500Z</time>
      </trkpt>
      <trkpt lat="43.5754" lon="3.00875">
        <ele>218.8</ele>
        <time>2014-02-20T09:32:19.488Z</time>
      </trkpt>
      <trkpt lat="43.57541" lon="3.00881">
        <ele>218.9</ele>
        <time>2014-02-20T09:32:20.487Z</time>
      </trkpt>
      <trkpt lat="43.57543" lon="3.00892">
        <ele>219.5</ele>
        <time>2014-02-20T09:32:23.488Z</time>
      </trkpt>
      <trkpt lat="43.57542" lon="3.00895">
        <ele>219.5</ele>
        <time>2014-02-20T09:32:24.486Z</time>
      </trkpt>
      <trkpt lat="43.57541" lon="3.00904">
        <ele>219.7</ele>
        <time>2014-02-20T09:32:26.516Z</time>
      </trkpt>
      <trkpt lat="43.5754" lon="3.00909">
        <ele>221.5</ele>
        <time>2014-02-20T09:32:27.484Z</time>
      </trkpt>
      <trkpt lat="43.5754" lon="3.00918">
        <ele>222.1</ele>
        <time>2014-02-20T09:32:29.487Z</time>
      </trkpt>
      <trkpt lat="43.57539" lon="3.00922">
        <ele>221.6</ele>
        <time>2014-02-20T09:32:30.486Z</time>
      </trkpt>
      <trkpt lat="43.57539" lon="3.00931">
        <ele>219.3</ele>
        <time>2014-02-20T09:32:32.487Z</time>
      </trkpt>
      <trkpt lat="43.57539" lon="3.00935">
        <ele>218.8</ele>
        <time>2014-02-20T09:32:33.485Z</time>
      </trkpt>
      <trkpt lat="43.57541" lon="3.00946">
        <ele>218.7</ele>
        <time>2014-02-20T09:32:36.484Z</time>
      </trkpt>
      <trkpt lat="43.57542" lon="3.0095">
        <ele>219.6</ele>
        <time>2014-02-20T09:32:37.487Z</time>
      </trkpt>
      <trkpt lat="43.57542" lon="3.00961">
        <ele>219.2</ele>
        <time>2014-02-20T09:32:40.488Z</time>
      </trkpt>
      <trkpt lat="43.57541" lon="3.00964">
        <ele>219.1</ele>
        <time>2014-02-20T09:32:41.488Z</time>
      </trkpt>
      <trkpt lat="43.57538" lon="3.00975">
        <ele>219.1</ele>
        <time>2014-02-20T09:32:43.486Z</time>
      </trkpt>
      <trkpt lat="43.57537" lon="3.00982">
        <ele>219.6</ele>
        <time>2014-02-20T09:32:44.486Z</time>
      </trkpt>
      <trkpt lat="43.57535" lon="3.00993">
        <ele>219.6</ele>
        <time>2014-02-20T09:32:46.489Z</time>
      </trkpt>
      <trkpt lat="43.57535" lon="3.00998">
        <ele>220</ele>
        <time>2014-02-20T09:32:47.487Z</time>
      </trkpt>
      <trkpt lat="43.57537" lon="3.01006">
        <ele>219.8</ele>
        <time>2014-02-20T09:32:49.486Z</time>
      </trkpt>
      <trkpt lat="43.57538" lon="3.01011">
        <ele>220.1</ele>
        <time>2014-02-20T09:32:50.493Z</time>
      </trkpt>
      <trkpt lat="43.57538" lon="3.01016">
        <ele>220.2</ele>
        <time>2014-02-20T09:32:51.596Z</time>
      </trkpt>
      <trkpt lat="43.57538" lon="3.01024">
        <ele>220.4</ele>
        <time>2014-02-20T09:32:53.692Z</time>
      </trkpt>
      <trkpt lat="43.57535" lon="3.01032">
        <ele>220.9</ele>
        <time>2014-02-20T09:32:56.508Z</time>
      </trkpt>
      <trkpt lat="43.57534" lon="3.01036">
        <ele>221.1</ele>
        <time>2014-02-20T09:32:57.493Z</time>
      </trkpt>
      <trkpt lat="43.57531" lon="3.01048">
        <ele>219.4</ele>
        <time>2014-02-20T09:33:00.492Z</time>
      </trkpt>
      <trkpt lat="43.5753" lon="3.01051">
        <ele>220.1</ele>
        <time>2014-02-20T09:33:01.498Z</time>
      </trkpt>
      <trkpt lat="43.57526" lon="3.01062">
        <ele>220.4</ele>
        <time>2014-02-20T09:33:03.498Z</time>
      </trkpt>
      <trkpt lat="43.57524" lon="3.01069">
        <ele>219.8</ele>
        <time>2014-02-20T09:33:04.497Z</time>
      </trkpt>
      <trkpt lat="43.57522" lon="3.01076">
        <ele>219.4</ele>
        <time>2014-02-20T09:33:05.497Z</time>
      </trkpt>
      <trkpt lat="43.57522" lon="3.01083">
        <ele>219.6</ele>
        <time>2014-02-20T09:33:06.499Z</time>
      </trkpt>
      <trkpt lat="43.57524" lon="3.01091">
        <ele>219.8</ele>
        <time>2014-02-20T09:33:08.498Z</time>
      </trkpt>
      <trkpt lat="43.57525" lon="3.01096">
        <ele>220.2</ele>
        <time>2014-02-20T09:33:09.498Z</time>
      </trkpt>
      <trkpt lat="43.57525" lon="3.01106">
        <ele>220.7</ele>
        <time>2014-02-20T09:33:11.496Z</time>
      </trkpt>
      <trkpt lat="43.57524" lon="3.01112">
        <ele>220.4</ele>
        <time>2014-02-20T09:33:12.493Z</time>
      </trkpt>
      <trkpt lat="43.57523" lon="3.01123">
        <ele>220.2</ele>
        <time>2014-02-20T09:33:15.494Z</time>
      </trkpt>
      <trkpt lat="43.57523" lon="3.01127">
        <ele>220.1</ele>
        <time>2014-02-20T09:33:16.496Z</time>
      </trkpt>
      <trkpt lat="43.57523" lon="3.01138">
        <ele>221</ele>
        <time>2014-02-20T09:33:20.498Z</time>
      </trkpt>
      <trkpt lat="43.57522" lon="3.01142">
        <ele>220.5</ele>
        <time>2014-02-20T09:33:21.549Z</time>
      </trkpt>
      <trkpt lat="43.5752" lon="3.0115">
        <ele>220.1</ele>
        <time>2014-02-20T09:33:23.501Z</time>
      </trkpt>
      <trkpt lat="43.5752" lon="3.01155">
        <ele>221</ele>
        <time>2014-02-20T09:33:24.499Z</time>
      </trkpt>
      <trkpt lat="43.57518" lon="3.01165">
        <ele>221.1</ele>
        <time>2014-02-20T09:33:26.500Z</time>
      </trkpt>
      <trkpt lat="43.57517" lon="3.0117">
        <ele>220</ele>
        <time>2014-02-20T09:33:27.499Z</time>
      </trkpt>
      <trkpt lat="43.57513" lon="3.01181">
        <ele>220.1</ele>
        <time>2014-02-20T09:33:29.497Z</time>
      </trkpt>
      <trkpt lat="43.57511" lon="3.01187">
        <ele>219.7</ele>
        <time>2014-02-20T09:33:30.498Z</time>
      </trkpt>
      <trkpt lat="43.57509" lon="3.01192">
        <ele>218.7</ele>
        <time>2014-02-20T09:33:31.497Z</time>
      </trkpt>
      <trkpt lat="43.57505" lon="3.01199">
        <ele>217.2</ele>
        <time>2014-02-20T09:33:32.721Z</time>
      </trkpt>
      <trkpt lat="43.57501" lon="3.01206">
        <ele>215.9</ele>
        <time>2014-02-20T09:33:34.498Z</time>
      </trkpt>
      <trkpt lat="43.575" lon="3.0121">
        <ele>216.1</ele>
        <time>2014-02-20T09:33:35.498Z</time>
      </trkpt>
      <trkpt lat="43.575" lon="3.01221">
        <ele>216.4</ele>
        <time>2014-02-20T09:33:39.499Z</time>
      </trkpt>
      <trkpt lat="43.575" lon="3.01225">
        <ele>215.4</ele>
        <time>2014-02-20T09:33:40.498Z</time>
      </trkpt>
      <trkpt lat="43.57498" lon="3.01237">
        <ele>214.7</ele>
        <time>2014-02-20T09:33:42.496Z</time>
      </trkpt>
      <trkpt lat="43.57496" lon="3.01243">
        <ele>213.7</ele>
        <time>2014-02-20T09:33:43.499Z</time>
      </trkpt>
      <trkpt lat="43.57493" lon="3.01252">
        <ele>214.1</ele>
        <time>2014-02-20T09:33:44.499Z</time>
      </trkpt>
      <trkpt lat="43.57488" lon="3.01262">
        <ele>215.9</ele>
        <time>2014-02-20T09:33:45.500Z</time>
      </trkpt>
      <trkpt lat="43.57484" lon="3.0127">
        <ele>216.4</ele>
        <time>2014-02-20T09:33:46.496Z</time>
      </trkpt>
      <trkpt lat="43.57481" lon="3.01277">
        <ele>216.5</ele>
        <time>2014-02-20T09:33:47.499Z</time>
      </trkpt>
      <trkpt lat="43.57475" lon="3.01286">
        <ele>214.9</ele>
        <time>2014-02-20T09:33:49.498Z</time>
      </trkpt>
      <trkpt lat="43.57471" lon="3.01289">
        <ele>214.9</ele>
        <time>2014-02-20T09:33:50.503Z</time>
      </trkpt>
      <trkpt lat="43.57468" lon="3.01297">
        <ele>216.1</ele>
        <time>2014-02-20T09:33:51.497Z</time>
      </trkpt>
      <trkpt lat="43.57465" lon="3.01303">
        <ele>214.4</ele>
        <time>2014-02-20T09:33:52.507Z</time>
      </trkpt>
      <trkpt lat="43.57462" lon="3.01314">
        <ele>215</ele>
        <time>2014-02-20T09:33:54.496Z</time>
      </trkpt>
      <trkpt lat="43.5746" lon="3.01319">
        <ele>215.4</ele>
        <time>2014-02-20T09:33:55.497Z</time>
      </trkpt>
      <trkpt lat="43.57458" lon="3.01328">
        <ele>217.5</ele>
        <time>2014-02-20T09:33:57.546Z</time>
      </trkpt>
      <trkpt lat="43.57456" lon="3.01333">
        <ele>217.8</ele>
        <time>2014-02-20T09:33:58.497Z</time>
      </trkpt>
      <trkpt lat="43.57452" lon="3.01343">
        <ele>218.9</ele>
        <time>2014-02-20T09:34:00.496Z</time>
      </trkpt>
      <trkpt lat="43.5745" lon="3.01348">
        <ele>217.2</ele>
        <time>2014-02-20T09:34:01.505Z</time>
      </trkpt>
      <trkpt lat="43.57448" lon="3.01357">
        <ele>216.3</ele>
        <time>2014-02-20T09:34:03.498Z</time>
      </trkpt>
      <trkpt lat="43.57446" lon="3.01361">
        <ele>215</ele>
        <time>2014-02-20T09:34:04.497Z</time>
      </trkpt>
      <trkpt lat="43.57444" lon="3.01372">
        <ele>213.9</ele>
        <time>2014-02-20T09:34:07.497Z</time>
      </trkpt>
      <trkpt lat="43.57443" lon="3.01377">
        <ele>213.6</ele>
        <time>2014-02-20T09:34:08.500Z</time>
      </trkpt>
      <trkpt lat="43.5744" lon="3.01388">
        <ele>213.6</ele>
        <time>2014-02-20T09:34:11.559Z</time>
      </trkpt>
      <trkpt lat="43.57439" lon="3.01392">
        <ele>213.8</ele>
        <time>2014-02-20T09:34:12.498Z</time>
      </trkpt>
      <trkpt lat="43.57435" lon="3.01402">
        <ele>213.5</ele>
        <time>2014-02-20T09:34:15.493Z</time>
      </trkpt>
      <trkpt lat="43.57434" lon="3.01405">
        <ele>213.2</ele>
        <time>2014-02-20T09:34:16.561Z</time>
      </trkpt>
      <trkpt lat="43.5743" lon="3.01413">
        <ele>215.9</ele>
        <time>2014-02-20T09:34:19.493Z</time>
      </trkpt>
      <trkpt lat="43.57424" lon="3.01423">
        <ele>216.1</ele>
        <time>2014-02-20T09:34:20.496Z</time>
      </trkpt>
      <trkpt lat="43.57418" lon="3.01433">
        <ele>218.5</ele>
        <time>2014-02-20T09:34:21.497Z</time>
      </trkpt>
      <trkpt lat="43.57413" lon="3.01443">
        <ele>219.8</ele>
        <time>2014-02-20T09:34:22.501Z</time>
      </trkpt>
      <trkpt lat="43.57408" lon="3.01451">
        <ele>220.9</ele>
        <time>2014-02-20T09:34:23.495Z</time>
      </trkpt>
      <trkpt lat="43.57404" lon="3.01458">
        <ele>220.1</ele>
        <time>2014-02-20T09:34:24.492Z</time>
      </trkpt>
      <trkpt lat="43.57401" lon="3.01464">
        <ele>219.9</ele>
        <time>2014-02-20T09:34:25.492Z</time>
      </trkpt>
      <trkpt lat="43.57399" lon="3.01469">
        <ele>219.5</ele>
        <time>2014-02-20T09:34:26.495Z</time>
      </trkpt>
      <trkpt lat="43.57395" lon="3.01479">
        <ele>219.2</ele>
        <time>2014-02-20T09:34:29.496Z</time>
      </trkpt>
      <trkpt lat="43.57394" lon="3.01483">
        <ele>220.7</ele>
        <time>2014-02-20T09:34:30.491Z</time>
      </trkpt>
      <trkpt lat="43.57393" lon="3.01494">
        <ele>220.6</ele>
        <time>2014-02-20T09:34:32.492Z</time>
      </trkpt>
      <trkpt lat="43.57392" lon="3.01499">
        <ele>222.1</ele>
        <time>2014-02-20T09:34:33.491Z</time>
      </trkpt>
      <trkpt lat="43.57388" lon="3.01507">
        <ele>224.3</ele>
        <time>2014-02-20T09:34:35.511Z</time>
      </trkpt>
      <trkpt lat="43.57387" lon="3.01511">
        <ele>225</ele>
        <time>2014-02-20T09:34:36.492Z</time>
      </trkpt>
      <trkpt lat="43.57384" lon="3.01519">
        <ele>223.8</ele>
        <time>2014-02-20T09:34:38.492Z</time>
      </trkpt>
      <trkpt lat="43.57382" lon="3.01523">
        <ele>223.6</ele>
        <time>2014-02-20T09:34:39.490Z</time>
      </trkpt>
      <trkpt lat="43.57378" lon="3.01533">
        <ele>224</ele>
        <time>2014-02-20T09:34:41.493Z</time>
      </trkpt>
      <trkpt lat="43.57376" lon="3.01538">
        <ele>224.1</ele>
        <time>2014-02-20T09:34:42.495Z</time>
      </trkpt>
      <trkpt lat="43.57372" lon="3.01547">
        <ele>224.8</ele>
        <time>2014-02-20T09:34:44.492Z</time>
      </trkpt>
      <trkpt lat="43.5737" lon="3.01552">
        <ele>225.8</ele>
        <time>2014-02-20T09:34:45.490Z</time>
      </trkpt>
      <trkpt lat="43.57367" lon="3.01561">
        <ele>225.3</ele>
        <time>2014-02-20T09:34:47.496Z</time>
      </trkpt>
      <trkpt lat="43.57367" lon="3.01565">
        <ele>225.8</ele>
        <time>2014-02-20T09:34:48.496Z</time>
      </trkpt>
      <trkpt lat="43.57365" lon="3.01574">
        <ele>225.6</ele>
        <time>2014-02-20T09:34:50.496Z</time>
      </trkpt>
      <trkpt lat="43.57364" lon="3.01578">
        <ele>225.5</ele>
        <time>2014-02-20T09:34:51.495Z</time>
      </trkpt>
      <trkpt lat="43.5736" lon="3.01586">
        <ele>225.5</ele>
        <time>2014-02-20T09:34:53.495Z</time>
      </trkpt>
      <trkpt lat="43.57359" lon="3.0159">
        <ele>225.4</ele>
        <time>2014-02-20T09:34:54.495Z</time>
      </trkpt>
      <trkpt lat="43.57355" lon="3.01599">
        <ele>225.6</ele>
        <time>2014-02-20T09:34:56.493Z</time>
      </trkpt>
      <trkpt lat="43.57353" lon="3.01603">
        <ele>225.7</ele>
        <time>2014-02-20T09:34:57.491Z</time>
      </trkpt>
      <trkpt lat="43.5735" lon="3.01613">
        <ele>225.8</ele>
        <time>2014-02-20T09:34:59.494Z</time>
      </trkpt>
      <trkpt lat="43.57349" lon="3.01618">
        <ele>226.9</ele>
        <time>2014-02-20T09:35:00.495Z</time>
      </trkpt>
      <trkpt lat="43.57346" lon="3.01627">
        <ele>227</ele>
        <time>2014-02-20T09:35:02.497Z</time>
      </trkpt>
      <trkpt lat="43.57345" lon="3.0163">
        <ele>226.7</ele>
        <time>2014-02-20T09:35:03.494Z</time>
      </trkpt>
      <trkpt lat="43.57342" lon="3.0164">
        <ele>226.2</ele>
        <time>2014-02-20T09:35:10.493Z</time>
      </trkpt>
      <trkpt lat="43.57342" lon="3.0164">
        <ele>226.2</ele>
        <time>2014-02-20T09:35:11.492Z</time>
      </trkpt>
      <trkpt lat="43.57343" lon="3.0164">
        <ele>225.5</ele>
        <time>2014-02-20T09:35:19.494Z</time>
      </trkpt>
      <trkpt lat="43.57342" lon="3.01641">
        <ele>225.6</ele>
        <time>2014-02-20T09:35:20.493Z</time>
      </trkpt>
      <trkpt lat="43.5734" lon="3.01649">
        <ele>224.2</ele>
        <time>2014-02-20T09:35:23.494Z</time>
      </trkpt>
      <trkpt lat="43.57338" lon="3.01653">
        <ele>224.1</ele>
        <time>2014-02-20T09:35:24.492Z</time>
      </trkpt>
      <trkpt lat="43.57335" lon="3.01661">
        <ele>224.2</ele>
        <time>2014-02-20T09:35:26.493Z</time>
      </trkpt>
      <trkpt lat="43.57334" lon="3.01665">
        <ele>224.3</ele>
        <time>2014-02-20T09:35:27.492Z</time>
      </trkpt>
      <trkpt lat="43.57333" lon="3.01671">
        <ele>223</ele>
        <time>2014-02-20T09:35:28.493Z</time>
      </trkpt>
      <trkpt lat="43.57331" lon="3.01677">
        <ele>222.7</ele>
        <time>2014-02-20T09:35:29.493Z</time>
      </trkpt>
      <trkpt lat="43.57328" lon="3.01688">
        <ele>222.7</ele>
        <time>2014-02-20T09:35:31.494Z</time>
      </trkpt>
      <trkpt lat="43.57328" lon="3.01694">
        <ele>222.9</ele>
        <time>2014-02-20T09:35:32.498Z</time>
      </trkpt>
      <trkpt lat="43.57327" lon="3.01704">
        <ele>223.1</ele>
        <time>2014-02-20T09:35:34.491Z</time>
      </trkpt>
      <trkpt lat="43.57326" lon="3.0171">
        <ele>223.2</ele>
        <time>2014-02-20T09:35:35.493Z</time>
      </trkpt>
      <trkpt lat="43.57325" lon="3.01721">
        <ele>223.3</ele>
        <time>2014-02-20T09:35:37.491Z</time>
      </trkpt>
      <trkpt lat="43.57325" lon="3.01726">
        <ele>223.1</ele>
        <time>2014-02-20T09:35:38.491Z</time>
      </trkpt>
      <trkpt lat="43.57322" lon="3.01737">
        <ele>223.4</ele>
        <time>2014-02-20T09:35:40.491Z</time>
      </trkpt>
      <trkpt lat="43.57322" lon="3.01744">
        <ele>223.8</ele>
        <time>2014-02-20T09:35:41.493Z</time>
      </trkpt>
      <trkpt lat="43.57322" lon="3.0175">
        <ele>224.1</ele>
        <time>2014-02-20T09:35:42.494Z</time>
      </trkpt>
      <trkpt lat="43.57323" lon="3.01756">
        <ele>224.4</ele>
        <time>2014-02-20T09:35:43.491Z</time>
      </trkpt>
      <trkpt lat="43.57324" lon="3.01763">
        <ele>224.7</ele>
        <time>2014-02-20T09:35:44.492Z</time>
      </trkpt>
      <trkpt lat="43.57324" lon="3.0177">
        <ele>225.1</ele>
        <time>2014-02-20T09:35:45.491Z</time>
      </trkpt>
      <trkpt lat="43.57322" lon="3.01777">
        <ele>225.3</ele>
        <time>2014-02-20T09:35:46.493Z</time>
      </trkpt>
      <trkpt lat="43.57321" lon="3.01784">
        <ele>225.8</ele>
        <time>2014-02-20T09:35:47.493Z</time>
      </trkpt>
      <trkpt lat="43.5732" lon="3.01791">
        <ele>226</ele>
        <time>2014-02-20T09:35:48.493Z</time>
      </trkpt>
      <trkpt lat="43.5732" lon="3.01797">
        <ele>226.1</ele>
        <time>2014-02-20T09:35:49.493Z</time>
      </trkpt>
      <trkpt lat="43.5732" lon="3.01804">
        <ele>226.2</ele>
        <time>2014-02-20T09:35:50.493Z</time>
      </trkpt>
      <trkpt lat="43.5732" lon="3.01811">
        <ele>225.9</ele>
        <time>2014-02-20T09:35:51.494Z</time>
      </trkpt>
      <trkpt lat="43.57321" lon="3.01818">
        <ele>226.1</ele>
        <time>2014-02-20T09:35:52.493Z</time>
      </trkpt>
      <trkpt lat="43.57322" lon="3.01824">
        <ele>226.4</ele>
        <time>2014-02-20T09:35:53.492Z</time>
      </trkpt>
      <trkpt lat="43.57322" lon="3.01831">
        <ele>226.7</ele>
        <time>2014-02-20T09:35:54.491Z</time>
      </trkpt>
      <trkpt lat="43.57321" lon="3.01838">
        <ele>226.8</ele>
        <time>2014-02-20T09:35:55.492Z</time>
      </trkpt>
      <trkpt lat="43.57321" lon="3.01846">
        <ele>226.6</ele>
        <time>2014-02-20T09:35:56.493Z</time>
      </trkpt>
      <trkpt lat="43.57321" lon="3.01853">
        <ele>226.6</ele>
        <time>2014-02-20T09:35:57.490Z</time>
      </trkpt>
      <trkpt lat="43.57323" lon="3.01859">
        <ele>227.4</ele>
        <time>2014-02-20T09:35:58.492Z</time>
      </trkpt>
      <trkpt lat="43.57325" lon="3.01865">
        <ele>228</ele>
        <time>2014-02-20T09:35:59.492Z</time>
      </trkpt>
      <trkpt lat="43.57329" lon="3.01874">
        <ele>229.1</ele>
        <time>2014-02-20T09:36:01.491Z</time>
      </trkpt>
      <trkpt lat="43.57331" lon="3.01879">
        <ele>228.8</ele>
        <time>2014-02-20T09:36:02.493Z</time>
      </trkpt>
      <trkpt lat="43.57333" lon="3.01888">
        <ele>229.3</ele>
        <time>2014-02-20T09:36:04.491Z</time>
      </trkpt>
      <trkpt lat="43.57333" lon="3.01893">
        <ele>229.3</ele>
        <time>2014-02-20T09:36:05.491Z</time>
      </trkpt>
      <trkpt lat="43.57334" lon="3.01902">
        <ele>229.1</ele>
        <time>2014-02-20T09:36:07.491Z</time>
      </trkpt>
      <trkpt lat="43.57334" lon="3.01908">
        <ele>228.8</ele>
        <time>2014-02-20T09:36:08.493Z</time>
      </trkpt>
      <trkpt lat="43.57333" lon="3.01914">
        <ele>228.9</ele>
        <time>2014-02-20T09:36:09.491Z</time>
      </trkpt>
      <trkpt lat="43.57334" lon="3.01921">
        <ele>228.3</ele>
        <time>2014-02-20T09:36:10.493Z</time>
      </trkpt>
      <trkpt lat="43.57335" lon="3.01927">
        <ele>228.9</ele>
        <time>2014-02-20T09:36:11.492Z</time>
      </trkpt>
      <trkpt lat="43.57335" lon="3.01934">
        <ele>229.3</ele>
        <time>2014-02-20T09:36:12.490Z</time>
      </trkpt>
      <trkpt lat="43.57335" lon="3.01946">
        <ele>230.2</ele>
        <time>2014-02-20T09:36:14.493Z</time>
      </trkpt>
      <trkpt lat="43.57336" lon="3.01951">
        <ele>230.9</ele>
        <time>2014-02-20T09:36:15.491Z</time>
      </trkpt>
      <trkpt lat="43.57338" lon="3.0196">
        <ele>232.2</ele>
        <time>2014-02-20T09:36:17.493Z</time>
      </trkpt>
      <trkpt lat="43.57339" lon="3.01966">
        <ele>233.1</ele>
        <time>2014-02-20T09:36:18.490Z</time>
      </trkpt>
      <trkpt lat="43.5734" lon="3.01976">
        <ele>233.6</ele>
        <time>2014-02-20T09:36:20.491Z</time>
      </trkpt>
      <trkpt lat="43.57342" lon="3.01981">
        <ele>233.5</ele>
        <time>2014-02-20T09:36:21.491Z</time>
      </trkpt>
      <trkpt lat="43.57344" lon="3.0199">
        <ele>232.8</ele>
        <time>2014-02-20T09:36:23.491Z</time>
      </trkpt>
      <trkpt lat="43.57344" lon="3.01995">
        <ele>233</ele>
        <time>2014-02-20T09:36:24.490Z</time>
      </trkpt>
      <trkpt lat="43.57345" lon="3.02006">
        <ele>232.6</ele>
        <time>2014-02-20T09:36:26.494Z</time>
      </trkpt>
      <trkpt lat="43.57346" lon="3.0201">
        <ele>232.6</ele>
        <time>2014-02-20T09:36:27.490Z</time>
      </trkpt>
      <trkpt lat="43.5735" lon="3.02019">
        <ele>233</ele>
        <time>2014-02-20T09:36:29.493Z</time>
      </trkpt>
      <trkpt lat="43.57353" lon="3.02024">
        <ele>233.6</ele>
        <time>2014-02-20T09:36:30.491Z</time>
      </trkpt>
      <trkpt lat="43.57357" lon="3.02034">
        <ele>234</ele>
        <time>2014-02-20T09:36:32.494Z</time>
      </trkpt>
      <trkpt lat="43.57359" lon="3.02038">
        <ele>233.9</ele>
        <time>2014-02-20T09:36:33.492Z</time>
      </trkpt>
      <trkpt lat="43.57362" lon="3.02044">
        <ele>234.9</ele>
        <time>2014-02-20T09:36:35.494Z</time>
      </trkpt>
      <trkpt lat="43.57364" lon="3.02048">
        <ele>234.6</ele>
        <time>2014-02-20T09:36:36.491Z</time>
      </trkpt>
      <trkpt lat="43.57367" lon="3.02058">
        <ele>234.6</ele>
        <time>2014-02-20T09:36:38.491Z</time>
      </trkpt>
      <trkpt lat="43.57368" lon="3.02063">
        <ele>234.6</ele>
        <time>2014-02-20T09:36:39.488Z</time>
      </trkpt>
      <trkpt lat="43.57371" lon="3.02069">
        <ele>233.8</ele>
        <time>2014-02-20T09:36:40.491Z</time>
      </trkpt>
      <trkpt lat="43.57374" lon="3.02074">
        <ele>233.4</ele>
        <time>2014-02-20T09:36:41.492Z</time>
      </trkpt>
      <trkpt lat="43.57377" lon="3.02079">
        <ele>233.2</ele>
        <time>2014-02-20T09:36:42.489Z</time>
      </trkpt>
      <trkpt lat="43.57379" lon="3.02084">
        <ele>233.3</ele>
        <time>2014-02-20T09:36:43.487Z</time>
      </trkpt>
      <trkpt lat="43.57384" lon="3.02092">
        <ele>233.7</ele>
        <time>2014-02-20T09:36:45.487Z</time>
      </trkpt>
      <trkpt lat="43.57387" lon="3.02097">
        <ele>233.2</ele>
        <time>2014-02-20T09:36:46.486Z</time>
      </trkpt>
      <trkpt lat="43.5739" lon="3.02102">
        <ele>232.9</ele>
        <time>2014-02-20T09:36:47.487Z</time>
      </trkpt>
      <trkpt lat="43.57393" lon="3.02106">
        <ele>232.9</ele>
        <time>2014-02-20T09:36:48.487Z</time>
      </trkpt>
      <trkpt lat="43.57396" lon="3.02117">
        <ele>233.4</ele>
        <time>2014-02-20T09:36:50.486Z</time>
      </trkpt>
      <trkpt lat="43.57398" lon="3.02125">
        <ele>234</ele>
        <time>2014-02-20T09:36:51.491Z</time>
      </trkpt>
      <trkpt lat="43.574" lon="3.02134">
        <ele>234.5</ele>
        <time>2014-02-20T09:36:53.490Z</time>
      </trkpt>
      <trkpt lat="43.57402" lon="3.02137">
        <ele>234.9</ele>
        <time>2014-02-20T09:36:54.489Z</time>
      </trkpt>
      <trkpt lat="43.57407" lon="3.02146">
        <ele>235.3</ele>
        <time>2014-02-20T09:36:57.492Z</time>
      </trkpt>
      <trkpt lat="43.57409" lon="3.02149">
        <ele>235.4</ele>
        <time>2014-02-20T09:36:58.491Z</time>
      </trkpt>
      <trkpt lat="43.57415" lon="3.02157">
        <ele>235.5</ele>
        <time>2014-02-20T09:37:01.491Z</time>
      </trkpt>
      <trkpt lat="43.57417" lon="3.02161">
        <ele>235.6</ele>
        <time>2014-02-20T09:37:02.491Z</time>
      </trkpt>
      <trkpt lat="43.5742" lon="3.02169">
        <ele>236.7</ele>
        <time>2014-02-20T09:37:04.490Z</time>
      </trkpt>
      <trkpt lat="43.57422" lon="3.02174">
        <ele>236.6</ele>
        <time>2014-02-20T09:37:05.492Z</time>
      </trkpt>
      <trkpt lat="43.57427" lon="3.02182">
        <ele>235.9</ele>
        <time>2014-02-20T09:37:07.489Z</time>
      </trkpt>
      <trkpt lat="43.57431" lon="3.02186">
        <ele>236.1</ele>
        <time>2014-02-20T09:37:08.489Z</time>
      </trkpt>
      <trkpt lat="43.57436" lon="3.02192">
        <ele>236.3</ele>
        <time>2014-02-20T09:37:10.490Z</time>
      </trkpt>
      <trkpt lat="43.57439" lon="3.02195">
        <ele>236</ele>
        <time>2014-02-20T09:37:11.556Z</time>
      </trkpt>
      <trkpt lat="43.57445" lon="3.02201">
        <ele>235</ele>
        <time>2014-02-20T09:37:13.491Z</time>
      </trkpt>
      <trkpt lat="43.57448" lon="3.02206">
        <ele>234.5</ele>
        <time>2014-02-20T09:37:14.491Z</time>
      </trkpt>
      <trkpt lat="43.57453" lon="3.02214">
        <ele>234.8</ele>
        <time>2014-02-20T09:37:16.493Z</time>
      </trkpt>
      <trkpt lat="43.57455" lon="3.02217">
        <ele>234.8</ele>
        <time>2014-02-20T09:37:17.493Z</time>
      </trkpt>
      <trkpt lat="43.57459" lon="3.02227">
        <ele>235.5</ele>
        <time>2014-02-20T09:37:20.493Z</time>
      </trkpt>
      <trkpt lat="43.57462" lon="3.02232">
        <ele>235.6</ele>
        <time>2014-02-20T09:37:21.492Z</time>
      </trkpt>
      <trkpt lat="43.57467" lon="3.02239">
        <ele>235.5</ele>
        <time>2014-02-20T09:37:23.492Z</time>
      </trkpt>
      <trkpt lat="43.5747" lon="3.02242">
        <ele>235.3</ele>
        <time>2014-02-20T09:37:24.493Z</time>
      </trkpt>
      <trkpt lat="43.57475" lon="3.02248">
        <ele>235.4</ele>
        <time>2014-02-20T09:37:26.493Z</time>
      </trkpt>
      <trkpt lat="43.57477" lon="3.02251">
        <ele>235.6</ele>
        <time>2014-02-20T09:37:27.491Z</time>
      </trkpt>
      <trkpt lat="43.57481" lon="3.02258">
        <ele>235.9</ele>
        <time>2014-02-20T09:37:29.491Z</time>
      </trkpt>
      <trkpt lat="43.57483" lon="3.02261">
        <ele>235.9</ele>
        <time>2014-02-20T09:37:30.489Z</time>
      </trkpt>
      <trkpt lat="43.57488" lon="3.02267">
        <ele>236</ele>
        <time>2014-02-20T09:37:32.494Z</time>
      </trkpt>
      <trkpt lat="43.5749" lon="3.0227">
        <ele>235.5</ele>
        <time>2014-02-20T09:37:33.493Z</time>
      </trkpt>
      <trkpt lat="43.57495" lon="3.02278">
        <ele>235.1</ele>
        <time>2014-02-20T09:37:35.492Z</time>
      </trkpt>
      <trkpt lat="43.57497" lon="3.02282">
        <ele>234.6</ele>
        <time>2014-02-20T09:37:36.491Z</time>
      </trkpt>
      <trkpt lat="43.57499" lon="3.0229">
        <ele>236.3</ele>
        <time>2014-02-20T09:37:38.493Z</time>
      </trkpt>
      <trkpt lat="43.57501" lon="3.02294">
        <ele>236.1</ele>
        <time>2014-02-20T09:37:39.492Z</time>
      </trkpt>
      <trkpt lat="43.57504" lon="3.02298">
        <ele>236.6</ele>
        <time>2014-02-20T09:37:40.493Z</time>
      </trkpt>
      <trkpt lat="43.57508" lon="3.02304">
        <ele>237.3</ele>
        <time>2014-02-20T09:37:43.039Z</time>
      </trkpt>
      <trkpt lat="43.57512" lon="3.02312">
        <ele>237.4</ele>
        <time>2014-02-20T09:37:44.492Z</time>
      </trkpt>
      <trkpt lat="43.57515" lon="3.02317">
        <ele>237.5</ele>
        <time>2014-02-20T09:37:45.490Z</time>
      </trkpt>
      <trkpt lat="43.5752" lon="3.02323">
        <ele>237</ele>
        <time>2014-02-20T09:37:46.490Z</time>
      </trkpt>
      <trkpt lat="43.57526" lon="3.02329">
        <ele>235.7</ele>
        <time>2014-02-20T09:37:47.493Z</time>
      </trkpt>
      <trkpt lat="43.57533" lon="3.02335">
        <ele>236.1</ele>
        <time>2014-02-20T09:37:48.591Z</time>
      </trkpt>
      <trkpt lat="43.57538" lon="3.02339">
        <ele>236</ele>
        <time>2014-02-20T09:37:49.495Z</time>
      </trkpt>
      <trkpt lat="43.57542" lon="3.02343">
        <ele>236.3</ele>
        <time>2014-02-20T09:37:50.496Z</time>
      </trkpt>
      <trkpt lat="43.57547" lon="3.02348">
        <ele>236.8</ele>
        <time>2014-02-20T09:37:52.662Z</time>
      </trkpt>
      <trkpt lat="43.57552" lon="3.02357">
        <ele>237.4</ele>
        <time>2014-02-20T09:37:54.496Z</time>
      </trkpt>
      <trkpt lat="43.57555" lon="3.02361">
        <ele>237.1</ele>
        <time>2014-02-20T09:37:55.494Z</time>
      </trkpt>
      <trkpt lat="43.57561" lon="3.02369">
        <ele>236.8</ele>
        <time>2014-02-20T09:37:57.503Z</time>
      </trkpt>
      <trkpt lat="43.57565" lon="3.02372">
        <ele>236.4</ele>
        <time>2014-02-20T09:37:58.498Z</time>
      </trkpt>
      <trkpt lat="43.57572" lon="3.02378">
        <ele>236.4</ele>
        <time>2014-02-20T09:38:00.498Z</time>
      </trkpt>
      <trkpt lat="43.57575" lon="3.02381">
        <ele>236.4</ele>
        <time>2014-02-20T09:38:01.499Z</time>
      </trkpt>
      <trkpt lat="43.5758" lon="3.02387">
        <ele>236.5</ele>
        <time>2014-02-20T09:38:03.497Z</time>
      </trkpt>
      <trkpt lat="43.57583" lon="3.02391">
        <ele>236.3</ele>
        <time>2014-02-20T09:38:04.496Z</time>
      </trkpt>
      <trkpt lat="43.57588" lon="3.02396">
        <ele>236.2</ele>
        <time>2014-02-20T09:38:06.497Z</time>
      </trkpt>
      <trkpt lat="43.57591" lon="3.02398">
        <ele>236.5</ele>
        <time>2014-02-20T09:38:07.494Z</time>
      </trkpt>
      <trkpt lat="43.57598" lon="3.02403">
        <ele>236.6</ele>
        <time>2014-02-20T09:38:09.493Z</time>
      </trkpt>
      <trkpt lat="43.57601" lon="3.02405">
        <ele>236.7</ele>
        <time>2014-02-20T09:38:10.494Z</time>
      </trkpt>
      <trkpt lat="43.57608" lon="3.0241">
        <ele>236.7</ele>
        <time>2014-02-20T09:38:12.493Z</time>
      </trkpt>
      <trkpt lat="43.57611" lon="3.02412">
        <ele>236.8</ele>
        <time>2014-02-20T09:38:13.496Z</time>
      </trkpt>
      <trkpt lat="43.57772" lon="3.02706">
        <ele>233.7</ele>
        <time>2014-02-20T09:39:11.294Z</time>
      </trkpt>
      <trkpt lat="43.57774" lon="3.02718">
        <ele>233.8</ele>
        <time>2014-02-20T09:39:11.545Z</time>
      </trkpt>
      <trkpt lat="43.57778" lon="3.02718">
        <ele>231.7</ele>
        <time>2014-02-20T09:39:12.490Z</time>
      </trkpt>
      <trkpt lat="43.57785" lon="3.02711">
        <ele>232.3</ele>
        <time>2014-02-20T09:39:14.492Z</time>
      </trkpt>
      <trkpt lat="43.57788" lon="3.02713">
        <ele>230.9</ele>
        <time>2014-02-20T09:39:15.490Z</time>
      </trkpt>
      <trkpt lat="43.57793" lon="3.02722">
        <ele>230.9</ele>
        <time>2014-02-20T09:39:18.504Z</time>
      </trkpt>
      <trkpt lat="43.57795" lon="3.02725">
        <ele>231.1</ele>
        <time>2014-02-20T09:39:19.493Z</time>
      </trkpt>
      <trkpt lat="43.578" lon="3.02734">
        <ele>231.2</ele>
        <time>2014-02-20T09:39:21.494Z</time>
      </trkpt>
      <trkpt lat="43.57803" lon="3.0274">
        <ele>231.1</ele>
        <time>2014-02-20T09:39:22.495Z</time>
      </trkpt>
      <trkpt lat="43.57806" lon="3.02746">
        <ele>231</ele>
        <time>2014-02-20T09:39:23.494Z</time>
      </trkpt>
      <trkpt lat="43.57809" lon="3.02753">
        <ele>231</ele>
        <time>2014-02-20T09:39:24.747Z</time>
      </trkpt>
      <trkpt lat="43.57814" lon="3.02761">
        <ele>230.8</ele>
        <time>2014-02-20T09:39:26.494Z</time>
      </trkpt>
      <trkpt lat="43.57818" lon="3.02765">
        <ele>230.6</ele>
        <time>2014-02-20T09:39:27.495Z</time>
      </trkpt>
      <trkpt lat="43.57824" lon="3.0277">
        <ele>230.4</ele>
        <time>2014-02-20T09:39:29.498Z</time>
      </trkpt>
      <trkpt lat="43.57828" lon="3.02771">
        <ele>230.4</ele>
        <time>2014-02-20T09:39:30.494Z</time>
      </trkpt>
      <trkpt lat="43.57836" lon="3.02775">
        <ele>230.5</ele>
        <time>2014-02-20T09:39:32.494Z</time>
      </trkpt>
      <trkpt lat="43.57841" lon="3.02777">
        <ele>231.2</ele>
        <time>2014-02-20T09:39:33.493Z</time>
      </trkpt>
      <trkpt lat="43.57846" lon="3.02779">
        <ele>230.5</ele>
        <time>2014-02-20T09:39:34.494Z</time>
      </trkpt>
      <trkpt lat="43.57852" lon="3.02783">
        <ele>230.9</ele>
        <time>2014-02-20T09:39:35.494Z</time>
      </trkpt>
      <trkpt lat="43.57856" lon="3.02788">
        <ele>230.2</ele>
        <time>2014-02-20T09:39:36.495Z</time>
      </trkpt>
      <trkpt lat="43.57861" lon="3.02793">
        <ele>231</ele>
        <time>2014-02-20T09:39:37.496Z</time>
      </trkpt>
      <trkpt lat="43.57865" lon="3.02799">
        <ele>230.6</ele>
        <time>2014-02-20T09:39:38.502Z</time>
      </trkpt>
      <trkpt lat="43.57869" lon="3.02806">
        <ele>230.5</ele>
        <time>2014-02-20T09:39:39.495Z</time>
      </trkpt>
      <trkpt lat="43.57872" lon="3.02814">
        <ele>230.4</ele>
        <time>2014-02-20T09:39:40.495Z</time>
      </trkpt>
      <trkpt lat="43.57875" lon="3.02822">
        <ele>230.4</ele>
        <time>2014-02-20T09:39:41.504Z</time>
      </trkpt>
      <trkpt lat="43.57879" lon="3.02829">
        <ele>230.6</ele>
        <time>2014-02-20T09:39:42.491Z</time>
      </trkpt>
      <trkpt lat="43.57886" lon="3.02842">
        <ele>230.5</ele>
        <time>2014-02-20T09:39:45.423Z</time>
      </trkpt>
      <trkpt lat="43.57889" lon="3.0285">
        <ele>231.1</ele>
        <time>2014-02-20T09:39:46.493Z</time>
      </trkpt>
      <trkpt lat="43.57892" lon="3.02856">
        <ele>231</ele>
        <time>2014-02-20T09:39:47.491Z</time>
      </trkpt>
      <trkpt lat="43.57895" lon="3.02862">
        <ele>231.3</ele>
        <time>2014-02-20T09:39:48.516Z</time>
      </trkpt>
      <trkpt lat="43.57898" lon="3.02866">
        <ele>231.1</ele>
        <time>2014-02-20T09:39:49.512Z</time>
      </trkpt>
      <trkpt lat="43.57901" lon="3.02872">
        <ele>231</ele>
        <time>2014-02-20T09:39:50.510Z</time>
      </trkpt>
      <trkpt lat="43.57903" lon="3.02877">
        <ele>231.5</ele>
        <time>2014-02-20T09:39:51.512Z</time>
      </trkpt>
      <trkpt lat="43.57909" lon="3.02886">
        <ele>232</ele>
        <time>2014-02-20T09:39:53.540Z</time>
      </trkpt>
      <trkpt lat="43.57911" lon="3.0289">
        <ele>232.3</ele>
        <time>2014-02-20T09:39:54.507Z</time>
      </trkpt>
      <trkpt lat="43.57915" lon="3.02901">
        <ele>232.3</ele>
        <time>2014-02-20T09:39:56.492Z</time>
      </trkpt>
      <trkpt lat="43.57917" lon="3.02907">
        <ele>232</ele>
        <time>2014-02-20T09:39:57.490Z</time>
      </trkpt>
      <trkpt lat="43.5792" lon="3.02913">
        <ele>232.3</ele>
        <time>2014-02-20T09:39:58.491Z</time>
      </trkpt>
      <trkpt lat="43.57921" lon="3.02921">
        <ele>232.5</ele>
        <time>2014-02-20T09:39:59.490Z</time>
      </trkpt>
      <trkpt lat="43.57922" lon="3.02927">
        <ele>232.5</ele>
        <time>2014-02-20T09:40:00.490Z</time>
      </trkpt>
      <trkpt lat="43.57925" lon="3.02937">
        <ele>233.2</ele>
        <time>2014-02-20T09:40:03.308Z</time>
      </trkpt>
      <trkpt lat="43.5793" lon="3.02947">
        <ele>234.1</ele>
        <time>2014-02-20T09:40:04.494Z</time>
      </trkpt>
      <trkpt lat="43.57933" lon="3.02954">
        <ele>233.8</ele>
        <time>2014-02-20T09:40:05.492Z</time>
      </trkpt>
      <trkpt lat="43.57935" lon="3.02959">
        <ele>234.9</ele>
        <time>2014-02-20T09:40:06.490Z</time>
      </trkpt>
      <trkpt lat="43.57937" lon="3.02965">
        <ele>234.5</ele>
        <time>2014-02-20T09:40:07.490Z</time>
      </trkpt>
      <trkpt lat="43.57939" lon="3.02971">
        <ele>234</ele>
        <time>2014-02-20T09:40:08.491Z</time>
      </trkpt>
      <trkpt lat="43.5794" lon="3.02979">
        <ele>234.9</ele>
        <time>2014-02-20T09:40:09.491Z</time>
      </trkpt>
      <trkpt lat="43.57944" lon="3.02986">
        <ele>235</ele>
        <time>2014-02-20T09:40:10.493Z</time>
      </trkpt>
      <trkpt lat="43.57946" lon="3.02993">
        <ele>235</ele>
        <time>2014-02-20T09:40:11.495Z</time>
      </trkpt>
      <trkpt lat="43.57948" lon="3.03">
        <ele>234.9</ele>
        <time>2014-02-20T09:40:12.494Z</time>
      </trkpt>
      <trkpt lat="43.5795" lon="3.03005">
        <ele>234.8</ele>
        <time>2014-02-20T09:40:13.493Z</time>
      </trkpt>
      <trkpt lat="43.57955" lon="3.03015">
        <ele>234.7</ele>
        <time>2014-02-20T09:40:15.492Z</time>
      </trkpt>
      <trkpt lat="43.57958" lon="3.0302">
        <ele>234</ele>
        <time>2014-02-20T09:40:16.495Z</time>
      </trkpt>
      <trkpt lat="43.57963" lon="3.03029">
        <ele>234</ele>
        <time>2014-02-20T09:40:18.492Z</time>
      </trkpt>
      <trkpt lat="43.57965" lon="3.03034">
        <ele>233.8</ele>
        <time>2014-02-20T09:40:19.493Z</time>
      </trkpt>
      <trkpt lat="43.57964" lon="3.03044">
        <ele>234.4</ele>
        <time>2014-02-20T09:40:20.495Z</time>
      </trkpt>
      <trkpt lat="43.57964" lon="3.03053">
        <ele>233.6</ele>
        <time>2014-02-20T09:40:21.490Z</time>
      </trkpt>
      <trkpt lat="43.57964" lon="3.03061">
        <ele>234.1</ele>
        <time>2014-02-20T09:40:22.490Z</time>
      </trkpt>
      <trkpt lat="43.57965" lon="3.0307">
        <ele>234.4</ele>
        <time>2014-02-20T09:40:23.490Z</time>
      </trkpt>
      <trkpt lat="43.57967" lon="3.03076">
        <ele>234.2</ele>
        <time>2014-02-20T09:40:24.488Z</time>
      </trkpt>
      <trkpt lat="43.5797" lon="3.03082">
        <ele>235.1</ele>
        <time>2014-02-20T09:40:25.488Z</time>
      </trkpt>
      <trkpt lat="43.57974" lon="3.03091">
        <ele>235.6</ele>
        <time>2014-02-20T09:40:26.493Z</time>
      </trkpt>
      <trkpt lat="43.57977" lon="3.031">
        <ele>236</ele>
        <time>2014-02-20T09:40:27.488Z</time>
      </trkpt>
      <trkpt lat="43.57979" lon="3.03108">
        <ele>237.1</ele>
        <time>2014-02-20T09:40:28.489Z</time>
      </trkpt>
      <trkpt lat="43.5798" lon="3.03114">
        <ele>236.2</ele>
        <time>2014-02-20T09:40:29.491Z</time>
      </trkpt>
      <trkpt lat="43.57983" lon="3.03123">
        <ele>236.2</ele>
        <time>2014-02-20T09:40:31.489Z</time>
      </trkpt>
      <trkpt lat="43.57984" lon="3.03127">
        <ele>236.6</ele>
        <time>2014-02-20T09:40:32.492Z</time>
      </trkpt>
      <trkpt lat="43.57987" lon="3.03135">
        <ele>237.6</ele>
        <time>2014-02-20T09:40:34.491Z</time>
      </trkpt>
      <trkpt lat="43.57988" lon="3.0314">
        <ele>237.6</ele>
        <time>2014-02-20T09:40:35.490Z</time>
      </trkpt>
      <trkpt lat="43.57989" lon="3.03145">
        <ele>237.7</ele>
        <time>2014-02-20T09:40:36.488Z</time>
      </trkpt>
      <trkpt lat="43.5799" lon="3.03152">
        <ele>236.3</ele>
        <time>2014-02-20T09:40:37.491Z</time>
      </trkpt>
      <trkpt lat="43.57991" lon="3.03159">
        <ele>236.7</ele>
        <time>2014-02-20T09:40:38.573Z</time>
      </trkpt>
      <trkpt lat="43.57992" lon="3.03165">
        <ele>236.6</ele>
        <time>2014-02-20T09:40:39.489Z</time>
      </trkpt>
      <trkpt lat="43.57993" lon="3.03177">
        <ele>237.4</ele>
        <time>2014-02-20T09:40:41.491Z</time>
      </trkpt>
      <trkpt lat="43.57994" lon="3.03183">
        <ele>237.4</ele>
        <time>2014-02-20T09:40:42.489Z</time>
      </trkpt>
      <trkpt lat="43.57994" lon="3.03194">
        <ele>237</ele>
        <time>2014-02-20T09:40:44.490Z</time>
      </trkpt>
      <trkpt lat="43.57995" lon="3.03201">
        <ele>236.9</ele>
        <time>2014-02-20T09:40:45.487Z</time>
      </trkpt>
      <trkpt lat="43.57995" lon="3.03208">
        <ele>237</ele>
        <time>2014-02-20T09:40:46.490Z</time>
      </trkpt>
      <trkpt lat="43.57996" lon="3.03215">
        <ele>236.6</ele>
        <time>2014-02-20T09:40:47.494Z</time>
      </trkpt>
      <trkpt lat="43.57997" lon="3.03222">
        <ele>236.8</ele>
        <time>2014-02-20T09:40:48.494Z</time>
      </trkpt>
      <trkpt lat="43.57999" lon="3.03228">
        <ele>236.7</ele>
        <time>2014-02-20T09:40:49.494Z</time>
      </trkpt>
      <trkpt lat="43.58" lon="3.03235">
        <ele>236.1</ele>
        <time>2014-02-20T09:40:50.495Z</time>
      </trkpt>
      <trkpt lat="43.58002" lon="3.0324">
        <ele>236.1</ele>
        <time>2014-02-20T09:40:51.494Z</time>
      </trkpt>
      <trkpt lat="43.58004" lon="3.03251">
        <ele>235.2</ele>
        <time>2014-02-20T09:40:53.497Z</time>
      </trkpt>
      <trkpt lat="43.58005" lon="3.03256">
        <ele>234.5</ele>
        <time>2014-02-20T09:40:54.491Z</time>
      </trkpt>
      <trkpt lat="43.58006" lon="3.03268">
        <ele>233.6</ele>
        <time>2014-02-20T09:40:56.605Z</time>
      </trkpt>
      <trkpt lat="43.58008" lon="3.03273">
        <ele>233.5</ele>
        <time>2014-02-20T09:40:57.491Z</time>
      </trkpt>
      <trkpt lat="43.58008" lon="3.0328">
        <ele>233.3</ele>
        <time>2014-02-20T09:40:58.491Z</time>
      </trkpt>
      <trkpt lat="43.58008" lon="3.03288">
        <ele>232.7</ele>
        <time>2014-02-20T09:40:59.490Z</time>
      </trkpt>
      <trkpt lat="43.58008" lon="3.03296">
        <ele>232.2</ele>
        <time>2014-02-20T09:41:00.489Z</time>
      </trkpt>
      <trkpt lat="43.58008" lon="3.03304">
        <ele>232.9</ele>
        <time>2014-02-20T09:41:01.490Z</time>
      </trkpt>
      <trkpt lat="43.58008" lon="3.03311">
        <ele>232.3</ele>
        <time>2014-02-20T09:41:02.490Z</time>
      </trkpt>
      <trkpt lat="43.58009" lon="3.03318">
        <ele>231.4</ele>
        <time>2014-02-20T09:41:03.488Z</time>
      </trkpt>
      <trkpt lat="43.58009" lon="3.03325">
        <ele>231.4</ele>
        <time>2014-02-20T09:41:04.489Z</time>
      </trkpt>
      <trkpt lat="43.58009" lon="3.03331">
        <ele>230.6</ele>
        <time>2014-02-20T09:41:05.489Z</time>
      </trkpt>
      <trkpt lat="43.58009" lon="3.03337">
        <ele>230.5</ele>
        <time>2014-02-20T09:41:06.492Z</time>
      </trkpt>
      <trkpt lat="43.58009" lon="3.03344">
        <ele>230.2</ele>
        <time>2014-02-20T09:41:07.489Z</time>
      </trkpt>
      <trkpt lat="43.58009" lon="3.03352">
        <ele>229.5</ele>
        <time>2014-02-20T09:41:08.490Z</time>
      </trkpt>
      <trkpt lat="43.58009" lon="3.03359">
        <ele>229.5</ele>
        <time>2014-02-20T09:41:09.489Z</time>
      </trkpt>
      <trkpt lat="43.58009" lon="3.03366">
        <ele>229.8</ele>
        <time>2014-02-20T09:41:10.489Z</time>
      </trkpt>
      <trkpt lat="43.58009" lon="3.03373">
        <ele>230.1</ele>
        <time>2014-02-20T09:41:11.504Z</time>
      </trkpt>
      <trkpt lat="43.58009" lon="3.03379">
        <ele>230.2</ele>
        <time>2014-02-20T09:41:12.489Z</time>
      </trkpt>
      <trkpt lat="43.58008" lon="3.03386">
        <ele>230.6</ele>
        <time>2014-02-20T09:41:13.490Z</time>
      </trkpt>
      <trkpt lat="43.58007" lon="3.03392">
        <ele>230.6</ele>
        <time>2014-02-20T09:41:14.490Z</time>
      </trkpt>
      <trkpt lat="43.58006" lon="3.03399">
        <ele>230.5</ele>
        <time>2014-02-20T09:41:15.490Z</time>
      </trkpt>
      <trkpt lat="43.58006" lon="3.03406">
        <ele>230.6</ele>
        <time>2014-02-20T09:41:16.512Z</time>
      </trkpt>
      <trkpt lat="43.58005" lon="3.03412">
        <ele>231.2</ele>
        <time>2014-02-20T09:41:17.488Z</time>
      </trkpt>
      <trkpt lat="43.58006" lon="3.03424">
        <ele>229.4</ele>
        <time>2014-02-20T09:41:19.490Z</time>
      </trkpt>
      <trkpt lat="43.58007" lon="3.0343">
        <ele>229.1</ele>
        <time>2014-02-20T09:41:20.491Z</time>
      </trkpt>
      <trkpt lat="43.58007" lon="3.03437">
        <ele>229</ele>
        <time>2014-02-20T09:41:21.648Z</time>
      </trkpt>
      <trkpt lat="43.58007" lon="3.03443">
        <ele>229</ele>
        <time>2014-02-20T09:41:22.481Z</time>
      </trkpt>
      <trkpt lat="43.58006" lon="3.0345">
        <ele>229.1</ele>
        <time>2014-02-20T09:41:23.491Z</time>
      </trkpt>
      <trkpt lat="43.58006" lon="3.03457">
        <ele>229.2</ele>
        <time>2014-02-20T09:41:24.488Z</time>
      </trkpt>
      <trkpt lat="43.58005" lon="3.03465">
        <ele>228.7</ele>
        <time>2014-02-20T09:41:25.492Z</time>
      </trkpt>
      <trkpt lat="43.58005" lon="3.03472">
        <ele>228.3</ele>
        <time>2014-02-20T09:41:26.517Z</time>
      </trkpt>
      <trkpt lat="43.58005" lon="3.03479">
        <ele>228.5</ele>
        <time>2014-02-20T09:41:27.491Z</time>
      </trkpt>
      <trkpt lat="43.58004" lon="3.03487">
        <ele>229.3</ele>
        <time>2014-02-20T09:41:28.493Z</time>
      </trkpt>
      <trkpt lat="43.58004" lon="3.03494">
        <ele>229.2</ele>
        <time>2014-02-20T09:41:29.490Z</time>
      </trkpt>
      <trkpt lat="43.58005" lon="3.03501">
        <ele>229.4</ele>
        <time>2014-02-20T09:41:30.491Z</time>
      </trkpt>
      <trkpt lat="43.58006" lon="3.03508">
        <ele>229.4</ele>
        <time>2014-02-20T09:41:31.484Z</time>
      </trkpt>
      <trkpt lat="43.58006" lon="3.03515">
        <ele>229.4</ele>
        <time>2014-02-20T09:41:32.492Z</time>
      </trkpt>
      <trkpt lat="43.58005" lon="3.03524">
        <ele>229.1</ele>
        <time>2014-02-20T09:41:33.488Z</time>
      </trkpt>
      <trkpt lat="43.58002" lon="3.03533">
        <ele>227.5</ele>
        <time>2014-02-20T09:41:34.489Z</time>
      </trkpt>
      <trkpt lat="43.58" lon="3.0354">
        <ele>226.6</ele>
        <time>2014-02-20T09:41:35.486Z</time>
      </trkpt>
      <trkpt lat="43.57999" lon="3.03545">
        <ele>225.6</ele>
        <time>2014-02-20T09:41:36.488Z</time>
      </trkpt>
      <trkpt lat="43.57997" lon="3.03552">
        <ele>225.9</ele>
        <time>2014-02-20T09:41:37.488Z</time>
      </trkpt>
      <trkpt lat="43.57996" lon="3.03558">
        <ele>226.1</ele>
        <time>2014-02-20T09:41:38.490Z</time>
      </trkpt>
      <trkpt lat="43.57996" lon="3.03569">
        <ele>226.9</ele>
        <time>2014-02-20T09:41:40.489Z</time>
      </trkpt>
      <trkpt lat="43.57995" lon="3.03575">
        <ele>226.8</ele>
        <time>2014-02-20T09:41:41.489Z</time>
      </trkpt>
      <trkpt lat="43.57996" lon="3.03587">
        <ele>227.7</ele>
        <time>2014-02-20T09:41:43.483Z</time>
      </trkpt>
      <trkpt lat="43.57995" lon="3.03591">
        <ele>228.1</ele>
        <time>2014-02-20T09:41:44.493Z</time>
      </trkpt>
      <trkpt lat="43.57992" lon="3.03601">
        <ele>228.3</ele>
        <time>2014-02-20T09:41:46.499Z</time>
      </trkpt>
      <trkpt lat="43.5799" lon="3.03606">
        <ele>228.3</ele>
        <time>2014-02-20T09:41:47.497Z</time>
      </trkpt>
      <trkpt lat="43.57989" lon="3.03616">
        <ele>228.2</ele>
        <time>2014-02-20T09:41:49.497Z</time>
      </trkpt>
      <trkpt lat="43.57988" lon="3.03622">
        <ele>228</ele>
        <time>2014-02-20T09:41:50.498Z</time>
      </trkpt>
      <trkpt lat="43.57988" lon="3.03632">
        <ele>228.8</ele>
        <time>2014-02-20T09:41:52.497Z</time>
      </trkpt>
      <trkpt lat="43.57988" lon="3.03639">
        <ele>229.2</ele>
        <time>2014-02-20T09:41:53.496Z</time>
      </trkpt>
      <trkpt lat="43.57987" lon="3.03649">
        <ele>229.5</ele>
        <time>2014-02-20T09:41:55.493Z</time>
      </trkpt>
      <trkpt lat="43.57984" lon="3.03656">
        <ele>229.2</ele>
        <time>2014-02-20T09:41:56.493Z</time>
      </trkpt>
      <trkpt lat="43.57979" lon="3.03664">
        <ele>228.5</ele>
        <time>2014-02-20T09:41:57.493Z</time>
      </trkpt>
      <trkpt lat="43.57974" lon="3.0367">
        <ele>227.8</ele>
        <time>2014-02-20T09:41:58.489Z</time>
      </trkpt>
      <trkpt lat="43.57971" lon="3.03679">
        <ele>227.9</ele>
        <time>2014-02-20T09:41:59.491Z</time>
      </trkpt>
      <trkpt lat="43.57968" lon="3.03689">
        <ele>227.3</ele>
        <time>2014-02-20T09:42:00.492Z</time>
      </trkpt>
      <trkpt lat="43.57965" lon="3.03698">
        <ele>227.2</ele>
        <time>2014-02-20T09:42:01.493Z</time>
      </trkpt>
      <trkpt lat="43.57961" lon="3.03708">
        <ele>227.1</ele>
        <time>2014-02-20T09:42:02.493Z</time>
      </trkpt>
      <trkpt lat="43.5796" lon="3.03715">
        <ele>226.9</ele>
        <time>2014-02-20T09:42:03.492Z</time>
      </trkpt>
      <trkpt lat="43.57959" lon="3.03722">
        <ele>226.6</ele>
        <time>2014-02-20T09:42:04.492Z</time>
      </trkpt>
      <trkpt lat="43.57957" lon="3.03734">
        <ele>227.8</ele>
        <time>2014-02-20T09:42:06.491Z</time>
      </trkpt>
      <trkpt lat="43.57955" lon="3.03739">
        <ele>228.2</ele>
        <time>2014-02-20T09:42:07.492Z</time>
      </trkpt>
      <trkpt lat="43.57952" lon="3.03748">
        <ele>229.4</ele>
        <time>2014-02-20T09:42:09.486Z</time>
      </trkpt>
      <trkpt lat="43.57951" lon="3.03754">
        <ele>229.1</ele>
        <time>2014-02-20T09:42:10.488Z</time>
      </trkpt>
      <trkpt lat="43.5795" lon="3.03764">
        <ele>229.3</ele>
        <time>2014-02-20T09:42:12.491Z</time>
      </trkpt>
      <trkpt lat="43.57949" lon="3.03769">
        <ele>229.5</ele>
        <time>2014-02-20T09:42:13.490Z</time>
      </trkpt>
      <trkpt lat="43.57947" lon="3.03775">
        <ele>229.6</ele>
        <time>2014-02-20T09:42:14.489Z</time>
      </trkpt>
      <trkpt lat="43.57945" lon="3.03781">
        <ele>229.2</ele>
        <time>2014-02-20T09:42:15.489Z</time>
      </trkpt>
      <trkpt lat="43.57944" lon="3.03787">
        <ele>229.9</ele>
        <time>2014-02-20T09:42:16.490Z</time>
      </trkpt>
      <trkpt lat="43.57941" lon="3.03792">
        <ele>229.7</ele>
        <time>2014-02-20T09:42:17.488Z</time>
      </trkpt>
      <trkpt lat="43.57939" lon="3.03798">
        <ele>229.9</ele>
        <time>2014-02-20T09:42:18.486Z</time>
      </trkpt>
      <trkpt lat="43.57936" lon="3.03803">
        <ele>228.9</ele>
        <time>2014-02-20T09:42:19.486Z</time>
      </trkpt>
      <trkpt lat="43.57935" lon="3.03808">
        <ele>230</ele>
        <time>2014-02-20T09:42:20.486Z</time>
      </trkpt>
      <trkpt lat="43.57932" lon="3.03814">
        <ele>230</ele>
        <time>2014-02-20T09:42:21.488Z</time>
      </trkpt>
      <trkpt lat="43.5793" lon="3.03822">
        <ele>229.5</ele>
        <time>2014-02-20T09:42:22.493Z</time>
      </trkpt>
      <trkpt lat="43.57928" lon="3.03829">
        <ele>229.2</ele>
        <time>2014-02-20T09:42:23.489Z</time>
      </trkpt>
      <trkpt lat="43.57925" lon="3.03839">
        <ele>228.1</ele>
        <time>2014-02-20T09:42:25.489Z</time>
      </trkpt>
      <trkpt lat="43.57923" lon="3.03845">
        <ele>227.3</ele>
        <time>2014-02-20T09:42:26.490Z</time>
      </trkpt>
      <trkpt lat="43.57919" lon="3.03855">
        <ele>227.4</ele>
        <time>2014-02-20T09:42:28.487Z</time>
      </trkpt>
      <trkpt lat="43.57918" lon="3.03861">
        <ele>227.8</ele>
        <time>2014-02-20T09:42:29.489Z</time>
      </trkpt>
      <trkpt lat="43.57916" lon="3.03872">
        <ele>228.2</ele>
        <time>2014-02-20T09:42:31.486Z</time>
      </trkpt>
      <trkpt lat="43.57915" lon="3.03877">
        <ele>228.3</ele>
        <time>2014-02-20T09:42:32.489Z</time>
      </trkpt>
      <trkpt lat="43.57911" lon="3.03888">
        <ele>229.8</ele>
        <time>2014-02-20T09:42:34.491Z</time>
      </trkpt>
      <trkpt lat="43.57909" lon="3.03894">
        <ele>229.8</ele>
        <time>2014-02-20T09:42:35.482Z</time>
      </trkpt>
      <trkpt lat="43.57905" lon="3.03903">
        <ele>230</ele>
        <time>2014-02-20T09:42:37.492Z</time>
      </trkpt>
      <trkpt lat="43.57903" lon="3.03908">
        <ele>229.8</ele>
        <time>2014-02-20T09:42:38.490Z</time>
      </trkpt>
      <trkpt lat="43.579" lon="3.03918">
        <ele>228.9</ele>
        <time>2014-02-20T09:42:41.487Z</time>
      </trkpt>
      <trkpt lat="43.57898" lon="3.03922">
        <ele>228.3</ele>
        <time>2014-02-20T09:42:42.485Z</time>
      </trkpt>
      <trkpt lat="43.57895" lon="3.03933">
        <ele>230.6</ele>
        <time>2014-02-20T09:42:45.489Z</time>
      </trkpt>
      <trkpt lat="43.57894" lon="3.03937">
        <ele>230.6</ele>
        <time>2014-02-20T09:42:46.489Z</time>
      </trkpt>
      <trkpt lat="43.57891" lon="3.03945">
        <ele>228.3</ele>
        <time>2014-02-20T09:42:55.491Z</time>
      </trkpt>
      <trkpt lat="43.5789" lon="3.03948">
        <ele>228.1</ele>
        <time>2014-02-20T09:42:56.496Z</time>
      </trkpt>
      <trkpt lat="43.57886" lon="3.03958">
        <ele>228.1</ele>
        <time>2014-02-20T09:42:59.491Z</time>
      </trkpt>
      <trkpt lat="43.57885" lon="3.03961">
        <ele>228.6</ele>
        <time>2014-02-20T09:43:00.494Z</time>
      </trkpt>
      <trkpt lat="43.57881" lon="3.03971">
        <ele>228.4</ele>
        <time>2014-02-20T09:43:03.494Z</time>
      </trkpt>
      <trkpt lat="43.5788" lon="3.03974">
        <ele>227.7</ele>
        <time>2014-02-20T09:43:04.493Z</time>
      </trkpt>
      <trkpt lat="43.57876" lon="3.03981">
        <ele>227.4</ele>
        <time>2014-02-20T09:43:06.491Z</time>
      </trkpt>
      <trkpt lat="43.57875" lon="3.03986">
        <ele>228.7</ele>
        <time>2014-02-20T09:43:07.500Z</time>
      </trkpt>
      <trkpt lat="43.57873" lon="3.03998">
        <ele>229.1</ele>
        <time>2014-02-20T09:43:10.491Z</time>
      </trkpt>
      <trkpt lat="43.57872" lon="3.04">
        <ele>228.8</ele>
        <time>2014-02-20T09:43:11.527Z</time>
      </trkpt>
      <trkpt lat="43.57874" lon="3.04012">
        <ele>227.5</ele>
        <time>2014-02-20T09:43:17.490Z</time>
      </trkpt>
      <trkpt lat="43.57875" lon="3.04013">
        <ele>227.7</ele>
        <time>2014-02-20T09:43:18.486Z</time>
      </trkpt>
      <trkpt lat="43.57882" lon="3.0402">
        <ele>226.8</ele>
        <time>2014-02-20T09:43:21.589Z</time>
      </trkpt>
      <trkpt lat="43.57884" lon="3.04022">
        <ele>226.5</ele>
        <time>2014-02-20T09:43:22.491Z</time>
      </trkpt>
      <trkpt lat="43.5789" lon="3.04029">
        <ele>226.1</ele>
        <time>2014-02-20T09:43:25.496Z</time>
      </trkpt>
      <trkpt lat="43.57889" lon="3.04034">
        <ele>226.6</ele>
        <time>2014-02-20T09:43:26.494Z</time>
      </trkpt>
      <trkpt lat="43.57888" lon="3.04044">
        <ele>229</ele>
        <time>2014-02-20T09:43:29.494Z</time>
      </trkpt>
      <trkpt lat="43.57887" lon="3.04047">
        <ele>229</ele>
        <time>2014-02-20T09:43:30.482Z</time>
      </trkpt>
      <trkpt lat="43.57881" lon="3.04053">
        <ele>230.1</ele>
        <time>2014-02-20T09:43:34.491Z</time>
      </trkpt>
      <trkpt lat="43.57877" lon="3.04058">
        <ele>230.6</ele>
        <time>2014-02-20T09:43:35.492Z</time>
      </trkpt>
      <trkpt lat="43.57871" lon="3.04064">
        <ele>229.7</ele>
        <time>2014-02-20T09:43:37.491Z</time>
      </trkpt>
      <trkpt lat="43.57868" lon="3.04067">
        <ele>229.9</ele>
        <time>2014-02-20T09:43:38.494Z</time>
      </trkpt>
      <trkpt lat="43.57862" lon="3.04071">
        <ele>229.9</ele>
        <time>2014-02-20T09:43:40.491Z</time>
      </trkpt>
      <trkpt lat="43.57859" lon="3.04072">
        <ele>229.6</ele>
        <time>2014-02-20T09:43:41.492Z</time>
      </trkpt>
      <trkpt lat="43.57853" lon="3.04074">
        <ele>229</ele>
        <time>2014-02-20T09:43:43.490Z</time>
      </trkpt>
      <trkpt lat="43.5785" lon="3.04076">
        <ele>227.4</ele>
        <time>2014-02-20T09:43:44.490Z</time>
      </trkpt>
      <trkpt lat="43.57846" lon="3.04082">
        <ele>226.9</ele>
        <time>2014-02-20T09:43:46.491Z</time>
      </trkpt>
      <trkpt lat="43.57844" lon="3.04086">
        <ele>227</ele>
        <time>2014-02-20T09:43:47.491Z</time>
      </trkpt>
      <trkpt lat="43.57841" lon="3.04096">
        <ele>227.3</ele>
        <time>2014-02-20T09:43:49.494Z</time>
      </trkpt>
      <trkpt lat="43.5784" lon="3.041">
        <ele>227.4</ele>
        <time>2014-02-20T09:43:50.494Z</time>
      </trkpt>
      <trkpt lat="43.57837" lon="3.0411">
        <ele>227.7</ele>
        <time>2014-02-20T09:43:52.673Z</time>
      </trkpt>
      <trkpt lat="43.57836" lon="3.04114">
        <ele>227.9</ele>
        <time>2014-02-20T09:43:53.489Z</time>
      </trkpt>
      <trkpt lat="43.57834" lon="3.04124">
        <ele>229.2</ele>
        <time>2014-02-20T09:43:56.623Z</time>
      </trkpt>
      <trkpt lat="43.57833" lon="3.04127">
        <ele>229.5</ele>
        <time>2014-02-20T09:43:57.498Z</time>
      </trkpt>
      <trkpt lat="43.57831" lon="3.04136">
        <ele>229.9</ele>
        <time>2014-02-20T09:43:59.498Z</time>
      </trkpt>
      <trkpt lat="43.5783" lon="3.0414">
        <ele>230.1</ele>
        <time>2014-02-20T09:44:00.503Z</time>
      </trkpt>
      <trkpt lat="43.57828" lon="3.04149">
        <ele>230.1</ele>
        <time>2014-02-20T09:44:02.497Z</time>
      </trkpt>
      <trkpt lat="43.57826" lon="3.04153">
        <ele>229.9</ele>
        <time>2014-02-20T09:44:03.491Z</time>
      </trkpt>
      <trkpt lat="43.57824" lon="3.04163">
        <ele>228.9</ele>
        <time>2014-02-20T09:44:05.526Z</time>
      </trkpt>
      <trkpt lat="43.57821" lon="3.04166">
        <ele>228.6</ele>
        <time>2014-02-20T09:44:06.535Z</time>
      </trkpt>
      <trkpt lat="43.57816" lon="3.04175">
        <ele>225.2</ele>
        <time>2014-02-20T09:44:09.493Z</time>
      </trkpt>
      <trkpt lat="43.57815" lon="3.04181">
        <ele>224.9</ele>
        <time>2014-02-20T09:44:10.496Z</time>
      </trkpt>
      <trkpt lat="43.5781" lon="3.04191">
        <ele>224.2</ele>
        <time>2014-02-20T09:44:12.490Z</time>
      </trkpt>
      <trkpt lat="43.57809" lon="3.04195">
        <ele>223.8</ele>
        <time>2014-02-20T09:44:13.491Z</time>
      </trkpt>
      <trkpt lat="43.57807" lon="3.04201">
        <ele>223.8</ele>
        <time>2014-02-20T09:44:14.491Z</time>
      </trkpt>
      <trkpt lat="43.57805" lon="3.04207">
        <ele>223.5</ele>
        <time>2014-02-20T09:44:15.491Z</time>
      </trkpt>
      <trkpt lat="43.57802" lon="3.04217">
        <ele>223.5</ele>
        <time>2014-02-20T09:44:17.495Z</time>
      </trkpt>
      <trkpt lat="43.578" lon="3.04222">
        <ele>223.8</ele>
        <time>2014-02-20T09:44:18.496Z</time>
      </trkpt>
      <trkpt lat="43.57798" lon="3.04228">
        <ele>224.3</ele>
        <time>2014-02-20T09:44:19.498Z</time>
      </trkpt>
      <trkpt lat="43.57796" lon="3.04235">
        <ele>224.1</ele>
        <time>2014-02-20T09:44:20.496Z</time>
      </trkpt>
      <trkpt lat="43.57792" lon="3.04244">
        <ele>222.8</ele>
        <time>2014-02-20T09:44:22.497Z</time>
      </trkpt>
      <trkpt lat="43.57791" lon="3.04249">
        <ele>222.2</ele>
        <time>2014-02-20T09:44:23.496Z</time>
      </trkpt>
      <trkpt lat="43.57791" lon="3.04258">
        <ele>220.3</ele>
        <time>2014-02-20T09:44:25.493Z</time>
      </trkpt>
      <trkpt lat="43.57789" lon="3.04264">
        <ele>220.1</ele>
        <time>2014-02-20T09:44:26.494Z</time>
      </trkpt>
      <trkpt lat="43.57788" lon="3.0427">
        <ele>220</ele>
        <time>2014-02-20T09:44:27.495Z</time>
      </trkpt>
      <trkpt lat="43.57787" lon="3.04277">
        <ele>220.3</ele>
        <time>2014-02-20T09:44:28.495Z</time>
      </trkpt>
      <trkpt lat="43.57785" lon="3.04288">
        <ele>221</ele>
        <time>2014-02-20T09:44:30.495Z</time>
      </trkpt>
      <trkpt lat="43.57784" lon="3.04293">
        <ele>221</ele>
        <time>2014-02-20T09:44:31.516Z</time>
      </trkpt>
      <trkpt lat="43.57781" lon="3.04304">
        <ele>221.6</ele>
        <time>2014-02-20T09:44:33.488Z</time>
      </trkpt>
      <trkpt lat="43.57778" lon="3.04309">
        <ele>222.2</ele>
        <time>2014-02-20T09:44:34.491Z</time>
      </trkpt>
      <trkpt lat="43.57775" lon="3.04319">
        <ele>221.8</ele>
        <time>2014-02-20T09:44:36.488Z</time>
      </trkpt>
      <trkpt lat="43.57774" lon="3.04324">
        <ele>222.8</ele>
        <time>2014-02-20T09:44:37.488Z</time>
      </trkpt>
      <trkpt lat="43.57771" lon="3.04335">
        <ele>223.9</ele>
        <time>2014-02-20T09:44:39.482Z</time>
      </trkpt>
      <trkpt lat="43.57768" lon="3.04339">
        <ele>224.9</ele>
        <time>2014-02-20T09:44:40.492Z</time>
      </trkpt>
      <trkpt lat="43.57765" lon="3.04346">
        <ele>224.8</ele>
        <time>2014-02-20T09:44:41.491Z</time>
      </trkpt>
      <trkpt lat="43.57763" lon="3.04351">
        <ele>225.8</ele>
        <time>2014-02-20T09:44:42.488Z</time>
      </trkpt>
      <trkpt lat="43.57758" lon="3.04362">
        <ele>226.7</ele>
        <time>2014-02-20T09:44:44.487Z</time>
      </trkpt>
      <trkpt lat="43.57757" lon="3.04367">
        <ele>227</ele>
        <time>2014-02-20T09:44:45.494Z</time>
      </trkpt>
      <trkpt lat="43.57757" lon="3.04375">
        <ele>228.1</ele>
        <time>2014-02-20T09:44:47.494Z</time>
      </trkpt>
      <trkpt lat="43.57757" lon="3.0438">
        <ele>228.8</ele>
        <time>2014-02-20T09:44:48.496Z</time>
      </trkpt>
      <trkpt lat="43.57754" lon="3.04388">
        <ele>230</ele>
        <time>2014-02-20T09:44:50.499Z</time>
      </trkpt>
      <trkpt lat="43.57752" lon="3.04391">
        <ele>230</ele>
        <time>2014-02-20T09:44:51.496Z</time>
      </trkpt>
      <trkpt lat="43.57748" lon="3.04399">
        <ele>229.6</ele>
        <time>2014-02-20T09:44:53.498Z</time>
      </trkpt>
      <trkpt lat="43.57746" lon="3.04402">
        <ele>229.6</ele>
        <time>2014-02-20T09:44:54.492Z</time>
      </trkpt>
      <trkpt lat="43.57745" lon="3.04414">
        <ele>226.5</ele>
        <time>2014-02-20T09:44:57.494Z</time>
      </trkpt>
      <trkpt lat="43.57744" lon="3.04416">
        <ele>225.3</ele>
        <time>2014-02-20T09:44:58.493Z</time>
      </trkpt>
      <trkpt lat="43.57746" lon="3.04425">
        <ele>223.4</ele>
        <time>2014-02-20T09:45:01.494Z</time>
      </trkpt>
      <trkpt lat="43.57748" lon="3.04429">
        <ele>222.7</ele>
        <time>2014-02-20T09:45:02.495Z</time>
      </trkpt>
      <trkpt lat="43.57752" lon="3.04439">
        <ele>223.1</ele>
        <time>2014-02-20T09:45:04.494Z</time>
      </trkpt>
      <trkpt lat="43.57753" lon="3.04445">
        <ele>223.4</ele>
        <time>2014-02-20T09:45:05.495Z</time>
      </trkpt>
      <trkpt lat="43.57753" lon="3.04454">
        <ele>223.4</ele>
        <time>2014-02-20T09:45:07.490Z</time>
      </trkpt>
      <trkpt lat="43.57751" lon="3.04461">
        <ele>223</ele>
        <time>2014-02-20T09:45:08.490Z</time>
      </trkpt>
      <trkpt lat="43.57747" lon="3.04469">
        <ele>223</ele>
        <time>2014-02-20T09:45:09.488Z</time>
      </trkpt>
      <trkpt lat="43.57743" lon="3.04477">
        <ele>224.3</ele>
        <time>2014-02-20T09:45:10.489Z</time>
      </trkpt>
      <trkpt lat="43.57739" lon="3.04485">
        <ele>223.8</ele>
        <time>2014-02-20T09:45:11.490Z</time>
      </trkpt>
      <trkpt lat="43.57734" lon="3.04492">
        <ele>223.5</ele>
        <time>2014-02-20T09:45:12.489Z</time>
      </trkpt>
      <trkpt lat="43.57731" lon="3.04498">
        <ele>224</ele>
        <time>2014-02-20T09:45:13.491Z</time>
      </trkpt>
      <trkpt lat="43.57729" lon="3.04504">
        <ele>224.1</ele>
        <time>2014-02-20T09:45:14.490Z</time>
      </trkpt>
      <trkpt lat="43.57725" lon="3.04513">
        <ele>224.7</ele>
        <time>2014-02-20T09:45:16.490Z</time>
      </trkpt>
      <trkpt lat="43.57723" lon="3.04518">
        <ele>223.8</ele>
        <time>2014-02-20T09:45:17.498Z</time>
      </trkpt>
      <trkpt lat="43.5772" lon="3.04524">
        <ele>223.9</ele>
        <time>2014-02-20T09:45:18.489Z</time>
      </trkpt>
      <trkpt lat="43.57718" lon="3.04529">
        <ele>223.7</ele>
        <time>2014-02-20T09:45:19.490Z</time>
      </trkpt>
      <trkpt lat="43.57714" lon="3.04537">
        <ele>223.8</ele>
        <time>2014-02-20T09:45:21.489Z</time>
      </trkpt>
      <trkpt lat="43.57712" lon="3.04541">
        <ele>224.1</ele>
        <time>2014-02-20T09:45:22.492Z</time>
      </trkpt>
      <trkpt lat="43.57708" lon="3.04549">
        <ele>224.4</ele>
        <time>2014-02-20T09:45:24.487Z</time>
      </trkpt>
      <trkpt lat="43.57708" lon="3.04554">
        <ele>224.3</ele>
        <time>2014-02-20T09:45:25.488Z</time>
      </trkpt>
      <trkpt lat="43.57706" lon="3.04566">
        <ele>224.2</ele>
        <time>2014-02-20T09:45:27.487Z</time>
      </trkpt>
      <trkpt lat="43.57705" lon="3.04572">
        <ele>223.6</ele>
        <time>2014-02-20T09:45:28.490Z</time>
      </trkpt>
      <trkpt lat="43.57703" lon="3.04578">
        <ele>223.5</ele>
        <time>2014-02-20T09:45:29.490Z</time>
      </trkpt>
      <trkpt lat="43.57702" lon="3.04585">
        <ele>223.7</ele>
        <time>2014-02-20T09:45:30.487Z</time>
      </trkpt>
      <trkpt lat="43.57701" lon="3.04596">
        <ele>224.3</ele>
        <time>2014-02-20T09:45:32.491Z</time>
      </trkpt>
      <trkpt lat="43.57701" lon="3.04601">
        <ele>224.5</ele>
        <time>2014-02-20T09:45:33.488Z</time>
      </trkpt>
      <trkpt lat="43.57701" lon="3.04611">
        <ele>224.3</ele>
        <time>2014-02-20T09:45:35.490Z</time>
      </trkpt>
      <trkpt lat="43.57701" lon="3.04615">
        <ele>224.4</ele>
        <time>2014-02-20T09:45:36.488Z</time>
      </trkpt>
      <trkpt lat="43.57701" lon="3.04625">
        <ele>224.7</ele>
        <time>2014-02-20T09:45:38.490Z</time>
      </trkpt>
      <trkpt lat="43.57702" lon="3.04631">
        <ele>224</ele>
        <time>2014-02-20T09:45:39.490Z</time>
      </trkpt>
      <trkpt lat="43.57702" lon="3.04642">
        <ele>223.5</ele>
        <time>2014-02-20T09:45:41.490Z</time>
      </trkpt>
      <trkpt lat="43.57702" lon="3.04649">
        <ele>224</ele>
        <time>2014-02-20T09:45:42.488Z</time>
      </trkpt>
      <trkpt lat="43.57702" lon="3.0466">
        <ele>223.3</ele>
        <time>2014-02-20T09:45:44.491Z</time>
      </trkpt>
      <trkpt lat="43.57702" lon="3.04666">
        <ele>223.2</ele>
        <time>2014-02-20T09:45:45.488Z</time>
      </trkpt>
      <trkpt lat="43.57702" lon="3.04676">
        <ele>223.2</ele>
        <time>2014-02-20T09:45:47.495Z</time>
      </trkpt>
      <trkpt lat="43.57701" lon="3.04681">
        <ele>222.8</ele>
        <time>2014-02-20T09:45:48.488Z</time>
      </trkpt>
      <trkpt lat="43.57699" lon="3.04691">
        <ele>221.9</ele>
        <time>2014-02-20T09:45:50.489Z</time>
      </trkpt>
      <trkpt lat="43.57696" lon="3.04698">
        <ele>222</ele>
        <time>2014-02-20T09:45:51.490Z</time>
      </trkpt>
      <trkpt lat="43.57696" lon="3.04706">
        <ele>222.1</ele>
        <time>2014-02-20T09:45:52.492Z</time>
      </trkpt>
      <trkpt lat="43.57694" lon="3.04714">
        <ele>222.2</ele>
        <time>2014-02-20T09:45:53.493Z</time>
      </trkpt>
      <trkpt lat="43.57692" lon="3.04721">
        <ele>222.2</ele>
        <time>2014-02-20T09:45:54.489Z</time>
      </trkpt>
      <trkpt lat="43.5769" lon="3.04728">
        <ele>222</ele>
        <time>2014-02-20T09:45:55.487Z</time>
      </trkpt>
      <trkpt lat="43.5769" lon="3.04738">
        <ele>222.4</ele>
        <time>2014-02-20T09:45:57.486Z</time>
      </trkpt>
      <trkpt lat="43.57689" lon="3.04745">
        <ele>222.9</ele>
        <time>2014-02-20T09:45:58.489Z</time>
      </trkpt>
      <trkpt lat="43.57689" lon="3.04752">
        <ele>223.4</ele>
        <time>2014-02-20T09:45:59.488Z</time>
      </trkpt>
      <trkpt lat="43.57689" lon="3.0476">
        <ele>223.9</ele>
        <time>2014-02-20T09:46:00.485Z</time>
      </trkpt>
      <trkpt lat="43.5769" lon="3.04767">
        <ele>223.7</ele>
        <time>2014-02-20T09:46:01.491Z</time>
      </trkpt>
      <trkpt lat="43.57689" lon="3.04775">
        <ele>223.9</ele>
        <time>2014-02-20T09:46:03.447Z</time>
      </trkpt>
      <trkpt lat="43.5769" lon="3.04785">
        <ele>224.3</ele>
        <time>2014-02-20T09:46:04.484Z</time>
      </trkpt>
      <trkpt lat="43.57692" lon="3.04794">
        <ele>224.8</ele>
        <time>2014-02-20T09:46:05.490Z</time>
      </trkpt>
      <trkpt lat="43.57694" lon="3.04801">
        <ele>225.3</ele>
        <time>2014-02-20T09:46:06.490Z</time>
      </trkpt>
      <trkpt lat="43.57696" lon="3.04807">
        <ele>225.2</ele>
        <time>2014-02-20T09:46:07.490Z</time>
      </trkpt>
      <trkpt lat="43.57699" lon="3.04818">
        <ele>225.3</ele>
        <time>2014-02-20T09:46:09.489Z</time>
      </trkpt>
      <trkpt lat="43.57701" lon="3.04824">
        <ele>225.6</ele>
        <time>2014-02-20T09:46:10.491Z</time>
      </trkpt>
      <trkpt lat="43.57701" lon="3.04834">
        <ele>224.7</ele>
        <time>2014-02-20T09:46:12.488Z</time>
      </trkpt>
      <trkpt lat="43.57703" lon="3.04839">
        <ele>224.2</ele>
        <time>2014-02-20T09:46:13.486Z</time>
      </trkpt>
      <trkpt lat="43.57704" lon="3.04845">
        <ele>223.7</ele>
        <time>2014-02-20T09:46:14.488Z</time>
      </trkpt>
      <trkpt lat="43.57703" lon="3.04851">
        <ele>225.1</ele>
        <time>2014-02-20T09:46:15.486Z</time>
      </trkpt>
      <trkpt lat="43.57704" lon="3.04862">
        <ele>224.6</ele>
        <time>2014-02-20T09:46:18.482Z</time>
      </trkpt>
      <trkpt lat="43.57706" lon="3.04868">
        <ele>224.6</ele>
        <time>2014-02-20T09:46:19.486Z</time>
      </trkpt>
      <trkpt lat="43.57707" lon="3.04874">
        <ele>224.5</ele>
        <time>2014-02-20T09:46:20.487Z</time>
      </trkpt>
      <trkpt lat="43.57708" lon="3.04881">
        <ele>224.3</ele>
        <time>2014-02-20T09:46:21.498Z</time>
      </trkpt>
      <trkpt lat="43.57709" lon="3.04891">
        <ele>225.2</ele>
        <time>2014-02-20T09:46:23.491Z</time>
      </trkpt>
      <trkpt lat="43.5771" lon="3.04895">
        <ele>225.3</ele>
        <time>2014-02-20T09:46:24.489Z</time>
      </trkpt>
      <trkpt lat="43.57713" lon="3.04906">
        <ele>225.8</ele>
        <time>2014-02-20T09:46:26.490Z</time>
      </trkpt>
      <trkpt lat="43.57714" lon="3.04911">
        <ele>226</ele>
        <time>2014-02-20T09:46:27.485Z</time>
      </trkpt>
      <trkpt lat="43.57718" lon="3.0492">
        <ele>226</ele>
        <time>2014-02-20T09:46:29.491Z</time>
      </trkpt>
      <trkpt lat="43.5772" lon="3.04924">
        <ele>225.5</ele>
        <time>2014-02-20T09:46:30.493Z</time>
      </trkpt>
      <trkpt lat="43.57722" lon="3.0493">
        <ele>225.1</ele>
        <time>2014-02-20T09:46:31.491Z</time>
      </trkpt>
      <trkpt lat="43.57724" lon="3.04937">
        <ele>223.8</ele>
        <time>2014-02-20T09:46:32.491Z</time>
      </trkpt>
      <trkpt lat="43.57726" lon="3.04944">
        <ele>224.2</ele>
        <time>2014-02-20T09:46:33.490Z</time>
      </trkpt>
      <trkpt lat="43.57728" lon="3.04952">
        <ele>224.4</ele>
        <time>2014-02-20T09:46:34.494Z</time>
      </trkpt>
      <trkpt lat="43.5773" lon="3.04958">
        <ele>224.4</ele>
        <time>2014-02-20T09:46:35.489Z</time>
      </trkpt>
      <trkpt lat="43.57732" lon="3.04964">
        <ele>225.3</ele>
        <time>2014-02-20T09:46:36.489Z</time>
      </trkpt>
      <trkpt lat="43.57735" lon="3.0497">
        <ele>225.8</ele>
        <time>2014-02-20T09:46:37.490Z</time>
      </trkpt>
      <trkpt lat="43.57737" lon="3.04976">
        <ele>225</ele>
        <time>2014-02-20T09:46:38.485Z</time>
      </trkpt>
      <trkpt lat="43.57741" lon="3.04987">
        <ele>223.9</ele>
        <time>2014-02-20T09:46:40.486Z</time>
      </trkpt>
      <trkpt lat="43.57742" lon="3.04992">
        <ele>223.2</ele>
        <time>2014-02-20T09:46:41.808Z</time>
      </trkpt>
      <trkpt lat="43.57747" lon="3.05001">
        <ele>223.2</ele>
        <time>2014-02-20T09:46:43.491Z</time>
      </trkpt>
      <trkpt lat="43.57751" lon="3.05006">
        <ele>223.3</ele>
        <time>2014-02-20T09:46:44.490Z</time>
      </trkpt>
      <trkpt lat="43.57756" lon="3.05016">
        <ele>223.4</ele>
        <time>2014-02-20T09:46:46.489Z</time>
      </trkpt>
      <trkpt lat="43.57758" lon="3.05021">
        <ele>223.3</ele>
        <time>2014-02-20T09:46:47.493Z</time>
      </trkpt>
      <trkpt lat="43.5776" lon="3.05027">
        <ele>222.9</ele>
        <time>2014-02-20T09:46:48.491Z</time>
      </trkpt>
      <trkpt lat="43.57762" lon="3.05033">
        <ele>223.4</ele>
        <time>2014-02-20T09:46:49.501Z</time>
      </trkpt>
      <trkpt lat="43.57767" lon="3.05049">
        <ele>222.9</ele>
        <time>2014-02-20T09:46:52.494Z</time>
      </trkpt>
      <trkpt lat="43.5777" lon="3.05053">
        <ele>223</ele>
        <time>2014-02-20T09:46:53.499Z</time>
      </trkpt>
      <trkpt lat="43.57772" lon="3.0506">
        <ele>222.8</ele>
        <time>2014-02-20T09:46:54.496Z</time>
      </trkpt>
      <trkpt lat="43.57774" lon="3.05069">
        <ele>222.6</ele>
        <time>2014-02-20T09:46:56.915Z</time>
      </trkpt>
      <trkpt lat="43.57776" lon="3.05074">
        <ele>222</ele>
        <time>2014-02-20T09:46:57.490Z</time>
      </trkpt>
      <trkpt lat="43.57778" lon="3.05081">
        <ele>221.4</ele>
        <time>2014-02-20T09:46:58.495Z</time>
      </trkpt>
      <trkpt lat="43.57779" lon="3.05087">
        <ele>221</ele>
        <time>2014-02-20T09:46:59.495Z</time>
      </trkpt>
      <trkpt lat="43.57782" lon="3.05098">
        <ele>220.2</ele>
        <time>2014-02-20T09:47:01.495Z</time>
      </trkpt>
      <trkpt lat="43.57785" lon="3.05104">
        <ele>220</ele>
        <time>2014-02-20T09:47:02.496Z</time>
      </trkpt>
      <trkpt lat="43.57788" lon="3.0511">
        <ele>220</ele>
        <time>2014-02-20T09:47:03.492Z</time>
      </trkpt>
      <trkpt lat="43.57794" lon="3.05115">
        <ele>220.2</ele>
        <time>2014-02-20T09:47:04.495Z</time>
      </trkpt>
      <trkpt lat="43.57801" lon="3.05119">
        <ele>220.9</ele>
        <time>2014-02-20T09:47:05.498Z</time>
      </trkpt>
      <trkpt lat="43.57806" lon="3.05123">
        <ele>220.8</ele>
        <time>2014-02-20T09:47:06.489Z</time>
      </trkpt>
      <trkpt lat="43.57811" lon="3.05131">
        <ele>220</ele>
        <time>2014-02-20T09:47:08.497Z</time>
      </trkpt>
      <trkpt lat="43.57812" lon="3.05136">
        <ele>220.1</ele>
        <time>2014-02-20T09:47:09.491Z</time>
      </trkpt>
      <trkpt lat="43.57817" lon="3.05146">
        <ele>222.6</ele>
        <time>2014-02-20T09:47:11.489Z</time>
      </trkpt>
      <trkpt lat="43.5782" lon="3.05151">
        <ele>222.7</ele>
        <time>2014-02-20T09:47:13.270Z</time>
      </trkpt>
      <trkpt lat="43.57826" lon="3.05157">
        <ele>222.9</ele>
        <time>2014-02-20T09:47:15.489Z</time>
      </trkpt>
      <trkpt lat="43.57829" lon="3.05162">
        <ele>224.7</ele>
        <time>2014-02-20T09:47:16.491Z</time>
      </trkpt>
      <trkpt lat="43.57832" lon="3.05168">
        <ele>226.3</ele>
        <time>2014-02-20T09:47:17.490Z</time>
      </trkpt>
      <trkpt lat="43.57834" lon="3.05174">
        <ele>226.4</ele>
        <time>2014-02-20T09:47:18.487Z</time>
      </trkpt>
      <trkpt lat="43.57837" lon="3.05179">
        <ele>227.9</ele>
        <time>2014-02-20T09:47:19.491Z</time>
      </trkpt>
      <trkpt lat="43.57839" lon="3.05185">
        <ele>228.7</ele>
        <time>2014-02-20T09:47:20.489Z</time>
      </trkpt>
      <trkpt lat="43.57842" lon="3.0519">
        <ele>229.4</ele>
        <time>2014-02-20T09:47:21.488Z</time>
      </trkpt>
      <trkpt lat="43.57844" lon="3.05196">
        <ele>230.1</ele>
        <time>2014-02-20T09:47:22.489Z</time>
      </trkpt>
      <trkpt lat="43.57845" lon="3.05202">
        <ele>230</ele>
        <time>2014-02-20T09:47:23.489Z</time>
      </trkpt>
      <trkpt lat="43.57846" lon="3.05209">
        <ele>229.5</ele>
        <time>2014-02-20T09:47:24.486Z</time>
      </trkpt>
      <trkpt lat="43.57846" lon="3.05217">
        <ele>228.7</ele>
        <time>2014-02-20T09:47:25.487Z</time>
      </trkpt>
      <trkpt lat="43.57848" lon="3.05223">
        <ele>228.4</ele>
        <time>2014-02-20T09:47:26.488Z</time>
      </trkpt>
      <trkpt lat="43.57851" lon="3.0523">
        <ele>229.1</ele>
        <time>2014-02-20T09:47:27.492Z</time>
      </trkpt>
      <trkpt lat="43.57853" lon="3.05236">
        <ele>229.3</ele>
        <time>2014-02-20T09:47:28.488Z</time>
      </trkpt>
      <trkpt lat="43.57855" lon="3.05243">
        <ele>228.9</ele>
        <time>2014-02-20T09:47:29.486Z</time>
      </trkpt>
      <trkpt lat="43.57858" lon="3.0525">
        <ele>230</ele>
        <time>2014-02-20T09:47:30.485Z</time>
      </trkpt>
      <trkpt lat="43.5786" lon="3.05256">
        <ele>230.3</ele>
        <time>2014-02-20T09:47:31.489Z</time>
      </trkpt>
      <trkpt lat="43.57862" lon="3.05261">
        <ele>231.1</ele>
        <time>2014-02-20T09:47:32.487Z</time>
      </trkpt>
      <trkpt lat="43.57863" lon="3.05267">
        <ele>230</ele>
        <time>2014-02-20T09:47:33.487Z</time>
      </trkpt>
      <trkpt lat="43.57865" lon="3.05273">
        <ele>230.2</ele>
        <time>2014-02-20T09:47:34.489Z</time>
      </trkpt>
      <trkpt lat="43.57866" lon="3.05279">
        <ele>231.8</ele>
        <time>2014-02-20T09:47:35.487Z</time>
      </trkpt>
      <trkpt lat="43.57869" lon="3.05288">
        <ele>227.4</ele>
        <time>2014-02-20T09:47:36.486Z</time>
      </trkpt>
      <trkpt lat="43.57872" lon="3.05295">
        <ele>226.3</ele>
        <time>2014-02-20T09:47:37.487Z</time>
      </trkpt>
      <trkpt lat="43.57875" lon="3.05302">
        <ele>226.9</ele>
        <time>2014-02-20T09:47:38.487Z</time>
      </trkpt>
      <trkpt lat="43.57878" lon="3.05312">
        <ele>227.6</ele>
        <time>2014-02-20T09:47:40.486Z</time>
      </trkpt>
      <trkpt lat="43.57879" lon="3.05318">
        <ele>227.3</ele>
        <time>2014-02-20T09:47:41.487Z</time>
      </trkpt>
      <trkpt lat="43.57882" lon="3.05329">
        <ele>227.6</ele>
        <time>2014-02-20T09:47:43.487Z</time>
      </trkpt>
      <trkpt lat="43.57884" lon="3.05333">
        <ele>227.7</ele>
        <time>2014-02-20T09:47:44.488Z</time>
      </trkpt>
      <trkpt lat="43.57887" lon="3.05342">
        <ele>226.9</ele>
        <time>2014-02-20T09:47:46.487Z</time>
      </trkpt>
      <trkpt lat="43.57887" lon="3.05346">
        <ele>227</ele>
        <time>2014-02-20T09:47:47.489Z</time>
      </trkpt>
      <trkpt lat="43.5789" lon="3.05356">
        <ele>226.3</ele>
        <time>2014-02-20T09:47:49.489Z</time>
      </trkpt>
      <trkpt lat="43.57891" lon="3.05361">
        <ele>226.4</ele>
        <time>2014-02-20T09:47:50.490Z</time>
      </trkpt>
      <trkpt lat="43.57891" lon="3.05368">
        <ele>226.5</ele>
        <time>2014-02-20T09:47:51.486Z</time>
      </trkpt>
      <trkpt lat="43.57891" lon="3.05376">
        <ele>225.9</ele>
        <time>2014-02-20T09:47:52.541Z</time>
      </trkpt>
      <trkpt lat="43.57891" lon="3.05382">
        <ele>226</ele>
        <time>2014-02-20T09:47:53.489Z</time>
      </trkpt>
      <trkpt lat="43.57892" lon="3.0539">
        <ele>225.8</ele>
        <time>2014-02-20T09:47:54.485Z</time>
      </trkpt>
      <trkpt lat="43.57893" lon="3.05398">
        <ele>225.9</ele>
        <time>2014-02-20T09:47:55.487Z</time>
      </trkpt>
      <trkpt lat="43.57894" lon="3.05404">
        <ele>225.3</ele>
        <time>2014-02-20T09:47:56.487Z</time>
      </trkpt>
      <trkpt lat="43.57895" lon="3.05411">
        <ele>225.6</ele>
        <time>2014-02-20T09:47:57.485Z</time>
      </trkpt>
      <trkpt lat="43.57896" lon="3.05418">
        <ele>225.8</ele>
        <time>2014-02-20T09:47:58.486Z</time>
      </trkpt>
      <trkpt lat="43.579" lon="3.05428">
        <ele>227.8</ele>
        <time>2014-02-20T09:48:00.484Z</time>
      </trkpt>
      <trkpt lat="43.57901" lon="3.05434">
        <ele>228.1</ele>
        <time>2014-02-20T09:48:01.487Z</time>
      </trkpt>
      <trkpt lat="43.57902" lon="3.05445">
        <ele>229.2</ele>
        <time>2014-02-20T09:48:03.485Z</time>
      </trkpt>
      <trkpt lat="43.57903" lon="3.05451">
        <ele>229.5</ele>
        <time>2014-02-20T09:48:04.487Z</time>
      </trkpt>
      <trkpt lat="43.57904" lon="3.05457">
        <ele>229.7</ele>
        <time>2014-02-20T09:48:05.488Z</time>
      </trkpt>
      <trkpt lat="43.57906" lon="3.05463">
        <ele>230</ele>
        <time>2014-02-20T09:48:06.485Z</time>
      </trkpt>
      <trkpt lat="43.57908" lon="3.05469">
        <ele>231</ele>
        <time>2014-02-20T09:48:07.492Z</time>
      </trkpt>
      <trkpt lat="43.57909" lon="3.05475">
        <ele>231</ele>
        <time>2014-02-20T09:48:08.487Z</time>
      </trkpt>
      <trkpt lat="43.57911" lon="3.05486">
        <ele>232.1</ele>
        <time>2014-02-20T09:48:10.491Z</time>
      </trkpt>
      <trkpt lat="43.5791" lon="3.05492">
        <ele>232.1</ele>
        <time>2014-02-20T09:48:11.491Z</time>
      </trkpt>
      <trkpt lat="43.57912" lon="3.05498">
        <ele>231.4</ele>
        <time>2014-02-20T09:48:12.489Z</time>
      </trkpt>
      <trkpt lat="43.57913" lon="3.05505">
        <ele>230.7</ele>
        <time>2014-02-20T09:48:13.487Z</time>
      </trkpt>
      <trkpt lat="43.57915" lon="3.05516">
        <ele>230.4</ele>
        <time>2014-02-20T09:48:15.485Z</time>
      </trkpt>
      <trkpt lat="43.57917" lon="3.05525">
        <ele>231.5</ele>
        <time>2014-02-20T09:48:16.486Z</time>
      </trkpt>
      <trkpt lat="43.57919" lon="3.05531">
        <ele>230.9</ele>
        <time>2014-02-20T09:48:17.488Z</time>
      </trkpt>
      <trkpt lat="43.5792" lon="3.05539">
        <ele>230.7</ele>
        <time>2014-02-20T09:48:18.969Z</time>
      </trkpt>
      <trkpt lat="43.57921" lon="3.05543">
        <ele>230.8</ele>
        <time>2014-02-20T09:48:19.494Z</time>
      </trkpt>
      <trkpt lat="43.57923" lon="3.05551">
        <ele>230.8</ele>
        <time>2014-02-20T09:48:20.491Z</time>
      </trkpt>
      <trkpt lat="43.57924" lon="3.05558">
        <ele>231.3</ele>
        <time>2014-02-20T09:48:21.490Z</time>
      </trkpt>
      <trkpt lat="43.57926" lon="3.05564">
        <ele>230.5</ele>
        <time>2014-02-20T09:48:22.490Z</time>
      </trkpt>
      <trkpt lat="43.57928" lon="3.05575">
        <ele>229</ele>
        <time>2014-02-20T09:48:24.491Z</time>
      </trkpt>
      <trkpt lat="43.5793" lon="3.0558">
        <ele>227.9</ele>
        <time>2014-02-20T09:48:25.497Z</time>
      </trkpt>
      <trkpt lat="43.57934" lon="3.0559">
        <ele>226.8</ele>
        <time>2014-02-20T09:48:27.493Z</time>
      </trkpt>
      <trkpt lat="43.57935" lon="3.05596">
        <ele>226</ele>
        <time>2014-02-20T09:48:28.494Z</time>
      </trkpt>
      <trkpt lat="43.57935" lon="3.05606">
        <ele>224.8</ele>
        <time>2014-02-20T09:48:30.499Z</time>
      </trkpt>
      <trkpt lat="43.57936" lon="3.05612">
        <ele>224.5</ele>
        <time>2014-02-20T09:48:31.494Z</time>
      </trkpt>
      <trkpt lat="43.57937" lon="3.0562">
        <ele>224.1</ele>
        <time>2014-02-20T09:48:33.495Z</time>
      </trkpt>
      <trkpt lat="43.57939" lon="3.05624">
        <ele>224.4</ele>
        <time>2014-02-20T09:48:34.574Z</time>
      </trkpt>
      <trkpt lat="43.57941" lon="3.05631">
        <ele>223.8</ele>
        <time>2014-02-20T09:48:36.495Z</time>
      </trkpt>
      <trkpt lat="43.57943" lon="3.05635">
        <ele>224</ele>
        <time>2014-02-20T09:48:37.491Z</time>
      </trkpt>
      <trkpt lat="43.57947" lon="3.05642">
        <ele>225.3</ele>
        <time>2014-02-20T09:48:38.488Z</time>
      </trkpt>
      <trkpt lat="43.5795" lon="3.05648">
        <ele>225.8</ele>
        <time>2014-02-20T09:48:39.486Z</time>
      </trkpt>
      <trkpt lat="43.57951" lon="3.05659">
        <ele>223.9</ele>
        <time>2014-02-20T09:48:41.484Z</time>
      </trkpt>
      <trkpt lat="43.57952" lon="3.05665">
        <ele>224.1</ele>
        <time>2014-02-20T09:48:42.493Z</time>
      </trkpt>
      <trkpt lat="43.57954" lon="3.05674">
        <ele>224.4</ele>
        <time>2014-02-20T09:48:44.490Z</time>
      </trkpt>
      <trkpt lat="43.57956" lon="3.05679">
        <ele>224</ele>
        <time>2014-02-20T09:48:45.489Z</time>
      </trkpt>
      <trkpt lat="43.57959" lon="3.0569">
        <ele>224.7</ele>
        <time>2014-02-20T09:48:48.496Z</time>
      </trkpt>
      <trkpt lat="43.5796" lon="3.05693">
        <ele>225.1</ele>
        <time>2014-02-20T09:48:49.497Z</time>
      </trkpt>
      <trkpt lat="43.57963" lon="3.05701">
        <ele>224.8</ele>
        <time>2014-02-20T09:48:51.497Z</time>
      </trkpt>
      <trkpt lat="43.57964" lon="3.05704">
        <ele>224.7</ele>
        <time>2014-02-20T09:48:52.496Z</time>
      </trkpt>
      <trkpt lat="43.57966" lon="3.05711">
        <ele>224.2</ele>
        <time>2014-02-20T09:48:54.497Z</time>
      </trkpt>
      <trkpt lat="43.57968" lon="3.05716">
        <ele>224.9</ele>
        <time>2014-02-20T09:48:55.496Z</time>
      </trkpt>
      <trkpt lat="43.57971" lon="3.05724">
        <ele>224.7</ele>
        <time>2014-02-20T09:48:57.496Z</time>
      </trkpt>
      <trkpt lat="43.57973" lon="3.05728">
        <ele>224.9</ele>
        <time>2014-02-20T09:48:58.495Z</time>
      </trkpt>
      <trkpt lat="43.57975" lon="3.05733">
        <ele>225.3</ele>
        <time>2014-02-20T09:48:59.497Z</time>
      </trkpt>
      <trkpt lat="43.57978" lon="3.05739">
        <ele>225.3</ele>
        <time>2014-02-20T09:49:00.495Z</time>
      </trkpt>
      <trkpt lat="43.5798" lon="3.05744">
        <ele>225.5</ele>
        <time>2014-02-20T09:49:01.498Z</time>
      </trkpt>
      <trkpt lat="43.57983" lon="3.0575">
        <ele>225.2</ele>
        <time>2014-02-20T09:49:02.497Z</time>
      </trkpt>
      <trkpt lat="43.57988" lon="3.05761">
        <ele>224.3</ele>
        <time>2014-02-20T09:49:04.496Z</time>
      </trkpt>
      <trkpt lat="43.57989" lon="3.05766">
        <ele>224.2</ele>
        <time>2014-02-20T09:49:05.494Z</time>
      </trkpt>
      <trkpt lat="43.57994" lon="3.05776">
        <ele>223.4</ele>
        <time>2014-02-20T09:49:08.491Z</time>
      </trkpt>
      <trkpt lat="43.57994" lon="3.0578">
        <ele>223.4</ele>
        <time>2014-02-20T09:49:09.490Z</time>
      </trkpt>
      <trkpt lat="43.57997" lon="3.05789">
        <ele>222.7</ele>
        <time>2014-02-20T09:49:11.490Z</time>
      </trkpt>
      <trkpt lat="43.57998" lon="3.05794">
        <ele>222.7</ele>
        <time>2014-02-20T09:49:12.490Z</time>
      </trkpt>
      <trkpt lat="43.58001" lon="3.05803">
        <ele>223.8</ele>
        <time>2014-02-20T09:49:14.491Z</time>
      </trkpt>
      <trkpt lat="43.58003" lon="3.05807">
        <ele>223.5</ele>
        <time>2014-02-20T09:49:15.490Z</time>
      </trkpt>
      <trkpt lat="43.58006" lon="3.05814">
        <ele>224.4</ele>
        <time>2014-02-20T09:49:17.491Z</time>
      </trkpt>
      <trkpt lat="43.58009" lon="3.05817">
        <ele>224.7</ele>
        <time>2014-02-20T09:49:18.490Z</time>
      </trkpt>
      <trkpt lat="43.58012" lon="3.05825">
        <ele>224.7</ele>
        <time>2014-02-20T09:49:20.491Z</time>
      </trkpt>
      <trkpt lat="43.58013" lon="3.05828">
        <ele>224.7</ele>
        <time>2014-02-20T09:49:21.490Z</time>
      </trkpt>
      <trkpt lat="43.58015" lon="3.05837">
        <ele>223.9</ele>
        <time>2014-02-20T09:49:23.491Z</time>
      </trkpt>
      <trkpt lat="43.58017" lon="3.05842">
        <ele>224.5</ele>
        <time>2014-02-20T09:49:24.490Z</time>
      </trkpt>
      <trkpt lat="43.58023" lon="3.0585">
        <ele>225.5</ele>
        <time>2014-02-20T09:49:26.493Z</time>
      </trkpt>
      <trkpt lat="43.58025" lon="3.05854">
        <ele>225.1</ele>
        <time>2014-02-20T09:49:27.489Z</time>
      </trkpt>
      <trkpt lat="43.58028" lon="3.05866">
        <ele>224.9</ele>
        <time>2014-02-20T09:49:29.490Z</time>
      </trkpt>
      <trkpt lat="43.58029" lon="3.05871">
        <ele>224.7</ele>
        <time>2014-02-20T09:49:30.489Z</time>
      </trkpt>
      <trkpt lat="43.58029" lon="3.05881">
        <ele>224.5</ele>
        <time>2014-02-20T09:49:32.492Z</time>
      </trkpt>
      <trkpt lat="43.58029" lon="3.05886">
        <ele>224.3</ele>
        <time>2014-02-20T09:49:33.499Z</time>
      </trkpt>
      <trkpt lat="43.58029" lon="3.05897">
        <ele>225.4</ele>
        <time>2014-02-20T09:49:35.490Z</time>
      </trkpt>
      <trkpt lat="43.58029" lon="3.05902">
        <ele>225.8</ele>
        <time>2014-02-20T09:49:36.490Z</time>
      </trkpt>
      <trkpt lat="43.5803" lon="3.05913">
        <ele>226.6</ele>
        <time>2014-02-20T09:49:38.490Z</time>
      </trkpt>
      <trkpt lat="43.58031" lon="3.05918">
        <ele>227</ele>
        <time>2014-02-20T09:49:39.489Z</time>
      </trkpt>
      <trkpt lat="43.58032" lon="3.05926">
        <ele>227.2</ele>
        <time>2014-02-20T09:49:41.529Z</time>
      </trkpt>
      <trkpt lat="43.58034" lon="3.0593">
        <ele>227.3</ele>
        <time>2014-02-20T09:49:42.490Z</time>
      </trkpt>
      <trkpt lat="43.58036" lon="3.05938">
        <ele>227.2</ele>
        <time>2014-02-20T09:49:44.493Z</time>
      </trkpt>
      <trkpt lat="43.58036" lon="3.05942">
        <ele>227.3</ele>
        <time>2014-02-20T09:49:45.489Z</time>
      </trkpt>
      <trkpt lat="43.58037" lon="3.05952">
        <ele>227</ele>
        <time>2014-02-20T09:49:47.491Z</time>
      </trkpt>
      <trkpt lat="43.58038" lon="3.05958">
        <ele>226.3</ele>
        <time>2014-02-20T09:49:48.491Z</time>
      </trkpt>
      <trkpt lat="43.5804" lon="3.0597">
        <ele>225.8</ele>
        <time>2014-02-20T09:49:50.492Z</time>
      </trkpt>
      <trkpt lat="43.58041" lon="3.05976">
        <ele>226.2</ele>
        <time>2014-02-20T09:49:51.489Z</time>
      </trkpt>
      <trkpt lat="43.58042" lon="3.05982">
        <ele>225.4</ele>
        <time>2014-02-20T09:49:52.492Z</time>
      </trkpt>
      <trkpt lat="43.58043" lon="3.05989">
        <ele>225.4</ele>
        <time>2014-02-20T09:49:53.491Z</time>
      </trkpt>
      <trkpt lat="43.58045" lon="3.05999">
        <ele>225.9</ele>
        <time>2014-02-20T09:49:54.490Z</time>
      </trkpt>
      <trkpt lat="43.58049" lon="3.0601">
        <ele>226.6</ele>
        <time>2014-02-20T09:49:55.557Z</time>
      </trkpt>
      <trkpt lat="43.5805" lon="3.06019">
        <ele>226.5</ele>
        <time>2014-02-20T09:49:56.491Z</time>
      </trkpt>
      <trkpt lat="43.58052" lon="3.06027">
        <ele>226.2</ele>
        <time>2014-02-20T09:49:57.489Z</time>
      </trkpt>
      <trkpt lat="43.58053" lon="3.06035">
        <ele>226</ele>
        <time>2014-02-20T09:49:58.492Z</time>
      </trkpt>
      <trkpt lat="43.58054" lon="3.06042">
        <ele>225.1</ele>
        <time>2014-02-20T09:49:59.492Z</time>
      </trkpt>
      <trkpt lat="43.58055" lon="3.06049">
        <ele>225.4</ele>
        <time>2014-02-20T09:50:00.484Z</time>
      </trkpt>
      <trkpt lat="43.58057" lon="3.06059">
        <ele>224.8</ele>
        <time>2014-02-20T09:50:02.457Z</time>
      </trkpt>
      <trkpt lat="43.58058" lon="3.06066">
        <ele>224.4</ele>
        <time>2014-02-20T09:50:03.488Z</time>
      </trkpt>
      <trkpt lat="43.58059" lon="3.06072">
        <ele>224.6</ele>
        <time>2014-02-20T09:50:04.490Z</time>
      </trkpt>
      <trkpt lat="43.58061" lon="3.06078">
        <ele>225.1</ele>
        <time>2014-02-20T09:50:05.496Z</time>
      </trkpt>
      <trkpt lat="43.58064" lon="3.06084">
        <ele>225.6</ele>
        <time>2014-02-20T09:50:06.484Z</time>
      </trkpt>
      <trkpt lat="43.58066" lon="3.0609">
        <ele>223.1</ele>
        <time>2014-02-20T09:50:07.486Z</time>
      </trkpt>
      <trkpt lat="43.58068" lon="3.06096">
        <ele>222.2</ele>
        <time>2014-02-20T09:50:08.487Z</time>
      </trkpt>
      <trkpt lat="43.5807" lon="3.06103">
        <ele>222.1</ele>
        <time>2014-02-20T09:50:09.488Z</time>
      </trkpt>
      <trkpt lat="43.5807" lon="3.06109">
        <ele>221.2</ele>
        <time>2014-02-20T09:50:10.488Z</time>
      </trkpt>
      <trkpt lat="43.58071" lon="3.0612">
        <ele>220.9</ele>
        <time>2014-02-20T09:50:12.484Z</time>
      </trkpt>
      <trkpt lat="43.58071" lon="3.06126">
        <ele>220.6</ele>
        <time>2014-02-20T09:50:13.487Z</time>
      </trkpt>
      <trkpt lat="43.58073" lon="3.06137">
        <ele>221</ele>
        <time>2014-02-20T09:50:15.488Z</time>
      </trkpt>
      <trkpt lat="43.58073" lon="3.06143">
        <ele>221</ele>
        <time>2014-02-20T09:50:16.491Z</time>
      </trkpt>
      <trkpt lat="43.58074" lon="3.06149">
        <ele>220.6</ele>
        <time>2014-02-20T09:50:17.491Z</time>
      </trkpt>
      <trkpt lat="43.58075" lon="3.06155">
        <ele>221.4</ele>
        <time>2014-02-20T09:50:18.489Z</time>
      </trkpt>
      <trkpt lat="43.5808" lon="3.06161">
        <ele>219.9</ele>
        <time>2014-02-20T09:50:19.488Z</time>
      </trkpt>
      <trkpt lat="43.58081" lon="3.06167">
        <ele>220.4</ele>
        <time>2014-02-20T09:50:20.487Z</time>
      </trkpt>
      <trkpt lat="43.58085" lon="3.06177">
        <ele>220.5</ele>
        <time>2014-02-20T09:50:22.490Z</time>
      </trkpt>
      <trkpt lat="43.58088" lon="3.06183">
        <ele>220.4</ele>
        <time>2014-02-20T09:50:23.490Z</time>
      </trkpt>
      <trkpt lat="43.5809" lon="3.06188">
        <ele>220.8</ele>
        <time>2014-02-20T09:50:24.487Z</time>
      </trkpt>
      <trkpt lat="43.58093" lon="3.06194">
        <ele>222</ele>
        <time>2014-02-20T09:50:25.488Z</time>
      </trkpt>
      <trkpt lat="43.58094" lon="3.062">
        <ele>222.5</ele>
        <time>2014-02-20T09:50:26.493Z</time>
      </trkpt>
      <trkpt lat="43.58096" lon="3.06206">
        <ele>222.4</ele>
        <time>2014-02-20T09:50:27.487Z</time>
      </trkpt>
      <trkpt lat="43.58098" lon="3.06218">
        <ele>222.8</ele>
        <time>2014-02-20T09:50:29.492Z</time>
      </trkpt>
      <trkpt lat="43.58099" lon="3.06224">
        <ele>223.5</ele>
        <time>2014-02-20T09:50:30.491Z</time>
      </trkpt>
      <trkpt lat="43.58102" lon="3.0623">
        <ele>226.6</ele>
        <time>2014-02-20T09:50:31.492Z</time>
      </trkpt>
      <trkpt lat="43.58103" lon="3.06238">
        <ele>226.1</ele>
        <time>2014-02-20T09:50:32.491Z</time>
      </trkpt>
      <trkpt lat="43.58104" lon="3.06244">
        <ele>226.1</ele>
        <time>2014-02-20T09:50:33.491Z</time>
      </trkpt>
      <trkpt lat="43.58105" lon="3.06251">
        <ele>226.4</ele>
        <time>2014-02-20T09:50:34.491Z</time>
      </trkpt>
      <trkpt lat="43.58109" lon="3.06262">
        <ele>223</ele>
        <time>2014-02-20T09:50:36.511Z</time>
      </trkpt>
      <trkpt lat="43.58111" lon="3.06267">
        <ele>224</ele>
        <time>2014-02-20T09:50:37.498Z</time>
      </trkpt>
      <trkpt lat="43.58114" lon="3.06276">
        <ele>223.2</ele>
        <time>2014-02-20T09:50:39.491Z</time>
      </trkpt>
      <trkpt lat="43.58115" lon="3.06282">
        <ele>222.4</ele>
        <time>2014-02-20T09:50:40.491Z</time>
      </trkpt>
      <trkpt lat="43.58119" lon="3.06293">
        <ele>222.2</ele>
        <time>2014-02-20T09:50:42.491Z</time>
      </trkpt>
      <trkpt lat="43.58122" lon="3.06298">
        <ele>221.8</ele>
        <time>2014-02-20T09:50:43.492Z</time>
      </trkpt>
      <trkpt lat="43.58125" lon="3.06307">
        <ele>220.5</ele>
        <time>2014-02-20T09:50:45.490Z</time>
      </trkpt>
      <trkpt lat="43.58127" lon="3.06311">
        <ele>220.1</ele>
        <time>2014-02-20T09:50:46.491Z</time>
      </trkpt>
      <trkpt lat="43.58131" lon="3.06322">
        <ele>220</ele>
        <time>2014-02-20T09:50:49.493Z</time>
      </trkpt>
      <trkpt lat="43.58134" lon="3.06325">
        <ele>219.8</ele>
        <time>2014-02-20T09:50:50.494Z</time>
      </trkpt>
      <trkpt lat="43.58137" lon="3.06332">
        <ele>219.7</ele>
        <time>2014-02-20T09:50:52.492Z</time>
      </trkpt>
      <trkpt lat="43.5814" lon="3.06336">
        <ele>220.7</ele>
        <time>2014-02-20T09:50:53.493Z</time>
      </trkpt>
      <trkpt lat="43.58143" lon="3.06344">
        <ele>219.5</ele>
        <time>2014-02-20T09:50:55.493Z</time>
      </trkpt>
      <trkpt lat="43.58145" lon="3.06348">
        <ele>218.7</ele>
        <time>2014-02-20T09:50:56.493Z</time>
      </trkpt>
      <trkpt lat="43.58149" lon="3.06356">
        <ele>222.7</ele>
        <time>2014-02-20T09:50:58.493Z</time>
      </trkpt>
      <trkpt lat="43.58151" lon="3.06358">
        <ele>223.6</ele>
        <time>2014-02-20T09:50:59.492Z</time>
      </trkpt>
      <trkpt lat="43.58151" lon="3.0636">
        <ele>225.1</ele>
        <time>2014-02-20T09:51:04.492Z</time>
      </trkpt>
      <trkpt lat="43.58151" lon="3.0636">
        <ele>225.4</ele>
        <time>2014-02-20T09:51:05.492Z</time>
      </trkpt>
      <trkpt lat="43.58151" lon="3.06361">
        <ele>225.5</ele>
        <time>2014-02-20T09:51:13.492Z</time>
      </trkpt>
      <trkpt lat="43.58151" lon="3.06362">
        <ele>225.6</ele>
        <time>2014-02-20T09:51:14.491Z</time>
      </trkpt>
      <trkpt lat="43.58156" lon="3.06369">
        <ele>225.8</ele>
        <time>2014-02-20T09:51:18.491Z</time>
      </trkpt>
      <trkpt lat="43.58159" lon="3.06372">
        <ele>226.3</ele>
        <time>2014-02-20T09:51:19.491Z</time>
      </trkpt>
      <trkpt lat="43.58163" lon="3.06378">
        <ele>226.1</ele>
        <time>2014-02-20T09:51:21.489Z</time>
      </trkpt>
      <trkpt lat="43.58166" lon="3.0638">
        <ele>226.7</ele>
        <time>2014-02-20T09:51:22.492Z</time>
      </trkpt>
      <trkpt lat="43.5817" lon="3.06387">
        <ele>226.8</ele>
        <time>2014-02-20T09:51:24.489Z</time>
      </trkpt>
      <trkpt lat="43.58172" lon="3.0639">
        <ele>227.1</ele>
        <time>2014-02-20T09:51:25.491Z</time>
      </trkpt>
      <trkpt lat="43.58177" lon="3.06397">
        <ele>227.1</ele>
        <time>2014-02-20T09:51:27.489Z</time>
      </trkpt>
      <trkpt lat="43.58179" lon="3.06401">
        <ele>227</ele>
        <time>2014-02-20T09:51:28.492Z</time>
      </trkpt>
      <trkpt lat="43.58184" lon="3.06407">
        <ele>227</ele>
        <time>2014-02-20T09:51:30.490Z</time>
      </trkpt>
      <trkpt lat="43.58186" lon="3.0641">
        <ele>226.4</ele>
        <time>2014-02-20T09:51:31.492Z</time>
      </trkpt>
      <trkpt lat="43.58191" lon="3.06417">
        <ele>227.6</ele>
        <time>2014-02-20T09:51:34.494Z</time>
      </trkpt>
      <trkpt lat="43.58193" lon="3.0642">
        <ele>226.8</ele>
        <time>2014-02-20T09:51:35.581Z</time>
      </trkpt>
      <trkpt lat="43.58198" lon="3.06427">
        <ele>226.1</ele>
        <time>2014-02-20T09:51:38.492Z</time>
      </trkpt>
      <trkpt lat="43.582" lon="3.06429">
        <ele>226</ele>
        <time>2014-02-20T09:51:39.490Z</time>
      </trkpt>
      <trkpt lat="43.58206" lon="3.06438">
        <ele>225.8</ele>
        <time>2014-02-20T09:51:42.491Z</time>
      </trkpt>
      <trkpt lat="43.58208" lon="3.0644">
        <ele>225.6</ele>
        <time>2014-02-20T09:51:43.493Z</time>
      </trkpt>
      <trkpt lat="43.58215" lon="3.06448">
        <ele>225.7</ele>
        <time>2014-02-20T09:51:46.490Z</time>
      </trkpt>
      <trkpt lat="43.58217" lon="3.06451">
        <ele>225.2</ele>
        <time>2014-02-20T09:51:47.491Z</time>
      </trkpt>
      <trkpt lat="43.58222" lon="3.06459">
        <ele>224.9</ele>
        <time>2014-02-20T09:51:49.492Z</time>
      </trkpt>
      <trkpt lat="43.58225" lon="3.06462">
        <ele>224.4</ele>
        <time>2014-02-20T09:51:50.491Z</time>
      </trkpt>
      <trkpt lat="43.58231" lon="3.06468">
        <ele>224.9</ele>
        <time>2014-02-20T09:51:54.490Z</time>
      </trkpt>
      <trkpt lat="43.58233" lon="3.0647">
        <ele>224.9</ele>
        <time>2014-02-20T09:51:55.493Z</time>
      </trkpt>
      <trkpt lat="43.5824" lon="3.06477">
        <ele>226.5</ele>
        <time>2014-02-20T09:51:58.491Z</time>
      </trkpt>
      <trkpt lat="43.58242" lon="3.0648">
        <ele>226.7</ele>
        <time>2014-02-20T09:51:59.491Z</time>
      </trkpt>
      <trkpt lat="43.58246" lon="3.06485">
        <ele>226.7</ele>
        <time>2014-02-20T09:52:01.498Z</time>
      </trkpt>
      <trkpt lat="43.58248" lon="3.06488">
        <ele>226.2</ele>
        <time>2014-02-20T09:52:02.490Z</time>
      </trkpt>
      <trkpt lat="43.58253" lon="3.06494">
        <ele>225.7</ele>
        <time>2014-02-20T09:52:04.492Z</time>
      </trkpt>
      <trkpt lat="43.58256" lon="3.06498">
        <ele>226</ele>
        <time>2014-02-20T09:52:05.491Z</time>
      </trkpt>
      <trkpt lat="43.58262" lon="3.06506">
        <ele>224.6</ele>
        <time>2014-02-20T09:52:08.493Z</time>
      </trkpt>
      <trkpt lat="43.58264" lon="3.06509">
        <ele>224.4</ele>
        <time>2014-02-20T09:52:09.489Z</time>
      </trkpt>
      <trkpt lat="43.58268" lon="3.06514">
        <ele>223.9</ele>
        <time>2014-02-20T09:52:11.573Z</time>
      </trkpt>
      <trkpt lat="43.5827" lon="3.06517">
        <ele>223.7</ele>
        <time>2014-02-20T09:52:12.490Z</time>
      </trkpt>
      <trkpt lat="43.58277" lon="3.06524">
        <ele>223.9</ele>
        <time>2014-02-20T09:52:14.494Z</time>
      </trkpt>
      <trkpt lat="43.5828" lon="3.06527">
        <ele>223.7</ele>
        <time>2014-02-20T09:52:15.491Z</time>
      </trkpt>
      <trkpt lat="43.58285" lon="3.06534">
        <ele>223.8</ele>
        <time>2014-02-20T09:52:17.492Z</time>
      </trkpt>
      <trkpt lat="43.58288" lon="3.06539">
        <ele>223.7</ele>
        <time>2014-02-20T09:52:18.490Z</time>
      </trkpt>
      <trkpt lat="43.58295" lon="3.06547">
        <ele>224.5</ele>
        <time>2014-02-20T09:52:20.492Z</time>
      </trkpt>
      <trkpt lat="43.58298" lon="3.06551">
        <ele>224.8</ele>
        <time>2014-02-20T09:52:21.490Z</time>
      </trkpt>
      <trkpt lat="43.58304" lon="3.06558">
        <ele>225.6</ele>
        <time>2014-02-20T09:52:23.493Z</time>
      </trkpt>
      <trkpt lat="43.58307" lon="3.06561">
        <ele>226</ele>
        <time>2014-02-20T09:52:24.490Z</time>
      </trkpt>
      <trkpt lat="43.58311" lon="3.06568">
        <ele>225.8</ele>
        <time>2014-02-20T09:52:26.492Z</time>
      </trkpt>
      <trkpt lat="43.58313" lon="3.06571">
        <ele>225.5</ele>
        <time>2014-02-20T09:52:27.490Z</time>
      </trkpt>
      <trkpt lat="43.58317" lon="3.06577">
        <ele>225.8</ele>
        <time>2014-02-20T09:52:29.490Z</time>
      </trkpt>
      <trkpt lat="43.5832" lon="3.0658">
        <ele>226.1</ele>
        <time>2014-02-20T09:52:30.490Z</time>
      </trkpt>
      <trkpt lat="43.58326" lon="3.06587">
        <ele>226.7</ele>
        <time>2014-02-20T09:52:32.492Z</time>
      </trkpt>
      <trkpt lat="43.58329" lon="3.06591">
        <ele>226.8</ele>
        <time>2014-02-20T09:52:33.490Z</time>
      </trkpt>
      <trkpt lat="43.58333" lon="3.06595">
        <ele>226.5</ele>
        <time>2014-02-20T09:52:34.560Z</time>
      </trkpt>
      <trkpt lat="43.58337" lon="3.06598">
        <ele>226.2</ele>
        <time>2014-02-20T09:52:35.490Z</time>
      </trkpt>
      <trkpt lat="43.58341" lon="3.06603">
        <ele>226.7</ele>
        <time>2014-02-20T09:52:36.489Z</time>
      </trkpt>
      <trkpt lat="43.58346" lon="3.06607">
        <ele>226.2</ele>
        <time>2014-02-20T09:52:37.491Z</time>
      </trkpt>
      <trkpt lat="43.5835" lon="3.06612">
        <ele>225.7</ele>
        <time>2014-02-20T09:52:38.490Z</time>
      </trkpt>
      <trkpt lat="43.58353" lon="3.06616">
        <ele>225.6</ele>
        <time>2014-02-20T09:52:39.489Z</time>
      </trkpt>
      <trkpt lat="43.5836" lon="3.06624">
        <ele>225.3</ele>
        <time>2014-02-20T09:52:41.491Z</time>
      </trkpt>
      <trkpt lat="43.58362" lon="3.06627">
        <ele>225.6</ele>
        <time>2014-02-20T09:52:42.489Z</time>
      </trkpt>
      <trkpt lat="43.58368" lon="3.06634">
        <ele>226</ele>
        <time>2014-02-20T09:52:44.491Z</time>
      </trkpt>
      <trkpt lat="43.5837" lon="3.06637">
        <ele>225.9</ele>
        <time>2014-02-20T09:52:45.496Z</time>
      </trkpt>
      <trkpt lat="43.58376" lon="3.06645">
        <ele>225.1</ele>
        <time>2014-02-20T09:52:47.492Z</time>
      </trkpt>
      <trkpt lat="43.58379" lon="3.06649">
        <ele>224.6</ele>
        <time>2014-02-20T09:52:48.489Z</time>
      </trkpt>
      <trkpt lat="43.58384" lon="3.06659">
        <ele>223.8</ele>
        <time>2014-02-20T09:52:50.491Z</time>
      </trkpt>
      <trkpt lat="43.58386" lon="3.06663">
        <ele>224.1</ele>
        <time>2014-02-20T09:52:51.493Z</time>
      </trkpt>
      <trkpt lat="43.58391" lon="3.06671">
        <ele>223.8</ele>
        <time>2014-02-20T09:52:53.498Z</time>
      </trkpt>
      <trkpt lat="43.58393" lon="3.06674">
        <ele>224.1</ele>
        <time>2014-02-20T09:52:54.494Z</time>
      </trkpt>
      <trkpt lat="43.58398" lon="3.06682">
        <ele>223.7</ele>
        <time>2014-02-20T09:52:56.500Z</time>
      </trkpt>
      <trkpt lat="43.584" lon="3.06686">
        <ele>223.6</ele>
        <time>2014-02-20T09:52:57.495Z</time>
      </trkpt>
      <trkpt lat="43.58405" lon="3.06697">
        <ele>223.3</ele>
        <time>2014-02-20T09:52:59.496Z</time>
      </trkpt>
      <trkpt lat="43.58407" lon="3.06702">
        <ele>223.6</ele>
        <time>2014-02-20T09:53:00.494Z</time>
      </trkpt>
      <trkpt lat="43.58409" lon="3.06708">
        <ele>224</ele>
        <time>2014-02-20T09:53:01.496Z</time>
      </trkpt>
      <trkpt lat="43.58411" lon="3.06713">
        <ele>224.3</ele>
        <time>2014-02-20T09:53:02.495Z</time>
      </trkpt>
      <trkpt lat="43.58413" lon="3.06718">
        <ele>224.4</ele>
        <time>2014-02-20T09:53:03.495Z</time>
      </trkpt>
      <trkpt lat="43.58415" lon="3.06724">
        <ele>223.9</ele>
        <time>2014-02-20T09:53:04.495Z</time>
      </trkpt>
      <trkpt lat="43.58419" lon="3.06734">
        <ele>223.9</ele>
        <time>2014-02-20T09:53:06.490Z</time>
      </trkpt>
      <trkpt lat="43.58422" lon="3.0674">
        <ele>223.9</ele>
        <time>2014-02-20T09:53:07.497Z</time>
      </trkpt>
      <trkpt lat="43.58424" lon="3.06745">
        <ele>223.8</ele>
        <time>2014-02-20T09:53:08.484Z</time>
      </trkpt>
      <trkpt lat="43.58426" lon="3.06751">
        <ele>223.2</ele>
        <time>2014-02-20T09:53:09.491Z</time>
      </trkpt>
      <trkpt lat="43.58429" lon="3.06762">
        <ele>223.5</ele>
        <time>2014-02-20T09:53:11.492Z</time>
      </trkpt>
      <trkpt lat="43.58433" lon="3.06766">
        <ele>223.1</ele>
        <time>2014-02-20T09:53:12.491Z</time>
      </trkpt>
      <trkpt lat="43.58436" lon="3.06771">
        <ele>222.8</ele>
        <time>2014-02-20T09:53:13.491Z</time>
      </trkpt>
      <trkpt lat="43.58439" lon="3.06775">
        <ele>222.5</ele>
        <time>2014-02-20T09:53:14.492Z</time>
      </trkpt>
      <trkpt lat="43.58444" lon="3.06785">
        <ele>223.1</ele>
        <time>2014-02-20T09:53:16.493Z</time>
      </trkpt>
      <trkpt lat="43.58447" lon="3.0679">
        <ele>224.1</ele>
        <time>2014-02-20T09:53:17.499Z</time>
      </trkpt>
      <trkpt lat="43.58451" lon="3.06795">
        <ele>224.3</ele>
        <time>2014-02-20T09:53:18.490Z</time>
      </trkpt>
      <trkpt lat="43.58454" lon="3.06799">
        <ele>224.4</ele>
        <time>2014-02-20T09:53:19.491Z</time>
      </trkpt>
      <trkpt lat="43.58459" lon="3.06808">
        <ele>224.8</ele>
        <time>2014-02-20T09:53:21.491Z</time>
      </trkpt>
      <trkpt lat="43.58461" lon="3.06813">
        <ele>224.6</ele>
        <time>2014-02-20T09:53:22.492Z</time>
      </trkpt>
      <trkpt lat="43.58462" lon="3.0682">
        <ele>224</ele>
        <time>2014-02-20T09:53:23.491Z</time>
      </trkpt>
      <trkpt lat="43.58463" lon="3.06825">
        <ele>223.7</ele>
        <time>2014-02-20T09:53:24.490Z</time>
      </trkpt>
      <trkpt lat="43.58468" lon="3.06836">
        <ele>223.1</ele>
        <time>2014-02-20T09:53:26.488Z</time>
      </trkpt>
      <trkpt lat="43.5847" lon="3.06842">
        <ele>222.6</ele>
        <time>2014-02-20T09:53:27.487Z</time>
      </trkpt>
      <trkpt lat="43.58472" lon="3.06847">
        <ele>222.2</ele>
        <time>2014-02-20T09:53:28.488Z</time>
      </trkpt>
      <trkpt lat="43.58475" lon="3.06852">
        <ele>221.5</ele>
        <time>2014-02-20T09:53:29.490Z</time>
      </trkpt>
      <trkpt lat="43.58478" lon="3.06857">
        <ele>222</ele>
        <time>2014-02-20T09:53:30.488Z</time>
      </trkpt>
      <trkpt lat="43.5848" lon="3.06863">
        <ele>221.4</ele>
        <time>2014-02-20T09:53:31.493Z</time>
      </trkpt>
      <trkpt lat="43.58485" lon="3.06872">
        <ele>222.4</ele>
        <time>2014-02-20T09:53:33.487Z</time>
      </trkpt>
      <trkpt lat="43.58487" lon="3.06877">
        <ele>222.9</ele>
        <time>2014-02-20T09:53:34.491Z</time>
      </trkpt>
      <trkpt lat="43.58491" lon="3.06888">
        <ele>223.4</ele>
        <time>2014-02-20T09:53:36.491Z</time>
      </trkpt>
      <trkpt lat="43.58494" lon="3.06892">
        <ele>223.4</ele>
        <time>2014-02-20T09:53:37.492Z</time>
      </trkpt>
      <trkpt lat="43.58499" lon="3.069">
        <ele>223.8</ele>
        <time>2014-02-20T09:53:39.491Z</time>
      </trkpt>
      <trkpt lat="43.585" lon="3.06906">
        <ele>223.3</ele>
        <time>2014-02-20T09:53:40.491Z</time>
      </trkpt>
      <trkpt lat="43.58502" lon="3.06916">
        <ele>223.7</ele>
        <time>2014-02-20T09:53:42.490Z</time>
      </trkpt>
      <trkpt lat="43.58505" lon="3.06921">
        <ele>223.1</ele>
        <time>2014-02-20T09:53:43.493Z</time>
      </trkpt>
      <trkpt lat="43.58508" lon="3.06926">
        <ele>222.5</ele>
        <time>2014-02-20T09:53:44.489Z</time>
      </trkpt>
      <trkpt lat="43.58511" lon="3.06931">
        <ele>222.7</ele>
        <time>2014-02-20T09:53:45.489Z</time>
      </trkpt>
      <trkpt lat="43.58515" lon="3.0694">
        <ele>222.3</ele>
        <time>2014-02-20T09:53:47.492Z</time>
      </trkpt>
      <trkpt lat="43.58517" lon="3.06945">
        <ele>222.4</ele>
        <time>2014-02-20T09:53:48.492Z</time>
      </trkpt>
      <trkpt lat="43.58519" lon="3.0695">
        <ele>222.7</ele>
        <time>2014-02-20T09:53:49.502Z</time>
      </trkpt>
      <trkpt lat="43.58522" lon="3.06956">
        <ele>222.5</ele>
        <time>2014-02-20T09:53:50.493Z</time>
      </trkpt>
      <trkpt lat="43.58525" lon="3.06961">
        <ele>223.1</ele>
        <time>2014-02-20T09:53:51.493Z</time>
      </trkpt>
      <trkpt lat="43.58529" lon="3.06966">
        <ele>223.7</ele>
        <time>2014-02-20T09:53:52.495Z</time>
      </trkpt>
      <trkpt lat="43.58532" lon="3.06971">
        <ele>224.1</ele>
        <time>2014-02-20T09:53:53.493Z</time>
      </trkpt>
      <trkpt lat="43.58535" lon="3.06976">
        <ele>224.7</ele>
        <time>2014-02-20T09:53:54.490Z</time>
      </trkpt>
      <trkpt lat="43.58538" lon="3.06981">
        <ele>224.8</ele>
        <time>2014-02-20T09:53:55.491Z</time>
      </trkpt>
      <trkpt lat="43.5854" lon="3.06987">
        <ele>225.1</ele>
        <time>2014-02-20T09:53:56.492Z</time>
      </trkpt>
      <trkpt lat="43.58545" lon="3.06997">
        <ele>224.7</ele>
        <time>2014-02-20T09:53:58.491Z</time>
      </trkpt>
      <trkpt lat="43.58545" lon="3.07001">
        <ele>224.9</ele>
        <time>2014-02-20T09:53:59.491Z</time>
      </trkpt>
      <trkpt lat="43.58548" lon="3.07011">
        <ele>226.1</ele>
        <time>2014-02-20T09:54:01.491Z</time>
      </trkpt>
      <trkpt lat="43.58552" lon="3.07016">
        <ele>226.5</ele>
        <time>2014-02-20T09:54:02.492Z</time>
      </trkpt>
      <trkpt lat="43.58555" lon="3.07021">
        <ele>227.2</ele>
        <time>2014-02-20T09:54:03.490Z</time>
      </trkpt>
      <trkpt lat="43.58558" lon="3.07027">
        <ele>227.1</ele>
        <time>2014-02-20T09:54:04.493Z</time>
      </trkpt>
      <trkpt lat="43.58561" lon="3.07032">
        <ele>227.8</ele>
        <time>2014-02-20T09:54:05.491Z</time>
      </trkpt>
      <trkpt lat="43.58564" lon="3.07038">
        <ele>228.1</ele>
        <time>2014-02-20T09:54:06.490Z</time>
      </trkpt>
      <trkpt lat="43.58567" lon="3.07043">
        <ele>228.4</ele>
        <time>2014-02-20T09:54:07.491Z</time>
      </trkpt>
      <trkpt lat="43.58572" lon="3.07048">
        <ele>228.7</ele>
        <time>2014-02-20T09:54:08.491Z</time>
      </trkpt>
      <trkpt lat="43.58575" lon="3.07053">
        <ele>229.1</ele>
        <time>2014-02-20T09:54:09.489Z</time>
      </trkpt>
      <trkpt lat="43.58577" lon="3.07059">
        <ele>229.6</ele>
        <time>2014-02-20T09:54:10.491Z</time>
      </trkpt>
      <trkpt lat="43.58581" lon="3.0707">
        <ele>229.6</ele>
        <time>2014-02-20T09:54:12.491Z</time>
      </trkpt>
      <trkpt lat="43.58583" lon="3.07074">
        <ele>229.4</ele>
        <time>2014-02-20T09:54:13.491Z</time>
      </trkpt>
      <trkpt lat="43.58589" lon="3.07081">
        <ele>229.9</ele>
        <time>2014-02-20T09:54:15.489Z</time>
      </trkpt>
      <trkpt lat="43.58593" lon="3.07084">
        <ele>229.7</ele>
        <time>2014-02-20T09:54:16.491Z</time>
      </trkpt>
      <trkpt lat="43.58599" lon="3.07092">
        <ele>227.7</ele>
        <time>2014-02-20T09:54:18.491Z</time>
      </trkpt>
      <trkpt lat="43.58602" lon="3.07096">
        <ele>226.6</ele>
        <time>2014-02-20T09:54:19.491Z</time>
      </trkpt>
      <trkpt lat="43.58606" lon="3.07104">
        <ele>225.4</ele>
        <time>2014-02-20T09:54:21.494Z</time>
      </trkpt>
      <trkpt lat="43.58608" lon="3.07108">
        <ele>225.2</ele>
        <time>2014-02-20T09:54:22.495Z</time>
      </trkpt>
      <trkpt lat="43.58612" lon="3.07114">
        <ele>225.3</ele>
        <time>2014-02-20T09:54:24.494Z</time>
      </trkpt>
      <trkpt lat="43.58614" lon="3.07118">
        <ele>225.3</ele>
        <time>2014-02-20T09:54:25.545Z</time>
      </trkpt>
      <trkpt lat="43.58619" lon="3.07123">
        <ele>224.9</ele>
        <time>2014-02-20T09:54:27.495Z</time>
      </trkpt>
      <trkpt lat="43.58623" lon="3.07126">
        <ele>224.9</ele>
        <time>2014-02-20T09:54:28.496Z</time>
      </trkpt>
      <trkpt lat="43.58627" lon="3.0713">
        <ele>225</ele>
        <time>2014-02-20T09:54:29.497Z</time>
      </trkpt>
      <trkpt lat="43.58632" lon="3.07135">
        <ele>225.1</ele>
        <time>2014-02-20T09:54:30.495Z</time>
      </trkpt>
      <trkpt lat="43.58641" lon="3.07143">
        <ele>225.1</ele>
        <time>2014-02-20T09:54:33.075Z</time>
      </trkpt>
      <trkpt lat="43.58646" lon="3.07153">
        <ele>226.2</ele>
        <time>2014-02-20T09:54:35.278Z</time>
      </trkpt>
      <trkpt lat="43.58652" lon="3.07165">
        <ele>226.5</ele>
        <time>2014-02-20T09:54:37.967Z</time>
      </trkpt>
      <trkpt lat="43.58655" lon="3.07174">
        <ele>227.4</ele>
        <time>2014-02-20T09:54:39.177Z</time>
      </trkpt>
      <trkpt lat="43.58656" lon="3.0718">
        <ele>227.9</ele>
        <time>2014-02-20T09:54:39.846Z</time>
      </trkpt>
      <trkpt lat="43.5866" lon="3.07191">
        <ele>229.8</ele>
        <time>2014-02-20T09:54:42.519Z</time>
      </trkpt>
      <trkpt lat="43.58663" lon="3.07195">
        <ele>230.5</ele>
        <time>2014-02-20T09:54:43.514Z</time>
      </trkpt>
      <trkpt lat="43.58668" lon="3.072">
        <ele>230.3</ele>
        <time>2014-02-20T09:54:44.498Z</time>
      </trkpt>
      <trkpt lat="43.58671" lon="3.07203">
        <ele>231</ele>
        <time>2014-02-20T09:54:45.937Z</time>
      </trkpt>
      <trkpt lat="43.58677" lon="3.07208">
        <ele>230.8</ele>
        <time>2014-02-20T09:54:47.497Z</time>
      </trkpt>
      <trkpt lat="43.58683" lon="3.07213">
        <ele>230.5</ele>
        <time>2014-02-20T09:54:49.666Z</time>
      </trkpt>
      <trkpt lat="43.58689" lon="3.07218">
        <ele>231.6</ele>
        <time>2014-02-20T09:54:50.723Z</time>
      </trkpt>
      <trkpt lat="43.58693" lon="3.07222">
        <ele>232</ele>
        <time>2014-02-20T09:54:51.651Z</time>
      </trkpt>
      <trkpt lat="43.58698" lon="3.07232">
        <ele>233.5</ele>
        <time>2014-02-20T09:54:53.547Z</time>
      </trkpt>
      <trkpt lat="43.587" lon="3.07236">
        <ele>234.7</ele>
        <time>2014-02-20T09:54:54.495Z</time>
      </trkpt>
      <trkpt lat="43.58703" lon="3.07245">
        <ele>234.8</ele>
        <time>2014-02-20T09:54:56.495Z</time>
      </trkpt>
      <trkpt lat="43.58707" lon="3.07252">
        <ele>233.9</ele>
        <time>2014-02-20T09:54:58.233Z</time>
      </trkpt>
      <trkpt lat="43.5871" lon="3.07258">
        <ele>234.9</ele>
        <time>2014-02-20T09:54:59.495Z</time>
      </trkpt>
      <trkpt lat="43.58712" lon="3.07263">
        <ele>234.9</ele>
        <time>2014-02-20T09:55:00.495Z</time>
      </trkpt>
      <trkpt lat="43.58716" lon="3.07273">
        <ele>235</ele>
        <time>2014-02-20T09:55:02.496Z</time>
      </trkpt>
      <trkpt lat="43.58718" lon="3.07277">
        <ele>234.9</ele>
        <time>2014-02-20T09:55:03.495Z</time>
      </trkpt>
      <trkpt lat="43.58719" lon="3.07283">
        <ele>235.6</ele>
        <time>2014-02-20T09:55:04.496Z</time>
      </trkpt>
      <trkpt lat="43.58721" lon="3.07289">
        <ele>235.7</ele>
        <time>2014-02-20T09:55:05.498Z</time>
      </trkpt>
      <trkpt lat="43.58724" lon="3.07295">
        <ele>235.8</ele>
        <time>2014-02-20T09:55:06.495Z</time>
      </trkpt>
      <trkpt lat="43.58728" lon="3.07301">
        <ele>235.9</ele>
        <time>2014-02-20T09:55:07.498Z</time>
      </trkpt>
      <trkpt lat="43.58732" lon="3.07306">
        <ele>236.4</ele>
        <time>2014-02-20T09:55:08.495Z</time>
      </trkpt>
      <trkpt lat="43.58735" lon="3.07311">
        <ele>236.7</ele>
        <time>2014-02-20T09:55:09.496Z</time>
      </trkpt>
      <trkpt lat="43.5874" lon="3.0732">
        <ele>235.9</ele>
        <time>2014-02-20T09:55:11.498Z</time>
      </trkpt>
      <trkpt lat="43.58742" lon="3.07324">
        <ele>236.3</ele>
        <time>2014-02-20T09:55:12.498Z</time>
      </trkpt>
      <trkpt lat="43.58747" lon="3.07334">
        <ele>237.1</ele>
        <time>2014-02-20T09:55:14.497Z</time>
      </trkpt>
      <trkpt lat="43.5875" lon="3.07339">
        <ele>237.7</ele>
        <time>2014-02-20T09:55:15.495Z</time>
      </trkpt>
      <trkpt lat="43.58754" lon="3.07349">
        <ele>238.2</ele>
        <time>2014-02-20T09:55:17.497Z</time>
      </trkpt>
      <trkpt lat="43.58757" lon="3.07353">
        <ele>238.6</ele>
        <time>2014-02-20T09:55:18.495Z</time>
      </trkpt>
      <trkpt lat="43.58762" lon="3.0736">
        <ele>238.8</ele>
        <time>2014-02-20T09:55:20.496Z</time>
      </trkpt>
      <trkpt lat="43.58765" lon="3.07362">
        <ele>239.6</ele>
        <time>2014-02-20T09:55:21.496Z</time>
      </trkpt>
      <trkpt lat="43.58768" lon="3.07368">
        <ele>240.1</ele>
        <time>2014-02-20T09:55:23.496Z</time>
      </trkpt>
      <trkpt lat="43.58771" lon="3.07373">
        <ele>241</ele>
        <time>2014-02-20T09:55:24.495Z</time>
      </trkpt>
      <trkpt lat="43.58773" lon="3.07378">
        <ele>241.4</ele>
        <time>2014-02-20T09:55:25.496Z</time>
      </trkpt>
      <trkpt lat="43.58776" lon="3.07384">
        <ele>242.3</ele>
        <time>2014-02-20T09:55:26.492Z</time>
      </trkpt>
      <trkpt lat="43.58779" lon="3.0739">
        <ele>242.2</ele>
        <time>2014-02-20T09:55:27.489Z</time>
      </trkpt>
      <trkpt lat="43.58782" lon="3.07396">
        <ele>242.5</ele>
        <time>2014-02-20T09:55:28.491Z</time>
      </trkpt>
      <trkpt lat="43.58784" lon="3.07407">
        <ele>243.1</ele>
        <time>2014-02-20T09:55:30.491Z</time>
      </trkpt>
      <trkpt lat="43.58784" lon="3.07413">
        <ele>242.9</ele>
        <time>2014-02-20T09:55:31.491Z</time>
      </trkpt>
      <trkpt lat="43.58784" lon="3.07419">
        <ele>242.5</ele>
        <time>2014-02-20T09:55:32.491Z</time>
      </trkpt>
      <trkpt lat="43.58786" lon="3.07426">
        <ele>243</ele>
        <time>2014-02-20T09:55:33.489Z</time>
      </trkpt>
      <trkpt lat="43.58789" lon="3.07433">
        <ele>241.6</ele>
        <time>2014-02-20T09:55:34.490Z</time>
      </trkpt>
      <trkpt lat="43.5879" lon="3.07439">
        <ele>241.5</ele>
        <time>2014-02-20T09:55:35.491Z</time>
      </trkpt>
      <trkpt lat="43.58792" lon="3.07445">
        <ele>241.6</ele>
        <time>2014-02-20T09:55:36.490Z</time>
      </trkpt>
      <trkpt lat="43.58794" lon="3.07452">
        <ele>241.2</ele>
        <time>2014-02-20T09:55:37.491Z</time>
      </trkpt>
      <trkpt lat="43.58794" lon="3.07459">
        <ele>241.3</ele>
        <time>2014-02-20T09:55:38.490Z</time>
      </trkpt>
      <trkpt lat="43.58796" lon="3.07465">
        <ele>240.4</ele>
        <time>2014-02-20T09:55:39.490Z</time>
      </trkpt>
      <trkpt lat="43.58797" lon="3.07471">
        <ele>240.3</ele>
        <time>2014-02-20T09:55:40.491Z</time>
      </trkpt>
      <trkpt lat="43.58798" lon="3.07477">
        <ele>240.9</ele>
        <time>2014-02-20T09:55:41.491Z</time>
      </trkpt>
      <trkpt lat="43.588" lon="3.07484">
        <ele>240.9</ele>
        <time>2014-02-20T09:55:42.489Z</time>
      </trkpt>
      <trkpt lat="43.58801" lon="3.07491">
        <ele>240.2</ele>
        <time>2014-02-20T09:55:43.493Z</time>
      </trkpt>
      <trkpt lat="43.58803" lon="3.07497">
        <ele>240.3</ele>
        <time>2014-02-20T09:55:44.492Z</time>
      </trkpt>
      <trkpt lat="43.58806" lon="3.07504">
        <ele>240.6</ele>
        <time>2014-02-20T09:55:45.492Z</time>
      </trkpt>
      <trkpt lat="43.58808" lon="3.07511">
        <ele>240.3</ele>
        <time>2014-02-20T09:55:46.508Z</time>
      </trkpt>
      <trkpt lat="43.5881" lon="3.07518">
        <ele>239.6</ele>
        <time>2014-02-20T09:55:47.491Z</time>
      </trkpt>
      <trkpt lat="43.58813" lon="3.07525">
        <ele>238.6</ele>
        <time>2014-02-20T09:55:48.491Z</time>
      </trkpt>
      <trkpt lat="43.58815" lon="3.07534">
        <ele>237.6</ele>
        <time>2014-02-20T09:55:49.493Z</time>
      </trkpt>
      <trkpt lat="43.58816" lon="3.07541">
        <ele>237.8</ele>
        <time>2014-02-20T09:55:50.493Z</time>
      </trkpt>
      <trkpt lat="43.58817" lon="3.07548">
        <ele>237.4</ele>
        <time>2014-02-20T09:55:51.504Z</time>
      </trkpt>
      <trkpt lat="43.58819" lon="3.07555">
        <ele>237.6</ele>
        <time>2014-02-20T09:55:52.492Z</time>
      </trkpt>
      <trkpt lat="43.58819" lon="3.07562">
        <ele>237.2</ele>
        <time>2014-02-20T09:55:53.491Z</time>
      </trkpt>
      <trkpt lat="43.58821" lon="3.07573">
        <ele>235.8</ele>
        <time>2014-02-20T09:55:55.491Z</time>
      </trkpt>
      <trkpt lat="43.58823" lon="3.07578">
        <ele>235.8</ele>
        <time>2014-02-20T09:55:56.491Z</time>
      </trkpt>
      <trkpt lat="43.58824" lon="3.07587">
        <ele>234.6</ele>
        <time>2014-02-20T09:55:58.496Z</time>
      </trkpt>
      <trkpt lat="43.58825" lon="3.07591">
        <ele>234.6</ele>
        <time>2014-02-20T09:55:59.497Z</time>
      </trkpt>
      <trkpt lat="43.58825" lon="3.076">
        <ele>234.6</ele>
        <time>2014-02-20T09:56:01.499Z</time>
      </trkpt>
      <trkpt lat="43.58826" lon="3.07605">
        <ele>234.2</ele>
        <time>2014-02-20T09:56:02.498Z</time>
      </trkpt>
      <trkpt lat="43.58826" lon="3.07614">
        <ele>233.5</ele>
        <time>2014-02-20T09:56:04.503Z</time>
      </trkpt>
      <trkpt lat="43.58828" lon="3.07618">
        <ele>233.6</ele>
        <time>2014-02-20T09:56:05.497Z</time>
      </trkpt>
      <trkpt lat="43.58831" lon="3.07626">
        <ele>233</ele>
        <time>2014-02-20T09:56:08.499Z</time>
      </trkpt>
      <trkpt lat="43.58833" lon="3.07629">
        <ele>232.8</ele>
        <time>2014-02-20T09:56:09.496Z</time>
      </trkpt>
      <trkpt lat="43.58837" lon="3.07638">
        <ele>232.1</ele>
        <time>2014-02-20T09:56:11.496Z</time>
      </trkpt>
      <trkpt lat="43.58839" lon="3.07643">
        <ele>232.5</ele>
        <time>2014-02-20T09:56:12.495Z</time>
      </trkpt>
      <trkpt lat="43.58841" lon="3.07649">
        <ele>232.2</ele>
        <time>2014-02-20T09:56:13.496Z</time>
      </trkpt>
      <trkpt lat="43.58842" lon="3.07655">
        <ele>232.3</ele>
        <time>2014-02-20T09:56:14.495Z</time>
      </trkpt>
      <trkpt lat="43.58843" lon="3.07662">
        <ele>231.8</ele>
        <time>2014-02-20T09:56:15.491Z</time>
      </trkpt>
      <trkpt lat="43.58843" lon="3.07669">
        <ele>231.5</ele>
        <time>2014-02-20T09:56:16.493Z</time>
      </trkpt>
      <trkpt lat="43.58844" lon="3.07675">
        <ele>231.8</ele>
        <time>2014-02-20T09:56:17.492Z</time>
      </trkpt>
      <trkpt lat="43.58847" lon="3.07681">
        <ele>231.6</ele>
        <time>2014-02-20T09:56:18.489Z</time>
      </trkpt>
      <trkpt lat="43.58848" lon="3.07688">
        <ele>232.2</ele>
        <time>2014-02-20T09:56:19.492Z</time>
      </trkpt>
      <trkpt lat="43.58848" lon="3.07696">
        <ele>233.9</ele>
        <time>2014-02-20T09:56:20.491Z</time>
      </trkpt>
      <trkpt lat="43.58846" lon="3.07704">
        <ele>235.5</ele>
        <time>2014-02-20T09:56:21.519Z</time>
      </trkpt>
      <trkpt lat="43.58842" lon="3.07713">
        <ele>236.9</ele>
        <time>2014-02-20T09:56:22.492Z</time>
      </trkpt>
      <trkpt lat="43.58839" lon="3.07722">
        <ele>238.4</ele>
        <time>2014-02-20T09:56:23.491Z</time>
      </trkpt>
      <trkpt lat="43.58836" lon="3.07731">
        <ele>239.1</ele>
        <time>2014-02-20T09:56:24.490Z</time>
      </trkpt>
      <trkpt lat="43.58834" lon="3.07742">
        <ele>239.5</ele>
        <time>2014-02-20T09:56:26.517Z</time>
      </trkpt>
      <trkpt lat="43.58835" lon="3.07746">
        <ele>239.3</ele>
        <time>2014-02-20T09:56:27.489Z</time>
      </trkpt>
      <trkpt lat="43.58838" lon="3.07756">
        <ele>234.6</ele>
        <time>2014-02-20T09:56:29.497Z</time>
      </trkpt>
      <trkpt lat="43.5884" lon="3.07762">
        <ele>234.5</ele>
        <time>2014-02-20T09:56:30.489Z</time>
      </trkpt>
      <trkpt lat="43.58841" lon="3.07773">
        <ele>233.5</ele>
        <time>2014-02-20T09:56:32.492Z</time>
      </trkpt>
      <trkpt lat="43.58842" lon="3.07778">
        <ele>232.4</ele>
        <time>2014-02-20T09:56:33.489Z</time>
      </trkpt>
      <trkpt lat="43.58844" lon="3.07789">
        <ele>231.8</ele>
        <time>2014-02-20T09:56:35.491Z</time>
      </trkpt>
      <trkpt lat="43.58845" lon="3.07794">
        <ele>231.7</ele>
        <time>2014-02-20T09:56:36.489Z</time>
      </trkpt>
      <trkpt lat="43.58846" lon="3.07805">
        <ele>231.7</ele>
        <time>2014-02-20T09:56:38.491Z</time>
      </trkpt>
      <trkpt lat="43.58846" lon="3.07811">
        <ele>232.6</ele>
        <time>2014-02-20T09:56:39.489Z</time>
      </trkpt>
      <trkpt lat="43.58844" lon="3.07817">
        <ele>233.1</ele>
        <time>2014-02-20T09:56:40.491Z</time>
      </trkpt>
      <trkpt lat="43.58843" lon="3.07823">
        <ele>233.2</ele>
        <time>2014-02-20T09:56:41.491Z</time>
      </trkpt>
      <trkpt lat="43.58841" lon="3.07835">
        <ele>232.7</ele>
        <time>2014-02-20T09:56:43.491Z</time>
      </trkpt>
      <trkpt lat="43.58839" lon="3.0784">
        <ele>233</ele>
        <time>2014-02-20T09:56:44.491Z</time>
      </trkpt>
      <trkpt lat="43.58837" lon="3.07844">
        <ele>233.6</ele>
        <time>2014-02-20T09:56:45.490Z</time>
      </trkpt>
      <trkpt lat="43.58834" lon="3.0785">
        <ele>235.1</ele>
        <time>2014-02-20T09:56:46.496Z</time>
      </trkpt>
      <trkpt lat="43.58832" lon="3.07856">
        <ele>235.1</ele>
        <time>2014-02-20T09:56:47.492Z</time>
      </trkpt>
      <trkpt lat="43.5883" lon="3.07863">
        <ele>233</ele>
        <time>2014-02-20T09:56:48.491Z</time>
      </trkpt>
      <trkpt lat="43.58829" lon="3.0787">
        <ele>231.6</ele>
        <time>2014-02-20T09:56:49.492Z</time>
      </trkpt>
      <trkpt lat="43.58827" lon="3.07878">
        <ele>232.3</ele>
        <time>2014-02-20T09:56:50.492Z</time>
      </trkpt>
      <trkpt lat="43.58826" lon="3.07885">
        <ele>231.1</ele>
        <time>2014-02-20T09:56:51.492Z</time>
      </trkpt>
      <trkpt lat="43.58823" lon="3.07892">
        <ele>231.1</ele>
        <time>2014-02-20T09:56:52.491Z</time>
      </trkpt>
      <trkpt lat="43.58821" lon="3.07898">
        <ele>232.1</ele>
        <time>2014-02-20T09:56:53.491Z</time>
      </trkpt>
      <trkpt lat="43.58819" lon="3.07903">
        <ele>232.2</ele>
        <time>2014-02-20T09:56:54.491Z</time>
      </trkpt>
      <trkpt lat="43.58817" lon="3.07914">
        <ele>232.8</ele>
        <time>2014-02-20T09:56:56.500Z</time>
      </trkpt>
      <trkpt lat="43.58817" lon="3.07919">
        <ele>232.5</ele>
        <time>2014-02-20T09:56:57.489Z</time>
      </trkpt>
      <trkpt lat="43.58815" lon="3.0793">
        <ele>232.4</ele>
        <time>2014-02-20T09:56:59.491Z</time>
      </trkpt>
      <trkpt lat="43.58813" lon="3.07935">
        <ele>232.6</ele>
        <time>2014-02-20T09:57:00.490Z</time>
      </trkpt>
      <trkpt lat="43.58811" lon="3.07943">
        <ele>231</ele>
        <time>2014-02-20T09:57:02.492Z</time>
      </trkpt>
      <trkpt lat="43.5881" lon="3.07949">
        <ele>231.3</ele>
        <time>2014-02-20T09:57:03.490Z</time>
      </trkpt>
      <trkpt lat="43.58807" lon="3.07958">
        <ele>232.3</ele>
        <time>2014-02-20T09:57:05.491Z</time>
      </trkpt>
      <trkpt lat="43.58806" lon="3.07962">
        <ele>232.7</ele>
        <time>2014-02-20T09:57:06.516Z</time>
      </trkpt>
      <trkpt lat="43.58804" lon="3.07971">
        <ele>232.6</ele>
        <time>2014-02-20T09:57:08.491Z</time>
      </trkpt>
      <trkpt lat="43.58803" lon="3.07976">
        <ele>232.3</ele>
        <time>2014-02-20T09:57:09.489Z</time>
      </trkpt>
      <trkpt lat="43.588" lon="3.07987">
        <ele>232.6</ele>
        <time>2014-02-20T09:57:12.491Z</time>
      </trkpt>
      <trkpt lat="43.58799" lon="3.07991">
        <ele>232.5</ele>
        <time>2014-02-20T09:57:13.492Z</time>
      </trkpt>
      <trkpt lat="43.58797" lon="3.08">
        <ele>232.7</ele>
        <time>2014-02-20T09:57:16.530Z</time>
      </trkpt>
      <trkpt lat="43.58796" lon="3.08003">
        <ele>233.7</ele>
        <time>2014-02-20T09:57:17.491Z</time>
      </trkpt>
      <trkpt lat="43.58794" lon="3.08013">
        <ele>233.5</ele>
        <time>2014-02-20T09:57:21.528Z</time>
      </trkpt>
      <trkpt lat="43.58792" lon="3.08016">
        <ele>233.7</ele>
        <time>2014-02-20T09:57:22.493Z</time>
      </trkpt>
      <trkpt lat="43.58793" lon="3.08025">
        <ele>234.2</ele>
        <time>2014-02-20T09:57:31.492Z</time>
      </trkpt>
      <trkpt lat="43.58793" lon="3.08024">
        <ele>234.1</ele>
        <time>2014-02-20T09:57:32.493Z</time>
      </trkpt>
      <trkpt lat="43.58793" lon="3.08024">
        <ele>234.1</ele>
        <time>2014-02-20T09:57:33.499Z</time>
      </trkpt>
      <trkpt lat="43.58792" lon="3.08025">
        <ele>234</ele>
        <time>2014-02-20T09:57:34.491Z</time>
      </trkpt>
      <trkpt lat="43.58791" lon="3.08024">
        <ele>233.3</ele>
        <time>2014-02-20T09:57:39.489Z</time>
      </trkpt>
      <trkpt lat="43.58791" lon="3.08024">
        <ele>233.3</ele>
        <time>2014-02-20T09:57:40.490Z</time>
      </trkpt>
      <trkpt lat="43.58791" lon="3.08025">
        <ele>233.3</ele>
        <time>2014-02-20T09:57:56.491Z</time>
      </trkpt>
      <trkpt lat="43.5879" lon="3.08027">
        <ele>232.7</ele>
        <time>2014-02-20T09:57:57.489Z</time>
      </trkpt>
      <trkpt lat="43.58788" lon="3.08034">
        <ele>232.3</ele>
        <time>2014-02-20T09:57:59.491Z</time>
      </trkpt>
      <trkpt lat="43.58787" lon="3.08039">
        <ele>232.4</ele>
        <time>2014-02-20T09:58:00.500Z</time>
      </trkpt>
      <trkpt lat="43.58788" lon="3.0805">
        <ele>233.1</ele>
        <time>2014-02-20T09:58:02.493Z</time>
      </trkpt>
      <trkpt lat="43.58786" lon="3.08055">
        <ele>233.5</ele>
        <time>2014-02-20T09:58:03.491Z</time>
      </trkpt>
      <trkpt lat="43.58783" lon="3.08064">
        <ele>233.8</ele>
        <time>2014-02-20T09:58:05.499Z</time>
      </trkpt>
      <trkpt lat="43.58781" lon="3.08067">
        <ele>233.6</ele>
        <time>2014-02-20T09:58:06.491Z</time>
      </trkpt>
      <trkpt lat="43.58781" lon="3.0808">
        <ele>233.6</ele>
        <time>2014-02-20T09:58:11.543Z</time>
      </trkpt>
      <trkpt lat="43.5878" lon="3.08083">
        <ele>234.4</ele>
        <time>2014-02-20T09:58:12.491Z</time>
      </trkpt>
      <trkpt lat="43.58777" lon="3.08093">
        <ele>235.2</ele>
        <time>2014-02-20T09:58:15.489Z</time>
      </trkpt>
      <trkpt lat="43.58778" lon="3.08097">
        <ele>235.6</ele>
        <time>2014-02-20T09:58:16.513Z</time>
      </trkpt>
      <trkpt lat="43.58777" lon="3.08105">
        <ele>236.1</ele>
        <time>2014-02-20T09:58:18.490Z</time>
      </trkpt>
      <trkpt lat="43.58776" lon="3.0811">
        <ele>236.3</ele>
        <time>2014-02-20T09:58:19.492Z</time>
      </trkpt>
      <trkpt lat="43.58773" lon="3.08119">
        <ele>237.7</ele>
        <time>2014-02-20T09:58:21.490Z</time>
      </trkpt>
      <trkpt lat="43.58772" lon="3.08124">
        <ele>237.7</ele>
        <time>2014-02-20T09:58:22.493Z</time>
      </trkpt>
      <trkpt lat="43.58771" lon="3.08132">
        <ele>238.7</ele>
        <time>2014-02-20T09:58:24.489Z</time>
      </trkpt>
      <trkpt lat="43.5877" lon="3.08136">
        <ele>238.7</ele>
        <time>2014-02-20T09:58:25.491Z</time>
      </trkpt>
      <trkpt lat="43.58768" lon="3.08148">
        <ele>237.2</ele>
        <time>2014-02-20T09:58:27.490Z</time>
      </trkpt>
      <trkpt lat="43.58765" lon="3.08155">
        <ele>235.9</ele>
        <time>2014-02-20T09:58:28.492Z</time>
      </trkpt>
      <trkpt lat="43.58764" lon="3.08162">
        <ele>236.2</ele>
        <time>2014-02-20T09:58:29.500Z</time>
      </trkpt>
      <trkpt lat="43.58764" lon="3.08168">
        <ele>236.6</ele>
        <time>2014-02-20T09:58:30.498Z</time>
      </trkpt>
      <trkpt lat="43.58764" lon="3.08179">
        <ele>236.6</ele>
        <time>2014-02-20T09:58:32.497Z</time>
      </trkpt>
      <trkpt lat="43.58764" lon="3.08185">
        <ele>236.5</ele>
        <time>2014-02-20T09:58:33.496Z</time>
      </trkpt>
      <trkpt lat="43.58763" lon="3.08196">
        <ele>235.7</ele>
        <time>2014-02-20T09:58:35.496Z</time>
      </trkpt>
      <trkpt lat="43.58763" lon="3.08202">
        <ele>235.9</ele>
        <time>2014-02-20T09:58:36.496Z</time>
      </trkpt>
      <trkpt lat="43.58763" lon="3.08208">
        <ele>235.8</ele>
        <time>2014-02-20T09:58:37.497Z</time>
      </trkpt>
      <trkpt lat="43.58763" lon="3.08214">
        <ele>235.7</ele>
        <time>2014-02-20T09:58:38.498Z</time>
      </trkpt>
      <trkpt lat="43.58763" lon="3.08221">
        <ele>235.5</ele>
        <time>2014-02-20T09:58:39.495Z</time>
      </trkpt>
      <trkpt lat="43.58763" lon="3.08227">
        <ele>234.9</ele>
        <time>2014-02-20T09:58:40.496Z</time>
      </trkpt>
      <trkpt lat="43.58763" lon="3.08238">
        <ele>234.9</ele>
        <time>2014-02-20T09:58:42.495Z</time>
      </trkpt>
      <trkpt lat="43.58763" lon="3.08244">
        <ele>234</ele>
        <time>2014-02-20T09:58:43.496Z</time>
      </trkpt>
      <trkpt lat="43.58765" lon="3.08252">
        <ele>234.2</ele>
        <time>2014-02-20T09:58:45.495Z</time>
      </trkpt>
      <trkpt lat="43.58765" lon="3.08257">
        <ele>234.4</ele>
        <time>2014-02-20T09:58:46.496Z</time>
      </trkpt>
      <trkpt lat="43.58763" lon="3.08267">
        <ele>233.9</ele>
        <time>2014-02-20T09:58:48.495Z</time>
      </trkpt>
      <trkpt lat="43.58763" lon="3.08272">
        <ele>234.1</ele>
        <time>2014-02-20T09:58:49.497Z</time>
      </trkpt>
      <trkpt lat="43.58761" lon="3.08283">
        <ele>234.1</ele>
        <time>2014-02-20T09:58:52.496Z</time>
      </trkpt>
      <trkpt lat="43.58761" lon="3.08287">
        <ele>233.9</ele>
        <time>2014-02-20T09:58:53.496Z</time>
      </trkpt>
      <trkpt lat="43.58761" lon="3.08298">
        <ele>232.1</ele>
        <time>2014-02-20T09:58:56.490Z</time>
      </trkpt>
      <trkpt lat="43.58761" lon="3.08303">
        <ele>232.7</ele>
        <time>2014-02-20T09:58:57.499Z</time>
      </trkpt>
      <trkpt lat="43.58762" lon="3.08314">
        <ele>232</ele>
        <time>2014-02-20T09:59:00.496Z</time>
      </trkpt>
      <trkpt lat="43.58762" lon="3.08318">
        <ele>232.1</ele>
        <time>2014-02-20T09:59:01.499Z</time>
      </trkpt>
      <trkpt lat="43.58763" lon="3.08329">
        <ele>232.1</ele>
        <time>2014-02-20T09:59:04.497Z</time>
      </trkpt>
      <trkpt lat="43.58763" lon="3.08333">
        <ele>232.1</ele>
        <time>2014-02-20T09:59:05.495Z</time>
      </trkpt>
      <trkpt lat="43.58765" lon="3.08345">
        <ele>232.8</ele>
        <time>2014-02-20T09:59:07.495Z</time>
      </trkpt>
      <trkpt lat="43.58765" lon="3.0835">
        <ele>233.2</ele>
        <time>2014-02-20T09:59:08.497Z</time>
      </trkpt>
      <trkpt lat="43.58765" lon="3.08359">
        <ele>232.9</ele>
        <time>2014-02-20T09:59:10.495Z</time>
      </trkpt>
      <trkpt lat="43.58765" lon="3.08363">
        <ele>233</ele>
        <time>2014-02-20T09:59:11.570Z</time>
      </trkpt>
      <trkpt lat="43.58766" lon="3.08373">
        <ele>234.2</ele>
        <time>2014-02-20T09:59:13.496Z</time>
      </trkpt>
      <trkpt lat="43.58766" lon="3.08377">
        <ele>234.1</ele>
        <time>2014-02-20T09:59:14.493Z</time>
      </trkpt>
      <trkpt lat="43.58766" lon="3.08387">
        <ele>233.7</ele>
        <time>2014-02-20T09:59:16.491Z</time>
      </trkpt>
      <trkpt lat="43.58766" lon="3.08391">
        <ele>233.5</ele>
        <time>2014-02-20T09:59:17.491Z</time>
      </trkpt>
      <trkpt lat="43.58767" lon="3.08403">
        <ele>233.9</ele>
        <time>2014-02-20T09:59:20.490Z</time>
      </trkpt>
      <trkpt lat="43.58767" lon="3.08408">
        <ele>233.3</ele>
        <time>2014-02-20T09:59:22.137Z</time>
      </trkpt>
      <trkpt lat="43.58767" lon="3.08416">
        <ele>234.1</ele>
        <time>2014-02-20T09:59:23.491Z</time>
      </trkpt>
      <trkpt lat="43.58766" lon="3.08421">
        <ele>234.4</ele>
        <time>2014-02-20T09:59:24.489Z</time>
      </trkpt>
      <trkpt lat="43.58766" lon="3.08432">
        <ele>234.1</ele>
        <time>2014-02-20T09:59:26.490Z</time>
      </trkpt>
      <trkpt lat="43.58767" lon="3.08437">
        <ele>234.1</ele>
        <time>2014-02-20T09:59:27.489Z</time>
      </trkpt>
      <trkpt lat="43.58768" lon="3.08449">
        <ele>234.6</ele>
        <time>2014-02-20T09:59:29.494Z</time>
      </trkpt>
      <trkpt lat="43.5877" lon="3.08455">
        <ele>233.9</ele>
        <time>2014-02-20T09:59:30.494Z</time>
      </trkpt>
      <trkpt lat="43.58774" lon="3.08466">
        <ele>233.1</ele>
        <time>2014-02-20T09:59:32.491Z</time>
      </trkpt>
      <trkpt lat="43.58775" lon="3.08471">
        <ele>232.8</ele>
        <time>2014-02-20T09:59:33.490Z</time>
      </trkpt>
      <trkpt lat="43.58777" lon="3.08481">
        <ele>232.3</ele>
        <time>2014-02-20T09:59:35.491Z</time>
      </trkpt>
      <trkpt lat="43.58778" lon="3.08485">
        <ele>232.1</ele>
        <time>2014-02-20T09:59:36.490Z</time>
      </trkpt>
      <trkpt lat="43.5878" lon="3.08495">
        <ele>232.7</ele>
        <time>2014-02-20T09:59:38.491Z</time>
      </trkpt>
      <trkpt lat="43.58781" lon="3.085">
        <ele>232.2</ele>
        <time>2014-02-20T09:59:39.490Z</time>
      </trkpt>
      <trkpt lat="43.58781" lon="3.08507">
        <ele>232.4</ele>
        <time>2014-02-20T09:59:40.492Z</time>
      </trkpt>
      <trkpt lat="43.58782" lon="3.08513">
        <ele>231.5</ele>
        <time>2014-02-20T09:59:41.491Z</time>
      </trkpt>
      <trkpt lat="43.58783" lon="3.0852">
        <ele>231.4</ele>
        <time>2014-02-20T09:59:42.558Z</time>
      </trkpt>
      <trkpt lat="43.58783" lon="3.08526">
        <ele>231.2</ele>
        <time>2014-02-20T09:59:43.503Z</time>
      </trkpt>
      <trkpt lat="43.58784" lon="3.08538">
        <ele>231.3</ele>
        <time>2014-02-20T09:59:45.491Z</time>
      </trkpt>
      <trkpt lat="43.58784" lon="3.08543">
        <ele>230.8</ele>
        <time>2014-02-20T09:59:46.491Z</time>
      </trkpt>
      <trkpt lat="43.58785" lon="3.08555">
        <ele>230.6</ele>
        <time>2014-02-20T09:59:48.491Z</time>
      </trkpt>
      <trkpt lat="43.58785" lon="3.08562">
        <ele>231.7</ele>
        <time>2014-02-20T09:59:49.494Z</time>
      </trkpt>
      <trkpt lat="43.58787" lon="3.08568">
        <ele>231.8</ele>
        <time>2014-02-20T09:59:50.492Z</time>
      </trkpt>
      <trkpt lat="43.58787" lon="3.08574">
        <ele>232.6</ele>
        <time>2014-02-20T09:59:51.488Z</time>
      </trkpt>
      <trkpt lat="43.58789" lon="3.08585">
        <ele>231.9</ele>
        <time>2014-02-20T09:59:53.491Z</time>
      </trkpt>
      <trkpt lat="43.5879" lon="3.0859">
        <ele>232.4</ele>
        <time>2014-02-20T09:59:54.489Z</time>
      </trkpt>
      <trkpt lat="43.5879" lon="3.086">
        <ele>231.9</ele>
        <time>2014-02-20T09:59:56.491Z</time>
      </trkpt>
      <trkpt lat="43.58791" lon="3.08606">
        <ele>232.4</ele>
        <time>2014-02-20T09:59:57.489Z</time>
      </trkpt>
      <trkpt lat="43.58793" lon="3.08617">
        <ele>231.7</ele>
        <time>2014-02-20T09:59:59.491Z</time>
      </trkpt>
      <trkpt lat="43.58795" lon="3.08622">
        <ele>231.5</ele>
        <time>2014-02-20T10:00:00.490Z</time>
      </trkpt>
      <trkpt lat="43.58797" lon="3.08634">
        <ele>230.2</ele>
        <time>2014-02-20T10:00:02.491Z</time>
      </trkpt>
      <trkpt lat="43.58798" lon="3.0864">
        <ele>229.9</ele>
        <time>2014-02-20T10:00:03.491Z</time>
      </trkpt>
      <trkpt lat="43.58798" lon="3.08646">
        <ele>229.4</ele>
        <time>2014-02-20T10:00:04.494Z</time>
      </trkpt>
      <trkpt lat="43.58797" lon="3.08652">
        <ele>228.8</ele>
        <time>2014-02-20T10:00:05.494Z</time>
      </trkpt>
      <trkpt lat="43.588" lon="3.08664">
        <ele>228.8</ele>
        <time>2014-02-20T10:00:07.495Z</time>
      </trkpt>
      <trkpt lat="43.58801" lon="3.0867">
        <ele>229.3</ele>
        <time>2014-02-20T10:00:08.494Z</time>
      </trkpt>
      <trkpt lat="43.58805" lon="3.08679">
        <ele>228.8</ele>
        <time>2014-02-20T10:00:10.495Z</time>
      </trkpt>
      <trkpt lat="43.58806" lon="3.08684">
        <ele>228.9</ele>
        <time>2014-02-20T10:00:11.495Z</time>
      </trkpt>
      <trkpt lat="43.58808" lon="3.08689">
        <ele>229</ele>
        <time>2014-02-20T10:00:12.494Z</time>
      </trkpt>
      <trkpt lat="43.5881" lon="3.08695">
        <ele>229</ele>
        <time>2014-02-20T10:00:13.495Z</time>
      </trkpt>
      <trkpt lat="43.58813" lon="3.08701">
        <ele>229.3</ele>
        <time>2014-02-20T10:00:14.496Z</time>
      </trkpt>
      <trkpt lat="43.58815" lon="3.08706">
        <ele>229.4</ele>
        <time>2014-02-20T10:00:15.501Z</time>
      </trkpt>
      <trkpt lat="43.58817" lon="3.08717">
        <ele>228.7</ele>
        <time>2014-02-20T10:00:17.491Z</time>
      </trkpt>
      <trkpt lat="43.58818" lon="3.08723">
        <ele>228.9</ele>
        <time>2014-02-20T10:00:19.197Z</time>
      </trkpt>
      <trkpt lat="43.58822" lon="3.0873">
        <ele>229.3</ele>
        <time>2014-02-20T10:00:20.491Z</time>
      </trkpt>
      <trkpt lat="43.58825" lon="3.08735">
        <ele>229.4</ele>
        <time>2014-02-20T10:00:21.489Z</time>
      </trkpt>
      <trkpt lat="43.58829" lon="3.08746">
        <ele>228.7</ele>
        <time>2014-02-20T10:00:23.490Z</time>
      </trkpt>
      <trkpt lat="43.58831" lon="3.08751">
        <ele>227.8</ele>
        <time>2014-02-20T10:00:24.488Z</time>
      </trkpt>
      <trkpt lat="43.58833" lon="3.08762">
        <ele>227.7</ele>
        <time>2014-02-20T10:00:26.492Z</time>
      </trkpt>
      <trkpt lat="43.58833" lon="3.08768">
        <ele>227.8</ele>
        <time>2014-02-20T10:00:27.489Z</time>
      </trkpt>
      <trkpt lat="43.58834" lon="3.08778">
        <ele>229</ele>
        <time>2014-02-20T10:00:29.491Z</time>
      </trkpt>
      <trkpt lat="43.58834" lon="3.08784">
        <ele>229.4</ele>
        <time>2014-02-20T10:00:30.488Z</time>
      </trkpt>
      <trkpt lat="43.58835" lon="3.08794">
        <ele>228.4</ele>
        <time>2014-02-20T10:00:32.499Z</time>
      </trkpt>
      <trkpt lat="43.58835" lon="3.08799">
        <ele>228.9</ele>
        <time>2014-02-20T10:00:33.490Z</time>
      </trkpt>
      <trkpt lat="43.58836" lon="3.0881">
        <ele>229.5</ele>
        <time>2014-02-20T10:00:35.490Z</time>
      </trkpt>
      <trkpt lat="43.58838" lon="3.08815">
        <ele>230.5</ele>
        <time>2014-02-20T10:00:36.488Z</time>
      </trkpt>
      <trkpt lat="43.5884" lon="3.08827">
        <ele>231.4</ele>
        <time>2014-02-20T10:00:38.491Z</time>
      </trkpt>
      <trkpt lat="43.58841" lon="3.08832">
        <ele>232.1</ele>
        <time>2014-02-20T10:00:39.491Z</time>
      </trkpt>
      <trkpt lat="43.58841" lon="3.08842">
        <ele>232.2</ele>
        <time>2014-02-20T10:00:41.492Z</time>
      </trkpt>
      <trkpt lat="43.58841" lon="3.08846">
        <ele>232.7</ele>
        <time>2014-02-20T10:00:42.491Z</time>
      </trkpt>
      <trkpt lat="43.58844" lon="3.08855">
        <ele>232.4</ele>
        <time>2014-02-20T10:00:44.491Z</time>
      </trkpt>
      <trkpt lat="43.58845" lon="3.08861">
        <ele>232</ele>
        <time>2014-02-20T10:00:45.491Z</time>
      </trkpt>
      <trkpt lat="43.58846" lon="3.08867">
        <ele>232.1</ele>
        <time>2014-02-20T10:00:46.491Z</time>
      </trkpt>
      <trkpt lat="43.58848" lon="3.08873">
        <ele>232.6</ele>
        <time>2014-02-20T10:00:47.609Z</time>
      </trkpt>
      <trkpt lat="43.58851" lon="3.08885">
        <ele>232.3</ele>
        <time>2014-02-20T10:00:49.494Z</time>
      </trkpt>
      <trkpt lat="43.58853" lon="3.0889">
        <ele>232.4</ele>
        <time>2014-02-20T10:00:50.493Z</time>
      </trkpt>
      <trkpt lat="43.58855" lon="3.08901">
        <ele>231.3</ele>
        <time>2014-02-20T10:00:52.513Z</time>
      </trkpt>
      <trkpt lat="43.58856" lon="3.08907">
        <ele>232.3</ele>
        <time>2014-02-20T10:00:53.491Z</time>
      </trkpt>
      <trkpt lat="43.58859" lon="3.08918">
        <ele>232.7</ele>
        <time>2014-02-20T10:00:55.492Z</time>
      </trkpt>
      <trkpt lat="43.58859" lon="3.08923">
        <ele>233.6</ele>
        <time>2014-02-20T10:00:56.492Z</time>
      </trkpt>
      <trkpt lat="43.58859" lon="3.08934">
        <ele>234.3</ele>
        <time>2014-02-20T10:00:58.490Z</time>
      </trkpt>
      <trkpt lat="43.58859" lon="3.0894">
        <ele>234.9</ele>
        <time>2014-02-20T10:00:59.491Z</time>
      </trkpt>
      <trkpt lat="43.58861" lon="3.08946">
        <ele>235.1</ele>
        <time>2014-02-20T10:01:00.490Z</time>
      </trkpt>
      <trkpt lat="43.58862" lon="3.08952">
        <ele>235.3</ele>
        <time>2014-02-20T10:01:01.491Z</time>
      </trkpt>
      <trkpt lat="43.58863" lon="3.08959">
        <ele>236.1</ele>
        <time>2014-02-20T10:01:02.491Z</time>
      </trkpt>
      <trkpt lat="43.58863" lon="3.08965">
        <ele>236.8</ele>
        <time>2014-02-20T10:01:03.489Z</time>
      </trkpt>
      <trkpt lat="43.58864" lon="3.08971">
        <ele>236.3</ele>
        <time>2014-02-20T10:01:04.492Z</time>
      </trkpt>
      <trkpt lat="43.58865" lon="3.08978">
        <ele>235.4</ele>
        <time>2014-02-20T10:01:05.491Z</time>
      </trkpt>
      <trkpt lat="43.58866" lon="3.08984">
        <ele>235.6</ele>
        <time>2014-02-20T10:01:06.489Z</time>
      </trkpt>
      <trkpt lat="43.58869" lon="3.0899">
        <ele>235.4</ele>
        <time>2014-02-20T10:01:07.492Z</time>
      </trkpt>
      <trkpt lat="43.58871" lon="3.08996">
        <ele>235.8</ele>
        <time>2014-02-20T10:01:08.491Z</time>
      </trkpt>
      <trkpt lat="43.58872" lon="3.09002">
        <ele>236.2</ele>
        <time>2014-02-20T10:01:09.491Z</time>
      </trkpt>
      <trkpt lat="43.58874" lon="3.09009">
        <ele>236.4</ele>
        <time>2014-02-20T10:01:10.491Z</time>
      </trkpt>
      <trkpt lat="43.58876" lon="3.09016">
        <ele>237.1</ele>
        <time>2014-02-20T10:01:11.544Z</time>
      </trkpt>
      <trkpt lat="43.58878" lon="3.09021">
        <ele>237.1</ele>
        <time>2014-02-20T10:01:12.489Z</time>
      </trkpt>
      <trkpt lat="43.58879" lon="3.09028">
        <ele>236.5</ele>
        <time>2014-02-20T10:01:13.491Z</time>
      </trkpt>
      <trkpt lat="43.58881" lon="3.09035">
        <ele>236.5</ele>
        <time>2014-02-20T10:01:14.492Z</time>
      </trkpt>
      <trkpt lat="43.58881" lon="3.09042">
        <ele>237.3</ele>
        <time>2014-02-20T10:01:15.491Z</time>
      </trkpt>
      <trkpt lat="43.58881" lon="3.0905">
        <ele>237</ele>
        <time>2014-02-20T10:01:17.093Z</time>
      </trkpt>
      <trkpt lat="43.58881" lon="3.09054">
        <ele>237.1</ele>
        <time>2014-02-20T10:01:17.493Z</time>
      </trkpt>
      <trkpt lat="43.58881" lon="3.09062">
        <ele>236.6</ele>
        <time>2014-02-20T10:01:18.508Z</time>
      </trkpt>
      <trkpt lat="43.5888" lon="3.09068">
        <ele>237.1</ele>
        <time>2014-02-20T10:01:19.523Z</time>
      </trkpt>
      <trkpt lat="43.5888" lon="3.0908">
        <ele>237.2</ele>
        <time>2014-02-20T10:01:21.495Z</time>
      </trkpt>
      <trkpt lat="43.5888" lon="3.09087">
        <ele>237.6</ele>
        <time>2014-02-20T10:01:22.497Z</time>
      </trkpt>
      <trkpt lat="43.58882" lon="3.09093">
        <ele>237.6</ele>
        <time>2014-02-20T10:01:23.498Z</time>
      </trkpt>
      <trkpt lat="43.58883" lon="3.09099">
        <ele>237.7</ele>
        <time>2014-02-20T10:01:24.498Z</time>
      </trkpt>
      <trkpt lat="43.58884" lon="3.09111">
        <ele>237.7</ele>
        <time>2014-02-20T10:01:26.531Z</time>
      </trkpt>
      <trkpt lat="43.58884" lon="3.09118">
        <ele>237.6</ele>
        <time>2014-02-20T10:01:27.499Z</time>
      </trkpt>
      <trkpt lat="43.58885" lon="3.09129">
        <ele>238.2</ele>
        <time>2014-02-20T10:01:29.497Z</time>
      </trkpt>
      <trkpt lat="43.58885" lon="3.09135">
        <ele>237.8</ele>
        <time>2014-02-20T10:01:30.496Z</time>
      </trkpt>
      <trkpt lat="43.58884" lon="3.09141">
        <ele>238.3</ele>
        <time>2014-02-20T10:01:31.498Z</time>
      </trkpt>
      <trkpt lat="43.58885" lon="3.09148">
        <ele>238.7</ele>
        <time>2014-02-20T10:01:32.499Z</time>
      </trkpt>
      <trkpt lat="43.58887" lon="3.09154">
        <ele>237.9</ele>
        <time>2014-02-20T10:01:33.495Z</time>
      </trkpt>
      <trkpt lat="43.58889" lon="3.0916">
        <ele>237.8</ele>
        <time>2014-02-20T10:01:34.500Z</time>
      </trkpt>
      <trkpt lat="43.58889" lon="3.09171">
        <ele>237.8</ele>
        <time>2014-02-20T10:01:36.496Z</time>
      </trkpt>
      <trkpt lat="43.5889" lon="3.09177">
        <ele>237.8</ele>
        <time>2014-02-20T10:01:37.495Z</time>
      </trkpt>
      <trkpt lat="43.5889" lon="3.09187">
        <ele>237.1</ele>
        <time>2014-02-20T10:01:39.526Z</time>
      </trkpt>
      <trkpt lat="43.58889" lon="3.09193">
        <ele>237.1</ele>
        <time>2014-02-20T10:01:40.505Z</time>
      </trkpt>
      <trkpt lat="43.5889" lon="3.092">
        <ele>236.4</ele>
        <time>2014-02-20T10:01:41.498Z</time>
      </trkpt>
      <trkpt lat="43.5889" lon="3.09207">
        <ele>236.3</ele>
        <time>2014-02-20T10:01:42.495Z</time>
      </trkpt>
      <trkpt lat="43.58891" lon="3.09218">
        <ele>236.5</ele>
        <time>2014-02-20T10:01:44.498Z</time>
      </trkpt>
      <trkpt lat="43.58891" lon="3.09224">
        <ele>236.6</ele>
        <time>2014-02-20T10:01:45.504Z</time>
      </trkpt>
      <trkpt lat="43.58892" lon="3.09234">
        <ele>237.6</ele>
        <time>2014-02-20T10:01:47.640Z</time>
      </trkpt>
      <trkpt lat="43.58892" lon="3.09239">
        <ele>237.5</ele>
        <time>2014-02-20T10:01:48.504Z</time>
      </trkpt>
      <trkpt lat="43.58892" lon="3.09245">
        <ele>237.6</ele>
        <time>2014-02-20T10:01:49.543Z</time>
      </trkpt>
      <trkpt lat="43.58893" lon="3.09252">
        <ele>237.5</ele>
        <time>2014-02-20T10:01:50.500Z</time>
      </trkpt>
      <trkpt lat="43.58893" lon="3.09258">
        <ele>237.6</ele>
        <time>2014-02-20T10:01:51.499Z</time>
      </trkpt>
      <trkpt lat="43.58894" lon="3.09265">
        <ele>238.1</ele>
        <time>2014-02-20T10:01:52.501Z</time>
      </trkpt>
      <trkpt lat="43.58894" lon="3.09271">
        <ele>238.7</ele>
        <time>2014-02-20T10:01:53.507Z</time>
      </trkpt>
      <trkpt lat="43.58894" lon="3.09278">
        <ele>238.8</ele>
        <time>2014-02-20T10:01:54.497Z</time>
      </trkpt>
      <trkpt lat="43.58894" lon="3.0929">
        <ele>238.3</ele>
        <time>2014-02-20T10:01:56.499Z</time>
      </trkpt>
      <trkpt lat="43.58894" lon="3.09296">
        <ele>238</ele>
        <time>2014-02-20T10:01:57.501Z</time>
      </trkpt>
      <trkpt lat="43.58895" lon="3.09303">
        <ele>237.5</ele>
        <time>2014-02-20T10:01:58.499Z</time>
      </trkpt>
      <trkpt lat="43.58895" lon="3.09309">
        <ele>236.9</ele>
        <time>2014-02-20T10:01:59.499Z</time>
      </trkpt>
      <trkpt lat="43.58895" lon="3.09322">
        <ele>237.2</ele>
        <time>2014-02-20T10:02:01.505Z</time>
      </trkpt>
      <trkpt lat="43.58895" lon="3.09328">
        <ele>237.1</ele>
        <time>2014-02-20T10:02:02.503Z</time>
      </trkpt>
      <trkpt lat="43.58893" lon="3.0934">
        <ele>237</ele>
        <time>2014-02-20T10:02:04.498Z</time>
      </trkpt>
      <trkpt lat="43.58892" lon="3.09346">
        <ele>237</ele>
        <time>2014-02-20T10:02:05.498Z</time>
      </trkpt>
      <trkpt lat="43.58891" lon="3.09353">
        <ele>236.8</ele>
        <time>2014-02-20T10:02:06.515Z</time>
      </trkpt>
      <trkpt lat="43.58891" lon="3.09359">
        <ele>236.8</ele>
        <time>2014-02-20T10:02:07.496Z</time>
      </trkpt>
      <trkpt lat="43.58891" lon="3.09366">
        <ele>236.6</ele>
        <time>2014-02-20T10:02:08.497Z</time>
      </trkpt>
      <trkpt lat="43.5889" lon="3.09372">
        <ele>236.4</ele>
        <time>2014-02-20T10:02:09.495Z</time>
      </trkpt>
      <trkpt lat="43.58889" lon="3.09384">
        <ele>235.1</ele>
        <time>2014-02-20T10:02:11.563Z</time>
      </trkpt>
      <trkpt lat="43.58889" lon="3.0939">
        <ele>234.8</ele>
        <time>2014-02-20T10:02:12.494Z</time>
      </trkpt>
      <trkpt lat="43.58887" lon="3.09402">
        <ele>235.3</ele>
        <time>2014-02-20T10:02:14.499Z</time>
      </trkpt>
      <trkpt lat="43.58885" lon="3.09407">
        <ele>235.7</ele>
        <time>2014-02-20T10:02:15.495Z</time>
      </trkpt>
      <trkpt lat="43.58884" lon="3.09417">
        <ele>235.3</ele>
        <time>2014-02-20T10:02:17.497Z</time>
      </trkpt>
      <trkpt lat="43.58884" lon="3.09423">
        <ele>235.4</ele>
        <time>2014-02-20T10:02:18.496Z</time>
      </trkpt>
      <trkpt lat="43.58881" lon="3.09435">
        <ele>236.5</ele>
        <time>2014-02-20T10:02:20.492Z</time>
      </trkpt>
      <trkpt lat="43.58882" lon="3.09441">
        <ele>235.8</ele>
        <time>2014-02-20T10:02:21.496Z</time>
      </trkpt>
      <trkpt lat="43.58881" lon="3.09449">
        <ele>236.1</ele>
        <time>2014-02-20T10:02:22.493Z</time>
      </trkpt>
      <trkpt lat="43.58881" lon="3.09456">
        <ele>236.3</ele>
        <time>2014-02-20T10:02:23.491Z</time>
      </trkpt>
      <trkpt lat="43.58881" lon="3.09463">
        <ele>236.7</ele>
        <time>2014-02-20T10:02:24.488Z</time>
      </trkpt>
      <trkpt lat="43.5888" lon="3.0947">
        <ele>235.8</ele>
        <time>2014-02-20T10:02:25.491Z</time>
      </trkpt>
      <trkpt lat="43.58879" lon="3.09477">
        <ele>236</ele>
        <time>2014-02-20T10:02:26.492Z</time>
      </trkpt>
      <trkpt lat="43.58879" lon="3.09483">
        <ele>235.9</ele>
        <time>2014-02-20T10:02:27.490Z</time>
      </trkpt>
      <trkpt lat="43.58877" lon="3.0949">
        <ele>235.9</ele>
        <time>2014-02-20T10:02:28.493Z</time>
      </trkpt>
      <trkpt lat="43.58876" lon="3.09497">
        <ele>236.1</ele>
        <time>2014-02-20T10:02:29.491Z</time>
      </trkpt>
      <trkpt lat="43.58875" lon="3.09503">
        <ele>235.9</ele>
        <time>2014-02-20T10:02:30.488Z</time>
      </trkpt>
      <trkpt lat="43.58874" lon="3.09509">
        <ele>235.6</ele>
        <time>2014-02-20T10:02:31.491Z</time>
      </trkpt>
      <trkpt lat="43.58871" lon="3.0952">
        <ele>235.3</ele>
        <time>2014-02-20T10:02:33.489Z</time>
      </trkpt>
      <trkpt lat="43.58869" lon="3.09526">
        <ele>235.6</ele>
        <time>2014-02-20T10:02:34.491Z</time>
      </trkpt>
      <trkpt lat="43.58869" lon="3.09536">
        <ele>235.5</ele>
        <time>2014-02-20T10:02:36.489Z</time>
      </trkpt>
      <trkpt lat="43.5887" lon="3.0954">
        <ele>235.8</ele>
        <time>2014-02-20T10:02:37.495Z</time>
      </trkpt>
      <trkpt lat="43.58869" lon="3.09551">
        <ele>235.3</ele>
        <time>2014-02-20T10:02:39.499Z</time>
      </trkpt>
      <trkpt lat="43.58869" lon="3.09556">
        <ele>235.3</ele>
        <time>2014-02-20T10:02:40.499Z</time>
      </trkpt>
      <trkpt lat="43.58868" lon="3.09563">
        <ele>234.6</ele>
        <time>2014-02-20T10:02:41.498Z</time>
      </trkpt>
      <trkpt lat="43.58868" lon="3.09571">
        <ele>234.3</ele>
        <time>2014-02-20T10:02:42.522Z</time>
      </trkpt>
      <trkpt lat="43.58868" lon="3.09578">
        <ele>234.2</ele>
        <time>2014-02-20T10:02:43.505Z</time>
      </trkpt>
      <trkpt lat="43.58868" lon="3.09584">
        <ele>233.7</ele>
        <time>2014-02-20T10:02:44.493Z</time>
      </trkpt>
      <trkpt lat="43.58867" lon="3.09596">
        <ele>232.4</ele>
        <time>2014-02-20T10:02:46.499Z</time>
      </trkpt>
      <trkpt lat="43.58866" lon="3.09602">
        <ele>232.2</ele>
        <time>2014-02-20T10:02:47.498Z</time>
      </trkpt>
      <trkpt lat="43.58867" lon="3.09613">
        <ele>232</ele>
        <time>2014-02-20T10:02:49.499Z</time>
      </trkpt>
      <trkpt lat="43.58869" lon="3.09619">
        <ele>231.7</ele>
        <time>2014-02-20T10:02:50.499Z</time>
      </trkpt>
      <trkpt lat="43.5887" lon="3.09631">
        <ele>232.1</ele>
        <time>2014-02-20T10:02:52.496Z</time>
      </trkpt>
      <trkpt lat="43.5887" lon="3.09639">
        <ele>231.7</ele>
        <time>2014-02-20T10:02:53.497Z</time>
      </trkpt>
      <trkpt lat="43.58871" lon="3.09645">
        <ele>230.6</ele>
        <time>2014-02-20T10:02:54.495Z</time>
      </trkpt>
      <trkpt lat="43.58873" lon="3.09652">
        <ele>228.8</ele>
        <time>2014-02-20T10:02:55.497Z</time>
      </trkpt>
      <trkpt lat="43.58875" lon="3.09658">
        <ele>229.4</ele>
        <time>2014-02-20T10:02:56.497Z</time>
      </trkpt>
      <trkpt lat="43.58877" lon="3.09665">
        <ele>230.2</ele>
        <time>2014-02-20T10:02:57.495Z</time>
      </trkpt>
      <trkpt lat="43.58879" lon="3.09672">
        <ele>231.4</ele>
        <time>2014-02-20T10:02:58.497Z</time>
      </trkpt>
      <trkpt lat="43.58881" lon="3.09678">
        <ele>230.8</ele>
        <time>2014-02-20T10:02:59.497Z</time>
      </trkpt>
      <trkpt lat="43.58884" lon="3.09689">
        <ele>229.5</ele>
        <time>2014-02-20T10:03:01.492Z</time>
      </trkpt>
      <trkpt lat="43.58885" lon="3.09695">
        <ele>229.9</ele>
        <time>2014-02-20T10:03:02.492Z</time>
      </trkpt>
      <trkpt lat="43.58887" lon="3.097">
        <ele>229.5</ele>
        <time>2014-02-20T10:03:03.491Z</time>
      </trkpt>
      <trkpt lat="43.58889" lon="3.09707">
        <ele>230.3</ele>
        <time>2014-02-20T10:03:04.491Z</time>
      </trkpt>
      <trkpt lat="43.58893" lon="3.09718">
        <ele>229.5</ele>
        <time>2014-02-20T10:03:06.491Z</time>
      </trkpt>
      <trkpt lat="43.58894" lon="3.09723">
        <ele>229.7</ele>
        <time>2014-02-20T10:03:07.493Z</time>
      </trkpt>
      <trkpt lat="43.58897" lon="3.09732">
        <ele>228.7</ele>
        <time>2014-02-20T10:03:09.491Z</time>
      </trkpt>
      <trkpt lat="43.58899" lon="3.09738">
        <ele>229.8</ele>
        <time>2014-02-20T10:03:10.491Z</time>
      </trkpt>
      <trkpt lat="43.589" lon="3.09745">
        <ele>229.7</ele>
        <time>2014-02-20T10:03:11.493Z</time>
      </trkpt>
      <trkpt lat="43.58901" lon="3.09752">
        <ele>230.7</ele>
        <time>2014-02-20T10:03:12.491Z</time>
      </trkpt>
      <trkpt lat="43.58901" lon="3.09763">
        <ele>231.9</ele>
        <time>2014-02-20T10:03:14.491Z</time>
      </trkpt>
      <trkpt lat="43.58902" lon="3.09768">
        <ele>232.7</ele>
        <time>2014-02-20T10:03:15.488Z</time>
      </trkpt>
      <trkpt lat="43.58905" lon="3.09777">
        <ele>232.6</ele>
        <time>2014-02-20T10:03:17.492Z</time>
      </trkpt>
      <trkpt lat="43.58908" lon="3.09783">
        <ele>233.1</ele>
        <time>2014-02-20T10:03:18.489Z</time>
      </trkpt>
      <trkpt lat="43.58911" lon="3.09789">
        <ele>233.2</ele>
        <time>2014-02-20T10:03:19.491Z</time>
      </trkpt>
      <trkpt lat="43.58915" lon="3.09796">
        <ele>233.2</ele>
        <time>2014-02-20T10:03:20.491Z</time>
      </trkpt>
      <trkpt lat="43.58918" lon="3.09802">
        <ele>232.8</ele>
        <time>2014-02-20T10:03:21.490Z</time>
      </trkpt>
      <trkpt lat="43.58921" lon="3.09808">
        <ele>232.5</ele>
        <time>2014-02-20T10:03:22.689Z</time>
      </trkpt>
      <trkpt lat="43.58925" lon="3.09816">
        <ele>233.5</ele>
        <time>2014-02-20T10:03:24.491Z</time>
      </trkpt>
      <trkpt lat="43.58928" lon="3.09822">
        <ele>233.6</ele>
        <time>2014-02-20T10:03:25.489Z</time>
      </trkpt>
      <trkpt lat="43.58933" lon="3.09831">
        <ele>232.3</ele>
        <time>2014-02-20T10:03:27.498Z</time>
      </trkpt>
      <trkpt lat="43.58936" lon="3.09836">
        <ele>231.7</ele>
        <time>2014-02-20T10:03:28.497Z</time>
      </trkpt>
      <trkpt lat="43.58942" lon="3.09845">
        <ele>231.1</ele>
        <time>2014-02-20T10:03:30.491Z</time>
      </trkpt>
      <trkpt lat="43.58945" lon="3.09849">
        <ele>230.5</ele>
        <time>2014-02-20T10:03:31.491Z</time>
      </trkpt>
      <trkpt lat="43.58951" lon="3.09857">
        <ele>230</ele>
        <time>2014-02-20T10:03:33.493Z</time>
      </trkpt>
      <trkpt lat="43.58954" lon="3.0986">
        <ele>229.8</ele>
        <time>2014-02-20T10:03:34.497Z</time>
      </trkpt>
      <trkpt lat="43.58959" lon="3.09867">
        <ele>231</ele>
        <time>2014-02-20T10:03:36.498Z</time>
      </trkpt>
      <trkpt lat="43.58962" lon="3.09872">
        <ele>231.4</ele>
        <time>2014-02-20T10:03:37.501Z</time>
      </trkpt>
      <trkpt lat="43.58968" lon="3.09881">
        <ele>230.9</ele>
        <time>2014-02-20T10:03:40.997Z</time>
      </trkpt>
      <trkpt lat="43.5897" lon="3.09886">
        <ele>230.7</ele>
        <time>2014-02-20T10:03:41.489Z</time>
      </trkpt>
      <trkpt lat="43.58973" lon="3.09892">
        <ele>230.4</ele>
        <time>2014-02-20T10:03:42.493Z</time>
      </trkpt>
      <trkpt lat="43.58976" lon="3.09897">
        <ele>229.7</ele>
        <time>2014-02-20T10:03:43.498Z</time>
      </trkpt>
      <trkpt lat="43.5898" lon="3.09902">
        <ele>229.4</ele>
        <time>2014-02-20T10:03:44.495Z</time>
      </trkpt>
      <trkpt lat="43.58984" lon="3.09906">
        <ele>229.6</ele>
        <time>2014-02-20T10:03:45.498Z</time>
      </trkpt>
      <trkpt lat="43.5899" lon="3.0991">
        <ele>227.7</ele>
        <time>2014-02-20T10:03:47.497Z</time>
      </trkpt>
      <trkpt lat="43.58993" lon="3.09912">
        <ele>226.5</ele>
        <time>2014-02-20T10:03:48.495Z</time>
      </trkpt>
      <trkpt lat="43.58998" lon="3.09914">
        <ele>225.9</ele>
        <time>2014-02-20T10:03:49.498Z</time>
      </trkpt>
      <trkpt lat="43.59002" lon="3.09918">
        <ele>225.5</ele>
        <time>2014-02-20T10:03:50.492Z</time>
      </trkpt>
      <trkpt lat="43.59007" lon="3.09921">
        <ele>225.1</ele>
        <time>2014-02-20T10:03:51.490Z</time>
      </trkpt>
      <trkpt lat="43.59013" lon="3.09926">
        <ele>225.5</ele>
        <time>2014-02-20T10:03:52.493Z</time>
      </trkpt>
      <trkpt lat="43.59019" lon="3.09933">
        <ele>226.9</ele>
        <time>2014-02-20T10:03:53.491Z</time>
      </trkpt>
      <trkpt lat="43.59025" lon="3.09939">
        <ele>227.2</ele>
        <time>2014-02-20T10:03:54.490Z</time>
      </trkpt>
      <trkpt lat="43.59029" lon="3.09945">
        <ele>227.5</ele>
        <time>2014-02-20T10:03:55.492Z</time>
      </trkpt>
      <trkpt lat="43.59032" lon="3.09951">
        <ele>227.6</ele>
        <time>2014-02-20T10:03:56.738Z</time>
      </trkpt>
      <trkpt lat="43.59035" lon="3.09954">
        <ele>227.7</ele>
        <time>2014-02-20T10:03:57.489Z</time>
      </trkpt>
      <trkpt lat="43.59039" lon="3.09959">
        <ele>228.3</ele>
        <time>2014-02-20T10:03:58.491Z</time>
      </trkpt>
      <trkpt lat="43.59043" lon="3.09963">
        <ele>227.9</ele>
        <time>2014-02-20T10:03:59.500Z</time>
      </trkpt>
      <trkpt lat="43.59047" lon="3.09967">
        <ele>228.1</ele>
        <time>2014-02-20T10:04:00.496Z</time>
      </trkpt>
      <trkpt lat="43.5905" lon="3.09971">
        <ele>227.9</ele>
        <time>2014-02-20T10:04:01.492Z</time>
      </trkpt>
      <trkpt lat="43.59054" lon="3.09974">
        <ele>227.5</ele>
        <time>2014-02-20T10:04:02.491Z</time>
      </trkpt>
      <trkpt lat="43.59058" lon="3.09978">
        <ele>226.3</ele>
        <time>2014-02-20T10:04:03.490Z</time>
      </trkpt>
      <trkpt lat="43.59063" lon="3.09983">
        <ele>227.3</ele>
        <time>2014-02-20T10:04:04.491Z</time>
      </trkpt>
      <trkpt lat="43.59067" lon="3.09987">
        <ele>226.5</ele>
        <time>2014-02-20T10:04:05.492Z</time>
      </trkpt>
      <trkpt lat="43.59071" lon="3.09991">
        <ele>226.7</ele>
        <time>2014-02-20T10:04:06.491Z</time>
      </trkpt>
      <trkpt lat="43.59075" lon="3.09995">
        <ele>226.7</ele>
        <time>2014-02-20T10:04:07.492Z</time>
      </trkpt>
      <trkpt lat="43.5908" lon="3.1">
        <ele>227.7</ele>
        <time>2014-02-20T10:04:08.491Z</time>
      </trkpt>
      <trkpt lat="43.59083" lon="3.10005">
        <ele>228</ele>
        <time>2014-02-20T10:04:09.491Z</time>
      </trkpt>
      <trkpt lat="43.59087" lon="3.1001">
        <ele>228.9</ele>
        <time>2014-02-20T10:04:10.492Z</time>
      </trkpt>
      <trkpt lat="43.5909" lon="3.10015">
        <ele>229</ele>
        <time>2014-02-20T10:04:11.491Z</time>
      </trkpt>
      <trkpt lat="43.59094" lon="3.10019">
        <ele>229</ele>
        <time>2014-02-20T10:04:12.492Z</time>
      </trkpt>
      <trkpt lat="43.59097" lon="3.10023">
        <ele>228.8</ele>
        <time>2014-02-20T10:04:13.493Z</time>
      </trkpt>
      <trkpt lat="43.59102" lon="3.10028">
        <ele>229.7</ele>
        <time>2014-02-20T10:04:14.535Z</time>
      </trkpt>
      <trkpt lat="43.59106" lon="3.10033">
        <ele>229.7</ele>
        <time>2014-02-20T10:04:15.632Z</time>
      </trkpt>
      <trkpt lat="43.59109" lon="3.10037">
        <ele>229.6</ele>
        <time>2014-02-20T10:04:16.492Z</time>
      </trkpt>
      <trkpt lat="43.59115" lon="3.10046">
        <ele>230.4</ele>
        <time>2014-02-20T10:04:18.489Z</time>
      </trkpt>
      <trkpt lat="43.59118" lon="3.1005">
        <ele>230.8</ele>
        <time>2014-02-20T10:04:19.491Z</time>
      </trkpt>
      <trkpt lat="43.59122" lon="3.10054">
        <ele>230.1</ele>
        <time>2014-02-20T10:04:20.491Z</time>
      </trkpt>
      <trkpt lat="43.59126" lon="3.10059">
        <ele>229.9</ele>
        <time>2014-02-20T10:04:21.491Z</time>
      </trkpt>
      <trkpt lat="43.5913" lon="3.10064">
        <ele>229.5</ele>
        <time>2014-02-20T10:04:22.492Z</time>
      </trkpt>
      <trkpt lat="43.59133" lon="3.10069">
        <ele>229.7</ele>
        <time>2014-02-20T10:04:23.491Z</time>
      </trkpt>
      <trkpt lat="43.59136" lon="3.10075">
        <ele>230.5</ele>
        <time>2014-02-20T10:04:24.491Z</time>
      </trkpt>
      <trkpt lat="43.59139" lon="3.1008">
        <ele>230.4</ele>
        <time>2014-02-20T10:04:25.493Z</time>
      </trkpt>
      <trkpt lat="43.59142" lon="3.10085">
        <ele>230.4</ele>
        <time>2014-02-20T10:04:26.492Z</time>
      </trkpt>
      <trkpt lat="43.59145" lon="3.1009">
        <ele>232</ele>
        <time>2014-02-20T10:04:27.492Z</time>
      </trkpt>
      <trkpt lat="43.59148" lon="3.10095">
        <ele>231.7</ele>
        <time>2014-02-20T10:04:28.493Z</time>
      </trkpt>
      <trkpt lat="43.59152" lon="3.101">
        <ele>232.4</ele>
        <time>2014-02-20T10:04:29.492Z</time>
      </trkpt>
      <trkpt lat="43.59155" lon="3.10105">
        <ele>233.2</ele>
        <time>2014-02-20T10:04:30.495Z</time>
      </trkpt>
      <trkpt lat="43.59157" lon="3.10109">
        <ele>233.3</ele>
        <time>2014-02-20T10:04:31.501Z</time>
      </trkpt>
      <trkpt lat="43.59162" lon="3.10119">
        <ele>233.6</ele>
        <time>2014-02-20T10:04:33.508Z</time>
      </trkpt>
      <trkpt lat="43.59164" lon="3.10124">
        <ele>233.4</ele>
        <time>2014-02-20T10:04:34.498Z</time>
      </trkpt>
      <trkpt lat="43.59167" lon="3.10129">
        <ele>233.4</ele>
        <time>2014-02-20T10:04:35.497Z</time>
      </trkpt>
      <trkpt lat="43.5917" lon="3.10134">
        <ele>233.5</ele>
        <time>2014-02-20T10:04:36.497Z</time>
      </trkpt>
      <trkpt lat="43.59173" lon="3.1014">
        <ele>233.4</ele>
        <time>2014-02-20T10:04:37.498Z</time>
      </trkpt>
      <trkpt lat="43.59175" lon="3.10145">
        <ele>232.7</ele>
        <time>2014-02-20T10:04:38.497Z</time>
      </trkpt>
      <trkpt lat="43.59178" lon="3.10149">
        <ele>232.4</ele>
        <time>2014-02-20T10:04:39.499Z</time>
      </trkpt>
      <trkpt lat="43.5918" lon="3.10155">
        <ele>232.4</ele>
        <time>2014-02-20T10:04:42.032Z</time>
      </trkpt>
      <trkpt lat="43.59183" lon="3.10159">
        <ele>232</ele>
        <time>2014-02-20T10:04:42.489Z</time>
      </trkpt>
      <trkpt lat="43.59187" lon="3.10166">
        <ele>231.9</ele>
        <time>2014-02-20T10:04:43.497Z</time>
      </trkpt>
      <trkpt lat="43.59189" lon="3.10171">
        <ele>232.2</ele>
        <time>2014-02-20T10:04:44.498Z</time>
      </trkpt>
      <trkpt lat="43.59192" lon="3.10177">
        <ele>232.4</ele>
        <time>2014-02-20T10:04:45.497Z</time>
      </trkpt>
      <trkpt lat="43.59195" lon="3.10183">
        <ele>232.9</ele>
        <time>2014-02-20T10:04:46.498Z</time>
      </trkpt>
      <trkpt lat="43.59196" lon="3.10189">
        <ele>232.9</ele>
        <time>2014-02-20T10:04:47.500Z</time>
      </trkpt>
      <trkpt lat="43.592" lon="3.102">
        <ele>233.5</ele>
        <time>2014-02-20T10:04:49.501Z</time>
      </trkpt>
      <trkpt lat="43.59202" lon="3.10205">
        <ele>233.7</ele>
        <time>2014-02-20T10:04:50.500Z</time>
      </trkpt>
      <trkpt lat="43.59205" lon="3.10214">
        <ele>233.3</ele>
        <time>2014-02-20T10:04:52.497Z</time>
      </trkpt>
      <trkpt lat="43.59206" lon="3.1022">
        <ele>233.6</ele>
        <time>2014-02-20T10:04:53.497Z</time>
      </trkpt>
      <trkpt lat="43.59208" lon="3.10226">
        <ele>234</ele>
        <time>2014-02-20T10:04:54.498Z</time>
      </trkpt>
      <trkpt lat="43.59211" lon="3.10231">
        <ele>234.3</ele>
        <time>2014-02-20T10:04:55.498Z</time>
      </trkpt>
      <trkpt lat="43.59214" lon="3.10241">
        <ele>234.6</ele>
        <time>2014-02-20T10:04:57.502Z</time>
      </trkpt>
      <trkpt lat="43.59215" lon="3.10247">
        <ele>234.7</ele>
        <time>2014-02-20T10:04:58.498Z</time>
      </trkpt>
      <trkpt lat="43.59214" lon="3.10256">
        <ele>234.9</ele>
        <time>2014-02-20T10:05:00.494Z</time>
      </trkpt>
      <trkpt lat="43.59214" lon="3.10262">
        <ele>234.6</ele>
        <time>2014-02-20T10:05:01.497Z</time>
      </trkpt>
      <trkpt lat="43.59216" lon="3.10273">
        <ele>234.3</ele>
        <time>2014-02-20T10:05:03.499Z</time>
      </trkpt>
      <trkpt lat="43.59217" lon="3.10278">
        <ele>233.6</ele>
        <time>2014-02-20T10:05:04.502Z</time>
      </trkpt>
      <trkpt lat="43.59219" lon="3.10284">
        <ele>233.5</ele>
        <time>2014-02-20T10:05:05.498Z</time>
      </trkpt>
      <trkpt lat="43.59222" lon="3.10291">
        <ele>233.2</ele>
        <time>2014-02-20T10:05:06.497Z</time>
      </trkpt>
      <trkpt lat="43.59224" lon="3.10298">
        <ele>233.5</ele>
        <time>2014-02-20T10:05:07.498Z</time>
      </trkpt>
      <trkpt lat="43.59225" lon="3.10304">
        <ele>233</ele>
        <time>2014-02-20T10:05:08.500Z</time>
      </trkpt>
      <trkpt lat="43.59226" lon="3.10315">
        <ele>233.1</ele>
        <time>2014-02-20T10:05:10.500Z</time>
      </trkpt>
      <trkpt lat="43.59228" lon="3.1032">
        <ele>232.9</ele>
        <time>2014-02-20T10:05:11.499Z</time>
      </trkpt>
      <trkpt lat="43.59231" lon="3.10325">
        <ele>232.8</ele>
        <time>2014-02-20T10:05:12.495Z</time>
      </trkpt>
      <trkpt lat="43.59233" lon="3.10331">
        <ele>233.8</ele>
        <time>2014-02-20T10:05:13.493Z</time>
      </trkpt>
      <trkpt lat="43.59236" lon="3.10338">
        <ele>234.2</ele>
        <time>2014-02-20T10:05:14.494Z</time>
      </trkpt>
      <trkpt lat="43.59237" lon="3.10345">
        <ele>234.9</ele>
        <time>2014-02-20T10:05:15.491Z</time>
      </trkpt>
      <trkpt lat="43.59238" lon="3.10351">
        <ele>234.9</ele>
        <time>2014-02-20T10:05:16.492Z</time>
      </trkpt>
      <trkpt lat="43.5924" lon="3.10358">
        <ele>234.2</ele>
        <time>2014-02-20T10:05:17.491Z</time>
      </trkpt>
      <trkpt lat="43.59242" lon="3.10365">
        <ele>234.3</ele>
        <time>2014-02-20T10:05:18.491Z</time>
      </trkpt>
      <trkpt lat="43.59244" lon="3.10372">
        <ele>234</ele>
        <time>2014-02-20T10:05:19.491Z</time>
      </trkpt>
      <trkpt lat="43.59246" lon="3.10378">
        <ele>233.8</ele>
        <time>2014-02-20T10:05:20.492Z</time>
      </trkpt>
      <trkpt lat="43.59248" lon="3.10384">
        <ele>233.6</ele>
        <time>2014-02-20T10:05:21.491Z</time>
      </trkpt>
      <trkpt lat="43.5925" lon="3.10396">
        <ele>234.2</ele>
        <time>2014-02-20T10:05:23.493Z</time>
      </trkpt>
      <trkpt lat="43.59251" lon="3.10402">
        <ele>234.3</ele>
        <time>2014-02-20T10:05:24.498Z</time>
      </trkpt>
      <trkpt lat="43.59251" lon="3.10408">
        <ele>234</ele>
        <time>2014-02-20T10:05:25.499Z</time>
      </trkpt>
      <trkpt lat="43.59252" lon="3.10415">
        <ele>233.6</ele>
        <time>2014-02-20T10:05:27.016Z</time>
      </trkpt>
      <trkpt lat="43.59254" lon="3.10426">
        <ele>234.3</ele>
        <time>2014-02-20T10:05:28.500Z</time>
      </trkpt>
      <trkpt lat="43.59255" lon="3.10431">
        <ele>234.8</ele>
        <time>2014-02-20T10:05:29.499Z</time>
      </trkpt>
      <trkpt lat="43.59256" lon="3.10438">
        <ele>235.2</ele>
        <time>2014-02-20T10:05:31.504Z</time>
      </trkpt>
      <trkpt lat="43.59258" lon="3.10445">
        <ele>235.9</ele>
        <time>2014-02-20T10:05:32.491Z</time>
      </trkpt>
      <trkpt lat="43.59259" lon="3.10453">
        <ele>236</ele>
        <time>2014-02-20T10:05:33.495Z</time>
      </trkpt>
      <trkpt lat="43.59261" lon="3.10459">
        <ele>235.9</ele>
        <time>2014-02-20T10:05:34.495Z</time>
      </trkpt>
      <trkpt lat="43.59262" lon="3.10466">
        <ele>235.9</ele>
        <time>2014-02-20T10:05:35.497Z</time>
      </trkpt>
      <trkpt lat="43.59264" lon="3.10472">
        <ele>235.7</ele>
        <time>2014-02-20T10:05:36.496Z</time>
      </trkpt>
      <trkpt lat="43.59266" lon="3.10478">
        <ele>236.1</ele>
        <time>2014-02-20T10:05:37.498Z</time>
      </trkpt>
      <trkpt lat="43.59267" lon="3.10484">
        <ele>236.3</ele>
        <time>2014-02-20T10:05:38.497Z</time>
      </trkpt>
      <trkpt lat="43.59268" lon="3.1049">
        <ele>236.4</ele>
        <time>2014-02-20T10:05:39.496Z</time>
      </trkpt>
      <trkpt lat="43.59271" lon="3.10497">
        <ele>236.7</ele>
        <time>2014-02-20T10:05:40.497Z</time>
      </trkpt>
      <trkpt lat="43.59272" lon="3.10504">
        <ele>237.6</ele>
        <time>2014-02-20T10:05:41.492Z</time>
      </trkpt>
      <trkpt lat="43.59272" lon="3.1051">
        <ele>237</ele>
        <time>2014-02-20T10:05:42.491Z</time>
      </trkpt>
      <trkpt lat="43.59273" lon="3.10516">
        <ele>236.2</ele>
        <time>2014-02-20T10:05:43.492Z</time>
      </trkpt>
      <trkpt lat="43.59273" lon="3.10523">
        <ele>237.2</ele>
        <time>2014-02-20T10:05:44.491Z</time>
      </trkpt>
      <trkpt lat="43.59273" lon="3.1053">
        <ele>236.3</ele>
        <time>2014-02-20T10:05:45.488Z</time>
      </trkpt>
      <trkpt lat="43.59273" lon="3.10536">
        <ele>236.4</ele>
        <time>2014-02-20T10:05:46.491Z</time>
      </trkpt>
      <trkpt lat="43.59274" lon="3.10543">
        <ele>235.6</ele>
        <time>2014-02-20T10:05:47.492Z</time>
      </trkpt>
      <trkpt lat="43.59276" lon="3.10549">
        <ele>235.9</ele>
        <time>2014-02-20T10:05:48.491Z</time>
      </trkpt>
      <trkpt lat="43.59278" lon="3.10554">
        <ele>236.4</ele>
        <time>2014-02-20T10:05:49.494Z</time>
      </trkpt>
      <trkpt lat="43.5928" lon="3.1056">
        <ele>235.7</ele>
        <time>2014-02-20T10:05:50.491Z</time>
      </trkpt>
      <trkpt lat="43.59281" lon="3.10569">
        <ele>236.1</ele>
        <time>2014-02-20T10:05:52.491Z</time>
      </trkpt>
      <trkpt lat="43.59281" lon="3.10576">
        <ele>237.4</ele>
        <time>2014-02-20T10:05:53.492Z</time>
      </trkpt>
      <trkpt lat="43.59282" lon="3.10582">
        <ele>237.7</ele>
        <time>2014-02-20T10:05:54.490Z</time>
      </trkpt>
      <trkpt lat="43.59283" lon="3.10588">
        <ele>238</ele>
        <time>2014-02-20T10:05:55.491Z</time>
      </trkpt>
      <trkpt lat="43.59284" lon="3.10595">
        <ele>238.3</ele>
        <time>2014-02-20T10:05:56.491Z</time>
      </trkpt>
      <trkpt lat="43.59286" lon="3.10601">
        <ele>238.4</ele>
        <time>2014-02-20T10:05:57.490Z</time>
      </trkpt>
      <trkpt lat="43.59287" lon="3.10608">
        <ele>237.6</ele>
        <time>2014-02-20T10:05:58.492Z</time>
      </trkpt>
      <trkpt lat="43.59289" lon="3.10615">
        <ele>237.4</ele>
        <time>2014-02-20T10:05:59.498Z</time>
      </trkpt>
      <trkpt lat="43.5929" lon="3.10622">
        <ele>237.4</ele>
        <time>2014-02-20T10:06:00.497Z</time>
      </trkpt>
      <trkpt lat="43.59293" lon="3.10629">
        <ele>237.8</ele>
        <time>2014-02-20T10:06:01.991Z</time>
      </trkpt>
      <trkpt lat="43.59295" lon="3.10639">
        <ele>238</ele>
        <time>2014-02-20T10:06:03.496Z</time>
      </trkpt>
      <trkpt lat="43.59295" lon="3.10644">
        <ele>237.2</ele>
        <time>2014-02-20T10:06:04.498Z</time>
      </trkpt>
      <trkpt lat="43.59296" lon="3.10657">
        <ele>236.6</ele>
        <time>2014-02-20T10:06:07.489Z</time>
      </trkpt>
      <trkpt lat="43.59298" lon="3.10661">
        <ele>236.9</ele>
        <time>2014-02-20T10:06:08.497Z</time>
      </trkpt>
      <trkpt lat="43.59301" lon="3.10667">
        <ele>237.1</ele>
        <time>2014-02-20T10:06:09.496Z</time>
      </trkpt>
      <trkpt lat="43.59304" lon="3.10674">
        <ele>237.2</ele>
        <time>2014-02-20T10:06:10.498Z</time>
      </trkpt>
      <trkpt lat="43.59307" lon="3.10682">
        <ele>236.2</ele>
        <time>2014-02-20T10:06:11.497Z</time>
      </trkpt>
      <trkpt lat="43.5931" lon="3.1069">
        <ele>235.7</ele>
        <time>2014-02-20T10:06:12.495Z</time>
      </trkpt>
      <trkpt lat="43.59311" lon="3.10697">
        <ele>235.5</ele>
        <time>2014-02-20T10:06:13.498Z</time>
      </trkpt>
      <trkpt lat="43.59312" lon="3.10704">
        <ele>234.5</ele>
        <time>2014-02-20T10:06:14.497Z</time>
      </trkpt>
      <trkpt lat="43.59313" lon="3.10711">
        <ele>234.2</ele>
        <time>2014-02-20T10:06:15.498Z</time>
      </trkpt>
      <trkpt lat="43.59313" lon="3.10717">
        <ele>234</ele>
        <time>2014-02-20T10:06:16.494Z</time>
      </trkpt>
      <trkpt lat="43.59314" lon="3.10723">
        <ele>233.6</ele>
        <time>2014-02-20T10:06:17.492Z</time>
      </trkpt>
      <trkpt lat="43.59317" lon="3.10729">
        <ele>233.2</ele>
        <time>2014-02-20T10:06:18.491Z</time>
      </trkpt>
      <trkpt lat="43.59319" lon="3.10735">
        <ele>232.7</ele>
        <time>2014-02-20T10:06:19.491Z</time>
      </trkpt>
      <trkpt lat="43.5932" lon="3.10742">
        <ele>232.7</ele>
        <time>2014-02-20T10:06:20.491Z</time>
      </trkpt>
      <trkpt lat="43.5932" lon="3.10748">
        <ele>232.6</ele>
        <time>2014-02-20T10:06:21.489Z</time>
      </trkpt>
      <trkpt lat="43.59322" lon="3.10755">
        <ele>231.9</ele>
        <time>2014-02-20T10:06:22.491Z</time>
      </trkpt>
      <trkpt lat="43.59324" lon="3.10762">
        <ele>232.1</ele>
        <time>2014-02-20T10:06:23.491Z</time>
      </trkpt>
      <trkpt lat="43.59326" lon="3.1077">
        <ele>232</ele>
        <time>2014-02-20T10:06:24.491Z</time>
      </trkpt>
      <trkpt lat="43.59328" lon="3.10777">
        <ele>232.2</ele>
        <time>2014-02-20T10:06:25.491Z</time>
      </trkpt>
      <trkpt lat="43.59331" lon="3.10783">
        <ele>232</ele>
        <time>2014-02-20T10:06:26.492Z</time>
      </trkpt>
      <trkpt lat="43.59333" lon="3.10793">
        <ele>232.6</ele>
        <time>2014-02-20T10:06:28.491Z</time>
      </trkpt>
      <trkpt lat="43.59334" lon="3.10797">
        <ele>232.8</ele>
        <time>2014-02-20T10:06:29.491Z</time>
      </trkpt>
      <trkpt lat="43.59338" lon="3.10807">
        <ele>233.6</ele>
        <time>2014-02-20T10:06:31.493Z</time>
      </trkpt>
      <trkpt lat="43.5934" lon="3.10812">
        <ele>234</ele>
        <time>2014-02-20T10:06:32.492Z</time>
      </trkpt>
      <trkpt lat="43.59343" lon="3.10818">
        <ele>235.1</ele>
        <time>2014-02-20T10:06:33.491Z</time>
      </trkpt>
      <trkpt lat="43.59346" lon="3.10824">
        <ele>234.8</ele>
        <time>2014-02-20T10:06:34.492Z</time>
      </trkpt>
      <trkpt lat="43.59349" lon="3.1083">
        <ele>235.3</ele>
        <time>2014-02-20T10:06:35.493Z</time>
      </trkpt>
      <trkpt lat="43.59351" lon="3.10836">
        <ele>235.6</ele>
        <time>2014-02-20T10:06:36.491Z</time>
      </trkpt>
      <trkpt lat="43.59354" lon="3.10846">
        <ele>235.1</ele>
        <time>2014-02-20T10:06:39.271Z</time>
      </trkpt>
      <trkpt lat="43.59355" lon="3.10848">
        <ele>235</ele>
        <time>2014-02-20T10:06:39.511Z</time>
      </trkpt>
      <trkpt lat="43.59356" lon="3.10853">
        <ele>234.7</ele>
        <time>2014-02-20T10:06:40.497Z</time>
      </trkpt>
      <trkpt lat="43.59357" lon="3.10859">
        <ele>235.5</ele>
        <time>2014-02-20T10:06:41.493Z</time>
      </trkpt>
      <trkpt lat="43.59361" lon="3.10869">
        <ele>238.1</ele>
        <time>2014-02-20T10:06:43.494Z</time>
      </trkpt>
      <trkpt lat="43.59362" lon="3.10872">
        <ele>240</ele>
        <time>2014-02-20T10:06:44.491Z</time>
      </trkpt>
      <trkpt lat="43.59365" lon="3.10883">
        <ele>240.1</ele>
        <time>2014-02-20T10:06:47.492Z</time>
      </trkpt>
      <trkpt lat="43.59365" lon="3.10886">
        <ele>240.8</ele>
        <time>2014-02-20T10:06:48.491Z</time>
      </trkpt>
      <trkpt lat="43.59367" lon="3.10896">
        <ele>240.8</ele>
        <time>2014-02-20T10:06:51.513Z</time>
      </trkpt>
      <trkpt lat="43.59368" lon="3.109">
        <ele>241.1</ele>
        <time>2014-02-20T10:06:52.491Z</time>
      </trkpt>
      <trkpt lat="43.59373" lon="3.1091">
        <ele>240</ele>
        <time>2014-02-20T10:06:54.491Z</time>
      </trkpt>
      <trkpt lat="43.59375" lon="3.10915">
        <ele>240</ele>
        <time>2014-02-20T10:06:55.493Z</time>
      </trkpt>
      <trkpt lat="43.59379" lon="3.10925">
        <ele>241.4</ele>
        <time>2014-02-20T10:06:57.491Z</time>
      </trkpt>
      <trkpt lat="43.59381" lon="3.10931">
        <ele>241.3</ele>
        <time>2014-02-20T10:06:58.492Z</time>
      </trkpt>
      <trkpt lat="43.59383" lon="3.10937">
        <ele>240.9</ele>
        <time>2014-02-20T10:06:59.494Z</time>
      </trkpt>
      <trkpt lat="43.59386" lon="3.10944">
        <ele>240.7</ele>
        <time>2014-02-20T10:07:00.491Z</time>
      </trkpt>
      <trkpt lat="43.5939" lon="3.10952">
        <ele>241</ele>
        <time>2014-02-20T10:07:01.511Z</time>
      </trkpt>
      <trkpt lat="43.59393" lon="3.1096">
        <ele>241</ele>
        <time>2014-02-20T10:07:02.493Z</time>
      </trkpt>
      <trkpt lat="43.59395" lon="3.10965">
        <ele>240.8</ele>
        <time>2014-02-20T10:07:03.491Z</time>
      </trkpt>
      <trkpt lat="43.59399" lon="3.10971">
        <ele>239.3</ele>
        <time>2014-02-20T10:07:04.493Z</time>
      </trkpt>
      <trkpt lat="43.59402" lon="3.10976">
        <ele>238.2</ele>
        <time>2014-02-20T10:07:05.493Z</time>
      </trkpt>
      <trkpt lat="43.59404" lon="3.10982">
        <ele>237.9</ele>
        <time>2014-02-20T10:07:06.604Z</time>
      </trkpt>
      <trkpt lat="43.59406" lon="3.10987">
        <ele>236.8</ele>
        <time>2014-02-20T10:07:07.496Z</time>
      </trkpt>
      <trkpt lat="43.59408" lon="3.10993">
        <ele>235.9</ele>
        <time>2014-02-20T10:07:08.493Z</time>
      </trkpt>
      <trkpt lat="43.5941" lon="3.10998">
        <ele>235.1</ele>
        <time>2014-02-20T10:07:09.491Z</time>
      </trkpt>
      <trkpt lat="43.59412" lon="3.11004">
        <ele>235</ele>
        <time>2014-02-20T10:07:10.492Z</time>
      </trkpt>
      <trkpt lat="43.59413" lon="3.11011">
        <ele>233.6</ele>
        <time>2014-02-20T10:07:11.570Z</time>
      </trkpt>
      <trkpt lat="43.59414" lon="3.11016">
        <ele>233</ele>
        <time>2014-02-20T10:07:12.491Z</time>
      </trkpt>
      <trkpt lat="43.59416" lon="3.11022">
        <ele>233.1</ele>
        <time>2014-02-20T10:07:13.493Z</time>
      </trkpt>
      <trkpt lat="43.59418" lon="3.11028">
        <ele>232.7</ele>
        <time>2014-02-20T10:07:14.492Z</time>
      </trkpt>
      <trkpt lat="43.59421" lon="3.11037">
        <ele>230.9</ele>
        <time>2014-02-20T10:07:16.491Z</time>
      </trkpt>
      <trkpt lat="43.59423" lon="3.11043">
        <ele>230.5</ele>
        <time>2014-02-20T10:07:17.491Z</time>
      </trkpt>
      <trkpt lat="43.59426" lon="3.11052">
        <ele>229.5</ele>
        <time>2014-02-20T10:07:19.491Z</time>
      </trkpt>
      <trkpt lat="43.59429" lon="3.11057">
        <ele>230.4</ele>
        <time>2014-02-20T10:07:20.492Z</time>
      </trkpt>
      <trkpt lat="43.59433" lon="3.11066">
        <ele>229.9</ele>
        <time>2014-02-20T10:07:22.490Z</time>
      </trkpt>
      <trkpt lat="43.59435" lon="3.11072">
        <ele>230.2</ele>
        <time>2014-02-20T10:07:23.490Z</time>
      </trkpt>
      <trkpt lat="43.59438" lon="3.11077">
        <ele>230.2</ele>
        <time>2014-02-20T10:07:24.488Z</time>
      </trkpt>
      <trkpt lat="43.5944" lon="3.11082">
        <ele>230</ele>
        <time>2014-02-20T10:07:25.490Z</time>
      </trkpt>
      <trkpt lat="43.5944" lon="3.11092">
        <ele>230.9</ele>
        <time>2014-02-20T10:07:27.491Z</time>
      </trkpt>
      <trkpt lat="43.59441" lon="3.11097">
        <ele>231.2</ele>
        <time>2014-02-20T10:07:28.492Z</time>
      </trkpt>
      <trkpt lat="43.59442" lon="3.11107">
        <ele>230.7</ele>
        <time>2014-02-20T10:07:30.491Z</time>
      </trkpt>
      <trkpt lat="43.59444" lon="3.11113">
        <ele>230.2</ele>
        <time>2014-02-20T10:07:31.491Z</time>
      </trkpt>
      <trkpt lat="43.59445" lon="3.11119">
        <ele>230</ele>
        <time>2014-02-20T10:07:32.491Z</time>
      </trkpt>
      <trkpt lat="43.59447" lon="3.11125">
        <ele>230.1</ele>
        <time>2014-02-20T10:07:33.491Z</time>
      </trkpt>
      <trkpt lat="43.5945" lon="3.11131">
        <ele>230.9</ele>
        <time>2014-02-20T10:07:34.492Z</time>
      </trkpt>
      <trkpt lat="43.59453" lon="3.11137">
        <ele>231.5</ele>
        <time>2014-02-20T10:07:35.492Z</time>
      </trkpt>
      <trkpt lat="43.59456" lon="3.11148">
        <ele>231.3</ele>
        <time>2014-02-20T10:07:37.491Z</time>
      </trkpt>
      <trkpt lat="43.59458" lon="3.11153">
        <ele>231.2</ele>
        <time>2014-02-20T10:07:38.492Z</time>
      </trkpt>
      <trkpt lat="43.59461" lon="3.11163">
        <ele>231.5</ele>
        <time>2014-02-20T10:07:40.492Z</time>
      </trkpt>
      <trkpt lat="43.59462" lon="3.11169">
        <ele>231.9</ele>
        <time>2014-02-20T10:07:41.491Z</time>
      </trkpt>
      <trkpt lat="43.59463" lon="3.11175">
        <ele>232.3</ele>
        <time>2014-02-20T10:07:42.491Z</time>
      </trkpt>
      <trkpt lat="43.59465" lon="3.11182">
        <ele>233.5</ele>
        <time>2014-02-20T10:07:43.499Z</time>
      </trkpt>
      <trkpt lat="43.59467" lon="3.11188">
        <ele>234.8</ele>
        <time>2014-02-20T10:07:44.491Z</time>
      </trkpt>
      <trkpt lat="43.59469" lon="3.11194">
        <ele>235.9</ele>
        <time>2014-02-20T10:07:45.491Z</time>
      </trkpt>
      <trkpt lat="43.59471" lon="3.112">
        <ele>236.4</ele>
        <time>2014-02-20T10:07:46.491Z</time>
      </trkpt>
      <trkpt lat="43.59473" lon="3.11205">
        <ele>236.3</ele>
        <time>2014-02-20T10:07:47.491Z</time>
      </trkpt>
      <trkpt lat="43.59475" lon="3.11211">
        <ele>236.3</ele>
        <time>2014-02-20T10:07:48.489Z</time>
      </trkpt>
      <trkpt lat="43.59477" lon="3.11217">
        <ele>236.4</ele>
        <time>2014-02-20T10:07:49.491Z</time>
      </trkpt>
      <trkpt lat="43.59479" lon="3.11226">
        <ele>237.4</ele>
        <time>2014-02-20T10:07:51.491Z</time>
      </trkpt>
      <trkpt lat="43.5948" lon="3.1123">
        <ele>237.3</ele>
        <time>2014-02-20T10:07:52.492Z</time>
      </trkpt>
      <trkpt lat="43.59482" lon="3.11241">
        <ele>237.3</ele>
        <time>2014-02-20T10:07:54.491Z</time>
      </trkpt>
      <trkpt lat="43.59484" lon="3.11247">
        <ele>237.3</ele>
        <time>2014-02-20T10:07:55.491Z</time>
      </trkpt>
      <trkpt lat="43.59485" lon="3.11254">
        <ele>237.3</ele>
        <time>2014-02-20T10:07:56.492Z</time>
      </trkpt>
      <trkpt lat="43.59485" lon="3.11262">
        <ele>237.2</ele>
        <time>2014-02-20T10:07:57.490Z</time>
      </trkpt>
      <trkpt lat="43.59486" lon="3.1127">
        <ele>236.7</ele>
        <time>2014-02-20T10:07:58.491Z</time>
      </trkpt>
      <trkpt lat="43.59489" lon="3.11278">
        <ele>236.6</ele>
        <time>2014-02-20T10:07:59.491Z</time>
      </trkpt>
      <trkpt lat="43.59491" lon="3.11284">
        <ele>236.1</ele>
        <time>2014-02-20T10:08:00.490Z</time>
      </trkpt>
      <trkpt lat="43.59492" lon="3.11289">
        <ele>235.4</ele>
        <time>2014-02-20T10:08:01.491Z</time>
      </trkpt>
      <trkpt lat="43.59494" lon="3.11295">
        <ele>235.3</ele>
        <time>2014-02-20T10:08:02.492Z</time>
      </trkpt>
      <trkpt lat="43.59496" lon="3.11302">
        <ele>235.5</ele>
        <time>2014-02-20T10:08:03.491Z</time>
      </trkpt>
      <trkpt lat="43.59499" lon="3.11308">
        <ele>235.3</ele>
        <time>2014-02-20T10:08:04.492Z</time>
      </trkpt>
      <trkpt lat="43.595" lon="3.11314">
        <ele>235.3</ele>
        <time>2014-02-20T10:08:05.492Z</time>
      </trkpt>
      <trkpt lat="43.59502" lon="3.1132">
        <ele>234.9</ele>
        <time>2014-02-20T10:08:06.491Z</time>
      </trkpt>
      <trkpt lat="43.59504" lon="3.11327">
        <ele>235.2</ele>
        <time>2014-02-20T10:08:07.489Z</time>
      </trkpt>
      <trkpt lat="43.59506" lon="3.11333">
        <ele>235.9</ele>
        <time>2014-02-20T10:08:08.490Z</time>
      </trkpt>
      <trkpt lat="43.59507" lon="3.1134">
        <ele>236</ele>
        <time>2014-02-20T10:08:09.489Z</time>
      </trkpt>
      <trkpt lat="43.59508" lon="3.11347">
        <ele>235.9</ele>
        <time>2014-02-20T10:08:10.490Z</time>
      </trkpt>
      <trkpt lat="43.59509" lon="3.11353">
        <ele>235.7</ele>
        <time>2014-02-20T10:08:11.493Z</time>
      </trkpt>
      <trkpt lat="43.59511" lon="3.11365">
        <ele>235.8</ele>
        <time>2014-02-20T10:08:13.492Z</time>
      </trkpt>
      <trkpt lat="43.59513" lon="3.11371">
        <ele>236.4</ele>
        <time>2014-02-20T10:08:14.493Z</time>
      </trkpt>
      <trkpt lat="43.59515" lon="3.11382">
        <ele>236</ele>
        <time>2014-02-20T10:08:16.492Z</time>
      </trkpt>
      <trkpt lat="43.59517" lon="3.1139">
        <ele>235.4</ele>
        <time>2014-02-20T10:08:17.492Z</time>
      </trkpt>
      <trkpt lat="43.59519" lon="3.11398">
        <ele>234.8</ele>
        <time>2014-02-20T10:08:18.492Z</time>
      </trkpt>
      <trkpt lat="43.5952" lon="3.11404">
        <ele>234.6</ele>
        <time>2014-02-20T10:08:19.499Z</time>
      </trkpt>
      <trkpt lat="43.59522" lon="3.11413">
        <ele>235.2</ele>
        <time>2014-02-20T10:08:21.500Z</time>
      </trkpt>
      <trkpt lat="43.59523" lon="3.11419">
        <ele>235.4</ele>
        <time>2014-02-20T10:08:22.503Z</time>
      </trkpt>
      <trkpt lat="43.59524" lon="3.1143">
        <ele>235</ele>
        <time>2014-02-20T10:08:24.502Z</time>
      </trkpt>
      <trkpt lat="43.59525" lon="3.11436">
        <ele>234.8</ele>
        <time>2014-02-20T10:08:25.497Z</time>
      </trkpt>
      <trkpt lat="43.59528" lon="3.11443">
        <ele>235.2</ele>
        <time>2014-02-20T10:08:27.576Z</time>
      </trkpt>
      <trkpt lat="43.5953" lon="3.11448">
        <ele>235.7</ele>
        <time>2014-02-20T10:08:28.489Z</time>
      </trkpt>
      <trkpt lat="43.59533" lon="3.11457">
        <ele>235.8</ele>
        <time>2014-02-20T10:08:30.499Z</time>
      </trkpt>
      <trkpt lat="43.59534" lon="3.11461">
        <ele>235.6</ele>
        <time>2014-02-20T10:08:31.500Z</time>
      </trkpt>
      <trkpt lat="43.59535" lon="3.11471">
        <ele>235.6</ele>
        <time>2014-02-20T10:08:33.499Z</time>
      </trkpt>
      <trkpt lat="43.59535" lon="3.11477">
        <ele>235.8</ele>
        <time>2014-02-20T10:08:34.500Z</time>
      </trkpt>
      <trkpt lat="43.59535" lon="3.11485">
        <ele>236</ele>
        <time>2014-02-20T10:08:35.499Z</time>
      </trkpt>
      <trkpt lat="43.59536" lon="3.11492">
        <ele>235.4</ele>
        <time>2014-02-20T10:08:36.499Z</time>
      </trkpt>
      <trkpt lat="43.5954" lon="3.11502">
        <ele>236.1</ele>
        <time>2014-02-20T10:08:38.499Z</time>
      </trkpt>
      <trkpt lat="43.59541" lon="3.11506">
        <ele>236.4</ele>
        <time>2014-02-20T10:08:39.497Z</time>
      </trkpt>
      <trkpt lat="43.59546" lon="3.11516">
        <ele>236.9</ele>
        <time>2014-02-20T10:08:41.500Z</time>
      </trkpt>
      <trkpt lat="43.59548" lon="3.11521">
        <ele>236.5</ele>
        <time>2014-02-20T10:08:42.497Z</time>
      </trkpt>
      <trkpt lat="43.59549" lon="3.11527">
        <ele>236.7</ele>
        <time>2014-02-20T10:08:43.500Z</time>
      </trkpt>
      <trkpt lat="43.59551" lon="3.11533">
        <ele>236.3</ele>
        <time>2014-02-20T10:08:44.499Z</time>
      </trkpt>
      <trkpt lat="43.59555" lon="3.11542">
        <ele>235.9</ele>
        <time>2014-02-20T10:08:46.497Z</time>
      </trkpt>
      <trkpt lat="43.59556" lon="3.11546">
        <ele>235.4</ele>
        <time>2014-02-20T10:08:47.497Z</time>
      </trkpt>
      <trkpt lat="43.59556" lon="3.11557">
        <ele>235.2</ele>
        <time>2014-02-20T10:08:50.497Z</time>
      </trkpt>
      <trkpt lat="43.59556" lon="3.11561">
        <ele>236</ele>
        <time>2014-02-20T10:08:51.497Z</time>
      </trkpt>
      <trkpt lat="43.59556" lon="3.11571">
        <ele>235.8</ele>
        <time>2014-02-20T10:08:54.498Z</time>
      </trkpt>
      <trkpt lat="43.59556" lon="3.11574">
        <ele>236.1</ele>
        <time>2014-02-20T10:08:55.498Z</time>
      </trkpt>
      <trkpt lat="43.59558" lon="3.11585">
        <ele>236.5</ele>
        <time>2014-02-20T10:09:01.498Z</time>
      </trkpt>
      <trkpt lat="43.59559" lon="3.11586">
        <ele>235.7</ele>
        <time>2014-02-20T10:09:02.499Z</time>
      </trkpt>
      <trkpt lat="43.5956" lon="3.11597">
        <ele>240.6</ele>
        <time>2014-02-20T10:09:16.491Z</time>
      </trkpt>
      <trkpt lat="43.59559" lon="3.11599">
        <ele>241.6</ele>
        <time>2014-02-20T10:09:18.164Z</time>
      </trkpt>
      <trkpt lat="43.59562" lon="3.11608">
        <ele>239.9</ele>
        <time>2014-02-20T10:09:28.492Z</time>
      </trkpt>
      <trkpt lat="43.59562" lon="3.11611">
        <ele>239.2</ele>
        <time>2014-02-20T10:09:29.491Z</time>
      </trkpt>
      <trkpt lat="43.59563" lon="3.11623">
        <ele>237.4</ele>
        <time>2014-02-20T10:09:33.491Z</time>
      </trkpt>
      <trkpt lat="43.59563" lon="3.11626">
        <ele>237.4</ele>
        <time>2014-02-20T10:09:34.491Z</time>
      </trkpt>
      <trkpt lat="43.59564" lon="3.11638">
        <ele>236</ele>
        <time>2014-02-20T10:09:38.491Z</time>
      </trkpt>
      <trkpt lat="43.59564" lon="3.11641">
        <ele>236.5</ele>
        <time>2014-02-20T10:09:39.490Z</time>
      </trkpt>
      <trkpt lat="43.59564" lon="3.11652">
        <ele>237.3</ele>
        <time>2014-02-20T10:09:42.488Z</time>
      </trkpt>
      <trkpt lat="43.59564" lon="3.11656">
        <ele>237.3</ele>
        <time>2014-02-20T10:09:43.491Z</time>
      </trkpt>
      <trkpt lat="43.59563" lon="3.11664">
        <ele>237.7</ele>
        <time>2014-02-20T10:09:45.491Z</time>
      </trkpt>
      <trkpt lat="43.59563" lon="3.11669">
        <ele>237.4</ele>
        <time>2014-02-20T10:09:46.492Z</time>
      </trkpt>
      <trkpt lat="43.59565" lon="3.11677">
        <ele>236.4</ele>
        <time>2014-02-20T10:09:48.492Z</time>
      </trkpt>
      <trkpt lat="43.59566" lon="3.11682">
        <ele>236.6</ele>
        <time>2014-02-20T10:09:49.493Z</time>
      </trkpt>
      <trkpt lat="43.59566" lon="3.11692">
        <ele>236.8</ele>
        <time>2014-02-20T10:09:51.534Z</time>
      </trkpt>
      <trkpt lat="43.59566" lon="3.11697">
        <ele>237</ele>
        <time>2014-02-20T10:09:52.492Z</time>
      </trkpt>
      <trkpt lat="43.59567" lon="3.11707">
        <ele>237.1</ele>
        <time>2014-02-20T10:09:54.491Z</time>
      </trkpt>
      <trkpt lat="43.59568" lon="3.11712">
        <ele>236.7</ele>
        <time>2014-02-20T10:09:55.491Z</time>
      </trkpt>
      <trkpt lat="43.59569" lon="3.11717">
        <ele>236.8</ele>
        <time>2014-02-20T10:09:56.489Z</time>
      </trkpt>
      <trkpt lat="43.5957" lon="3.11724">
        <ele>236.8</ele>
        <time>2014-02-20T10:09:57.491Z</time>
      </trkpt>
      <trkpt lat="43.59572" lon="3.1173">
        <ele>237.5</ele>
        <time>2014-02-20T10:09:58.492Z</time>
      </trkpt>
      <trkpt lat="43.59573" lon="3.11736">
        <ele>236.8</ele>
        <time>2014-02-20T10:09:59.492Z</time>
      </trkpt>
      <trkpt lat="43.59573" lon="3.11748">
        <ele>237.3</ele>
        <time>2014-02-20T10:10:01.491Z</time>
      </trkpt>
      <trkpt lat="43.59573" lon="3.11754">
        <ele>237.7</ele>
        <time>2014-02-20T10:10:02.491Z</time>
      </trkpt>
      <trkpt lat="43.59572" lon="3.11761">
        <ele>237.8</ele>
        <time>2014-02-20T10:10:03.491Z</time>
      </trkpt>
      <trkpt lat="43.59572" lon="3.11768">
        <ele>238.3</ele>
        <time>2014-02-20T10:10:04.491Z</time>
      </trkpt>
      <trkpt lat="43.59572" lon="3.11774">
        <ele>238.9</ele>
        <time>2014-02-20T10:10:05.491Z</time>
      </trkpt>
      <trkpt lat="43.59574" lon="3.1178">
        <ele>238.3</ele>
        <time>2014-02-20T10:10:06.489Z</time>
      </trkpt>
      <trkpt lat="43.59575" lon="3.11791">
        <ele>238.2</ele>
        <time>2014-02-20T10:10:08.491Z</time>
      </trkpt>
      <trkpt lat="43.59576" lon="3.11796">
        <ele>238.1</ele>
        <time>2014-02-20T10:10:09.489Z</time>
      </trkpt>
      <trkpt lat="43.59576" lon="3.11805">
        <ele>238.3</ele>
        <time>2014-02-20T10:10:11.491Z</time>
      </trkpt>
      <trkpt lat="43.59576" lon="3.11809">
        <ele>238.4</ele>
        <time>2014-02-20T10:10:12.491Z</time>
      </trkpt>
      <trkpt lat="43.59578" lon="3.11819">
        <ele>238.1</ele>
        <time>2014-02-20T10:10:14.491Z</time>
      </trkpt>
      <trkpt lat="43.59578" lon="3.11824">
        <ele>237.8</ele>
        <time>2014-02-20T10:10:15.490Z</time>
      </trkpt>
      <trkpt lat="43.5958" lon="3.11833">
        <ele>238.7</ele>
        <time>2014-02-20T10:10:17.491Z</time>
      </trkpt>
      <trkpt lat="43.5958" lon="3.11837">
        <ele>238.8</ele>
        <time>2014-02-20T10:10:18.489Z</time>
      </trkpt>
      <trkpt lat="43.5958" lon="3.11848">
        <ele>237.8</ele>
        <time>2014-02-20T10:10:21.490Z</time>
      </trkpt>
      <trkpt lat="43.5958" lon="3.11853">
        <ele>237.2</ele>
        <time>2014-02-20T10:10:22.492Z</time>
      </trkpt>
      <trkpt lat="43.59582" lon="3.11864">
        <ele>238.2</ele>
        <time>2014-02-20T10:10:24.490Z</time>
      </trkpt>
      <trkpt lat="43.59582" lon="3.11868">
        <ele>238.3</ele>
        <time>2014-02-20T10:10:25.493Z</time>
      </trkpt>
      <trkpt lat="43.59583" lon="3.11877">
        <ele>238.4</ele>
        <time>2014-02-20T10:10:27.491Z</time>
      </trkpt>
      <trkpt lat="43.59584" lon="3.11882">
        <ele>238.4</ele>
        <time>2014-02-20T10:10:28.491Z</time>
      </trkpt>
      <trkpt lat="43.59585" lon="3.11892">
        <ele>236.6</ele>
        <time>2014-02-20T10:10:30.491Z</time>
      </trkpt>
      <trkpt lat="43.59586" lon="3.11898">
        <ele>236.8</ele>
        <time>2014-02-20T10:10:31.493Z</time>
      </trkpt>
      <trkpt lat="43.59587" lon="3.11908">
        <ele>236.4</ele>
        <time>2014-02-20T10:10:33.489Z</time>
      </trkpt>
      <trkpt lat="43.59587" lon="3.11914">
        <ele>236.4</ele>
        <time>2014-02-20T10:10:34.492Z</time>
      </trkpt>
      <trkpt lat="43.59587" lon="3.11921">
        <ele>235.8</ele>
        <time>2014-02-20T10:10:35.491Z</time>
      </trkpt>
      <trkpt lat="43.59588" lon="3.11927">
        <ele>235.7</ele>
        <time>2014-02-20T10:10:36.490Z</time>
      </trkpt>
      <trkpt lat="43.59589" lon="3.11939">
        <ele>234.1</ele>
        <time>2014-02-20T10:10:38.491Z</time>
      </trkpt>
      <trkpt lat="43.5959" lon="3.11945">
        <ele>234.4</ele>
        <time>2014-02-20T10:10:39.491Z</time>
      </trkpt>
      <trkpt lat="43.59591" lon="3.11952">
        <ele>234.5</ele>
        <time>2014-02-20T10:10:40.491Z</time>
      </trkpt>
      <trkpt lat="43.59591" lon="3.11958">
        <ele>234.8</ele>
        <time>2014-02-20T10:10:41.491Z</time>
      </trkpt>
      <trkpt lat="43.59593" lon="3.1197">
        <ele>234.2</ele>
        <time>2014-02-20T10:10:43.491Z</time>
      </trkpt>
      <trkpt lat="43.59593" lon="3.11975">
        <ele>233.9</ele>
        <time>2014-02-20T10:10:44.491Z</time>
      </trkpt>
      <trkpt lat="43.59594" lon="3.11981">
        <ele>234.5</ele>
        <time>2014-02-20T10:10:45.490Z</time>
      </trkpt>
      <trkpt lat="43.59594" lon="3.11988">
        <ele>235.5</ele>
        <time>2014-02-20T10:10:46.491Z</time>
      </trkpt>
      <trkpt lat="43.59595" lon="3.11994">
        <ele>235.7</ele>
        <time>2014-02-20T10:10:47.491Z</time>
      </trkpt>
      <trkpt lat="43.59596" lon="3.12">
        <ele>235.5</ele>
        <time>2014-02-20T10:10:48.491Z</time>
      </trkpt>
      <trkpt lat="43.59597" lon="3.12012">
        <ele>235.5</ele>
        <time>2014-02-20T10:10:50.491Z</time>
      </trkpt>
      <trkpt lat="43.59597" lon="3.12018">
        <ele>236</ele>
        <time>2014-02-20T10:10:51.491Z</time>
      </trkpt>
      <trkpt lat="43.59598" lon="3.12028">
        <ele>236.6</ele>
        <time>2014-02-20T10:10:53.491Z</time>
      </trkpt>
      <trkpt lat="43.59599" lon="3.12034">
        <ele>236.2</ele>
        <time>2014-02-20T10:10:54.491Z</time>
      </trkpt>
      <trkpt lat="43.59601" lon="3.12044">
        <ele>235.5</ele>
        <time>2014-02-20T10:10:56.497Z</time>
      </trkpt>
      <trkpt lat="43.59602" lon="3.1205">
        <ele>235.4</ele>
        <time>2014-02-20T10:10:57.489Z</time>
      </trkpt>
      <trkpt lat="43.59603" lon="3.12061">
        <ele>236</ele>
        <time>2014-02-20T10:10:59.492Z</time>
      </trkpt>
      <trkpt lat="43.59604" lon="3.12067">
        <ele>236.1</ele>
        <time>2014-02-20T10:11:00.491Z</time>
      </trkpt>
      <trkpt lat="43.59604" lon="3.12079">
        <ele>236.3</ele>
        <time>2014-02-20T10:11:02.491Z</time>
      </trkpt>
      <trkpt lat="43.59604" lon="3.12085">
        <ele>236.5</ele>
        <time>2014-02-20T10:11:03.491Z</time>
      </trkpt>
      <trkpt lat="43.59606" lon="3.12096">
        <ele>235.7</ele>
        <time>2014-02-20T10:11:05.492Z</time>
      </trkpt>
      <trkpt lat="43.59607" lon="3.12102">
        <ele>235.2</ele>
        <time>2014-02-20T10:11:06.701Z</time>
      </trkpt>
      <trkpt lat="43.5961" lon="3.12112">
        <ele>235.5</ele>
        <time>2014-02-20T10:11:08.492Z</time>
      </trkpt>
      <trkpt lat="43.59611" lon="3.12119">
        <ele>235.6</ele>
        <time>2014-02-20T10:11:09.491Z</time>
      </trkpt>
      <trkpt lat="43.59612" lon="3.12129">
        <ele>234.9</ele>
        <time>2014-02-20T10:11:11.493Z</time>
      </trkpt>
      <trkpt lat="43.59613" lon="3.12135">
        <ele>234.9</ele>
        <time>2014-02-20T10:11:12.490Z</time>
      </trkpt>
      <trkpt lat="43.59614" lon="3.12146">
        <ele>234.6</ele>
        <time>2014-02-20T10:11:14.491Z</time>
      </trkpt>
      <trkpt lat="43.59615" lon="3.12151">
        <ele>234.4</ele>
        <time>2014-02-20T10:11:15.491Z</time>
      </trkpt>
      <trkpt lat="43.59616" lon="3.12156">
        <ele>233.6</ele>
        <time>2014-02-20T10:11:16.492Z</time>
      </trkpt>
      <trkpt lat="43.59618" lon="3.12163">
        <ele>233.1</ele>
        <time>2014-02-20T10:11:17.491Z</time>
      </trkpt>
      <trkpt lat="43.5962" lon="3.12169">
        <ele>233.4</ele>
        <time>2014-02-20T10:11:18.491Z</time>
      </trkpt>
      <trkpt lat="43.59621" lon="3.12175">
        <ele>234.1</ele>
        <time>2014-02-20T10:11:19.492Z</time>
      </trkpt>
      <trkpt lat="43.59623" lon="3.12186">
        <ele>234.4</ele>
        <time>2014-02-20T10:11:21.489Z</time>
      </trkpt>
      <trkpt lat="43.59624" lon="3.12193">
        <ele>233.9</ele>
        <time>2014-02-20T10:11:22.491Z</time>
      </trkpt>
      <trkpt lat="43.59623" lon="3.12201">
        <ele>234.5</ele>
        <time>2014-02-20T10:11:23.492Z</time>
      </trkpt>
      <trkpt lat="43.59623" lon="3.12207">
        <ele>235.3</ele>
        <time>2014-02-20T10:11:24.491Z</time>
      </trkpt>
      <trkpt lat="43.59622" lon="3.12214">
        <ele>236</ele>
        <time>2014-02-20T10:11:25.492Z</time>
      </trkpt>
      <trkpt lat="43.59623" lon="3.12221">
        <ele>236.9</ele>
        <time>2014-02-20T10:11:26.492Z</time>
      </trkpt>
      <trkpt lat="43.59623" lon="3.1223">
        <ele>236.1</ele>
        <time>2014-02-20T10:11:27.496Z</time>
      </trkpt>
      <trkpt lat="43.59624" lon="3.12238">
        <ele>236.6</ele>
        <time>2014-02-20T10:11:28.492Z</time>
      </trkpt>
      <trkpt lat="43.59624" lon="3.12246">
        <ele>236.9</ele>
        <time>2014-02-20T10:11:29.491Z</time>
      </trkpt>
      <trkpt lat="43.59625" lon="3.12251">
        <ele>237.3</ele>
        <time>2014-02-20T10:11:30.489Z</time>
      </trkpt>
      <trkpt lat="43.59626" lon="3.12262">
        <ele>236.4</ele>
        <time>2014-02-20T10:11:33.491Z</time>
      </trkpt>
      <trkpt lat="43.59626" lon="3.12264">
        <ele>235.9</ele>
        <time>2014-02-20T10:11:34.492Z</time>
      </trkpt>
      <trkpt lat="43.59626" lon="3.12271">
        <ele>237.4</ele>
        <time>2014-02-20T10:11:42.488Z</time>
      </trkpt>
      <trkpt lat="43.59626" lon="3.12271">
        <ele>237.4</ele>
        <time>2014-02-20T10:11:43.491Z</time>
      </trkpt>
      <trkpt lat="43.59625" lon="3.12271">
        <ele>237.1</ele>
        <time>2014-02-20T10:11:44.490Z</time>
      </trkpt>
      <trkpt lat="43.59625" lon="3.1227">
        <ele>236.9</ele>
        <time>2014-02-20T10:11:45.489Z</time>
      </trkpt>
      <trkpt lat="43.59625" lon="3.1227">
        <ele>236.6</ele>
        <time>2014-02-20T10:11:47.491Z</time>
      </trkpt>
      <trkpt lat="43.59625" lon="3.1227">
        <ele>236.7</ele>
        <time>2014-02-20T10:11:48.489Z</time>
      </trkpt>
      <trkpt lat="43.59625" lon="3.12271">
        <ele>236.9</ele>
        <time>2014-02-20T10:11:49.490Z</time>
      </trkpt>
      <trkpt lat="43.59625" lon="3.12283">
        <ele>237.6</ele>
        <time>2014-02-20T10:11:57.490Z</time>
      </trkpt>
      <trkpt lat="43.59625" lon="3.12283">
        <ele>237.7</ele>
        <time>2014-02-20T10:11:58.490Z</time>
      </trkpt>
      <trkpt lat="43.59626" lon="3.12284">
        <ele>237.8</ele>
        <time>2014-02-20T10:12:00.491Z</time>
      </trkpt>
      <trkpt lat="43.59625" lon="3.12283">
        <ele>238</ele>
        <time>2014-02-20T10:12:01.489Z</time>
      </trkpt>
      <trkpt lat="43.59625" lon="3.12284">
        <ele>238.3</ele>
        <time>2014-02-20T10:12:05.492Z</time>
      </trkpt>
      <trkpt lat="43.59625" lon="3.12284">
        <ele>238.4</ele>
        <time>2014-02-20T10:12:06.491Z</time>
      </trkpt>
      <trkpt lat="43.59625" lon="3.12294">
        <ele>238.2</ele>
        <time>2014-02-20T10:12:10.492Z</time>
      </trkpt>
      <trkpt lat="43.59625" lon="3.12299">
        <ele>237.3</ele>
        <time>2014-02-20T10:12:11.491Z</time>
      </trkpt>
      <trkpt lat="43.59624" lon="3.1231">
        <ele>237.7</ele>
        <time>2014-02-20T10:12:14.492Z</time>
      </trkpt>
      <trkpt lat="43.59624" lon="3.12315">
        <ele>238.1</ele>
        <time>2014-02-20T10:12:15.490Z</time>
      </trkpt>
      <trkpt lat="43.59625" lon="3.12325">
        <ele>238.6</ele>
        <time>2014-02-20T10:12:17.492Z</time>
      </trkpt>
      <trkpt lat="43.59626" lon="3.12329">
        <ele>238.4</ele>
        <time>2014-02-20T10:12:18.491Z</time>
      </trkpt>
      <trkpt lat="43.59626" lon="3.12338">
        <ele>238.4</ele>
        <time>2014-02-20T10:12:20.491Z</time>
      </trkpt>
      <trkpt lat="43.59626" lon="3.12342">
        <ele>238.2</ele>
        <time>2014-02-20T10:12:21.491Z</time>
      </trkpt>
      <trkpt lat="43.59626" lon="3.12352">
        <ele>238.5</ele>
        <time>2014-02-20T10:12:23.492Z</time>
      </trkpt>
      <trkpt lat="43.59626" lon="3.12356">
        <ele>238.7</ele>
        <time>2014-02-20T10:12:24.491Z</time>
      </trkpt>
      <trkpt lat="43.59627" lon="3.12366">
        <ele>238.9</ele>
        <time>2014-02-20T10:12:26.492Z</time>
      </trkpt>
      <trkpt lat="43.59627" lon="3.12371">
        <ele>239.1</ele>
        <time>2014-02-20T10:12:27.491Z</time>
      </trkpt>
      <trkpt lat="43.59629" lon="3.12382">
        <ele>238.9</ele>
        <time>2014-02-20T10:12:29.491Z</time>
      </trkpt>
      <trkpt lat="43.5963" lon="3.12387">
        <ele>239.1</ele>
        <time>2014-02-20T10:12:30.489Z</time>
      </trkpt>
      <trkpt lat="43.59631" lon="3.12394">
        <ele>239.9</ele>
        <time>2014-02-20T10:12:31.499Z</time>
      </trkpt>
      <trkpt lat="43.59631" lon="3.124">
        <ele>239.3</ele>
        <time>2014-02-20T10:12:32.492Z</time>
      </trkpt>
      <trkpt lat="43.59632" lon="3.12411">
        <ele>239.5</ele>
        <time>2014-02-20T10:12:34.493Z</time>
      </trkpt>
      <trkpt lat="43.59632" lon="3.12416">
        <ele>239.7</ele>
        <time>2014-02-20T10:12:35.491Z</time>
      </trkpt>
      <trkpt lat="43.59633" lon="3.12428">
        <ele>239.7</ele>
        <time>2014-02-20T10:12:37.493Z</time>
      </trkpt>
      <trkpt lat="43.59633" lon="3.12433">
        <ele>239.3</ele>
        <time>2014-02-20T10:12:38.491Z</time>
      </trkpt>
      <trkpt lat="43.59634" lon="3.12443">
        <ele>238.8</ele>
        <time>2014-02-20T10:12:40.491Z</time>
      </trkpt>
      <trkpt lat="43.59635" lon="3.1245">
        <ele>238.6</ele>
        <time>2014-02-20T10:12:41.492Z</time>
      </trkpt>
      <trkpt lat="43.59636" lon="3.12457">
        <ele>238.5</ele>
        <time>2014-02-20T10:12:42.490Z</time>
      </trkpt>
      <trkpt lat="43.59637" lon="3.12464">
        <ele>238.3</ele>
        <time>2014-02-20T10:12:43.492Z</time>
      </trkpt>
      <trkpt lat="43.59638" lon="3.12476">
        <ele>238.1</ele>
        <time>2014-02-20T10:12:45.490Z</time>
      </trkpt>
      <trkpt lat="43.59639" lon="3.12481">
        <ele>238.3</ele>
        <time>2014-02-20T10:12:46.491Z</time>
      </trkpt>
      <trkpt lat="43.59639" lon="3.1249">
        <ele>238.2</ele>
        <time>2014-02-20T10:12:48.492Z</time>
      </trkpt>
      <trkpt lat="43.59639" lon="3.12495">
        <ele>238.3</ele>
        <time>2014-02-20T10:12:49.493Z</time>
      </trkpt>
      <trkpt lat="43.5964" lon="3.12505">
        <ele>238.3</ele>
        <time>2014-02-20T10:12:51.491Z</time>
      </trkpt>
      <trkpt lat="43.59641" lon="3.1251">
        <ele>238.6</ele>
        <time>2014-02-20T10:12:52.492Z</time>
      </trkpt>
      <trkpt lat="43.59641" lon="3.12521">
        <ele>239.7</ele>
        <time>2014-02-20T10:12:54.489Z</time>
      </trkpt>
      <trkpt lat="43.59642" lon="3.12528">
        <ele>239.7</ele>
        <time>2014-02-20T10:12:55.492Z</time>
      </trkpt>
      <trkpt lat="43.59642" lon="3.12534">
        <ele>239.6</ele>
        <time>2014-02-20T10:12:56.491Z</time>
      </trkpt>
      <trkpt lat="43.59643" lon="3.12541">
        <ele>240</ele>
        <time>2014-02-20T10:12:57.489Z</time>
      </trkpt>
      <trkpt lat="43.59643" lon="3.12547">
        <ele>239.5</ele>
        <time>2014-02-20T10:12:58.491Z</time>
      </trkpt>
      <trkpt lat="43.59643" lon="3.12553">
        <ele>239.5</ele>
        <time>2014-02-20T10:12:59.492Z</time>
      </trkpt>
      <trkpt lat="43.59645" lon="3.12559">
        <ele>239.7</ele>
        <time>2014-02-20T10:13:00.490Z</time>
      </trkpt>
      <trkpt lat="43.59646" lon="3.12565">
        <ele>239.6</ele>
        <time>2014-02-20T10:13:01.490Z</time>
      </trkpt>
      <trkpt lat="43.59647" lon="3.12577">
        <ele>239.3</ele>
        <time>2014-02-20T10:13:03.500Z</time>
      </trkpt>
      <trkpt lat="43.59646" lon="3.12582">
        <ele>239.8</ele>
        <time>2014-02-20T10:13:04.491Z</time>
      </trkpt>
      <trkpt lat="43.59647" lon="3.12589">
        <ele>239</ele>
        <time>2014-02-20T10:13:05.491Z</time>
      </trkpt>
      <trkpt lat="43.59648" lon="3.12596">
        <ele>238.5</ele>
        <time>2014-02-20T10:13:06.491Z</time>
      </trkpt>
      <trkpt lat="43.59649" lon="3.12602">
        <ele>238.6</ele>
        <time>2014-02-20T10:13:07.491Z</time>
      </trkpt>
      <trkpt lat="43.59649" lon="3.12608">
        <ele>238.3</ele>
        <time>2014-02-20T10:13:08.492Z</time>
      </trkpt>
      <trkpt lat="43.5965" lon="3.12614">
        <ele>238.4</ele>
        <time>2014-02-20T10:13:09.490Z</time>
      </trkpt>
      <trkpt lat="43.5965" lon="3.1262">
        <ele>238.6</ele>
        <time>2014-02-20T10:13:10.491Z</time>
      </trkpt>
      <trkpt lat="43.59651" lon="3.12632">
        <ele>237.9</ele>
        <time>2014-02-20T10:13:12.491Z</time>
      </trkpt>
      <trkpt lat="43.59652" lon="3.12638">
        <ele>237.7</ele>
        <time>2014-02-20T10:13:13.492Z</time>
      </trkpt>
      <trkpt lat="43.59653" lon="3.12649">
        <ele>237.1</ele>
        <time>2014-02-20T10:13:15.491Z</time>
      </trkpt>
      <trkpt lat="43.59653" lon="3.12655">
        <ele>236.9</ele>
        <time>2014-02-20T10:13:16.493Z</time>
      </trkpt>
      <trkpt lat="43.59654" lon="3.12666">
        <ele>236.2</ele>
        <time>2014-02-20T10:13:18.488Z</time>
      </trkpt>
      <trkpt lat="43.59655" lon="3.12671">
        <ele>235.8</ele>
        <time>2014-02-20T10:13:19.491Z</time>
      </trkpt>
      <trkpt lat="43.59657" lon="3.12681">
        <ele>235.7</ele>
        <time>2014-02-20T10:13:21.489Z</time>
      </trkpt>
      <trkpt lat="43.59658" lon="3.12686">
        <ele>235.4</ele>
        <time>2014-02-20T10:13:22.490Z</time>
      </trkpt>
      <trkpt lat="43.59659" lon="3.12692">
        <ele>235</ele>
        <time>2014-02-20T10:13:23.491Z</time>
      </trkpt>
      <trkpt lat="43.5966" lon="3.12699">
        <ele>235.3</ele>
        <time>2014-02-20T10:13:24.489Z</time>
      </trkpt>
      <trkpt lat="43.5966" lon="3.12705">
        <ele>234.6</ele>
        <time>2014-02-20T10:13:25.489Z</time>
      </trkpt>
      <trkpt lat="43.59661" lon="3.12711">
        <ele>234.7</ele>
        <time>2014-02-20T10:13:26.491Z</time>
      </trkpt>
      <trkpt lat="43.59662" lon="3.12723">
        <ele>234.1</ele>
        <time>2014-02-20T10:13:28.490Z</time>
      </trkpt>
      <trkpt lat="43.59662" lon="3.12729">
        <ele>233.8</ele>
        <time>2014-02-20T10:13:29.490Z</time>
      </trkpt>
      <trkpt lat="43.59663" lon="3.12739">
        <ele>233.8</ele>
        <time>2014-02-20T10:13:31.491Z</time>
      </trkpt>
      <trkpt lat="43.59663" lon="3.12745">
        <ele>233.9</ele>
        <time>2014-02-20T10:13:32.493Z</time>
      </trkpt>
      <trkpt lat="43.59664" lon="3.12755">
        <ele>234</ele>
        <time>2014-02-20T10:13:34.490Z</time>
      </trkpt>
      <trkpt lat="43.59666" lon="3.12761">
        <ele>233.3</ele>
        <time>2014-02-20T10:13:35.495Z</time>
      </trkpt>
      <trkpt lat="43.59666" lon="3.12772">
        <ele>232.9</ele>
        <time>2014-02-20T10:13:37.491Z</time>
      </trkpt>
      <trkpt lat="43.59667" lon="3.12778">
        <ele>232.7</ele>
        <time>2014-02-20T10:13:38.490Z</time>
      </trkpt>
      <trkpt lat="43.59668" lon="3.12784">
        <ele>232.3</ele>
        <time>2014-02-20T10:13:39.487Z</time>
      </trkpt>
      <trkpt lat="43.59669" lon="3.12791">
        <ele>231.9</ele>
        <time>2014-02-20T10:13:40.489Z</time>
      </trkpt>
      <trkpt lat="43.5967" lon="3.12802">
        <ele>232</ele>
        <time>2014-02-20T10:13:42.488Z</time>
      </trkpt>
      <trkpt lat="43.5967" lon="3.12808">
        <ele>232.5</ele>
        <time>2014-02-20T10:13:43.491Z</time>
      </trkpt>
      <trkpt lat="43.5967" lon="3.12818">
        <ele>232.2</ele>
        <time>2014-02-20T10:13:45.489Z</time>
      </trkpt>
      <trkpt lat="43.5967" lon="3.12823">
        <ele>232.5</ele>
        <time>2014-02-20T10:13:46.490Z</time>
      </trkpt>
      <trkpt lat="43.59672" lon="3.12833">
        <ele>232</ele>
        <time>2014-02-20T10:13:48.488Z</time>
      </trkpt>
      <trkpt lat="43.59673" lon="3.12838">
        <ele>231.7</ele>
        <time>2014-02-20T10:13:49.490Z</time>
      </trkpt>
      <trkpt lat="43.59674" lon="3.12849">
        <ele>231.9</ele>
        <time>2014-02-20T10:13:51.489Z</time>
      </trkpt>
      <trkpt lat="43.59675" lon="3.12854">
        <ele>231.7</ele>
        <time>2014-02-20T10:13:52.490Z</time>
      </trkpt>
      <trkpt lat="43.59675" lon="3.12865">
        <ele>232.3</ele>
        <time>2014-02-20T10:13:54.488Z</time>
      </trkpt>
      <trkpt lat="43.59676" lon="3.12871">
        <ele>232.2</ele>
        <time>2014-02-20T10:13:55.561Z</time>
      </trkpt>
      <trkpt lat="43.59677" lon="3.12883">
        <ele>232.5</ele>
        <time>2014-02-20T10:13:57.487Z</time>
      </trkpt>
      <trkpt lat="43.59678" lon="3.1289">
        <ele>232.7</ele>
        <time>2014-02-20T10:13:58.490Z</time>
      </trkpt>
      <trkpt lat="43.5968" lon="3.12901">
        <ele>233</ele>
        <time>2014-02-20T10:14:00.488Z</time>
      </trkpt>
      <trkpt lat="43.59681" lon="3.12907">
        <ele>233.6</ele>
        <time>2014-02-20T10:14:01.525Z</time>
      </trkpt>
      <trkpt lat="43.59679" lon="3.12916">
        <ele>233.8</ele>
        <time>2014-02-20T10:14:03.487Z</time>
      </trkpt>
      <trkpt lat="43.59679" lon="3.1292">
        <ele>234.5</ele>
        <time>2014-02-20T10:14:04.491Z</time>
      </trkpt>
      <trkpt lat="43.59679" lon="3.1293">
        <ele>234.1</ele>
        <time>2014-02-20T10:14:06.550Z</time>
      </trkpt>
      <trkpt lat="43.5968" lon="3.12936">
        <ele>234</ele>
        <time>2014-02-20T10:14:07.497Z</time>
      </trkpt>
      <trkpt lat="43.59679" lon="3.12942">
        <ele>235.1</ele>
        <time>2014-02-20T10:14:08.490Z</time>
      </trkpt>
      <trkpt lat="43.5968" lon="3.12949">
        <ele>235.3</ele>
        <time>2014-02-20T10:14:09.487Z</time>
      </trkpt>
      <trkpt lat="43.5968" lon="3.12955">
        <ele>235.6</ele>
        <time>2014-02-20T10:14:10.488Z</time>
      </trkpt>
      <trkpt lat="43.5968" lon="3.12962">
        <ele>234.9</ele>
        <time>2014-02-20T10:14:11.488Z</time>
      </trkpt>
      <trkpt lat="43.59679" lon="3.12973">
        <ele>235.2</ele>
        <time>2014-02-20T10:14:13.488Z</time>
      </trkpt>
      <trkpt lat="43.59679" lon="3.12979">
        <ele>235.5</ele>
        <time>2014-02-20T10:14:14.489Z</time>
      </trkpt>
      <trkpt lat="43.5968" lon="3.12991">
        <ele>235.6</ele>
        <time>2014-02-20T10:14:16.491Z</time>
      </trkpt>
      <trkpt lat="43.5968" lon="3.12997">
        <ele>235.3</ele>
        <time>2014-02-20T10:14:17.490Z</time>
      </trkpt>
      <trkpt lat="43.59683" lon="3.13008">
        <ele>235.6</ele>
        <time>2014-02-20T10:14:19.490Z</time>
      </trkpt>
      <trkpt lat="43.59684" lon="3.13012">
        <ele>235.6</ele>
        <time>2014-02-20T10:14:20.489Z</time>
      </trkpt>
      <trkpt lat="43.59685" lon="3.13022">
        <ele>235.6</ele>
        <time>2014-02-20T10:14:22.491Z</time>
      </trkpt>
      <trkpt lat="43.59685" lon="3.13026">
        <ele>235</ele>
        <time>2014-02-20T10:14:23.490Z</time>
      </trkpt>
      <trkpt lat="43.59685" lon="3.13035">
        <ele>234.8</ele>
        <time>2014-02-20T10:14:25.542Z</time>
      </trkpt>
      <trkpt lat="43.59686" lon="3.1304">
        <ele>234.8</ele>
        <time>2014-02-20T10:14:26.490Z</time>
      </trkpt>
      <trkpt lat="43.59687" lon="3.13052">
        <ele>234.7</ele>
        <time>2014-02-20T10:14:28.490Z</time>
      </trkpt>
      <trkpt lat="43.59688" lon="3.13058">
        <ele>234.3</ele>
        <time>2014-02-20T10:14:29.489Z</time>
      </trkpt>
      <trkpt lat="43.5969" lon="3.13064">
        <ele>233.3</ele>
        <time>2014-02-20T10:14:30.488Z</time>
      </trkpt>
      <trkpt lat="43.59692" lon="3.13071">
        <ele>232.9</ele>
        <time>2014-02-20T10:14:31.492Z</time>
      </trkpt>
      <trkpt lat="43.59694" lon="3.13077">
        <ele>232.3</ele>
        <time>2014-02-20T10:14:32.491Z</time>
      </trkpt>
      <trkpt lat="43.59696" lon="3.13083">
        <ele>231.9</ele>
        <time>2014-02-20T10:14:33.491Z</time>
      </trkpt>
      <trkpt lat="43.59698" lon="3.13095">
        <ele>231.6</ele>
        <time>2014-02-20T10:14:35.493Z</time>
      </trkpt>
      <trkpt lat="43.59699" lon="3.131">
        <ele>231</ele>
        <time>2014-02-20T10:14:36.499Z</time>
      </trkpt>
      <trkpt lat="43.59701" lon="3.13105">
        <ele>231.1</ele>
        <time>2014-02-20T10:14:37.498Z</time>
      </trkpt>
      <trkpt lat="43.59703" lon="3.13111">
        <ele>231.1</ele>
        <time>2014-02-20T10:14:38.675Z</time>
      </trkpt>
      <trkpt lat="43.59705" lon="3.13121">
        <ele>231.3</ele>
        <time>2014-02-20T10:14:40.498Z</time>
      </trkpt>
      <trkpt lat="43.59706" lon="3.13128">
        <ele>231.1</ele>
        <time>2014-02-20T10:14:41.499Z</time>
      </trkpt>
      <trkpt lat="43.59706" lon="3.13135">
        <ele>230.9</ele>
        <time>2014-02-20T10:14:42.496Z</time>
      </trkpt>
      <trkpt lat="43.59706" lon="3.13143">
        <ele>230.8</ele>
        <time>2014-02-20T10:14:43.501Z</time>
      </trkpt>
      <trkpt lat="43.59706" lon="3.13152">
        <ele>230.7</ele>
        <time>2014-02-20T10:14:44.498Z</time>
      </trkpt>
      <trkpt lat="43.59706" lon="3.1316">
        <ele>231.1</ele>
        <time>2014-02-20T10:14:45.495Z</time>
      </trkpt>
      <trkpt lat="43.59705" lon="3.13171">
        <ele>231</ele>
        <time>2014-02-20T10:14:47.591Z</time>
      </trkpt>
      <trkpt lat="43.59704" lon="3.1318">
        <ele>231</ele>
        <time>2014-02-20T10:14:48.487Z</time>
      </trkpt>
      <trkpt lat="43.59704" lon="3.13189">
        <ele>231.5</ele>
        <time>2014-02-20T10:14:49.497Z</time>
      </trkpt>
      <trkpt lat="43.59704" lon="3.13196">
        <ele>231.2</ele>
        <time>2014-02-20T10:14:50.553Z</time>
      </trkpt>
      <trkpt lat="43.59704" lon="3.13203">
        <ele>231</ele>
        <time>2014-02-20T10:14:51.497Z</time>
      </trkpt>
      <trkpt lat="43.59705" lon="3.1321">
        <ele>231.3</ele>
        <time>2014-02-20T10:14:52.499Z</time>
      </trkpt>
      <trkpt lat="43.59704" lon="3.13216">
        <ele>230.7</ele>
        <time>2014-02-20T10:14:53.495Z</time>
      </trkpt>
      <trkpt lat="43.59706" lon="3.13223">
        <ele>231</ele>
        <time>2014-02-20T10:14:54.497Z</time>
      </trkpt>
      <trkpt lat="43.59706" lon="3.13229">
        <ele>231</ele>
        <time>2014-02-20T10:14:55.496Z</time>
      </trkpt>
      <trkpt lat="43.59708" lon="3.13237">
        <ele>231</ele>
        <time>2014-02-20T10:14:56.499Z</time>
      </trkpt>
      <trkpt lat="43.5971" lon="3.13244">
        <ele>231.5</ele>
        <time>2014-02-20T10:14:57.495Z</time>
      </trkpt>
      <trkpt lat="43.59713" lon="3.13251">
        <ele>231.7</ele>
        <time>2014-02-20T10:14:58.496Z</time>
      </trkpt>
      <trkpt lat="43.59716" lon="3.13258">
        <ele>231.7</ele>
        <time>2014-02-20T10:14:59.496Z</time>
      </trkpt>
      <trkpt lat="43.59717" lon="3.13264">
        <ele>231.6</ele>
        <time>2014-02-20T10:15:00.492Z</time>
      </trkpt>
      <trkpt lat="43.5972" lon="3.13273">
        <ele>233.2</ele>
        <time>2014-02-20T10:15:02.495Z</time>
      </trkpt>
      <trkpt lat="43.59721" lon="3.13278">
        <ele>233.4</ele>
        <time>2014-02-20T10:15:03.495Z</time>
      </trkpt>
      <trkpt lat="43.59722" lon="3.1329">
        <ele>232.6</ele>
        <time>2014-02-20T10:15:05.496Z</time>
      </trkpt>
      <trkpt lat="43.59723" lon="3.13294">
        <ele>231.7</ele>
        <time>2014-02-20T10:15:06.494Z</time>
      </trkpt>
      <trkpt lat="43.59725" lon="3.13305">
        <ele>231.8</ele>
        <time>2014-02-20T10:15:08.495Z</time>
      </trkpt>
      <trkpt lat="43.59725" lon="3.13308">
        <ele>232</ele>
        <time>2014-02-20T10:15:09.495Z</time>
      </trkpt>
      <trkpt lat="43.59726" lon="3.1332">
        <ele>230.3</ele>
        <time>2014-02-20T10:15:13.497Z</time>
      </trkpt>
      <trkpt lat="43.59726" lon="3.13325">
        <ele>230.2</ele>
        <time>2014-02-20T10:15:14.498Z</time>
      </trkpt>
      <trkpt lat="43.59727" lon="3.13333">
        <ele>229.9</ele>
        <time>2014-02-20T10:15:16.498Z</time>
      </trkpt>
      <trkpt lat="43.59728" lon="3.13338">
        <ele>230</ele>
        <time>2014-02-20T10:15:17.499Z</time>
      </trkpt>
      <trkpt lat="43.5973" lon="3.13347">
        <ele>230.1</ele>
        <time>2014-02-20T10:15:19.497Z</time>
      </trkpt>
      <trkpt lat="43.59731" lon="3.13351">
        <ele>230.2</ele>
        <time>2014-02-20T10:15:20.498Z</time>
      </trkpt>
      <trkpt lat="43.59733" lon="3.13362">
        <ele>231.8</ele>
        <time>2014-02-20T10:15:24.489Z</time>
      </trkpt>
      <trkpt lat="43.59732" lon="3.13364">
        <ele>232.2</ele>
        <time>2014-02-20T10:15:25.491Z</time>
      </trkpt>
      <trkpt lat="43.59729" lon="3.13372">
        <ele>237.4</ele>
        <time>2014-02-20T10:15:32.490Z</time>
      </trkpt>
      <trkpt lat="43.59729" lon="3.13372">
        <ele>238.8</ele>
        <time>2014-02-20T10:15:33.488Z</time>
      </trkpt>
      <trkpt lat="43.5973" lon="3.13372">
        <ele>239.7</ele>
        <time>2014-02-20T10:15:50.570Z</time>
      </trkpt>
      <trkpt lat="43.5973" lon="3.13372">
        <ele>239.4</ele>
        <time>2014-02-20T10:15:51.498Z</time>
      </trkpt>
      <trkpt lat="43.59737" lon="3.13366">
        <ele>238.2</ele>
        <time>2014-02-20T10:16:00.488Z</time>
      </trkpt>
      <trkpt lat="43.5974" lon="3.13365">
        <ele>236.9</ele>
        <time>2014-02-20T10:16:01.489Z</time>
      </trkpt>
      <trkpt lat="43.59749" lon="3.13362">
        <ele>235.7</ele>
        <time>2014-02-20T10:16:04.490Z</time>
      </trkpt>
      <trkpt lat="43.5975" lon="3.13362">
        <ele>235.6</ele>
        <time>2014-02-20T10:16:05.491Z</time>
      </trkpt>
      <trkpt lat="43.59758" lon="3.13361">
        <ele>232.5</ele>
        <time>2014-02-20T10:16:09.489Z</time>
      </trkpt>
      <trkpt lat="43.59763" lon="3.13364">
        <ele>230.7</ele>
        <time>2014-02-20T10:16:10.491Z</time>
      </trkpt>
      <trkpt lat="43.59768" lon="3.13368">
        <ele>229.6</ele>
        <time>2014-02-20T10:16:11.491Z</time>
      </trkpt>
      <trkpt lat="43.59771" lon="3.13371">
        <ele>229.7</ele>
        <time>2014-02-20T10:16:12.490Z</time>
      </trkpt>
      <trkpt lat="43.59779" lon="3.13375">
        <ele>229.8</ele>
        <time>2014-02-20T10:16:15.499Z</time>
      </trkpt>
      <trkpt lat="43.59781" lon="3.13374">
        <ele>229.6</ele>
        <time>2014-02-20T10:16:16.495Z</time>
      </trkpt>
      <trkpt lat="43.59789" lon="3.1337">
        <ele>229.5</ele>
        <time>2014-02-20T10:16:19.490Z</time>
      </trkpt>
      <trkpt lat="43.59792" lon="3.13369">
        <ele>229.1</ele>
        <time>2014-02-20T10:16:20.488Z</time>
      </trkpt>
      <trkpt lat="43.59798" lon="3.13367">
        <ele>229.3</ele>
        <time>2014-02-20T10:16:23.489Z</time>
      </trkpt>
      <trkpt lat="43.59801" lon="3.13367">
        <ele>228.7</ele>
        <time>2014-02-20T10:16:24.489Z</time>
      </trkpt>
      <trkpt lat="43.59808" lon="3.13365">
        <ele>231.8</ele>
        <time>2014-02-20T10:16:27.488Z</time>
      </trkpt>
      <trkpt lat="43.5981" lon="3.13365">
        <ele>232.3</ele>
        <time>2014-02-20T10:16:28.488Z</time>
      </trkpt>
      <trkpt lat="43.59818" lon="3.13362">
        <ele>235</ele>
        <time>2014-02-20T10:16:33.488Z</time>
      </trkpt>
      <trkpt lat="43.59819" lon="3.13361">
        <ele>235.1</ele>
        <time>2014-02-20T10:16:34.488Z</time>
      </trkpt>
      <trkpt lat="43.59819" lon="3.13361">
        <ele>232.6</ele>
        <time>2014-02-20T10:16:36.488Z</time>
      </trkpt>
      <trkpt lat="43.59818" lon="3.13361">
        <ele>232.6</ele>
        <time>2014-02-20T10:16:37.491Z</time>
      </trkpt>
      <trkpt lat="43.59819" lon="3.13361">
        <ele>232.1</ele>
        <time>2014-02-20T10:16:38.489Z</time>
      </trkpt>
      <trkpt lat="43.5982" lon="3.13361">
        <ele>231.6</ele>
        <time>2014-02-20T10:16:39.487Z</time>
      </trkpt>
      <trkpt lat="43.59828" lon="3.1336">
        <ele>233.9</ele>
        <time>2014-02-20T10:16:42.490Z</time>
      </trkpt>
      <trkpt lat="43.5983" lon="3.1336">
        <ele>234.1</ele>
        <time>2014-02-20T10:16:43.491Z</time>
      </trkpt>
      <trkpt lat="43.59834" lon="3.1337">
        <ele>233.7</ele>
        <time>2014-02-20T10:16:53.491Z</time>
      </trkpt>
      <trkpt lat="43.59834" lon="3.13372">
        <ele>234.6</ele>
        <time>2014-02-20T10:16:54.489Z</time>
      </trkpt>
      <trkpt lat="43.59834" lon="3.13382">
        <ele>234.6</ele>
        <time>2014-02-20T10:16:59.491Z</time>
      </trkpt>
      <trkpt lat="43.59834" lon="3.13384">
        <ele>234.8</ele>
        <time>2014-02-20T10:17:00.490Z</time>
      </trkpt>
      <trkpt lat="43.59835" lon="3.13395">
        <ele>236.1</ele>
        <time>2014-02-20T10:17:05.490Z</time>
      </trkpt>
      <trkpt lat="43.59835" lon="3.13398">
        <ele>236.2</ele>
        <time>2014-02-20T10:17:06.490Z</time>
      </trkpt>
      <trkpt lat="43.59838" lon="3.13409">
        <ele>232.1</ele>
        <time>2014-02-20T10:17:11.489Z</time>
      </trkpt>
      <trkpt lat="43.59839" lon="3.13411">
        <ele>231.2</ele>
        <time>2014-02-20T10:17:12.488Z</time>
      </trkpt>
      <trkpt lat="43.59843" lon="3.1342">
        <ele>231.1</ele>
        <time>2014-02-20T10:17:16.490Z</time>
      </trkpt>
      <trkpt lat="43.59844" lon="3.13421">
        <ele>231.2</ele>
        <time>2014-02-20T10:17:17.490Z</time>
      </trkpt>
      <trkpt lat="43.59844" lon="3.13433">
        <ele>234.3</ele>
        <time>2014-02-20T10:17:23.490Z</time>
      </trkpt>
      <trkpt lat="43.59844" lon="3.13436">
        <ele>234.8</ele>
        <time>2014-02-20T10:17:24.488Z</time>
      </trkpt>
      <trkpt lat="43.59843" lon="3.13447">
        <ele>236.3</ele>
        <time>2014-02-20T10:17:27.487Z</time>
      </trkpt>
      <trkpt lat="43.59843" lon="3.1345">
        <ele>233.7</ele>
        <time>2014-02-20T10:17:28.488Z</time>
      </trkpt>
      <trkpt lat="43.59844" lon="3.13459">
        <ele>233.7</ele>
        <time>2014-02-20T10:17:31.490Z</time>
      </trkpt>
      <trkpt lat="43.59844" lon="3.13462">
        <ele>233.8</ele>
        <time>2014-02-20T10:17:32.489Z</time>
      </trkpt>
      <trkpt lat="43.59842" lon="3.13474">
        <ele>234.6</ele>
        <time>2014-02-20T10:17:37.490Z</time>
      </trkpt>
      <trkpt lat="43.59841" lon="3.13475">
        <ele>234.9</ele>
        <time>2014-02-20T10:17:38.490Z</time>
      </trkpt>
      <trkpt lat="43.5984" lon="3.13478">
        <ele>240.4</ele>
        <time>2014-02-20T10:17:44.488Z</time>
      </trkpt>
      <trkpt lat="43.5984" lon="3.13478">
        <ele>240.5</ele>
        <time>2014-02-20T10:17:45.487Z</time>
      </trkpt>
      <trkpt lat="43.59839" lon="3.13479">
        <ele>241.1</ele>
        <time>2014-02-20T10:17:52.497Z</time>
      </trkpt>
      <trkpt lat="43.59839" lon="3.13479">
        <ele>241.3</ele>
        <time>2014-02-20T10:17:53.491Z</time>
      </trkpt>
      <trkpt lat="43.59832" lon="3.13471">
        <ele>239</ele>
        <time>2014-02-20T10:18:00.488Z</time>
      </trkpt>
      <trkpt lat="43.59829" lon="3.13474">
        <ele>239.6</ele>
        <time>2014-02-20T10:18:01.491Z</time>
      </trkpt>
      <trkpt lat="43.59824" lon="3.13482">
        <ele>238.8</ele>
        <time>2014-02-20T10:18:04.490Z</time>
      </trkpt>
      <trkpt lat="43.59825" lon="3.13486">
        <ele>238.4</ele>
        <time>2014-02-20T10:18:05.490Z</time>
      </trkpt>
      <trkpt lat="43.59827" lon="3.13496">
        <ele>237.8</ele>
        <time>2014-02-20T10:18:09.490Z</time>
      </trkpt>
      <trkpt lat="43.59828" lon="3.13498">
        <ele>237.7</ele>
        <time>2014-02-20T10:18:10.600Z</time>
      </trkpt>
      <trkpt lat="43.59829" lon="3.1351">
        <ele>238.9</ele>
        <time>2014-02-20T10:18:14.491Z</time>
      </trkpt>
      <trkpt lat="43.59829" lon="3.13513">
        <ele>238.8</ele>
        <time>2014-02-20T10:18:15.546Z</time>
      </trkpt>
      <trkpt lat="43.5983" lon="3.13524">
        <ele>238.3</ele>
        <time>2014-02-20T10:18:18.490Z</time>
      </trkpt>
      <trkpt lat="43.5983" lon="3.13528">
        <ele>238.4</ele>
        <time>2014-02-20T10:18:19.493Z</time>
      </trkpt>
      <trkpt lat="43.59826" lon="3.13536">
        <ele>238.9</ele>
        <time>2014-02-20T10:18:23.498Z</time>
      </trkpt>
      <trkpt lat="43.59824" lon="3.13538">
        <ele>238.9</ele>
        <time>2014-02-20T10:18:24.490Z</time>
      </trkpt>
      <trkpt lat="43.59816" lon="3.13541">
        <ele>237.2</ele>
        <time>2014-02-20T10:18:28.490Z</time>
      </trkpt>
      <trkpt lat="43.59815" lon="3.13543">
        <ele>237.2</ele>
        <time>2014-02-20T10:18:29.491Z</time>
      </trkpt>
      <trkpt lat="43.59813" lon="3.13553">
        <ele>237.2</ele>
        <time>2014-02-20T10:18:34.491Z</time>
      </trkpt>
      <trkpt lat="43.59814" lon="3.13556">
        <ele>236.8</ele>
        <time>2014-02-20T10:18:35.492Z</time>
      </trkpt>
      <trkpt lat="43.59815" lon="3.13566">
        <ele>236.6</ele>
        <time>2014-02-20T10:18:43.498Z</time>
      </trkpt>
      <trkpt lat="43.59814" lon="3.13566">
        <ele>236.5</ele>
        <time>2014-02-20T10:18:44.898Z</time>
      </trkpt>
      <trkpt lat="43.59814" lon="3.13565">
        <ele>237.2</ele>
        <time>2014-02-20T10:19:17.493Z</time>
      </trkpt>
      <trkpt lat="43.59813" lon="3.13566">
        <ele>237.3</ele>
        <time>2014-02-20T10:19:18.490Z</time>
      </trkpt>
      <trkpt lat="43.59813" lon="3.13569">
        <ele>237.8</ele>
        <time>2014-02-20T10:19:23.495Z</time>
      </trkpt>
      <trkpt lat="43.59814" lon="3.13569">
        <ele>237.8</ele>
        <time>2014-02-20T10:19:24.540Z</time>
      </trkpt>
      <trkpt lat="43.59814" lon="3.1357">
        <ele>237.6</ele>
        <time>2014-02-20T10:19:33.489Z</time>
      </trkpt>
      <trkpt lat="43.59814" lon="3.13571">
        <ele>237.3</ele>
        <time>2014-02-20T10:19:34.490Z</time>
      </trkpt>
      <trkpt lat="43.59814" lon="3.13571">
        <ele>237.3</ele>
        <time>2014-02-20T10:19:35.493Z</time>
      </trkpt>
      <trkpt lat="43.59814" lon="3.13571">
        <ele>237.3</ele>
        <time>2014-02-20T10:19:36.488Z</time>
      </trkpt>
      <trkpt lat="43.59814" lon="3.13571">
        <ele>237.2</ele>
        <time>2014-02-20T10:19:39.488Z</time>
      </trkpt>
      <trkpt lat="43.59815" lon="3.13572">
        <ele>236.3</ele>
        <time>2014-02-20T10:19:40.490Z</time>
      </trkpt>
      <trkpt lat="43.59816" lon="3.13574">
        <ele>235.2</ele>
        <time>2014-02-20T10:19:45.488Z</time>
      </trkpt>
      <trkpt lat="43.59816" lon="3.13574">
        <ele>235.2</ele>
        <time>2014-02-20T10:19:46.490Z</time>
      </trkpt>
      <trkpt lat="43.59816" lon="3.13574">
        <ele>235.2</ele>
        <time>2014-02-20T10:19:59.498Z</time>
      </trkpt>
      <trkpt lat="43.59817" lon="3.13574">
        <ele>236.1</ele>
        <time>2014-02-20T10:20:00.488Z</time>
      </trkpt>
      <trkpt lat="43.59821" lon="3.1358">
        <ele>237</ele>
        <time>2014-02-20T10:20:12.488Z</time>
      </trkpt>
      <trkpt lat="43.59821" lon="3.1358">
        <ele>237</ele>
        <time>2014-02-20T10:20:13.489Z</time>
      </trkpt>
      <trkpt lat="43.59821" lon="3.1358">
        <ele>237.1</ele>
        <time>2014-02-20T10:20:26.493Z</time>
      </trkpt>
      <trkpt lat="43.59821" lon="3.13581">
        <ele>237.1</ele>
        <time>2014-02-20T10:20:27.490Z</time>
      </trkpt>
      <trkpt lat="43.59825" lon="3.1359">
        <ele>233.2</ele>
        <time>2014-02-20T10:20:30.488Z</time>
      </trkpt>
      <trkpt lat="43.59826" lon="3.13593">
        <ele>233.6</ele>
        <time>2014-02-20T10:20:31.499Z</time>
      </trkpt>
      <trkpt lat="43.5983" lon="3.13603">
        <ele>233.3</ele>
        <time>2014-02-20T10:20:34.490Z</time>
      </trkpt>
      <trkpt lat="43.59831" lon="3.13605">
        <ele>233.6</ele>
        <time>2014-02-20T10:20:35.492Z</time>
      </trkpt>
      <trkpt lat="43.59829" lon="3.13616">
        <ele>243.5</ele>
        <time>2014-02-20T10:20:44.543Z</time>
      </trkpt>
      <trkpt lat="43.59829" lon="3.13618">
        <ele>243.7</ele>
        <time>2014-02-20T10:20:45.488Z</time>
      </trkpt>
      <trkpt lat="43.59834" lon="3.13626">
        <ele>242.3</ele>
        <time>2014-02-20T10:20:52.490Z</time>
      </trkpt>
      <trkpt lat="43.59835" lon="3.13627">
        <ele>242.4</ele>
        <time>2014-02-20T10:20:53.493Z</time>
      </trkpt>
      <trkpt lat="43.59838" lon="3.13637">
        <ele>243</ele>
        <time>2014-02-20T10:21:00.488Z</time>
      </trkpt>
      <trkpt lat="43.59839" lon="3.13639">
        <ele>243.4</ele>
        <time>2014-02-20T10:21:01.490Z</time>
      </trkpt>
      <trkpt lat="43.59843" lon="3.13648">
        <ele>243.7</ele>
        <time>2014-02-20T10:21:06.487Z</time>
      </trkpt>
      <trkpt lat="43.59843" lon="3.1365">
        <ele>243.1</ele>
        <time>2014-02-20T10:21:07.490Z</time>
      </trkpt>
      <trkpt lat="43.59847" lon="3.1366">
        <ele>243.3</ele>
        <time>2014-02-20T10:21:15.489Z</time>
      </trkpt>
      <trkpt lat="43.59848" lon="3.13661">
        <ele>243.3</ele>
        <time>2014-02-20T10:21:16.491Z</time>
      </trkpt>
      <trkpt lat="43.59852" lon="3.13671">
        <ele>242.8</ele>
        <time>2014-02-20T10:21:25.490Z</time>
      </trkpt>
      <trkpt lat="43.59854" lon="3.13674">
        <ele>242.5</ele>
        <time>2014-02-20T10:21:26.504Z</time>
      </trkpt>
      <trkpt lat="43.59856" lon="3.13677">
        <ele>243.7</ele>
        <time>2014-02-20T10:21:29.493Z</time>
      </trkpt>
      <trkpt lat="43.59867" lon="3.13705">
        <ele>249.3</ele>
        <time>2014-02-20T10:22:01.499Z</time>
      </trkpt>
      <trkpt lat="43.59867" lon="3.13704">
        <ele>251.3</ele>
        <time>2014-02-20T10:22:04.495Z</time>
      </trkpt>
      <trkpt lat="43.59867" lon="3.13705">
        <ele>252.8</ele>
        <time>2014-02-20T10:22:05.499Z</time>
      </trkpt>
      <trkpt lat="43.59865" lon="3.13704">
        <ele>254.4</ele>
        <time>2014-02-20T10:22:06.495Z</time>
      </trkpt>
      <trkpt lat="43.5986" lon="3.13703">
        <ele>257.9</ele>
        <time>2014-02-20T10:22:13.497Z</time>
      </trkpt>
      <trkpt lat="43.5986" lon="3.13703">
        <ele>257.8</ele>
        <time>2014-02-20T10:22:14.498Z</time>
      </trkpt>
      <trkpt lat="43.59861" lon="3.13703">
        <ele>257.4</ele>
        <time>2014-02-20T10:22:23.499Z</time>
      </trkpt>
      <trkpt lat="43.59861" lon="3.13704">
        <ele>257.3</ele>
        <time>2014-02-20T10:22:24.493Z</time>
      </trkpt>
      <trkpt lat="43.59867" lon="3.13713">
        <ele>254.6</ele>
        <time>2014-02-20T10:22:26.499Z</time>
      </trkpt>
      <trkpt lat="43.59871" lon="3.13718">
        <ele>254</ele>
        <time>2014-02-20T10:22:27.489Z</time>
      </trkpt>
      <trkpt lat="43.59875" lon="3.13727">
        <ele>252.4</ele>
        <time>2014-02-20T10:22:29.499Z</time>
      </trkpt>
      <trkpt lat="43.59877" lon="3.13731">
        <ele>252.8</ele>
        <time>2014-02-20T10:22:30.497Z</time>
      </trkpt>
      <trkpt lat="43.59878" lon="3.1374">
        <ele>253.6</ele>
        <time>2014-02-20T10:22:32.500Z</time>
      </trkpt>
      <trkpt lat="43.59879" lon="3.13744">
        <ele>253.9</ele>
        <time>2014-02-20T10:22:33.504Z</time>
      </trkpt>
      <trkpt lat="43.59882" lon="3.13753">
        <ele>254</ele>
        <time>2014-02-20T10:22:35.499Z</time>
      </trkpt>
      <trkpt lat="43.59884" lon="3.13756">
        <ele>253.4</ele>
        <time>2014-02-20T10:22:36.497Z</time>
      </trkpt>
      <trkpt lat="43.59887" lon="3.13764">
        <ele>252.2</ele>
        <time>2014-02-20T10:22:38.501Z</time>
      </trkpt>
      <trkpt lat="43.59887" lon="3.13769">
        <ele>252.4</ele>
        <time>2014-02-20T10:22:39.496Z</time>
      </trkpt>
      <trkpt lat="43.59888" lon="3.13777">
        <ele>252.3</ele>
        <time>2014-02-20T10:22:41.500Z</time>
      </trkpt>
      <trkpt lat="43.59889" lon="3.13781">
        <ele>252.3</ele>
        <time>2014-02-20T10:22:42.497Z</time>
      </trkpt>
      <trkpt lat="43.59891" lon="3.13791">
        <ele>252.3</ele>
        <time>2014-02-20T10:22:44.492Z</time>
      </trkpt>
      <trkpt lat="43.59892" lon="3.13796">
        <ele>252.6</ele>
        <time>2014-02-20T10:22:45.489Z</time>
      </trkpt>
      <trkpt lat="43.59894" lon="3.13806">
        <ele>252.2</ele>
        <time>2014-02-20T10:22:47.489Z</time>
      </trkpt>
      <trkpt lat="43.59896" lon="3.1381">
        <ele>251.4</ele>
        <time>2014-02-20T10:22:48.489Z</time>
      </trkpt>
      <trkpt lat="43.599" lon="3.13819">
        <ele>250.5</ele>
        <time>2014-02-20T10:22:51.489Z</time>
      </trkpt>
      <trkpt lat="43.59901" lon="3.13823">
        <ele>250.5</ele>
        <time>2014-02-20T10:22:52.490Z</time>
      </trkpt>
      <trkpt lat="43.59903" lon="3.13833">
        <ele>250.7</ele>
        <time>2014-02-20T10:22:57.490Z</time>
      </trkpt>
      <trkpt lat="43.59904" lon="3.13836">
        <ele>250.4</ele>
        <time>2014-02-20T10:22:58.491Z</time>
      </trkpt>
      <trkpt lat="43.59907" lon="3.13847">
        <ele>250.5</ele>
        <time>2014-02-20T10:23:01.493Z</time>
      </trkpt>
      <trkpt lat="43.59909" lon="3.13851">
        <ele>251.4</ele>
        <time>2014-02-20T10:23:02.487Z</time>
      </trkpt>
      <trkpt lat="43.59913" lon="3.13858">
        <ele>251.8</ele>
        <time>2014-02-20T10:23:04.492Z</time>
      </trkpt>
      <trkpt lat="43.59915" lon="3.13862">
        <ele>252.2</ele>
        <time>2014-02-20T10:23:05.492Z</time>
      </trkpt>
      <trkpt lat="43.59918" lon="3.13872">
        <ele>252.4</ele>
        <time>2014-02-20T10:23:07.493Z</time>
      </trkpt>
      <trkpt lat="43.59919" lon="3.13876">
        <ele>252.6</ele>
        <time>2014-02-20T10:23:08.499Z</time>
      </trkpt>
      <trkpt lat="43.59921" lon="3.13886">
        <ele>251.8</ele>
        <time>2014-02-20T10:23:10.500Z</time>
      </trkpt>
      <trkpt lat="43.59923" lon="3.13892">
        <ele>251.3</ele>
        <time>2014-02-20T10:23:12.766Z</time>
      </trkpt>
      <trkpt lat="43.59926" lon="3.13898">
        <ele>250.7</ele>
        <time>2014-02-20T10:23:13.486Z</time>
      </trkpt>
      <trkpt lat="43.59929" lon="3.13905">
        <ele>250.8</ele>
        <time>2014-02-20T10:23:14.492Z</time>
      </trkpt>
      <trkpt lat="43.59932" lon="3.13912">
        <ele>250.6</ele>
        <time>2014-02-20T10:23:15.495Z</time>
      </trkpt>
      <trkpt lat="43.59935" lon="3.13918">
        <ele>250.8</ele>
        <time>2014-02-20T10:23:16.498Z</time>
      </trkpt>
      <trkpt lat="43.59937" lon="3.13925">
        <ele>250.5</ele>
        <time>2014-02-20T10:23:17.496Z</time>
      </trkpt>
      <trkpt lat="43.59938" lon="3.13931">
        <ele>250.6</ele>
        <time>2014-02-20T10:23:18.492Z</time>
      </trkpt>
      <trkpt lat="43.59941" lon="3.13942">
        <ele>250.2</ele>
        <time>2014-02-20T10:23:20.494Z</time>
      </trkpt>
      <trkpt lat="43.59943" lon="3.13948">
        <ele>250.1</ele>
        <time>2014-02-20T10:23:21.495Z</time>
      </trkpt>
      <trkpt lat="43.59946" lon="3.13954">
        <ele>250</ele>
        <time>2014-02-20T10:23:22.492Z</time>
      </trkpt>
      <trkpt lat="43.59949" lon="3.1396">
        <ele>250</ele>
        <time>2014-02-20T10:23:23.488Z</time>
      </trkpt>
      <trkpt lat="43.59953" lon="3.13966">
        <ele>249.7</ele>
        <time>2014-02-20T10:23:24.498Z</time>
      </trkpt>
      <trkpt lat="43.59955" lon="3.13973">
        <ele>249.8</ele>
        <time>2014-02-20T10:23:25.490Z</time>
      </trkpt>
      <trkpt lat="43.59956" lon="3.13985">
        <ele>250.5</ele>
        <time>2014-02-20T10:23:27.488Z</time>
      </trkpt>
      <trkpt lat="43.59958" lon="3.1399">
        <ele>249.8</ele>
        <time>2014-02-20T10:23:29.149Z</time>
      </trkpt>
      <trkpt lat="43.59961" lon="3.13997">
        <ele>249.7</ele>
        <time>2014-02-20T10:23:30.486Z</time>
      </trkpt>
      <trkpt lat="43.59964" lon="3.14002">
        <ele>249</ele>
        <time>2014-02-20T10:23:31.489Z</time>
      </trkpt>
      <trkpt lat="43.59969" lon="3.14011">
        <ele>246.3</ele>
        <time>2014-02-20T10:23:34.489Z</time>
      </trkpt>
      <trkpt lat="43.59971" lon="3.14013">
        <ele>244.9</ele>
        <time>2014-02-20T10:23:35.487Z</time>
      </trkpt>
      <trkpt lat="43.59979" lon="3.14019">
        <ele>240.7</ele>
        <time>2014-02-20T10:23:38.487Z</time>
      </trkpt>
      <trkpt lat="43.59981" lon="3.14022">
        <ele>238.6</ele>
        <time>2014-02-20T10:23:39.491Z</time>
      </trkpt>
      <trkpt lat="43.59986" lon="3.1403">
        <ele>236.2</ele>
        <time>2014-02-20T10:23:42.489Z</time>
      </trkpt>
      <trkpt lat="43.59987" lon="3.14033">
        <ele>235.9</ele>
        <time>2014-02-20T10:23:43.497Z</time>
      </trkpt>
      <trkpt lat="43.59991" lon="3.14043">
        <ele>234.2</ele>
        <time>2014-02-20T10:23:50.489Z</time>
      </trkpt>
      <trkpt lat="43.59992" lon="3.14044">
        <ele>234.3</ele>
        <time>2014-02-20T10:23:51.489Z</time>
      </trkpt>
      <trkpt lat="43.59995" lon="3.14048">
        <ele>236.5</ele>
        <time>2014-02-20T10:23:56.490Z</time>
      </trkpt>
      <trkpt lat="43.59994" lon="3.14048">
        <ele>236.4</ele>
        <time>2014-02-20T10:23:57.486Z</time>
      </trkpt>
      <trkpt lat="43.59994" lon="3.14048">
        <ele>235.6</ele>
        <time>2014-02-20T10:24:08.490Z</time>
      </trkpt>
      <trkpt lat="43.59994" lon="3.14046">
        <ele>235.6</ele>
        <time>2014-02-20T10:24:09.490Z</time>
      </trkpt>
      <trkpt lat="43.59994" lon="3.14046">
        <ele>235.2</ele>
        <time>2014-02-20T10:24:11.491Z</time>
      </trkpt>
      <trkpt lat="43.59994" lon="3.14046">
        <ele>235.5</ele>
        <time>2014-02-20T10:24:12.489Z</time>
      </trkpt>
      <trkpt lat="43.59995" lon="3.14047">
        <ele>235.5</ele>
        <time>2014-02-20T10:24:13.492Z</time>
      </trkpt>
      <trkpt lat="43.59995" lon="3.14048">
        <ele>235.6</ele>
        <time>2014-02-20T10:24:14.489Z</time>
      </trkpt>
      <trkpt lat="43.59995" lon="3.14045">
        <ele>235.3</ele>
        <time>2014-02-20T10:24:19.489Z</time>
      </trkpt>
      <trkpt lat="43.59995" lon="3.14045">
        <ele>235.3</ele>
        <time>2014-02-20T10:24:22.744Z</time>
      </trkpt>
      <trkpt lat="43.59995" lon="3.14046">
        <ele>235.1</ele>
        <time>2014-02-20T10:25:25.495Z</time>
      </trkpt>
      <trkpt lat="43.59997" lon="3.14048">
        <ele>233.8</ele>
        <time>2014-02-20T10:25:26.493Z</time>
      </trkpt>
      <trkpt lat="43.60002" lon="3.14055">
        <ele>232.9</ele>
        <time>2014-02-20T10:25:28.493Z</time>
      </trkpt>
      <trkpt lat="43.60003" lon="3.14058">
        <ele>233.1</ele>
        <time>2014-02-20T10:25:29.493Z</time>
      </trkpt>
      <trkpt lat="43.60006" lon="3.14066">
        <ele>233.2</ele>
        <time>2014-02-20T10:25:31.496Z</time>
      </trkpt>
      <trkpt lat="43.60007" lon="3.1407">
        <ele>233.5</ele>
        <time>2014-02-20T10:25:32.496Z</time>
      </trkpt>
      <trkpt lat="43.6001" lon="3.1408">
        <ele>233.9</ele>
        <time>2014-02-20T10:25:34.497Z</time>
      </trkpt>
      <trkpt lat="43.60011" lon="3.14084">
        <ele>234.5</ele>
        <time>2014-02-20T10:25:35.495Z</time>
      </trkpt>
      <trkpt lat="43.60013" lon="3.14095">
        <ele>234.9</ele>
        <time>2014-02-20T10:25:38.497Z</time>
      </trkpt>
      <trkpt lat="43.60015" lon="3.14098">
        <ele>236.5</ele>
        <time>2014-02-20T10:25:39.497Z</time>
      </trkpt>
      <trkpt lat="43.6002" lon="3.14107">
        <ele>240.2</ele>
        <time>2014-02-20T10:25:43.497Z</time>
      </trkpt>
      <trkpt lat="43.60024" lon="3.1411">
        <ele>240.2</ele>
        <time>2014-02-20T10:25:44.494Z</time>
      </trkpt>
      <trkpt lat="43.60029" lon="3.14113">
        <ele>238.7</ele>
        <time>2014-02-20T10:25:45.494Z</time>
      </trkpt>
      <trkpt lat="43.60034" lon="3.14116">
        <ele>239.1</ele>
        <time>2014-02-20T10:25:46.497Z</time>
      </trkpt>
      <trkpt lat="43.60039" lon="3.1412">
        <ele>239.4</ele>
        <time>2014-02-20T10:25:47.494Z</time>
      </trkpt>
      <trkpt lat="43.60044" lon="3.14124">
        <ele>237.7</ele>
        <time>2014-02-20T10:25:48.490Z</time>
      </trkpt>
      <trkpt lat="43.6005" lon="3.14129">
        <ele>237.4</ele>
        <time>2014-02-20T10:25:49.490Z</time>
      </trkpt>
      <trkpt lat="43.60057" lon="3.14135">
        <ele>235.8</ele>
        <time>2014-02-20T10:25:50.488Z</time>
      </trkpt>
      <trkpt lat="43.60062" lon="3.1414">
        <ele>235.9</ele>
        <time>2014-02-20T10:25:51.493Z</time>
      </trkpt>
      <trkpt lat="43.60065" lon="3.14144">
        <ele>235.5</ele>
        <time>2014-02-20T10:25:52.495Z</time>
      </trkpt>
      <trkpt lat="43.6007" lon="3.14151">
        <ele>236.9</ele>
        <time>2014-02-20T10:25:54.530Z</time>
      </trkpt>
      <trkpt lat="43.60072" lon="3.14154">
        <ele>237.2</ele>
        <time>2014-02-20T10:25:55.499Z</time>
      </trkpt>
      <trkpt lat="43.60076" lon="3.14163">
        <ele>236.8</ele>
        <time>2014-02-20T10:25:57.496Z</time>
      </trkpt>
      <trkpt lat="43.60078" lon="3.14167">
        <ele>237.2</ele>
        <time>2014-02-20T10:25:58.497Z</time>
      </trkpt>
      <trkpt lat="43.60083" lon="3.14176">
        <ele>237.9</ele>
        <time>2014-02-20T10:26:01.497Z</time>
      </trkpt>
      <trkpt lat="43.60084" lon="3.14179">
        <ele>238.1</ele>
        <time>2014-02-20T10:26:02.499Z</time>
      </trkpt>
      <trkpt lat="43.60089" lon="3.14184">
        <ele>239</ele>
        <time>2014-02-20T10:26:05.537Z</time>
      </trkpt>
      <trkpt lat="43.60092" lon="3.14186">
        <ele>239</ele>
        <time>2014-02-20T10:26:06.496Z</time>
      </trkpt>
      <trkpt lat="43.60097" lon="3.14191">
        <ele>239.4</ele>
        <time>2014-02-20T10:26:08.494Z</time>
      </trkpt>
      <trkpt lat="43.60099" lon="3.14194">
        <ele>239.6</ele>
        <time>2014-02-20T10:26:09.494Z</time>
      </trkpt>
      <trkpt lat="43.60102" lon="3.14199">
        <ele>238.8</ele>
        <time>2014-02-20T10:26:10.496Z</time>
      </trkpt>
      <trkpt lat="43.60106" lon="3.14204">
        <ele>238.4</ele>
        <time>2014-02-20T10:26:11.500Z</time>
      </trkpt>
      <trkpt lat="43.60109" lon="3.14208">
        <ele>238</ele>
        <time>2014-02-20T10:26:12.496Z</time>
      </trkpt>
      <trkpt lat="43.60113" lon="3.14213">
        <ele>237.9</ele>
        <time>2014-02-20T10:26:13.494Z</time>
      </trkpt>
      <trkpt lat="43.60119" lon="3.14221">
        <ele>237.7</ele>
        <time>2014-02-20T10:26:15.496Z</time>
      </trkpt>
      <trkpt lat="43.60122" lon="3.14225">
        <ele>237.7</ele>
        <time>2014-02-20T10:26:16.545Z</time>
      </trkpt>
      <trkpt lat="43.60126" lon="3.14233">
        <ele>239</ele>
        <time>2014-02-20T10:26:18.494Z</time>
      </trkpt>
      <trkpt lat="43.60127" lon="3.14237">
        <ele>240.3</ele>
        <time>2014-02-20T10:26:19.497Z</time>
      </trkpt>
      <trkpt lat="43.60131" lon="3.14245">
        <ele>240.8</ele>
        <time>2014-02-20T10:26:21.562Z</time>
      </trkpt>
      <trkpt lat="43.60134" lon="3.14248">
        <ele>241.4</ele>
        <time>2014-02-20T10:26:22.497Z</time>
      </trkpt>
      <trkpt lat="43.60138" lon="3.14256">
        <ele>242.2</ele>
        <time>2014-02-20T10:26:24.494Z</time>
      </trkpt>
      <trkpt lat="43.60141" lon="3.14261">
        <ele>242</ele>
        <time>2014-02-20T10:26:25.497Z</time>
      </trkpt>
      <trkpt lat="43.60147" lon="3.14269">
        <ele>242.4</ele>
        <time>2014-02-20T10:26:27.503Z</time>
      </trkpt>
      <trkpt lat="43.60149" lon="3.14273">
        <ele>242.6</ele>
        <time>2014-02-20T10:26:28.491Z</time>
      </trkpt>
      <trkpt lat="43.60152" lon="3.14277">
        <ele>242.8</ele>
        <time>2014-02-20T10:26:29.922Z</time>
      </trkpt>
      <trkpt lat="43.60161" lon="3.14336">
        <ele>242.6</ele>
        <time>2014-02-20T10:27:15.493Z</time>
      </trkpt>
      <trkpt lat="43.60199" lon="3.14352">
        <ele>239.7</ele>
        <time>2014-02-20T10:27:17.357Z</time>
      </trkpt>
      <trkpt lat="43.60203" lon="3.14357">
        <ele>239.7</ele>
        <time>2014-02-20T10:27:17.488Z</time>
      </trkpt>
      <trkpt lat="43.60228" lon="3.14372">
        <ele>239.8</ele>
        <time>2014-02-20T10:27:18.489Z</time>
      </trkpt>
      <trkpt lat="43.60242" lon="3.14385">
        <ele>244.4</ele>
        <time>2014-02-20T10:27:19.493Z</time>
      </trkpt>
      <trkpt lat="43.6025" lon="3.14394">
        <ele>245.4</ele>
        <time>2014-02-20T10:27:20.511Z</time>
      </trkpt>
      <trkpt lat="43.60256" lon="3.14401">
        <ele>246.7</ele>
        <time>2014-02-20T10:27:21.494Z</time>
      </trkpt>
      <trkpt lat="43.60262" lon="3.14406">
        <ele>246.9</ele>
        <time>2014-02-20T10:27:22.555Z</time>
      </trkpt>
      <trkpt lat="43.60265" lon="3.1441">
        <ele>244.4</ele>
        <time>2014-02-20T10:27:23.493Z</time>
      </trkpt>
      <trkpt lat="43.60269" lon="3.14414">
        <ele>244.4</ele>
        <time>2014-02-20T10:27:24.493Z</time>
      </trkpt>
      <trkpt lat="43.60278" lon="3.14423">
        <ele>240.9</ele>
        <time>2014-02-20T10:27:27.160Z</time>
      </trkpt>
      <trkpt lat="43.60282" lon="3.14431">
        <ele>243.5</ele>
        <time>2014-02-20T10:27:28.497Z</time>
      </trkpt>
      <trkpt lat="43.6029" lon="3.14439">
        <ele>242.6</ele>
        <time>2014-02-20T10:27:29.495Z</time>
      </trkpt>
      <trkpt lat="43.603" lon="3.14445">
        <ele>239</ele>
        <time>2014-02-20T10:27:30.495Z</time>
      </trkpt>
      <trkpt lat="43.60307" lon="3.14451">
        <ele>238.6</ele>
        <time>2014-02-20T10:27:31.496Z</time>
      </trkpt>
      <trkpt lat="43.60317" lon="3.14456">
        <ele>238.6</ele>
        <time>2014-02-20T10:27:32.494Z</time>
      </trkpt>
      <trkpt lat="43.60327" lon="3.1446">
        <ele>238.8</ele>
        <time>2014-02-20T10:27:33.497Z</time>
      </trkpt>
      <trkpt lat="43.60334" lon="3.14464">
        <ele>240.5</ele>
        <time>2014-02-20T10:27:34.493Z</time>
      </trkpt>
      <trkpt lat="43.6034" lon="3.14468">
        <ele>240.4</ele>
        <time>2014-02-20T10:27:35.493Z</time>
      </trkpt>
      <trkpt lat="43.60344" lon="3.14472">
        <ele>242.7</ele>
        <time>2014-02-20T10:27:36.492Z</time>
      </trkpt>
      <trkpt lat="43.60348" lon="3.14476">
        <ele>243.5</ele>
        <time>2014-02-20T10:27:37.490Z</time>
      </trkpt>
      <trkpt lat="43.60356" lon="3.14481">
        <ele>242.9</ele>
        <time>2014-02-20T10:27:40.488Z</time>
      </trkpt>
      <trkpt lat="43.60357" lon="3.14483">
        <ele>244.2</ele>
        <time>2014-02-20T10:27:41.484Z</time>
      </trkpt>
      <trkpt lat="43.60362" lon="3.14493">
        <ele>246.1</ele>
        <time>2014-02-20T10:27:45.490Z</time>
      </trkpt>
      <trkpt lat="43.60363" lon="3.14496">
        <ele>245.9</ele>
        <time>2014-02-20T10:27:46.506Z</time>
      </trkpt>
      <trkpt lat="43.60367" lon="3.14502">
        <ele>246.7</ele>
        <time>2014-02-20T10:27:48.488Z</time>
      </trkpt>
      <trkpt lat="43.60371" lon="3.14506">
        <ele>246.7</ele>
        <time>2014-02-20T10:27:49.488Z</time>
      </trkpt>
      <trkpt lat="43.60374" lon="3.14509">
        <ele>247</ele>
        <time>2014-02-20T10:27:50.487Z</time>
      </trkpt>
      <trkpt lat="43.60379" lon="3.14513">
        <ele>247.6</ele>
        <time>2014-02-20T10:27:51.487Z</time>
      </trkpt>
      <trkpt lat="43.60384" lon="3.14517">
        <ele>248</ele>
        <time>2014-02-20T10:27:52.489Z</time>
      </trkpt>
      <trkpt lat="43.60388" lon="3.14519">
        <ele>247.3</ele>
        <time>2014-02-20T10:27:53.489Z</time>
      </trkpt>
      <trkpt lat="43.60396" lon="3.14523">
        <ele>248.3</ele>
        <time>2014-02-20T10:27:55.491Z</time>
      </trkpt>
      <trkpt lat="43.604" lon="3.14525">
        <ele>247.8</ele>
        <time>2014-02-20T10:27:56.490Z</time>
      </trkpt>
      <trkpt lat="43.60408" lon="3.1453">
        <ele>248.1</ele>
        <time>2014-02-20T10:28:00.494Z</time>
      </trkpt>
      <trkpt lat="43.60411" lon="3.14531">
        <ele>248</ele>
        <time>2014-02-20T10:28:01.492Z</time>
      </trkpt>
      <trkpt lat="43.60418" lon="3.14535">
        <ele>248.7</ele>
        <time>2014-02-20T10:28:04.491Z</time>
      </trkpt>
      <trkpt lat="43.6042" lon="3.14536">
        <ele>248.3</ele>
        <time>2014-02-20T10:28:05.490Z</time>
      </trkpt>
      <trkpt lat="43.60427" lon="3.14538">
        <ele>248.9</ele>
        <time>2014-02-20T10:28:08.490Z</time>
      </trkpt>
      <trkpt lat="43.6043" lon="3.1454">
        <ele>249</ele>
        <time>2014-02-20T10:28:09.490Z</time>
      </trkpt>
      <trkpt lat="43.60437" lon="3.14547">
        <ele>249.2</ele>
        <time>2014-02-20T10:28:12.490Z</time>
      </trkpt>
      <trkpt lat="43.60439" lon="3.14548">
        <ele>248.4</ele>
        <time>2014-02-20T10:28:13.490Z</time>
      </trkpt>
      <trkpt lat="43.60446" lon="3.14555">
        <ele>249.2</ele>
        <time>2014-02-20T10:28:17.490Z</time>
      </trkpt>
      <trkpt lat="43.60447" lon="3.14556">
        <ele>248.2</ele>
        <time>2014-02-20T10:28:18.491Z</time>
      </trkpt>
      <trkpt lat="43.60454" lon="3.14563">
        <ele>248.7</ele>
        <time>2014-02-20T10:28:22.491Z</time>
      </trkpt>
      <trkpt lat="43.60455" lon="3.14564">
        <ele>248.7</ele>
        <time>2014-02-20T10:28:23.488Z</time>
      </trkpt>
      <trkpt lat="43.60463" lon="3.14567">
        <ele>249.1</ele>
        <time>2014-02-20T10:28:27.489Z</time>
      </trkpt>
      <trkpt lat="43.60468" lon="3.14568">
        <ele>250.2</ele>
        <time>2014-02-20T10:28:28.491Z</time>
      </trkpt>
      <trkpt lat="43.60473" lon="3.14569">
        <ele>249.9</ele>
        <time>2014-02-20T10:28:29.491Z</time>
      </trkpt>
      <trkpt lat="43.60477" lon="3.14571">
        <ele>249.9</ele>
        <time>2014-02-20T10:28:30.490Z</time>
      </trkpt>
      <trkpt lat="43.60483" lon="3.14577">
        <ele>251.1</ele>
        <time>2014-02-20T10:28:34.492Z</time>
      </trkpt>
      <trkpt lat="43.60485" lon="3.14578">
        <ele>251.1</ele>
        <time>2014-02-20T10:28:35.489Z</time>
      </trkpt>
      <trkpt lat="43.60488" lon="3.14584">
        <ele>251.1</ele>
        <time>2014-02-20T10:28:37.490Z</time>
      </trkpt>
      <trkpt lat="43.6049" lon="3.14589">
        <ele>251.2</ele>
        <time>2014-02-20T10:28:38.489Z</time>
      </trkpt>
      <trkpt lat="43.60497" lon="3.14597">
        <ele>251.4</ele>
        <time>2014-02-20T10:28:41.489Z</time>
      </trkpt>
      <trkpt lat="43.605" lon="3.14599">
        <ele>251.5</ele>
        <time>2014-02-20T10:28:42.490Z</time>
      </trkpt>
      <trkpt lat="43.60505" lon="3.14604">
        <ele>251.2</ele>
        <time>2014-02-20T10:28:44.490Z</time>
      </trkpt>
      <trkpt lat="43.60508" lon="3.14607">
        <ele>251.1</ele>
        <time>2014-02-20T10:28:45.491Z</time>
      </trkpt>
      <trkpt lat="43.60514" lon="3.14613">
        <ele>251.6</ele>
        <time>2014-02-20T10:28:47.490Z</time>
      </trkpt>
      <trkpt lat="43.60517" lon="3.14616">
        <ele>251.7</ele>
        <time>2014-02-20T10:28:48.490Z</time>
      </trkpt>
      <trkpt lat="43.60523" lon="3.14619">
        <ele>251.9</ele>
        <time>2014-02-20T10:28:50.489Z</time>
      </trkpt>
      <trkpt lat="43.60525" lon="3.14621">
        <ele>251.6</ele>
        <time>2014-02-20T10:28:51.490Z</time>
      </trkpt>
      <trkpt lat="43.60529" lon="3.14629">
        <ele>251.8</ele>
        <time>2014-02-20T10:28:54.489Z</time>
      </trkpt>
      <trkpt lat="43.60531" lon="3.14632">
        <ele>251.6</ele>
        <time>2014-02-20T10:28:55.488Z</time>
      </trkpt>
      <trkpt lat="43.60538" lon="3.14639">
        <ele>253.5</ele>
        <time>2014-02-20T10:28:58.484Z</time>
      </trkpt>
      <trkpt lat="43.6054" lon="3.14641">
        <ele>253.3</ele>
        <time>2014-02-20T10:28:59.490Z</time>
      </trkpt>
      <trkpt lat="43.60545" lon="3.14644">
        <ele>254</ele>
        <time>2014-02-20T10:29:01.490Z</time>
      </trkpt>
      <trkpt lat="43.60548" lon="3.14646">
        <ele>255</ele>
        <time>2014-02-20T10:29:02.486Z</time>
      </trkpt>
      <trkpt lat="43.60556" lon="3.14647">
        <ele>254.8</ele>
        <time>2014-02-20T10:29:04.487Z</time>
      </trkpt>
      <trkpt lat="43.60561" lon="3.14648">
        <ele>255.3</ele>
        <time>2014-02-20T10:29:05.486Z</time>
      </trkpt>
      <trkpt lat="43.60569" lon="3.1465">
        <ele>256.1</ele>
        <time>2014-02-20T10:29:07.489Z</time>
      </trkpt>
      <trkpt lat="43.60572" lon="3.14651">
        <ele>256.3</ele>
        <time>2014-02-20T10:29:08.486Z</time>
      </trkpt>
      <trkpt lat="43.60579" lon="3.14656">
        <ele>257.8</ele>
        <time>2014-02-20T10:29:11.502Z</time>
      </trkpt>
      <trkpt lat="43.60582" lon="3.14659">
        <ele>258</ele>
        <time>2014-02-20T10:29:13.296Z</time>
      </trkpt>
      <trkpt lat="43.6059" lon="3.14664">
        <ele>258.3</ele>
        <time>2014-02-20T10:29:17.915Z</time>
      </trkpt>
      <trkpt lat="43.60591" lon="3.14666">
        <ele>258.1</ele>
        <time>2014-02-20T10:29:18.489Z</time>
      </trkpt>
      <trkpt lat="43.60597" lon="3.1467">
        <ele>257.9</ele>
        <time>2014-02-20T10:29:24.496Z</time>
      </trkpt>
      <trkpt lat="43.606" lon="3.14671">
        <ele>257.6</ele>
        <time>2014-02-20T10:29:25.497Z</time>
      </trkpt>
      <trkpt lat="43.60606" lon="3.14675">
        <ele>257</ele>
        <time>2014-02-20T10:29:27.492Z</time>
      </trkpt>
      <trkpt lat="43.6061" lon="3.14676">
        <ele>257.2</ele>
        <time>2014-02-20T10:29:28.491Z</time>
      </trkpt>
      <trkpt lat="43.60614" lon="3.14678">
        <ele>256.8</ele>
        <time>2014-02-20T10:29:29.490Z</time>
      </trkpt>
      <trkpt lat="43.60619" lon="3.14679">
        <ele>257.2</ele>
        <time>2014-02-20T10:29:30.490Z</time>
      </trkpt>
      <trkpt lat="43.60625" lon="3.14681">
        <ele>256.9</ele>
        <time>2014-02-20T10:29:31.491Z</time>
      </trkpt>
      <trkpt lat="43.60629" lon="3.14682">
        <ele>257.8</ele>
        <time>2014-02-20T10:29:32.490Z</time>
      </trkpt>
      <trkpt lat="43.60636" lon="3.14685">
        <ele>257.3</ele>
        <time>2014-02-20T10:29:34.045Z</time>
      </trkpt>
      <trkpt lat="43.6064" lon="3.14686">
        <ele>256.6</ele>
        <time>2014-02-20T10:29:34.490Z</time>
      </trkpt>
      <trkpt lat="43.60648" lon="3.14689">
        <ele>256.7</ele>
        <time>2014-02-20T10:29:35.498Z</time>
      </trkpt>
      <trkpt lat="43.60656" lon="3.14691">
        <ele>257.2</ele>
        <time>2014-02-20T10:29:36.492Z</time>
      </trkpt>
      <trkpt lat="43.60664" lon="3.14694">
        <ele>257.3</ele>
        <time>2014-02-20T10:29:37.489Z</time>
      </trkpt>
      <trkpt lat="43.6067" lon="3.14696">
        <ele>256.8</ele>
        <time>2014-02-20T10:29:38.488Z</time>
      </trkpt>
      <trkpt lat="43.60676" lon="3.14699">
        <ele>257.4</ele>
        <time>2014-02-20T10:29:39.489Z</time>
      </trkpt>
      <trkpt lat="43.60681" lon="3.14701">
        <ele>257.7</ele>
        <time>2014-02-20T10:29:40.491Z</time>
      </trkpt>
      <trkpt lat="43.60687" lon="3.14704">
        <ele>256.2</ele>
        <time>2014-02-20T10:29:42.490Z</time>
      </trkpt>
      <trkpt lat="43.60691" lon="3.14707">
        <ele>257</ele>
        <time>2014-02-20T10:29:43.490Z</time>
      </trkpt>
      <trkpt lat="43.60695" lon="3.14709">
        <ele>256.3</ele>
        <time>2014-02-20T10:29:44.490Z</time>
      </trkpt>
      <trkpt lat="43.60699" lon="3.14713">
        <ele>256.4</ele>
        <time>2014-02-20T10:29:45.490Z</time>
      </trkpt>
      <trkpt lat="43.60705" lon="3.14716">
        <ele>258.1</ele>
        <time>2014-02-20T10:29:46.491Z</time>
      </trkpt>
      <trkpt lat="43.60711" lon="3.1472">
        <ele>257.2</ele>
        <time>2014-02-20T10:29:47.490Z</time>
      </trkpt>
      <trkpt lat="43.60717" lon="3.14724">
        <ele>256.9</ele>
        <time>2014-02-20T10:29:48.493Z</time>
      </trkpt>
      <trkpt lat="43.60722" lon="3.14727">
        <ele>257.1</ele>
        <time>2014-02-20T10:29:49.492Z</time>
      </trkpt>
      <trkpt lat="43.60727" lon="3.1473">
        <ele>257.1</ele>
        <time>2014-02-20T10:29:50.489Z</time>
      </trkpt>
      <trkpt lat="43.60732" lon="3.14734">
        <ele>256.6</ele>
        <time>2014-02-20T10:29:51.492Z</time>
      </trkpt>
      <trkpt lat="43.60737" lon="3.14738">
        <ele>257.2</ele>
        <time>2014-02-20T10:29:52.491Z</time>
      </trkpt>
      <trkpt lat="43.60741" lon="3.14742">
        <ele>257.5</ele>
        <time>2014-02-20T10:29:53.488Z</time>
      </trkpt>
      <trkpt lat="43.60749" lon="3.14747">
        <ele>256.6</ele>
        <time>2014-02-20T10:29:55.491Z</time>
      </trkpt>
      <trkpt lat="43.60754" lon="3.14749">
        <ele>255.7</ele>
        <time>2014-02-20T10:29:56.513Z</time>
      </trkpt>
      <trkpt lat="43.60759" lon="3.14751">
        <ele>255.4</ele>
        <time>2014-02-20T10:29:57.500Z</time>
      </trkpt>
      <trkpt lat="43.60764" lon="3.14753">
        <ele>255.7</ele>
        <time>2014-02-20T10:29:58.565Z</time>
      </trkpt>
      <trkpt lat="43.60769" lon="3.14756">
        <ele>256</ele>
        <time>2014-02-20T10:29:59.657Z</time>
      </trkpt>
      <trkpt lat="43.60773" lon="3.14758">
        <ele>256.3</ele>
        <time>2014-02-20T10:30:00.496Z</time>
      </trkpt>
      <trkpt lat="43.60778" lon="3.14761">
        <ele>256.3</ele>
        <time>2014-02-20T10:30:01.497Z</time>
      </trkpt>
      <trkpt lat="43.60786" lon="3.14766">
        <ele>256.3</ele>
        <time>2014-02-20T10:30:04.243Z</time>
      </trkpt>
      <trkpt lat="43.6079" lon="3.14768">
        <ele>255.8</ele>
        <time>2014-02-20T10:30:04.489Z</time>
      </trkpt>
      <trkpt lat="43.60799" lon="3.14774">
        <ele>256</ele>
        <time>2014-02-20T10:30:05.492Z</time>
      </trkpt>
      <trkpt lat="43.6081" lon="3.1478">
        <ele>255.6</ele>
        <time>2014-02-20T10:30:06.495Z</time>
      </trkpt>
      <trkpt lat="43.60819" lon="3.14785">
        <ele>256.2</ele>
        <time>2014-02-20T10:30:07.496Z</time>
      </trkpt>
      <trkpt lat="43.60827" lon="3.14791">
        <ele>255.6</ele>
        <time>2014-02-20T10:30:08.494Z</time>
      </trkpt>
      <trkpt lat="43.60835" lon="3.14797">
        <ele>255.6</ele>
        <time>2014-02-20T10:30:09.496Z</time>
      </trkpt>
      <trkpt lat="43.60843" lon="3.14803">
        <ele>255.7</ele>
        <time>2014-02-20T10:30:10.496Z</time>
      </trkpt>
      <trkpt lat="43.6085" lon="3.14808">
        <ele>255.6</ele>
        <time>2014-02-20T10:30:11.494Z</time>
      </trkpt>
      <trkpt lat="43.60856" lon="3.14813">
        <ele>255.8</ele>
        <time>2014-02-20T10:30:12.497Z</time>
      </trkpt>
      <trkpt lat="43.60861" lon="3.14818">
        <ele>256.2</ele>
        <time>2014-02-20T10:30:13.515Z</time>
      </trkpt>
      <trkpt lat="43.60866" lon="3.14823">
        <ele>256.3</ele>
        <time>2014-02-20T10:30:14.490Z</time>
      </trkpt>
      <trkpt lat="43.60871" lon="3.14828">
        <ele>256.3</ele>
        <time>2014-02-20T10:30:15.490Z</time>
      </trkpt>
      <trkpt lat="43.60876" lon="3.14833">
        <ele>255.9</ele>
        <time>2014-02-20T10:30:16.491Z</time>
      </trkpt>
      <trkpt lat="43.60881" lon="3.14839">
        <ele>255.6</ele>
        <time>2014-02-20T10:30:17.491Z</time>
      </trkpt>
      <trkpt lat="43.60887" lon="3.14844">
        <ele>255.5</ele>
        <time>2014-02-20T10:30:18.490Z</time>
      </trkpt>
      <trkpt lat="43.60894" lon="3.14852">
        <ele>255.5</ele>
        <time>2014-02-20T10:30:20.101Z</time>
      </trkpt>
      <trkpt lat="43.60897" lon="3.14855">
        <ele>255.3</ele>
        <time>2014-02-20T10:30:20.488Z</time>
      </trkpt>
      <trkpt lat="43.60903" lon="3.14862">
        <ele>255.5</ele>
        <time>2014-02-20T10:30:21.491Z</time>
      </trkpt>
      <trkpt lat="43.60911" lon="3.14868">
        <ele>254.8</ele>
        <time>2014-02-20T10:30:22.491Z</time>
      </trkpt>
      <trkpt lat="43.60918" lon="3.14874">
        <ele>254.4</ele>
        <time>2014-02-20T10:30:23.490Z</time>
      </trkpt>
      <trkpt lat="43.60924" lon="3.1488">
        <ele>254</ele>
        <time>2014-02-20T10:30:24.490Z</time>
      </trkpt>
      <trkpt lat="43.60931" lon="3.14886">
        <ele>253.6</ele>
        <time>2014-02-20T10:30:25.491Z</time>
      </trkpt>
      <trkpt lat="43.60935" lon="3.14891">
        <ele>253.5</ele>
        <time>2014-02-20T10:30:26.491Z</time>
      </trkpt>
      <trkpt lat="43.6094" lon="3.14898">
        <ele>253.4</ele>
        <time>2014-02-20T10:30:27.489Z</time>
      </trkpt>
      <trkpt lat="43.60944" lon="3.14905">
        <ele>254.1</ele>
        <time>2014-02-20T10:30:28.487Z</time>
      </trkpt>
      <trkpt lat="43.60948" lon="3.14911">
        <ele>253.1</ele>
        <time>2014-02-20T10:30:29.484Z</time>
      </trkpt>
      <trkpt lat="43.60952" lon="3.14918">
        <ele>253.3</ele>
        <time>2014-02-20T10:30:30.489Z</time>
      </trkpt>
      <trkpt lat="43.60955" lon="3.14923">
        <ele>253.3</ele>
        <time>2014-02-20T10:30:31.488Z</time>
      </trkpt>
      <trkpt lat="43.60958" lon="3.14928">
        <ele>253.4</ele>
        <time>2014-02-20T10:30:32.489Z</time>
      </trkpt>
      <trkpt lat="43.60962" lon="3.14934">
        <ele>253</ele>
        <time>2014-02-20T10:30:33.490Z</time>
      </trkpt>
      <trkpt lat="43.60966" lon="3.14939">
        <ele>252.6</ele>
        <time>2014-02-20T10:30:34.492Z</time>
      </trkpt>
      <trkpt lat="43.6097" lon="3.14945">
        <ele>252.7</ele>
        <time>2014-02-20T10:30:35.490Z</time>
      </trkpt>
      <trkpt lat="43.60976" lon="3.14951">
        <ele>252.5</ele>
        <time>2014-02-20T10:30:36.495Z</time>
      </trkpt>
      <trkpt lat="43.60981" lon="3.14958">
        <ele>252.1</ele>
        <time>2014-02-20T10:30:37.486Z</time>
      </trkpt>
      <trkpt lat="43.60987" lon="3.14964">
        <ele>252.5</ele>
        <time>2014-02-20T10:30:38.485Z</time>
      </trkpt>
      <trkpt lat="43.60992" lon="3.1497">
        <ele>252.3</ele>
        <time>2014-02-20T10:30:39.496Z</time>
      </trkpt>
      <trkpt lat="43.60997" lon="3.14977">
        <ele>252.9</ele>
        <time>2014-02-20T10:30:40.490Z</time>
      </trkpt>
      <trkpt lat="43.61002" lon="3.14983">
        <ele>253.6</ele>
        <time>2014-02-20T10:30:41.522Z</time>
      </trkpt>
      <trkpt lat="43.61007" lon="3.1499">
        <ele>253.5</ele>
        <time>2014-02-20T10:30:42.490Z</time>
      </trkpt>
      <trkpt lat="43.61013" lon="3.14996">
        <ele>253.2</ele>
        <time>2014-02-20T10:30:43.490Z</time>
      </trkpt>
      <trkpt lat="43.61018" lon="3.15002">
        <ele>253</ele>
        <time>2014-02-20T10:30:44.489Z</time>
      </trkpt>
      <trkpt lat="43.61023" lon="3.15006">
        <ele>251.6</ele>
        <time>2014-02-20T10:30:45.491Z</time>
      </trkpt>
      <trkpt lat="43.61028" lon="3.1501">
        <ele>250.6</ele>
        <time>2014-02-20T10:30:46.570Z</time>
      </trkpt>
      <trkpt lat="43.61034" lon="3.15014">
        <ele>249.7</ele>
        <time>2014-02-20T10:30:47.490Z</time>
      </trkpt>
      <trkpt lat="43.61041" lon="3.15019">
        <ele>249.1</ele>
        <time>2014-02-20T10:30:48.491Z</time>
      </trkpt>
      <trkpt lat="43.61047" lon="3.15024">
        <ele>247.4</ele>
        <time>2014-02-20T10:30:49.491Z</time>
      </trkpt>
      <trkpt lat="43.61053" lon="3.15028">
        <ele>247.7</ele>
        <time>2014-02-20T10:30:50.488Z</time>
      </trkpt>
      <trkpt lat="43.61058" lon="3.15033">
        <ele>247.6</ele>
        <time>2014-02-20T10:30:51.490Z</time>
      </trkpt>
      <trkpt lat="43.61064" lon="3.15037">
        <ele>247.5</ele>
        <time>2014-02-20T10:30:52.491Z</time>
      </trkpt>
      <trkpt lat="43.6107" lon="3.1504">
        <ele>247.3</ele>
        <time>2014-02-20T10:30:53.488Z</time>
      </trkpt>
      <trkpt lat="43.61075" lon="3.15043">
        <ele>248.9</ele>
        <time>2014-02-20T10:30:54.492Z</time>
      </trkpt>
      <trkpt lat="43.61081" lon="3.15046">
        <ele>249.1</ele>
        <time>2014-02-20T10:30:55.490Z</time>
      </trkpt>
      <trkpt lat="43.61087" lon="3.15049">
        <ele>249.5</ele>
        <time>2014-02-20T10:30:56.489Z</time>
      </trkpt>
      <trkpt lat="43.61092" lon="3.15051">
        <ele>248.4</ele>
        <time>2014-02-20T10:30:57.490Z</time>
      </trkpt>
      <trkpt lat="43.61097" lon="3.15052">
        <ele>248.2</ele>
        <time>2014-02-20T10:30:58.491Z</time>
      </trkpt>
      <trkpt lat="43.61104" lon="3.15055">
        <ele>248.8</ele>
        <time>2014-02-20T10:31:00.490Z</time>
      </trkpt>
      <trkpt lat="43.61107" lon="3.15058">
        <ele>248.4</ele>
        <time>2014-02-20T10:31:01.490Z</time>
      </trkpt>
      <trkpt lat="43.61114" lon="3.15066">
        <ele>249.6</ele>
        <time>2014-02-20T10:31:05.488Z</time>
      </trkpt>
      <trkpt lat="43.61114" lon="3.15068">
        <ele>249.4</ele>
        <time>2014-02-20T10:31:06.489Z</time>
      </trkpt>
      <trkpt lat="43.61118" lon="3.15078">
        <ele>249.1</ele>
        <time>2014-02-20T10:31:10.488Z</time>
      </trkpt>
      <trkpt lat="43.61119" lon="3.15081">
        <ele>249.1</ele>
        <time>2014-02-20T10:31:11.489Z</time>
      </trkpt>
      <trkpt lat="43.61118" lon="3.15093">
        <ele>249.7</ele>
        <time>2014-02-20T10:31:16.492Z</time>
      </trkpt>
      <trkpt lat="43.61118" lon="3.15097">
        <ele>249.6</ele>
        <time>2014-02-20T10:31:17.489Z</time>
      </trkpt>
      <trkpt lat="43.61119" lon="3.15106">
        <ele>249.5</ele>
        <time>2014-02-20T10:31:19.484Z</time>
      </trkpt>
      <trkpt lat="43.61119" lon="3.15112">
        <ele>249.6</ele>
        <time>2014-02-20T10:31:20.489Z</time>
      </trkpt>
      <trkpt lat="43.6112" lon="3.15122">
        <ele>249.6</ele>
        <time>2014-02-20T10:31:22.493Z</time>
      </trkpt>
      <trkpt lat="43.6112" lon="3.15125">
        <ele>249.5</ele>
        <time>2014-02-20T10:31:23.490Z</time>
      </trkpt>
      <trkpt lat="43.61121" lon="3.15136">
        <ele>249.3</ele>
        <time>2014-02-20T10:31:26.490Z</time>
      </trkpt>
      <trkpt lat="43.61122" lon="3.15141">
        <ele>249.2</ele>
        <time>2014-02-20T10:31:27.489Z</time>
      </trkpt>
      <trkpt lat="43.61124" lon="3.15152">
        <ele>248.5</ele>
        <time>2014-02-20T10:31:30.488Z</time>
      </trkpt>
      <trkpt lat="43.61126" lon="3.15155">
        <ele>248.6</ele>
        <time>2014-02-20T10:31:31.948Z</time>
      </trkpt>
      <trkpt lat="43.61303" lon="3.15275">
        <ele>241.8</ele>
        <time>2014-02-20T10:32:19.514Z</time>
      </trkpt>
      <trkpt lat="43.61307" lon="3.15278">
        <ele>241.6</ele>
        <time>2014-02-20T10:32:20.494Z</time>
      </trkpt>
      <trkpt lat="43.61313" lon="3.15278">
        <ele>243.1</ele>
        <time>2014-02-20T10:32:21.497Z</time>
      </trkpt>
      <trkpt lat="43.61319" lon="3.15282">
        <ele>246.8</ele>
        <time>2014-02-20T10:32:24.493Z</time>
      </trkpt>
      <trkpt lat="43.61322" lon="3.15283">
        <ele>248.4</ele>
        <time>2014-02-20T10:32:25.494Z</time>
      </trkpt>
      <trkpt lat="43.61329" lon="3.1529">
        <ele>247.3</ele>
        <time>2014-02-20T10:32:27.490Z</time>
      </trkpt>
      <trkpt lat="43.61333" lon="3.15293">
        <ele>250.7</ele>
        <time>2014-02-20T10:32:28.495Z</time>
      </trkpt>
      <trkpt lat="43.61339" lon="3.15298">
        <ele>250.4</ele>
        <time>2014-02-20T10:32:30.526Z</time>
      </trkpt>
      <trkpt lat="43.61343" lon="3.15301">
        <ele>250.2</ele>
        <time>2014-02-20T10:32:31.499Z</time>
      </trkpt>
      <trkpt lat="43.61351" lon="3.15306">
        <ele>251.6</ele>
        <time>2014-02-20T10:32:34.059Z</time>
      </trkpt>
      <trkpt lat="43.61353" lon="3.15307">
        <ele>252.2</ele>
        <time>2014-02-20T10:32:34.499Z</time>
      </trkpt>
      <trkpt lat="43.6136" lon="3.15312">
        <ele>251.1</ele>
        <time>2014-02-20T10:32:36.496Z</time>
      </trkpt>
      <trkpt lat="43.61365" lon="3.15316">
        <ele>250.6</ele>
        <time>2014-02-20T10:32:38.170Z</time>
      </trkpt>
      <trkpt lat="43.61369" lon="3.15321">
        <ele>249.4</ele>
        <time>2014-02-20T10:32:39.497Z</time>
      </trkpt>
      <trkpt lat="43.61373" lon="3.15325">
        <ele>249.6</ele>
        <time>2014-02-20T10:32:40.502Z</time>
      </trkpt>
      <trkpt lat="43.61376" lon="3.15328">
        <ele>249</ele>
        <time>2014-02-20T10:32:41.497Z</time>
      </trkpt>
      <trkpt lat="43.61381" lon="3.15331">
        <ele>249.9</ele>
        <time>2014-02-20T10:32:42.498Z</time>
      </trkpt>
      <trkpt lat="43.61385" lon="3.15334">
        <ele>249.6</ele>
        <time>2014-02-20T10:32:43.498Z</time>
      </trkpt>
      <trkpt lat="43.6139" lon="3.15337">
        <ele>249.7</ele>
        <time>2014-02-20T10:32:44.494Z</time>
      </trkpt>
      <trkpt lat="43.61394" lon="3.15341">
        <ele>248.2</ele>
        <time>2014-02-20T10:32:45.496Z</time>
      </trkpt>
      <trkpt lat="43.61398" lon="3.15345">
        <ele>248.1</ele>
        <time>2014-02-20T10:32:46.499Z</time>
      </trkpt>
      <trkpt lat="43.61401" lon="3.15348">
        <ele>248</ele>
        <time>2014-02-20T10:32:47.500Z</time>
      </trkpt>
      <trkpt lat="43.61405" lon="3.15352">
        <ele>248.1</ele>
        <time>2014-02-20T10:32:48.501Z</time>
      </trkpt>
      <trkpt lat="43.61412" lon="3.15358">
        <ele>247.5</ele>
        <time>2014-02-20T10:32:50.497Z</time>
      </trkpt>
      <trkpt lat="43.61415" lon="3.15361">
        <ele>247.6</ele>
        <time>2014-02-20T10:32:51.496Z</time>
      </trkpt>
      <trkpt lat="43.61421" lon="3.15367">
        <ele>248</ele>
        <time>2014-02-20T10:32:53.492Z</time>
      </trkpt>
      <trkpt lat="43.61424" lon="3.1537">
        <ele>247.9</ele>
        <time>2014-02-20T10:32:54.512Z</time>
      </trkpt>
      <trkpt lat="43.6143" lon="3.15375">
        <ele>248.3</ele>
        <time>2014-02-20T10:32:56.492Z</time>
      </trkpt>
      <trkpt lat="43.61433" lon="3.15378">
        <ele>248.5</ele>
        <time>2014-02-20T10:32:57.497Z</time>
      </trkpt>
      <trkpt lat="43.61439" lon="3.15384">
        <ele>248</ele>
        <time>2014-02-20T10:32:59.517Z</time>
      </trkpt>
      <trkpt lat="43.61487" lon="3.15421">
        <ele>245.3</ele>
        <time>2014-02-20T10:33:09.489Z</time>
      </trkpt>
      <trkpt lat="43.61493" lon="3.15424">
        <ele>245.4</ele>
        <time>2014-02-20T10:33:10.488Z</time>
      </trkpt>
      <trkpt lat="43.61497" lon="3.15427">
        <ele>246.1</ele>
        <time>2014-02-20T10:33:11.488Z</time>
      </trkpt>
      <trkpt lat="43.61503" lon="3.15429">
        <ele>246.4</ele>
        <time>2014-02-20T10:33:12.489Z</time>
      </trkpt>
      <trkpt lat="43.61508" lon="3.15432">
        <ele>246.3</ele>
        <time>2014-02-20T10:33:13.493Z</time>
      </trkpt>
      <trkpt lat="43.61512" lon="3.15434">
        <ele>246.6</ele>
        <time>2014-02-20T10:33:14.497Z</time>
      </trkpt>
      <trkpt lat="43.61517" lon="3.15437">
        <ele>246.8</ele>
        <time>2014-02-20T10:33:15.496Z</time>
      </trkpt>
      <trkpt lat="43.61522" lon="3.1544">
        <ele>247.5</ele>
        <time>2014-02-20T10:33:16.617Z</time>
      </trkpt>
      <trkpt lat="43.61526" lon="3.15443">
        <ele>247.5</ele>
        <time>2014-02-20T10:33:17.493Z</time>
      </trkpt>
      <trkpt lat="43.61531" lon="3.15446">
        <ele>247.7</ele>
        <time>2014-02-20T10:33:18.492Z</time>
      </trkpt>
      <trkpt lat="43.6154" lon="3.15451">
        <ele>247.1</ele>
        <time>2014-02-20T10:33:20.823Z</time>
      </trkpt>
      <trkpt lat="43.61546" lon="3.15455">
        <ele>247.7</ele>
        <time>2014-02-20T10:33:22.497Z</time>
      </trkpt>
      <trkpt lat="43.6155" lon="3.15457">
        <ele>247.9</ele>
        <time>2014-02-20T10:33:23.499Z</time>
      </trkpt>
      <trkpt lat="43.61557" lon="3.1546">
        <ele>248</ele>
        <time>2014-02-20T10:33:25.493Z</time>
      </trkpt>
      <trkpt lat="43.61559" lon="3.15461">
        <ele>248.1</ele>
        <time>2014-02-20T10:33:26.499Z</time>
      </trkpt>
      <trkpt lat="43.61564" lon="3.15464">
        <ele>249.3</ele>
        <time>2014-02-20T10:33:30.497Z</time>
      </trkpt>
      <trkpt lat="43.61574" lon="3.15469">
        <ele>250.2</ele>
        <time>2014-02-20T10:33:35.488Z</time>
      </trkpt>
      <trkpt lat="43.61579" lon="3.15472">
        <ele>251.1</ele>
        <time>2014-02-20T10:33:37.495Z</time>
      </trkpt>
      <trkpt lat="43.61588" lon="3.15474">
        <ele>251.1</ele>
        <time>2014-02-20T10:33:38.494Z</time>
      </trkpt>
      <trkpt lat="43.61594" lon="3.15475">
        <ele>251.2</ele>
        <time>2014-02-20T10:33:39.494Z</time>
      </trkpt>
      <trkpt lat="43.61599" lon="3.15476">
        <ele>251.5</ele>
        <time>2014-02-20T10:33:40.496Z</time>
      </trkpt>
      <trkpt lat="43.61606" lon="3.15479">
        <ele>251.7</ele>
        <time>2014-02-20T10:33:42.495Z</time>
      </trkpt>
      <trkpt lat="43.6161" lon="3.1548">
        <ele>251.7</ele>
        <time>2014-02-20T10:33:43.492Z</time>
      </trkpt>
      <trkpt lat="43.61615" lon="3.15484">
        <ele>252</ele>
        <time>2014-02-20T10:33:45.488Z</time>
      </trkpt>
      <trkpt lat="43.61619" lon="3.15486">
        <ele>252.7</ele>
        <time>2014-02-20T10:33:46.488Z</time>
      </trkpt>
      <trkpt lat="43.61623" lon="3.15489">
        <ele>252.8</ele>
        <time>2014-02-20T10:33:47.486Z</time>
      </trkpt>
      <trkpt lat="43.61627" lon="3.15493">
        <ele>253</ele>
        <time>2014-02-20T10:33:48.691Z</time>
      </trkpt>
      <trkpt lat="43.61631" lon="3.15497">
        <ele>252.6</ele>
        <time>2014-02-20T10:33:49.544Z</time>
      </trkpt>
      <trkpt lat="43.61635" lon="3.15502">
        <ele>252.3</ele>
        <time>2014-02-20T10:33:50.490Z</time>
      </trkpt>
      <trkpt lat="43.61622" lon="3.1562">
        <ele>251.4</ele>
        <time>2014-02-20T10:34:05.496Z</time>
      </trkpt>
      <trkpt lat="43.61624" lon="3.15631">
        <ele>252</ele>
        <time>2014-02-20T10:34:07.494Z</time>
      </trkpt>
      <trkpt lat="43.61622" lon="3.15634">
        <ele>252.5</ele>
        <time>2014-02-20T10:34:08.490Z</time>
      </trkpt>
      <trkpt lat="43.6162" lon="3.15645">
        <ele>255.2</ele>
        <time>2014-02-20T10:34:12.488Z</time>
      </trkpt>
      <trkpt lat="43.6162" lon="3.15648">
        <ele>254</ele>
        <time>2014-02-20T10:34:14.447Z</time>
      </trkpt>
      <trkpt lat="43.61618" lon="3.15659">
        <ele>255.3</ele>
        <time>2014-02-20T10:34:18.489Z</time>
      </trkpt>
      <trkpt lat="43.61617" lon="3.15661">
        <ele>255.1</ele>
        <time>2014-02-20T10:34:19.493Z</time>
      </trkpt>
      <trkpt lat="43.61619" lon="3.1567">
        <ele>255.4</ele>
        <time>2014-02-20T10:34:31.489Z</time>
      </trkpt>
      <trkpt lat="43.61619" lon="3.1567">
        <ele>255.3</ele>
        <time>2014-02-20T10:34:32.488Z</time>
      </trkpt>
      <trkpt lat="43.6162" lon="3.1567">
        <ele>254.9</ele>
        <time>2014-02-20T10:34:38.488Z</time>
      </trkpt>
      <trkpt lat="43.61621" lon="3.15671">
        <ele>253.7</ele>
        <time>2014-02-20T10:34:39.489Z</time>
      </trkpt>
      <trkpt lat="43.61621" lon="3.15671">
        <ele>253.2</ele>
        <time>2014-02-20T10:34:40.489Z</time>
      </trkpt>
      <trkpt lat="43.61621" lon="3.15671">
        <ele>253.5</ele>
        <time>2014-02-20T10:34:41.488Z</time>
      </trkpt>
      <trkpt lat="43.61621" lon="3.15671">
        <ele>253.3</ele>
        <time>2014-02-20T10:34:43.489Z</time>
      </trkpt>
      <trkpt lat="43.61621" lon="3.15672">
        <ele>253</ele>
        <time>2014-02-20T10:34:44.487Z</time>
      </trkpt>
      <trkpt lat="43.61621" lon="3.15672">
        <ele>253.1</ele>
        <time>2014-02-20T10:34:45.489Z</time>
      </trkpt>
      <trkpt lat="43.61621" lon="3.15672">
        <ele>252.9</ele>
        <time>2014-02-20T10:34:47.488Z</time>
      </trkpt>
      <trkpt lat="43.61621" lon="3.15673">
        <ele>251.8</ele>
        <time>2014-02-20T10:34:48.488Z</time>
      </trkpt>
      <trkpt lat="43.61623" lon="3.15674">
        <ele>251.5</ele>
        <time>2014-02-20T10:34:52.490Z</time>
      </trkpt>
      <trkpt lat="43.61623" lon="3.15674">
        <ele>251.3</ele>
        <time>2014-02-20T10:34:53.488Z</time>
      </trkpt>
      <trkpt lat="43.61623" lon="3.15674">
        <ele>252.2</ele>
        <time>2014-02-20T10:34:55.500Z</time>
      </trkpt>
      <trkpt lat="43.61623" lon="3.15675">
        <ele>252.8</ele>
        <time>2014-02-20T10:34:56.496Z</time>
      </trkpt>
      <trkpt lat="43.61623" lon="3.15675">
        <ele>252.7</ele>
        <time>2014-02-20T10:34:57.493Z</time>
      </trkpt>
      <trkpt lat="43.61622" lon="3.15674">
        <ele>253.2</ele>
        <time>2014-02-20T10:37:30.502Z</time>
      </trkpt>
      <trkpt lat="43.61622" lon="3.15676">
        <ele>252.7</ele>
        <time>2014-02-20T10:37:31.507Z</time>
      </trkpt>
      <trkpt lat="43.61622" lon="3.15687">
        <ele>250.8</ele>
        <time>2014-02-20T10:37:36.604Z</time>
      </trkpt>
      <trkpt lat="43.61624" lon="3.1569">
        <ele>249.2</ele>
        <time>2014-02-20T10:37:37.499Z</time>
      </trkpt>
      <trkpt lat="43.61627" lon="3.15698">
        <ele>247.2</ele>
        <time>2014-02-20T10:37:40.528Z</time>
      </trkpt>
      <trkpt lat="43.61627" lon="3.15702">
        <ele>247</ele>
        <time>2014-02-20T10:37:41.496Z</time>
      </trkpt>
      <trkpt lat="43.61627" lon="3.15714">
        <ele>249.1</ele>
        <time>2014-02-20T10:37:45.503Z</time>
      </trkpt>
      <trkpt lat="43.61628" lon="3.15716">
        <ele>249.4</ele>
        <time>2014-02-20T10:37:47.216Z</time>
      </trkpt>
      <trkpt lat="43.61636" lon="3.15718">
        <ele>246.7</ele>
        <time>2014-02-20T10:37:50.502Z</time>
      </trkpt>
      <trkpt lat="43.6164" lon="3.15718">
        <ele>247.1</ele>
        <time>2014-02-20T10:37:51.519Z</time>
      </trkpt>
      <trkpt lat="43.61646" lon="3.15719">
        <ele>247.7</ele>
        <time>2014-02-20T10:37:54.493Z</time>
      </trkpt>
      <trkpt lat="43.6165" lon="3.1572">
        <ele>247.3</ele>
        <time>2014-02-20T10:37:55.504Z</time>
      </trkpt>
      <trkpt lat="43.61658" lon="3.15724">
        <ele>246.4</ele>
        <time>2014-02-20T10:37:58.505Z</time>
      </trkpt>
      <trkpt lat="43.61659" lon="3.15727">
        <ele>246.2</ele>
        <time>2014-02-20T10:37:59.500Z</time>
      </trkpt>
      <trkpt lat="43.61661" lon="3.15737">
        <ele>246.5</ele>
        <time>2014-02-20T10:38:07.512Z</time>
      </trkpt>
      <trkpt lat="43.61663" lon="3.15739">
        <ele>246.5</ele>
        <time>2014-02-20T10:38:08.501Z</time>
      </trkpt>
      <trkpt lat="43.61669" lon="3.15742">
        <ele>246.4</ele>
        <time>2014-02-20T10:38:11.495Z</time>
      </trkpt>
      <trkpt lat="43.61672" lon="3.1574">
        <ele>245.3</ele>
        <time>2014-02-20T10:38:12.497Z</time>
      </trkpt>
      <trkpt lat="43.61676" lon="3.15736">
        <ele>244.7</ele>
        <time>2014-02-20T10:38:13.499Z</time>
      </trkpt>
      <trkpt lat="43.61681" lon="3.1573">
        <ele>243.3</ele>
        <time>2014-02-20T10:38:14.501Z</time>
      </trkpt>
      <trkpt lat="43.61686" lon="3.15726">
        <ele>243.9</ele>
        <time>2014-02-20T10:38:15.502Z</time>
      </trkpt>
      <trkpt lat="43.61689" lon="3.15721">
        <ele>243.9</ele>
        <time>2014-02-20T10:38:16.504Z</time>
      </trkpt>
      <trkpt lat="43.61701" lon="3.15712">
        <ele>244.1</ele>
        <time>2014-02-20T10:38:19.501Z</time>
      </trkpt>
      <trkpt lat="43.61715" lon="3.15707">
        <ele>244.1</ele>
        <time>2014-02-20T10:38:23.496Z</time>
      </trkpt>
      <trkpt lat="43.61721" lon="3.1571">
        <ele>244.1</ele>
        <time>2014-02-20T10:38:26.543Z</time>
      </trkpt>
      <trkpt lat="43.61724" lon="3.15709">
        <ele>244.3</ele>
        <time>2014-02-20T10:38:27.497Z</time>
      </trkpt>
      <trkpt lat="43.61728" lon="3.15704">
        <ele>245.1</ele>
        <time>2014-02-20T10:38:28.504Z</time>
      </trkpt>
      <trkpt lat="43.61734" lon="3.15699">
        <ele>244.9</ele>
        <time>2014-02-20T10:38:29.507Z</time>
      </trkpt>
      <trkpt lat="43.61738" lon="3.15694">
        <ele>244.9</ele>
        <time>2014-02-20T10:38:30.508Z</time>
      </trkpt>
      <trkpt lat="43.61743" lon="3.15689">
        <ele>245.7</ele>
        <time>2014-02-20T10:38:31.508Z</time>
      </trkpt>
      <trkpt lat="43.6175" lon="3.15683">
        <ele>245.4</ele>
        <time>2014-02-20T10:38:33.536Z</time>
      </trkpt>
      <trkpt lat="43.61753" lon="3.15681">
        <ele>244.9</ele>
        <time>2014-02-20T10:38:34.504Z</time>
      </trkpt>
      <trkpt lat="43.61759" lon="3.15677">
        <ele>244</ele>
        <time>2014-02-20T10:38:36.502Z</time>
      </trkpt>
      <trkpt lat="43.61762" lon="3.15675">
        <ele>243.5</ele>
        <time>2014-02-20T10:38:37.547Z</time>
      </trkpt>
      <trkpt lat="43.61769" lon="3.15673">
        <ele>243.1</ele>
        <time>2014-02-20T10:38:39.504Z</time>
      </trkpt>
      <trkpt lat="43.61771" lon="3.15671">
        <ele>243.5</ele>
        <time>2014-02-20T10:38:40.507Z</time>
      </trkpt>
      <trkpt lat="43.61779" lon="3.15667">
        <ele>243.8</ele>
        <time>2014-02-20T10:38:42.502Z</time>
      </trkpt>
      <trkpt lat="43.61784" lon="3.15666">
        <ele>244.8</ele>
        <time>2014-02-20T10:38:43.505Z</time>
      </trkpt>
      <trkpt lat="43.61792" lon="3.15664">
        <ele>244.8</ele>
        <time>2014-02-20T10:38:45.505Z</time>
      </trkpt>
      <trkpt lat="43.61795" lon="3.15663">
        <ele>244.4</ele>
        <time>2014-02-20T10:38:46.504Z</time>
      </trkpt>
      <trkpt lat="43.61803" lon="3.15662">
        <ele>243.5</ele>
        <time>2014-02-20T10:38:49.502Z</time>
      </trkpt>
      <trkpt lat="43.61807" lon="3.15661">
        <ele>241.7</ele>
        <time>2014-02-20T10:38:50.502Z</time>
      </trkpt>
      <trkpt lat="43.61812" lon="3.1566">
        <ele>242.1</ele>
        <time>2014-02-20T10:38:51.502Z</time>
      </trkpt>
      <trkpt lat="43.61817" lon="3.15658">
        <ele>241.9</ele>
        <time>2014-02-20T10:38:52.505Z</time>
      </trkpt>
      <trkpt lat="43.61825" lon="3.15658">
        <ele>241.1</ele>
        <time>2014-02-20T10:38:55.503Z</time>
      </trkpt>
      <trkpt lat="43.61827" lon="3.15658">
        <ele>241.1</ele>
        <time>2014-02-20T10:38:56.500Z</time>
      </trkpt>
      <trkpt lat="43.61836" lon="3.15658">
        <ele>241.2</ele>
        <time>2014-02-20T10:38:59.507Z</time>
      </trkpt>
      <trkpt lat="43.61839" lon="3.15658">
        <ele>241</ele>
        <time>2014-02-20T10:39:00.548Z</time>
      </trkpt>
      <trkpt lat="43.61833" lon="3.15662">
        <ele>240.7</ele>
        <time>2014-02-20T10:39:06.504Z</time>
      </trkpt>
      <trkpt lat="43.61829" lon="3.15662">
        <ele>240.2</ele>
        <time>2014-02-20T10:39:07.509Z</time>
      </trkpt>
      <trkpt lat="43.61822" lon="3.15662">
        <ele>242.3</ele>
        <time>2014-02-20T10:39:09.501Z</time>
      </trkpt>
      <trkpt lat="43.61819" lon="3.1566">
        <ele>241.9</ele>
        <time>2014-02-20T10:39:10.500Z</time>
      </trkpt>
      <trkpt lat="43.61811" lon="3.1566">
        <ele>242.7</ele>
        <time>2014-02-20T10:39:14.499Z</time>
      </trkpt>
      <trkpt lat="43.61808" lon="3.15661">
        <ele>243.4</ele>
        <time>2014-02-20T10:39:16.493Z</time>
      </trkpt>
      <trkpt lat="43.61803" lon="3.15662">
        <ele>244.5</ele>
        <time>2014-02-20T10:39:17.491Z</time>
      </trkpt>
      <trkpt lat="43.61799" lon="3.15664">
        <ele>245.5</ele>
        <time>2014-02-20T10:39:18.500Z</time>
      </trkpt>
      <trkpt lat="43.61793" lon="3.15666">
        <ele>246.3</ele>
        <time>2014-02-20T10:39:20.497Z</time>
      </trkpt>
      <trkpt lat="43.61789" lon="3.15667">
        <ele>245.9</ele>
        <time>2014-02-20T10:39:21.496Z</time>
      </trkpt>
      <trkpt lat="43.61782" lon="3.15672">
        <ele>249.1</ele>
        <time>2014-02-20T10:39:23.511Z</time>
      </trkpt>
      <trkpt lat="43.61779" lon="3.15674">
        <ele>250.2</ele>
        <time>2014-02-20T10:39:25.176Z</time>
      </trkpt>
      <trkpt lat="43.61772" lon="3.15681">
        <ele>252.1</ele>
        <time>2014-02-20T10:39:27.543Z</time>
      </trkpt>
      <trkpt lat="43.61762" lon="3.15682">
        <ele>252.5</ele>
        <time>2014-02-20T10:39:30.494Z</time>
      </trkpt>
      <trkpt lat="43.61755" lon="3.15682">
        <ele>252.3</ele>
        <time>2014-02-20T10:39:32.500Z</time>
      </trkpt>
      <trkpt lat="43.61752" lon="3.15683">
        <ele>251.9</ele>
        <time>2014-02-20T10:39:33.505Z</time>
      </trkpt>
      <trkpt lat="43.61745" lon="3.15687">
        <ele>252.2</ele>
        <time>2014-02-20T10:39:36.504Z</time>
      </trkpt>
      <trkpt lat="43.61743" lon="3.1569">
        <ele>251.3</ele>
        <time>2014-02-20T10:39:37.504Z</time>
      </trkpt>
      <trkpt lat="43.61738" lon="3.15698">
        <ele>250.9</ele>
        <time>2014-02-20T10:39:41.496Z</time>
      </trkpt>
      <trkpt lat="43.61738" lon="3.15702">
        <ele>250.7</ele>
        <time>2014-02-20T10:39:42.496Z</time>
      </trkpt>
      <trkpt lat="43.6174" lon="3.15713">
        <ele>250.6</ele>
        <time>2014-02-20T10:39:45.509Z</time>
      </trkpt>
      <trkpt lat="43.61741" lon="3.15717">
        <ele>250.6</ele>
        <time>2014-02-20T10:39:46.512Z</time>
      </trkpt>
      <trkpt lat="43.61745" lon="3.15727">
        <ele>248.8</ele>
        <time>2014-02-20T10:39:53.506Z</time>
      </trkpt>
      <trkpt lat="43.61747" lon="3.15727">
        <ele>249.1</ele>
        <time>2014-02-20T10:39:54.504Z</time>
      </trkpt>
      <trkpt lat="43.61753" lon="3.15733">
        <ele>249.2</ele>
        <time>2014-02-20T10:39:58.498Z</time>
      </trkpt>
      <trkpt lat="43.61755" lon="3.15734">
        <ele>249</ele>
        <time>2014-02-20T10:39:59.499Z</time>
      </trkpt>
      <trkpt lat="43.61763" lon="3.1574">
        <ele>248.7</ele>
        <time>2014-02-20T10:40:12.494Z</time>
      </trkpt>
      <trkpt lat="43.61765" lon="3.15744">
        <ele>249</ele>
        <time>2014-02-20T10:40:13.494Z</time>
      </trkpt>
      <trkpt lat="43.61769" lon="3.1575">
        <ele>249</ele>
        <time>2014-02-20T10:40:14.494Z</time>
      </trkpt>
      <trkpt lat="43.61775" lon="3.15756">
        <ele>248.7</ele>
        <time>2014-02-20T10:40:15.496Z</time>
      </trkpt>
      <trkpt lat="43.61779" lon="3.15762">
        <ele>248.9</ele>
        <time>2014-02-20T10:40:16.497Z</time>
      </trkpt>
      <trkpt lat="43.61783" lon="3.15767">
        <ele>249</ele>
        <time>2014-02-20T10:40:17.494Z</time>
      </trkpt>
      <trkpt lat="43.61787" lon="3.15772">
        <ele>248.8</ele>
        <time>2014-02-20T10:40:18.495Z</time>
      </trkpt>
      <trkpt lat="43.6179" lon="3.15776">
        <ele>248.5</ele>
        <time>2014-02-20T10:40:19.493Z</time>
      </trkpt>
      <trkpt lat="43.61792" lon="3.15784">
        <ele>250.2</ele>
        <time>2014-02-20T10:40:26.493Z</time>
      </trkpt>
      <trkpt lat="43.61792" lon="3.15784">
        <ele>250.2</ele>
        <time>2014-02-20T10:40:27.494Z</time>
      </trkpt>
      <trkpt lat="43.61792" lon="3.15783">
        <ele>250.2</ele>
        <time>2014-02-20T10:40:28.495Z</time>
      </trkpt>
      <trkpt lat="43.61792" lon="3.15782">
        <ele>250.1</ele>
        <time>2014-02-20T10:40:29.492Z</time>
      </trkpt>
      <trkpt lat="43.61792" lon="3.15782">
        <ele>250.4</ele>
        <time>2014-02-20T10:40:31.495Z</time>
      </trkpt>
      <trkpt lat="43.61792" lon="3.15782">
        <ele>250.4</ele>
        <time>2014-02-20T10:40:32.493Z</time>
      </trkpt>
      <trkpt lat="43.61793" lon="3.15782">
        <ele>250.1</ele>
        <time>2014-02-20T10:40:34.494Z</time>
      </trkpt>
      <trkpt lat="43.61793" lon="3.15782">
        <ele>250.2</ele>
        <time>2014-02-20T10:40:35.493Z</time>
      </trkpt>
      <trkpt lat="43.618" lon="3.15779">
        <ele>250.6</ele>
        <time>2014-02-20T10:40:40.491Z</time>
      </trkpt>
      <trkpt lat="43.61802" lon="3.15777">
        <ele>250.5</ele>
        <time>2014-02-20T10:40:41.496Z</time>
      </trkpt>
      <trkpt lat="43.61805" lon="3.15769">
        <ele>250.2</ele>
        <time>2014-02-20T10:40:44.488Z</time>
      </trkpt>
      <trkpt lat="43.61807" lon="3.15766">
        <ele>248.7</ele>
        <time>2014-02-20T10:40:45.491Z</time>
      </trkpt>
      <trkpt lat="43.61814" lon="3.15761">
        <ele>249.4</ele>
        <time>2014-02-20T10:40:48.493Z</time>
      </trkpt>
      <trkpt lat="43.61818" lon="3.15759">
        <ele>249.6</ele>
        <time>2014-02-20T10:40:49.488Z</time>
      </trkpt>
      <trkpt lat="43.61822" lon="3.15755">
        <ele>249.1</ele>
        <time>2014-02-20T10:40:50.488Z</time>
      </trkpt>
      <trkpt lat="43.61826" lon="3.15752">
        <ele>249</ele>
        <time>2014-02-20T10:40:51.491Z</time>
      </trkpt>
      <trkpt lat="43.61832" lon="3.15744">
        <ele>249.3</ele>
        <time>2014-02-20T10:40:53.491Z</time>
      </trkpt>
      <trkpt lat="43.61835" lon="3.1574">
        <ele>249.1</ele>
        <time>2014-02-20T10:40:54.494Z</time>
      </trkpt>
      <trkpt lat="43.6184" lon="3.15735">
        <ele>248.8</ele>
        <time>2014-02-20T10:40:56.492Z</time>
      </trkpt>
      <trkpt lat="43.61843" lon="3.15732">
        <ele>248.8</ele>
        <time>2014-02-20T10:40:57.496Z</time>
      </trkpt>
      <trkpt lat="43.61847" lon="3.15725">
        <ele>247.8</ele>
        <time>2014-02-20T10:41:00.730Z</time>
      </trkpt>
      <trkpt lat="43.6185" lon="3.15722">
        <ele>248.7</ele>
        <time>2014-02-20T10:41:01.487Z</time>
      </trkpt>
      <trkpt lat="43.61855" lon="3.15715">
        <ele>249.3</ele>
        <time>2014-02-20T10:41:03.495Z</time>
      </trkpt>
      <trkpt lat="43.61857" lon="3.15713">
        <ele>248.3</ele>
        <time>2014-02-20T10:41:04.494Z</time>
      </trkpt>
      <trkpt lat="43.61864" lon="3.15705">
        <ele>247.9</ele>
        <time>2014-02-20T10:41:07.492Z</time>
      </trkpt>
      <trkpt lat="43.61867" lon="3.15703">
        <ele>247.6</ele>
        <time>2014-02-20T10:41:08.492Z</time>
      </trkpt>
      <trkpt lat="43.61872" lon="3.157">
        <ele>248.2</ele>
        <time>2014-02-20T10:41:10.492Z</time>
      </trkpt>
      <trkpt lat="43.61875" lon="3.15698">
        <ele>248</ele>
        <time>2014-02-20T10:41:11.490Z</time>
      </trkpt>
      <trkpt lat="43.61881" lon="3.15693">
        <ele>248.3</ele>
        <time>2014-02-20T10:41:13.489Z</time>
      </trkpt>
      <trkpt lat="43.61884" lon="3.15689">
        <ele>247</ele>
        <time>2014-02-20T10:41:14.486Z</time>
      </trkpt>
      <trkpt lat="43.61889" lon="3.1568">
        <ele>247.4</ele>
        <time>2014-02-20T10:41:16.488Z</time>
      </trkpt>
      <trkpt lat="43.61891" lon="3.15675">
        <ele>247.7</ele>
        <time>2014-02-20T10:41:18.175Z</time>
      </trkpt>
      <trkpt lat="43.61896" lon="3.15669">
        <ele>245.6</ele>
        <time>2014-02-20T10:41:20.491Z</time>
      </trkpt>
      <trkpt lat="43.61898" lon="3.15665">
        <ele>244.8</ele>
        <time>2014-02-20T10:41:21.488Z</time>
      </trkpt>
      <trkpt lat="43.61901" lon="3.15657">
        <ele>247.1</ele>
        <time>2014-02-20T10:41:23.487Z</time>
      </trkpt>
      <trkpt lat="43.61903" lon="3.15654">
        <ele>247.8</ele>
        <time>2014-02-20T10:41:24.488Z</time>
      </trkpt>
      <trkpt lat="43.61907" lon="3.15647">
        <ele>246.9</ele>
        <time>2014-02-20T10:41:27.489Z</time>
      </trkpt>
      <trkpt lat="43.61909" lon="3.15645">
        <ele>246.9</ele>
        <time>2014-02-20T10:41:28.490Z</time>
      </trkpt>
      <trkpt lat="43.61914" lon="3.15639">
        <ele>250.1</ele>
        <time>2014-02-20T10:41:32.927Z</time>
      </trkpt>
      <trkpt lat="43.61842" lon="3.15594">
        <ele>231.8</ele>
        <time>2014-02-20T10:42:08.496Z</time>
      </trkpt>
      <trkpt lat="43.61834" lon="3.15591">
        <ele>235.7</ele>
        <time>2014-02-20T10:42:10.496Z</time>
      </trkpt>
      <trkpt lat="43.6183" lon="3.15592">
        <ele>236.3</ele>
        <time>2014-02-20T10:42:11.494Z</time>
      </trkpt>
      <trkpt lat="43.61824" lon="3.15594">
        <ele>237.6</ele>
        <time>2014-02-20T10:42:13.495Z</time>
      </trkpt>
      <trkpt lat="43.6182" lon="3.15594">
        <ele>240.8</ele>
        <time>2014-02-20T10:42:14.492Z</time>
      </trkpt>
      <trkpt lat="43.61812" lon="3.15594">
        <ele>243.5</ele>
        <time>2014-02-20T10:42:16.488Z</time>
      </trkpt>
      <trkpt lat="43.61808" lon="3.15596">
        <ele>243.8</ele>
        <time>2014-02-20T10:42:17.488Z</time>
      </trkpt>
      <trkpt lat="43.61799" lon="3.15598">
        <ele>246.8</ele>
        <time>2014-02-20T10:42:19.488Z</time>
      </trkpt>
      <trkpt lat="43.61795" lon="3.156">
        <ele>248.7</ele>
        <time>2014-02-20T10:42:20.673Z</time>
      </trkpt>
      <trkpt lat="43.6179" lon="3.15605">
        <ele>254.1</ele>
        <time>2014-02-20T10:42:22.489Z</time>
      </trkpt>
      <trkpt lat="43.61787" lon="3.15608">
        <ele>253.9</ele>
        <time>2014-02-20T10:42:23.497Z</time>
      </trkpt>
      <trkpt lat="43.6178" lon="3.15614">
        <ele>255</ele>
        <time>2014-02-20T10:42:25.489Z</time>
      </trkpt>
      <trkpt lat="43.61777" lon="3.15618">
        <ele>256.3</ele>
        <time>2014-02-20T10:42:26.487Z</time>
      </trkpt>
      <trkpt lat="43.61769" lon="3.15622">
        <ele>257.6</ele>
        <time>2014-02-20T10:42:28.490Z</time>
      </trkpt>
      <trkpt lat="43.61766" lon="3.15623">
        <ele>257.5</ele>
        <time>2014-02-20T10:42:29.486Z</time>
      </trkpt>
      <trkpt lat="43.61759" lon="3.15623">
        <ele>258.2</ele>
        <time>2014-02-20T10:42:31.490Z</time>
      </trkpt>
      <trkpt lat="43.61756" lon="3.15623">
        <ele>258.6</ele>
        <time>2014-02-20T10:42:32.491Z</time>
      </trkpt>
      <trkpt lat="43.61747" lon="3.15623">
        <ele>258.7</ele>
        <time>2014-02-20T10:42:35.492Z</time>
      </trkpt>
      <trkpt lat="43.61742" lon="3.15622">
        <ele>258.6</ele>
        <time>2014-02-20T10:42:38.020Z</time>
      </trkpt>
      <trkpt lat="43.61736" lon="3.15622">
        <ele>258.3</ele>
        <time>2014-02-20T10:42:39.494Z</time>
      </trkpt>
      <trkpt lat="43.61732" lon="3.15621">
        <ele>258.3</ele>
        <time>2014-02-20T10:42:40.494Z</time>
      </trkpt>
      <trkpt lat="43.61726" lon="3.15618">
        <ele>259.6</ele>
        <time>2014-02-20T10:42:42.492Z</time>
      </trkpt>
      <trkpt lat="43.61723" lon="3.15617">
        <ele>259.3</ele>
        <time>2014-02-20T10:42:43.492Z</time>
      </trkpt>
      <trkpt lat="43.61714" lon="3.15616">
        <ele>260.9</ele>
        <time>2014-02-20T10:42:45.494Z</time>
      </trkpt>
      <trkpt lat="43.6171" lon="3.15616">
        <ele>261.8</ele>
        <time>2014-02-20T10:42:46.493Z</time>
      </trkpt>
      <trkpt lat="43.61702" lon="3.15615">
        <ele>263.5</ele>
        <time>2014-02-20T10:42:48.488Z</time>
      </trkpt>
      <trkpt lat="43.61698" lon="3.15614">
        <ele>265.9</ele>
        <time>2014-02-20T10:42:49.487Z</time>
      </trkpt>
      <trkpt lat="43.61692" lon="3.15612">
        <ele>266.9</ele>
        <time>2014-02-20T10:42:51.489Z</time>
      </trkpt>
      <trkpt lat="43.61689" lon="3.15612">
        <ele>267.4</ele>
        <time>2014-02-20T10:42:52.486Z</time>
      </trkpt>
      <trkpt lat="43.61683" lon="3.15615">
        <ele>267.5</ele>
        <time>2014-02-20T10:42:54.489Z</time>
      </trkpt>
      <trkpt lat="43.61678" lon="3.15617">
        <ele>268.9</ele>
        <time>2014-02-20T10:42:55.499Z</time>
      </trkpt>
      <trkpt lat="43.6167" lon="3.1562">
        <ele>270.9</ele>
        <time>2014-02-20T10:42:57.488Z</time>
      </trkpt>
      <trkpt lat="43.61665" lon="3.15621">
        <ele>271.9</ele>
        <time>2014-02-20T10:42:58.488Z</time>
      </trkpt>
      <trkpt lat="43.61661" lon="3.15624">
        <ele>271.9</ele>
        <time>2014-02-20T10:42:59.488Z</time>
      </trkpt>
      <trkpt lat="43.61657" lon="3.15627">
        <ele>274</ele>
        <time>2014-02-20T10:43:00.488Z</time>
      </trkpt>
      <trkpt lat="43.61649" lon="3.15631">
        <ele>275.4</ele>
        <time>2014-02-20T10:43:02.487Z</time>
      </trkpt>
      <trkpt lat="43.61645" lon="3.15633">
        <ele>275.6</ele>
        <time>2014-02-20T10:43:03.488Z</time>
      </trkpt>
      <trkpt lat="43.61639" lon="3.15635">
        <ele>275</ele>
        <time>2014-02-20T10:43:05.487Z</time>
      </trkpt>
      <trkpt lat="43.61635" lon="3.15636">
        <ele>276</ele>
        <time>2014-02-20T10:43:06.488Z</time>
      </trkpt>
      <trkpt lat="43.61627" lon="3.15638">
        <ele>277.5</ele>
        <time>2014-02-20T10:43:08.486Z</time>
      </trkpt>
      <trkpt lat="43.61623" lon="3.15638">
        <ele>277.4</ele>
        <time>2014-02-20T10:43:09.488Z</time>
      </trkpt>
      <trkpt lat="43.61615" lon="3.15637">
        <ele>278.8</ele>
        <time>2014-02-20T10:43:13.487Z</time>
      </trkpt>
      <trkpt lat="43.61613" lon="3.15638">
        <ele>279.4</ele>
        <time>2014-02-20T10:43:14.487Z</time>
      </trkpt>
      <trkpt lat="43.61606" lon="3.15633">
        <ele>281.3</ele>
        <time>2014-02-20T10:43:25.489Z</time>
      </trkpt>
      <trkpt lat="43.61603" lon="3.15633">
        <ele>280.9</ele>
        <time>2014-02-20T10:43:26.487Z</time>
      </trkpt>
      <trkpt lat="43.61597" lon="3.15634">
        <ele>282.2</ele>
        <time>2014-02-20T10:43:28.487Z</time>
      </trkpt>
      <trkpt lat="43.61592" lon="3.15633">
        <ele>283.2</ele>
        <time>2014-02-20T10:43:29.486Z</time>
      </trkpt>
      <trkpt lat="43.61586" lon="3.15633">
        <ele>283.6</ele>
        <time>2014-02-20T10:43:30.489Z</time>
      </trkpt>
      <trkpt lat="43.61581" lon="3.15633">
        <ele>283.4</ele>
        <time>2014-02-20T10:43:31.487Z</time>
      </trkpt>
      <trkpt lat="43.61576" lon="3.15632">
        <ele>283.4</ele>
        <time>2014-02-20T10:43:32.486Z</time>
      </trkpt>
      <trkpt lat="43.61571" lon="3.1563">
        <ele>283.3</ele>
        <time>2014-02-20T10:43:33.487Z</time>
      </trkpt>
      <trkpt lat="43.61566" lon="3.15628">
        <ele>283.1</ele>
        <time>2014-02-20T10:43:34.486Z</time>
      </trkpt>
      <trkpt lat="43.61562" lon="3.15625">
        <ele>283.1</ele>
        <time>2014-02-20T10:43:35.486Z</time>
      </trkpt>
      <trkpt lat="43.61557" lon="3.15621">
        <ele>282.9</ele>
        <time>2014-02-20T10:43:36.488Z</time>
      </trkpt>
      <trkpt lat="43.61552" lon="3.15619">
        <ele>283</ele>
        <time>2014-02-20T10:43:37.488Z</time>
      </trkpt>
      <trkpt lat="43.61545" lon="3.15616">
        <ele>283.5</ele>
        <time>2014-02-20T10:43:39.487Z</time>
      </trkpt>
      <trkpt lat="43.61542" lon="3.15615">
        <ele>283.3</ele>
        <time>2014-02-20T10:43:40.489Z</time>
      </trkpt>
      <trkpt lat="43.61534" lon="3.15613">
        <ele>283.5</ele>
        <time>2014-02-20T10:43:42.488Z</time>
      </trkpt>
      <trkpt lat="43.61531" lon="3.15609">
        <ele>280.3</ele>
        <time>2014-02-20T10:43:43.489Z</time>
      </trkpt>
      <trkpt lat="43.61525" lon="3.15602">
        <ele>278.9</ele>
        <time>2014-02-20T10:43:45.485Z</time>
      </trkpt>
      <trkpt lat="43.61523" lon="3.156">
        <ele>278</ele>
        <time>2014-02-20T10:43:46.488Z</time>
      </trkpt>
      <trkpt lat="43.61516" lon="3.15593">
        <ele>275</ele>
        <time>2014-02-20T10:43:48.488Z</time>
      </trkpt>
      <trkpt lat="43.61511" lon="3.1559">
        <ele>275.2</ele>
        <time>2014-02-20T10:43:49.486Z</time>
      </trkpt>
      <trkpt lat="43.61506" lon="3.15587">
        <ele>274.8</ele>
        <time>2014-02-20T10:43:50.487Z</time>
      </trkpt>
      <trkpt lat="43.61501" lon="3.15584">
        <ele>274</ele>
        <time>2014-02-20T10:43:51.486Z</time>
      </trkpt>
      <trkpt lat="43.61495" lon="3.15581">
        <ele>273</ele>
        <time>2014-02-20T10:43:52.490Z</time>
      </trkpt>
      <trkpt lat="43.6149" lon="3.15578">
        <ele>270.4</ele>
        <time>2014-02-20T10:43:53.487Z</time>
      </trkpt>
      <trkpt lat="43.61484" lon="3.15576">
        <ele>270.2</ele>
        <time>2014-02-20T10:43:54.486Z</time>
      </trkpt>
      <trkpt lat="43.61477" lon="3.15574">
        <ele>271.7</ele>
        <time>2014-02-20T10:43:55.491Z</time>
      </trkpt>
      <trkpt lat="43.61471" lon="3.15572">
        <ele>271.6</ele>
        <time>2014-02-20T10:43:56.485Z</time>
      </trkpt>
      <trkpt lat="43.61465" lon="3.1557">
        <ele>271.8</ele>
        <time>2014-02-20T10:43:57.489Z</time>
      </trkpt>
      <trkpt lat="43.61459" lon="3.15569">
        <ele>271.3</ele>
        <time>2014-02-20T10:43:58.489Z</time>
      </trkpt>
      <trkpt lat="43.61454" lon="3.15567">
        <ele>271</ele>
        <time>2014-02-20T10:43:59.495Z</time>
      </trkpt>
      <trkpt lat="43.61449" lon="3.15565">
        <ele>271.3</ele>
        <time>2014-02-20T10:44:00.489Z</time>
      </trkpt>
      <trkpt lat="43.61445" lon="3.15563">
        <ele>271.5</ele>
        <time>2014-02-20T10:44:01.488Z</time>
      </trkpt>
      <trkpt lat="43.6144" lon="3.15561">
        <ele>271.3</ele>
        <time>2014-02-20T10:44:02.488Z</time>
      </trkpt>
      <trkpt lat="43.61435" lon="3.15558">
        <ele>271.3</ele>
        <time>2014-02-20T10:44:03.490Z</time>
      </trkpt>
      <trkpt lat="43.6143" lon="3.15555">
        <ele>271.3</ele>
        <time>2014-02-20T10:44:04.490Z</time>
      </trkpt>
      <trkpt lat="43.61425" lon="3.15551">
        <ele>271.1</ele>
        <time>2014-02-20T10:44:05.490Z</time>
      </trkpt>
      <trkpt lat="43.61421" lon="3.15548">
        <ele>271.3</ele>
        <time>2014-02-20T10:44:06.491Z</time>
      </trkpt>
      <trkpt lat="43.61417" lon="3.15544">
        <ele>271.2</ele>
        <time>2014-02-20T10:44:07.491Z</time>
      </trkpt>
      <trkpt lat="43.6141" lon="3.15537">
        <ele>270.7</ele>
        <time>2014-02-20T10:44:09.489Z</time>
      </trkpt>
      <trkpt lat="43.61407" lon="3.15533">
        <ele>270.6</ele>
        <time>2014-02-20T10:44:10.492Z</time>
      </trkpt>
      <trkpt lat="43.61402" lon="3.15526">
        <ele>270.9</ele>
        <time>2014-02-20T10:44:12.491Z</time>
      </trkpt>
      <trkpt lat="43.61399" lon="3.15523">
        <ele>270.9</ele>
        <time>2014-02-20T10:44:13.492Z</time>
      </trkpt>
      <trkpt lat="43.61395" lon="3.15517">
        <ele>271.1</ele>
        <time>2014-02-20T10:44:15.492Z</time>
      </trkpt>
      <trkpt lat="43.61392" lon="3.15515">
        <ele>271.7</ele>
        <time>2014-02-20T10:44:16.490Z</time>
      </trkpt>
      <trkpt lat="43.61385" lon="3.15509">
        <ele>271.9</ele>
        <time>2014-02-20T10:44:18.491Z</time>
      </trkpt>
      <trkpt lat="43.61383" lon="3.15505">
        <ele>271.8</ele>
        <time>2014-02-20T10:44:19.489Z</time>
      </trkpt>
      <trkpt lat="43.61378" lon="3.15499">
        <ele>271.6</ele>
        <time>2014-02-20T10:44:21.492Z</time>
      </trkpt>
      <trkpt lat="43.61375" lon="3.15496">
        <ele>271</ele>
        <time>2014-02-20T10:44:22.489Z</time>
      </trkpt>
      <trkpt lat="43.61369" lon="3.1549">
        <ele>270.8</ele>
        <time>2014-02-20T10:44:24.490Z</time>
      </trkpt>
      <trkpt lat="43.61366" lon="3.15486">
        <ele>271.8</ele>
        <time>2014-02-20T10:44:25.490Z</time>
      </trkpt>
      <trkpt lat="43.6136" lon="3.1548">
        <ele>271.4</ele>
        <time>2014-02-20T10:44:27.490Z</time>
      </trkpt>
      <trkpt lat="43.61358" lon="3.15477">
        <ele>271.2</ele>
        <time>2014-02-20T10:44:28.491Z</time>
      </trkpt>
      <trkpt lat="43.61352" lon="3.1547">
        <ele>269.5</ele>
        <time>2014-02-20T10:44:31.496Z</time>
      </trkpt>
      <trkpt lat="43.61349" lon="3.15468">
        <ele>269.5</ele>
        <time>2014-02-20T10:44:32.489Z</time>
      </trkpt>
      <trkpt lat="43.61347" lon="3.15461">
        <ele>266.9</ele>
        <time>2014-02-20T10:44:34.489Z</time>
      </trkpt>
      <trkpt lat="43.61345" lon="3.15456">
        <ele>265.8</ele>
        <time>2014-02-20T10:44:35.488Z</time>
      </trkpt>
      <trkpt lat="43.6134" lon="3.1545">
        <ele>264.6</ele>
        <time>2014-02-20T10:44:37.491Z</time>
      </trkpt>
      <trkpt lat="43.61336" lon="3.15448">
        <ele>264.1</ele>
        <time>2014-02-20T10:44:38.488Z</time>
      </trkpt>
      <trkpt lat="43.61331" lon="3.15443">
        <ele>264.7</ele>
        <time>2014-02-20T10:44:40.493Z</time>
      </trkpt>
      <trkpt lat="43.61328" lon="3.1544">
        <ele>264.5</ele>
        <time>2014-02-20T10:44:41.488Z</time>
      </trkpt>
      <trkpt lat="43.61321" lon="3.15433">
        <ele>264.4</ele>
        <time>2014-02-20T10:44:43.494Z</time>
      </trkpt>
      <trkpt lat="43.61318" lon="3.1543">
        <ele>264.5</ele>
        <time>2014-02-20T10:44:44.486Z</time>
      </trkpt>
      <trkpt lat="43.61312" lon="3.15424">
        <ele>263.8</ele>
        <time>2014-02-20T10:44:46.488Z</time>
      </trkpt>
      <trkpt lat="43.61309" lon="3.15421">
        <ele>263.8</ele>
        <time>2014-02-20T10:44:47.488Z</time>
      </trkpt>
      <trkpt lat="43.61303" lon="3.15415">
        <ele>263.9</ele>
        <time>2014-02-20T10:44:49.488Z</time>
      </trkpt>
      <trkpt lat="43.61301" lon="3.15411">
        <ele>263.5</ele>
        <time>2014-02-20T10:44:50.489Z</time>
      </trkpt>
      <trkpt lat="43.61296" lon="3.15404">
        <ele>263.9</ele>
        <time>2014-02-20T10:44:52.489Z</time>
      </trkpt>
      <trkpt lat="43.61292" lon="3.154">
        <ele>263.2</ele>
        <time>2014-02-20T10:44:53.487Z</time>
      </trkpt>
      <trkpt lat="43.61289" lon="3.15395">
        <ele>261.9</ele>
        <time>2014-02-20T10:44:54.489Z</time>
      </trkpt>
      <trkpt lat="43.61286" lon="3.15391">
        <ele>261.1</ele>
        <time>2014-02-20T10:44:55.489Z</time>
      </trkpt>
      <trkpt lat="43.6128" lon="3.15383">
        <ele>259.6</ele>
        <time>2014-02-20T10:44:57.489Z</time>
      </trkpt>
      <trkpt lat="43.61278" lon="3.15381">
        <ele>259.4</ele>
        <time>2014-02-20T10:44:58.489Z</time>
      </trkpt>
      <trkpt lat="43.61273" lon="3.15376">
        <ele>258.1</ele>
        <time>2014-02-20T10:45:00.489Z</time>
      </trkpt>
      <trkpt lat="43.61271" lon="3.15372">
        <ele>259</ele>
        <time>2014-02-20T10:45:01.489Z</time>
      </trkpt>
      <trkpt lat="43.61266" lon="3.15363">
        <ele>258.6</ele>
        <time>2014-02-20T10:45:03.496Z</time>
      </trkpt>
      <trkpt lat="43.61262" lon="3.1536">
        <ele>258.3</ele>
        <time>2014-02-20T10:45:04.489Z</time>
      </trkpt>
      <trkpt lat="43.61257" lon="3.15353">
        <ele>258</ele>
        <time>2014-02-20T10:45:06.489Z</time>
      </trkpt>
      <trkpt lat="43.61254" lon="3.15349">
        <ele>258.1</ele>
        <time>2014-02-20T10:45:07.489Z</time>
      </trkpt>
      <trkpt lat="43.61248" lon="3.15345">
        <ele>258</ele>
        <time>2014-02-20T10:45:09.489Z</time>
      </trkpt>
      <trkpt lat="43.61245" lon="3.15343">
        <ele>258.3</ele>
        <time>2014-02-20T10:45:10.489Z</time>
      </trkpt>
      <trkpt lat="43.6124" lon="3.15338">
        <ele>258.1</ele>
        <time>2014-02-20T10:45:12.499Z</time>
      </trkpt>
      <trkpt lat="43.61237" lon="3.15336">
        <ele>257.9</ele>
        <time>2014-02-20T10:45:13.495Z</time>
      </trkpt>
      <trkpt lat="43.61231" lon="3.1533">
        <ele>258.4</ele>
        <time>2014-02-20T10:45:15.885Z</time>
      </trkpt>
      <trkpt lat="43.61229" lon="3.1533">
        <ele>258.3</ele>
        <time>2014-02-20T10:45:16.492Z</time>
      </trkpt>
      <trkpt lat="43.61222" lon="3.15326">
        <ele>258.2</ele>
        <time>2014-02-20T10:45:18.502Z</time>
      </trkpt>
      <trkpt lat="43.61218" lon="3.15323">
        <ele>258.2</ele>
        <time>2014-02-20T10:45:20.362Z</time>
      </trkpt>
      <trkpt lat="43.61211" lon="3.15315">
        <ele>258.2</ele>
        <time>2014-02-20T10:45:22.492Z</time>
      </trkpt>
      <trkpt lat="43.61208" lon="3.15313">
        <ele>257.8</ele>
        <time>2014-02-20T10:45:23.492Z</time>
      </trkpt>
      <trkpt lat="43.61201" lon="3.15307">
        <ele>259.2</ele>
        <time>2014-02-20T10:45:25.493Z</time>
      </trkpt>
      <trkpt lat="43.61198" lon="3.15304">
        <ele>259.1</ele>
        <time>2014-02-20T10:45:26.493Z</time>
      </trkpt>
      <trkpt lat="43.61192" lon="3.15296">
        <ele>259.3</ele>
        <time>2014-02-20T10:45:28.494Z</time>
      </trkpt>
      <trkpt lat="43.61189" lon="3.15292">
        <ele>259.2</ele>
        <time>2014-02-20T10:45:29.493Z</time>
      </trkpt>
      <trkpt lat="43.61182" lon="3.15285">
        <ele>258.7</ele>
        <time>2014-02-20T10:45:31.489Z</time>
      </trkpt>
      <trkpt lat="43.61179" lon="3.15283">
        <ele>258.2</ele>
        <time>2014-02-20T10:45:32.488Z</time>
      </trkpt>
      <trkpt lat="43.61172" lon="3.15279">
        <ele>258.3</ele>
        <time>2014-02-20T10:45:34.489Z</time>
      </trkpt>
      <trkpt lat="43.61169" lon="3.15275">
        <ele>259</ele>
        <time>2014-02-20T10:45:35.562Z</time>
      </trkpt>
      <trkpt lat="43.61162" lon="3.15269">
        <ele>257.9</ele>
        <time>2014-02-20T10:45:37.490Z</time>
      </trkpt>
      <trkpt lat="43.61159" lon="3.15267">
        <ele>257.3</ele>
        <time>2014-02-20T10:45:38.489Z</time>
      </trkpt>
      <trkpt lat="43.61152" lon="3.15263">
        <ele>257.4</ele>
        <time>2014-02-20T10:45:40.486Z</time>
      </trkpt>
      <trkpt lat="43.61148" lon="3.15262">
        <ele>257.5</ele>
        <time>2014-02-20T10:45:41.646Z</time>
      </trkpt>
      <trkpt lat="43.61141" lon="3.15258">
        <ele>258.2</ele>
        <time>2014-02-20T10:45:43.490Z</time>
      </trkpt>
      <trkpt lat="43.61137" lon="3.15256">
        <ele>258.3</ele>
        <time>2014-02-20T10:45:44.490Z</time>
      </trkpt>
      <trkpt lat="43.6113" lon="3.15252">
        <ele>258.2</ele>
        <time>2014-02-20T10:45:46.489Z</time>
      </trkpt>
      <trkpt lat="43.61128" lon="3.15248">
        <ele>256.5</ele>
        <time>2014-02-20T10:45:47.522Z</time>
      </trkpt>
      <trkpt lat="43.61123" lon="3.15243">
        <ele>256.9</ele>
        <time>2014-02-20T10:45:49.489Z</time>
      </trkpt>
      <trkpt lat="43.6112" lon="3.15241">
        <ele>256.9</ele>
        <time>2014-02-20T10:45:50.488Z</time>
      </trkpt>
      <trkpt lat="43.61113" lon="3.15238">
        <ele>257.1</ele>
        <time>2014-02-20T10:45:52.488Z</time>
      </trkpt>
      <trkpt lat="43.6111" lon="3.15236">
        <ele>257.2</ele>
        <time>2014-02-20T10:45:53.488Z</time>
      </trkpt>
      <trkpt lat="43.61105" lon="3.15229">
        <ele>256.9</ele>
        <time>2014-02-20T10:45:57.488Z</time>
      </trkpt>
      <trkpt lat="43.61103" lon="3.15223">
        <ele>253.8</ele>
        <time>2014-02-20T10:45:58.488Z</time>
      </trkpt>
      <trkpt lat="43.61102" lon="3.15217">
        <ele>254.1</ele>
        <time>2014-02-20T10:45:59.500Z</time>
      </trkpt>
      <trkpt lat="43.611" lon="3.15211">
        <ele>253.1</ele>
        <time>2014-02-20T10:46:00.495Z</time>
      </trkpt>
      <trkpt lat="43.61095" lon="3.15201">
        <ele>252.9</ele>
        <time>2014-02-20T10:46:02.494Z</time>
      </trkpt>
      <trkpt lat="43.61092" lon="3.15196">
        <ele>253.6</ele>
        <time>2014-02-20T10:46:03.498Z</time>
      </trkpt>
      <trkpt lat="43.61089" lon="3.15191">
        <ele>253.3</ele>
        <time>2014-02-20T10:46:04.496Z</time>
      </trkpt>
      <trkpt lat="43.61084" lon="3.15186">
        <ele>253.8</ele>
        <time>2014-02-20T10:46:06.663Z</time>
      </trkpt>
      <trkpt lat="43.61077" lon="3.15179">
        <ele>254.7</ele>
        <time>2014-02-20T10:46:08.493Z</time>
      </trkpt>
      <trkpt lat="43.61075" lon="3.15176">
        <ele>254.8</ele>
        <time>2014-02-20T10:46:09.493Z</time>
      </trkpt>
      <trkpt lat="43.61077" lon="3.15163">
        <ele>252.4</ele>
        <time>2014-02-20T10:46:15.493Z</time>
      </trkpt>
      <trkpt lat="43.61077" lon="3.15162">
        <ele>251.5</ele>
        <time>2014-02-20T10:46:16.490Z</time>
      </trkpt>
      <trkpt lat="43.61085" lon="3.15158">
        <ele>243.3</ele>
        <time>2014-02-20T10:46:24.488Z</time>
      </trkpt>
      <trkpt lat="43.61086" lon="3.15158">
        <ele>242.6</ele>
        <time>2014-02-20T10:46:25.488Z</time>
      </trkpt>
      <trkpt lat="43.61087" lon="3.15159">
        <ele>242.4</ele>
        <time>2014-02-20T10:46:28.487Z</time>
      </trkpt>
      <trkpt lat="43.61086" lon="3.15159">
        <ele>242.3</ele>
        <time>2014-02-20T10:46:29.485Z</time>
      </trkpt>
      <trkpt lat="43.61086" lon="3.15158">
        <ele>242.7</ele>
        <time>2014-02-20T10:46:33.716Z</time>
      </trkpt>
      <trkpt lat="43.60921" lon="3.15081">
        <ele>267.2</ele>
        <time>2014-02-20T10:47:18.489Z</time>
      </trkpt>
      <trkpt lat="43.60912" lon="3.15075">
        <ele>263.9</ele>
        <time>2014-02-20T10:47:19.492Z</time>
      </trkpt>
      <trkpt lat="43.60904" lon="3.1507">
        <ele>262.7</ele>
        <time>2014-02-20T10:47:20.495Z</time>
      </trkpt>
      <trkpt lat="43.60897" lon="3.15067">
        <ele>264.8</ele>
        <time>2014-02-20T10:47:21.518Z</time>
      </trkpt>
      <trkpt lat="43.60891" lon="3.15066">
        <ele>264.9</ele>
        <time>2014-02-20T10:47:22.488Z</time>
      </trkpt>
      <trkpt lat="43.60886" lon="3.15064">
        <ele>264.1</ele>
        <time>2014-02-20T10:47:23.487Z</time>
      </trkpt>
      <trkpt lat="43.60881" lon="3.15063">
        <ele>265.7</ele>
        <time>2014-02-20T10:47:24.487Z</time>
      </trkpt>
      <trkpt lat="43.60876" lon="3.1506">
        <ele>267.3</ele>
        <time>2014-02-20T10:47:25.488Z</time>
      </trkpt>
      <trkpt lat="43.60871" lon="3.15056">
        <ele>264.2</ele>
        <time>2014-02-20T10:47:26.487Z</time>
      </trkpt>
      <trkpt lat="43.60866" lon="3.15051">
        <ele>260.7</ele>
        <time>2014-02-20T10:47:27.490Z</time>
      </trkpt>
      <trkpt lat="43.60861" lon="3.15047">
        <ele>259.8</ele>
        <time>2014-02-20T10:47:28.489Z</time>
      </trkpt>
      <trkpt lat="43.60856" lon="3.15044">
        <ele>259.7</ele>
        <time>2014-02-20T10:47:29.484Z</time>
      </trkpt>
      <trkpt lat="43.60851" lon="3.15041">
        <ele>257.6</ele>
        <time>2014-02-20T10:47:30.490Z</time>
      </trkpt>
      <trkpt lat="43.60845" lon="3.15036">
        <ele>256.8</ele>
        <time>2014-02-20T10:47:31.488Z</time>
      </trkpt>
      <trkpt lat="43.6084" lon="3.15032">
        <ele>256.2</ele>
        <time>2014-02-20T10:47:32.486Z</time>
      </trkpt>
      <trkpt lat="43.60835" lon="3.15028">
        <ele>256.4</ele>
        <time>2014-02-20T10:47:33.486Z</time>
      </trkpt>
      <trkpt lat="43.60832" lon="3.15025">
        <ele>252.8</ele>
        <time>2014-02-20T10:47:34.488Z</time>
      </trkpt>
      <trkpt lat="43.60827" lon="3.15022">
        <ele>253.1</ele>
        <time>2014-02-20T10:47:35.487Z</time>
      </trkpt>
      <trkpt lat="43.60822" lon="3.15021">
        <ele>252.3</ele>
        <time>2014-02-20T10:47:36.487Z</time>
      </trkpt>
      <trkpt lat="43.60817" lon="3.15019">
        <ele>252.4</ele>
        <time>2014-02-20T10:47:37.488Z</time>
      </trkpt>
      <trkpt lat="43.60812" lon="3.15017">
        <ele>252.4</ele>
        <time>2014-02-20T10:47:38.486Z</time>
      </trkpt>
      <trkpt lat="43.60806" lon="3.15017">
        <ele>252.8</ele>
        <time>2014-02-20T10:47:39.492Z</time>
      </trkpt>
      <trkpt lat="43.60799" lon="3.15016">
        <ele>254.9</ele>
        <time>2014-02-20T10:47:40.489Z</time>
      </trkpt>
      <trkpt lat="43.60792" lon="3.15015">
        <ele>256</ele>
        <time>2014-02-20T10:47:41.642Z</time>
      </trkpt>
      <trkpt lat="43.60786" lon="3.15015">
        <ele>256</ele>
        <time>2014-02-20T10:47:42.488Z</time>
      </trkpt>
      <trkpt lat="43.6078" lon="3.15014">
        <ele>256.4</ele>
        <time>2014-02-20T10:47:43.496Z</time>
      </trkpt>
      <trkpt lat="43.60775" lon="3.15013">
        <ele>255.7</ele>
        <time>2014-02-20T10:47:44.487Z</time>
      </trkpt>
      <trkpt lat="43.60771" lon="3.1501">
        <ele>255.4</ele>
        <time>2014-02-20T10:47:45.488Z</time>
      </trkpt>
      <trkpt lat="43.60767" lon="3.15007">
        <ele>255.5</ele>
        <time>2014-02-20T10:47:46.488Z</time>
      </trkpt>
      <trkpt lat="43.60762" lon="3.15004">
        <ele>254.5</ele>
        <time>2014-02-20T10:47:47.487Z</time>
      </trkpt>
      <trkpt lat="43.60758" lon="3.15001">
        <ele>254.1</ele>
        <time>2014-02-20T10:47:48.488Z</time>
      </trkpt>
      <trkpt lat="43.60752" lon="3.14998">
        <ele>253.9</ele>
        <time>2014-02-20T10:47:49.488Z</time>
      </trkpt>
      <trkpt lat="43.60747" lon="3.14996">
        <ele>254.4</ele>
        <time>2014-02-20T10:47:50.487Z</time>
      </trkpt>
      <trkpt lat="43.60741" lon="3.14993">
        <ele>253.9</ele>
        <time>2014-02-20T10:47:51.488Z</time>
      </trkpt>
      <trkpt lat="43.60736" lon="3.1499">
        <ele>253.9</ele>
        <time>2014-02-20T10:47:52.489Z</time>
      </trkpt>
      <trkpt lat="43.60731" lon="3.14988">
        <ele>253.7</ele>
        <time>2014-02-20T10:47:53.487Z</time>
      </trkpt>
      <trkpt lat="43.60725" lon="3.14985">
        <ele>253.8</ele>
        <time>2014-02-20T10:47:54.488Z</time>
      </trkpt>
      <trkpt lat="43.6072" lon="3.14983">
        <ele>253.5</ele>
        <time>2014-02-20T10:47:55.488Z</time>
      </trkpt>
      <trkpt lat="43.60715" lon="3.14981">
        <ele>253.1</ele>
        <time>2014-02-20T10:47:56.487Z</time>
      </trkpt>
      <trkpt lat="43.6071" lon="3.14979">
        <ele>251.9</ele>
        <time>2014-02-20T10:47:57.488Z</time>
      </trkpt>
      <trkpt lat="43.60706" lon="3.14977">
        <ele>253</ele>
        <time>2014-02-20T10:47:58.489Z</time>
      </trkpt>
      <trkpt lat="43.60699" lon="3.14973">
        <ele>253</ele>
        <time>2014-02-20T10:48:00.489Z</time>
      </trkpt>
      <trkpt lat="43.60696" lon="3.1497">
        <ele>253.5</ele>
        <time>2014-02-20T10:48:01.489Z</time>
      </trkpt>
      <trkpt lat="43.60692" lon="3.14967">
        <ele>252</ele>
        <time>2014-02-20T10:48:02.489Z</time>
      </trkpt>
      <trkpt lat="43.60687" lon="3.14965">
        <ele>251.6</ele>
        <time>2014-02-20T10:48:03.488Z</time>
      </trkpt>
      <trkpt lat="43.60683" lon="3.14963">
        <ele>252.4</ele>
        <time>2014-02-20T10:48:04.488Z</time>
      </trkpt>
      <trkpt lat="43.60678" lon="3.1496">
        <ele>252.5</ele>
        <time>2014-02-20T10:48:05.487Z</time>
      </trkpt>
      <trkpt lat="43.60673" lon="3.14957">
        <ele>252.9</ele>
        <time>2014-02-20T10:48:06.488Z</time>
      </trkpt>
      <trkpt lat="43.60667" lon="3.14954">
        <ele>253.5</ele>
        <time>2014-02-20T10:48:07.488Z</time>
      </trkpt>
      <trkpt lat="43.60662" lon="3.14951">
        <ele>253</ele>
        <time>2014-02-20T10:48:08.487Z</time>
      </trkpt>
      <trkpt lat="43.60656" lon="3.14947">
        <ele>252.5</ele>
        <time>2014-02-20T10:48:09.488Z</time>
      </trkpt>
      <trkpt lat="43.6065" lon="3.14944">
        <ele>252.6</ele>
        <time>2014-02-20T10:48:10.490Z</time>
      </trkpt>
      <trkpt lat="43.60645" lon="3.14941">
        <ele>252.8</ele>
        <time>2014-02-20T10:48:11.487Z</time>
      </trkpt>
      <trkpt lat="43.60639" lon="3.14938">
        <ele>253.1</ele>
        <time>2014-02-20T10:48:12.488Z</time>
      </trkpt>
      <trkpt lat="43.60634" lon="3.14934">
        <ele>253.1</ele>
        <time>2014-02-20T10:48:13.488Z</time>
      </trkpt>
      <trkpt lat="43.60628" lon="3.14926">
        <ele>252.4</ele>
        <time>2014-02-20T10:48:15.497Z</time>
      </trkpt>
      <trkpt lat="43.60625" lon="3.14921">
        <ele>252.6</ele>
        <time>2014-02-20T10:48:16.489Z</time>
      </trkpt>
      <trkpt lat="43.60619" lon="3.14912">
        <ele>252.4</ele>
        <time>2014-02-20T10:48:18.489Z</time>
      </trkpt>
      <trkpt lat="43.60616" lon="3.14909">
        <ele>252.3</ele>
        <time>2014-02-20T10:48:19.489Z</time>
      </trkpt>
      <trkpt lat="43.60608" lon="3.14906">
        <ele>251.9</ele>
        <time>2014-02-20T10:48:21.488Z</time>
      </trkpt>
      <trkpt lat="43.60604" lon="3.14906">
        <ele>251.9</ele>
        <time>2014-02-20T10:48:22.490Z</time>
      </trkpt>
      <trkpt lat="43.60597" lon="3.14901">
        <ele>249.2</ele>
        <time>2014-02-20T10:48:24.488Z</time>
      </trkpt>
      <trkpt lat="43.60594" lon="3.14898">
        <ele>248.6</ele>
        <time>2014-02-20T10:48:25.488Z</time>
      </trkpt>
      <trkpt lat="43.60588" lon="3.14891">
        <ele>246.9</ele>
        <time>2014-02-20T10:48:27.491Z</time>
      </trkpt>
      <trkpt lat="43.60584" lon="3.14888">
        <ele>246</ele>
        <time>2014-02-20T10:48:28.489Z</time>
      </trkpt>
      <trkpt lat="43.6058" lon="3.14885">
        <ele>246.2</ele>
        <time>2014-02-20T10:48:29.487Z</time>
      </trkpt>
      <trkpt lat="43.60577" lon="3.14882">
        <ele>246.5</ele>
        <time>2014-02-20T10:48:30.488Z</time>
      </trkpt>
      <trkpt lat="43.60572" lon="3.14879">
        <ele>246.1</ele>
        <time>2014-02-20T10:48:31.489Z</time>
      </trkpt>
      <trkpt lat="43.60568" lon="3.14876">
        <ele>245.7</ele>
        <time>2014-02-20T10:48:32.487Z</time>
      </trkpt>
      <trkpt lat="43.60564" lon="3.14873">
        <ele>245.9</ele>
        <time>2014-02-20T10:48:33.488Z</time>
      </trkpt>
      <trkpt lat="43.6056" lon="3.1487">
        <ele>246</ele>
        <time>2014-02-20T10:48:34.493Z</time>
      </trkpt>
      <trkpt lat="43.60555" lon="3.14866">
        <ele>245.9</ele>
        <time>2014-02-20T10:48:35.503Z</time>
      </trkpt>
      <trkpt lat="43.6055" lon="3.14862">
        <ele>245.6</ele>
        <time>2014-02-20T10:48:36.495Z</time>
      </trkpt>
      <trkpt lat="43.60545" lon="3.14857">
        <ele>245.3</ele>
        <time>2014-02-20T10:48:37.512Z</time>
      </trkpt>
      <trkpt lat="43.6054" lon="3.14853">
        <ele>245.5</ele>
        <time>2014-02-20T10:48:38.497Z</time>
      </trkpt>
      <trkpt lat="43.60535" lon="3.1485">
        <ele>245.6</ele>
        <time>2014-02-20T10:48:39.498Z</time>
      </trkpt>
      <trkpt lat="43.60532" lon="3.14846">
        <ele>245.6</ele>
        <time>2014-02-20T10:48:40.500Z</time>
      </trkpt>
      <trkpt lat="43.60527" lon="3.14842">
        <ele>245.8</ele>
        <time>2014-02-20T10:48:41.497Z</time>
      </trkpt>
      <trkpt lat="43.60523" lon="3.14838">
        <ele>245.5</ele>
        <time>2014-02-20T10:48:42.497Z</time>
      </trkpt>
      <trkpt lat="43.60519" lon="3.14833">
        <ele>245.7</ele>
        <time>2014-02-20T10:48:43.496Z</time>
      </trkpt>
      <trkpt lat="43.60514" lon="3.14828">
        <ele>246</ele>
        <time>2014-02-20T10:48:44.496Z</time>
      </trkpt>
      <trkpt lat="43.60508" lon="3.14822">
        <ele>246.2</ele>
        <time>2014-02-20T10:48:46.175Z</time>
      </trkpt>
      <trkpt lat="43.60505" lon="3.1482">
        <ele>246.3</ele>
        <time>2014-02-20T10:48:46.557Z</time>
      </trkpt>
      <trkpt lat="43.605" lon="3.14815">
        <ele>246.3</ele>
        <time>2014-02-20T10:48:47.493Z</time>
      </trkpt>
      <trkpt lat="43.60494" lon="3.1481">
        <ele>245.8</ele>
        <time>2014-02-20T10:48:48.497Z</time>
      </trkpt>
      <trkpt lat="43.60489" lon="3.14805">
        <ele>246.1</ele>
        <time>2014-02-20T10:48:49.496Z</time>
      </trkpt>
      <trkpt lat="43.60485" lon="3.148">
        <ele>246.4</ele>
        <time>2014-02-20T10:48:50.495Z</time>
      </trkpt>
      <trkpt lat="43.60479" lon="3.14794">
        <ele>246.4</ele>
        <time>2014-02-20T10:48:51.498Z</time>
      </trkpt>
      <trkpt lat="43.60474" lon="3.1479">
        <ele>246.3</ele>
        <time>2014-02-20T10:48:52.498Z</time>
      </trkpt>
      <trkpt lat="43.60469" lon="3.14786">
        <ele>246.6</ele>
        <time>2014-02-20T10:48:53.527Z</time>
      </trkpt>
      <trkpt lat="43.60463" lon="3.14782">
        <ele>246.5</ele>
        <time>2014-02-20T10:48:54.493Z</time>
      </trkpt>
      <trkpt lat="43.60459" lon="3.14777">
        <ele>246.6</ele>
        <time>2014-02-20T10:48:55.493Z</time>
      </trkpt>
      <trkpt lat="43.60454" lon="3.14772">
        <ele>246.5</ele>
        <time>2014-02-20T10:48:56.494Z</time>
      </trkpt>
      <trkpt lat="43.6045" lon="3.14767">
        <ele>246.5</ele>
        <time>2014-02-20T10:48:57.496Z</time>
      </trkpt>
      <trkpt lat="43.60446" lon="3.14762">
        <ele>246.6</ele>
        <time>2014-02-20T10:48:58.495Z</time>
      </trkpt>
      <trkpt lat="43.60441" lon="3.14757">
        <ele>246.5</ele>
        <time>2014-02-20T10:48:59.493Z</time>
      </trkpt>
      <trkpt lat="43.60435" lon="3.14753">
        <ele>246.5</ele>
        <time>2014-02-20T10:49:00.497Z</time>
      </trkpt>
      <trkpt lat="43.60428" lon="3.1475">
        <ele>246.6</ele>
        <time>2014-02-20T10:49:01.494Z</time>
      </trkpt>
      <trkpt lat="43.60421" lon="3.14746">
        <ele>246.5</ele>
        <time>2014-02-20T10:49:02.493Z</time>
      </trkpt>
      <trkpt lat="43.60414" lon="3.14741">
        <ele>246.6</ele>
        <time>2014-02-20T10:49:03.492Z</time>
      </trkpt>
      <trkpt lat="43.60407" lon="3.14736">
        <ele>246.7</ele>
        <time>2014-02-20T10:49:04.488Z</time>
      </trkpt>
      <trkpt lat="43.60399" lon="3.14732">
        <ele>246.8</ele>
        <time>2014-02-20T10:49:05.487Z</time>
      </trkpt>
      <trkpt lat="43.60391" lon="3.14727">
        <ele>246.8</ele>
        <time>2014-02-20T10:49:06.488Z</time>
      </trkpt>
      <trkpt lat="43.60385" lon="3.14723">
        <ele>247.2</ele>
        <time>2014-02-20T10:49:07.489Z</time>
      </trkpt>
      <trkpt lat="43.60376" lon="3.14717">
        <ele>247.2</ele>
        <time>2014-02-20T10:49:09.031Z</time>
      </trkpt>
      <trkpt lat="43.60373" lon="3.14715">
        <ele>247.4</ele>
        <time>2014-02-20T10:49:09.492Z</time>
      </trkpt>
      <trkpt lat="43.60367" lon="3.14709">
        <ele>246.7</ele>
        <time>2014-02-20T10:49:10.492Z</time>
      </trkpt>
      <trkpt lat="43.60361" lon="3.14703">
        <ele>246.7</ele>
        <time>2014-02-20T10:49:11.495Z</time>
      </trkpt>
      <trkpt lat="43.60355" lon="3.14698">
        <ele>246.7</ele>
        <time>2014-02-20T10:49:12.495Z</time>
      </trkpt>
      <trkpt lat="43.60347" lon="3.14692">
        <ele>246.9</ele>
        <time>2014-02-20T10:49:13.708Z</time>
      </trkpt>
      <trkpt lat="43.60342" lon="3.14689">
        <ele>246.6</ele>
        <time>2014-02-20T10:49:14.495Z</time>
      </trkpt>
      <trkpt lat="43.60336" lon="3.14685">
        <ele>246.3</ele>
        <time>2014-02-20T10:49:15.495Z</time>
      </trkpt>
      <trkpt lat="43.60328" lon="3.14681">
        <ele>246.4</ele>
        <time>2014-02-20T10:49:17.481Z</time>
      </trkpt>
      <trkpt lat="43.60321" lon="3.14675">
        <ele>246.4</ele>
        <time>2014-02-20T10:49:18.533Z</time>
      </trkpt>
      <trkpt lat="43.60316" lon="3.14671">
        <ele>246.4</ele>
        <time>2014-02-20T10:49:19.496Z</time>
      </trkpt>
      <trkpt lat="43.6031" lon="3.14668">
        <ele>246.1</ele>
        <time>2014-02-20T10:49:20.496Z</time>
      </trkpt>
      <trkpt lat="43.60305" lon="3.14664">
        <ele>246</ele>
        <time>2014-02-20T10:49:21.496Z</time>
      </trkpt>
      <trkpt lat="43.603" lon="3.1466">
        <ele>247</ele>
        <time>2014-02-20T10:49:22.498Z</time>
      </trkpt>
      <trkpt lat="43.60295" lon="3.14655">
        <ele>246.9</ele>
        <time>2014-02-20T10:49:23.496Z</time>
      </trkpt>
      <trkpt lat="43.6029" lon="3.1465">
        <ele>247.1</ele>
        <time>2014-02-20T10:49:24.496Z</time>
      </trkpt>
      <trkpt lat="43.60286" lon="3.14646">
        <ele>247</ele>
        <time>2014-02-20T10:49:25.498Z</time>
      </trkpt>
      <trkpt lat="43.60282" lon="3.14642">
        <ele>246.9</ele>
        <time>2014-02-20T10:49:26.496Z</time>
      </trkpt>
      <trkpt lat="43.60277" lon="3.14636">
        <ele>246.9</ele>
        <time>2014-02-20T10:49:27.496Z</time>
      </trkpt>
      <trkpt lat="43.60271" lon="3.14631">
        <ele>246.1</ele>
        <time>2014-02-20T10:49:28.494Z</time>
      </trkpt>
      <trkpt lat="43.60264" lon="3.14625">
        <ele>245.7</ele>
        <time>2014-02-20T10:49:29.487Z</time>
      </trkpt>
      <trkpt lat="43.60257" lon="3.14619">
        <ele>245.4</ele>
        <time>2014-02-20T10:49:30.487Z</time>
      </trkpt>
      <trkpt lat="43.6025" lon="3.14614">
        <ele>245.7</ele>
        <time>2014-02-20T10:49:31.488Z</time>
      </trkpt>
      <trkpt lat="43.60244" lon="3.1461">
        <ele>245.8</ele>
        <time>2014-02-20T10:49:32.487Z</time>
      </trkpt>
      <trkpt lat="43.60237" lon="3.14605">
        <ele>245.3</ele>
        <time>2014-02-20T10:49:33.487Z</time>
      </trkpt>
      <trkpt lat="43.60231" lon="3.146">
        <ele>244.8</ele>
        <time>2014-02-20T10:49:34.588Z</time>
      </trkpt>
      <trkpt lat="43.60226" lon="3.14597">
        <ele>244.9</ele>
        <time>2014-02-20T10:49:35.486Z</time>
      </trkpt>
      <trkpt lat="43.60221" lon="3.14592">
        <ele>245.5</ele>
        <time>2014-02-20T10:49:36.487Z</time>
      </trkpt>
      <trkpt lat="43.60215" lon="3.14588">
        <ele>245.3</ele>
        <time>2014-02-20T10:49:37.487Z</time>
      </trkpt>
      <trkpt lat="43.6021" lon="3.14583">
        <ele>245.8</ele>
        <time>2014-02-20T10:49:38.487Z</time>
      </trkpt>
      <trkpt lat="43.60204" lon="3.14579">
        <ele>246</ele>
        <time>2014-02-20T10:49:39.488Z</time>
      </trkpt>
      <trkpt lat="43.60199" lon="3.14574">
        <ele>246</ele>
        <time>2014-02-20T10:49:40.489Z</time>
      </trkpt>
      <trkpt lat="43.60193" lon="3.14569">
        <ele>245.8</ele>
        <time>2014-02-20T10:49:41.487Z</time>
      </trkpt>
      <trkpt lat="43.60187" lon="3.14565">
        <ele>246.3</ele>
        <time>2014-02-20T10:49:42.488Z</time>
      </trkpt>
      <trkpt lat="43.6018" lon="3.14561">
        <ele>246.6</ele>
        <time>2014-02-20T10:49:43.490Z</time>
      </trkpt>
      <trkpt lat="43.60174" lon="3.14556">
        <ele>246.7</ele>
        <time>2014-02-20T10:49:44.488Z</time>
      </trkpt>
      <trkpt lat="43.60169" lon="3.1455">
        <ele>247.1</ele>
        <time>2014-02-20T10:49:45.489Z</time>
      </trkpt>
      <trkpt lat="43.60163" lon="3.14545">
        <ele>247.8</ele>
        <time>2014-02-20T10:49:46.494Z</time>
      </trkpt>
      <trkpt lat="43.60159" lon="3.14539">
        <ele>247.6</ele>
        <time>2014-02-20T10:49:47.493Z</time>
      </trkpt>
      <trkpt lat="43.60155" lon="3.14533">
        <ele>247.3</ele>
        <time>2014-02-20T10:49:48.497Z</time>
      </trkpt>
      <trkpt lat="43.60151" lon="3.14525">
        <ele>247.2</ele>
        <time>2014-02-20T10:49:50.122Z</time>
      </trkpt>
      <trkpt lat="43.60149" lon="3.14522">
        <ele>247.2</ele>
        <time>2014-02-20T10:49:50.499Z</time>
      </trkpt>
      <trkpt lat="43.60143" lon="3.14516">
        <ele>247.3</ele>
        <time>2014-02-20T10:49:51.500Z</time>
      </trkpt>
      <trkpt lat="43.60137" lon="3.14511">
        <ele>247.2</ele>
        <time>2014-02-20T10:49:52.500Z</time>
      </trkpt>
      <trkpt lat="43.6013" lon="3.14503">
        <ele>247.2</ele>
        <time>2014-02-20T10:49:54.649Z</time>
      </trkpt>
      <trkpt lat="43.60126" lon="3.14496">
        <ele>247.2</ele>
        <time>2014-02-20T10:49:55.490Z</time>
      </trkpt>
      <trkpt lat="43.60121" lon="3.14488">
        <ele>247.3</ele>
        <time>2014-02-20T10:49:56.493Z</time>
      </trkpt>
      <trkpt lat="43.60115" lon="3.1448">
        <ele>247.3</ele>
        <time>2014-02-20T10:49:57.497Z</time>
      </trkpt>
      <trkpt lat="43.60111" lon="3.14474">
        <ele>247.2</ele>
        <time>2014-02-20T10:49:58.493Z</time>
      </trkpt>
      <trkpt lat="43.60108" lon="3.14468">
        <ele>247.3</ele>
        <time>2014-02-20T10:49:59.493Z</time>
      </trkpt>
      <trkpt lat="43.60104" lon="3.14461">
        <ele>247.4</ele>
        <time>2014-02-20T10:50:00.496Z</time>
      </trkpt>
      <trkpt lat="43.60101" lon="3.14455">
        <ele>247.7</ele>
        <time>2014-02-20T10:50:01.493Z</time>
      </trkpt>
      <trkpt lat="43.60096" lon="3.14448">
        <ele>247.9</ele>
        <time>2014-02-20T10:50:02.492Z</time>
      </trkpt>
      <trkpt lat="43.60092" lon="3.14443">
        <ele>248.1</ele>
        <time>2014-02-20T10:50:03.494Z</time>
      </trkpt>
      <trkpt lat="43.60089" lon="3.14438">
        <ele>247.7</ele>
        <time>2014-02-20T10:50:04.491Z</time>
      </trkpt>
      <trkpt lat="43.60085" lon="3.14433">
        <ele>247.3</ele>
        <time>2014-02-20T10:50:05.489Z</time>
      </trkpt>
      <trkpt lat="43.6008" lon="3.14425">
        <ele>245.9</ele>
        <time>2014-02-20T10:50:06.490Z</time>
      </trkpt>
      <trkpt lat="43.60076" lon="3.14417">
        <ele>246.5</ele>
        <time>2014-02-20T10:50:07.490Z</time>
      </trkpt>
      <trkpt lat="43.6007" lon="3.14409">
        <ele>246.9</ele>
        <time>2014-02-20T10:50:08.487Z</time>
      </trkpt>
      <trkpt lat="43.60065" lon="3.14401">
        <ele>246.5</ele>
        <time>2014-02-20T10:50:09.504Z</time>
      </trkpt>
      <trkpt lat="43.60061" lon="3.14393">
        <ele>246.2</ele>
        <time>2014-02-20T10:50:10.663Z</time>
      </trkpt>
      <trkpt lat="43.60058" lon="3.14387">
        <ele>246.4</ele>
        <time>2014-02-20T10:50:11.487Z</time>
      </trkpt>
      <trkpt lat="43.60054" lon="3.1438">
        <ele>246.5</ele>
        <time>2014-02-20T10:50:12.490Z</time>
      </trkpt>
      <trkpt lat="43.6005" lon="3.14374">
        <ele>246.5</ele>
        <time>2014-02-20T10:50:13.490Z</time>
      </trkpt>
      <trkpt lat="43.60045" lon="3.14367">
        <ele>246.5</ele>
        <time>2014-02-20T10:50:14.490Z</time>
      </trkpt>
      <trkpt lat="43.6004" lon="3.1436">
        <ele>246.2</ele>
        <time>2014-02-20T10:50:15.492Z</time>
      </trkpt>
      <trkpt lat="43.60034" lon="3.14354">
        <ele>246.7</ele>
        <time>2014-02-20T10:50:16.492Z</time>
      </trkpt>
      <trkpt lat="43.60029" lon="3.14347">
        <ele>247</ele>
        <time>2014-02-20T10:50:17.489Z</time>
      </trkpt>
      <trkpt lat="43.60026" lon="3.1434">
        <ele>247.5</ele>
        <time>2014-02-20T10:50:18.490Z</time>
      </trkpt>
      <trkpt lat="43.60022" lon="3.14332">
        <ele>247.7</ele>
        <time>2014-02-20T10:50:19.488Z</time>
      </trkpt>
      <trkpt lat="43.60019" lon="3.14325">
        <ele>247.4</ele>
        <time>2014-02-20T10:50:20.489Z</time>
      </trkpt>
      <trkpt lat="43.60015" lon="3.14318">
        <ele>247.3</ele>
        <time>2014-02-20T10:50:21.491Z</time>
      </trkpt>
      <trkpt lat="43.60012" lon="3.14311">
        <ele>247.4</ele>
        <time>2014-02-20T10:50:22.490Z</time>
      </trkpt>
      <trkpt lat="43.60009" lon="3.14303">
        <ele>247.3</ele>
        <time>2014-02-20T10:50:23.499Z</time>
      </trkpt>
      <trkpt lat="43.60006" lon="3.14296">
        <ele>247.1</ele>
        <time>2014-02-20T10:50:24.497Z</time>
      </trkpt>
      <trkpt lat="43.60003" lon="3.14288">
        <ele>247.2</ele>
        <time>2014-02-20T10:50:25.492Z</time>
      </trkpt>
      <trkpt lat="43.6" lon="3.14282">
        <ele>247.4</ele>
        <time>2014-02-20T10:50:26.490Z</time>
      </trkpt>
      <trkpt lat="43.59997" lon="3.14275">
        <ele>247.5</ele>
        <time>2014-02-20T10:50:27.490Z</time>
      </trkpt>
      <trkpt lat="43.59992" lon="3.14269">
        <ele>247.6</ele>
        <time>2014-02-20T10:50:28.490Z</time>
      </trkpt>
      <trkpt lat="43.59988" lon="3.14263">
        <ele>247.2</ele>
        <time>2014-02-20T10:50:29.487Z</time>
      </trkpt>
      <trkpt lat="43.59984" lon="3.14256">
        <ele>247.8</ele>
        <time>2014-02-20T10:50:30.489Z</time>
      </trkpt>
      <trkpt lat="43.5998" lon="3.14249">
        <ele>247.7</ele>
        <time>2014-02-20T10:50:31.491Z</time>
      </trkpt>
      <trkpt lat="43.59976" lon="3.14243">
        <ele>248.1</ele>
        <time>2014-02-20T10:50:32.487Z</time>
      </trkpt>
      <trkpt lat="43.59971" lon="3.14236">
        <ele>248.2</ele>
        <time>2014-02-20T10:50:33.488Z</time>
      </trkpt>
      <trkpt lat="43.59967" lon="3.14228">
        <ele>249</ele>
        <time>2014-02-20T10:50:34.488Z</time>
      </trkpt>
      <trkpt lat="43.59963" lon="3.1422">
        <ele>248.8</ele>
        <time>2014-02-20T10:50:35.487Z</time>
      </trkpt>
      <trkpt lat="43.59958" lon="3.14213">
        <ele>248.6</ele>
        <time>2014-02-20T10:50:36.488Z</time>
      </trkpt>
      <trkpt lat="43.59955" lon="3.14205">
        <ele>247.9</ele>
        <time>2014-02-20T10:50:37.487Z</time>
      </trkpt>
      <trkpt lat="43.59952" lon="3.14197">
        <ele>247.7</ele>
        <time>2014-02-20T10:50:38.487Z</time>
      </trkpt>
      <trkpt lat="43.59948" lon="3.1419">
        <ele>247.4</ele>
        <time>2014-02-20T10:50:39.489Z</time>
      </trkpt>
      <trkpt lat="43.59944" lon="3.14184">
        <ele>247.3</ele>
        <time>2014-02-20T10:50:40.487Z</time>
      </trkpt>
      <trkpt lat="43.59941" lon="3.14178">
        <ele>247</ele>
        <time>2014-02-20T10:50:41.487Z</time>
      </trkpt>
      <trkpt lat="43.59937" lon="3.14172">
        <ele>246.9</ele>
        <time>2014-02-20T10:50:42.488Z</time>
      </trkpt>
      <trkpt lat="43.59934" lon="3.14166">
        <ele>247.3</ele>
        <time>2014-02-20T10:50:43.488Z</time>
      </trkpt>
      <trkpt lat="43.5993" lon="3.14159">
        <ele>247.9</ele>
        <time>2014-02-20T10:50:44.489Z</time>
      </trkpt>
      <trkpt lat="43.59927" lon="3.14151">
        <ele>247.5</ele>
        <time>2014-02-20T10:50:45.489Z</time>
      </trkpt>
      <trkpt lat="43.59922" lon="3.14143">
        <ele>246.5</ele>
        <time>2014-02-20T10:50:46.488Z</time>
      </trkpt>
      <trkpt lat="43.59918" lon="3.14134">
        <ele>246.2</ele>
        <time>2014-02-20T10:50:47.487Z</time>
      </trkpt>
      <trkpt lat="43.59913" lon="3.14126">
        <ele>246.1</ele>
        <time>2014-02-20T10:50:48.488Z</time>
      </trkpt>
      <trkpt lat="43.59908" lon="3.14118">
        <ele>245.8</ele>
        <time>2014-02-20T10:50:49.487Z</time>
      </trkpt>
      <trkpt lat="43.59904" lon="3.1411">
        <ele>245.6</ele>
        <time>2014-02-20T10:50:50.487Z</time>
      </trkpt>
      <trkpt lat="43.599" lon="3.14101">
        <ele>244.6</ele>
        <time>2014-02-20T10:50:51.487Z</time>
      </trkpt>
      <trkpt lat="43.59897" lon="3.14094">
        <ele>244.8</ele>
        <time>2014-02-20T10:50:52.490Z</time>
      </trkpt>
      <trkpt lat="43.59893" lon="3.14087">
        <ele>245.1</ele>
        <time>2014-02-20T10:50:53.487Z</time>
      </trkpt>
      <trkpt lat="43.5989" lon="3.14079">
        <ele>245.1</ele>
        <time>2014-02-20T10:50:54.488Z</time>
      </trkpt>
      <trkpt lat="43.59886" lon="3.14071">
        <ele>245</ele>
        <time>2014-02-20T10:50:55.496Z</time>
      </trkpt>
      <trkpt lat="43.59882" lon="3.14063">
        <ele>245.2</ele>
        <time>2014-02-20T10:50:56.487Z</time>
      </trkpt>
      <trkpt lat="43.59878" lon="3.14056">
        <ele>245.4</ele>
        <time>2014-02-20T10:50:57.488Z</time>
      </trkpt>
      <trkpt lat="43.59875" lon="3.14047">
        <ele>244.9</ele>
        <time>2014-02-20T10:50:58.489Z</time>
      </trkpt>
      <trkpt lat="43.59873" lon="3.14039">
        <ele>244.9</ele>
        <time>2014-02-20T10:50:59.487Z</time>
      </trkpt>
      <trkpt lat="43.59869" lon="3.14031">
        <ele>245</ele>
        <time>2014-02-20T10:51:00.488Z</time>
      </trkpt>
      <trkpt lat="43.59866" lon="3.14023">
        <ele>245.7</ele>
        <time>2014-02-20T10:51:01.490Z</time>
      </trkpt>
      <trkpt lat="43.59862" lon="3.14016">
        <ele>246</ele>
        <time>2014-02-20T10:51:02.487Z</time>
      </trkpt>
      <trkpt lat="43.59859" lon="3.14009">
        <ele>245.9</ele>
        <time>2014-02-20T10:51:03.488Z</time>
      </trkpt>
      <trkpt lat="43.59856" lon="3.14003">
        <ele>245.7</ele>
        <time>2014-02-20T10:51:04.486Z</time>
      </trkpt>
      <trkpt lat="43.59853" lon="3.13997">
        <ele>246.2</ele>
        <time>2014-02-20T10:51:05.487Z</time>
      </trkpt>
      <trkpt lat="43.5985" lon="3.13992">
        <ele>246.3</ele>
        <time>2014-02-20T10:51:06.487Z</time>
      </trkpt>
      <trkpt lat="43.59846" lon="3.13988">
        <ele>246.4</ele>
        <time>2014-02-20T10:51:07.486Z</time>
      </trkpt>
      <trkpt lat="43.59843" lon="3.13983">
        <ele>246.5</ele>
        <time>2014-02-20T10:51:08.487Z</time>
      </trkpt>
      <trkpt lat="43.59839" lon="3.13979">
        <ele>246.3</ele>
        <time>2014-02-20T10:51:09.487Z</time>
      </trkpt>
      <trkpt lat="43.59836" lon="3.13974">
        <ele>245.8</ele>
        <time>2014-02-20T10:51:10.487Z</time>
      </trkpt>
      <trkpt lat="43.59834" lon="3.13968">
        <ele>245.9</ele>
        <time>2014-02-20T10:51:11.486Z</time>
      </trkpt>
      <trkpt lat="43.59833" lon="3.13961">
        <ele>245.4</ele>
        <time>2014-02-20T10:51:12.488Z</time>
      </trkpt>
      <trkpt lat="43.59832" lon="3.13954">
        <ele>245.3</ele>
        <time>2014-02-20T10:51:13.488Z</time>
      </trkpt>
      <trkpt lat="43.5983" lon="3.13948">
        <ele>245.2</ele>
        <time>2014-02-20T10:51:14.487Z</time>
      </trkpt>
      <trkpt lat="43.59827" lon="3.13942">
        <ele>245.8</ele>
        <time>2014-02-20T10:51:15.488Z</time>
      </trkpt>
      <trkpt lat="43.59824" lon="3.13936">
        <ele>245.8</ele>
        <time>2014-02-20T10:51:16.488Z</time>
      </trkpt>
      <trkpt lat="43.59824" lon="3.1393">
        <ele>242.8</ele>
        <time>2014-02-20T10:51:17.487Z</time>
      </trkpt>
      <trkpt lat="43.59823" lon="3.13924">
        <ele>241.9</ele>
        <time>2014-02-20T10:51:18.488Z</time>
      </trkpt>
      <trkpt lat="43.59819" lon="3.13915">
        <ele>240</ele>
        <time>2014-02-20T10:51:20.488Z</time>
      </trkpt>
      <trkpt lat="43.59816" lon="3.13909">
        <ele>241.9</ele>
        <time>2014-02-20T10:51:21.490Z</time>
      </trkpt>
      <trkpt lat="43.59813" lon="3.13904">
        <ele>241.6</ele>
        <time>2014-02-20T10:51:22.488Z</time>
      </trkpt>
      <trkpt lat="43.59811" lon="3.13898">
        <ele>241.1</ele>
        <time>2014-02-20T10:51:23.490Z</time>
      </trkpt>
      <trkpt lat="43.59806" lon="3.13888">
        <ele>240</ele>
        <time>2014-02-20T10:51:25.490Z</time>
      </trkpt>
      <trkpt lat="43.59805" lon="3.13884">
        <ele>239.9</ele>
        <time>2014-02-20T10:51:26.487Z</time>
      </trkpt>
      <trkpt lat="43.59801" lon="3.13875">
        <ele>239.6</ele>
        <time>2014-02-20T10:51:28.491Z</time>
      </trkpt>
      <trkpt lat="43.59799" lon="3.13872">
        <ele>239.8</ele>
        <time>2014-02-20T10:51:29.487Z</time>
      </trkpt>
      <trkpt lat="43.59795" lon="3.13862">
        <ele>239.7</ele>
        <time>2014-02-20T10:51:31.488Z</time>
      </trkpt>
      <trkpt lat="43.59794" lon="3.13856">
        <ele>240</ele>
        <time>2014-02-20T10:51:32.489Z</time>
      </trkpt>
      <trkpt lat="43.59792" lon="3.13849">
        <ele>239.6</ele>
        <time>2014-02-20T10:51:37.919Z</time>
      </trkpt>
      <trkpt lat="43.59736" lon="3.1365">
        <ele>248.4</ele>
        <time>2014-02-20T10:52:09.494Z</time>
      </trkpt>
      <trkpt lat="43.5973" lon="3.13643">
        <ele>249.2</ele>
        <time>2014-02-20T10:52:12.121Z</time>
      </trkpt>
      <trkpt lat="43.59729" lon="3.13636">
        <ele>244.5</ele>
        <time>2014-02-20T10:52:14.283Z</time>
      </trkpt>
      <trkpt lat="43.59726" lon="3.13625">
        <ele>244.1</ele>
        <time>2014-02-20T10:52:18.677Z</time>
      </trkpt>
      <trkpt lat="43.59724" lon="3.13611">
        <ele>240.3</ele>
        <time>2014-02-20T10:52:20.129Z</time>
      </trkpt>
      <trkpt lat="43.5972" lon="3.13595">
        <ele>244.9</ele>
        <time>2014-02-20T10:52:21.565Z</time>
      </trkpt>
      <trkpt lat="43.59718" lon="3.13586">
        <ele>244.5</ele>
        <time>2014-02-20T10:52:22.782Z</time>
      </trkpt>
      <trkpt lat="43.59717" lon="3.1358">
        <ele>244.1</ele>
        <time>2014-02-20T10:52:23.955Z</time>
      </trkpt>
      <trkpt lat="43.59713" lon="3.13572">
        <ele>241.6</ele>
        <time>2014-02-20T10:52:26.440Z</time>
      </trkpt>
      <trkpt lat="43.59712" lon="3.13568">
        <ele>241.7</ele>
        <time>2014-02-20T10:52:27.593Z</time>
      </trkpt>
      <trkpt lat="43.5971" lon="3.13558">
        <ele>242</ele>
        <time>2014-02-20T10:52:30.088Z</time>
      </trkpt>
      <trkpt lat="43.59708" lon="3.1355">
        <ele>242.8</ele>
        <time>2014-02-20T10:52:31.925Z</time>
      </trkpt>
      <trkpt lat="43.59706" lon="3.13545">
        <ele>242.2</ele>
        <time>2014-02-20T10:52:33.566Z</time>
      </trkpt>
      <trkpt lat="43.59704" lon="3.13536">
        <ele>243.2</ele>
        <time>2014-02-20T10:52:35.337Z</time>
      </trkpt>
      <trkpt lat="43.59702" lon="3.1353">
        <ele>244.6</ele>
        <time>2014-02-20T10:52:36.965Z</time>
      </trkpt>
      <trkpt lat="43.59699" lon="3.13523">
        <ele>245</ele>
        <time>2014-02-20T10:52:38.497Z</time>
      </trkpt>
      <trkpt lat="43.59697" lon="3.13515">
        <ele>245.1</ele>
        <time>2014-02-20T10:52:39.726Z</time>
      </trkpt>
      <trkpt lat="43.59696" lon="3.13508">
        <ele>245.4</ele>
        <time>2014-02-20T10:52:41.603Z</time>
      </trkpt>
      <trkpt lat="43.59698" lon="3.13502">
        <ele>245</ele>
        <time>2014-02-20T10:52:45.557Z</time>
      </trkpt>
      <trkpt lat="43.59698" lon="3.13503">
        <ele>244.9</ele>
        <time>2014-02-20T10:52:46.726Z</time>
      </trkpt>
      <trkpt lat="43.59698" lon="3.13503">
        <ele>244.5</ele>
        <time>2014-02-20T10:52:47.838Z</time>
      </trkpt>
      <trkpt lat="43.59698" lon="3.13504">
        <ele>244.6</ele>
        <time>2014-02-20T10:52:49.009Z</time>
      </trkpt>
      <trkpt lat="43.59698" lon="3.13503">
        <ele>245</ele>
        <time>2014-02-20T10:52:50.179Z</time>
      </trkpt>
      <trkpt lat="43.59699" lon="3.13502">
        <ele>244.9</ele>
        <time>2014-02-20T10:52:53.271Z</time>
      </trkpt>
      <trkpt lat="43.59695" lon="3.13493">
        <ele>245.3</ele>
        <time>2014-02-20T10:52:54.506Z</time>
      </trkpt>
      <trkpt lat="43.59693" lon="3.13483">
        <ele>245.2</ele>
        <time>2014-02-20T10:52:56.165Z</time>
      </trkpt>
      <trkpt lat="43.59691" lon="3.1347">
        <ele>244.8</ele>
        <time>2014-02-20T10:52:57.779Z</time>
      </trkpt>
      <trkpt lat="43.59688" lon="3.13457">
        <ele>244.7</ele>
        <time>2014-02-20T10:52:59.504Z</time>
      </trkpt>
      <trkpt lat="43.59686" lon="3.13443">
        <ele>245</ele>
        <time>2014-02-20T10:53:01.175Z</time>
      </trkpt>
      <trkpt lat="43.59684" lon="3.13435">
        <ele>245</ele>
        <time>2014-02-20T10:53:04.115Z</time>
      </trkpt>
      <trkpt lat="43.59683" lon="3.13429">
        <ele>243.9</ele>
        <time>2014-02-20T10:53:04.255Z</time>
      </trkpt>
      <trkpt lat="43.59682" lon="3.13424">
        <ele>244.4</ele>
        <time>2014-02-20T10:53:04.537Z</time>
      </trkpt>
      <trkpt lat="43.5968" lon="3.13413">
        <ele>243.6</ele>
        <time>2014-02-20T10:53:05.538Z</time>
      </trkpt>
      <trkpt lat="43.59678" lon="3.13405">
        <ele>243</ele>
        <time>2014-02-20T10:53:06.591Z</time>
      </trkpt>
      <trkpt lat="43.59678" lon="3.134">
        <ele>242.9</ele>
        <time>2014-02-20T10:53:07.512Z</time>
      </trkpt>
      <trkpt lat="43.59679" lon="3.1339">
        <ele>242.9</ele>
        <time>2014-02-20T10:53:13.879Z</time>
      </trkpt>
      <trkpt lat="43.59685" lon="3.13388">
        <ele>243.2</ele>
        <time>2014-02-20T10:53:15.465Z</time>
      </trkpt>
      <trkpt lat="43.59694" lon="3.13385">
        <ele>243.6</ele>
        <time>2014-02-20T10:53:17.508Z</time>
      </trkpt>
      <trkpt lat="43.59696" lon="3.13383">
        <ele>243.6</ele>
        <time>2014-02-20T10:53:18.501Z</time>
      </trkpt>
      <trkpt lat="43.59704" lon="3.13381">
        <ele>243.5</ele>
        <time>2014-02-20T10:53:21.502Z</time>
      </trkpt>
      <trkpt lat="43.59707" lon="3.1338">
        <ele>243.2</ele>
        <time>2014-02-20T10:53:22.501Z</time>
      </trkpt>
      <trkpt lat="43.59713" lon="3.13375">
        <ele>241.8</ele>
        <time>2014-02-20T10:53:25.498Z</time>
      </trkpt>
      <trkpt lat="43.59714" lon="3.13373">
        <ele>240.7</ele>
        <time>2014-02-20T10:53:26.505Z</time>
      </trkpt>
      <trkpt lat="43.59715" lon="3.13371">
        <ele>240.5</ele>
        <time>2014-02-20T10:53:33.574Z</time>
      </trkpt>
      <trkpt lat="43.59715" lon="3.13371">
        <ele>241.1</ele>
        <time>2014-02-20T10:53:34.497Z</time>
      </trkpt>
      <trkpt lat="43.59715" lon="3.13371">
        <ele>241.3</ele>
        <time>2014-02-20T10:53:35.497Z</time>
      </trkpt>
      <trkpt lat="43.59718" lon="3.13372">
        <ele>242.8</ele>
        <time>2014-02-20T10:53:36.500Z</time>
      </trkpt>
      <trkpt lat="43.59724" lon="3.13374">
        <ele>243.8</ele>
        <time>2014-02-20T10:53:43.502Z</time>
      </trkpt>
      <trkpt lat="43.59724" lon="3.13374">
        <ele>243.9</ele>
        <time>2014-02-20T10:53:44.501Z</time>
      </trkpt>
      <trkpt lat="43.59724" lon="3.13375">
        <ele>244.7</ele>
        <time>2014-02-20T10:54:20.498Z</time>
      </trkpt>
      <trkpt lat="43.59725" lon="3.13375">
        <ele>244.9</ele>
        <time>2014-02-20T10:54:23.322Z</time>
      </trkpt>
      <trkpt lat="43.59725" lon="3.13375">
        <ele>244.9</ele>
        <time>2014-02-20T10:54:24.939Z</time>
      </trkpt>
      <trkpt lat="43.59725" lon="3.13374">
        <ele>245</ele>
        <time>2014-02-20T10:56:02.500Z</time>
      </trkpt>
      <trkpt lat="43.59724" lon="3.13368">
        <ele>246</ele>
        <time>2014-02-20T10:56:03.503Z</time>
      </trkpt>
      <trkpt lat="43.59722" lon="3.1336">
        <ele>245.3</ele>
        <time>2014-02-20T10:56:04.500Z</time>
      </trkpt>
      <trkpt lat="43.5972" lon="3.13352">
        <ele>243.6</ele>
        <time>2014-02-20T10:56:05.506Z</time>
      </trkpt>
      <trkpt lat="43.5972" lon="3.13345">
        <ele>242.4</ele>
        <time>2014-02-20T10:56:06.522Z</time>
      </trkpt>
      <trkpt lat="43.5972" lon="3.13339">
        <ele>241.8</ele>
        <time>2014-02-20T10:56:07.499Z</time>
      </trkpt>
      <trkpt lat="43.59719" lon="3.1333">
        <ele>241</ele>
        <time>2014-02-20T10:56:09.501Z</time>
      </trkpt>
      <trkpt lat="43.59719" lon="3.13326">
        <ele>240.3</ele>
        <time>2014-02-20T10:56:10.504Z</time>
      </trkpt>
      <trkpt lat="43.59717" lon="3.13317">
        <ele>240.2</ele>
        <time>2014-02-20T10:56:12.501Z</time>
      </trkpt>
      <trkpt lat="43.59716" lon="3.13313">
        <ele>240.3</ele>
        <time>2014-02-20T10:56:13.502Z</time>
      </trkpt>
      <trkpt lat="43.59713" lon="3.13305">
        <ele>240.2</ele>
        <time>2014-02-20T10:56:15.506Z</time>
      </trkpt>
      <trkpt lat="43.59711" lon="3.13302">
        <ele>240.6</ele>
        <time>2014-02-20T10:56:16.501Z</time>
      </trkpt>
      <trkpt lat="43.59707" lon="3.13293">
        <ele>240.1</ele>
        <time>2014-02-20T10:56:18.503Z</time>
      </trkpt>
      <trkpt lat="43.59706" lon="3.13288">
        <ele>239.7</ele>
        <time>2014-02-20T10:56:19.504Z</time>
      </trkpt>
      <trkpt lat="43.59703" lon="3.13277">
        <ele>240.4</ele>
        <time>2014-02-20T10:56:21.504Z</time>
      </trkpt>
      <trkpt lat="43.59703" lon="3.13272">
        <ele>239.9</ele>
        <time>2014-02-20T10:56:22.503Z</time>
      </trkpt>
      <trkpt lat="43.59702" lon="3.1326">
        <ele>239.4</ele>
        <time>2014-02-20T10:56:24.500Z</time>
      </trkpt>
      <trkpt lat="43.59702" lon="3.13255">
        <ele>238.5</ele>
        <time>2014-02-20T10:56:25.502Z</time>
      </trkpt>
      <trkpt lat="43.59701" lon="3.13243">
        <ele>239.6</ele>
        <time>2014-02-20T10:56:27.496Z</time>
      </trkpt>
      <trkpt lat="43.597" lon="3.13238">
        <ele>240.6</ele>
        <time>2014-02-20T10:56:28.496Z</time>
      </trkpt>
      <trkpt lat="43.597" lon="3.13232">
        <ele>241.5</ele>
        <time>2014-02-20T10:56:29.494Z</time>
      </trkpt>
      <trkpt lat="43.59698" lon="3.13225">
        <ele>240.9</ele>
        <time>2014-02-20T10:56:30.496Z</time>
      </trkpt>
      <trkpt lat="43.59695" lon="3.13214">
        <ele>242</ele>
        <time>2014-02-20T10:56:33.257Z</time>
      </trkpt>
      <trkpt lat="43.59695" lon="3.1321">
        <ele>242.5</ele>
        <time>2014-02-20T10:56:34.209Z</time>
      </trkpt>
      <trkpt lat="43.59684" lon="3.13016">
        <ele>248.9</ele>
        <time>2014-02-20T10:57:09.509Z</time>
      </trkpt>
      <trkpt lat="43.59682" lon="3.13007">
        <ele>250.4</ele>
        <time>2014-02-20T10:57:11.503Z</time>
      </trkpt>
      <trkpt lat="43.59682" lon="3.13003">
        <ele>248.1</ele>
        <time>2014-02-20T10:57:12.501Z</time>
      </trkpt>
      <trkpt lat="43.59679" lon="3.12996">
        <ele>248.6</ele>
        <time>2014-02-20T10:57:14.500Z</time>
      </trkpt>
      <trkpt lat="43.59678" lon="3.12991">
        <ele>249.2</ele>
        <time>2014-02-20T10:57:15.499Z</time>
      </trkpt>
      <trkpt lat="43.59675" lon="3.1298">
        <ele>251.9</ele>
        <time>2014-02-20T10:57:17.502Z</time>
      </trkpt>
      <trkpt lat="43.59674" lon="3.12976">
        <ele>253.3</ele>
        <time>2014-02-20T10:57:18.502Z</time>
      </trkpt>
      <trkpt lat="43.59673" lon="3.12966">
        <ele>250.9</ele>
        <time>2014-02-20T10:57:20.500Z</time>
      </trkpt>
      <trkpt lat="43.59671" lon="3.12961">
        <ele>249.9</ele>
        <time>2014-02-20T10:57:21.503Z</time>
      </trkpt>
      <trkpt lat="43.5967" lon="3.12952">
        <ele>248.8</ele>
        <time>2014-02-20T10:57:23.501Z</time>
      </trkpt>
      <trkpt lat="43.59669" lon="3.12947">
        <ele>248.9</ele>
        <time>2014-02-20T10:57:24.502Z</time>
      </trkpt>
      <trkpt lat="43.59668" lon="3.12938">
        <ele>248.2</ele>
        <time>2014-02-20T10:57:26.500Z</time>
      </trkpt>
      <trkpt lat="43.59668" lon="3.12934">
        <ele>246.1</ele>
        <time>2014-02-20T10:57:27.501Z</time>
      </trkpt>
      <trkpt lat="43.59667" lon="3.12924">
        <ele>247.7</ele>
        <time>2014-02-20T10:57:29.499Z</time>
      </trkpt>
      <trkpt lat="43.59668" lon="3.12919">
        <ele>246.4</ele>
        <time>2014-02-20T10:57:30.502Z</time>
      </trkpt>
      <trkpt lat="43.59668" lon="3.12908">
        <ele>245</ele>
        <time>2014-02-20T10:57:32.499Z</time>
      </trkpt>
      <trkpt lat="43.59668" lon="3.12902">
        <ele>246.5</ele>
        <time>2014-02-20T10:57:33.522Z</time>
      </trkpt>
      <trkpt lat="43.59668" lon="3.12896">
        <ele>246.5</ele>
        <time>2014-02-20T10:57:34.517Z</time>
      </trkpt>
      <trkpt lat="43.59668" lon="3.12889">
        <ele>246.6</ele>
        <time>2014-02-20T10:57:35.527Z</time>
      </trkpt>
      <trkpt lat="43.59668" lon="3.12878">
        <ele>245.1</ele>
        <time>2014-02-20T10:57:37.502Z</time>
      </trkpt>
      <trkpt lat="43.59668" lon="3.12872">
        <ele>244.1</ele>
        <time>2014-02-20T10:57:38.501Z</time>
      </trkpt>
      <trkpt lat="43.59667" lon="3.12861">
        <ele>243.1</ele>
        <time>2014-02-20T10:57:40.495Z</time>
      </trkpt>
      <trkpt lat="43.59667" lon="3.12855">
        <ele>242.3</ele>
        <time>2014-02-20T10:57:41.500Z</time>
      </trkpt>
      <trkpt lat="43.59666" lon="3.12846">
        <ele>240.8</ele>
        <time>2014-02-20T10:57:43.504Z</time>
      </trkpt>
      <trkpt lat="43.59665" lon="3.12841">
        <ele>239.3</ele>
        <time>2014-02-20T10:57:44.540Z</time>
      </trkpt>
      <trkpt lat="43.59663" lon="3.1283">
        <ele>240.4</ele>
        <time>2014-02-20T10:57:46.504Z</time>
      </trkpt>
      <trkpt lat="43.59663" lon="3.12824">
        <ele>240.4</ele>
        <time>2014-02-20T10:57:47.502Z</time>
      </trkpt>
      <trkpt lat="43.59662" lon="3.12812">
        <ele>241.6</ele>
        <time>2014-02-20T10:57:49.501Z</time>
      </trkpt>
      <trkpt lat="43.59661" lon="3.12806">
        <ele>242</ele>
        <time>2014-02-20T10:57:50.500Z</time>
      </trkpt>
      <trkpt lat="43.59661" lon="3.12795">
        <ele>241.8</ele>
        <time>2014-02-20T10:57:52.501Z</time>
      </trkpt>
      <trkpt lat="43.5966" lon="3.12789">
        <ele>242.9</ele>
        <time>2014-02-20T10:57:53.500Z</time>
      </trkpt>
      <trkpt lat="43.5966" lon="3.12777">
        <ele>242.9</ele>
        <time>2014-02-20T10:57:55.504Z</time>
      </trkpt>
      <trkpt lat="43.5966" lon="3.12772">
        <ele>242.9</ele>
        <time>2014-02-20T10:57:56.503Z</time>
      </trkpt>
      <trkpt lat="43.59659" lon="3.12765">
        <ele>243.2</ele>
        <time>2014-02-20T10:57:57.508Z</time>
      </trkpt>
      <trkpt lat="43.59658" lon="3.12759">
        <ele>243.7</ele>
        <time>2014-02-20T10:57:58.501Z</time>
      </trkpt>
      <trkpt lat="43.59657" lon="3.12747">
        <ele>245.5</ele>
        <time>2014-02-20T10:58:00.536Z</time>
      </trkpt>
      <trkpt lat="43.59657" lon="3.12742">
        <ele>245.7</ele>
        <time>2014-02-20T10:58:01.595Z</time>
      </trkpt>
      <trkpt lat="43.59656" lon="3.12734">
        <ele>245.6</ele>
        <time>2014-02-20T10:58:03.500Z</time>
      </trkpt>
      <trkpt lat="43.59655" lon="3.12727">
        <ele>244.4</ele>
        <time>2014-02-20T10:58:04.502Z</time>
      </trkpt>
      <trkpt lat="43.59654" lon="3.1272">
        <ele>245.8</ele>
        <time>2014-02-20T10:58:05.499Z</time>
      </trkpt>
      <trkpt lat="43.59653" lon="3.12713">
        <ele>245.8</ele>
        <time>2014-02-20T10:58:06.506Z</time>
      </trkpt>
      <trkpt lat="43.59651" lon="3.12704">
        <ele>245.6</ele>
        <time>2014-02-20T10:58:07.501Z</time>
      </trkpt>
      <trkpt lat="43.59649" lon="3.12695">
        <ele>246.7</ele>
        <time>2014-02-20T10:58:08.504Z</time>
      </trkpt>
      <trkpt lat="43.59648" lon="3.12686">
        <ele>246.4</ele>
        <time>2014-02-20T10:58:09.533Z</time>
      </trkpt>
      <trkpt lat="43.59648" lon="3.12678">
        <ele>245.6</ele>
        <time>2014-02-20T10:58:10.516Z</time>
      </trkpt>
      <trkpt lat="43.59648" lon="3.1267">
        <ele>245.4</ele>
        <time>2014-02-20T10:58:11.505Z</time>
      </trkpt>
      <trkpt lat="43.59648" lon="3.12664">
        <ele>244.9</ele>
        <time>2014-02-20T10:58:12.506Z</time>
      </trkpt>
      <trkpt lat="43.59648" lon="3.12652">
        <ele>245.1</ele>
        <time>2014-02-20T10:58:14.502Z</time>
      </trkpt>
      <trkpt lat="43.59648" lon="3.12646">
        <ele>245.2</ele>
        <time>2014-02-20T10:58:15.532Z</time>
      </trkpt>
      <trkpt lat="43.59648" lon="3.12641">
        <ele>245.3</ele>
        <time>2014-02-20T10:58:16.512Z</time>
      </trkpt>
      <trkpt lat="43.59647" lon="3.12634">
        <ele>246.6</ele>
        <time>2014-02-20T10:58:17.500Z</time>
      </trkpt>
      <trkpt lat="43.59646" lon="3.12627">
        <ele>247.8</ele>
        <time>2014-02-20T10:58:18.502Z</time>
      </trkpt>
      <trkpt lat="43.59645" lon="3.12621">
        <ele>247.8</ele>
        <time>2014-02-20T10:58:19.501Z</time>
      </trkpt>
      <trkpt lat="43.59644" lon="3.12609">
        <ele>249.5</ele>
        <time>2014-02-20T10:58:21.504Z</time>
      </trkpt>
      <trkpt lat="43.59643" lon="3.12602">
        <ele>250.3</ele>
        <time>2014-02-20T10:58:22.503Z</time>
      </trkpt>
      <trkpt lat="43.59642" lon="3.12596">
        <ele>249.5</ele>
        <time>2014-02-20T10:58:23.501Z</time>
      </trkpt>
      <trkpt lat="43.59641" lon="3.12589">
        <ele>248.5</ele>
        <time>2014-02-20T10:58:24.503Z</time>
      </trkpt>
      <trkpt lat="43.59639" lon="3.12582">
        <ele>248.1</ele>
        <time>2014-02-20T10:58:25.504Z</time>
      </trkpt>
      <trkpt lat="43.59637" lon="3.12576">
        <ele>247.5</ele>
        <time>2014-02-20T10:58:26.500Z</time>
      </trkpt>
      <trkpt lat="43.59637" lon="3.1257">
        <ele>246.7</ele>
        <time>2014-02-20T10:58:27.496Z</time>
      </trkpt>
      <trkpt lat="43.59637" lon="3.12563">
        <ele>245.6</ele>
        <time>2014-02-20T10:58:28.497Z</time>
      </trkpt>
      <trkpt lat="43.59636" lon="3.12553">
        <ele>245.8</ele>
        <time>2014-02-20T10:58:30.495Z</time>
      </trkpt>
      <trkpt lat="43.59636" lon="3.12547">
        <ele>244.6</ele>
        <time>2014-02-20T10:58:31.495Z</time>
      </trkpt>
      <trkpt lat="43.59636" lon="3.12541">
        <ele>242.9</ele>
        <time>2014-02-20T10:58:32.496Z</time>
      </trkpt>
      <trkpt lat="43.59635" lon="3.12535">
        <ele>243.1</ele>
        <time>2014-02-20T10:58:34.019Z</time>
      </trkpt>
      <trkpt lat="43.59635" lon="3.12525">
        <ele>243.9</ele>
        <time>2014-02-20T10:58:35.494Z</time>
      </trkpt>
      <trkpt lat="43.59634" lon="3.12518">
        <ele>242</ele>
        <time>2014-02-20T10:58:36.496Z</time>
      </trkpt>
      <trkpt lat="43.59633" lon="3.12512">
        <ele>242.2</ele>
        <time>2014-02-20T10:58:37.516Z</time>
      </trkpt>
      <trkpt lat="43.59632" lon="3.12506">
        <ele>240.9</ele>
        <time>2014-02-20T10:58:38.494Z</time>
      </trkpt>
      <trkpt lat="43.59631" lon="3.12499">
        <ele>241.4</ele>
        <time>2014-02-20T10:58:39.496Z</time>
      </trkpt>
      <trkpt lat="43.5963" lon="3.12494">
        <ele>241</ele>
        <time>2014-02-20T10:58:40.498Z</time>
      </trkpt>
      <trkpt lat="43.59628" lon="3.12482">
        <ele>241</ele>
        <time>2014-02-20T10:58:42.504Z</time>
      </trkpt>
      <trkpt lat="43.59626" lon="3.12476">
        <ele>241.1</ele>
        <time>2014-02-20T10:58:43.843Z</time>
      </trkpt>
      <trkpt lat="43.59625" lon="3.12467">
        <ele>240.6</ele>
        <time>2014-02-20T10:58:45.502Z</time>
      </trkpt>
      <trkpt lat="43.59624" lon="3.12461">
        <ele>240.6</ele>
        <time>2014-02-20T10:58:48.147Z</time>
      </trkpt>
      <trkpt lat="43.59623" lon="3.1245">
        <ele>240.9</ele>
        <time>2014-02-20T10:58:49.502Z</time>
      </trkpt>
      <trkpt lat="43.59623" lon="3.12443">
        <ele>241.6</ele>
        <time>2014-02-20T10:58:50.499Z</time>
      </trkpt>
      <trkpt lat="43.59623" lon="3.12435">
        <ele>242.2</ele>
        <time>2014-02-20T10:58:51.501Z</time>
      </trkpt>
      <trkpt lat="43.59623" lon="3.12428">
        <ele>241.5</ele>
        <time>2014-02-20T10:58:52.499Z</time>
      </trkpt>
      <trkpt lat="43.59623" lon="3.12415">
        <ele>241.2</ele>
        <time>2014-02-20T10:58:54.500Z</time>
      </trkpt>
      <trkpt lat="43.59623" lon="3.1241">
        <ele>241.6</ele>
        <time>2014-02-20T10:58:55.500Z</time>
      </trkpt>
      <trkpt lat="43.59624" lon="3.124">
        <ele>240.6</ele>
        <time>2014-02-20T10:58:57.510Z</time>
      </trkpt>
      <trkpt lat="43.59625" lon="3.12395">
        <ele>240</ele>
        <time>2014-02-20T10:58:58.500Z</time>
      </trkpt>
      <trkpt lat="43.59626" lon="3.12388">
        <ele>241.3</ele>
        <time>2014-02-20T10:58:59.501Z</time>
      </trkpt>
      <trkpt lat="43.59627" lon="3.12381">
        <ele>241.9</ele>
        <time>2014-02-20T10:59:00.502Z</time>
      </trkpt>
      <trkpt lat="43.59627" lon="3.12375">
        <ele>242.3</ele>
        <time>2014-02-20T10:59:01.498Z</time>
      </trkpt>
      <trkpt lat="43.59627" lon="3.12368">
        <ele>242.7</ele>
        <time>2014-02-20T10:59:02.494Z</time>
      </trkpt>
      <trkpt lat="43.59627" lon="3.12362">
        <ele>242.7</ele>
        <time>2014-02-20T10:59:03.498Z</time>
      </trkpt>
      <trkpt lat="43.59625" lon="3.12353">
        <ele>242.1</ele>
        <time>2014-02-20T10:59:04.497Z</time>
      </trkpt>
      <trkpt lat="43.59624" lon="3.12344">
        <ele>241.2</ele>
        <time>2014-02-20T10:59:05.494Z</time>
      </trkpt>
      <trkpt lat="43.59623" lon="3.12334">
        <ele>241.2</ele>
        <time>2014-02-20T10:59:06.497Z</time>
      </trkpt>
      <trkpt lat="43.59621" lon="3.12326">
        <ele>242.5</ele>
        <time>2014-02-20T10:59:07.498Z</time>
      </trkpt>
      <trkpt lat="43.5962" lon="3.1232">
        <ele>243.6</ele>
        <time>2014-02-20T10:59:08.496Z</time>
      </trkpt>
      <trkpt lat="43.59618" lon="3.12309">
        <ele>243.3</ele>
        <time>2014-02-20T10:59:10.496Z</time>
      </trkpt>
      <trkpt lat="43.59618" lon="3.12304">
        <ele>242.6</ele>
        <time>2014-02-20T10:59:11.496Z</time>
      </trkpt>
      <trkpt lat="43.59616" lon="3.12298">
        <ele>242.4</ele>
        <time>2014-02-20T10:59:12.497Z</time>
      </trkpt>
      <trkpt lat="43.59615" lon="3.12291">
        <ele>241.8</ele>
        <time>2014-02-20T10:59:13.497Z</time>
      </trkpt>
      <trkpt lat="43.59615" lon="3.12284">
        <ele>241</ele>
        <time>2014-02-20T10:59:14.495Z</time>
      </trkpt>
      <trkpt lat="43.59614" lon="3.12277">
        <ele>241.2</ele>
        <time>2014-02-20T10:59:15.496Z</time>
      </trkpt>
      <trkpt lat="43.59613" lon="3.12266">
        <ele>242.2</ele>
        <time>2014-02-20T10:59:17.498Z</time>
      </trkpt>
      <trkpt lat="43.59612" lon="3.12259">
        <ele>243</ele>
        <time>2014-02-20T10:59:18.499Z</time>
      </trkpt>
      <trkpt lat="43.59611" lon="3.12252">
        <ele>242.4</ele>
        <time>2014-02-20T10:59:19.498Z</time>
      </trkpt>
      <trkpt lat="43.59609" lon="3.12245">
        <ele>243</ele>
        <time>2014-02-20T10:59:20.494Z</time>
      </trkpt>
      <trkpt lat="43.59608" lon="3.12233">
        <ele>243.8</ele>
        <time>2014-02-20T10:59:22.496Z</time>
      </trkpt>
      <trkpt lat="43.59607" lon="3.12228">
        <ele>244.1</ele>
        <time>2014-02-20T10:59:23.495Z</time>
      </trkpt>
      <trkpt lat="43.59605" lon="3.12216">
        <ele>244.6</ele>
        <time>2014-02-20T10:59:25.496Z</time>
      </trkpt>
      <trkpt lat="43.59605" lon="3.12211">
        <ele>244.5</ele>
        <time>2014-02-20T10:59:26.495Z</time>
      </trkpt>
      <trkpt lat="43.59605" lon="3.122">
        <ele>244.4</ele>
        <time>2014-02-20T10:59:28.498Z</time>
      </trkpt>
      <trkpt lat="43.59606" lon="3.12194">
        <ele>243.6</ele>
        <time>2014-02-20T10:59:29.494Z</time>
      </trkpt>
      <trkpt lat="43.59604" lon="3.12183">
        <ele>243</ele>
        <time>2014-02-20T10:59:31.502Z</time>
      </trkpt>
      <trkpt lat="43.59602" lon="3.12177">
        <ele>243.6</ele>
        <time>2014-02-20T10:59:32.502Z</time>
      </trkpt>
      <trkpt lat="43.59601" lon="3.12166">
        <ele>241.6</ele>
        <time>2014-02-20T10:59:34.503Z</time>
      </trkpt>
      <trkpt lat="43.59601" lon="3.1216">
        <ele>241.7</ele>
        <time>2014-02-20T10:59:35.503Z</time>
      </trkpt>
      <trkpt lat="43.59602" lon="3.12149">
        <ele>241.8</ele>
        <time>2014-02-20T10:59:38.681Z</time>
      </trkpt>
      <trkpt lat="43.59602" lon="3.12142">
        <ele>241.7</ele>
        <time>2014-02-20T10:59:39.505Z</time>
      </trkpt>
      <trkpt lat="43.59602" lon="3.12134">
        <ele>241.8</ele>
        <time>2014-02-20T10:59:40.503Z</time>
      </trkpt>
      <trkpt lat="43.59603" lon="3.12127">
        <ele>242.1</ele>
        <time>2014-02-20T10:59:41.499Z</time>
      </trkpt>
      <trkpt lat="43.59602" lon="3.1212">
        <ele>241.7</ele>
        <time>2014-02-20T10:59:42.501Z</time>
      </trkpt>
      <trkpt lat="43.59602" lon="3.12112">
        <ele>241.3</ele>
        <time>2014-02-20T10:59:43.501Z</time>
      </trkpt>
      <trkpt lat="43.59601" lon="3.12103">
        <ele>240.6</ele>
        <time>2014-02-20T10:59:44.502Z</time>
      </trkpt>
      <trkpt lat="43.59601" lon="3.12095">
        <ele>240.9</ele>
        <time>2014-02-20T10:59:45.521Z</time>
      </trkpt>
      <trkpt lat="43.596" lon="3.12087">
        <ele>241.4</ele>
        <time>2014-02-20T10:59:46.502Z</time>
      </trkpt>
      <trkpt lat="43.59599" lon="3.12079">
        <ele>241.3</ele>
        <time>2014-02-20T10:59:47.501Z</time>
      </trkpt>
      <trkpt lat="43.59599" lon="3.12072">
        <ele>240.7</ele>
        <time>2014-02-20T10:59:48.503Z</time>
      </trkpt>
      <trkpt lat="43.59599" lon="3.12066">
        <ele>241.2</ele>
        <time>2014-02-20T10:59:49.502Z</time>
      </trkpt>
      <trkpt lat="43.59599" lon="3.12059">
        <ele>240.8</ele>
        <time>2014-02-20T10:59:50.502Z</time>
      </trkpt>
      <trkpt lat="43.59597" lon="3.12052">
        <ele>240.2</ele>
        <time>2014-02-20T10:59:51.503Z</time>
      </trkpt>
      <trkpt lat="43.59596" lon="3.12044">
        <ele>240</ele>
        <time>2014-02-20T10:59:52.504Z</time>
      </trkpt>
      <trkpt lat="43.59595" lon="3.12037">
        <ele>240.2</ele>
        <time>2014-02-20T10:59:53.500Z</time>
      </trkpt>
      <trkpt lat="43.59595" lon="3.12029">
        <ele>240.5</ele>
        <time>2014-02-20T10:59:54.501Z</time>
      </trkpt>
      <trkpt lat="43.59594" lon="3.12022">
        <ele>241.7</ele>
        <time>2014-02-20T10:59:55.504Z</time>
      </trkpt>
      <trkpt lat="43.59593" lon="3.12015">
        <ele>242.1</ele>
        <time>2014-02-20T10:59:56.502Z</time>
      </trkpt>
      <trkpt lat="43.59592" lon="3.12009">
        <ele>241.3</ele>
        <time>2014-02-20T10:59:57.501Z</time>
      </trkpt>
      <trkpt lat="43.59591" lon="3.12003">
        <ele>241</ele>
        <time>2014-02-20T10:59:58.503Z</time>
      </trkpt>
      <trkpt lat="43.59589" lon="3.11997">
        <ele>240.8</ele>
        <time>2014-02-20T10:59:59.507Z</time>
      </trkpt>
      <trkpt lat="43.59587" lon="3.1199">
        <ele>240.2</ele>
        <time>2014-02-20T11:00:00.673Z</time>
      </trkpt>
      <trkpt lat="43.59587" lon="3.11984">
        <ele>239.9</ele>
        <time>2014-02-20T11:00:01.495Z</time>
      </trkpt>
      <trkpt lat="43.59584" lon="3.11975">
        <ele>240.4</ele>
        <time>2014-02-20T11:00:03.498Z</time>
      </trkpt>
      <trkpt lat="43.59584" lon="3.11969">
        <ele>239.8</ele>
        <time>2014-02-20T11:00:04.499Z</time>
      </trkpt>
      <trkpt lat="43.59584" lon="3.11962">
        <ele>239.8</ele>
        <time>2014-02-20T11:00:07.287Z</time>
      </trkpt>
      <trkpt lat="43.59583" lon="3.11953">
        <ele>239.6</ele>
        <time>2014-02-20T11:00:09.530Z</time>
      </trkpt>
      <trkpt lat="43.59583" lon="3.11944">
        <ele>241.2</ele>
        <time>2014-02-20T11:00:10.978Z</time>
      </trkpt>
      <trkpt lat="43.59583" lon="3.11937">
        <ele>241.1</ele>
        <time>2014-02-20T11:00:11.602Z</time>
      </trkpt>
      <trkpt lat="43.59583" lon="3.11929">
        <ele>241.1</ele>
        <time>2014-02-20T11:00:12.792Z</time>
      </trkpt>
      <trkpt lat="43.59583" lon="3.11923">
        <ele>241.7</ele>
        <time>2014-02-20T11:00:13.511Z</time>
      </trkpt>
      <trkpt lat="43.59582" lon="3.11915">
        <ele>243</ele>
        <time>2014-02-20T11:00:14.506Z</time>
      </trkpt>
      <trkpt lat="43.5958" lon="3.11905">
        <ele>243.5</ele>
        <time>2014-02-20T11:00:15.507Z</time>
      </trkpt>
      <trkpt lat="43.59579" lon="3.11896">
        <ele>244.5</ele>
        <time>2014-02-20T11:00:16.513Z</time>
      </trkpt>
      <trkpt lat="43.59578" lon="3.11889">
        <ele>244.9</ele>
        <time>2014-02-20T11:00:17.506Z</time>
      </trkpt>
      <trkpt lat="43.59578" lon="3.11881">
        <ele>243.3</ele>
        <time>2014-02-20T11:00:18.504Z</time>
      </trkpt>
      <trkpt lat="43.59577" lon="3.11875">
        <ele>243.1</ele>
        <time>2014-02-20T11:00:19.508Z</time>
      </trkpt>
      <trkpt lat="43.59577" lon="3.11864">
        <ele>243.2</ele>
        <time>2014-02-20T11:00:21.506Z</time>
      </trkpt>
      <trkpt lat="43.59577" lon="3.11859">
        <ele>242.9</ele>
        <time>2014-02-20T11:00:22.507Z</time>
      </trkpt>
      <trkpt lat="43.59575" lon="3.1185">
        <ele>244.1</ele>
        <time>2014-02-20T11:00:24.506Z</time>
      </trkpt>
      <trkpt lat="43.59574" lon="3.11847">
        <ele>244.6</ele>
        <time>2014-02-20T11:00:25.505Z</time>
      </trkpt>
      <trkpt lat="43.59573" lon="3.11836">
        <ele>245.4</ele>
        <time>2014-02-20T11:00:27.507Z</time>
      </trkpt>
      <trkpt lat="43.59572" lon="3.11831">
        <ele>245.3</ele>
        <time>2014-02-20T11:00:28.512Z</time>
      </trkpt>
      <trkpt lat="43.5957" lon="3.1182">
        <ele>246.6</ele>
        <time>2014-02-20T11:00:30.497Z</time>
      </trkpt>
      <trkpt lat="43.5957" lon="3.11815">
        <ele>247.1</ele>
        <time>2014-02-20T11:00:31.509Z</time>
      </trkpt>
      <trkpt lat="43.59569" lon="3.11803">
        <ele>247.1</ele>
        <time>2014-02-20T11:00:33.496Z</time>
      </trkpt>
      <trkpt lat="43.59569" lon="3.11796">
        <ele>247.6</ele>
        <time>2014-02-20T11:00:35.279Z</time>
      </trkpt>
      <trkpt lat="43.59568" lon="3.11785">
        <ele>248.5</ele>
        <time>2014-02-20T11:00:37.500Z</time>
      </trkpt>
      <trkpt lat="43.59567" lon="3.11781">
        <ele>247.5</ele>
        <time>2014-02-20T11:00:38.494Z</time>
      </trkpt>
      <trkpt lat="43.59566" lon="3.11772">
        <ele>248.9</ele>
        <time>2014-02-20T11:00:40.512Z</time>
      </trkpt>
      <trkpt lat="43.59565" lon="3.11766">
        <ele>249.8</ele>
        <time>2014-02-20T11:00:41.499Z</time>
      </trkpt>
      <trkpt lat="43.59565" lon="3.11756">
        <ele>250.7</ele>
        <time>2014-02-20T11:00:43.498Z</time>
      </trkpt>
      <trkpt lat="43.59565" lon="3.1175">
        <ele>250.5</ele>
        <time>2014-02-20T11:00:44.496Z</time>
      </trkpt>
      <trkpt lat="43.59565" lon="3.1174">
        <ele>250.8</ele>
        <time>2014-02-20T11:00:46.495Z</time>
      </trkpt>
      <trkpt lat="43.59565" lon="3.11734">
        <ele>250.4</ele>
        <time>2014-02-20T11:00:47.494Z</time>
      </trkpt>
      <trkpt lat="43.59564" lon="3.11728">
        <ele>249.9</ele>
        <time>2014-02-20T11:00:48.498Z</time>
      </trkpt>
      <trkpt lat="43.59563" lon="3.11721">
        <ele>249.6</ele>
        <time>2014-02-20T11:00:49.497Z</time>
      </trkpt>
      <trkpt lat="43.59563" lon="3.11709">
        <ele>249.9</ele>
        <time>2014-02-20T11:00:51.501Z</time>
      </trkpt>
      <trkpt lat="43.59563" lon="3.11704">
        <ele>249.8</ele>
        <time>2014-02-20T11:00:52.510Z</time>
      </trkpt>
      <trkpt lat="43.59564" lon="3.11694">
        <ele>250.3</ele>
        <time>2014-02-20T11:00:54.510Z</time>
      </trkpt>
      <trkpt lat="43.59564" lon="3.1169">
        <ele>250.1</ele>
        <time>2014-02-20T11:00:55.501Z</time>
      </trkpt>
      <trkpt lat="43.59563" lon="3.11681">
        <ele>250.9</ele>
        <time>2014-02-20T11:00:57.501Z</time>
      </trkpt>
      <trkpt lat="43.59562" lon="3.11677">
        <ele>251.6</ele>
        <time>2014-02-20T11:00:58.500Z</time>
      </trkpt>
      <trkpt lat="43.59561" lon="3.11666">
        <ele>251.2</ele>
        <time>2014-02-20T11:01:02.496Z</time>
      </trkpt>
      <trkpt lat="43.59561" lon="3.11662">
        <ele>250.7</ele>
        <time>2014-02-20T11:01:03.502Z</time>
      </trkpt>
      <trkpt lat="43.59559" lon="3.11651">
        <ele>250.1</ele>
        <time>2014-02-20T11:01:05.513Z</time>
      </trkpt>
      <trkpt lat="43.59559" lon="3.11646">
        <ele>249.8</ele>
        <time>2014-02-20T11:01:06.504Z</time>
      </trkpt>
      <trkpt lat="43.59557" lon="3.11636">
        <ele>248.6</ele>
        <time>2014-02-20T11:01:08.500Z</time>
      </trkpt>
      <trkpt lat="43.59556" lon="3.1163">
        <ele>247.8</ele>
        <time>2014-02-20T11:01:09.505Z</time>
      </trkpt>
      <trkpt lat="43.59554" lon="3.11619">
        <ele>247.2</ele>
        <time>2014-02-20T11:01:11.498Z</time>
      </trkpt>
      <trkpt lat="43.59554" lon="3.11615">
        <ele>246.5</ele>
        <time>2014-02-20T11:01:12.503Z</time>
      </trkpt>
      <trkpt lat="43.59556" lon="3.11605">
        <ele>246.8</ele>
        <time>2014-02-20T11:01:14.501Z</time>
      </trkpt>
      <trkpt lat="43.59556" lon="3.11601">
        <ele>247.3</ele>
        <time>2014-02-20T11:01:15.505Z</time>
      </trkpt>
      <trkpt lat="43.59556" lon="3.11589">
        <ele>248.5</ele>
        <time>2014-02-20T11:01:24.518Z</time>
      </trkpt>
      <trkpt lat="43.59556" lon="3.11588">
        <ele>248.1</ele>
        <time>2014-02-20T11:01:25.502Z</time>
      </trkpt>
      <trkpt lat="43.59557" lon="3.11578">
        <ele>250.5</ele>
        <time>2014-02-20T11:01:32.496Z</time>
      </trkpt>
      <trkpt lat="43.59557" lon="3.11576">
        <ele>249.9</ele>
        <time>2014-02-20T11:01:33.503Z</time>
      </trkpt>
      <trkpt lat="43.59556" lon="3.11572">
        <ele>249.6</ele>
        <time>2014-02-20T11:01:34.823Z</time>
      </trkpt>
      <trkpt lat="43.59548" lon="3.11557">
        <ele>246.9</ele>
        <time>2014-02-20T11:02:12.505Z</time>
      </trkpt>
      <trkpt lat="43.59552" lon="3.11551">
        <ele>243.1</ele>
        <time>2014-02-20T11:02:17.500Z</time>
      </trkpt>
      <trkpt lat="43.5955" lon="3.1154">
        <ele>244.3</ele>
        <time>2014-02-20T11:02:18.501Z</time>
      </trkpt>
      <trkpt lat="43.59547" lon="3.11524">
        <ele>246.1</ele>
        <time>2014-02-20T11:02:19.501Z</time>
      </trkpt>
      <trkpt lat="43.59543" lon="3.11505">
        <ele>246.5</ele>
        <time>2014-02-20T11:02:20.500Z</time>
      </trkpt>
      <trkpt lat="43.59539" lon="3.11485">
        <ele>246.6</ele>
        <time>2014-02-20T11:02:21.538Z</time>
      </trkpt>
      <trkpt lat="43.59534" lon="3.11466">
        <ele>244</ele>
        <time>2014-02-20T11:02:22.500Z</time>
      </trkpt>
      <trkpt lat="43.5953" lon="3.11451">
        <ele>246.3</ele>
        <time>2014-02-20T11:02:23.500Z</time>
      </trkpt>
      <trkpt lat="43.59526" lon="3.11439">
        <ele>246.2</ele>
        <time>2014-02-20T11:02:24.506Z</time>
      </trkpt>
      <trkpt lat="43.59524" lon="3.11429">
        <ele>248.4</ele>
        <time>2014-02-20T11:02:25.498Z</time>
      </trkpt>
      <trkpt lat="43.59521" lon="3.1142">
        <ele>249.1</ele>
        <time>2014-02-20T11:02:26.500Z</time>
      </trkpt>
      <trkpt lat="43.59517" lon="3.11407">
        <ele>249.6</ele>
        <time>2014-02-20T11:02:29.605Z</time>
      </trkpt>
      <trkpt lat="43.59516" lon="3.11397">
        <ele>249.6</ele>
        <time>2014-02-20T11:02:32.424Z</time>
      </trkpt>
      <trkpt lat="43.59515" lon="3.11391">
        <ele>250</ele>
        <time>2014-02-20T11:02:33.534Z</time>
      </trkpt>
      <trkpt lat="43.59512" lon="3.1138">
        <ele>247</ele>
        <time>2014-02-20T11:02:34.497Z</time>
      </trkpt>
      <trkpt lat="43.59509" lon="3.11371">
        <ele>245.2</ele>
        <time>2014-02-20T11:02:35.499Z</time>
      </trkpt>
      <trkpt lat="43.59506" lon="3.11362">
        <ele>245.6</ele>
        <time>2014-02-20T11:02:36.503Z</time>
      </trkpt>
      <trkpt lat="43.59504" lon="3.11354">
        <ele>246</ele>
        <time>2014-02-20T11:02:37.504Z</time>
      </trkpt>
      <trkpt lat="43.59501" lon="3.11347">
        <ele>247.1</ele>
        <time>2014-02-20T11:02:38.501Z</time>
      </trkpt>
      <trkpt lat="43.59499" lon="3.11339">
        <ele>248.1</ele>
        <time>2014-02-20T11:02:39.507Z</time>
      </trkpt>
      <trkpt lat="43.59497" lon="3.11331">
        <ele>249.3</ele>
        <time>2014-02-20T11:02:40.498Z</time>
      </trkpt>
      <trkpt lat="43.59495" lon="3.11323">
        <ele>249.2</ele>
        <time>2014-02-20T11:02:41.499Z</time>
      </trkpt>
      <trkpt lat="43.59493" lon="3.11315">
        <ele>249.9</ele>
        <time>2014-02-20T11:02:42.500Z</time>
      </trkpt>
      <trkpt lat="43.59491" lon="3.11307">
        <ele>250.6</ele>
        <time>2014-02-20T11:02:43.506Z</time>
      </trkpt>
      <trkpt lat="43.59489" lon="3.113">
        <ele>250</ele>
        <time>2014-02-20T11:02:44.496Z</time>
      </trkpt>
      <trkpt lat="43.59486" lon="3.11293">
        <ele>250.2</ele>
        <time>2014-02-20T11:02:45.501Z</time>
      </trkpt>
      <trkpt lat="43.59484" lon="3.11287">
        <ele>249.5</ele>
        <time>2014-02-20T11:02:46.500Z</time>
      </trkpt>
      <trkpt lat="43.59482" lon="3.1128">
        <ele>248.8</ele>
        <time>2014-02-20T11:02:47.500Z</time>
      </trkpt>
      <trkpt lat="43.5948" lon="3.11273">
        <ele>248.6</ele>
        <time>2014-02-20T11:02:48.528Z</time>
      </trkpt>
      <trkpt lat="43.59479" lon="3.11267">
        <ele>249.5</ele>
        <time>2014-02-20T11:02:49.538Z</time>
      </trkpt>
      <trkpt lat="43.59476" lon="3.11257">
        <ele>250.8</ele>
        <time>2014-02-20T11:02:51.495Z</time>
      </trkpt>
      <trkpt lat="43.59474" lon="3.11251">
        <ele>251</ele>
        <time>2014-02-20T11:02:52.494Z</time>
      </trkpt>
      <trkpt lat="43.59471" lon="3.11245">
        <ele>249.9</ele>
        <time>2014-02-20T11:02:53.537Z</time>
      </trkpt>
      <trkpt lat="43.59468" lon="3.11239">
        <ele>250.2</ele>
        <time>2014-02-20T11:02:54.497Z</time>
      </trkpt>
      <trkpt lat="43.59466" lon="3.11232">
        <ele>250.2</ele>
        <time>2014-02-20T11:02:55.494Z</time>
      </trkpt>
      <trkpt lat="43.59464" lon="3.11226">
        <ele>251</ele>
        <time>2014-02-20T11:02:56.494Z</time>
      </trkpt>
      <trkpt lat="43.59463" lon="3.1122">
        <ele>251.4</ele>
        <time>2014-02-20T11:02:57.501Z</time>
      </trkpt>
      <trkpt lat="43.59461" lon="3.11214">
        <ele>252.2</ele>
        <time>2014-02-20T11:02:58.790Z</time>
      </trkpt>
      <trkpt lat="43.59458" lon="3.11203">
        <ele>253.3</ele>
        <time>2014-02-20T11:03:00.498Z</time>
      </trkpt>
      <trkpt lat="43.59457" lon="3.11196">
        <ele>253.2</ele>
        <time>2014-02-20T11:03:01.497Z</time>
      </trkpt>
      <trkpt lat="43.59454" lon="3.11187">
        <ele>252.2</ele>
        <time>2014-02-20T11:03:02.663Z</time>
      </trkpt>
      <trkpt lat="43.59451" lon="3.11178">
        <ele>250.8</ele>
        <time>2014-02-20T11:03:03.496Z</time>
      </trkpt>
      <trkpt lat="43.59447" lon="3.11168">
        <ele>249.1</ele>
        <time>2014-02-20T11:03:04.495Z</time>
      </trkpt>
      <trkpt lat="43.59446" lon="3.11158">
        <ele>249.5</ele>
        <time>2014-02-20T11:03:05.495Z</time>
      </trkpt>
      <trkpt lat="43.59445" lon="3.11147">
        <ele>247.7</ele>
        <time>2014-02-20T11:03:06.497Z</time>
      </trkpt>
      <trkpt lat="43.59443" lon="3.11136">
        <ele>247.7</ele>
        <time>2014-02-20T11:03:07.675Z</time>
      </trkpt>
      <trkpt lat="43.59442" lon="3.11129">
        <ele>246.4</ele>
        <time>2014-02-20T11:03:08.491Z</time>
      </trkpt>
      <trkpt lat="43.5944" lon="3.11121">
        <ele>247.8</ele>
        <time>2014-02-20T11:03:09.495Z</time>
      </trkpt>
      <trkpt lat="43.59437" lon="3.11114">
        <ele>247.6</ele>
        <time>2014-02-20T11:03:10.527Z</time>
      </trkpt>
      <trkpt lat="43.59436" lon="3.11107">
        <ele>247.3</ele>
        <time>2014-02-20T11:03:11.513Z</time>
      </trkpt>
      <trkpt lat="43.59434" lon="3.111">
        <ele>247.7</ele>
        <time>2014-02-20T11:03:12.497Z</time>
      </trkpt>
      <trkpt lat="43.59431" lon="3.11093">
        <ele>247.8</ele>
        <time>2014-02-20T11:03:13.495Z</time>
      </trkpt>
      <trkpt lat="43.59428" lon="3.11087">
        <ele>246.9</ele>
        <time>2014-02-20T11:03:14.492Z</time>
      </trkpt>
      <trkpt lat="43.59425" lon="3.11081">
        <ele>247.2</ele>
        <time>2014-02-20T11:03:15.495Z</time>
      </trkpt>
      <trkpt lat="43.59422" lon="3.11074">
        <ele>247</ele>
        <time>2014-02-20T11:03:16.495Z</time>
      </trkpt>
      <trkpt lat="43.59419" lon="3.11069">
        <ele>247.3</ele>
        <time>2014-02-20T11:03:17.493Z</time>
      </trkpt>
      <trkpt lat="43.59416" lon="3.11063">
        <ele>247.4</ele>
        <time>2014-02-20T11:03:18.499Z</time>
      </trkpt>
      <trkpt lat="43.59413" lon="3.11057">
        <ele>247.3</ele>
        <time>2014-02-20T11:03:19.495Z</time>
      </trkpt>
      <trkpt lat="43.59411" lon="3.11051">
        <ele>246.8</ele>
        <time>2014-02-20T11:03:20.495Z</time>
      </trkpt>
      <trkpt lat="43.59408" lon="3.11045">
        <ele>247.1</ele>
        <time>2014-02-20T11:03:21.499Z</time>
      </trkpt>
      <trkpt lat="43.59406" lon="3.11038">
        <ele>246.3</ele>
        <time>2014-02-20T11:03:22.493Z</time>
      </trkpt>
      <trkpt lat="43.59403" lon="3.11033">
        <ele>245.8</ele>
        <time>2014-02-20T11:03:23.490Z</time>
      </trkpt>
      <trkpt lat="43.594" lon="3.11027">
        <ele>245.8</ele>
        <time>2014-02-20T11:03:24.494Z</time>
      </trkpt>
      <trkpt lat="43.59398" lon="3.11021">
        <ele>246.4</ele>
        <time>2014-02-20T11:03:25.496Z</time>
      </trkpt>
      <trkpt lat="43.59397" lon="3.11014">
        <ele>246.9</ele>
        <time>2014-02-20T11:03:26.488Z</time>
      </trkpt>
      <trkpt lat="43.59395" lon="3.11009">
        <ele>247.2</ele>
        <time>2014-02-20T11:03:27.513Z</time>
      </trkpt>
      <trkpt lat="43.59393" lon="3.10998">
        <ele>247.6</ele>
        <time>2014-02-20T11:03:29.509Z</time>
      </trkpt>
      <trkpt lat="43.59391" lon="3.10991">
        <ele>247.9</ele>
        <time>2014-02-20T11:03:31.342Z</time>
      </trkpt>
      <trkpt lat="43.59386" lon="3.10982">
        <ele>247.9</ele>
        <time>2014-02-20T11:03:33.501Z</time>
      </trkpt>
      <trkpt lat="43.59384" lon="3.10977">
        <ele>247.9</ele>
        <time>2014-02-20T11:03:34.501Z</time>
      </trkpt>
      <trkpt lat="43.59382" lon="3.1097">
        <ele>247.5</ele>
        <time>2014-02-20T11:03:37.184Z</time>
      </trkpt>
      <trkpt lat="43.59381" lon="3.10965">
        <ele>246.9</ele>
        <time>2014-02-20T11:03:37.497Z</time>
      </trkpt>
      <trkpt lat="43.59378" lon="3.10958">
        <ele>246.8</ele>
        <time>2014-02-20T11:03:38.500Z</time>
      </trkpt>
      <trkpt lat="43.59375" lon="3.1095">
        <ele>246.6</ele>
        <time>2014-02-20T11:03:39.505Z</time>
      </trkpt>
      <trkpt lat="43.59372" lon="3.10944">
        <ele>246.4</ele>
        <time>2014-02-20T11:03:40.504Z</time>
      </trkpt>
      <trkpt lat="43.59369" lon="3.1094">
        <ele>246.1</ele>
        <time>2014-02-20T11:03:41.499Z</time>
      </trkpt>
      <trkpt lat="43.59364" lon="3.10932">
        <ele>246.4</ele>
        <time>2014-02-20T11:03:43.505Z</time>
      </trkpt>
      <trkpt lat="43.59362" lon="3.10927">
        <ele>246.7</ele>
        <time>2014-02-20T11:03:44.502Z</time>
      </trkpt>
      <trkpt lat="43.5936" lon="3.10915">
        <ele>245.2</ele>
        <time>2014-02-20T11:03:46.506Z</time>
      </trkpt>
      <trkpt lat="43.59358" lon="3.10908">
        <ele>243.8</ele>
        <time>2014-02-20T11:03:47.534Z</time>
      </trkpt>
      <trkpt lat="43.59357" lon="3.10902">
        <ele>243.9</ele>
        <time>2014-02-20T11:03:48.501Z</time>
      </trkpt>
      <trkpt lat="43.59357" lon="3.10895">
        <ele>243.8</ele>
        <time>2014-02-20T11:03:49.499Z</time>
      </trkpt>
      <trkpt lat="43.59356" lon="3.1089">
        <ele>243.7</ele>
        <time>2014-02-20T11:03:50.491Z</time>
      </trkpt>
      <trkpt lat="43.59357" lon="3.10882">
        <ele>243.1</ele>
        <time>2014-02-20T11:03:51.500Z</time>
      </trkpt>
      <trkpt lat="43.59356" lon="3.10875">
        <ele>242.7</ele>
        <time>2014-02-20T11:03:52.504Z</time>
      </trkpt>
      <trkpt lat="43.59355" lon="3.10868">
        <ele>241.7</ele>
        <time>2014-02-20T11:03:53.648Z</time>
      </trkpt>
      <trkpt lat="43.59352" lon="3.10857">
        <ele>241.6</ele>
        <time>2014-02-20T11:03:55.497Z</time>
      </trkpt>
      <trkpt lat="43.59349" lon="3.10852">
        <ele>241.3</ele>
        <time>2014-02-20T11:03:56.495Z</time>
      </trkpt>
      <trkpt lat="43.59346" lon="3.10847">
        <ele>240.3</ele>
        <time>2014-02-20T11:03:57.498Z</time>
      </trkpt>
      <trkpt lat="43.59342" lon="3.10841">
        <ele>239.8</ele>
        <time>2014-02-20T11:03:58.553Z</time>
      </trkpt>
      <trkpt lat="43.59339" lon="3.10835">
        <ele>238.6</ele>
        <time>2014-02-20T11:03:59.495Z</time>
      </trkpt>
      <trkpt lat="43.59337" lon="3.10829">
        <ele>237.9</ele>
        <time>2014-02-20T11:04:00.497Z</time>
      </trkpt>
      <trkpt lat="43.59335" lon="3.10824">
        <ele>238.5</ele>
        <time>2014-02-20T11:04:01.495Z</time>
      </trkpt>
      <trkpt lat="43.59332" lon="3.10818">
        <ele>238.3</ele>
        <time>2014-02-20T11:04:02.493Z</time>
      </trkpt>
      <trkpt lat="43.59328" lon="3.10807">
        <ele>238.7</ele>
        <time>2014-02-20T11:04:04.499Z</time>
      </trkpt>
      <trkpt lat="43.59327" lon="3.10801">
        <ele>238.8</ele>
        <time>2014-02-20T11:04:05.495Z</time>
      </trkpt>
      <trkpt lat="43.59322" lon="3.10792">
        <ele>239.7</ele>
        <time>2014-02-20T11:04:07.512Z</time>
      </trkpt>
      <trkpt lat="43.5932" lon="3.10788">
        <ele>240.4</ele>
        <time>2014-02-20T11:04:08.494Z</time>
      </trkpt>
      <trkpt lat="43.59317" lon="3.10777">
        <ele>238.9</ele>
        <time>2014-02-20T11:04:10.497Z</time>
      </trkpt>
      <trkpt lat="43.59316" lon="3.10772">
        <ele>238.8</ele>
        <time>2014-02-20T11:04:11.497Z</time>
      </trkpt>
      <trkpt lat="43.59313" lon="3.10762">
        <ele>239.3</ele>
        <time>2014-02-20T11:04:13.527Z</time>
      </trkpt>
      <trkpt lat="43.59311" lon="3.10757">
        <ele>240</ele>
        <time>2014-02-20T11:04:14.495Z</time>
      </trkpt>
      <trkpt lat="43.59307" lon="3.10748">
        <ele>241</ele>
        <time>2014-02-20T11:04:16.497Z</time>
      </trkpt>
      <trkpt lat="43.59304" lon="3.10744">
        <ele>241.2</ele>
        <time>2014-02-20T11:04:17.494Z</time>
      </trkpt>
      <trkpt lat="43.59301" lon="3.10734">
        <ele>242.1</ele>
        <time>2014-02-20T11:04:19.494Z</time>
      </trkpt>
      <trkpt lat="43.59299" lon="3.10728">
        <ele>242.2</ele>
        <time>2014-02-20T11:04:20.493Z</time>
      </trkpt>
      <trkpt lat="43.59298" lon="3.10721">
        <ele>242.4</ele>
        <time>2014-02-20T11:04:21.493Z</time>
      </trkpt>
      <trkpt lat="43.59297" lon="3.10714">
        <ele>243.3</ele>
        <time>2014-02-20T11:04:22.493Z</time>
      </trkpt>
      <trkpt lat="43.59298" lon="3.10707">
        <ele>243.3</ele>
        <time>2014-02-20T11:04:23.489Z</time>
      </trkpt>
      <trkpt lat="43.59298" lon="3.10701">
        <ele>243.4</ele>
        <time>2014-02-20T11:04:24.496Z</time>
      </trkpt>
      <trkpt lat="43.59293" lon="3.10692">
        <ele>243.9</ele>
        <time>2014-02-20T11:04:26.494Z</time>
      </trkpt>
      <trkpt lat="43.59291" lon="3.10688">
        <ele>244</ele>
        <time>2014-02-20T11:04:27.495Z</time>
      </trkpt>
      <trkpt lat="43.59288" lon="3.10679">
        <ele>245.7</ele>
        <time>2014-02-20T11:04:29.495Z</time>
      </trkpt>
      <trkpt lat="43.59287" lon="3.10672">
        <ele>246.2</ele>
        <time>2014-02-20T11:04:30.496Z</time>
      </trkpt>
      <trkpt lat="43.59285" lon="3.10666">
        <ele>246.4</ele>
        <time>2014-02-20T11:04:31.495Z</time>
      </trkpt>
      <trkpt lat="43.59283" lon="3.10659">
        <ele>247.1</ele>
        <time>2014-02-20T11:04:32.494Z</time>
      </trkpt>
      <trkpt lat="43.59282" lon="3.10652">
        <ele>247.5</ele>
        <time>2014-02-20T11:04:33.495Z</time>
      </trkpt>
      <trkpt lat="43.5928" lon="3.10645">
        <ele>247.7</ele>
        <time>2014-02-20T11:04:34.494Z</time>
      </trkpt>
      <trkpt lat="43.59278" lon="3.10639">
        <ele>247.6</ele>
        <time>2014-02-20T11:04:35.493Z</time>
      </trkpt>
      <trkpt lat="43.59277" lon="3.10632">
        <ele>247.2</ele>
        <time>2014-02-20T11:04:36.496Z</time>
      </trkpt>
      <trkpt lat="43.59275" lon="3.10625">
        <ele>247</ele>
        <time>2014-02-20T11:04:37.498Z</time>
      </trkpt>
      <trkpt lat="43.59274" lon="3.1062">
        <ele>246.8</ele>
        <time>2014-02-20T11:04:38.494Z</time>
      </trkpt>
      <trkpt lat="43.59271" lon="3.10609">
        <ele>247.2</ele>
        <time>2014-02-20T11:04:40.498Z</time>
      </trkpt>
      <trkpt lat="43.59271" lon="3.10603">
        <ele>247.3</ele>
        <time>2014-02-20T11:04:41.495Z</time>
      </trkpt>
      <trkpt lat="43.5927" lon="3.10597">
        <ele>247.4</ele>
        <time>2014-02-20T11:04:42.498Z</time>
      </trkpt>
      <trkpt lat="43.59269" lon="3.10591">
        <ele>247</ele>
        <time>2014-02-20T11:04:43.495Z</time>
      </trkpt>
      <trkpt lat="43.59266" lon="3.1058">
        <ele>247.1</ele>
        <time>2014-02-20T11:04:45.496Z</time>
      </trkpt>
      <trkpt lat="43.59264" lon="3.10575">
        <ele>247</ele>
        <time>2014-02-20T11:04:46.497Z</time>
      </trkpt>
      <trkpt lat="43.59263" lon="3.10569">
        <ele>247.3</ele>
        <time>2014-02-20T11:04:47.503Z</time>
      </trkpt>
      <trkpt lat="43.59261" lon="3.10563">
        <ele>247.3</ele>
        <time>2014-02-20T11:04:48.495Z</time>
      </trkpt>
      <trkpt lat="43.59259" lon="3.10557">
        <ele>247.8</ele>
        <time>2014-02-20T11:04:49.490Z</time>
      </trkpt>
      <trkpt lat="43.59257" lon="3.10551">
        <ele>249.3</ele>
        <time>2014-02-20T11:04:50.489Z</time>
      </trkpt>
      <trkpt lat="43.59255" lon="3.10539">
        <ele>248.2</ele>
        <time>2014-02-20T11:04:52.493Z</time>
      </trkpt>
      <trkpt lat="43.59254" lon="3.10533">
        <ele>248.2</ele>
        <time>2014-02-20T11:04:53.490Z</time>
      </trkpt>
      <trkpt lat="43.59252" lon="3.10522">
        <ele>248.7</ele>
        <time>2014-02-20T11:04:55.525Z</time>
      </trkpt>
      <trkpt lat="43.59251" lon="3.10517">
        <ele>248.7</ele>
        <time>2014-02-20T11:04:56.499Z</time>
      </trkpt>
      <trkpt lat="43.5925" lon="3.10512">
        <ele>247.9</ele>
        <time>2014-02-20T11:04:57.505Z</time>
      </trkpt>
      <trkpt lat="43.59248" lon="3.10505">
        <ele>248.2</ele>
        <time>2014-02-20T11:04:58.518Z</time>
      </trkpt>
      <trkpt lat="43.59247" lon="3.10496">
        <ele>248.3</ele>
        <time>2014-02-20T11:05:00.209Z</time>
      </trkpt>
      <trkpt lat="43.59247" lon="3.10491">
        <ele>246.9</ele>
        <time>2014-02-20T11:05:00.504Z</time>
      </trkpt>
      <trkpt lat="43.59247" lon="3.10482">
        <ele>244.6</ele>
        <time>2014-02-20T11:05:01.505Z</time>
      </trkpt>
      <trkpt lat="43.59246" lon="3.10473">
        <ele>243.7</ele>
        <time>2014-02-20T11:05:02.501Z</time>
      </trkpt>
      <trkpt lat="43.59246" lon="3.10464">
        <ele>243.5</ele>
        <time>2014-02-20T11:05:04.563Z</time>
      </trkpt>
      <trkpt lat="43.59245" lon="3.10457">
        <ele>241.6</ele>
        <time>2014-02-20T11:05:05.496Z</time>
      </trkpt>
      <trkpt lat="43.59245" lon="3.10448">
        <ele>241.1</ele>
        <time>2014-02-20T11:05:06.500Z</time>
      </trkpt>
      <trkpt lat="43.59244" lon="3.1044">
        <ele>237.3</ele>
        <time>2014-02-20T11:05:07.500Z</time>
      </trkpt>
      <trkpt lat="43.59244" lon="3.10432">
        <ele>236.3</ele>
        <time>2014-02-20T11:05:08.496Z</time>
      </trkpt>
      <trkpt lat="43.59244" lon="3.10426">
        <ele>236.1</ele>
        <time>2014-02-20T11:05:09.503Z</time>
      </trkpt>
      <trkpt lat="43.59242" lon="3.10416">
        <ele>235.1</ele>
        <time>2014-02-20T11:05:11.523Z</time>
      </trkpt>
      <trkpt lat="43.59241" lon="3.1041">
        <ele>233.2</ele>
        <time>2014-02-20T11:05:12.501Z</time>
      </trkpt>
      <trkpt lat="43.59239" lon="3.10405">
        <ele>233.1</ele>
        <time>2014-02-20T11:05:13.525Z</time>
      </trkpt>
      <trkpt lat="43.59239" lon="3.10398">
        <ele>232.7</ele>
        <time>2014-02-20T11:05:14.494Z</time>
      </trkpt>
      <trkpt lat="43.59236" lon="3.10387">
        <ele>233</ele>
        <time>2014-02-20T11:05:15.495Z</time>
      </trkpt>
      <trkpt lat="43.59235" lon="3.10379">
        <ele>232.8</ele>
        <time>2014-02-20T11:05:16.499Z</time>
      </trkpt>
      <trkpt lat="43.59233" lon="3.10372">
        <ele>230.3</ele>
        <time>2014-02-20T11:05:17.492Z</time>
      </trkpt>
      <trkpt lat="43.59232" lon="3.10363">
        <ele>228.6</ele>
        <time>2014-02-20T11:05:18.491Z</time>
      </trkpt>
      <trkpt lat="43.59231" lon="3.10355">
        <ele>228.8</ele>
        <time>2014-02-20T11:05:19.501Z</time>
      </trkpt>
      <trkpt lat="43.5923" lon="3.10347">
        <ele>223.7</ele>
        <time>2014-02-20T11:05:20.622Z</time>
      </trkpt>
      <trkpt lat="43.5923" lon="3.1034">
        <ele>223.5</ele>
        <time>2014-02-20T11:05:21.489Z</time>
      </trkpt>
      <trkpt lat="43.59229" lon="3.10333">
        <ele>222.8</ele>
        <time>2014-02-20T11:05:22.492Z</time>
      </trkpt>
      <trkpt lat="43.59227" lon="3.10322">
        <ele>221.7</ele>
        <time>2014-02-20T11:05:24.501Z</time>
      </trkpt>
      <trkpt lat="43.59225" lon="3.10316">
        <ele>221.8</ele>
        <time>2014-02-20T11:05:26.437Z</time>
      </trkpt>
      <trkpt lat="43.59222" lon="3.1031">
        <ele>222</ele>
        <time>2014-02-20T11:05:27.536Z</time>
      </trkpt>
      <trkpt lat="43.5922" lon="3.10305">
        <ele>221.9</ele>
        <time>2014-02-20T11:05:28.503Z</time>
      </trkpt>
      <trkpt lat="43.59218" lon="3.10301">
        <ele>221.5</ele>
        <time>2014-02-20T11:05:29.501Z</time>
      </trkpt>
      <trkpt lat="43.59213" lon="3.10293">
        <ele>218.8</ele>
        <time>2014-02-20T11:05:32.386Z</time>
      </trkpt>
      <trkpt lat="43.59212" lon="3.1029">
        <ele>215.3</ele>
        <time>2014-02-20T11:05:32.532Z</time>
      </trkpt>
      <trkpt lat="43.59208" lon="3.10282">
        <ele>215.1</ele>
        <time>2014-02-20T11:05:33.505Z</time>
      </trkpt>
      <trkpt lat="43.59206" lon="3.10273">
        <ele>213.5</ele>
        <time>2014-02-20T11:05:34.502Z</time>
      </trkpt>
      <trkpt lat="43.59203" lon="3.10265">
        <ele>213.3</ele>
        <time>2014-02-20T11:05:35.501Z</time>
      </trkpt>
      <trkpt lat="43.59201" lon="3.10257">
        <ele>213.4</ele>
        <time>2014-02-20T11:05:36.502Z</time>
      </trkpt>
      <trkpt lat="43.59199" lon="3.10249">
        <ele>213.1</ele>
        <time>2014-02-20T11:05:37.496Z</time>
      </trkpt>
      <trkpt lat="43.59198" lon="3.10243">
        <ele>211.5</ele>
        <time>2014-02-20T11:05:38.497Z</time>
      </trkpt>
      <trkpt lat="43.59196" lon="3.10238">
        <ele>209.4</ele>
        <time>2014-02-20T11:05:39.500Z</time>
      </trkpt>
      <trkpt lat="43.59194" lon="3.10232">
        <ele>207.3</ele>
        <time>2014-02-20T11:05:40.502Z</time>
      </trkpt>
      <trkpt lat="43.59193" lon="3.10226">
        <ele>205.7</ele>
        <time>2014-02-20T11:05:41.506Z</time>
      </trkpt>
      <trkpt lat="43.5919" lon="3.10219">
        <ele>204.9</ele>
        <time>2014-02-20T11:05:42.500Z</time>
      </trkpt>
      <trkpt lat="43.59187" lon="3.10213">
        <ele>204.3</ele>
        <time>2014-02-20T11:05:43.496Z</time>
      </trkpt>
      <trkpt lat="43.59184" lon="3.10207">
        <ele>203.4</ele>
        <time>2014-02-20T11:05:44.494Z</time>
      </trkpt>
      <trkpt lat="43.59182" lon="3.10201">
        <ele>202.4</ele>
        <time>2014-02-20T11:05:45.495Z</time>
      </trkpt>
      <trkpt lat="43.59179" lon="3.10195">
        <ele>201.9</ele>
        <time>2014-02-20T11:05:46.496Z</time>
      </trkpt>
      <trkpt lat="43.59177" lon="3.10187">
        <ele>202.6</ele>
        <time>2014-02-20T11:05:47.496Z</time>
      </trkpt>
      <trkpt lat="43.59175" lon="3.10181">
        <ele>202.4</ele>
        <time>2014-02-20T11:05:48.494Z</time>
      </trkpt>
      <trkpt lat="43.59173" lon="3.10175">
        <ele>204.2</ele>
        <time>2014-02-20T11:05:49.491Z</time>
      </trkpt>
      <trkpt lat="43.5917" lon="3.10169">
        <ele>204.7</ele>
        <time>2014-02-20T11:05:50.491Z</time>
      </trkpt>
      <trkpt lat="43.59168" lon="3.10164">
        <ele>205.2</ele>
        <time>2014-02-20T11:05:51.504Z</time>
      </trkpt>
      <trkpt lat="43.59163" lon="3.10153">
        <ele>205</ele>
        <time>2014-02-20T11:05:54.245Z</time>
      </trkpt>
      <trkpt lat="43.59161" lon="3.10152">
        <ele>204.7</ele>
        <time>2014-02-20T11:05:54.495Z</time>
      </trkpt>
      <trkpt lat="43.59158" lon="3.10145">
        <ele>205.3</ele>
        <time>2014-02-20T11:05:55.496Z</time>
      </trkpt>
      <trkpt lat="43.59155" lon="3.10137">
        <ele>208.2</ele>
        <time>2014-02-20T11:05:56.493Z</time>
      </trkpt>
      <trkpt lat="43.59152" lon="3.1013">
        <ele>209.4</ele>
        <time>2014-02-20T11:05:57.496Z</time>
      </trkpt>
      <trkpt lat="43.59149" lon="3.10124">
        <ele>209.5</ele>
        <time>2014-02-20T11:05:58.494Z</time>
      </trkpt>
      <trkpt lat="43.59147" lon="3.10118">
        <ele>209.1</ele>
        <time>2014-02-20T11:05:59.492Z</time>
      </trkpt>
      <trkpt lat="43.59144" lon="3.10111">
        <ele>210.9</ele>
        <time>2014-02-20T11:06:00.504Z</time>
      </trkpt>
      <trkpt lat="43.59141" lon="3.10106">
        <ele>210.5</ele>
        <time>2014-02-20T11:06:01.505Z</time>
      </trkpt>
      <trkpt lat="43.59138" lon="3.101">
        <ele>210.4</ele>
        <time>2014-02-20T11:06:02.499Z</time>
      </trkpt>
      <trkpt lat="43.59134" lon="3.10093">
        <ele>210.3</ele>
        <time>2014-02-20T11:06:03.940Z</time>
      </trkpt>
      <trkpt lat="43.59131" lon="3.1009">
        <ele>209.8</ele>
        <time>2014-02-20T11:06:04.499Z</time>
      </trkpt>
      <trkpt lat="43.59128" lon="3.10084">
        <ele>209.4</ele>
        <time>2014-02-20T11:06:05.496Z</time>
      </trkpt>
      <trkpt lat="43.59125" lon="3.10078">
        <ele>208.4</ele>
        <time>2014-02-20T11:06:06.501Z</time>
      </trkpt>
      <trkpt lat="43.5912" lon="3.10069">
        <ele>207.6</ele>
        <time>2014-02-20T11:06:08.709Z</time>
      </trkpt>
      <trkpt lat="43.59116" lon="3.10065">
        <ele>206.8</ele>
        <time>2014-02-20T11:06:09.500Z</time>
      </trkpt>
      <trkpt lat="43.59112" lon="3.1006">
        <ele>206.1</ele>
        <time>2014-02-20T11:06:10.503Z</time>
      </trkpt>
      <trkpt lat="43.59109" lon="3.10056">
        <ele>205.7</ele>
        <time>2014-02-20T11:06:11.494Z</time>
      </trkpt>
      <trkpt lat="43.59104" lon="3.10048">
        <ele>204</ele>
        <time>2014-02-20T11:06:13.556Z</time>
      </trkpt>
      <trkpt lat="43.59101" lon="3.10044">
        <ele>202.4</ele>
        <time>2014-02-20T11:06:14.500Z</time>
      </trkpt>
      <trkpt lat="43.59097" lon="3.10039">
        <ele>200.7</ele>
        <time>2014-02-20T11:06:15.501Z</time>
      </trkpt>
      <trkpt lat="43.59094" lon="3.10035">
        <ele>200.2</ele>
        <time>2014-02-20T11:06:16.503Z</time>
      </trkpt>
      <trkpt lat="43.59091" lon="3.10029">
        <ele>198.7</ele>
        <time>2014-02-20T11:06:17.499Z</time>
      </trkpt>
      <trkpt lat="43.59087" lon="3.10023">
        <ele>198.2</ele>
        <time>2014-02-20T11:06:18.538Z</time>
      </trkpt>
      <trkpt lat="43.59084" lon="3.10017">
        <ele>201.3</ele>
        <time>2014-02-20T11:06:19.495Z</time>
      </trkpt>
      <trkpt lat="43.59081" lon="3.10011">
        <ele>201.3</ele>
        <time>2014-02-20T11:06:20.492Z</time>
      </trkpt>
      <trkpt lat="43.59077" lon="3.10006">
        <ele>201.2</ele>
        <time>2014-02-20T11:06:21.494Z</time>
      </trkpt>
      <trkpt lat="43.59074" lon="3.10002">
        <ele>201.5</ele>
        <time>2014-02-20T11:06:22.494Z</time>
      </trkpt>
      <trkpt lat="43.59069" lon="3.09995">
        <ele>198.9</ele>
        <time>2014-02-20T11:06:24.492Z</time>
      </trkpt>
      <trkpt lat="43.59066" lon="3.09992">
        <ele>198.7</ele>
        <time>2014-02-20T11:06:25.493Z</time>
      </trkpt>
      <trkpt lat="43.59061" lon="3.09983">
        <ele>200.2</ele>
        <time>2014-02-20T11:06:27.496Z</time>
      </trkpt>
      <trkpt lat="43.59058" lon="3.09979">
        <ele>201</ele>
        <time>2014-02-20T11:06:28.496Z</time>
      </trkpt>
      <trkpt lat="43.59052" lon="3.09971">
        <ele>203</ele>
        <time>2014-02-20T11:06:30.497Z</time>
      </trkpt>
      <trkpt lat="43.59048" lon="3.09968">
        <ele>203.5</ele>
        <time>2014-02-20T11:06:31.497Z</time>
      </trkpt>
      <trkpt lat="43.59042" lon="3.09961">
        <ele>206.4</ele>
        <time>2014-02-20T11:06:33.493Z</time>
      </trkpt>
      <trkpt lat="43.59038" lon="3.09957">
        <ele>207</ele>
        <time>2014-02-20T11:06:34.932Z</time>
      </trkpt>
      <trkpt lat="43.58916" lon="3.09804">
        <ele>204.5</ele>
        <time>2014-02-20T11:07:10.509Z</time>
      </trkpt>
      <trkpt lat="43.58911" lon="3.09794">
        <ele>211.3</ele>
        <time>2014-02-20T11:07:11.499Z</time>
      </trkpt>
      <trkpt lat="43.58907" lon="3.09783">
        <ele>213.2</ele>
        <time>2014-02-20T11:07:13.525Z</time>
      </trkpt>
      <trkpt lat="43.58904" lon="3.0978">
        <ele>213</ele>
        <time>2014-02-20T11:07:14.504Z</time>
      </trkpt>
      <trkpt lat="43.58898" lon="3.09772">
        <ele>214.3</ele>
        <time>2014-02-20T11:07:16.505Z</time>
      </trkpt>
      <trkpt lat="43.58895" lon="3.09769">
        <ele>213.2</ele>
        <time>2014-02-20T11:07:17.503Z</time>
      </trkpt>
      <trkpt lat="43.58892" lon="3.09762">
        <ele>203.9</ele>
        <time>2014-02-20T11:07:18.507Z</time>
      </trkpt>
      <trkpt lat="43.58889" lon="3.09755">
        <ele>199.8</ele>
        <time>2014-02-20T11:07:19.510Z</time>
      </trkpt>
      <trkpt lat="43.58887" lon="3.09747">
        <ele>197.3</ele>
        <time>2014-02-20T11:07:20.504Z</time>
      </trkpt>
      <trkpt lat="43.58885" lon="3.0974">
        <ele>200.2</ele>
        <time>2014-02-20T11:07:21.504Z</time>
      </trkpt>
      <trkpt lat="43.58883" lon="3.09733">
        <ele>200.1</ele>
        <time>2014-02-20T11:07:22.510Z</time>
      </trkpt>
      <trkpt lat="43.58881" lon="3.09726">
        <ele>200.2</ele>
        <time>2014-02-20T11:07:23.506Z</time>
      </trkpt>
      <trkpt lat="43.5888" lon="3.09719">
        <ele>201.2</ele>
        <time>2014-02-20T11:07:24.509Z</time>
      </trkpt>
      <trkpt lat="43.58879" lon="3.09712">
        <ele>201.8</ele>
        <time>2014-02-20T11:07:25.508Z</time>
      </trkpt>
      <trkpt lat="43.58877" lon="3.09705">
        <ele>202.3</ele>
        <time>2014-02-20T11:07:26.507Z</time>
      </trkpt>
      <trkpt lat="43.58875" lon="3.097">
        <ele>201.7</ele>
        <time>2014-02-20T11:07:27.506Z</time>
      </trkpt>
      <trkpt lat="43.58874" lon="3.0969">
        <ele>201.7</ele>
        <time>2014-02-20T11:07:29.502Z</time>
      </trkpt>
      <trkpt lat="43.58874" lon="3.09684">
        <ele>201.6</ele>
        <time>2014-02-20T11:07:30.505Z</time>
      </trkpt>
      <trkpt lat="43.58874" lon="3.09674">
        <ele>201.8</ele>
        <time>2014-02-20T11:07:32.503Z</time>
      </trkpt>
      <trkpt lat="43.58873" lon="3.09669">
        <ele>202.1</ele>
        <time>2014-02-20T11:07:33.605Z</time>
      </trkpt>
      <trkpt lat="43.58873" lon="3.09661">
        <ele>203.1</ele>
        <time>2014-02-20T11:07:35.502Z</time>
      </trkpt>
      <trkpt lat="43.58872" lon="3.09655">
        <ele>204.1</ele>
        <time>2014-02-20T11:07:36.506Z</time>
      </trkpt>
      <trkpt lat="43.58871" lon="3.09648">
        <ele>205.2</ele>
        <time>2014-02-20T11:07:37.506Z</time>
      </trkpt>
      <trkpt lat="43.5887" lon="3.0964">
        <ele>205.6</ele>
        <time>2014-02-20T11:07:38.523Z</time>
      </trkpt>
      <trkpt lat="43.58869" lon="3.09633">
        <ele>204.3</ele>
        <time>2014-02-20T11:07:39.500Z</time>
      </trkpt>
      <trkpt lat="43.58867" lon="3.09625">
        <ele>207.1</ele>
        <time>2014-02-20T11:07:40.498Z</time>
      </trkpt>
      <trkpt lat="43.58866" lon="3.09619">
        <ele>208</ele>
        <time>2014-02-20T11:07:41.498Z</time>
      </trkpt>
      <trkpt lat="43.58866" lon="3.09613">
        <ele>208</ele>
        <time>2014-02-20T11:07:42.491Z</time>
      </trkpt>
      <trkpt lat="43.58865" lon="3.09602">
        <ele>209.1</ele>
        <time>2014-02-20T11:07:44.494Z</time>
      </trkpt>
      <trkpt lat="43.58864" lon="3.09596">
        <ele>208.6</ele>
        <time>2014-02-20T11:07:45.497Z</time>
      </trkpt>
      <trkpt lat="43.58865" lon="3.09585">
        <ele>213.1</ele>
        <time>2014-02-20T11:07:47.494Z</time>
      </trkpt>
      <trkpt lat="43.58865" lon="3.0958">
        <ele>213.6</ele>
        <time>2014-02-20T11:07:48.498Z</time>
      </trkpt>
      <trkpt lat="43.58866" lon="3.0957">
        <ele>215.3</ele>
        <time>2014-02-20T11:07:50.492Z</time>
      </trkpt>
      <trkpt lat="43.58866" lon="3.09565">
        <ele>216.1</ele>
        <time>2014-02-20T11:07:51.494Z</time>
      </trkpt>
      <trkpt lat="43.58866" lon="3.09558">
        <ele>216.4</ele>
        <time>2014-02-20T11:07:52.497Z</time>
      </trkpt>
      <trkpt lat="43.58867" lon="3.09551">
        <ele>217.2</ele>
        <time>2014-02-20T11:07:53.495Z</time>
      </trkpt>
      <trkpt lat="43.58867" lon="3.09539">
        <ele>219.8</ele>
        <time>2014-02-20T11:07:55.494Z</time>
      </trkpt>
      <trkpt lat="43.58868" lon="3.09534">
        <ele>219.7</ele>
        <time>2014-02-20T11:07:56.495Z</time>
      </trkpt>
      <trkpt lat="43.58868" lon="3.09522">
        <ele>221.1</ele>
        <time>2014-02-20T11:07:58.499Z</time>
      </trkpt>
      <trkpt lat="43.58869" lon="3.09516">
        <ele>223.8</ele>
        <time>2014-02-20T11:07:59.494Z</time>
      </trkpt>
      <trkpt lat="43.58869" lon="3.0951">
        <ele>224.2</ele>
        <time>2014-02-20T11:08:00.493Z</time>
      </trkpt>
      <trkpt lat="43.58869" lon="3.09503">
        <ele>224.6</ele>
        <time>2014-02-20T11:08:01.491Z</time>
      </trkpt>
      <trkpt lat="43.5887" lon="3.09492">
        <ele>226</ele>
        <time>2014-02-20T11:08:03.491Z</time>
      </trkpt>
      <trkpt lat="43.58871" lon="3.09488">
        <ele>225.8</ele>
        <time>2014-02-20T11:08:04.495Z</time>
      </trkpt>
      <trkpt lat="43.58874" lon="3.09477">
        <ele>229</ele>
        <time>2014-02-20T11:08:06.492Z</time>
      </trkpt>
      <trkpt lat="43.58876" lon="3.0947">
        <ele>229.4</ele>
        <time>2014-02-20T11:08:07.491Z</time>
      </trkpt>
      <trkpt lat="43.58878" lon="3.09465">
        <ele>229.7</ele>
        <time>2014-02-20T11:08:08.492Z</time>
      </trkpt>
      <trkpt lat="43.58878" lon="3.09456">
        <ele>230.5</ele>
        <time>2014-02-20T11:08:09.494Z</time>
      </trkpt>
      <trkpt lat="43.58878" lon="3.09448">
        <ele>233.1</ele>
        <time>2014-02-20T11:08:10.513Z</time>
      </trkpt>
      <trkpt lat="43.58878" lon="3.09442">
        <ele>233.7</ele>
        <time>2014-02-20T11:08:11.489Z</time>
      </trkpt>
      <trkpt lat="43.58879" lon="3.09431">
        <ele>233.9</ele>
        <time>2014-02-20T11:08:13.494Z</time>
      </trkpt>
      <trkpt lat="43.58879" lon="3.09426">
        <ele>234.3</ele>
        <time>2014-02-20T11:08:14.494Z</time>
      </trkpt>
      <trkpt lat="43.5888" lon="3.0942">
        <ele>233.9</ele>
        <time>2014-02-20T11:08:15.495Z</time>
      </trkpt>
      <trkpt lat="43.58882" lon="3.09413">
        <ele>233.7</ele>
        <time>2014-02-20T11:08:16.492Z</time>
      </trkpt>
      <trkpt lat="43.58883" lon="3.09406">
        <ele>233.5</ele>
        <time>2014-02-20T11:08:17.491Z</time>
      </trkpt>
      <trkpt lat="43.58885" lon="3.09398">
        <ele>232.4</ele>
        <time>2014-02-20T11:08:18.495Z</time>
      </trkpt>
      <trkpt lat="43.58886" lon="3.09391">
        <ele>233.4</ele>
        <time>2014-02-20T11:08:19.496Z</time>
      </trkpt>
      <trkpt lat="43.58886" lon="3.09385">
        <ele>233.8</ele>
        <time>2014-02-20T11:08:20.496Z</time>
      </trkpt>
      <trkpt lat="43.58887" lon="3.09373">
        <ele>234.5</ele>
        <time>2014-02-20T11:08:22.496Z</time>
      </trkpt>
      <trkpt lat="43.58886" lon="3.09367">
        <ele>234.7</ele>
        <time>2014-02-20T11:08:23.497Z</time>
      </trkpt>
      <trkpt lat="43.58887" lon="3.09358">
        <ele>235.2</ele>
        <time>2014-02-20T11:08:25.500Z</time>
      </trkpt>
      <trkpt lat="43.58887" lon="3.09352">
        <ele>235.2</ele>
        <time>2014-02-20T11:08:26.494Z</time>
      </trkpt>
      <trkpt lat="43.58888" lon="3.09342">
        <ele>235.5</ele>
        <time>2014-02-20T11:08:28.494Z</time>
      </trkpt>
      <trkpt lat="43.58888" lon="3.09337">
        <ele>236.3</ele>
        <time>2014-02-20T11:08:29.500Z</time>
      </trkpt>
      <trkpt lat="43.58887" lon="3.0933">
        <ele>236.8</ele>
        <time>2014-02-20T11:08:30.497Z</time>
      </trkpt>
      <trkpt lat="43.58887" lon="3.09323">
        <ele>236.7</ele>
        <time>2014-02-20T11:08:31.497Z</time>
      </trkpt>
      <trkpt lat="43.58886" lon="3.09316">
        <ele>236.4</ele>
        <time>2014-02-20T11:08:32.496Z</time>
      </trkpt>
      <trkpt lat="43.58886" lon="3.09308">
        <ele>237.4</ele>
        <time>2014-02-20T11:08:33.498Z</time>
      </trkpt>
      <trkpt lat="43.58887" lon="3.09297">
        <ele>240.1</ele>
        <time>2014-02-20T11:08:35.493Z</time>
      </trkpt>
      <trkpt lat="43.58886" lon="3.09293">
        <ele>242.2</ele>
        <time>2014-02-20T11:08:36.496Z</time>
      </trkpt>
      <trkpt lat="43.58886" lon="3.09285">
        <ele>242.9</ele>
        <time>2014-02-20T11:08:38.492Z</time>
      </trkpt>
      <trkpt lat="43.58886" lon="3.0928">
        <ele>242.8</ele>
        <time>2014-02-20T11:08:39.492Z</time>
      </trkpt>
      <trkpt lat="43.58886" lon="3.09273">
        <ele>242.9</ele>
        <time>2014-02-20T11:08:40.494Z</time>
      </trkpt>
      <trkpt lat="43.58886" lon="3.09264">
        <ele>244.4</ele>
        <time>2014-02-20T11:08:41.645Z</time>
      </trkpt>
      <trkpt lat="43.58886" lon="3.09257">
        <ele>245.3</ele>
        <time>2014-02-20T11:08:42.526Z</time>
      </trkpt>
      <trkpt lat="43.58886" lon="3.09249">
        <ele>245.9</ele>
        <time>2014-02-20T11:08:43.495Z</time>
      </trkpt>
      <trkpt lat="43.58884" lon="3.09242">
        <ele>246.9</ele>
        <time>2014-02-20T11:08:44.491Z</time>
      </trkpt>
      <trkpt lat="43.58883" lon="3.09234">
        <ele>243</ele>
        <time>2014-02-20T11:08:45.494Z</time>
      </trkpt>
      <trkpt lat="43.58881" lon="3.09225">
        <ele>239.4</ele>
        <time>2014-02-20T11:08:46.494Z</time>
      </trkpt>
      <trkpt lat="43.58879" lon="3.09217">
        <ele>236</ele>
        <time>2014-02-20T11:08:47.495Z</time>
      </trkpt>
      <trkpt lat="43.58878" lon="3.0921">
        <ele>234.4</ele>
        <time>2014-02-20T11:08:48.493Z</time>
      </trkpt>
      <trkpt lat="43.58876" lon="3.09203">
        <ele>230.4</ele>
        <time>2014-02-20T11:08:49.491Z</time>
      </trkpt>
      <trkpt lat="43.58874" lon="3.09196">
        <ele>227.3</ele>
        <time>2014-02-20T11:08:50.492Z</time>
      </trkpt>
      <trkpt lat="43.58874" lon="3.0919">
        <ele>226.1</ele>
        <time>2014-02-20T11:08:51.496Z</time>
      </trkpt>
      <trkpt lat="43.58873" lon="3.09183">
        <ele>226.1</ele>
        <time>2014-02-20T11:08:52.496Z</time>
      </trkpt>
      <trkpt lat="43.58874" lon="3.09173">
        <ele>225.8</ele>
        <time>2014-02-20T11:08:55.663Z</time>
      </trkpt>
      <trkpt lat="43.58874" lon="3.09166">
        <ele>227.4</ele>
        <time>2014-02-20T11:08:56.909Z</time>
      </trkpt>
      <trkpt lat="43.58874" lon="3.09159">
        <ele>227.7</ele>
        <time>2014-02-20T11:08:58.272Z</time>
      </trkpt>
      <trkpt lat="43.58875" lon="3.0915">
        <ele>228</ele>
        <time>2014-02-20T11:08:59.562Z</time>
      </trkpt>
      <trkpt lat="43.58874" lon="3.09143">
        <ele>227.8</ele>
        <time>2014-02-20T11:09:00.511Z</time>
      </trkpt>
      <trkpt lat="43.58873" lon="3.09132">
        <ele>227.1</ele>
        <time>2014-02-20T11:09:02.545Z</time>
      </trkpt>
      <trkpt lat="43.58873" lon="3.09127">
        <ele>226.6</ele>
        <time>2014-02-20T11:09:03.501Z</time>
      </trkpt>
      <trkpt lat="43.58872" lon="3.09116">
        <ele>226</ele>
        <time>2014-02-20T11:09:05.501Z</time>
      </trkpt>
      <trkpt lat="43.58871" lon="3.0911">
        <ele>225.5</ele>
        <time>2014-02-20T11:09:06.499Z</time>
      </trkpt>
      <trkpt lat="43.58871" lon="3.09101">
        <ele>223.8</ele>
        <time>2014-02-20T11:09:08.501Z</time>
      </trkpt>
      <trkpt lat="43.5887" lon="3.09096">
        <ele>222.6</ele>
        <time>2014-02-20T11:09:09.503Z</time>
      </trkpt>
      <trkpt lat="43.58869" lon="3.09086">
        <ele>221.9</ele>
        <time>2014-02-20T11:09:11.502Z</time>
      </trkpt>
      <trkpt lat="43.58868" lon="3.09081">
        <ele>221.9</ele>
        <time>2014-02-20T11:09:12.494Z</time>
      </trkpt>
      <trkpt lat="43.58867" lon="3.09074">
        <ele>220.9</ele>
        <time>2014-02-20T11:09:13.499Z</time>
      </trkpt>
      <trkpt lat="43.58867" lon="3.09067">
        <ele>220.5</ele>
        <time>2014-02-20T11:09:14.532Z</time>
      </trkpt>
      <trkpt lat="43.58866" lon="3.0906">
        <ele>220.5</ele>
        <time>2014-02-20T11:09:15.504Z</time>
      </trkpt>
      <trkpt lat="43.58866" lon="3.09053">
        <ele>220.3</ele>
        <time>2014-02-20T11:09:16.502Z</time>
      </trkpt>
      <trkpt lat="43.58865" lon="3.09046">
        <ele>219.8</ele>
        <time>2014-02-20T11:09:17.499Z</time>
      </trkpt>
      <trkpt lat="43.58865" lon="3.09039">
        <ele>219.7</ele>
        <time>2014-02-20T11:09:18.501Z</time>
      </trkpt>
      <trkpt lat="43.58864" lon="3.09029">
        <ele>219.5</ele>
        <time>2014-02-20T11:09:20.498Z</time>
      </trkpt>
      <trkpt lat="43.58864" lon="3.09025">
        <ele>219.3</ele>
        <time>2014-02-20T11:09:21.501Z</time>
      </trkpt>
      <trkpt lat="43.58863" lon="3.09016">
        <ele>218.8</ele>
        <time>2014-02-20T11:09:23.499Z</time>
      </trkpt>
      <trkpt lat="43.58862" lon="3.09011">
        <ele>219</ele>
        <time>2014-02-20T11:09:24.501Z</time>
      </trkpt>
      <trkpt lat="43.58861" lon="3.09">
        <ele>218.6</ele>
        <time>2014-02-20T11:09:26.504Z</time>
      </trkpt>
      <trkpt lat="43.58859" lon="3.08993">
        <ele>217.6</ele>
        <time>2014-02-20T11:09:27.611Z</time>
      </trkpt>
      <trkpt lat="43.58858" lon="3.08987">
        <ele>218</ele>
        <time>2014-02-20T11:09:28.501Z</time>
      </trkpt>
      <trkpt lat="43.58857" lon="3.08981">
        <ele>216.8</ele>
        <time>2014-02-20T11:09:29.499Z</time>
      </trkpt>
      <trkpt lat="43.58855" lon="3.08969">
        <ele>215.8</ele>
        <time>2014-02-20T11:09:31.502Z</time>
      </trkpt>
      <trkpt lat="43.58854" lon="3.08962">
        <ele>216.6</ele>
        <time>2014-02-20T11:09:32.500Z</time>
      </trkpt>
      <trkpt lat="43.58854" lon="3.0895">
        <ele>216.6</ele>
        <time>2014-02-20T11:09:34.503Z</time>
      </trkpt>
      <trkpt lat="43.58855" lon="3.08944">
        <ele>216.7</ele>
        <time>2014-02-20T11:09:35.499Z</time>
      </trkpt>
      <trkpt lat="43.58855" lon="3.08933">
        <ele>215.8</ele>
        <time>2014-02-20T11:09:37.498Z</time>
      </trkpt>
      <trkpt lat="43.58855" lon="3.08927">
        <ele>215.2</ele>
        <time>2014-02-20T11:09:38.497Z</time>
      </trkpt>
      <trkpt lat="43.58855" lon="3.08921">
        <ele>214.7</ele>
        <time>2014-02-20T11:09:39.500Z</time>
      </trkpt>
      <trkpt lat="43.58855" lon="3.08912">
        <ele>214.9</ele>
        <time>2014-02-20T11:09:40.500Z</time>
      </trkpt>
      <trkpt lat="43.58854" lon="3.08903">
        <ele>214.6</ele>
        <time>2014-02-20T11:09:41.499Z</time>
      </trkpt>
      <trkpt lat="43.58853" lon="3.08893">
        <ele>213</ele>
        <time>2014-02-20T11:09:42.496Z</time>
      </trkpt>
      <trkpt lat="43.58848" lon="3.0888">
        <ele>207.9</ele>
        <time>2014-02-20T11:09:43.499Z</time>
      </trkpt>
      <trkpt lat="43.58844" lon="3.08868">
        <ele>204.4</ele>
        <time>2014-02-20T11:09:44.537Z</time>
      </trkpt>
      <trkpt lat="43.5884" lon="3.08859">
        <ele>203.5</ele>
        <time>2014-02-20T11:09:45.511Z</time>
      </trkpt>
      <trkpt lat="43.58837" lon="3.08852">
        <ele>202.5</ele>
        <time>2014-02-20T11:09:46.510Z</time>
      </trkpt>
      <trkpt lat="43.58834" lon="3.08844">
        <ele>200.5</ele>
        <time>2014-02-20T11:09:47.504Z</time>
      </trkpt>
      <trkpt lat="43.58831" lon="3.08838">
        <ele>200.7</ele>
        <time>2014-02-20T11:09:48.507Z</time>
      </trkpt>
      <trkpt lat="43.58829" lon="3.08828">
        <ele>199.9</ele>
        <time>2014-02-20T11:09:50.504Z</time>
      </trkpt>
      <trkpt lat="43.58828" lon="3.08823">
        <ele>199.7</ele>
        <time>2014-02-20T11:09:51.522Z</time>
      </trkpt>
      <trkpt lat="43.58827" lon="3.08814">
        <ele>198.8</ele>
        <time>2014-02-20T11:09:53.502Z</time>
      </trkpt>
      <trkpt lat="43.58827" lon="3.08809">
        <ele>199.1</ele>
        <time>2014-02-20T11:09:54.505Z</time>
      </trkpt>
      <trkpt lat="43.58826" lon="3.08801">
        <ele>198.6</ele>
        <time>2014-02-20T11:09:56.500Z</time>
      </trkpt>
      <trkpt lat="43.58826" lon="3.08796">
        <ele>199.1</ele>
        <time>2014-02-20T11:09:57.504Z</time>
      </trkpt>
      <trkpt lat="43.58824" lon="3.08784">
        <ele>199.3</ele>
        <time>2014-02-20T11:09:59.502Z</time>
      </trkpt>
      <trkpt lat="43.58822" lon="3.08777">
        <ele>198.9</ele>
        <time>2014-02-20T11:10:00.503Z</time>
      </trkpt>
      <trkpt lat="43.5882" lon="3.08771">
        <ele>198</ele>
        <time>2014-02-20T11:10:01.502Z</time>
      </trkpt>
      <trkpt lat="43.58818" lon="3.08765">
        <ele>198.3</ele>
        <time>2014-02-20T11:10:02.501Z</time>
      </trkpt>
      <trkpt lat="43.58815" lon="3.08759">
        <ele>196.5</ele>
        <time>2014-02-20T11:10:03.504Z</time>
      </trkpt>
      <trkpt lat="43.58813" lon="3.08753">
        <ele>193.3</ele>
        <time>2014-02-20T11:10:04.500Z</time>
      </trkpt>
      <trkpt lat="43.58811" lon="3.08746">
        <ele>192.4</ele>
        <time>2014-02-20T11:10:05.504Z</time>
      </trkpt>
      <trkpt lat="43.58809" lon="3.08739">
        <ele>191.7</ele>
        <time>2014-02-20T11:10:06.497Z</time>
      </trkpt>
      <trkpt lat="43.58805" lon="3.08731">
        <ele>186.9</ele>
        <time>2014-02-20T11:10:07.497Z</time>
      </trkpt>
      <trkpt lat="43.58803" lon="3.08723">
        <ele>184.9</ele>
        <time>2014-02-20T11:10:08.495Z</time>
      </trkpt>
      <trkpt lat="43.588" lon="3.08714">
        <ele>182.6</ele>
        <time>2014-02-20T11:10:09.506Z</time>
      </trkpt>
      <trkpt lat="43.58799" lon="3.08709">
        <ele>178.7</ele>
        <time>2014-02-20T11:10:10.504Z</time>
      </trkpt>
      <trkpt lat="43.58799" lon="3.08699">
        <ele>178.6</ele>
        <time>2014-02-20T11:10:13.494Z</time>
      </trkpt>
      <trkpt lat="43.58799" lon="3.08696">
        <ele>178.1</ele>
        <time>2014-02-20T11:10:14.493Z</time>
      </trkpt>
      <trkpt lat="43.58798" lon="3.08686">
        <ele>179.2</ele>
        <time>2014-02-20T11:10:16.494Z</time>
      </trkpt>
      <trkpt lat="43.58796" lon="3.08681">
        <ele>178.2</ele>
        <time>2014-02-20T11:10:17.497Z</time>
      </trkpt>
      <trkpt lat="43.58795" lon="3.08675">
        <ele>176.7</ele>
        <time>2014-02-20T11:10:18.498Z</time>
      </trkpt>
      <trkpt lat="43.58794" lon="3.08668">
        <ele>173.8</ele>
        <time>2014-02-20T11:10:19.497Z</time>
      </trkpt>
      <trkpt lat="43.58793" lon="3.08661">
        <ele>170.9</ele>
        <time>2014-02-20T11:10:20.493Z</time>
      </trkpt>
      <trkpt lat="43.58793" lon="3.08655">
        <ele>170.5</ele>
        <time>2014-02-20T11:10:21.498Z</time>
      </trkpt>
      <trkpt lat="43.58792" lon="3.08648">
        <ele>169.2</ele>
        <time>2014-02-20T11:10:22.500Z</time>
      </trkpt>
      <trkpt lat="43.58791" lon="3.08641">
        <ele>167.4</ele>
        <time>2014-02-20T11:10:23.497Z</time>
      </trkpt>
      <trkpt lat="43.5879" lon="3.08634">
        <ele>167.1</ele>
        <time>2014-02-20T11:10:24.498Z</time>
      </trkpt>
      <trkpt lat="43.5879" lon="3.08625">
        <ele>165.1</ele>
        <time>2014-02-20T11:10:25.498Z</time>
      </trkpt>
      <trkpt lat="43.58789" lon="3.08616">
        <ele>164.3</ele>
        <time>2014-02-20T11:10:26.495Z</time>
      </trkpt>
      <trkpt lat="43.58787" lon="3.08607">
        <ele>164.6</ele>
        <time>2014-02-20T11:10:27.534Z</time>
      </trkpt>
      <trkpt lat="43.58785" lon="3.08599">
        <ele>164.7</ele>
        <time>2014-02-20T11:10:28.488Z</time>
      </trkpt>
      <trkpt lat="43.58783" lon="3.08592">
        <ele>164</ele>
        <time>2014-02-20T11:10:29.492Z</time>
      </trkpt>
      <trkpt lat="43.58782" lon="3.08581">
        <ele>164.6</ele>
        <time>2014-02-20T11:10:31.499Z</time>
      </trkpt>
      <trkpt lat="43.58782" lon="3.08575">
        <ele>163.5</ele>
        <time>2014-02-20T11:10:32.494Z</time>
      </trkpt>
      <trkpt lat="43.5878" lon="3.08563">
        <ele>163.5</ele>
        <time>2014-02-20T11:10:34.492Z</time>
      </trkpt>
      <trkpt lat="43.58779" lon="3.08558">
        <ele>161.7</ele>
        <time>2014-02-20T11:10:35.495Z</time>
      </trkpt>
      <trkpt lat="43.58777" lon="3.08547">
        <ele>159.7</ele>
        <time>2014-02-20T11:10:37.504Z</time>
      </trkpt>
      <trkpt lat="43.58776" lon="3.08542">
        <ele>159.9</ele>
        <time>2014-02-20T11:10:38.493Z</time>
      </trkpt>
      <trkpt lat="43.58773" lon="3.08531">
        <ele>161.7</ele>
        <time>2014-02-20T11:10:40.494Z</time>
      </trkpt>
      <trkpt lat="43.58772" lon="3.08525">
        <ele>161.3</ele>
        <time>2014-02-20T11:10:41.494Z</time>
      </trkpt>
      <trkpt lat="43.58771" lon="3.08513">
        <ele>162.2</ele>
        <time>2014-02-20T11:10:43.486Z</time>
      </trkpt>
      <trkpt lat="43.58771" lon="3.08507">
        <ele>161.9</ele>
        <time>2014-02-20T11:10:44.493Z</time>
      </trkpt>
      <trkpt lat="43.58771" lon="3.085">
        <ele>162.5</ele>
        <time>2014-02-20T11:10:45.497Z</time>
      </trkpt>
      <trkpt lat="43.5877" lon="3.08493">
        <ele>163.3</ele>
        <time>2014-02-20T11:10:46.496Z</time>
      </trkpt>
      <trkpt lat="43.5877" lon="3.08486">
        <ele>162.4</ele>
        <time>2014-02-20T11:10:47.495Z</time>
      </trkpt>
      <trkpt lat="43.5877" lon="3.0848">
        <ele>161.5</ele>
        <time>2014-02-20T11:10:48.495Z</time>
      </trkpt>
      <trkpt lat="43.58769" lon="3.08469">
        <ele>161.7</ele>
        <time>2014-02-20T11:10:50.496Z</time>
      </trkpt>
      <trkpt lat="43.58768" lon="3.08464">
        <ele>162.6</ele>
        <time>2014-02-20T11:10:51.496Z</time>
      </trkpt>
      <trkpt lat="43.58768" lon="3.08457">
        <ele>161.9</ele>
        <time>2014-02-20T11:10:52.495Z</time>
      </trkpt>
      <trkpt lat="43.58767" lon="3.08451">
        <ele>160.8</ele>
        <time>2014-02-20T11:10:53.493Z</time>
      </trkpt>
      <trkpt lat="43.58767" lon="3.08444">
        <ele>160.4</ele>
        <time>2014-02-20T11:10:54.499Z</time>
      </trkpt>
      <trkpt lat="43.58767" lon="3.08437">
        <ele>160</ele>
        <time>2014-02-20T11:10:55.496Z</time>
      </trkpt>
      <trkpt lat="43.58768" lon="3.08431">
        <ele>159.5</ele>
        <time>2014-02-20T11:10:56.513Z</time>
      </trkpt>
      <trkpt lat="43.58768" lon="3.08423">
        <ele>157.4</ele>
        <time>2014-02-20T11:10:57.496Z</time>
      </trkpt>
      <trkpt lat="43.58769" lon="3.08415">
        <ele>155.9</ele>
        <time>2014-02-20T11:10:58.501Z</time>
      </trkpt>
      <trkpt lat="43.58769" lon="3.08406">
        <ele>156.6</ele>
        <time>2014-02-20T11:10:59.497Z</time>
      </trkpt>
      <trkpt lat="43.58768" lon="3.08396">
        <ele>156</ele>
        <time>2014-02-20T11:11:00.498Z</time>
      </trkpt>
      <trkpt lat="43.58768" lon="3.08388">
        <ele>156</ele>
        <time>2014-02-20T11:11:01.500Z</time>
      </trkpt>
      <trkpt lat="43.58767" lon="3.08379">
        <ele>155.3</ele>
        <time>2014-02-20T11:11:02.493Z</time>
      </trkpt>
      <trkpt lat="43.58767" lon="3.0837">
        <ele>156.7</ele>
        <time>2014-02-20T11:11:03.496Z</time>
      </trkpt>
      <trkpt lat="43.58767" lon="3.08361">
        <ele>157.8</ele>
        <time>2014-02-20T11:11:04.495Z</time>
      </trkpt>
      <trkpt lat="43.58766" lon="3.08352">
        <ele>157.8</ele>
        <time>2014-02-20T11:11:05.496Z</time>
      </trkpt>
      <trkpt lat="43.58766" lon="3.08345">
        <ele>157.9</ele>
        <time>2014-02-20T11:11:06.493Z</time>
      </trkpt>
      <trkpt lat="43.58766" lon="3.08338">
        <ele>158.3</ele>
        <time>2014-02-20T11:11:07.502Z</time>
      </trkpt>
      <trkpt lat="43.58766" lon="3.0833">
        <ele>157.6</ele>
        <time>2014-02-20T11:11:08.501Z</time>
      </trkpt>
      <trkpt lat="43.58765" lon="3.08323">
        <ele>156.6</ele>
        <time>2014-02-20T11:11:09.510Z</time>
      </trkpt>
      <trkpt lat="43.58764" lon="3.08315">
        <ele>156.4</ele>
        <time>2014-02-20T11:11:10.503Z</time>
      </trkpt>
      <trkpt lat="43.58763" lon="3.08307">
        <ele>155.5</ele>
        <time>2014-02-20T11:11:11.499Z</time>
      </trkpt>
      <trkpt lat="43.58762" lon="3.08298">
        <ele>155.6</ele>
        <time>2014-02-20T11:11:12.499Z</time>
      </trkpt>
      <trkpt lat="43.58762" lon="3.0829">
        <ele>155.3</ele>
        <time>2014-02-20T11:11:13.499Z</time>
      </trkpt>
      <trkpt lat="43.58762" lon="3.08283">
        <ele>154.1</ele>
        <time>2014-02-20T11:11:14.526Z</time>
      </trkpt>
      <trkpt lat="43.58761" lon="3.08276">
        <ele>152.5</ele>
        <time>2014-02-20T11:11:15.524Z</time>
      </trkpt>
      <trkpt lat="43.5876" lon="3.08266">
        <ele>151.2</ele>
        <time>2014-02-20T11:11:17.503Z</time>
      </trkpt>
      <trkpt lat="43.5876" lon="3.08261">
        <ele>149.8</ele>
        <time>2014-02-20T11:11:18.507Z</time>
      </trkpt>
      <trkpt lat="43.58762" lon="3.08252">
        <ele>148.5</ele>
        <time>2014-02-20T11:11:20.500Z</time>
      </trkpt>
      <trkpt lat="43.58762" lon="3.08247">
        <ele>147.8</ele>
        <time>2014-02-20T11:11:21.502Z</time>
      </trkpt>
      <trkpt lat="43.58763" lon="3.08236">
        <ele>145.3</ele>
        <time>2014-02-20T11:11:23.500Z</time>
      </trkpt>
      <trkpt lat="43.58763" lon="3.0823">
        <ele>146</ele>
        <time>2014-02-20T11:11:24.503Z</time>
      </trkpt>
      <trkpt lat="43.58762" lon="3.08218">
        <ele>145.1</ele>
        <time>2014-02-20T11:11:26.510Z</time>
      </trkpt>
      <trkpt lat="43.58762" lon="3.08213">
        <ele>144.4</ele>
        <time>2014-02-20T11:11:27.503Z</time>
      </trkpt>
      <trkpt lat="43.58766" lon="3.08205">
        <ele>144.7</ele>
        <time>2014-02-20T11:11:29.501Z</time>
      </trkpt>
      <trkpt lat="43.58767" lon="3.08202">
        <ele>144</ele>
        <time>2014-02-20T11:11:30.505Z</time>
      </trkpt>
      <trkpt lat="43.5877" lon="3.08193">
        <ele>142.8</ele>
        <time>2014-02-20T11:11:32.501Z</time>
      </trkpt>
      <trkpt lat="43.58771" lon="3.08188">
        <ele>141.7</ele>
        <time>2014-02-20T11:11:33.536Z</time>
      </trkpt>
      <trkpt lat="43.58773" lon="3.08182">
        <ele>142.6</ele>
        <time>2014-02-20T11:11:34.822Z</time>
      </trkpt>
      <trkpt lat="43.58776" lon="3.08101">
        <ele>190.5</ele>
        <time>2014-02-20T11:12:37.496Z</time>
      </trkpt>
      <trkpt lat="43.5878" lon="3.08092">
        <ele>198.2</ele>
        <time>2014-02-20T11:12:39.508Z</time>
      </trkpt>
      <trkpt lat="43.58781" lon="3.08086">
        <ele>203.6</ele>
        <time>2014-02-20T11:12:40.506Z</time>
      </trkpt>
      <trkpt lat="43.58783" lon="3.08076">
        <ele>207.2</ele>
        <time>2014-02-20T11:12:43.503Z</time>
      </trkpt>
      <trkpt lat="43.58784" lon="3.08073">
        <ele>208.5</ele>
        <time>2014-02-20T11:12:44.502Z</time>
      </trkpt>
      <trkpt lat="43.58786" lon="3.08065">
        <ele>210.2</ele>
        <time>2014-02-20T11:12:46.504Z</time>
      </trkpt>
      <trkpt lat="43.58789" lon="3.08057">
        <ele>214.8</ele>
        <time>2014-02-20T11:12:47.501Z</time>
      </trkpt>
      <trkpt lat="43.5879" lon="3.0805">
        <ele>214.2</ele>
        <time>2014-02-20T11:12:48.502Z</time>
      </trkpt>
      <trkpt lat="43.58791" lon="3.08044">
        <ele>216.7</ele>
        <time>2014-02-20T11:12:49.503Z</time>
      </trkpt>
      <trkpt lat="43.58792" lon="3.08036">
        <ele>219.1</ele>
        <time>2014-02-20T11:12:50.503Z</time>
      </trkpt>
      <trkpt lat="43.58793" lon="3.08028">
        <ele>221.1</ele>
        <time>2014-02-20T11:12:51.502Z</time>
      </trkpt>
      <trkpt lat="43.58794" lon="3.08009">
        <ele>214.4</ele>
        <time>2014-02-20T11:12:54.499Z</time>
      </trkpt>
      <trkpt lat="43.58793" lon="3.08004">
        <ele>214.8</ele>
        <time>2014-02-20T11:12:55.501Z</time>
      </trkpt>
      <trkpt lat="43.58793" lon="3.07995">
        <ele>213.8</ele>
        <time>2014-02-20T11:12:57.502Z</time>
      </trkpt>
      <trkpt lat="43.58795" lon="3.07983">
        <ele>214.8</ele>
        <time>2014-02-20T11:12:59.499Z</time>
      </trkpt>
      <trkpt lat="43.58797" lon="3.07976">
        <ele>215.7</ele>
        <time>2014-02-20T11:13:00.498Z</time>
      </trkpt>
      <trkpt lat="43.58799" lon="3.07968">
        <ele>211.8</ele>
        <time>2014-02-20T11:13:01.498Z</time>
      </trkpt>
      <trkpt lat="43.588" lon="3.07961">
        <ele>203.8</ele>
        <time>2014-02-20T11:13:02.495Z</time>
      </trkpt>
      <trkpt lat="43.58801" lon="3.07955">
        <ele>200.2</ele>
        <time>2014-02-20T11:13:03.506Z</time>
      </trkpt>
      <trkpt lat="43.58803" lon="3.07949">
        <ele>200.5</ele>
        <time>2014-02-20T11:13:04.501Z</time>
      </trkpt>
      <trkpt lat="43.58807" lon="3.0794">
        <ele>201.1</ele>
        <time>2014-02-20T11:13:06.502Z</time>
      </trkpt>
      <trkpt lat="43.58808" lon="3.07936">
        <ele>201.1</ele>
        <time>2014-02-20T11:13:07.501Z</time>
      </trkpt>
      <trkpt lat="43.58811" lon="3.07925">
        <ele>201.4</ele>
        <time>2014-02-20T11:13:11.500Z</time>
      </trkpt>
      <trkpt lat="43.58813" lon="3.07922">
        <ele>201.4</ele>
        <time>2014-02-20T11:13:12.503Z</time>
      </trkpt>
      <trkpt lat="43.58817" lon="3.07916">
        <ele>201.4</ele>
        <time>2014-02-20T11:13:14.500Z</time>
      </trkpt>
      <trkpt lat="43.58819" lon="3.07912">
        <ele>201.3</ele>
        <time>2014-02-20T11:13:15.504Z</time>
      </trkpt>
      <trkpt lat="43.58823" lon="3.07903">
        <ele>199.1</ele>
        <time>2014-02-20T11:13:17.496Z</time>
      </trkpt>
      <trkpt lat="43.58825" lon="3.07896">
        <ele>199.2</ele>
        <time>2014-02-20T11:13:18.506Z</time>
      </trkpt>
      <trkpt lat="43.58826" lon="3.07888">
        <ele>199.4</ele>
        <time>2014-02-20T11:13:19.504Z</time>
      </trkpt>
      <trkpt lat="43.58827" lon="3.07881">
        <ele>199.4</ele>
        <time>2014-02-20T11:13:20.501Z</time>
      </trkpt>
      <trkpt lat="43.58828" lon="3.07874">
        <ele>197.8</ele>
        <time>2014-02-20T11:13:21.504Z</time>
      </trkpt>
      <trkpt lat="43.58828" lon="3.07867">
        <ele>198</ele>
        <time>2014-02-20T11:13:22.499Z</time>
      </trkpt>
      <trkpt lat="43.58829" lon="3.0786">
        <ele>198.2</ele>
        <time>2014-02-20T11:13:23.499Z</time>
      </trkpt>
      <trkpt lat="43.5883" lon="3.07853">
        <ele>198.4</ele>
        <time>2014-02-20T11:13:24.495Z</time>
      </trkpt>
      <trkpt lat="43.5883" lon="3.07845">
        <ele>198.8</ele>
        <time>2014-02-20T11:13:25.496Z</time>
      </trkpt>
      <trkpt lat="43.58831" lon="3.07839">
        <ele>201.1</ele>
        <time>2014-02-20T11:13:26.507Z</time>
      </trkpt>
      <trkpt lat="43.58832" lon="3.07829">
        <ele>201.5</ele>
        <time>2014-02-20T11:13:28.498Z</time>
      </trkpt>
      <trkpt lat="43.58833" lon="3.07823">
        <ele>201</ele>
        <time>2014-02-20T11:13:29.497Z</time>
      </trkpt>
      <trkpt lat="43.58834" lon="3.07817">
        <ele>201.9</ele>
        <time>2014-02-20T11:13:30.497Z</time>
      </trkpt>
      <trkpt lat="43.58834" lon="3.07811">
        <ele>203.1</ele>
        <time>2014-02-20T11:13:31.497Z</time>
      </trkpt>
      <trkpt lat="43.58833" lon="3.07805">
        <ele>203.2</ele>
        <time>2014-02-20T11:13:32.495Z</time>
      </trkpt>
      <trkpt lat="43.58833" lon="3.07798">
        <ele>205</ele>
        <time>2014-02-20T11:13:33.534Z</time>
      </trkpt>
      <trkpt lat="43.58832" lon="3.07786">
        <ele>206.3</ele>
        <time>2014-02-20T11:13:35.500Z</time>
      </trkpt>
      <trkpt lat="43.58833" lon="3.0778">
        <ele>206.9</ele>
        <time>2014-02-20T11:13:36.505Z</time>
      </trkpt>
      <trkpt lat="43.58834" lon="3.0777">
        <ele>207.4</ele>
        <time>2014-02-20T11:13:38.494Z</time>
      </trkpt>
      <trkpt lat="43.58834" lon="3.07767">
        <ele>207.9</ele>
        <time>2014-02-20T11:13:39.500Z</time>
      </trkpt>
      <trkpt lat="43.58832" lon="3.07758">
        <ele>209</ele>
        <time>2014-02-20T11:13:41.497Z</time>
      </trkpt>
      <trkpt lat="43.58832" lon="3.07753">
        <ele>209.3</ele>
        <time>2014-02-20T11:13:42.498Z</time>
      </trkpt>
      <trkpt lat="43.58831" lon="3.07746">
        <ele>209.5</ele>
        <time>2014-02-20T11:13:43.498Z</time>
      </trkpt>
      <trkpt lat="43.58831" lon="3.0774">
        <ele>209.3</ele>
        <time>2014-02-20T11:13:44.497Z</time>
      </trkpt>
      <trkpt lat="43.58831" lon="3.07733">
        <ele>208.3</ele>
        <time>2014-02-20T11:13:45.499Z</time>
      </trkpt>
      <trkpt lat="43.5883" lon="3.07727">
        <ele>208.1</ele>
        <time>2014-02-20T11:13:46.497Z</time>
      </trkpt>
      <trkpt lat="43.5883" lon="3.07715">
        <ele>209.1</ele>
        <time>2014-02-20T11:13:48.495Z</time>
      </trkpt>
      <trkpt lat="43.58829" lon="3.0771">
        <ele>209.7</ele>
        <time>2014-02-20T11:13:49.511Z</time>
      </trkpt>
      <trkpt lat="43.5883" lon="3.07699">
        <ele>210.7</ele>
        <time>2014-02-20T11:13:51.497Z</time>
      </trkpt>
      <trkpt lat="43.5883" lon="3.07694">
        <ele>211.4</ele>
        <time>2014-02-20T11:13:52.497Z</time>
      </trkpt>
      <trkpt lat="43.58831" lon="3.07687">
        <ele>212</ele>
        <time>2014-02-20T11:13:53.496Z</time>
      </trkpt>
      <trkpt lat="43.58832" lon="3.07681">
        <ele>212.4</ele>
        <time>2014-02-20T11:13:54.493Z</time>
      </trkpt>
      <trkpt lat="43.58833" lon="3.0767">
        <ele>212.9</ele>
        <time>2014-02-20T11:13:56.493Z</time>
      </trkpt>
      <trkpt lat="43.58832" lon="3.07664">
        <ele>213.2</ele>
        <time>2014-02-20T11:13:57.496Z</time>
      </trkpt>
      <trkpt lat="43.58831" lon="3.07653">
        <ele>211.5</ele>
        <time>2014-02-20T11:13:59.489Z</time>
      </trkpt>
      <trkpt lat="43.5883" lon="3.07648">
        <ele>211.7</ele>
        <time>2014-02-20T11:14:00.492Z</time>
      </trkpt>
      <trkpt lat="43.58828" lon="3.07637">
        <ele>213.3</ele>
        <time>2014-02-20T11:14:02.495Z</time>
      </trkpt>
      <trkpt lat="43.58826" lon="3.07631">
        <ele>213.8</ele>
        <time>2014-02-20T11:14:03.497Z</time>
      </trkpt>
      <trkpt lat="43.58822" lon="3.07622">
        <ele>216.6</ele>
        <time>2014-02-20T11:14:05.494Z</time>
      </trkpt>
      <trkpt lat="43.58821" lon="3.07616">
        <ele>219.3</ele>
        <time>2014-02-20T11:14:06.495Z</time>
      </trkpt>
      <trkpt lat="43.5882" lon="3.07605">
        <ele>220.3</ele>
        <time>2014-02-20T11:14:08.491Z</time>
      </trkpt>
      <trkpt lat="43.58818" lon="3.07598">
        <ele>220.2</ele>
        <time>2014-02-20T11:14:09.493Z</time>
      </trkpt>
      <trkpt lat="43.58817" lon="3.07592">
        <ele>220.2</ele>
        <time>2014-02-20T11:14:10.493Z</time>
      </trkpt>
      <trkpt lat="43.58816" lon="3.07584">
        <ele>215.2</ele>
        <time>2014-02-20T11:14:11.528Z</time>
      </trkpt>
      <trkpt lat="43.58814" lon="3.07578">
        <ele>215.2</ele>
        <time>2014-02-20T11:14:12.497Z</time>
      </trkpt>
      <trkpt lat="43.58814" lon="3.07569">
        <ele>212.1</ele>
        <time>2014-02-20T11:14:13.499Z</time>
      </trkpt>
      <trkpt lat="43.58813" lon="3.07559">
        <ele>209.5</ele>
        <time>2014-02-20T11:14:14.499Z</time>
      </trkpt>
      <trkpt lat="43.58813" lon="3.0755">
        <ele>208.9</ele>
        <time>2014-02-20T11:14:15.494Z</time>
      </trkpt>
      <trkpt lat="43.58814" lon="3.07542">
        <ele>209.2</ele>
        <time>2014-02-20T11:14:16.493Z</time>
      </trkpt>
      <trkpt lat="43.58813" lon="3.07536">
        <ele>206.4</ele>
        <time>2014-02-20T11:14:17.489Z</time>
      </trkpt>
      <trkpt lat="43.58813" lon="3.07529">
        <ele>206.1</ele>
        <time>2014-02-20T11:14:18.494Z</time>
      </trkpt>
      <trkpt lat="43.58812" lon="3.07522">
        <ele>206.9</ele>
        <time>2014-02-20T11:14:19.492Z</time>
      </trkpt>
      <trkpt lat="43.58809" lon="3.07511">
        <ele>207.3</ele>
        <time>2014-02-20T11:14:21.500Z</time>
      </trkpt>
      <trkpt lat="43.58807" lon="3.07507">
        <ele>204.8</ele>
        <time>2014-02-20T11:14:22.496Z</time>
      </trkpt>
      <trkpt lat="43.58804" lon="3.07497">
        <ele>207.1</ele>
        <time>2014-02-20T11:14:24.496Z</time>
      </trkpt>
      <trkpt lat="43.58804" lon="3.07491">
        <ele>204.1</ele>
        <time>2014-02-20T11:14:25.497Z</time>
      </trkpt>
      <trkpt lat="43.58803" lon="3.07485">
        <ele>200.7</ele>
        <time>2014-02-20T11:14:26.496Z</time>
      </trkpt>
      <trkpt lat="43.58801" lon="3.07477">
        <ele>196.8</ele>
        <time>2014-02-20T11:14:27.531Z</time>
      </trkpt>
      <trkpt lat="43.58799" lon="3.07467">
        <ele>193.3</ele>
        <time>2014-02-20T11:14:28.499Z</time>
      </trkpt>
      <trkpt lat="43.58798" lon="3.07457">
        <ele>191.6</ele>
        <time>2014-02-20T11:14:29.496Z</time>
      </trkpt>
      <trkpt lat="43.58796" lon="3.07446">
        <ele>188.7</ele>
        <time>2014-02-20T11:14:30.498Z</time>
      </trkpt>
      <trkpt lat="43.58794" lon="3.07436">
        <ele>185.7</ele>
        <time>2014-02-20T11:14:31.498Z</time>
      </trkpt>
      <trkpt lat="43.58792" lon="3.07428">
        <ele>184.2</ele>
        <time>2014-02-20T11:14:32.496Z</time>
      </trkpt>
      <trkpt lat="43.5879" lon="3.0742">
        <ele>181.9</ele>
        <time>2014-02-20T11:14:33.500Z</time>
      </trkpt>
      <trkpt lat="43.58789" lon="3.07412">
        <ele>179.3</ele>
        <time>2014-02-20T11:14:34.498Z</time>
      </trkpt>
      <trkpt lat="43.58786" lon="3.07405">
        <ele>179</ele>
        <time>2014-02-20T11:14:35.499Z</time>
      </trkpt>
      <trkpt lat="43.58782" lon="3.07397">
        <ele>177.3</ele>
        <time>2014-02-20T11:14:37.498Z</time>
      </trkpt>
      <trkpt lat="43.5878" lon="3.07394">
        <ele>176.3</ele>
        <time>2014-02-20T11:14:38.496Z</time>
      </trkpt>
      <trkpt lat="43.58776" lon="3.07385">
        <ele>173.8</ele>
        <time>2014-02-20T11:14:40.500Z</time>
      </trkpt>
      <trkpt lat="43.58773" lon="3.07379">
        <ele>173.5</ele>
        <time>2014-02-20T11:14:41.499Z</time>
      </trkpt>
      <trkpt lat="43.58771" lon="3.07373">
        <ele>173.5</ele>
        <time>2014-02-20T11:14:42.496Z</time>
      </trkpt>
      <trkpt lat="43.58769" lon="3.07367">
        <ele>172.9</ele>
        <time>2014-02-20T11:14:43.497Z</time>
      </trkpt>
      <trkpt lat="43.58768" lon="3.0736">
        <ele>173.5</ele>
        <time>2014-02-20T11:14:44.497Z</time>
      </trkpt>
      <trkpt lat="43.58766" lon="3.07353">
        <ele>173.7</ele>
        <time>2014-02-20T11:14:45.499Z</time>
      </trkpt>
      <trkpt lat="43.58764" lon="3.07347">
        <ele>174</ele>
        <time>2014-02-20T11:14:46.496Z</time>
      </trkpt>
      <trkpt lat="43.58762" lon="3.07341">
        <ele>173.7</ele>
        <time>2014-02-20T11:14:47.547Z</time>
      </trkpt>
      <trkpt lat="43.58758" lon="3.07331">
        <ele>173.3</ele>
        <time>2014-02-20T11:14:49.496Z</time>
      </trkpt>
      <trkpt lat="43.58755" lon="3.07326">
        <ele>172.3</ele>
        <time>2014-02-20T11:14:50.494Z</time>
      </trkpt>
      <trkpt lat="43.58752" lon="3.07321">
        <ele>172.2</ele>
        <time>2014-02-20T11:14:51.498Z</time>
      </trkpt>
      <trkpt lat="43.58749" lon="3.07315">
        <ele>171.1</ele>
        <time>2014-02-20T11:14:52.499Z</time>
      </trkpt>
      <trkpt lat="43.58746" lon="3.07308">
        <ele>170.8</ele>
        <time>2014-02-20T11:14:53.503Z</time>
      </trkpt>
      <trkpt lat="43.58744" lon="3.07301">
        <ele>171.1</ele>
        <time>2014-02-20T11:14:54.498Z</time>
      </trkpt>
      <trkpt lat="43.58743" lon="3.07293">
        <ele>171.8</ele>
        <time>2014-02-20T11:14:55.497Z</time>
      </trkpt>
      <trkpt lat="43.58741" lon="3.07287">
        <ele>172.3</ele>
        <time>2014-02-20T11:14:56.496Z</time>
      </trkpt>
      <trkpt lat="43.58738" lon="3.07279">
        <ele>173.5</ele>
        <time>2014-02-20T11:14:57.496Z</time>
      </trkpt>
      <trkpt lat="43.58735" lon="3.07273">
        <ele>174.1</ele>
        <time>2014-02-20T11:14:58.518Z</time>
      </trkpt>
      <trkpt lat="43.5873" lon="3.07263">
        <ele>174.6</ele>
        <time>2014-02-20T11:15:00.502Z</time>
      </trkpt>
      <trkpt lat="43.58728" lon="3.07259">
        <ele>174.8</ele>
        <time>2014-02-20T11:15:01.504Z</time>
      </trkpt>
      <trkpt lat="43.58723" lon="3.07252">
        <ele>175.9</ele>
        <time>2014-02-20T11:15:03.501Z</time>
      </trkpt>
      <trkpt lat="43.5872" lon="3.0725">
        <ele>176.2</ele>
        <time>2014-02-20T11:15:04.502Z</time>
      </trkpt>
      <trkpt lat="43.58714" lon="3.07244">
        <ele>176.4</ele>
        <time>2014-02-20T11:15:06.502Z</time>
      </trkpt>
      <trkpt lat="43.58711" lon="3.0724">
        <ele>176.2</ele>
        <time>2014-02-20T11:15:07.500Z</time>
      </trkpt>
      <trkpt lat="43.58706" lon="3.07233">
        <ele>176.7</ele>
        <time>2014-02-20T11:15:09.501Z</time>
      </trkpt>
      <trkpt lat="43.58702" lon="3.07229">
        <ele>177.2</ele>
        <time>2014-02-20T11:15:10.500Z</time>
      </trkpt>
      <trkpt lat="43.58699" lon="3.07224">
        <ele>177.7</ele>
        <time>2014-02-20T11:15:11.503Z</time>
      </trkpt>
      <trkpt lat="43.58696" lon="3.07219">
        <ele>178.1</ele>
        <time>2014-02-20T11:15:12.501Z</time>
      </trkpt>
      <trkpt lat="43.5869" lon="3.07212">
        <ele>177.5</ele>
        <time>2014-02-20T11:15:14.499Z</time>
      </trkpt>
      <trkpt lat="43.58686" lon="3.07208">
        <ele>177.8</ele>
        <time>2014-02-20T11:15:15.502Z</time>
      </trkpt>
      <trkpt lat="43.58679" lon="3.07201">
        <ele>178.2</ele>
        <time>2014-02-20T11:15:17.502Z</time>
      </trkpt>
      <trkpt lat="43.58676" lon="3.07198">
        <ele>177.9</ele>
        <time>2014-02-20T11:15:18.495Z</time>
      </trkpt>
      <trkpt lat="43.58671" lon="3.07192">
        <ele>178.6</ele>
        <time>2014-02-20T11:15:20.495Z</time>
      </trkpt>
      <trkpt lat="43.58667" lon="3.07188">
        <ele>179.2</ele>
        <time>2014-02-20T11:15:21.496Z</time>
      </trkpt>
      <trkpt lat="43.58662" lon="3.0718">
        <ele>179.8</ele>
        <time>2014-02-20T11:15:23.495Z</time>
      </trkpt>
      <trkpt lat="43.58657" lon="3.07176">
        <ele>181</ele>
        <time>2014-02-20T11:15:24.494Z</time>
      </trkpt>
      <trkpt lat="43.58652" lon="3.07171">
        <ele>181.6</ele>
        <time>2014-02-20T11:15:25.502Z</time>
      </trkpt>
      <trkpt lat="43.58649" lon="3.07166">
        <ele>182.4</ele>
        <time>2014-02-20T11:15:26.495Z</time>
      </trkpt>
      <trkpt lat="43.58647" lon="3.07161">
        <ele>182.6</ele>
        <time>2014-02-20T11:15:27.498Z</time>
      </trkpt>
      <trkpt lat="43.58643" lon="3.07157">
        <ele>184.1</ele>
        <time>2014-02-20T11:15:28.497Z</time>
      </trkpt>
      <trkpt lat="43.58639" lon="3.07151">
        <ele>185.8</ele>
        <time>2014-02-20T11:15:29.494Z</time>
      </trkpt>
      <trkpt lat="43.58635" lon="3.07145">
        <ele>187</ele>
        <time>2014-02-20T11:15:30.497Z</time>
      </trkpt>
      <trkpt lat="43.58632" lon="3.07139">
        <ele>186.4</ele>
        <time>2014-02-20T11:15:31.497Z</time>
      </trkpt>
      <trkpt lat="43.58628" lon="3.07134">
        <ele>186.8</ele>
        <time>2014-02-20T11:15:32.491Z</time>
      </trkpt>
      <trkpt lat="43.58622" lon="3.07127">
        <ele>188.4</ele>
        <time>2014-02-20T11:15:34.494Z</time>
      </trkpt>
      <trkpt lat="43.58618" lon="3.07124">
        <ele>189.1</ele>
        <time>2014-02-20T11:15:35.494Z</time>
      </trkpt>
      <trkpt lat="43.58612" lon="3.07117">
        <ele>189.9</ele>
        <time>2014-02-20T11:15:37.492Z</time>
      </trkpt>
      <trkpt lat="43.58609" lon="3.07114">
        <ele>190.1</ele>
        <time>2014-02-20T11:15:38.493Z</time>
      </trkpt>
      <trkpt lat="43.58602" lon="3.07107">
        <ele>190.8</ele>
        <time>2014-02-20T11:15:40.495Z</time>
      </trkpt>
      <trkpt lat="43.58598" lon="3.07103">
        <ele>191</ele>
        <time>2014-02-20T11:15:41.495Z</time>
      </trkpt>
      <trkpt lat="43.58594" lon="3.07098">
        <ele>190.5</ele>
        <time>2014-02-20T11:15:42.496Z</time>
      </trkpt>
      <trkpt lat="43.58591" lon="3.07093">
        <ele>191.1</ele>
        <time>2014-02-20T11:15:43.497Z</time>
      </trkpt>
      <trkpt lat="43.58585" lon="3.07084">
        <ele>191.5</ele>
        <time>2014-02-20T11:15:45.497Z</time>
      </trkpt>
      <trkpt lat="43.58582" lon="3.07078">
        <ele>191.3</ele>
        <time>2014-02-20T11:15:46.496Z</time>
      </trkpt>
      <trkpt lat="43.5858" lon="3.07071">
        <ele>191.3</ele>
        <time>2014-02-20T11:15:47.495Z</time>
      </trkpt>
      <trkpt lat="43.58578" lon="3.07063">
        <ele>191.3</ele>
        <time>2014-02-20T11:15:48.497Z</time>
      </trkpt>
      <trkpt lat="43.58575" lon="3.07057">
        <ele>192.2</ele>
        <time>2014-02-20T11:15:49.496Z</time>
      </trkpt>
      <trkpt lat="43.58573" lon="3.07053">
        <ele>194.7</ele>
        <time>2014-02-20T11:15:50.496Z</time>
      </trkpt>
      <trkpt lat="43.58567" lon="3.07044">
        <ele>197.4</ele>
        <time>2014-02-20T11:15:52.494Z</time>
      </trkpt>
      <trkpt lat="43.58564" lon="3.07039">
        <ele>197.6</ele>
        <time>2014-02-20T11:15:53.493Z</time>
      </trkpt>
      <trkpt lat="43.58559" lon="3.07031">
        <ele>200.5</ele>
        <time>2014-02-20T11:15:55.545Z</time>
      </trkpt>
      <trkpt lat="43.58556" lon="3.07027">
        <ele>198.9</ele>
        <time>2014-02-20T11:15:56.496Z</time>
      </trkpt>
      <trkpt lat="43.58553" lon="3.07021">
        <ele>198.6</ele>
        <time>2014-02-20T11:15:57.504Z</time>
      </trkpt>
      <trkpt lat="43.5855" lon="3.07016">
        <ele>197.9</ele>
        <time>2014-02-20T11:15:58.499Z</time>
      </trkpt>
      <trkpt lat="43.58545" lon="3.07005">
        <ele>198.8</ele>
        <time>2014-02-20T11:16:00.499Z</time>
      </trkpt>
      <trkpt lat="43.58543" lon="3.07001">
        <ele>199.6</ele>
        <time>2014-02-20T11:16:01.501Z</time>
      </trkpt>
      <trkpt lat="43.5854" lon="3.06996">
        <ele>200.2</ele>
        <time>2014-02-20T11:16:02.499Z</time>
      </trkpt>
      <trkpt lat="43.58537" lon="3.06991">
        <ele>200.6</ele>
        <time>2014-02-20T11:16:03.501Z</time>
      </trkpt>
      <trkpt lat="43.58534" lon="3.06986">
        <ele>201.8</ele>
        <time>2014-02-20T11:16:04.501Z</time>
      </trkpt>
      <trkpt lat="43.58531" lon="3.06981">
        <ele>202.6</ele>
        <time>2014-02-20T11:16:05.499Z</time>
      </trkpt>
      <trkpt lat="43.58528" lon="3.06974">
        <ele>202.9</ele>
        <time>2014-02-20T11:16:06.503Z</time>
      </trkpt>
      <trkpt lat="43.58525" lon="3.06969">
        <ele>204.1</ele>
        <time>2014-02-20T11:16:07.593Z</time>
      </trkpt>
      <trkpt lat="43.58523" lon="3.06964">
        <ele>204.5</ele>
        <time>2014-02-20T11:16:08.498Z</time>
      </trkpt>
      <trkpt lat="43.58521" lon="3.06958">
        <ele>204</ele>
        <time>2014-02-20T11:16:09.501Z</time>
      </trkpt>
      <trkpt lat="43.58517" lon="3.06949">
        <ele>207.8</ele>
        <time>2014-02-20T11:16:11.499Z</time>
      </trkpt>
      <trkpt lat="43.58515" lon="3.06946">
        <ele>210.8</ele>
        <time>2014-02-20T11:16:12.500Z</time>
      </trkpt>
      <trkpt lat="43.58509" lon="3.06939">
        <ele>211.1</ele>
        <time>2014-02-20T11:16:14.502Z</time>
      </trkpt>
      <trkpt lat="43.58506" lon="3.06935">
        <ele>209.9</ele>
        <time>2014-02-20T11:16:15.505Z</time>
      </trkpt>
      <trkpt lat="43.585" lon="3.06925">
        <ele>210.2</ele>
        <time>2014-02-20T11:16:17.552Z</time>
      </trkpt>
      <trkpt lat="43.58497" lon="3.0692">
        <ele>210.2</ele>
        <time>2014-02-20T11:16:18.504Z</time>
      </trkpt>
      <trkpt lat="43.58494" lon="3.06914">
        <ele>208.9</ele>
        <time>2014-02-20T11:16:19.498Z</time>
      </trkpt>
      <trkpt lat="43.58491" lon="3.06907">
        <ele>210.6</ele>
        <time>2014-02-20T11:16:20.494Z</time>
      </trkpt>
      <trkpt lat="43.58488" lon="3.069">
        <ele>207.5</ele>
        <time>2014-02-20T11:16:21.495Z</time>
      </trkpt>
      <trkpt lat="43.58486" lon="3.06893">
        <ele>205.8</ele>
        <time>2014-02-20T11:16:22.496Z</time>
      </trkpt>
      <trkpt lat="43.58483" lon="3.06886">
        <ele>204</ele>
        <time>2014-02-20T11:16:23.491Z</time>
      </trkpt>
      <trkpt lat="43.58481" lon="3.06879">
        <ele>202.4</ele>
        <time>2014-02-20T11:16:24.497Z</time>
      </trkpt>
      <trkpt lat="43.58478" lon="3.06871">
        <ele>198.8</ele>
        <time>2014-02-20T11:16:25.497Z</time>
      </trkpt>
      <trkpt lat="43.58476" lon="3.06863">
        <ele>200</ele>
        <time>2014-02-20T11:16:26.495Z</time>
      </trkpt>
      <trkpt lat="43.58474" lon="3.06854">
        <ele>197.8</ele>
        <time>2014-02-20T11:16:27.496Z</time>
      </trkpt>
      <trkpt lat="43.58472" lon="3.06846">
        <ele>196.2</ele>
        <time>2014-02-20T11:16:28.498Z</time>
      </trkpt>
      <trkpt lat="43.58469" lon="3.06838">
        <ele>196.2</ele>
        <time>2014-02-20T11:16:29.498Z</time>
      </trkpt>
      <trkpt lat="43.58465" lon="3.06829">
        <ele>195.5</ele>
        <time>2014-02-20T11:16:30.493Z</time>
      </trkpt>
      <trkpt lat="43.58461" lon="3.06822">
        <ele>195.9</ele>
        <time>2014-02-20T11:16:31.497Z</time>
      </trkpt>
      <trkpt lat="43.58459" lon="3.06815">
        <ele>196.8</ele>
        <time>2014-02-20T11:16:32.493Z</time>
      </trkpt>
      <trkpt lat="43.58455" lon="3.06806">
        <ele>200.4</ele>
        <time>2014-02-20T11:16:34.497Z</time>
      </trkpt>
      <trkpt lat="43.58453" lon="3.06801">
        <ele>199.4</ele>
        <time>2014-02-20T11:16:35.629Z</time>
      </trkpt>
      <trkpt lat="43.5835" lon="3.06571">
        <ele>155.8</ele>
        <time>2014-02-20T11:17:10.510Z</time>
      </trkpt>
      <trkpt lat="43.58349" lon="3.06561">
        <ele>151</ele>
        <time>2014-02-20T11:17:11.512Z</time>
      </trkpt>
      <trkpt lat="43.58345" lon="3.06559">
        <ele>151</ele>
        <time>2014-02-20T11:17:12.502Z</time>
      </trkpt>
      <trkpt lat="43.58339" lon="3.06552">
        <ele>151.8</ele>
        <time>2014-02-20T11:17:14.502Z</time>
      </trkpt>
      <trkpt lat="43.58336" lon="3.06549">
        <ele>151.9</ele>
        <time>2014-02-20T11:17:15.506Z</time>
      </trkpt>
      <trkpt lat="43.58328" lon="3.06542">
        <ele>144.1</ele>
        <time>2014-02-20T11:17:17.502Z</time>
      </trkpt>
      <trkpt lat="43.58324" lon="3.0654">
        <ele>145.6</ele>
        <time>2014-02-20T11:17:18.502Z</time>
      </trkpt>
      <trkpt lat="43.58317" lon="3.06536">
        <ele>142.9</ele>
        <time>2014-02-20T11:17:20.498Z</time>
      </trkpt>
      <trkpt lat="43.58314" lon="3.06532">
        <ele>142.7</ele>
        <time>2014-02-20T11:17:21.504Z</time>
      </trkpt>
      <trkpt lat="43.58311" lon="3.06528">
        <ele>139</ele>
        <time>2014-02-20T11:17:22.504Z</time>
      </trkpt>
      <trkpt lat="43.58307" lon="3.06523">
        <ele>136</ele>
        <time>2014-02-20T11:17:23.500Z</time>
      </trkpt>
      <trkpt lat="43.58303" lon="3.06518">
        <ele>131.9</ele>
        <time>2014-02-20T11:17:24.504Z</time>
      </trkpt>
      <trkpt lat="43.583" lon="3.06513">
        <ele>134.3</ele>
        <time>2014-02-20T11:17:25.506Z</time>
      </trkpt>
      <trkpt lat="43.58296" lon="3.06508">
        <ele>133.3</ele>
        <time>2014-02-20T11:17:26.502Z</time>
      </trkpt>
      <trkpt lat="43.58292" lon="3.06504">
        <ele>131.6</ele>
        <time>2014-02-20T11:17:27.502Z</time>
      </trkpt>
      <trkpt lat="43.58288" lon="3.06498">
        <ele>129.3</ele>
        <time>2014-02-20T11:17:28.506Z</time>
      </trkpt>
      <trkpt lat="43.58285" lon="3.06492">
        <ele>128.6</ele>
        <time>2014-02-20T11:17:29.496Z</time>
      </trkpt>
      <trkpt lat="43.58282" lon="3.06486">
        <ele>127.2</ele>
        <time>2014-02-20T11:17:30.496Z</time>
      </trkpt>
      <trkpt lat="43.58278" lon="3.06479">
        <ele>125.5</ele>
        <time>2014-02-20T11:17:31.500Z</time>
      </trkpt>
      <trkpt lat="43.58275" lon="3.06473">
        <ele>125.4</ele>
        <time>2014-02-20T11:17:32.495Z</time>
      </trkpt>
      <trkpt lat="43.5827" lon="3.06467">
        <ele>125.8</ele>
        <time>2014-02-20T11:17:33.505Z</time>
      </trkpt>
      <trkpt lat="43.58266" lon="3.06462">
        <ele>124.8</ele>
        <time>2014-02-20T11:17:34.501Z</time>
      </trkpt>
      <trkpt lat="43.58262" lon="3.06457">
        <ele>122.8</ele>
        <time>2014-02-20T11:17:35.528Z</time>
      </trkpt>
      <trkpt lat="43.58258" lon="3.06453">
        <ele>123.3</ele>
        <time>2014-02-20T11:17:36.498Z</time>
      </trkpt>
      <trkpt lat="43.58254" lon="3.06449">
        <ele>121.2</ele>
        <time>2014-02-20T11:17:37.499Z</time>
      </trkpt>
      <trkpt lat="43.58248" lon="3.06442">
        <ele>121.5</ele>
        <time>2014-02-20T11:17:39.497Z</time>
      </trkpt>
      <trkpt lat="43.58245" lon="3.06439">
        <ele>122.7</ele>
        <time>2014-02-20T11:17:40.497Z</time>
      </trkpt>
      <trkpt lat="43.58239" lon="3.06432">
        <ele>128.6</ele>
        <time>2014-02-20T11:17:42.499Z</time>
      </trkpt>
      <trkpt lat="43.58238" lon="3.06428">
        <ele>128.6</ele>
        <time>2014-02-20T11:17:43.498Z</time>
      </trkpt>
      <trkpt lat="43.58231" lon="3.06419">
        <ele>129.7</ele>
        <time>2014-02-20T11:17:49.501Z</time>
      </trkpt>
      <trkpt lat="43.5823" lon="3.06418">
        <ele>126.3</ele>
        <time>2014-02-20T11:17:50.496Z</time>
      </trkpt>
      <trkpt lat="43.58222" lon="3.06416">
        <ele>122.7</ele>
        <time>2014-02-20T11:17:54.498Z</time>
      </trkpt>
      <trkpt lat="43.5822" lon="3.06417">
        <ele>124.4</ele>
        <time>2014-02-20T11:17:55.500Z</time>
      </trkpt>
      <trkpt lat="43.58214" lon="3.06425">
        <ele>134.5</ele>
        <time>2014-02-20T11:18:03.495Z</time>
      </trkpt>
      <trkpt lat="43.58213" lon="3.06426">
        <ele>135.6</ele>
        <time>2014-02-20T11:18:04.497Z</time>
      </trkpt>
      <trkpt lat="43.58213" lon="3.06427">
        <ele>137.2</ele>
        <time>2014-02-20T11:18:08.493Z</time>
      </trkpt>
      <trkpt lat="43.58213" lon="3.06427">
        <ele>137.4</ele>
        <time>2014-02-20T11:18:11.622Z</time>
      </trkpt>
      <trkpt lat="43.58212" lon="3.06428">
        <ele>142.7</ele>
        <time>2014-02-20T11:24:31.496Z</time>
      </trkpt>
      <trkpt lat="43.58212" lon="3.06428">
        <ele>146</ele>
        <time>2014-02-20T11:24:32.495Z</time>
      </trkpt>
      <trkpt lat="43.58211" lon="3.06429">
        <ele>149.4</ele>
        <time>2014-02-20T11:24:35.500Z</time>
      </trkpt>
      <trkpt lat="43.58212" lon="3.06429">
        <ele>150.9</ele>
        <time>2014-02-20T11:24:36.494Z</time>
      </trkpt>
      <trkpt lat="43.58212" lon="3.06429">
        <ele>151.8</ele>
        <time>2014-02-20T11:24:37.499Z</time>
      </trkpt>
      <trkpt lat="43.58212" lon="3.06429">
        <ele>152.6</ele>
        <time>2014-02-20T11:24:38.500Z</time>
      </trkpt>
      <trkpt lat="43.58215" lon="3.0643">
        <ele>155.7</ele>
        <time>2014-02-20T11:24:47.495Z</time>
      </trkpt>
      <trkpt lat="43.58215" lon="3.0643">
        <ele>155.8</ele>
        <time>2014-02-20T11:24:48.500Z</time>
      </trkpt>
      <trkpt lat="43.58215" lon="3.0643">
        <ele>156.2</ele>
        <time>2014-02-20T11:24:50.530Z</time>
      </trkpt>
      <trkpt lat="43.58214" lon="3.06431">
        <ele>156.4</ele>
        <time>2014-02-20T11:24:51.498Z</time>
      </trkpt>
      <trkpt lat="43.58213" lon="3.06432">
        <ele>156.7</ele>
        <time>2014-02-20T11:24:56.497Z</time>
      </trkpt>
      <trkpt lat="43.58213" lon="3.06432">
        <ele>156.8</ele>
        <time>2014-02-20T11:24:57.499Z</time>
      </trkpt>
      <trkpt lat="43.58211" lon="3.06442">
        <ele>170.3</ele>
        <time>2014-02-20T11:27:11.510Z</time>
      </trkpt>
      <trkpt lat="43.5821" lon="3.06443">
        <ele>172.2</ele>
        <time>2014-02-20T11:27:12.514Z</time>
      </trkpt>
      <trkpt lat="43.58208" lon="3.06446">
        <ele>173.9</ele>
        <time>2014-02-20T11:27:22.503Z</time>
      </trkpt>
      <trkpt lat="43.58208" lon="3.06446">
        <ele>173.9</ele>
        <time>2014-02-20T11:27:23.545Z</time>
      </trkpt>
      <trkpt lat="43.58208" lon="3.06446">
        <ele>174.7</ele>
        <time>2014-02-20T11:29:51.499Z</time>
      </trkpt>
      <trkpt lat="43.58201" lon="3.06452">
        <ele>205.3</ele>
        <time>2014-02-20T11:29:52.497Z</time>
      </trkpt>
      <trkpt lat="43.58195" lon="3.06458">
        <ele>205.8</ele>
        <time>2014-02-20T11:29:57.841Z</time>
      </trkpt>
      <trkpt lat="43.58195" lon="3.06457">
        <ele>205.7</ele>
        <time>2014-02-20T11:29:58.503Z</time>
      </trkpt>
      <trkpt lat="43.58196" lon="3.06457">
        <ele>206</ele>
        <time>2014-02-20T11:29:59.706Z</time>
      </trkpt>
      <trkpt lat="43.58197" lon="3.06456">
        <ele>206.2</ele>
        <time>2014-02-20T11:30:04.669Z</time>
      </trkpt>
      <trkpt lat="43.58197" lon="3.06456">
        <ele>206.1</ele>
        <time>2014-02-20T11:30:07.197Z</time>
      </trkpt>
      <trkpt lat="43.58196" lon="3.06459">
        <ele>210.1</ele>
        <time>2014-02-20T11:32:11.507Z</time>
      </trkpt>
      <trkpt lat="43.58195" lon="3.06459">
        <ele>210.8</ele>
        <time>2014-02-20T11:32:12.507Z</time>
      </trkpt>
      <trkpt lat="43.58195" lon="3.06461">
        <ele>213.2</ele>
        <time>2014-02-20T11:32:18.526Z</time>
      </trkpt>
      <trkpt lat="43.58195" lon="3.06461">
        <ele>213.2</ele>
        <time>2014-02-20T11:32:19.501Z</time>
      </trkpt>
      <trkpt lat="43.58196" lon="3.06461">
        <ele>218</ele>
        <time>2014-02-20T11:37:25.508Z</time>
      </trkpt>
      <trkpt lat="43.58195" lon="3.06457">
        <ele>218.5</ele>
        <time>2014-02-20T11:37:26.509Z</time>
      </trkpt>
      <trkpt lat="43.58194" lon="3.06448">
        <ele>220.7</ele>
        <time>2014-02-20T11:37:28.524Z</time>
      </trkpt>
      <trkpt lat="43.58192" lon="3.06444">
        <ele>220.8</ele>
        <time>2014-02-20T11:37:29.502Z</time>
      </trkpt>
      <trkpt lat="43.58189" lon="3.06436">
        <ele>221.8</ele>
        <time>2014-02-20T11:37:31.511Z</time>
      </trkpt>
      <trkpt lat="43.58188" lon="3.06433">
        <ele>221.6</ele>
        <time>2014-02-20T11:37:32.517Z</time>
      </trkpt>
      <trkpt lat="43.58183" lon="3.06422">
        <ele>221.4</ele>
        <time>2014-02-20T11:37:36.507Z</time>
      </trkpt>
      <trkpt lat="43.58182" lon="3.06419">
        <ele>221.8</ele>
        <time>2014-02-20T11:37:37.512Z</time>
      </trkpt>
      <trkpt lat="43.58175" lon="3.06411">
        <ele>221.6</ele>
        <time>2014-02-20T11:37:40.501Z</time>
      </trkpt>
      <trkpt lat="43.58175" lon="3.06409">
        <ele>221.9</ele>
        <time>2014-02-20T11:37:41.508Z</time>
      </trkpt>
      <trkpt lat="43.58173" lon="3.06399">
        <ele>223.8</ele>
        <time>2014-02-20T11:37:46.503Z</time>
      </trkpt>
      <trkpt lat="43.58171" lon="3.06396">
        <ele>223.8</ele>
        <time>2014-02-20T11:37:47.499Z</time>
      </trkpt>
      <trkpt lat="43.58165" lon="3.06388">
        <ele>225.8</ele>
        <time>2014-02-20T11:37:50.496Z</time>
      </trkpt>
      <trkpt lat="43.58162" lon="3.06384">
        <ele>226.8</ele>
        <time>2014-02-20T11:37:51.497Z</time>
      </trkpt>
      <trkpt lat="43.58155" lon="3.06377">
        <ele>228.1</ele>
        <time>2014-02-20T11:37:54.500Z</time>
      </trkpt>
      <trkpt lat="43.58153" lon="3.06374">
        <ele>228.5</ele>
        <time>2014-02-20T11:37:55.497Z</time>
      </trkpt>
      <trkpt lat="43.58146" lon="3.06367">
        <ele>231.1</ele>
        <time>2014-02-20T11:37:57.553Z</time>
      </trkpt>
      <trkpt lat="43.58144" lon="3.06363">
        <ele>231.1</ele>
        <time>2014-02-20T11:37:58.501Z</time>
      </trkpt>
      <trkpt lat="43.58141" lon="3.06353">
        <ele>232.2</ele>
        <time>2014-02-20T11:38:00.501Z</time>
      </trkpt>
      <trkpt lat="43.5814" lon="3.06349">
        <ele>233</ele>
        <time>2014-02-20T11:38:01.501Z</time>
      </trkpt>
      <trkpt lat="43.58136" lon="3.0634">
        <ele>233.2</ele>
        <time>2014-02-20T11:38:04.500Z</time>
      </trkpt>
      <trkpt lat="43.58134" lon="3.06334">
        <ele>233.5</ele>
        <time>2014-02-20T11:38:05.502Z</time>
      </trkpt>
      <trkpt lat="43.58132" lon="3.06324">
        <ele>234.2</ele>
        <time>2014-02-20T11:38:07.504Z</time>
      </trkpt>
      <trkpt lat="43.5813" lon="3.06319">
        <ele>234.4</ele>
        <time>2014-02-20T11:38:08.504Z</time>
      </trkpt>
      <trkpt lat="43.58124" lon="3.06313">
        <ele>233.6</ele>
        <time>2014-02-20T11:38:10.530Z</time>
      </trkpt>
      <trkpt lat="43.58122" lon="3.06308">
        <ele>233.5</ele>
        <time>2014-02-20T11:38:11.508Z</time>
      </trkpt>
      <trkpt lat="43.5812" lon="3.06298">
        <ele>235</ele>
        <time>2014-02-20T11:38:13.500Z</time>
      </trkpt>
      <trkpt lat="43.58118" lon="3.06294">
        <ele>235</ele>
        <time>2014-02-20T11:38:14.502Z</time>
      </trkpt>
      <trkpt lat="43.58116" lon="3.06286">
        <ele>235.3</ele>
        <time>2014-02-20T11:38:16.503Z</time>
      </trkpt>
      <trkpt lat="43.58114" lon="3.06282">
        <ele>234.6</ele>
        <time>2014-02-20T11:38:17.508Z</time>
      </trkpt>
      <trkpt lat="43.58112" lon="3.06273">
        <ele>234.5</ele>
        <time>2014-02-20T11:38:19.507Z</time>
      </trkpt>
      <trkpt lat="43.5811" lon="3.06269">
        <ele>234.4</ele>
        <time>2014-02-20T11:38:20.506Z</time>
      </trkpt>
      <trkpt lat="43.58107" lon="3.06261">
        <ele>234.7</ele>
        <time>2014-02-20T11:38:22.517Z</time>
      </trkpt>
      <trkpt lat="43.58105" lon="3.06256">
        <ele>236.1</ele>
        <time>2014-02-20T11:38:23.507Z</time>
      </trkpt>
      <trkpt lat="43.58103" lon="3.06247">
        <ele>235.9</ele>
        <time>2014-02-20T11:38:25.501Z</time>
      </trkpt>
      <trkpt lat="43.58101" lon="3.06242">
        <ele>235.9</ele>
        <time>2014-02-20T11:38:26.502Z</time>
      </trkpt>
      <trkpt lat="43.581" lon="3.06231">
        <ele>235.7</ele>
        <time>2014-02-20T11:38:29.502Z</time>
      </trkpt>
      <trkpt lat="43.58099" lon="3.06227">
        <ele>236.5</ele>
        <time>2014-02-20T11:38:30.514Z</time>
      </trkpt>
      <trkpt lat="43.58096" lon="3.06219">
        <ele>236.2</ele>
        <time>2014-02-20T11:38:32.506Z</time>
      </trkpt>
      <trkpt lat="43.58094" lon="3.06215">
        <ele>236.5</ele>
        <time>2014-02-20T11:38:33.506Z</time>
      </trkpt>
      <trkpt lat="43.58091" lon="3.06207">
        <ele>235.8</ele>
        <time>2014-02-20T11:38:35.500Z</time>
      </trkpt>
      <trkpt lat="43.58089" lon="3.06202">
        <ele>236.7</ele>
        <time>2014-02-20T11:38:36.503Z</time>
      </trkpt>
      <trkpt lat="43.58087" lon="3.06193">
        <ele>237.6</ele>
        <time>2014-02-20T11:38:38.503Z</time>
      </trkpt>
      <trkpt lat="43.58085" lon="3.06188">
        <ele>237.8</ele>
        <time>2014-02-20T11:38:39.500Z</time>
      </trkpt>
      <trkpt lat="43.58083" lon="3.06179">
        <ele>240.5</ele>
        <time>2014-02-20T11:38:41.497Z</time>
      </trkpt>
      <trkpt lat="43.58082" lon="3.06174">
        <ele>239.9</ele>
        <time>2014-02-20T11:38:42.496Z</time>
      </trkpt>
      <trkpt lat="43.58078" lon="3.06164">
        <ele>240.4</ele>
        <time>2014-02-20T11:38:44.497Z</time>
      </trkpt>
      <trkpt lat="43.58077" lon="3.06159">
        <ele>241.7</ele>
        <time>2014-02-20T11:38:45.497Z</time>
      </trkpt>
      <trkpt lat="43.58073" lon="3.06151">
        <ele>242.2</ele>
        <time>2014-02-20T11:38:47.502Z</time>
      </trkpt>
      <trkpt lat="43.58072" lon="3.06148">
        <ele>242.9</ele>
        <time>2014-02-20T11:38:48.496Z</time>
      </trkpt>
      <trkpt lat="43.58068" lon="3.06141">
        <ele>243.4</ele>
        <time>2014-02-20T11:38:50.520Z</time>
      </trkpt>
      <trkpt lat="43.58067" lon="3.06136">
        <ele>243.6</ele>
        <time>2014-02-20T11:38:51.505Z</time>
      </trkpt>
      <trkpt lat="43.58065" lon="3.06127">
        <ele>244.6</ele>
        <time>2014-02-20T11:38:53.506Z</time>
      </trkpt>
      <trkpt lat="43.58064" lon="3.06122">
        <ele>244.6</ele>
        <time>2014-02-20T11:38:54.532Z</time>
      </trkpt>
      <trkpt lat="43.58062" lon="3.06113">
        <ele>244.1</ele>
        <time>2014-02-20T11:38:56.605Z</time>
      </trkpt>
      <trkpt lat="43.58061" lon="3.06107">
        <ele>243.5</ele>
        <time>2014-02-20T11:38:57.550Z</time>
      </trkpt>
      <trkpt lat="43.58061" lon="3.06095">
        <ele>243.7</ele>
        <time>2014-02-20T11:38:59.505Z</time>
      </trkpt>
      <trkpt lat="43.5806" lon="3.0609">
        <ele>243.3</ele>
        <time>2014-02-20T11:39:00.504Z</time>
      </trkpt>
      <trkpt lat="43.58058" lon="3.06078">
        <ele>243.4</ele>
        <time>2014-02-20T11:39:02.502Z</time>
      </trkpt>
      <trkpt lat="43.58057" lon="3.06073">
        <ele>243.1</ele>
        <time>2014-02-20T11:39:03.503Z</time>
      </trkpt>
      <trkpt lat="43.58056" lon="3.06063">
        <ele>242.8</ele>
        <time>2014-02-20T11:39:05.506Z</time>
      </trkpt>
      <trkpt lat="43.58056" lon="3.06059">
        <ele>242.9</ele>
        <time>2014-02-20T11:39:06.508Z</time>
      </trkpt>
      <trkpt lat="43.58054" lon="3.0605">
        <ele>243.7</ele>
        <time>2014-02-20T11:39:08.494Z</time>
      </trkpt>
      <trkpt lat="43.58053" lon="3.06046">
        <ele>244.5</ele>
        <time>2014-02-20T11:39:09.498Z</time>
      </trkpt>
      <trkpt lat="43.58053" lon="3.06035">
        <ele>243.1</ele>
        <time>2014-02-20T11:39:11.496Z</time>
      </trkpt>
      <trkpt lat="43.58052" lon="3.06029">
        <ele>242.1</ele>
        <time>2014-02-20T11:39:12.498Z</time>
      </trkpt>
      <trkpt lat="43.58051" lon="3.06017">
        <ele>242.4</ele>
        <time>2014-02-20T11:39:14.495Z</time>
      </trkpt>
      <trkpt lat="43.5805" lon="3.06011">
        <ele>242.6</ele>
        <time>2014-02-20T11:39:15.494Z</time>
      </trkpt>
      <trkpt lat="43.58048" lon="3.06">
        <ele>243.7</ele>
        <time>2014-02-20T11:39:17.499Z</time>
      </trkpt>
      <trkpt lat="43.58047" lon="3.05995">
        <ele>243.6</ele>
        <time>2014-02-20T11:39:18.495Z</time>
      </trkpt>
      <trkpt lat="43.58045" lon="3.05986">
        <ele>243.8</ele>
        <time>2014-02-20T11:39:20.495Z</time>
      </trkpt>
      <trkpt lat="43.58045" lon="3.05981">
        <ele>243.9</ele>
        <time>2014-02-20T11:39:21.499Z</time>
      </trkpt>
      <trkpt lat="43.58044" lon="3.05977">
        <ele>243.9</ele>
        <time>2014-02-20T11:39:22.497Z</time>
      </trkpt>
      <trkpt lat="43.58041" lon="3.05948">
        <ele>244.5</ele>
        <time>2014-02-20T11:39:27.497Z</time>
      </trkpt>
      <trkpt lat="43.58041" lon="3.05939">
        <ele>244.4</ele>
        <time>2014-02-20T11:39:28.510Z</time>
      </trkpt>
      <trkpt lat="43.58035" lon="3.05926">
        <ele>245.3</ele>
        <time>2014-02-20T11:39:29.497Z</time>
      </trkpt>
      <trkpt lat="43.58033" lon="3.05919">
        <ele>245.4</ele>
        <time>2014-02-20T11:39:30.495Z</time>
      </trkpt>
      <trkpt lat="43.58032" lon="3.05911">
        <ele>243.9</ele>
        <time>2014-02-20T11:39:31.492Z</time>
      </trkpt>
      <trkpt lat="43.58031" lon="3.05904">
        <ele>244.2</ele>
        <time>2014-02-20T11:39:32.496Z</time>
      </trkpt>
      <trkpt lat="43.58029" lon="3.05899">
        <ele>243.7</ele>
        <time>2014-02-20T11:39:33.495Z</time>
      </trkpt>
      <trkpt lat="43.58026" lon="3.05888">
        <ele>243</ele>
        <time>2014-02-20T11:39:35.496Z</time>
      </trkpt>
      <trkpt lat="43.58025" lon="3.05883">
        <ele>243.2</ele>
        <time>2014-02-20T11:39:36.494Z</time>
      </trkpt>
      <trkpt lat="43.58022" lon="3.05873">
        <ele>243.8</ele>
        <time>2014-02-20T11:39:38.496Z</time>
      </trkpt>
      <trkpt lat="43.58022" lon="3.05868">
        <ele>244.3</ele>
        <time>2014-02-20T11:39:39.505Z</time>
      </trkpt>
      <trkpt lat="43.58017" lon="3.05858">
        <ele>244.4</ele>
        <time>2014-02-20T11:39:41.497Z</time>
      </trkpt>
      <trkpt lat="43.58015" lon="3.05853">
        <ele>243.3</ele>
        <time>2014-02-20T11:39:42.499Z</time>
      </trkpt>
      <trkpt lat="43.58013" lon="3.05847">
        <ele>243.5</ele>
        <time>2014-02-20T11:39:43.499Z</time>
      </trkpt>
      <trkpt lat="43.58011" lon="3.0584">
        <ele>243.4</ele>
        <time>2014-02-20T11:39:44.498Z</time>
      </trkpt>
      <trkpt lat="43.58008" lon="3.05829">
        <ele>238</ele>
        <time>2014-02-20T11:39:46.495Z</time>
      </trkpt>
      <trkpt lat="43.58006" lon="3.05822">
        <ele>238.1</ele>
        <time>2014-02-20T11:39:47.512Z</time>
      </trkpt>
      <trkpt lat="43.58005" lon="3.05816">
        <ele>237.9</ele>
        <time>2014-02-20T11:39:48.502Z</time>
      </trkpt>
      <trkpt lat="43.58002" lon="3.05811">
        <ele>237.8</ele>
        <time>2014-02-20T11:39:49.496Z</time>
      </trkpt>
      <trkpt lat="43.57997" lon="3.05802">
        <ele>239.6</ele>
        <time>2014-02-20T11:39:51.503Z</time>
      </trkpt>
      <trkpt lat="43.57995" lon="3.05797">
        <ele>239.3</ele>
        <time>2014-02-20T11:39:52.498Z</time>
      </trkpt>
      <trkpt lat="43.57991" lon="3.05788">
        <ele>239.3</ele>
        <time>2014-02-20T11:39:54.506Z</time>
      </trkpt>
      <trkpt lat="43.57989" lon="3.05784">
        <ele>239.6</ele>
        <time>2014-02-20T11:39:55.503Z</time>
      </trkpt>
      <trkpt lat="43.57988" lon="3.05778">
        <ele>237.6</ele>
        <time>2014-02-20T11:39:56.564Z</time>
      </trkpt>
      <trkpt lat="43.57985" lon="3.05772">
        <ele>237.1</ele>
        <time>2014-02-20T11:39:57.503Z</time>
      </trkpt>
      <trkpt lat="43.57982" lon="3.05761">
        <ele>236.2</ele>
        <time>2014-02-20T11:39:59.523Z</time>
      </trkpt>
      <trkpt lat="43.5798" lon="3.05756">
        <ele>235</ele>
        <time>2014-02-20T11:40:00.501Z</time>
      </trkpt>
      <trkpt lat="43.57977" lon="3.05745">
        <ele>234.3</ele>
        <time>2014-02-20T11:40:02.501Z</time>
      </trkpt>
      <trkpt lat="43.57976" lon="3.0574">
        <ele>233.6</ele>
        <time>2014-02-20T11:40:03.500Z</time>
      </trkpt>
      <trkpt lat="43.57975" lon="3.05729">
        <ele>231.7</ele>
        <time>2014-02-20T11:40:05.500Z</time>
      </trkpt>
      <trkpt lat="43.57974" lon="3.05724">
        <ele>231.6</ele>
        <time>2014-02-20T11:40:06.498Z</time>
      </trkpt>
      <trkpt lat="43.5797" lon="3.05715">
        <ele>229.6</ele>
        <time>2014-02-20T11:40:08.498Z</time>
      </trkpt>
      <trkpt lat="43.57968" lon="3.0571">
        <ele>229.3</ele>
        <time>2014-02-20T11:40:09.501Z</time>
      </trkpt>
      <trkpt lat="43.57965" lon="3.05706">
        <ele>228.9</ele>
        <time>2014-02-20T11:40:10.497Z</time>
      </trkpt>
      <trkpt lat="43.57961" lon="3.05701">
        <ele>229.7</ele>
        <time>2014-02-20T11:40:11.495Z</time>
      </trkpt>
      <trkpt lat="43.57957" lon="3.05694">
        <ele>228.6</ele>
        <time>2014-02-20T11:40:12.497Z</time>
      </trkpt>
      <trkpt lat="43.57953" lon="3.05687">
        <ele>230.9</ele>
        <time>2014-02-20T11:40:13.494Z</time>
      </trkpt>
      <trkpt lat="43.5795" lon="3.0568">
        <ele>230.7</ele>
        <time>2014-02-20T11:40:14.495Z</time>
      </trkpt>
      <trkpt lat="43.57949" lon="3.05673">
        <ele>231.6</ele>
        <time>2014-02-20T11:40:15.494Z</time>
      </trkpt>
      <trkpt lat="43.57947" lon="3.05666">
        <ele>229.4</ele>
        <time>2014-02-20T11:40:16.492Z</time>
      </trkpt>
      <trkpt lat="43.57946" lon="3.0566">
        <ele>230.1</ele>
        <time>2014-02-20T11:40:17.494Z</time>
      </trkpt>
      <trkpt lat="43.57944" lon="3.05649">
        <ele>231.5</ele>
        <time>2014-02-20T11:40:19.492Z</time>
      </trkpt>
      <trkpt lat="43.57943" lon="3.05644">
        <ele>231.7</ele>
        <time>2014-02-20T11:40:20.495Z</time>
      </trkpt>
      <trkpt lat="43.5794" lon="3.05634">
        <ele>233.6</ele>
        <time>2014-02-20T11:40:22.492Z</time>
      </trkpt>
      <trkpt lat="43.57938" lon="3.05628">
        <ele>234.2</ele>
        <time>2014-02-20T11:40:23.494Z</time>
      </trkpt>
      <trkpt lat="43.57935" lon="3.05616">
        <ele>235.3</ele>
        <time>2014-02-20T11:40:25.494Z</time>
      </trkpt>
      <trkpt lat="43.57933" lon="3.0561">
        <ele>235.8</ele>
        <time>2014-02-20T11:40:26.493Z</time>
      </trkpt>
      <trkpt lat="43.5793" lon="3.056">
        <ele>236.3</ele>
        <time>2014-02-20T11:40:28.493Z</time>
      </trkpt>
      <trkpt lat="43.5793" lon="3.05594">
        <ele>239.1</ele>
        <time>2014-02-20T11:40:29.503Z</time>
      </trkpt>
      <trkpt lat="43.5793" lon="3.05588">
        <ele>241.1</ele>
        <time>2014-02-20T11:40:30.497Z</time>
      </trkpt>
      <trkpt lat="43.57929" lon="3.05582">
        <ele>240.5</ele>
        <time>2014-02-20T11:40:31.493Z</time>
      </trkpt>
      <trkpt lat="43.57929" lon="3.0557">
        <ele>241.5</ele>
        <time>2014-02-20T11:40:33.494Z</time>
      </trkpt>
      <trkpt lat="43.57927" lon="3.05564">
        <ele>239</ele>
        <time>2014-02-20T11:40:34.493Z</time>
      </trkpt>
      <trkpt lat="43.57925" lon="3.05553">
        <ele>239.3</ele>
        <time>2014-02-20T11:40:36.495Z</time>
      </trkpt>
      <trkpt lat="43.57923" lon="3.05547">
        <ele>239.2</ele>
        <time>2014-02-20T11:40:37.496Z</time>
      </trkpt>
      <trkpt lat="43.57921" lon="3.05536">
        <ele>239.5</ele>
        <time>2014-02-20T11:40:39.497Z</time>
      </trkpt>
      <trkpt lat="43.5792" lon="3.0553">
        <ele>239.2</ele>
        <time>2014-02-20T11:40:40.493Z</time>
      </trkpt>
      <trkpt lat="43.57918" lon="3.0552">
        <ele>239.5</ele>
        <time>2014-02-20T11:40:42.530Z</time>
      </trkpt>
      <trkpt lat="43.57917" lon="3.05513">
        <ele>239.7</ele>
        <time>2014-02-20T11:40:43.545Z</time>
      </trkpt>
      <trkpt lat="43.57915" lon="3.05506">
        <ele>239.8</ele>
        <time>2014-02-20T11:40:44.506Z</time>
      </trkpt>
      <trkpt lat="43.57913" lon="3.05499">
        <ele>240.4</ele>
        <time>2014-02-20T11:40:45.503Z</time>
      </trkpt>
      <trkpt lat="43.57911" lon="3.05491">
        <ele>240.7</ele>
        <time>2014-02-20T11:40:46.833Z</time>
      </trkpt>
      <trkpt lat="43.5791" lon="3.05487">
        <ele>240.5</ele>
        <time>2014-02-20T11:40:47.499Z</time>
      </trkpt>
      <trkpt lat="43.57907" lon="3.05482">
        <ele>238.8</ele>
        <time>2014-02-20T11:40:48.505Z</time>
      </trkpt>
      <trkpt lat="43.57906" lon="3.05474">
        <ele>239.7</ele>
        <time>2014-02-20T11:40:51.257Z</time>
      </trkpt>
      <trkpt lat="43.57906" lon="3.05469">
        <ele>238.7</ele>
        <time>2014-02-20T11:40:51.498Z</time>
      </trkpt>
      <trkpt lat="43.57906" lon="3.05459">
        <ele>237.8</ele>
        <time>2014-02-20T11:40:52.499Z</time>
      </trkpt>
      <trkpt lat="43.57905" lon="3.05449">
        <ele>237.2</ele>
        <time>2014-02-20T11:40:53.501Z</time>
      </trkpt>
      <trkpt lat="43.57904" lon="3.05441">
        <ele>237.5</ele>
        <time>2014-02-20T11:40:54.503Z</time>
      </trkpt>
      <trkpt lat="43.57903" lon="3.05435">
        <ele>237.2</ele>
        <time>2014-02-20T11:40:55.504Z</time>
      </trkpt>
      <trkpt lat="43.57904" lon="3.05428">
        <ele>236.7</ele>
        <time>2014-02-20T11:40:56.505Z</time>
      </trkpt>
      <trkpt lat="43.57902" lon="3.05417">
        <ele>235.5</ele>
        <time>2014-02-20T11:40:58.507Z</time>
      </trkpt>
      <trkpt lat="43.579" lon="3.05411">
        <ele>235.2</ele>
        <time>2014-02-20T11:40:59.503Z</time>
      </trkpt>
      <trkpt lat="43.57898" lon="3.05405">
        <ele>234.7</ele>
        <time>2014-02-20T11:41:00.503Z</time>
      </trkpt>
      <trkpt lat="43.57897" lon="3.05399">
        <ele>234.4</ele>
        <time>2014-02-20T11:41:01.498Z</time>
      </trkpt>
      <trkpt lat="43.57895" lon="3.05392">
        <ele>234.5</ele>
        <time>2014-02-20T11:41:02.503Z</time>
      </trkpt>
      <trkpt lat="43.57894" lon="3.05386">
        <ele>234.2</ele>
        <time>2014-02-20T11:41:03.505Z</time>
      </trkpt>
      <trkpt lat="43.57892" lon="3.05379">
        <ele>234.3</ele>
        <time>2014-02-20T11:41:04.501Z</time>
      </trkpt>
      <trkpt lat="43.5789" lon="3.05373">
        <ele>234</ele>
        <time>2014-02-20T11:41:05.502Z</time>
      </trkpt>
      <trkpt lat="43.57888" lon="3.05366">
        <ele>233.9</ele>
        <time>2014-02-20T11:41:06.505Z</time>
      </trkpt>
      <trkpt lat="43.57886" lon="3.0536">
        <ele>234</ele>
        <time>2014-02-20T11:41:07.504Z</time>
      </trkpt>
      <trkpt lat="43.57884" lon="3.05348">
        <ele>234</ele>
        <time>2014-02-20T11:41:09.505Z</time>
      </trkpt>
      <trkpt lat="43.57883" lon="3.05342">
        <ele>234.2</ele>
        <time>2014-02-20T11:41:10.504Z</time>
      </trkpt>
      <trkpt lat="43.5788" lon="3.05331">
        <ele>235.5</ele>
        <time>2014-02-20T11:41:12.498Z</time>
      </trkpt>
      <trkpt lat="43.57879" lon="3.05326">
        <ele>236.4</ele>
        <time>2014-02-20T11:41:13.538Z</time>
      </trkpt>
      <trkpt lat="43.57878" lon="3.05315">
        <ele>237.1</ele>
        <time>2014-02-20T11:41:15.502Z</time>
      </trkpt>
      <trkpt lat="43.57876" lon="3.05309">
        <ele>236.1</ele>
        <time>2014-02-20T11:41:16.504Z</time>
      </trkpt>
      <trkpt lat="43.57875" lon="3.05303">
        <ele>236.3</ele>
        <time>2014-02-20T11:41:17.504Z</time>
      </trkpt>
      <trkpt lat="43.57873" lon="3.05296">
        <ele>236.7</ele>
        <time>2014-02-20T11:41:18.659Z</time>
      </trkpt>
      <trkpt lat="43.57869" lon="3.05285">
        <ele>237.3</ele>
        <time>2014-02-20T11:41:20.505Z</time>
      </trkpt>
      <trkpt lat="43.57868" lon="3.05281">
        <ele>237.2</ele>
        <time>2014-02-20T11:41:21.496Z</time>
      </trkpt>
      <trkpt lat="43.57865" lon="3.0527">
        <ele>237.1</ele>
        <time>2014-02-20T11:41:23.499Z</time>
      </trkpt>
      <trkpt lat="43.57862" lon="3.05264">
        <ele>236.6</ele>
        <time>2014-02-20T11:41:24.497Z</time>
      </trkpt>
      <trkpt lat="43.5786" lon="3.05258">
        <ele>237</ele>
        <time>2014-02-20T11:41:25.494Z</time>
      </trkpt>
      <trkpt lat="43.57857" lon="3.05252">
        <ele>237.2</ele>
        <time>2014-02-20T11:41:26.499Z</time>
      </trkpt>
      <trkpt lat="43.57854" lon="3.05246">
        <ele>236.7</ele>
        <time>2014-02-20T11:41:27.502Z</time>
      </trkpt>
      <trkpt lat="43.57852" lon="3.0524">
        <ele>237</ele>
        <time>2014-02-20T11:41:28.505Z</time>
      </trkpt>
      <trkpt lat="43.5785" lon="3.05235">
        <ele>237.3</ele>
        <time>2014-02-20T11:41:29.505Z</time>
      </trkpt>
      <trkpt lat="43.57848" lon="3.05229">
        <ele>237.9</ele>
        <time>2014-02-20T11:41:30.505Z</time>
      </trkpt>
      <trkpt lat="43.57846" lon="3.05223">
        <ele>237.6</ele>
        <time>2014-02-20T11:41:31.502Z</time>
      </trkpt>
      <trkpt lat="43.57844" lon="3.05217">
        <ele>238.1</ele>
        <time>2014-02-20T11:41:32.503Z</time>
      </trkpt>
      <trkpt lat="43.57842" lon="3.05211">
        <ele>237.6</ele>
        <time>2014-02-20T11:41:33.510Z</time>
      </trkpt>
      <trkpt lat="43.5784" lon="3.05206">
        <ele>237.6</ele>
        <time>2014-02-20T11:41:34.541Z</time>
      </trkpt>
      <trkpt lat="43.57837" lon="3.052">
        <ele>236.9</ele>
        <time>2014-02-20T11:41:35.501Z</time>
      </trkpt>
      <trkpt lat="43.57833" lon="3.05194">
        <ele>236.4</ele>
        <time>2014-02-20T11:41:36.501Z</time>
      </trkpt>
      <trkpt lat="43.5783" lon="3.05188">
        <ele>235.8</ele>
        <time>2014-02-20T11:41:37.499Z</time>
      </trkpt>
      <trkpt lat="43.57827" lon="3.05182">
        <ele>235.6</ele>
        <time>2014-02-20T11:41:38.500Z</time>
      </trkpt>
      <trkpt lat="43.57823" lon="3.05173">
        <ele>235.3</ele>
        <time>2014-02-20T11:41:40.500Z</time>
      </trkpt>
      <trkpt lat="43.57821" lon="3.05167">
        <ele>235.2</ele>
        <time>2014-02-20T11:41:41.499Z</time>
      </trkpt>
      <trkpt lat="43.57819" lon="3.05161">
        <ele>235.5</ele>
        <time>2014-02-20T11:41:42.501Z</time>
      </trkpt>
      <trkpt lat="43.57817" lon="3.05155">
        <ele>235.6</ele>
        <time>2014-02-20T11:41:43.511Z</time>
      </trkpt>
      <trkpt lat="43.57814" lon="3.05149">
        <ele>234.6</ele>
        <time>2014-02-20T11:41:44.509Z</time>
      </trkpt>
      <trkpt lat="43.57811" lon="3.05143">
        <ele>235.1</ele>
        <time>2014-02-20T11:41:45.500Z</time>
      </trkpt>
      <trkpt lat="43.57808" lon="3.05137">
        <ele>235.3</ele>
        <time>2014-02-20T11:41:46.501Z</time>
      </trkpt>
      <trkpt lat="43.57805" lon="3.0513">
        <ele>235.2</ele>
        <time>2014-02-20T11:41:47.497Z</time>
      </trkpt>
      <trkpt lat="43.57801" lon="3.0512">
        <ele>235.7</ele>
        <time>2014-02-20T11:41:49.498Z</time>
      </trkpt>
      <trkpt lat="43.57797" lon="3.05115">
        <ele>236.5</ele>
        <time>2014-02-20T11:41:50.497Z</time>
      </trkpt>
      <trkpt lat="43.57793" lon="3.05109">
        <ele>235.7</ele>
        <time>2014-02-20T11:41:51.502Z</time>
      </trkpt>
      <trkpt lat="43.5779" lon="3.05103">
        <ele>236.1</ele>
        <time>2014-02-20T11:41:52.498Z</time>
      </trkpt>
      <trkpt lat="43.57786" lon="3.05097">
        <ele>236.4</ele>
        <time>2014-02-20T11:41:53.499Z</time>
      </trkpt>
      <trkpt lat="43.57782" lon="3.05091">
        <ele>236.8</ele>
        <time>2014-02-20T11:41:55.536Z</time>
      </trkpt>
      <trkpt lat="43.57778" lon="3.05085">
        <ele>237.5</ele>
        <time>2014-02-20T11:41:56.495Z</time>
      </trkpt>
      <trkpt lat="43.57775" lon="3.0508">
        <ele>238.8</ele>
        <time>2014-02-20T11:41:57.497Z</time>
      </trkpt>
      <trkpt lat="43.57771" lon="3.05075">
        <ele>238.7</ele>
        <time>2014-02-20T11:41:58.497Z</time>
      </trkpt>
      <trkpt lat="43.57769" lon="3.05069">
        <ele>238.4</ele>
        <time>2014-02-20T11:41:59.507Z</time>
      </trkpt>
      <trkpt lat="43.57766" lon="3.05064">
        <ele>238</ele>
        <time>2014-02-20T11:42:00.507Z</time>
      </trkpt>
      <trkpt lat="43.57764" lon="3.05057">
        <ele>238.2</ele>
        <time>2014-02-20T11:42:02.221Z</time>
      </trkpt>
      <trkpt lat="43.5776" lon="3.05048">
        <ele>238.6</ele>
        <time>2014-02-20T11:42:03.501Z</time>
      </trkpt>
      <trkpt lat="43.57756" lon="3.05042">
        <ele>238.7</ele>
        <time>2014-02-20T11:42:04.503Z</time>
      </trkpt>
      <trkpt lat="43.57753" lon="3.05035">
        <ele>238.6</ele>
        <time>2014-02-20T11:42:06.452Z</time>
      </trkpt>
      <trkpt lat="43.57751" lon="3.05031">
        <ele>238.7</ele>
        <time>2014-02-20T11:42:07.046Z</time>
      </trkpt>
      <trkpt lat="43.57749" lon="3.05027">
        <ele>239.3</ele>
        <time>2014-02-20T11:42:07.506Z</time>
      </trkpt>
      <trkpt lat="43.57747" lon="3.0502">
        <ele>240.7</ele>
        <time>2014-02-20T11:42:08.507Z</time>
      </trkpt>
      <trkpt lat="43.57744" lon="3.05008">
        <ele>240.4</ele>
        <time>2014-02-20T11:42:10.502Z</time>
      </trkpt>
      <trkpt lat="43.57742" lon="3.05002">
        <ele>240.3</ele>
        <time>2014-02-20T11:42:11.505Z</time>
      </trkpt>
      <trkpt lat="43.57738" lon="3.04996">
        <ele>238.8</ele>
        <time>2014-02-20T11:42:12.510Z</time>
      </trkpt>
      <trkpt lat="43.57735" lon="3.0499">
        <ele>238.6</ele>
        <time>2014-02-20T11:42:13.501Z</time>
      </trkpt>
      <trkpt lat="43.57732" lon="3.04985">
        <ele>239.3</ele>
        <time>2014-02-20T11:42:14.503Z</time>
      </trkpt>
      <trkpt lat="43.5773" lon="3.0498">
        <ele>239.3</ele>
        <time>2014-02-20T11:42:15.501Z</time>
      </trkpt>
      <trkpt lat="43.57728" lon="3.04974">
        <ele>239.5</ele>
        <time>2014-02-20T11:42:16.494Z</time>
      </trkpt>
      <trkpt lat="43.57726" lon="3.04969">
        <ele>238.6</ele>
        <time>2014-02-20T11:42:17.495Z</time>
      </trkpt>
      <trkpt lat="43.57724" lon="3.04963">
        <ele>238.8</ele>
        <time>2014-02-20T11:42:18.497Z</time>
      </trkpt>
      <trkpt lat="43.57722" lon="3.04957">
        <ele>238.5</ele>
        <time>2014-02-20T11:42:19.492Z</time>
      </trkpt>
      <trkpt lat="43.5772" lon="3.0495">
        <ele>238.4</ele>
        <time>2014-02-20T11:42:21.501Z</time>
      </trkpt>
      <trkpt lat="43.57719" lon="3.04942">
        <ele>240</ele>
        <time>2014-02-20T11:42:22.490Z</time>
      </trkpt>
      <trkpt lat="43.57717" lon="3.04935">
        <ele>240.1</ele>
        <time>2014-02-20T11:42:23.493Z</time>
      </trkpt>
      <trkpt lat="43.57715" lon="3.04928">
        <ele>240.4</ele>
        <time>2014-02-20T11:42:24.494Z</time>
      </trkpt>
      <trkpt lat="43.57714" lon="3.04921">
        <ele>239.1</ele>
        <time>2014-02-20T11:42:25.496Z</time>
      </trkpt>
      <trkpt lat="43.57712" lon="3.04914">
        <ele>238.9</ele>
        <time>2014-02-20T11:42:26.499Z</time>
      </trkpt>
      <trkpt lat="43.57711" lon="3.04907">
        <ele>238.6</ele>
        <time>2014-02-20T11:42:27.500Z</time>
      </trkpt>
      <trkpt lat="43.57709" lon="3.04899">
        <ele>237.9</ele>
        <time>2014-02-20T11:42:29.324Z</time>
      </trkpt>
      <trkpt lat="43.57708" lon="3.04888">
        <ele>237.8</ele>
        <time>2014-02-20T11:42:30.497Z</time>
      </trkpt>
      <trkpt lat="43.57706" lon="3.04881">
        <ele>237.4</ele>
        <time>2014-02-20T11:42:31.496Z</time>
      </trkpt>
      <trkpt lat="43.57705" lon="3.04874">
        <ele>238.2</ele>
        <time>2014-02-20T11:42:32.497Z</time>
      </trkpt>
      <trkpt lat="43.57703" lon="3.04867">
        <ele>237.8</ele>
        <time>2014-02-20T11:42:33.494Z</time>
      </trkpt>
      <trkpt lat="43.57702" lon="3.0486">
        <ele>236.7</ele>
        <time>2014-02-20T11:42:34.496Z</time>
      </trkpt>
      <trkpt lat="43.57701" lon="3.04853">
        <ele>236.6</ele>
        <time>2014-02-20T11:42:35.500Z</time>
      </trkpt>
      <trkpt lat="43.57699" lon="3.04842">
        <ele>237.8</ele>
        <time>2014-02-20T11:42:37.536Z</time>
      </trkpt>
      <trkpt lat="43.57699" lon="3.04836">
        <ele>238</ele>
        <time>2014-02-20T11:42:38.496Z</time>
      </trkpt>
      <trkpt lat="43.57697" lon="3.04824">
        <ele>238.5</ele>
        <time>2014-02-20T11:42:40.492Z</time>
      </trkpt>
      <trkpt lat="43.57696" lon="3.04818">
        <ele>238.1</ele>
        <time>2014-02-20T11:42:41.496Z</time>
      </trkpt>
      <trkpt lat="43.57695" lon="3.04806">
        <ele>239.4</ele>
        <time>2014-02-20T11:42:43.490Z</time>
      </trkpt>
      <trkpt lat="43.57694" lon="3.04801">
        <ele>239.9</ele>
        <time>2014-02-20T11:42:44.497Z</time>
      </trkpt>
      <trkpt lat="43.57694" lon="3.04789">
        <ele>240.2</ele>
        <time>2014-02-20T11:42:46.499Z</time>
      </trkpt>
      <trkpt lat="43.57694" lon="3.04783">
        <ele>240.8</ele>
        <time>2014-02-20T11:42:47.504Z</time>
      </trkpt>
      <trkpt lat="43.57693" lon="3.04771">
        <ele>241.5</ele>
        <time>2014-02-20T11:42:49.501Z</time>
      </trkpt>
      <trkpt lat="43.57692" lon="3.04763">
        <ele>241.2</ele>
        <time>2014-02-20T11:42:50.568Z</time>
      </trkpt>
      <trkpt lat="43.57692" lon="3.04756">
        <ele>241.1</ele>
        <time>2014-02-20T11:42:51.503Z</time>
      </trkpt>
      <trkpt lat="43.57691" lon="3.0475">
        <ele>240.7</ele>
        <time>2014-02-20T11:42:52.497Z</time>
      </trkpt>
      <trkpt lat="43.57691" lon="3.04738">
        <ele>239.9</ele>
        <time>2014-02-20T11:42:54.506Z</time>
      </trkpt>
      <trkpt lat="43.57692" lon="3.04733">
        <ele>239.3</ele>
        <time>2014-02-20T11:42:55.498Z</time>
      </trkpt>
      <trkpt lat="43.57691" lon="3.04721">
        <ele>238.4</ele>
        <time>2014-02-20T11:42:57.508Z</time>
      </trkpt>
      <trkpt lat="43.57692" lon="3.04714">
        <ele>238</ele>
        <time>2014-02-20T11:42:58.502Z</time>
      </trkpt>
      <trkpt lat="43.57692" lon="3.04702">
        <ele>237.9</ele>
        <time>2014-02-20T11:43:00.507Z</time>
      </trkpt>
      <trkpt lat="43.57691" lon="3.04696">
        <ele>237.9</ele>
        <time>2014-02-20T11:43:01.498Z</time>
      </trkpt>
      <trkpt lat="43.57691" lon="3.04686">
        <ele>236.8</ele>
        <time>2014-02-20T11:43:03.507Z</time>
      </trkpt>
      <trkpt lat="43.57691" lon="3.0468">
        <ele>236.1</ele>
        <time>2014-02-20T11:43:04.511Z</time>
      </trkpt>
      <trkpt lat="43.57691" lon="3.04669">
        <ele>234.1</ele>
        <time>2014-02-20T11:43:06.498Z</time>
      </trkpt>
      <trkpt lat="43.57692" lon="3.04662">
        <ele>234.3</ele>
        <time>2014-02-20T11:43:08.586Z</time>
      </trkpt>
      <trkpt lat="43.57694" lon="3.04653">
        <ele>235.5</ele>
        <time>2014-02-20T11:43:09.496Z</time>
      </trkpt>
      <trkpt lat="43.57694" lon="3.04645">
        <ele>236.8</ele>
        <time>2014-02-20T11:43:10.491Z</time>
      </trkpt>
      <trkpt lat="43.57695" lon="3.04638">
        <ele>237.3</ele>
        <time>2014-02-20T11:43:11.501Z</time>
      </trkpt>
      <trkpt lat="43.57695" lon="3.04633">
        <ele>237.9</ele>
        <time>2014-02-20T11:43:12.502Z</time>
      </trkpt>
      <trkpt lat="43.57696" lon="3.04626">
        <ele>238.1</ele>
        <time>2014-02-20T11:43:13.569Z</time>
      </trkpt>
      <trkpt lat="43.57697" lon="3.04619">
        <ele>238.7</ele>
        <time>2014-02-20T11:43:14.497Z</time>
      </trkpt>
      <trkpt lat="43.57697" lon="3.04612">
        <ele>239.2</ele>
        <time>2014-02-20T11:43:15.496Z</time>
      </trkpt>
      <trkpt lat="43.57698" lon="3.04604">
        <ele>238.3</ele>
        <time>2014-02-20T11:43:16.495Z</time>
      </trkpt>
      <trkpt lat="43.57699" lon="3.04596">
        <ele>238.8</ele>
        <time>2014-02-20T11:43:17.496Z</time>
      </trkpt>
      <trkpt lat="43.57699" lon="3.04589">
        <ele>239.1</ele>
        <time>2014-02-20T11:43:18.495Z</time>
      </trkpt>
      <trkpt lat="43.577" lon="3.04582">
        <ele>239.2</ele>
        <time>2014-02-20T11:43:19.515Z</time>
      </trkpt>
      <trkpt lat="43.57701" lon="3.04574">
        <ele>239.6</ele>
        <time>2014-02-20T11:43:20.496Z</time>
      </trkpt>
      <trkpt lat="43.57703" lon="3.04563">
        <ele>240.7</ele>
        <time>2014-02-20T11:43:22.502Z</time>
      </trkpt>
      <trkpt lat="43.57704" lon="3.04555">
        <ele>239.7</ele>
        <time>2014-02-20T11:43:23.502Z</time>
      </trkpt>
      <trkpt lat="43.57706" lon="3.04545">
        <ele>239.5</ele>
        <time>2014-02-20T11:43:25.501Z</time>
      </trkpt>
      <trkpt lat="43.57708" lon="3.04537">
        <ele>239.8</ele>
        <time>2014-02-20T11:43:26.504Z</time>
      </trkpt>
      <trkpt lat="43.57709" lon="3.0453">
        <ele>239.9</ele>
        <time>2014-02-20T11:43:27.503Z</time>
      </trkpt>
      <trkpt lat="43.5771" lon="3.04523">
        <ele>239.7</ele>
        <time>2014-02-20T11:43:28.503Z</time>
      </trkpt>
      <trkpt lat="43.57712" lon="3.04516">
        <ele>239.1</ele>
        <time>2014-02-20T11:43:29.498Z</time>
      </trkpt>
      <trkpt lat="43.57713" lon="3.04509">
        <ele>239.3</ele>
        <time>2014-02-20T11:43:30.496Z</time>
      </trkpt>
      <trkpt lat="43.57715" lon="3.04503">
        <ele>239.9</ele>
        <time>2014-02-20T11:43:31.497Z</time>
      </trkpt>
      <trkpt lat="43.57716" lon="3.04497">
        <ele>239.7</ele>
        <time>2014-02-20T11:43:32.502Z</time>
      </trkpt>
      <trkpt lat="43.57718" lon="3.04491">
        <ele>238.7</ele>
        <time>2014-02-20T11:43:33.498Z</time>
      </trkpt>
      <trkpt lat="43.5772" lon="3.04484">
        <ele>238.6</ele>
        <time>2014-02-20T11:43:34.496Z</time>
      </trkpt>
      <trkpt lat="43.57722" lon="3.04478">
        <ele>238.5</ele>
        <time>2014-02-20T11:43:35.499Z</time>
      </trkpt>
      <trkpt lat="43.57724" lon="3.04473">
        <ele>237.8</ele>
        <time>2014-02-20T11:43:36.500Z</time>
      </trkpt>
      <trkpt lat="43.57726" lon="3.04467">
        <ele>237.6</ele>
        <time>2014-02-20T11:43:37.499Z</time>
      </trkpt>
      <trkpt lat="43.57728" lon="3.04461">
        <ele>238.2</ele>
        <time>2014-02-20T11:43:38.498Z</time>
      </trkpt>
      <trkpt lat="43.5773" lon="3.0445">
        <ele>240</ele>
        <time>2014-02-20T11:43:40.498Z</time>
      </trkpt>
      <trkpt lat="43.57732" lon="3.04444">
        <ele>240.4</ele>
        <time>2014-02-20T11:43:41.500Z</time>
      </trkpt>
      <trkpt lat="43.57733" lon="3.04438">
        <ele>241.1</ele>
        <time>2014-02-20T11:43:42.502Z</time>
      </trkpt>
      <trkpt lat="43.57735" lon="3.04432">
        <ele>240.2</ele>
        <time>2014-02-20T11:43:43.498Z</time>
      </trkpt>
      <trkpt lat="43.57737" lon="3.04425">
        <ele>240.5</ele>
        <time>2014-02-20T11:43:44.498Z</time>
      </trkpt>
      <trkpt lat="43.57739" lon="3.04419">
        <ele>239.6</ele>
        <time>2014-02-20T11:43:45.498Z</time>
      </trkpt>
      <trkpt lat="43.57741" lon="3.04412">
        <ele>239.2</ele>
        <time>2014-02-20T11:43:46.535Z</time>
      </trkpt>
      <trkpt lat="43.57743" lon="3.04405">
        <ele>238.5</ele>
        <time>2014-02-20T11:43:47.500Z</time>
      </trkpt>
      <trkpt lat="43.57744" lon="3.04398">
        <ele>239</ele>
        <time>2014-02-20T11:43:48.497Z</time>
      </trkpt>
      <trkpt lat="43.57746" lon="3.04391">
        <ele>239.3</ele>
        <time>2014-02-20T11:43:49.496Z</time>
      </trkpt>
      <trkpt lat="43.57748" lon="3.04385">
        <ele>239.4</ele>
        <time>2014-02-20T11:43:50.510Z</time>
      </trkpt>
      <trkpt lat="43.5775" lon="3.04379">
        <ele>239.8</ele>
        <time>2014-02-20T11:43:51.500Z</time>
      </trkpt>
      <trkpt lat="43.57752" lon="3.04372">
        <ele>239.9</ele>
        <time>2014-02-20T11:43:52.495Z</time>
      </trkpt>
      <trkpt lat="43.57754" lon="3.04366">
        <ele>239.9</ele>
        <time>2014-02-20T11:43:53.501Z</time>
      </trkpt>
      <trkpt lat="43.57757" lon="3.04359">
        <ele>239.2</ele>
        <time>2014-02-20T11:43:54.500Z</time>
      </trkpt>
      <trkpt lat="43.57759" lon="3.04353">
        <ele>239.4</ele>
        <time>2014-02-20T11:43:55.491Z</time>
      </trkpt>
      <trkpt lat="43.57763" lon="3.04343">
        <ele>239.3</ele>
        <time>2014-02-20T11:43:57.500Z</time>
      </trkpt>
      <trkpt lat="43.57765" lon="3.04337">
        <ele>239</ele>
        <time>2014-02-20T11:43:58.498Z</time>
      </trkpt>
      <trkpt lat="43.57767" lon="3.04331">
        <ele>237.9</ele>
        <time>2014-02-20T11:43:59.502Z</time>
      </trkpt>
      <trkpt lat="43.57769" lon="3.04325">
        <ele>237.5</ele>
        <time>2014-02-20T11:44:00.502Z</time>
      </trkpt>
      <trkpt lat="43.57771" lon="3.04318">
        <ele>237.5</ele>
        <time>2014-02-20T11:44:01.536Z</time>
      </trkpt>
      <trkpt lat="43.57773" lon="3.04311">
        <ele>237.7</ele>
        <time>2014-02-20T11:44:02.500Z</time>
      </trkpt>
      <trkpt lat="43.57774" lon="3.04305">
        <ele>237.5</ele>
        <time>2014-02-20T11:44:03.500Z</time>
      </trkpt>
      <trkpt lat="43.57776" lon="3.04298">
        <ele>237.2</ele>
        <time>2014-02-20T11:44:04.500Z</time>
      </trkpt>
      <trkpt lat="43.57778" lon="3.04292">
        <ele>237.4</ele>
        <time>2014-02-20T11:44:05.502Z</time>
      </trkpt>
      <trkpt lat="43.5778" lon="3.04286">
        <ele>237.5</ele>
        <time>2014-02-20T11:44:06.501Z</time>
      </trkpt>
      <trkpt lat="43.57783" lon="3.04275">
        <ele>237.2</ele>
        <time>2014-02-20T11:44:08.503Z</time>
      </trkpt>
      <trkpt lat="43.57784" lon="3.0427">
        <ele>237.2</ele>
        <time>2014-02-20T11:44:09.501Z</time>
      </trkpt>
      <trkpt lat="43.57787" lon="3.04259">
        <ele>236.9</ele>
        <time>2014-02-20T11:44:12.501Z</time>
      </trkpt>
      <trkpt lat="43.57788" lon="3.04257">
        <ele>236.7</ele>
        <time>2014-02-20T11:44:13.499Z</time>
      </trkpt>
      <trkpt lat="43.57788" lon="3.0425">
        <ele>235.8</ele>
        <time>2014-02-20T11:44:19.495Z</time>
      </trkpt>
      <trkpt lat="43.57788" lon="3.04251">
        <ele>235.8</ele>
        <time>2014-02-20T11:44:20.498Z</time>
      </trkpt>
      <trkpt lat="43.57788" lon="3.04251">
        <ele>235.7</ele>
        <time>2014-02-20T11:46:16.498Z</time>
      </trkpt>
      <trkpt lat="43.57787" lon="3.04251">
        <ele>236.2</ele>
        <time>2014-02-20T11:46:17.496Z</time>
      </trkpt>
      <trkpt lat="43.57787" lon="3.0425">
        <ele>235.8</ele>
        <time>2014-02-20T11:46:18.496Z</time>
      </trkpt>
      <trkpt lat="43.57788" lon="3.04249">
        <ele>238.2</ele>
        <time>2014-02-20T11:46:19.495Z</time>
      </trkpt>
      <trkpt lat="43.5779" lon="3.04244">
        <ele>237</ele>
        <time>2014-02-20T11:46:26.510Z</time>
      </trkpt>
      <trkpt lat="43.5779" lon="3.04245">
        <ele>236.9</ele>
        <time>2014-02-20T11:46:27.496Z</time>
      </trkpt>
      <trkpt lat="43.57789" lon="3.04245">
        <ele>236.5</ele>
        <time>2014-02-20T11:46:31.494Z</time>
      </trkpt>
      <trkpt lat="43.57789" lon="3.04246">
        <ele>236.6</ele>
        <time>2014-02-20T11:46:32.494Z</time>
      </trkpt>
      <trkpt lat="43.5779" lon="3.04247">
        <ele>236.5</ele>
        <time>2014-02-20T11:46:35.496Z</time>
      </trkpt>
      <trkpt lat="43.57789" lon="3.04247">
        <ele>237.2</ele>
        <time>2014-02-20T11:46:36.497Z</time>
      </trkpt>
      <trkpt lat="43.5779" lon="3.04248">
        <ele>237.1</ele>
        <time>2014-02-20T11:46:50.499Z</time>
      </trkpt>
      <trkpt lat="43.5779" lon="3.04247">
        <ele>235</ele>
        <time>2014-02-20T11:46:51.501Z</time>
      </trkpt>
      <trkpt lat="43.5779" lon="3.04247">
        <ele>234.9</ele>
        <time>2014-02-20T11:46:53.739Z</time>
      </trkpt>
      <trkpt lat="43.5779" lon="3.04246">
        <ele>235</ele>
        <time>2014-02-20T11:46:55.489Z</time>
      </trkpt>
      <trkpt lat="43.5779" lon="3.04246">
        <ele>234.9</ele>
        <time>2014-02-20T11:49:39.492Z</time>
      </trkpt>
      <trkpt lat="43.57791" lon="3.04245">
        <ele>234.9</ele>
        <time>2014-02-20T11:49:40.499Z</time>
      </trkpt>
      <trkpt lat="43.57794" lon="3.04236">
        <ele>235.2</ele>
        <time>2014-02-20T11:49:43.493Z</time>
      </trkpt>
      <trkpt lat="43.57795" lon="3.04233">
        <ele>235.2</ele>
        <time>2014-02-20T11:49:44.495Z</time>
      </trkpt>
      <trkpt lat="43.57799" lon="3.04222">
        <ele>236.9</ele>
        <time>2014-02-20T11:49:47.501Z</time>
      </trkpt>
      <trkpt lat="43.578" lon="3.0422">
        <ele>236.3</ele>
        <time>2014-02-20T11:49:48.502Z</time>
      </trkpt>
      <trkpt lat="43.57803" lon="3.04213">
        <ele>238.6</ele>
        <time>2014-02-20T11:49:52.496Z</time>
      </trkpt>
      <trkpt lat="43.57804" lon="3.04208">
        <ele>238.5</ele>
        <time>2014-02-20T11:49:53.506Z</time>
      </trkpt>
      <trkpt lat="43.57809" lon="3.04198">
        <ele>237.1</ele>
        <time>2014-02-20T11:49:57.511Z</time>
      </trkpt>
      <trkpt lat="43.57809" lon="3.04194">
        <ele>237.2</ele>
        <time>2014-02-20T11:49:58.504Z</time>
      </trkpt>
      <trkpt lat="43.57817" lon="3.04191">
        <ele>232.2</ele>
        <time>2014-02-20T11:50:04.506Z</time>
      </trkpt>
      <trkpt lat="43.57818" lon="3.04194">
        <ele>232.1</ele>
        <time>2014-02-20T11:50:05.509Z</time>
      </trkpt>
      <trkpt lat="43.5782" lon="3.04184">
        <ele>230.6</ele>
        <time>2014-02-20T11:50:10.503Z</time>
      </trkpt>
      <trkpt lat="43.5782" lon="3.04179">
        <ele>230.5</ele>
        <time>2014-02-20T11:50:11.509Z</time>
      </trkpt>
      <trkpt lat="43.5782" lon="3.04169">
        <ele>230.3</ele>
        <time>2014-02-20T11:50:13.507Z</time>
      </trkpt>
      <trkpt lat="43.57821" lon="3.04166">
        <ele>228.8</ele>
        <time>2014-02-20T11:50:14.505Z</time>
      </trkpt>
      <trkpt lat="43.57827" lon="3.04156">
        <ele>225.3</ele>
        <time>2014-02-20T11:50:17.504Z</time>
      </trkpt>
      <trkpt lat="43.57828" lon="3.04155">
        <ele>224.8</ele>
        <time>2014-02-20T11:50:18.502Z</time>
      </trkpt>
      <trkpt lat="43.57833" lon="3.04148">
        <ele>225</ele>
        <time>2014-02-20T11:50:22.655Z</time>
      </trkpt>
      <trkpt lat="43.57834" lon="3.04143">
        <ele>225.3</ele>
        <time>2014-02-20T11:50:23.503Z</time>
      </trkpt>
      <trkpt lat="43.57837" lon="3.04132">
        <ele>225.4</ele>
        <time>2014-02-20T11:50:26.505Z</time>
      </trkpt>
      <trkpt lat="43.57837" lon="3.0413">
        <ele>225.2</ele>
        <time>2014-02-20T11:50:27.623Z</time>
      </trkpt>
      <trkpt lat="43.57839" lon="3.0412">
        <ele>226.5</ele>
        <time>2014-02-20T11:50:32.503Z</time>
      </trkpt>
      <trkpt lat="43.5784" lon="3.04116">
        <ele>226.7</ele>
        <time>2014-02-20T11:50:33.503Z</time>
      </trkpt>
      <trkpt lat="43.57838" lon="3.04106">
        <ele>230</ele>
        <time>2014-02-20T11:50:36.503Z</time>
      </trkpt>
      <trkpt lat="43.57838" lon="3.041">
        <ele>229.9</ele>
        <time>2014-02-20T11:50:37.497Z</time>
      </trkpt>
      <trkpt lat="43.57839" lon="3.04088">
        <ele>229.8</ele>
        <time>2014-02-20T11:50:39.498Z</time>
      </trkpt>
      <trkpt lat="43.57839" lon="3.04084">
        <ele>229.7</ele>
        <time>2014-02-20T11:50:40.496Z</time>
      </trkpt>
      <trkpt lat="43.57842" lon="3.04073">
        <ele>230</ele>
        <time>2014-02-20T11:50:43.507Z</time>
      </trkpt>
      <trkpt lat="43.57842" lon="3.0407">
        <ele>229.8</ele>
        <time>2014-02-20T11:50:44.505Z</time>
      </trkpt>
      <trkpt lat="43.57845" lon="3.04063">
        <ele>231.2</ele>
        <time>2014-02-20T11:50:46.496Z</time>
      </trkpt>
      <trkpt lat="43.57847" lon="3.04059">
        <ele>230.3</ele>
        <time>2014-02-20T11:50:47.508Z</time>
      </trkpt>
      <trkpt lat="43.57856" lon="3.04057">
        <ele>233.8</ele>
        <time>2014-02-20T11:50:51.500Z</time>
      </trkpt>
      <trkpt lat="43.57858" lon="3.04062">
        <ele>233.1</ele>
        <time>2014-02-20T11:50:52.603Z</time>
      </trkpt>
      <trkpt lat="43.57864" lon="3.04066">
        <ele>231.2</ele>
        <time>2014-02-20T11:50:54.493Z</time>
      </trkpt>
      <trkpt lat="43.57868" lon="3.04067">
        <ele>231.5</ele>
        <time>2014-02-20T11:50:55.501Z</time>
      </trkpt>
      <trkpt lat="43.57871" lon="3.04061">
        <ele>233.6</ele>
        <time>2014-02-20T11:50:58.538Z</time>
      </trkpt>
      <trkpt lat="43.57873" lon="3.04057">
        <ele>232.4</ele>
        <time>2014-02-20T11:50:59.502Z</time>
      </trkpt>
      <trkpt lat="43.5788" lon="3.04052">
        <ele>234.4</ele>
        <time>2014-02-20T11:51:02.510Z</time>
      </trkpt>
      <trkpt lat="43.57883" lon="3.04051">
        <ele>234.8</ele>
        <time>2014-02-20T11:51:03.546Z</time>
      </trkpt>
      <trkpt lat="43.57889" lon="3.04045">
        <ele>232.3</ele>
        <time>2014-02-20T11:51:09.509Z</time>
      </trkpt>
      <trkpt lat="43.57891" lon="3.04043">
        <ele>232</ele>
        <time>2014-02-20T11:51:10.497Z</time>
      </trkpt>
      <trkpt lat="43.5789" lon="3.04048">
        <ele>231.1</ele>
        <time>2014-02-20T11:51:17.500Z</time>
      </trkpt>
      <trkpt lat="43.57891" lon="3.04047">
        <ele>231.1</ele>
        <time>2014-02-20T11:51:18.509Z</time>
      </trkpt>
      <trkpt lat="43.57891" lon="3.04047">
        <ele>231.4</ele>
        <time>2014-02-20T11:51:19.503Z</time>
      </trkpt>
      <trkpt lat="43.57891" lon="3.04046">
        <ele>231.3</ele>
        <time>2014-02-20T11:51:20.507Z</time>
      </trkpt>
      <trkpt lat="43.5789" lon="3.04044">
        <ele>231.6</ele>
        <time>2014-02-20T11:51:21.500Z</time>
      </trkpt>
      <trkpt lat="43.57889" lon="3.04034">
        <ele>232.9</ele>
        <time>2014-02-20T11:51:24.502Z</time>
      </trkpt>
      <trkpt lat="43.57888" lon="3.04031">
        <ele>233.6</ele>
        <time>2014-02-20T11:51:25.496Z</time>
      </trkpt>
      <trkpt lat="43.57885" lon="3.0402">
        <ele>234.9</ele>
        <time>2014-02-20T11:51:28.493Z</time>
      </trkpt>
      <trkpt lat="43.57882" lon="3.04019">
        <ele>236.1</ele>
        <time>2014-02-20T11:51:29.494Z</time>
      </trkpt>
      <trkpt lat="43.57874" lon="3.04016">
        <ele>236.7</ele>
        <time>2014-02-20T11:51:37.493Z</time>
      </trkpt>
      <trkpt lat="43.57873" lon="3.04015">
        <ele>237.1</ele>
        <time>2014-02-20T11:51:38.498Z</time>
      </trkpt>
      <trkpt lat="43.5787" lon="3.04007">
        <ele>238.8</ele>
        <time>2014-02-20T11:51:44.496Z</time>
      </trkpt>
      <trkpt lat="43.5787" lon="3.04002">
        <ele>239.1</ele>
        <time>2014-02-20T11:51:45.500Z</time>
      </trkpt>
      <trkpt lat="43.57867" lon="3.03991">
        <ele>237.8</ele>
        <time>2014-02-20T11:51:48.498Z</time>
      </trkpt>
      <trkpt lat="43.57867" lon="3.03989">
        <ele>237.9</ele>
        <time>2014-02-20T11:51:49.499Z</time>
      </trkpt>
      <trkpt lat="43.57869" lon="3.03978">
        <ele>239.2</ele>
        <time>2014-02-20T11:51:52.497Z</time>
      </trkpt>
      <trkpt lat="43.57869" lon="3.03973">
        <ele>239.1</ele>
        <time>2014-02-20T11:51:53.501Z</time>
      </trkpt>
      <trkpt lat="43.57873" lon="3.03963">
        <ele>238.4</ele>
        <time>2014-02-20T11:51:55.530Z</time>
      </trkpt>
      <trkpt lat="43.57875" lon="3.03959">
        <ele>237.6</ele>
        <time>2014-02-20T11:51:56.508Z</time>
      </trkpt>
      <trkpt lat="43.57876" lon="3.03953">
        <ele>237</ele>
        <time>2014-02-20T11:51:57.506Z</time>
      </trkpt>
      <trkpt lat="43.57878" lon="3.03947">
        <ele>237.1</ele>
        <time>2014-02-20T11:51:58.503Z</time>
      </trkpt>
      <trkpt lat="43.57884" lon="3.03939">
        <ele>234.6</ele>
        <time>2014-02-20T11:52:01.501Z</time>
      </trkpt>
      <trkpt lat="43.57886" lon="3.03939">
        <ele>234.1</ele>
        <time>2014-02-20T11:52:02.506Z</time>
      </trkpt>
      <trkpt lat="43.57889" lon="3.03928">
        <ele>234</ele>
        <time>2014-02-20T11:52:10.499Z</time>
      </trkpt>
      <trkpt lat="43.5789" lon="3.03925">
        <ele>233.8</ele>
        <time>2014-02-20T11:52:11.501Z</time>
      </trkpt>
      <trkpt lat="43.57891" lon="3.03918">
        <ele>233.9</ele>
        <time>2014-02-20T11:52:13.497Z</time>
      </trkpt>
      <trkpt lat="43.57892" lon="3.03912">
        <ele>234.4</ele>
        <time>2014-02-20T11:52:14.502Z</time>
      </trkpt>
      <trkpt lat="43.57894" lon="3.03902">
        <ele>234.6</ele>
        <time>2014-02-20T11:52:16.498Z</time>
      </trkpt>
      <trkpt lat="43.57895" lon="3.03896">
        <ele>234.7</ele>
        <time>2014-02-20T11:52:17.503Z</time>
      </trkpt>
      <trkpt lat="43.57897" lon="3.03888">
        <ele>235.1</ele>
        <time>2014-02-20T11:52:18.505Z</time>
      </trkpt>
      <trkpt lat="43.579" lon="3.03883">
        <ele>236.1</ele>
        <time>2014-02-20T11:52:19.505Z</time>
      </trkpt>
      <trkpt lat="43.57906" lon="3.03875">
        <ele>236.5</ele>
        <time>2014-02-20T11:52:21.504Z</time>
      </trkpt>
      <trkpt lat="43.57908" lon="3.03871">
        <ele>235.6</ele>
        <time>2014-02-20T11:52:22.496Z</time>
      </trkpt>
      <trkpt lat="43.57911" lon="3.03861">
        <ele>235.6</ele>
        <time>2014-02-20T11:52:24.497Z</time>
      </trkpt>
      <trkpt lat="43.57913" lon="3.03856">
        <ele>236.1</ele>
        <time>2014-02-20T11:52:25.518Z</time>
      </trkpt>
      <trkpt lat="43.57916" lon="3.03851">
        <ele>236.6</ele>
        <time>2014-02-20T11:52:26.507Z</time>
      </trkpt>
      <trkpt lat="43.57918" lon="3.03843">
        <ele>236.4</ele>
        <time>2014-02-20T11:52:27.509Z</time>
      </trkpt>
      <trkpt lat="43.5792" lon="3.03836">
        <ele>236.4</ele>
        <time>2014-02-20T11:52:28.499Z</time>
      </trkpt>
      <trkpt lat="43.57922" lon="3.03828">
        <ele>237.4</ele>
        <time>2014-02-20T11:52:29.504Z</time>
      </trkpt>
      <trkpt lat="43.57924" lon="3.03822">
        <ele>237.8</ele>
        <time>2014-02-20T11:52:30.506Z</time>
      </trkpt>
      <trkpt lat="43.57924" lon="3.03815">
        <ele>238.4</ele>
        <time>2014-02-20T11:52:31.505Z</time>
      </trkpt>
      <trkpt lat="43.57925" lon="3.03803">
        <ele>238.7</ele>
        <time>2014-02-20T11:52:33.507Z</time>
      </trkpt>
      <trkpt lat="43.57926" lon="3.03799">
        <ele>238.3</ele>
        <time>2014-02-20T11:52:34.509Z</time>
      </trkpt>
      <trkpt lat="43.5793" lon="3.03789">
        <ele>236.2</ele>
        <time>2014-02-20T11:52:36.501Z</time>
      </trkpt>
      <trkpt lat="43.57932" lon="3.03785">
        <ele>234.5</ele>
        <time>2014-02-20T11:52:37.499Z</time>
      </trkpt>
      <trkpt lat="43.57934" lon="3.03776">
        <ele>233.9</ele>
        <time>2014-02-20T11:52:40.138Z</time>
      </trkpt>
      <trkpt lat="43.57935" lon="3.0377">
        <ele>233.9</ele>
        <time>2014-02-20T11:52:40.500Z</time>
      </trkpt>
      <trkpt lat="43.57937" lon="3.03762">
        <ele>233.7</ele>
        <time>2014-02-20T11:52:41.508Z</time>
      </trkpt>
      <trkpt lat="43.57939" lon="3.03754">
        <ele>233.4</ele>
        <time>2014-02-20T11:52:42.505Z</time>
      </trkpt>
      <trkpt lat="43.57942" lon="3.03748">
        <ele>232.9</ele>
        <time>2014-02-20T11:52:43.504Z</time>
      </trkpt>
      <trkpt lat="43.57944" lon="3.03741">
        <ele>232.6</ele>
        <time>2014-02-20T11:52:44.497Z</time>
      </trkpt>
      <trkpt lat="43.57947" lon="3.03737">
        <ele>231.4</ele>
        <time>2014-02-20T11:52:45.503Z</time>
      </trkpt>
      <trkpt lat="43.57951" lon="3.0373">
        <ele>233.8</ele>
        <time>2014-02-20T11:52:46.500Z</time>
      </trkpt>
      <trkpt lat="43.57953" lon="3.03724">
        <ele>234.3</ele>
        <time>2014-02-20T11:52:47.579Z</time>
      </trkpt>
      <trkpt lat="43.57958" lon="3.03718">
        <ele>233.5</ele>
        <time>2014-02-20T11:52:48.503Z</time>
      </trkpt>
      <trkpt lat="43.57961" lon="3.03711">
        <ele>233.7</ele>
        <time>2014-02-20T11:52:49.536Z</time>
      </trkpt>
      <trkpt lat="43.57964" lon="3.03705">
        <ele>234.1</ele>
        <time>2014-02-20T11:52:50.525Z</time>
      </trkpt>
      <trkpt lat="43.57967" lon="3.03694">
        <ele>234.6</ele>
        <time>2014-02-20T11:52:52.498Z</time>
      </trkpt>
      <trkpt lat="43.57968" lon="3.03688">
        <ele>235</ele>
        <time>2014-02-20T11:52:53.537Z</time>
      </trkpt>
      <trkpt lat="43.57971" lon="3.03677">
        <ele>235.2</ele>
        <time>2014-02-20T11:52:55.491Z</time>
      </trkpt>
      <trkpt lat="43.57972" lon="3.03672">
        <ele>234.9</ele>
        <time>2014-02-20T11:52:56.509Z</time>
      </trkpt>
      <trkpt lat="43.57976" lon="3.03663">
        <ele>234.5</ele>
        <time>2014-02-20T11:52:58.504Z</time>
      </trkpt>
      <trkpt lat="43.57978" lon="3.03658">
        <ele>234.1</ele>
        <time>2014-02-20T11:52:59.502Z</time>
      </trkpt>
      <trkpt lat="43.57982" lon="3.03648">
        <ele>234.4</ele>
        <time>2014-02-20T11:53:01.519Z</time>
      </trkpt>
      <trkpt lat="43.57984" lon="3.03642">
        <ele>233.6</ele>
        <time>2014-02-20T11:53:02.693Z</time>
      </trkpt>
      <trkpt lat="43.57985" lon="3.0363">
        <ele>233.2</ele>
        <time>2014-02-20T11:53:04.497Z</time>
      </trkpt>
      <trkpt lat="43.57986" lon="3.03624">
        <ele>233.6</ele>
        <time>2014-02-20T11:53:05.502Z</time>
      </trkpt>
      <trkpt lat="43.57988" lon="3.03613">
        <ele>232.7</ele>
        <time>2014-02-20T11:53:07.505Z</time>
      </trkpt>
      <trkpt lat="43.57988" lon="3.03606">
        <ele>232.5</ele>
        <time>2014-02-20T11:53:08.503Z</time>
      </trkpt>
      <trkpt lat="43.57987" lon="3.03594">
        <ele>231.6</ele>
        <time>2014-02-20T11:53:10.500Z</time>
      </trkpt>
      <trkpt lat="43.57988" lon="3.03588">
        <ele>231.6</ele>
        <time>2014-02-20T11:53:11.493Z</time>
      </trkpt>
      <trkpt lat="43.57988" lon="3.03584">
        <ele>231.4</ele>
        <time>2014-02-20T11:53:12.502Z</time>
      </trkpt>
      <trkpt lat="43.57988" lon="3.03575">
        <ele>227.5</ele>
        <time>2014-02-20T11:53:13.505Z</time>
      </trkpt>
      <trkpt lat="43.57988" lon="3.03567">
        <ele>226.5</ele>
        <time>2014-02-20T11:53:14.504Z</time>
      </trkpt>
      <trkpt lat="43.5799" lon="3.03561">
        <ele>229.8</ele>
        <time>2014-02-20T11:53:15.504Z</time>
      </trkpt>
      <trkpt lat="43.57991" lon="3.03549">
        <ele>230.6</ele>
        <time>2014-02-20T11:53:17.500Z</time>
      </trkpt>
      <trkpt lat="43.57991" lon="3.03543">
        <ele>230.6</ele>
        <time>2014-02-20T11:53:21.525Z</time>
      </trkpt>
      <trkpt lat="43.57992" lon="3.03534">
        <ele>232.9</ele>
        <time>2014-02-20T11:53:21.879Z</time>
      </trkpt>
      <trkpt lat="43.57993" lon="3.03523">
        <ele>234</ele>
        <time>2014-02-20T11:53:22.663Z</time>
      </trkpt>
      <trkpt lat="43.57993" lon="3.03516">
        <ele>234.4</ele>
        <time>2014-02-20T11:53:23.501Z</time>
      </trkpt>
      <trkpt lat="43.57994" lon="3.03509">
        <ele>235.2</ele>
        <time>2014-02-20T11:53:24.506Z</time>
      </trkpt>
      <trkpt lat="43.57997" lon="3.03499">
        <ele>235</ele>
        <time>2014-02-20T11:53:26.502Z</time>
      </trkpt>
      <trkpt lat="43.57998" lon="3.03495">
        <ele>235.2</ele>
        <time>2014-02-20T11:53:27.508Z</time>
      </trkpt>
      <trkpt lat="43.57999" lon="3.03483">
        <ele>233</ele>
        <time>2014-02-20T11:53:29.505Z</time>
      </trkpt>
      <trkpt lat="43.57999" lon="3.03476">
        <ele>234</ele>
        <time>2014-02-20T11:53:30.505Z</time>
      </trkpt>
      <trkpt lat="43.57999" lon="3.03469">
        <ele>232.4</ele>
        <time>2014-02-20T11:53:31.502Z</time>
      </trkpt>
      <trkpt lat="43.57999" lon="3.03461">
        <ele>231.5</ele>
        <time>2014-02-20T11:53:32.504Z</time>
      </trkpt>
      <trkpt lat="43.58" lon="3.03449">
        <ele>230.8</ele>
        <time>2014-02-20T11:53:34.500Z</time>
      </trkpt>
      <trkpt lat="43.58001" lon="3.03444">
        <ele>230.9</ele>
        <time>2014-02-20T11:53:35.501Z</time>
      </trkpt>
      <trkpt lat="43.58003" lon="3.03434">
        <ele>231.1</ele>
        <time>2014-02-20T11:53:37.503Z</time>
      </trkpt>
      <trkpt lat="43.58004" lon="3.0343">
        <ele>231.1</ele>
        <time>2014-02-20T11:53:38.505Z</time>
      </trkpt>
      <trkpt lat="43.58006" lon="3.03421">
        <ele>231.2</ele>
        <time>2014-02-20T11:53:40.536Z</time>
      </trkpt>
      <trkpt lat="43.58006" lon="3.03416">
        <ele>231.6</ele>
        <time>2014-02-20T11:53:41.497Z</time>
      </trkpt>
      <trkpt lat="43.58006" lon="3.03403">
        <ele>232.4</ele>
        <time>2014-02-20T11:53:43.499Z</time>
      </trkpt>
      <trkpt lat="43.58007" lon="3.03397">
        <ele>230</ele>
        <time>2014-02-20T11:53:44.501Z</time>
      </trkpt>
      <trkpt lat="43.58008" lon="3.03385">
        <ele>228.2</ele>
        <time>2014-02-20T11:53:46.495Z</time>
      </trkpt>
      <trkpt lat="43.58007" lon="3.0338">
        <ele>228.4</ele>
        <time>2014-02-20T11:53:47.495Z</time>
      </trkpt>
      <trkpt lat="43.58006" lon="3.03373">
        <ele>229.1</ele>
        <time>2014-02-20T11:53:48.499Z</time>
      </trkpt>
      <trkpt lat="43.58006" lon="3.03362">
        <ele>230.1</ele>
        <time>2014-02-20T11:53:49.496Z</time>
      </trkpt>
      <trkpt lat="43.58006" lon="3.03353">
        <ele>230.4</ele>
        <time>2014-02-20T11:53:50.494Z</time>
      </trkpt>
      <trkpt lat="43.58004" lon="3.03347">
        <ele>230.2</ele>
        <time>2014-02-20T11:53:51.492Z</time>
      </trkpt>
      <trkpt lat="43.58002" lon="3.03337">
        <ele>231.2</ele>
        <time>2014-02-20T11:53:53.493Z</time>
      </trkpt>
      <trkpt lat="43.58003" lon="3.03331">
        <ele>235</ele>
        <time>2014-02-20T11:53:54.495Z</time>
      </trkpt>
      <trkpt lat="43.58004" lon="3.0332">
        <ele>232.8</ele>
        <time>2014-02-20T11:53:56.492Z</time>
      </trkpt>
      <trkpt lat="43.58005" lon="3.03315">
        <ele>232.2</ele>
        <time>2014-02-20T11:53:57.497Z</time>
      </trkpt>
      <trkpt lat="43.58005" lon="3.03304">
        <ele>234.3</ele>
        <time>2014-02-20T11:53:59.501Z</time>
      </trkpt>
      <trkpt lat="43.58004" lon="3.03298">
        <ele>235</ele>
        <time>2014-02-20T11:54:00.496Z</time>
      </trkpt>
      <trkpt lat="43.58003" lon="3.03287">
        <ele>235</ele>
        <time>2014-02-20T11:54:02.501Z</time>
      </trkpt>
      <trkpt lat="43.58002" lon="3.03281">
        <ele>235</ele>
        <time>2014-02-20T11:54:03.500Z</time>
      </trkpt>
      <trkpt lat="43.58" lon="3.0327">
        <ele>236.9</ele>
        <time>2014-02-20T11:54:05.496Z</time>
      </trkpt>
      <trkpt lat="43.57999" lon="3.03264">
        <ele>236.4</ele>
        <time>2014-02-20T11:54:06.494Z</time>
      </trkpt>
      <trkpt lat="43.57998" lon="3.03253">
        <ele>236.5</ele>
        <time>2014-02-20T11:54:08.500Z</time>
      </trkpt>
      <trkpt lat="43.57997" lon="3.03247">
        <ele>236.3</ele>
        <time>2014-02-20T11:54:09.500Z</time>
      </trkpt>
      <trkpt lat="43.57995" lon="3.03236">
        <ele>237.4</ele>
        <time>2014-02-20T11:54:11.500Z</time>
      </trkpt>
      <trkpt lat="43.57993" lon="3.0323">
        <ele>235.9</ele>
        <time>2014-02-20T11:54:12.495Z</time>
      </trkpt>
      <trkpt lat="43.5799" lon="3.0322">
        <ele>233.5</ele>
        <time>2014-02-20T11:54:14.499Z</time>
      </trkpt>
      <trkpt lat="43.57989" lon="3.03215">
        <ele>233.5</ele>
        <time>2014-02-20T11:54:15.497Z</time>
      </trkpt>
      <trkpt lat="43.57987" lon="3.03204">
        <ele>233.8</ele>
        <time>2014-02-20T11:54:17.494Z</time>
      </trkpt>
      <trkpt lat="43.57985" lon="3.03199">
        <ele>234.2</ele>
        <time>2014-02-20T11:54:18.494Z</time>
      </trkpt>
      <trkpt lat="43.57983" lon="3.03193">
        <ele>236</ele>
        <time>2014-02-20T11:54:19.494Z</time>
      </trkpt>
      <trkpt lat="43.57982" lon="3.03187">
        <ele>236</ele>
        <time>2014-02-20T11:54:20.496Z</time>
      </trkpt>
      <trkpt lat="43.5798" lon="3.03177">
        <ele>236.7</ele>
        <time>2014-02-20T11:54:22.496Z</time>
      </trkpt>
      <trkpt lat="43.57979" lon="3.03171">
        <ele>237.5</ele>
        <time>2014-02-20T11:54:23.498Z</time>
      </trkpt>
      <trkpt lat="43.57979" lon="3.03164">
        <ele>237.1</ele>
        <time>2014-02-20T11:54:24.495Z</time>
      </trkpt>
      <trkpt lat="43.57979" lon="3.03157">
        <ele>234.4</ele>
        <time>2014-02-20T11:54:25.492Z</time>
      </trkpt>
      <trkpt lat="43.57979" lon="3.03145">
        <ele>233.4</ele>
        <time>2014-02-20T11:54:27.497Z</time>
      </trkpt>
      <trkpt lat="43.57979" lon="3.0314">
        <ele>233.4</ele>
        <time>2014-02-20T11:54:28.495Z</time>
      </trkpt>
      <trkpt lat="43.57977" lon="3.03129">
        <ele>234.1</ele>
        <time>2014-02-20T11:54:30.500Z</time>
      </trkpt>
      <trkpt lat="43.57975" lon="3.03124">
        <ele>234.2</ele>
        <time>2014-02-20T11:54:31.496Z</time>
      </trkpt>
      <trkpt lat="43.5797" lon="3.03115">
        <ele>234.6</ele>
        <time>2014-02-20T11:54:34.494Z</time>
      </trkpt>
      <trkpt lat="43.57967" lon="3.03108">
        <ele>235.3</ele>
        <time>2014-02-20T11:54:35.496Z</time>
      </trkpt>
      <trkpt lat="43.57965" lon="3.03102">
        <ele>235.4</ele>
        <time>2014-02-20T11:54:36.494Z</time>
      </trkpt>
      <trkpt lat="43.57964" lon="3.03094">
        <ele>235.6</ele>
        <time>2014-02-20T11:54:37.498Z</time>
      </trkpt>
      <trkpt lat="43.57962" lon="3.03088">
        <ele>236.6</ele>
        <time>2014-02-20T11:54:38.503Z</time>
      </trkpt>
      <trkpt lat="43.57961" lon="3.03081">
        <ele>236.5</ele>
        <time>2014-02-20T11:54:39.504Z</time>
      </trkpt>
      <trkpt lat="43.5796" lon="3.03074">
        <ele>236.3</ele>
        <time>2014-02-20T11:54:40.500Z</time>
      </trkpt>
      <trkpt lat="43.57959" lon="3.03067">
        <ele>236.9</ele>
        <time>2014-02-20T11:54:41.501Z</time>
      </trkpt>
      <trkpt lat="43.57957" lon="3.0306">
        <ele>236.7</ele>
        <time>2014-02-20T11:54:42.494Z</time>
      </trkpt>
      <trkpt lat="43.57955" lon="3.03054">
        <ele>237.3</ele>
        <time>2014-02-20T11:54:43.492Z</time>
      </trkpt>
      <trkpt lat="43.57952" lon="3.03046">
        <ele>238.5</ele>
        <time>2014-02-20T11:54:45.496Z</time>
      </trkpt>
      <trkpt lat="43.5795" lon="3.0304">
        <ele>238.2</ele>
        <time>2014-02-20T11:54:46.491Z</time>
      </trkpt>
      <trkpt lat="43.57949" lon="3.03034">
        <ele>237.7</ele>
        <time>2014-02-20T11:54:47.555Z</time>
      </trkpt>
      <trkpt lat="43.57947" lon="3.03028">
        <ele>237.3</ele>
        <time>2014-02-20T11:54:48.494Z</time>
      </trkpt>
      <trkpt lat="43.57941" lon="3.03019">
        <ele>241.6</ele>
        <time>2014-02-20T11:54:50.500Z</time>
      </trkpt>
      <trkpt lat="43.57939" lon="3.03014">
        <ele>244.3</ele>
        <time>2014-02-20T11:54:51.498Z</time>
      </trkpt>
      <trkpt lat="43.57935" lon="3.03004">
        <ele>245.4</ele>
        <time>2014-02-20T11:54:53.494Z</time>
      </trkpt>
      <trkpt lat="43.57933" lon="3.02998">
        <ele>245.5</ele>
        <time>2014-02-20T11:54:54.503Z</time>
      </trkpt>
      <trkpt lat="43.5793" lon="3.02989">
        <ele>245.4</ele>
        <time>2014-02-20T11:54:56.497Z</time>
      </trkpt>
      <trkpt lat="43.57929" lon="3.02985">
        <ele>244.8</ele>
        <time>2014-02-20T11:54:57.504Z</time>
      </trkpt>
      <trkpt lat="43.57925" lon="3.02976">
        <ele>243.8</ele>
        <time>2014-02-20T11:54:59.500Z</time>
      </trkpt>
      <trkpt lat="43.57923" lon="3.02971">
        <ele>243.9</ele>
        <time>2014-02-20T11:55:00.498Z</time>
      </trkpt>
      <trkpt lat="43.5792" lon="3.02962">
        <ele>244.4</ele>
        <time>2014-02-20T11:55:02.496Z</time>
      </trkpt>
      <trkpt lat="43.57918" lon="3.02957">
        <ele>244.3</ele>
        <time>2014-02-20T11:55:03.494Z</time>
      </trkpt>
      <trkpt lat="43.57913" lon="3.02948">
        <ele>244.4</ele>
        <time>2014-02-20T11:55:05.499Z</time>
      </trkpt>
      <trkpt lat="43.5791" lon="3.02944">
        <ele>243.7</ele>
        <time>2014-02-20T11:55:06.500Z</time>
      </trkpt>
      <trkpt lat="43.57908" lon="3.02939">
        <ele>244.9</ele>
        <time>2014-02-20T11:55:07.500Z</time>
      </trkpt>
      <trkpt lat="43.57906" lon="3.02933">
        <ele>246</ele>
        <time>2014-02-20T11:55:08.498Z</time>
      </trkpt>
      <trkpt lat="43.57902" lon="3.02922">
        <ele>247</ele>
        <time>2014-02-20T11:55:10.496Z</time>
      </trkpt>
      <trkpt lat="43.57899" lon="3.02917">
        <ele>246</ele>
        <time>2014-02-20T11:55:11.500Z</time>
      </trkpt>
      <trkpt lat="43.57893" lon="3.02908">
        <ele>245.7</ele>
        <time>2014-02-20T11:55:13.493Z</time>
      </trkpt>
      <trkpt lat="43.5789" lon="3.02904">
        <ele>246.4</ele>
        <time>2014-02-20T11:55:14.495Z</time>
      </trkpt>
      <trkpt lat="43.57885" lon="3.02895">
        <ele>247.5</ele>
        <time>2014-02-20T11:55:16.493Z</time>
      </trkpt>
      <trkpt lat="43.57883" lon="3.02891">
        <ele>248.2</ele>
        <time>2014-02-20T11:55:17.501Z</time>
      </trkpt>
      <trkpt lat="43.57879" lon="3.02882">
        <ele>248.2</ele>
        <time>2014-02-20T11:55:19.492Z</time>
      </trkpt>
      <trkpt lat="43.57878" lon="3.02877">
        <ele>248.4</ele>
        <time>2014-02-20T11:55:20.494Z</time>
      </trkpt>
      <trkpt lat="43.57875" lon="3.02868">
        <ele>248.9</ele>
        <time>2014-02-20T11:55:22.493Z</time>
      </trkpt>
      <trkpt lat="43.57872" lon="3.02865">
        <ele>248.8</ele>
        <time>2014-02-20T11:55:23.497Z</time>
      </trkpt>
      <trkpt lat="43.57868" lon="3.02857">
        <ele>248.2</ele>
        <time>2014-02-20T11:55:25.491Z</time>
      </trkpt>
      <trkpt lat="43.57867" lon="3.02852">
        <ele>248</ele>
        <time>2014-02-20T11:55:26.492Z</time>
      </trkpt>
      <trkpt lat="43.57862" lon="3.02844">
        <ele>248.2</ele>
        <time>2014-02-20T11:55:28.492Z</time>
      </trkpt>
      <trkpt lat="43.5786" lon="3.02838">
        <ele>247.9</ele>
        <time>2014-02-20T11:55:29.497Z</time>
      </trkpt>
      <trkpt lat="43.57855" lon="3.02829">
        <ele>244.4</ele>
        <time>2014-02-20T11:55:31.493Z</time>
      </trkpt>
      <trkpt lat="43.57852" lon="3.02824">
        <ele>244.3</ele>
        <time>2014-02-20T11:55:32.497Z</time>
      </trkpt>
      <trkpt lat="43.57848" lon="3.02816">
        <ele>245.7</ele>
        <time>2014-02-20T11:55:34.494Z</time>
      </trkpt>
      <trkpt lat="43.57845" lon="3.02813">
        <ele>246.4</ele>
        <time>2014-02-20T11:55:35.496Z</time>
      </trkpt>
      <trkpt lat="43.5784" lon="3.02804">
        <ele>244.8</ele>
        <time>2014-02-20T11:55:37.531Z</time>
      </trkpt>
      <trkpt lat="43.57837" lon="3.028">
        <ele>245.3</ele>
        <time>2014-02-20T11:55:38.492Z</time>
      </trkpt>
      <trkpt lat="43.57833" lon="3.02793">
        <ele>243</ele>
        <time>2014-02-20T11:55:40.492Z</time>
      </trkpt>
      <trkpt lat="43.57831" lon="3.02791">
        <ele>243.3</ele>
        <time>2014-02-20T11:55:41.499Z</time>
      </trkpt>
      <trkpt lat="43.57826" lon="3.02781">
        <ele>241.2</ele>
        <time>2014-02-20T11:55:44.492Z</time>
      </trkpt>
      <trkpt lat="43.57824" lon="3.02779">
        <ele>240.4</ele>
        <time>2014-02-20T11:55:45.496Z</time>
      </trkpt>
      <trkpt lat="43.57818" lon="3.02772">
        <ele>240.4</ele>
        <time>2014-02-20T11:55:48.495Z</time>
      </trkpt>
      <trkpt lat="43.57816" lon="3.0277">
        <ele>239.6</ele>
        <time>2014-02-20T11:55:49.499Z</time>
      </trkpt>
      <trkpt lat="43.5781" lon="3.02764">
        <ele>239.2</ele>
        <time>2014-02-20T11:55:53.499Z</time>
      </trkpt>
      <trkpt lat="43.57808" lon="3.02762">
        <ele>240.1</ele>
        <time>2014-02-20T11:55:54.495Z</time>
      </trkpt>
      <trkpt lat="43.57804" lon="3.02755">
        <ele>239.6</ele>
        <time>2014-02-20T11:55:56.496Z</time>
      </trkpt>
      <trkpt lat="43.57801" lon="3.02753">
        <ele>240.1</ele>
        <time>2014-02-20T11:55:57.497Z</time>
      </trkpt>
      <trkpt lat="43.57795" lon="3.02746">
        <ele>238.7</ele>
        <time>2014-02-20T11:55:59.494Z</time>
      </trkpt>
      <trkpt lat="43.57793" lon="3.02743">
        <ele>238.6</ele>
        <time>2014-02-20T11:56:00.497Z</time>
      </trkpt>
      <trkpt lat="43.5779" lon="3.02738">
        <ele>238.4</ele>
        <time>2014-02-20T11:56:01.495Z</time>
      </trkpt>
      <trkpt lat="43.57786" lon="3.02732">
        <ele>236.3</ele>
        <time>2014-02-20T11:56:02.498Z</time>
      </trkpt>
      <trkpt lat="43.57782" lon="3.02726">
        <ele>237.1</ele>
        <time>2014-02-20T11:56:03.522Z</time>
      </trkpt>
      <trkpt lat="43.57779" lon="3.02723">
        <ele>236.8</ele>
        <time>2014-02-20T11:56:04.496Z</time>
      </trkpt>
      <trkpt lat="43.57775" lon="3.02719">
        <ele>236.4</ele>
        <time>2014-02-20T11:56:05.494Z</time>
      </trkpt>
      <trkpt lat="43.57773" lon="3.02714">
        <ele>237.5</ele>
        <time>2014-02-20T11:56:06.496Z</time>
      </trkpt>
      <trkpt lat="43.57768" lon="3.02703">
        <ele>235.4</ele>
        <time>2014-02-20T11:56:08.555Z</time>
      </trkpt>
      <trkpt lat="43.57767" lon="3.02698">
        <ele>235.7</ele>
        <time>2014-02-20T11:56:09.502Z</time>
      </trkpt>
      <trkpt lat="43.57764" lon="3.02692">
        <ele>236.7</ele>
        <time>2014-02-20T11:56:10.499Z</time>
      </trkpt>
      <trkpt lat="43.57761" lon="3.02687">
        <ele>237.5</ele>
        <time>2014-02-20T11:56:11.995Z</time>
      </trkpt>
      <trkpt lat="43.57755" lon="3.02679">
        <ele>237.3</ele>
        <time>2014-02-20T11:56:13.580Z</time>
      </trkpt>
      <trkpt lat="43.57752" lon="3.02673">
        <ele>237</ele>
        <time>2014-02-20T11:56:14.498Z</time>
      </trkpt>
      <trkpt lat="43.57749" lon="3.02667">
        <ele>236.8</ele>
        <time>2014-02-20T11:56:15.498Z</time>
      </trkpt>
      <trkpt lat="43.57747" lon="3.02661">
        <ele>237</ele>
        <time>2014-02-20T11:56:16.499Z</time>
      </trkpt>
      <trkpt lat="43.57746" lon="3.02651">
        <ele>237.4</ele>
        <time>2014-02-20T11:56:17.532Z</time>
      </trkpt>
      <trkpt lat="43.57744" lon="3.02644">
        <ele>237.1</ele>
        <time>2014-02-20T11:56:18.495Z</time>
      </trkpt>
      <trkpt lat="43.57741" lon="3.02639">
        <ele>236.6</ele>
        <time>2014-02-20T11:56:19.493Z</time>
      </trkpt>
      <trkpt lat="43.57738" lon="3.02634">
        <ele>237.1</ele>
        <time>2014-02-20T11:56:20.496Z</time>
      </trkpt>
      <trkpt lat="43.57731" lon="3.02628">
        <ele>236.9</ele>
        <time>2014-02-20T11:56:22.500Z</time>
      </trkpt>
      <trkpt lat="43.57728" lon="3.02625">
        <ele>236.8</ele>
        <time>2014-02-20T11:56:23.502Z</time>
      </trkpt>
      <trkpt lat="43.57722" lon="3.02618">
        <ele>236.8</ele>
        <time>2014-02-20T11:56:25.499Z</time>
      </trkpt>
      <trkpt lat="43.5772" lon="3.02614">
        <ele>236.8</ele>
        <time>2014-02-20T11:56:26.504Z</time>
      </trkpt>
      <trkpt lat="43.57715" lon="3.02606">
        <ele>236.8</ele>
        <time>2014-02-20T11:56:28.500Z</time>
      </trkpt>
      <trkpt lat="43.57712" lon="3.02602">
        <ele>236.8</ele>
        <time>2014-02-20T11:56:29.504Z</time>
      </trkpt>
      <trkpt lat="43.57708" lon="3.02594">
        <ele>236.8</ele>
        <time>2014-02-20T11:56:31.501Z</time>
      </trkpt>
      <trkpt lat="43.57705" lon="3.0259">
        <ele>236.8</ele>
        <time>2014-02-20T11:56:32.502Z</time>
      </trkpt>
      <trkpt lat="43.57701" lon="3.02583">
        <ele>236.8</ele>
        <time>2014-02-20T11:56:34.499Z</time>
      </trkpt>
      <trkpt lat="43.57699" lon="3.02579">
        <ele>236.8</ele>
        <time>2014-02-20T11:56:35.499Z</time>
      </trkpt>
      <trkpt lat="43.57696" lon="3.02575">
        <ele>236.8</ele>
        <time>2014-02-20T11:56:36.497Z</time>
      </trkpt>
      <trkpt lat="43.5756" lon="3.02375">
        <ele>236.5</ele>
        <time>2014-02-20T11:57:09.508Z</time>
      </trkpt>
      <trkpt lat="43.57553" lon="3.02368">
        <ele>236.4</ele>
        <time>2014-02-20T11:57:10.504Z</time>
      </trkpt>
      <trkpt lat="43.57548" lon="3.02361">
        <ele>236.5</ele>
        <time>2014-02-20T11:57:11.508Z</time>
      </trkpt>
      <trkpt lat="43.57543" lon="3.02356">
        <ele>236</ele>
        <time>2014-02-20T11:57:12.506Z</time>
      </trkpt>
      <trkpt lat="43.57539" lon="3.02348">
        <ele>236.1</ele>
        <time>2014-02-20T11:57:13.591Z</time>
      </trkpt>
      <trkpt lat="43.57534" lon="3.02342">
        <ele>234.6</ele>
        <time>2014-02-20T11:57:14.506Z</time>
      </trkpt>
      <trkpt lat="43.57529" lon="3.02335">
        <ele>234.4</ele>
        <time>2014-02-20T11:57:15.502Z</time>
      </trkpt>
      <trkpt lat="43.57525" lon="3.02329">
        <ele>234</ele>
        <time>2014-02-20T11:57:16.682Z</time>
      </trkpt>
      <trkpt lat="43.57523" lon="3.02323">
        <ele>234.3</ele>
        <time>2014-02-20T11:57:17.763Z</time>
      </trkpt>
      <trkpt lat="43.5752" lon="3.02319">
        <ele>234.2</ele>
        <time>2014-02-20T11:57:18.503Z</time>
      </trkpt>
      <trkpt lat="43.57515" lon="3.02315">
        <ele>234.3</ele>
        <time>2014-02-20T11:57:19.498Z</time>
      </trkpt>
      <trkpt lat="43.57509" lon="3.02307">
        <ele>233.5</ele>
        <time>2014-02-20T11:57:21.501Z</time>
      </trkpt>
      <trkpt lat="43.57506" lon="3.02304">
        <ele>232.5</ele>
        <time>2014-02-20T11:57:22.515Z</time>
      </trkpt>
      <trkpt lat="43.57502" lon="3.02298">
        <ele>232.7</ele>
        <time>2014-02-20T11:57:23.497Z</time>
      </trkpt>
      <trkpt lat="43.57495" lon="3.02289">
        <ele>236.3</ele>
        <time>2014-02-20T11:57:24.498Z</time>
      </trkpt>
      <trkpt lat="43.57491" lon="3.02283">
        <ele>236</ele>
        <time>2014-02-20T11:57:25.498Z</time>
      </trkpt>
      <trkpt lat="43.57485" lon="3.02276">
        <ele>237</ele>
        <time>2014-02-20T11:57:26.501Z</time>
      </trkpt>
      <trkpt lat="43.57479" lon="3.02268">
        <ele>237.1</ele>
        <time>2014-02-20T11:57:27.501Z</time>
      </trkpt>
      <trkpt lat="43.57475" lon="3.02264">
        <ele>236</ele>
        <time>2014-02-20T11:57:28.497Z</time>
      </trkpt>
      <trkpt lat="43.57472" lon="3.02257">
        <ele>236.4</ele>
        <time>2014-02-20T11:57:29.498Z</time>
      </trkpt>
      <trkpt lat="43.57468" lon="3.02253">
        <ele>235.6</ele>
        <time>2014-02-20T11:57:30.499Z</time>
      </trkpt>
      <trkpt lat="43.57461" lon="3.02247">
        <ele>237.3</ele>
        <time>2014-02-20T11:57:32.497Z</time>
      </trkpt>
      <trkpt lat="43.57458" lon="3.02243">
        <ele>237.7</ele>
        <time>2014-02-20T11:57:33.496Z</time>
      </trkpt>
      <trkpt lat="43.57451" lon="3.02234">
        <ele>241.4</ele>
        <time>2014-02-20T11:57:35.494Z</time>
      </trkpt>
      <trkpt lat="43.57449" lon="3.02229">
        <ele>241.6</ele>
        <time>2014-02-20T11:57:36.500Z</time>
      </trkpt>
      <trkpt lat="43.57445" lon="3.02219">
        <ele>243</ele>
        <time>2014-02-20T11:57:38.503Z</time>
      </trkpt>
      <trkpt lat="43.57442" lon="3.02213">
        <ele>244.2</ele>
        <time>2014-02-20T11:57:39.497Z</time>
      </trkpt>
      <trkpt lat="43.57436" lon="3.02204">
        <ele>242.5</ele>
        <time>2014-02-20T11:57:43.492Z</time>
      </trkpt>
      <trkpt lat="43.57435" lon="3.02202">
        <ele>242.6</ele>
        <time>2014-02-20T11:57:44.496Z</time>
      </trkpt>
      <trkpt lat="43.57428" lon="3.02195">
        <ele>244</ele>
        <time>2014-02-20T11:57:47.497Z</time>
      </trkpt>
      <trkpt lat="43.57426" lon="3.02192">
        <ele>244.2</ele>
        <time>2014-02-20T11:57:48.497Z</time>
      </trkpt>
      <trkpt lat="43.57421" lon="3.02187">
        <ele>243.1</ele>
        <time>2014-02-20T11:57:50.532Z</time>
      </trkpt>
      <trkpt lat="43.57417" lon="3.02181">
        <ele>243.3</ele>
        <time>2014-02-20T11:57:51.499Z</time>
      </trkpt>
      <trkpt lat="43.57412" lon="3.02172">
        <ele>243.2</ele>
        <time>2014-02-20T11:57:53.491Z</time>
      </trkpt>
      <trkpt lat="43.5741" lon="3.02169">
        <ele>243.9</ele>
        <time>2014-02-20T11:57:54.495Z</time>
      </trkpt>
      <trkpt lat="43.57406" lon="3.02161">
        <ele>243</ele>
        <time>2014-02-20T11:57:56.496Z</time>
      </trkpt>
      <trkpt lat="43.57403" lon="3.02157">
        <ele>243.5</ele>
        <time>2014-02-20T11:57:57.495Z</time>
      </trkpt>
      <trkpt lat="43.57398" lon="3.02151">
        <ele>245.3</ele>
        <time>2014-02-20T11:57:59.497Z</time>
      </trkpt>
      <trkpt lat="43.57397" lon="3.02149">
        <ele>246.7</ele>
        <time>2014-02-20T11:58:00.498Z</time>
      </trkpt>
      <trkpt lat="43.57392" lon="3.02142">
        <ele>242.9</ele>
        <time>2014-02-20T11:58:02.499Z</time>
      </trkpt>
      <trkpt lat="43.57391" lon="3.02138">
        <ele>241.3</ele>
        <time>2014-02-20T11:58:03.575Z</time>
      </trkpt>
      <trkpt lat="43.57388" lon="3.02129">
        <ele>242.1</ele>
        <time>2014-02-20T11:58:06.544Z</time>
      </trkpt>
      <trkpt lat="43.57388" lon="3.02125">
        <ele>242.1</ele>
        <time>2014-02-20T11:58:07.496Z</time>
      </trkpt>
      <trkpt lat="43.57384" lon="3.02115">
        <ele>241.3</ele>
        <time>2014-02-20T11:58:10.494Z</time>
      </trkpt>
      <trkpt lat="43.57383" lon="3.02111">
        <ele>240.3</ele>
        <time>2014-02-20T11:58:11.496Z</time>
      </trkpt>
      <trkpt lat="43.57377" lon="3.02101">
        <ele>240</ele>
        <time>2014-02-20T11:58:14.496Z</time>
      </trkpt>
      <trkpt lat="43.57375" lon="3.02098">
        <ele>239.9</ele>
        <time>2014-02-20T11:58:16.730Z</time>
      </trkpt>
      <trkpt lat="43.5737" lon="3.02089">
        <ele>240</ele>
        <time>2014-02-20T11:58:19.751Z</time>
      </trkpt>
      <trkpt lat="43.57369" lon="3.02088">
        <ele>240.2</ele>
        <time>2014-02-20T11:58:20.902Z</time>
      </trkpt>
      <trkpt lat="43.57363" lon="3.02081">
        <ele>240.1</ele>
        <time>2014-02-20T11:58:23.509Z</time>
      </trkpt>
      <trkpt lat="43.57362" lon="3.02078">
        <ele>240.2</ele>
        <time>2014-02-20T11:58:24.508Z</time>
      </trkpt>
      <trkpt lat="43.57363" lon="3.02066">
        <ele>239</ele>
        <time>2014-02-20T11:58:29.504Z</time>
      </trkpt>
      <trkpt lat="43.57363" lon="3.02061">
        <ele>236.9</ele>
        <time>2014-02-20T11:58:30.505Z</time>
      </trkpt>
      <trkpt lat="43.57362" lon="3.02057">
        <ele>235.7</ele>
        <time>2014-02-20T11:58:31.505Z</time>
      </trkpt>
      <trkpt lat="43.57358" lon="3.02047">
        <ele>236</ele>
        <time>2014-02-20T11:58:32.506Z</time>
      </trkpt>
      <trkpt lat="43.57356" lon="3.02039">
        <ele>235.7</ele>
        <time>2014-02-20T11:58:33.529Z</time>
      </trkpt>
      <trkpt lat="43.57354" lon="3.02032">
        <ele>235.2</ele>
        <time>2014-02-20T11:58:34.543Z</time>
      </trkpt>
      <trkpt lat="43.57352" lon="3.02026">
        <ele>234.7</ele>
        <time>2014-02-20T11:58:35.511Z</time>
      </trkpt>
      <trkpt lat="43.57351" lon="3.02018">
        <ele>234.8</ele>
        <time>2014-02-20T11:58:36.499Z</time>
      </trkpt>
      <trkpt lat="43.5735" lon="3.02011">
        <ele>234.1</ele>
        <time>2014-02-20T11:58:37.508Z</time>
      </trkpt>
      <trkpt lat="43.57348" lon="3.02002">
        <ele>233.6</ele>
        <time>2014-02-20T11:58:38.510Z</time>
      </trkpt>
      <trkpt lat="43.57347" lon="3.01996">
        <ele>233.5</ele>
        <time>2014-02-20T11:58:39.516Z</time>
      </trkpt>
      <trkpt lat="43.57345" lon="3.0199">
        <ele>233.3</ele>
        <time>2014-02-20T11:58:40.500Z</time>
      </trkpt>
      <trkpt lat="43.57344" lon="3.01983">
        <ele>233.3</ele>
        <time>2014-02-20T11:58:41.499Z</time>
      </trkpt>
      <trkpt lat="43.57342" lon="3.01976">
        <ele>233</ele>
        <time>2014-02-20T11:58:42.505Z</time>
      </trkpt>
      <trkpt lat="43.57341" lon="3.01968">
        <ele>233</ele>
        <time>2014-02-20T11:58:43.499Z</time>
      </trkpt>
      <trkpt lat="43.5734" lon="3.0196">
        <ele>233.1</ele>
        <time>2014-02-20T11:58:44.501Z</time>
      </trkpt>
      <trkpt lat="43.57339" lon="3.01952">
        <ele>233.1</ele>
        <time>2014-02-20T11:58:45.504Z</time>
      </trkpt>
      <trkpt lat="43.57337" lon="3.01944">
        <ele>233.1</ele>
        <time>2014-02-20T11:58:46.502Z</time>
      </trkpt>
      <trkpt lat="43.57334" lon="3.01938">
        <ele>233.3</ele>
        <time>2014-02-20T11:58:47.511Z</time>
      </trkpt>
      <trkpt lat="43.57332" lon="3.01931">
        <ele>233.4</ele>
        <time>2014-02-20T11:58:48.601Z</time>
      </trkpt>
      <trkpt lat="43.57328" lon="3.01922">
        <ele>233.6</ele>
        <time>2014-02-20T11:58:50.507Z</time>
      </trkpt>
      <trkpt lat="43.57326" lon="3.01914">
        <ele>233.5</ele>
        <time>2014-02-20T11:58:51.507Z</time>
      </trkpt>
      <trkpt lat="43.57324" lon="3.01906">
        <ele>233.6</ele>
        <time>2014-02-20T11:58:52.515Z</time>
      </trkpt>
      <trkpt lat="43.57322" lon="3.01899">
        <ele>233.9</ele>
        <time>2014-02-20T11:58:53.572Z</time>
      </trkpt>
      <trkpt lat="43.57321" lon="3.01892">
        <ele>233.6</ele>
        <time>2014-02-20T11:58:54.523Z</time>
      </trkpt>
      <trkpt lat="43.57319" lon="3.01884">
        <ele>233.8</ele>
        <time>2014-02-20T11:58:55.501Z</time>
      </trkpt>
      <trkpt lat="43.57318" lon="3.01876">
        <ele>233.4</ele>
        <time>2014-02-20T11:58:56.501Z</time>
      </trkpt>
      <trkpt lat="43.57317" lon="3.01866">
        <ele>233.5</ele>
        <time>2014-02-20T11:58:57.502Z</time>
      </trkpt>
      <trkpt lat="43.57317" lon="3.01855">
        <ele>233.3</ele>
        <time>2014-02-20T11:58:58.503Z</time>
      </trkpt>
      <trkpt lat="43.57316" lon="3.01845">
        <ele>232.9</ele>
        <time>2014-02-20T11:58:59.507Z</time>
      </trkpt>
      <trkpt lat="43.57316" lon="3.01836">
        <ele>232.9</ele>
        <time>2014-02-20T11:59:00.508Z</time>
      </trkpt>
      <trkpt lat="43.57316" lon="3.01828">
        <ele>233.8</ele>
        <time>2014-02-20T11:59:01.504Z</time>
      </trkpt>
      <trkpt lat="43.57315" lon="3.0182">
        <ele>233.5</ele>
        <time>2014-02-20T11:59:02.509Z</time>
      </trkpt>
      <trkpt lat="43.57314" lon="3.01811">
        <ele>232.8</ele>
        <time>2014-02-20T11:59:03.503Z</time>
      </trkpt>
      <trkpt lat="43.57314" lon="3.01805">
        <ele>232.4</ele>
        <time>2014-02-20T11:59:04.502Z</time>
      </trkpt>
      <trkpt lat="43.57315" lon="3.01797">
        <ele>232.7</ele>
        <time>2014-02-20T11:59:05.504Z</time>
      </trkpt>
      <trkpt lat="43.57316" lon="3.01787">
        <ele>233.2</ele>
        <time>2014-02-20T11:59:06.501Z</time>
      </trkpt>
      <trkpt lat="43.57318" lon="3.01777">
        <ele>232.4</ele>
        <time>2014-02-20T11:59:07.501Z</time>
      </trkpt>
      <trkpt lat="43.57319" lon="3.01767">
        <ele>232.4</ele>
        <time>2014-02-20T11:59:08.509Z</time>
      </trkpt>
      <trkpt lat="43.57321" lon="3.01756">
        <ele>232.3</ele>
        <time>2014-02-20T11:59:09.696Z</time>
      </trkpt>
      <trkpt lat="43.57323" lon="3.01747">
        <ele>232.7</ele>
        <time>2014-02-20T11:59:10.503Z</time>
      </trkpt>
      <trkpt lat="43.57324" lon="3.01738">
        <ele>233.3</ele>
        <time>2014-02-20T11:59:11.501Z</time>
      </trkpt>
      <trkpt lat="43.57325" lon="3.01726">
        <ele>233.4</ele>
        <time>2014-02-20T11:59:12.551Z</time>
      </trkpt>
      <trkpt lat="43.57326" lon="3.01714">
        <ele>232.9</ele>
        <time>2014-02-20T11:59:13.503Z</time>
      </trkpt>
      <trkpt lat="43.57328" lon="3.01703">
        <ele>233.3</ele>
        <time>2014-02-20T11:59:14.500Z</time>
      </trkpt>
      <trkpt lat="43.57329" lon="3.0169">
        <ele>232.9</ele>
        <time>2014-02-20T11:59:15.501Z</time>
      </trkpt>
      <trkpt lat="43.57331" lon="3.01679">
        <ele>233.7</ele>
        <time>2014-02-20T11:59:16.540Z</time>
      </trkpt>
      <trkpt lat="43.57333" lon="3.0167">
        <ele>233.7</ele>
        <time>2014-02-20T11:59:17.503Z</time>
      </trkpt>
      <trkpt lat="43.57335" lon="3.0166">
        <ele>233.6</ele>
        <time>2014-02-20T11:59:18.497Z</time>
      </trkpt>
      <trkpt lat="43.57336" lon="3.01651">
        <ele>233.8</ele>
        <time>2014-02-20T11:59:19.499Z</time>
      </trkpt>
      <trkpt lat="43.57337" lon="3.01642">
        <ele>233.8</ele>
        <time>2014-02-20T11:59:20.500Z</time>
      </trkpt>
      <trkpt lat="43.57337" lon="3.01636">
        <ele>233.9</ele>
        <time>2014-02-20T11:59:21.499Z</time>
      </trkpt>
      <trkpt lat="43.57338" lon="3.01629">
        <ele>234.1</ele>
        <time>2014-02-20T11:59:22.505Z</time>
      </trkpt>
      <trkpt lat="43.57339" lon="3.01623">
        <ele>234.4</ele>
        <time>2014-02-20T11:59:23.505Z</time>
      </trkpt>
      <trkpt lat="43.57341" lon="3.01616">
        <ele>234.9</ele>
        <time>2014-02-20T11:59:24.512Z</time>
      </trkpt>
      <trkpt lat="43.57345" lon="3.01609">
        <ele>235.3</ele>
        <time>2014-02-20T11:59:25.537Z</time>
      </trkpt>
      <trkpt lat="43.57349" lon="3.01603">
        <ele>235</ele>
        <time>2014-02-20T11:59:26.511Z</time>
      </trkpt>
      <trkpt lat="43.57352" lon="3.01596">
        <ele>234.6</ele>
        <time>2014-02-20T11:59:27.499Z</time>
      </trkpt>
      <trkpt lat="43.57357" lon="3.01589">
        <ele>235.2</ele>
        <time>2014-02-20T11:59:28.501Z</time>
      </trkpt>
      <trkpt lat="43.57361" lon="3.01583">
        <ele>234.9</ele>
        <time>2014-02-20T11:59:29.500Z</time>
      </trkpt>
      <trkpt lat="43.57364" lon="3.01575">
        <ele>234.6</ele>
        <time>2014-02-20T11:59:30.599Z</time>
      </trkpt>
      <trkpt lat="43.57368" lon="3.01569">
        <ele>234.6</ele>
        <time>2014-02-20T11:59:31.498Z</time>
      </trkpt>
      <trkpt lat="43.57371" lon="3.01562">
        <ele>234.6</ele>
        <time>2014-02-20T11:59:32.499Z</time>
      </trkpt>
      <trkpt lat="43.57373" lon="3.01553">
        <ele>234.8</ele>
        <time>2014-02-20T11:59:33.497Z</time>
      </trkpt>
      <trkpt lat="43.57374" lon="3.01543">
        <ele>235.6</ele>
        <time>2014-02-20T11:59:34.532Z</time>
      </trkpt>
      <trkpt lat="43.57377" lon="3.01534">
        <ele>235.5</ele>
        <time>2014-02-20T11:59:35.501Z</time>
      </trkpt>
      <trkpt lat="43.57379" lon="3.01524">
        <ele>235.4</ele>
        <time>2014-02-20T11:59:36.503Z</time>
      </trkpt>
      <trkpt lat="43.57382" lon="3.01513">
        <ele>235.7</ele>
        <time>2014-02-20T11:59:37.501Z</time>
      </trkpt>
      <trkpt lat="43.57385" lon="3.01504">
        <ele>235.6</ele>
        <time>2014-02-20T11:59:38.500Z</time>
      </trkpt>
      <trkpt lat="43.57388" lon="3.01494">
        <ele>235.2</ele>
        <time>2014-02-20T11:59:39.498Z</time>
      </trkpt>
      <trkpt lat="43.57392" lon="3.01485">
        <ele>236.5</ele>
        <time>2014-02-20T11:59:40.497Z</time>
      </trkpt>
      <trkpt lat="43.57396" lon="3.01476">
        <ele>237.2</ele>
        <time>2014-02-20T11:59:41.504Z</time>
      </trkpt>
      <trkpt lat="43.574" lon="3.01466">
        <ele>237</ele>
        <time>2014-02-20T11:59:42.499Z</time>
      </trkpt>
      <trkpt lat="43.57403" lon="3.01458">
        <ele>237</ele>
        <time>2014-02-20T11:59:43.500Z</time>
      </trkpt>
      <trkpt lat="43.57407" lon="3.01451">
        <ele>236.9</ele>
        <time>2014-02-20T11:59:44.500Z</time>
      </trkpt>
      <trkpt lat="43.57411" lon="3.01443">
        <ele>236.8</ele>
        <time>2014-02-20T11:59:45.505Z</time>
      </trkpt>
      <trkpt lat="43.57415" lon="3.01436">
        <ele>236.8</ele>
        <time>2014-02-20T11:59:46.503Z</time>
      </trkpt>
      <trkpt lat="43.57418" lon="3.01427">
        <ele>236.5</ele>
        <time>2014-02-20T11:59:47.498Z</time>
      </trkpt>
      <trkpt lat="43.57422" lon="3.01417">
        <ele>234</ele>
        <time>2014-02-20T11:59:48.499Z</time>
      </trkpt>
      <trkpt lat="43.57427" lon="3.01408">
        <ele>233.7</ele>
        <time>2014-02-20T11:59:49.499Z</time>
      </trkpt>
      <trkpt lat="43.57431" lon="3.014">
        <ele>233.7</ele>
        <time>2014-02-20T11:59:50.501Z</time>
      </trkpt>
      <trkpt lat="43.57433" lon="3.01392">
        <ele>234.2</ele>
        <time>2014-02-20T11:59:51.498Z</time>
      </trkpt>
      <trkpt lat="43.57435" lon="3.01385">
        <ele>233.9</ele>
        <time>2014-02-20T11:59:52.493Z</time>
      </trkpt>
      <trkpt lat="43.57437" lon="3.01377">
        <ele>233.9</ele>
        <time>2014-02-20T11:59:53.509Z</time>
      </trkpt>
      <trkpt lat="43.57439" lon="3.01369">
        <ele>235</ele>
        <time>2014-02-20T11:59:54.584Z</time>
      </trkpt>
      <trkpt lat="43.5744" lon="3.01362">
        <ele>235.2</ele>
        <time>2014-02-20T11:59:55.494Z</time>
      </trkpt>
      <trkpt lat="43.57442" lon="3.01353">
        <ele>235.2</ele>
        <time>2014-02-20T11:59:56.494Z</time>
      </trkpt>
      <trkpt lat="43.57444" lon="3.01342">
        <ele>236.4</ele>
        <time>2014-02-20T11:59:57.494Z</time>
      </trkpt>
      <trkpt lat="43.57446" lon="3.01335">
        <ele>237.7</ele>
        <time>2014-02-20T11:59:58.490Z</time>
      </trkpt>
      <trkpt lat="43.57449" lon="3.01329">
        <ele>238.4</ele>
        <time>2014-02-20T11:59:59.502Z</time>
      </trkpt>
      <trkpt lat="43.57452" lon="3.01322">
        <ele>239.3</ele>
        <time>2014-02-20T12:00:00.501Z</time>
      </trkpt>
      <trkpt lat="43.57454" lon="3.01317">
        <ele>239.8</ele>
        <time>2014-02-20T12:00:01.530Z</time>
      </trkpt>
      <trkpt lat="43.57457" lon="3.01312">
        <ele>240.4</ele>
        <time>2014-02-20T12:00:02.495Z</time>
      </trkpt>
      <trkpt lat="43.57461" lon="3.01304">
        <ele>240.1</ele>
        <time>2014-02-20T12:00:03.494Z</time>
      </trkpt>
      <trkpt lat="43.57463" lon="3.01298">
        <ele>240.5</ele>
        <time>2014-02-20T12:00:04.493Z</time>
      </trkpt>
      <trkpt lat="43.57465" lon="3.01292">
        <ele>240.9</ele>
        <time>2014-02-20T12:00:05.495Z</time>
      </trkpt>
      <trkpt lat="43.57467" lon="3.01286">
        <ele>241</ele>
        <time>2014-02-20T12:00:06.503Z</time>
      </trkpt>
      <trkpt lat="43.5747" lon="3.01274">
        <ele>241.2</ele>
        <time>2014-02-20T12:00:07.494Z</time>
      </trkpt>
      <trkpt lat="43.57473" lon="3.01263">
        <ele>242.1</ele>
        <time>2014-02-20T12:00:08.496Z</time>
      </trkpt>
      <trkpt lat="43.57474" lon="3.01253">
        <ele>242.4</ele>
        <time>2014-02-20T12:00:09.497Z</time>
      </trkpt>
      <trkpt lat="43.57476" lon="3.01246">
        <ele>244.5</ele>
        <time>2014-02-20T12:00:10.493Z</time>
      </trkpt>
      <trkpt lat="43.57479" lon="3.01238">
        <ele>245.5</ele>
        <time>2014-02-20T12:00:11.496Z</time>
      </trkpt>
      <trkpt lat="43.57481" lon="3.01229">
        <ele>246.3</ele>
        <time>2014-02-20T12:00:12.497Z</time>
      </trkpt>
      <trkpt lat="43.57483" lon="3.01221">
        <ele>246.7</ele>
        <time>2014-02-20T12:00:13.497Z</time>
      </trkpt>
      <trkpt lat="43.57484" lon="3.01213">
        <ele>247.1</ele>
        <time>2014-02-20T12:00:14.503Z</time>
      </trkpt>
      <trkpt lat="43.57484" lon="3.01205">
        <ele>247.2</ele>
        <time>2014-02-20T12:00:15.498Z</time>
      </trkpt>
      <trkpt lat="43.57485" lon="3.01197">
        <ele>247.5</ele>
        <time>2014-02-20T12:00:16.501Z</time>
      </trkpt>
      <trkpt lat="43.57487" lon="3.01186">
        <ele>248.4</ele>
        <time>2014-02-20T12:00:17.501Z</time>
      </trkpt>
      <trkpt lat="43.57489" lon="3.01177">
        <ele>248.1</ele>
        <time>2014-02-20T12:00:18.505Z</time>
      </trkpt>
      <trkpt lat="43.57492" lon="3.01169">
        <ele>248</ele>
        <time>2014-02-20T12:00:19.501Z</time>
      </trkpt>
      <trkpt lat="43.57494" lon="3.01156">
        <ele>247.8</ele>
        <time>2014-02-20T12:00:20.499Z</time>
      </trkpt>
      <trkpt lat="43.57497" lon="3.01146">
        <ele>247.6</ele>
        <time>2014-02-20T12:00:21.495Z</time>
      </trkpt>
      <trkpt lat="43.57501" lon="3.01136">
        <ele>246.8</ele>
        <time>2014-02-20T12:00:22.499Z</time>
      </trkpt>
      <trkpt lat="43.57504" lon="3.01129">
        <ele>246.5</ele>
        <time>2014-02-20T12:00:23.502Z</time>
      </trkpt>
      <trkpt lat="43.57508" lon="3.01122">
        <ele>245.8</ele>
        <time>2014-02-20T12:00:24.499Z</time>
      </trkpt>
      <trkpt lat="43.57512" lon="3.01116">
        <ele>245</ele>
        <time>2014-02-20T12:00:25.497Z</time>
      </trkpt>
      <trkpt lat="43.57515" lon="3.01111">
        <ele>243.7</ele>
        <time>2014-02-20T12:00:26.579Z</time>
      </trkpt>
      <trkpt lat="43.57518" lon="3.01105">
        <ele>242.2</ele>
        <time>2014-02-20T12:00:27.497Z</time>
      </trkpt>
      <trkpt lat="43.57521" lon="3.01098">
        <ele>241.3</ele>
        <time>2014-02-20T12:00:28.497Z</time>
      </trkpt>
      <trkpt lat="43.57521" lon="3.01092">
        <ele>239.8</ele>
        <time>2014-02-20T12:00:29.496Z</time>
      </trkpt>
      <trkpt lat="43.57522" lon="3.01084">
        <ele>239.9</ele>
        <time>2014-02-20T12:00:30.499Z</time>
      </trkpt>
      <trkpt lat="43.57523" lon="3.01074">
        <ele>239.6</ele>
        <time>2014-02-20T12:00:31.493Z</time>
      </trkpt>
      <trkpt lat="43.57525" lon="3.01065">
        <ele>239.5</ele>
        <time>2014-02-20T12:00:32.500Z</time>
      </trkpt>
      <trkpt lat="43.57526" lon="3.01058">
        <ele>239.3</ele>
        <time>2014-02-20T12:00:33.494Z</time>
      </trkpt>
      <trkpt lat="43.57528" lon="3.01048">
        <ele>239.6</ele>
        <time>2014-02-20T12:00:34.492Z</time>
      </trkpt>
      <trkpt lat="43.57529" lon="3.01039">
        <ele>239.5</ele>
        <time>2014-02-20T12:00:35.496Z</time>
      </trkpt>
      <trkpt lat="43.57528" lon="3.01032">
        <ele>238.7</ele>
        <time>2014-02-20T12:00:36.500Z</time>
      </trkpt>
      <trkpt lat="43.57529" lon="3.01022">
        <ele>238.6</ele>
        <time>2014-02-20T12:00:37.492Z</time>
      </trkpt>
      <trkpt lat="43.57529" lon="3.01013">
        <ele>238.7</ele>
        <time>2014-02-20T12:00:38.497Z</time>
      </trkpt>
      <trkpt lat="43.57529" lon="3.01006">
        <ele>239.4</ele>
        <time>2014-02-20T12:00:39.495Z</time>
      </trkpt>
      <trkpt lat="43.57529" lon="3.00999">
        <ele>239.6</ele>
        <time>2014-02-20T12:00:40.493Z</time>
      </trkpt>
      <trkpt lat="43.57528" lon="3.00987">
        <ele>240.7</ele>
        <time>2014-02-20T12:00:42.493Z</time>
      </trkpt>
      <trkpt lat="43.57529" lon="3.00982">
        <ele>240.9</ele>
        <time>2014-02-20T12:00:43.586Z</time>
      </trkpt>
      <trkpt lat="43.57529" lon="3.00973">
        <ele>241.1</ele>
        <time>2014-02-20T12:00:45.493Z</time>
      </trkpt>
      <trkpt lat="43.57529" lon="3.00963">
        <ele>241.9</ele>
        <time>2014-02-20T12:00:46.494Z</time>
      </trkpt>
      <trkpt lat="43.57529" lon="3.00955">
        <ele>242.3</ele>
        <time>2014-02-20T12:00:47.496Z</time>
      </trkpt>
      <trkpt lat="43.57529" lon="3.00948">
        <ele>242.7</ele>
        <time>2014-02-20T12:00:48.567Z</time>
      </trkpt>
      <trkpt lat="43.57529" lon="3.00936">
        <ele>242.9</ele>
        <time>2014-02-20T12:00:50.500Z</time>
      </trkpt>
      <trkpt lat="43.57529" lon="3.00931">
        <ele>241.8</ele>
        <time>2014-02-20T12:00:51.502Z</time>
      </trkpt>
      <trkpt lat="43.57529" lon="3.00922">
        <ele>242.5</ele>
        <time>2014-02-20T12:00:53.521Z</time>
      </trkpt>
      <trkpt lat="43.57528" lon="3.00917">
        <ele>242.3</ele>
        <time>2014-02-20T12:00:54.496Z</time>
      </trkpt>
      <trkpt lat="43.5753" lon="3.00907">
        <ele>240.5</ele>
        <time>2014-02-20T12:00:56.509Z</time>
      </trkpt>
      <trkpt lat="43.57531" lon="3.00904">
        <ele>240.6</ele>
        <time>2014-02-20T12:00:57.630Z</time>
      </trkpt>
      <trkpt lat="43.57534" lon="3.009">
        <ele>240</ele>
        <time>2014-02-20T12:00:59.496Z</time>
      </trkpt>
      <trkpt lat="43.57534" lon="3.00892">
        <ele>240</ele>
        <time>2014-02-20T12:01:00.499Z</time>
      </trkpt>
      <trkpt lat="43.57534" lon="3.0088">
        <ele>238.5</ele>
        <time>2014-02-20T12:01:02.497Z</time>
      </trkpt>
      <trkpt lat="43.57534" lon="3.00874">
        <ele>239</ele>
        <time>2014-02-20T12:01:03.495Z</time>
      </trkpt>
      <trkpt lat="43.57537" lon="3.00868">
        <ele>240.4</ele>
        <time>2014-02-20T12:01:08.498Z</time>
      </trkpt>
      <trkpt lat="43.57536" lon="3.00861">
        <ele>238.7</ele>
        <time>2014-02-20T12:01:09.503Z</time>
      </trkpt>
      <trkpt lat="43.57534" lon="3.00851">
        <ele>238.2</ele>
        <time>2014-02-20T12:01:11.493Z</time>
      </trkpt>
      <trkpt lat="43.57534" lon="3.00848">
        <ele>238.1</ele>
        <time>2014-02-20T12:01:12.493Z</time>
      </trkpt>
      <trkpt lat="43.57534" lon="3.00838">
        <ele>238.6</ele>
        <time>2014-02-20T12:01:14.496Z</time>
      </trkpt>
      <trkpt lat="43.57535" lon="3.00834">
        <ele>239</ele>
        <time>2014-02-20T12:01:15.496Z</time>
      </trkpt>
      <trkpt lat="43.5753" lon="3.00824">
        <ele>241</ele>
        <time>2014-02-20T12:01:22.532Z</time>
      </trkpt>
      <trkpt lat="43.57531" lon="3.00822">
        <ele>240.9</ele>
        <time>2014-02-20T12:01:23.505Z</time>
      </trkpt>
      <trkpt lat="43.57534" lon="3.00813">
        <ele>239.3</ele>
        <time>2014-02-20T12:01:26.509Z</time>
      </trkpt>
      <trkpt lat="43.57535" lon="3.00809">
        <ele>239</ele>
        <time>2014-02-20T12:01:27.506Z</time>
      </trkpt>
      <trkpt lat="43.57539" lon="3.008">
        <ele>237.1</ele>
        <time>2014-02-20T12:01:29.498Z</time>
      </trkpt>
      <trkpt lat="43.57541" lon="3.00794">
        <ele>234.9</ele>
        <time>2014-02-20T12:01:30.502Z</time>
      </trkpt>
      <trkpt lat="43.57543" lon="3.00788">
        <ele>234.3</ele>
        <time>2014-02-20T12:01:31.499Z</time>
      </trkpt>
      <trkpt lat="43.57543" lon="3.00781">
        <ele>233.7</ele>
        <time>2014-02-20T12:01:32.506Z</time>
      </trkpt>
      <trkpt lat="43.57543" lon="3.00774">
        <ele>232.9</ele>
        <time>2014-02-20T12:01:33.506Z</time>
      </trkpt>
      <trkpt lat="43.57542" lon="3.00768">
        <ele>232</ele>
        <time>2014-02-20T12:01:34.537Z</time>
      </trkpt>
      <trkpt lat="43.57543" lon="3.00758">
        <ele>231.6</ele>
        <time>2014-02-20T12:01:36.495Z</time>
      </trkpt>
      <trkpt lat="43.57544" lon="3.00752">
        <ele>231.2</ele>
        <time>2014-02-20T12:01:37.496Z</time>
      </trkpt>
      <trkpt lat="43.57544" lon="3.00741">
        <ele>228.6</ele>
        <time>2014-02-20T12:01:39.497Z</time>
      </trkpt>
      <trkpt lat="43.57542" lon="3.00739">
        <ele>228</ele>
        <time>2014-02-20T12:01:40.494Z</time>
      </trkpt>
      <trkpt lat="43.57541" lon="3.00732">
        <ele>229.1</ele>
        <time>2014-02-20T12:01:42.496Z</time>
      </trkpt>
      <trkpt lat="43.5754" lon="3.00724">
        <ele>230</ele>
        <time>2014-02-20T12:01:43.493Z</time>
      </trkpt>
      <trkpt lat="43.57541" lon="3.00715">
        <ele>229.9</ele>
        <time>2014-02-20T12:01:44.502Z</time>
      </trkpt>
      <trkpt lat="43.57541" lon="3.00709">
        <ele>230.1</ele>
        <time>2014-02-20T12:01:45.497Z</time>
      </trkpt>
      <trkpt lat="43.57541" lon="3.00697">
        <ele>230.9</ele>
        <time>2014-02-20T12:01:47.498Z</time>
      </trkpt>
      <trkpt lat="43.57542" lon="3.0069">
        <ele>231.3</ele>
        <time>2014-02-20T12:01:48.539Z</time>
      </trkpt>
      <trkpt lat="43.57543" lon="3.00684">
        <ele>231.1</ele>
        <time>2014-02-20T12:01:49.494Z</time>
      </trkpt>
      <trkpt lat="43.57544" lon="3.00677">
        <ele>230.9</ele>
        <time>2014-02-20T12:01:50.494Z</time>
      </trkpt>
      <trkpt lat="43.57545" lon="3.00666">
        <ele>232.6</ele>
        <time>2014-02-20T12:01:52.492Z</time>
      </trkpt>
      <trkpt lat="43.57545" lon="3.0066">
        <ele>233.2</ele>
        <time>2014-02-20T12:01:53.577Z</time>
      </trkpt>
      <trkpt lat="43.57545" lon="3.00648">
        <ele>233.6</ele>
        <time>2014-02-20T12:01:55.496Z</time>
      </trkpt>
      <trkpt lat="43.57545" lon="3.00642">
        <ele>234.1</ele>
        <time>2014-02-20T12:01:56.501Z</time>
      </trkpt>
      <trkpt lat="43.57542" lon="3.00633">
        <ele>235</ele>
        <time>2014-02-20T12:01:58.548Z</time>
      </trkpt>
      <trkpt lat="43.5754" lon="3.00629">
        <ele>236</ele>
        <time>2014-02-20T12:01:59.510Z</time>
      </trkpt>
      <trkpt lat="43.5754" lon="3.00622">
        <ele>237.1</ele>
        <time>2014-02-20T12:02:00.503Z</time>
      </trkpt>
      <trkpt lat="43.57542" lon="3.00614">
        <ele>237.9</ele>
        <time>2014-02-20T12:02:01.536Z</time>
      </trkpt>
      <trkpt lat="43.57543" lon="3.00606">
        <ele>237.5</ele>
        <time>2014-02-20T12:02:02.504Z</time>
      </trkpt>
      <trkpt lat="43.57545" lon="3.00598">
        <ele>237.6</ele>
        <time>2014-02-20T12:02:03.546Z</time>
      </trkpt>
      <trkpt lat="43.57547" lon="3.0059">
        <ele>235.7</ele>
        <time>2014-02-20T12:02:04.498Z</time>
      </trkpt>
      <trkpt lat="43.57552" lon="3.00581">
        <ele>235.3</ele>
        <time>2014-02-20T12:02:05.501Z</time>
      </trkpt>
      <trkpt lat="43.57555" lon="3.00573">
        <ele>234.7</ele>
        <time>2014-02-20T12:02:06.503Z</time>
      </trkpt>
      <trkpt lat="43.57559" lon="3.00567">
        <ele>233.1</ele>
        <time>2014-02-20T12:02:07.498Z</time>
      </trkpt>
      <trkpt lat="43.5756" lon="3.00557">
        <ele>231.9</ele>
        <time>2014-02-20T12:02:08.500Z</time>
      </trkpt>
      <trkpt lat="43.57561" lon="3.00547">
        <ele>230.8</ele>
        <time>2014-02-20T12:02:09.502Z</time>
      </trkpt>
      <trkpt lat="43.57562" lon="3.00539">
        <ele>230.5</ele>
        <time>2014-02-20T12:02:10.498Z</time>
      </trkpt>
      <trkpt lat="43.57562" lon="3.00532">
        <ele>229.6</ele>
        <time>2014-02-20T12:02:11.499Z</time>
      </trkpt>
      <trkpt lat="43.57561" lon="3.00521">
        <ele>229.7</ele>
        <time>2014-02-20T12:02:13.498Z</time>
      </trkpt>
      <trkpt lat="43.57561" lon="3.00517">
        <ele>229.6</ele>
        <time>2014-02-20T12:02:14.499Z</time>
      </trkpt>
      <trkpt lat="43.57561" lon="3.00511">
        <ele>229.1</ele>
        <time>2014-02-20T12:02:15.498Z</time>
      </trkpt>
      <trkpt lat="43.5756" lon="3.00503">
        <ele>229.2</ele>
        <time>2014-02-20T12:02:16.497Z</time>
      </trkpt>
      <trkpt lat="43.5756" lon="3.00495">
        <ele>229.2</ele>
        <time>2014-02-20T12:02:17.497Z</time>
      </trkpt>
      <trkpt lat="43.5756" lon="3.00489">
        <ele>229.1</ele>
        <time>2014-02-20T12:02:18.498Z</time>
      </trkpt>
      <trkpt lat="43.5756" lon="3.00482">
        <ele>229.9</ele>
        <time>2014-02-20T12:02:19.497Z</time>
      </trkpt>
      <trkpt lat="43.5756" lon="3.00476">
        <ele>229.9</ele>
        <time>2014-02-20T12:02:20.499Z</time>
      </trkpt>
      <trkpt lat="43.57561" lon="3.00465">
        <ele>230.7</ele>
        <time>2014-02-20T12:02:22.494Z</time>
      </trkpt>
      <trkpt lat="43.57562" lon="3.00455">
        <ele>231</ele>
        <time>2014-02-20T12:02:23.494Z</time>
      </trkpt>
      <trkpt lat="43.57563" lon="3.00448">
        <ele>231.5</ele>
        <time>2014-02-20T12:02:24.495Z</time>
      </trkpt>
      <trkpt lat="43.57563" lon="3.0044">
        <ele>231.9</ele>
        <time>2014-02-20T12:02:25.491Z</time>
      </trkpt>
      <trkpt lat="43.57561" lon="3.00434">
        <ele>232.8</ele>
        <time>2014-02-20T12:02:26.497Z</time>
      </trkpt>
      <trkpt lat="43.57561" lon="3.00428">
        <ele>233</ele>
        <time>2014-02-20T12:02:27.492Z</time>
      </trkpt>
      <trkpt lat="43.5756" lon="3.0042">
        <ele>234.1</ele>
        <time>2014-02-20T12:02:28.553Z</time>
      </trkpt>
      <trkpt lat="43.57559" lon="3.00411">
        <ele>233.6</ele>
        <time>2014-02-20T12:02:29.499Z</time>
      </trkpt>
      <trkpt lat="43.57558" lon="3.00402">
        <ele>234</ele>
        <time>2014-02-20T12:02:30.495Z</time>
      </trkpt>
      <trkpt lat="43.57559" lon="3.00393">
        <ele>234.3</ele>
        <time>2014-02-20T12:02:31.493Z</time>
      </trkpt>
      <trkpt lat="43.57559" lon="3.00387">
        <ele>234.6</ele>
        <time>2014-02-20T12:02:32.503Z</time>
      </trkpt>
      <trkpt lat="43.57558" lon="3.00381">
        <ele>234.6</ele>
        <time>2014-02-20T12:02:33.495Z</time>
      </trkpt>
      <trkpt lat="43.57558" lon="3.00374">
        <ele>235.1</ele>
        <time>2014-02-20T12:02:34.501Z</time>
      </trkpt>
      <trkpt lat="43.57557" lon="3.00368">
        <ele>235.2</ele>
        <time>2014-02-20T12:02:35.503Z</time>
      </trkpt>
      <trkpt lat="43.57555" lon="3.00357">
        <ele>236</ele>
        <time>2014-02-20T12:02:37.503Z</time>
      </trkpt>
      <trkpt lat="43.57554" lon="3.00352">
        <ele>236.1</ele>
        <time>2014-02-20T12:02:38.503Z</time>
      </trkpt>
      <trkpt lat="43.57554" lon="3.00339">
        <ele>236</ele>
        <time>2014-02-20T12:02:40.494Z</time>
      </trkpt>
      <trkpt lat="43.57554" lon="3.00334">
        <ele>235.7</ele>
        <time>2014-02-20T12:02:41.506Z</time>
      </trkpt>
      <trkpt lat="43.57554" lon="3.00324">
        <ele>235.2</ele>
        <time>2014-02-20T12:02:43.501Z</time>
      </trkpt>
      <trkpt lat="43.57554" lon="3.0032">
        <ele>235.1</ele>
        <time>2014-02-20T12:02:44.506Z</time>
      </trkpt>
      <trkpt lat="43.57555" lon="3.00311">
        <ele>234</ele>
        <time>2014-02-20T12:02:46.502Z</time>
      </trkpt>
      <trkpt lat="43.57556" lon="3.00305">
        <ele>233.7</ele>
        <time>2014-02-20T12:02:47.504Z</time>
      </trkpt>
      <trkpt lat="43.57558" lon="3.00294">
        <ele>233.2</ele>
        <time>2014-02-20T12:02:49.505Z</time>
      </trkpt>
      <trkpt lat="43.57558" lon="3.00286">
        <ele>233.1</ele>
        <time>2014-02-20T12:02:50.507Z</time>
      </trkpt>
      <trkpt lat="43.57559" lon="3.00279">
        <ele>232.4</ele>
        <time>2014-02-20T12:02:51.504Z</time>
      </trkpt>
      <trkpt lat="43.57561" lon="3.00271">
        <ele>232.1</ele>
        <time>2014-02-20T12:02:52.504Z</time>
      </trkpt>
      <trkpt lat="43.57562" lon="3.00264">
        <ele>231.9</ele>
        <time>2014-02-20T12:02:53.576Z</time>
      </trkpt>
      <trkpt lat="43.57562" lon="3.00258">
        <ele>231.6</ele>
        <time>2014-02-20T12:02:54.506Z</time>
      </trkpt>
      <trkpt lat="43.57561" lon="3.00247">
        <ele>231.3</ele>
        <time>2014-02-20T12:02:56.507Z</time>
      </trkpt>
      <trkpt lat="43.57561" lon="3.00242">
        <ele>231.4</ele>
        <time>2014-02-20T12:02:57.506Z</time>
      </trkpt>
      <trkpt lat="43.5756" lon="3.0023">
        <ele>230.3</ele>
        <time>2014-02-20T12:02:59.507Z</time>
      </trkpt>
      <trkpt lat="43.5756" lon="3.00224">
        <ele>229.9</ele>
        <time>2014-02-20T12:03:00.503Z</time>
      </trkpt>
      <trkpt lat="43.57561" lon="3.00215">
        <ele>229.5</ele>
        <time>2014-02-20T12:03:02.507Z</time>
      </trkpt>
      <trkpt lat="43.57561" lon="3.00206">
        <ele>228.8</ele>
        <time>2014-02-20T12:03:03.509Z</time>
      </trkpt>
      <trkpt lat="43.57561" lon="3.00197">
        <ele>228.4</ele>
        <time>2014-02-20T12:03:04.509Z</time>
      </trkpt>
      <trkpt lat="43.5756" lon="3.00189">
        <ele>228.8</ele>
        <time>2014-02-20T12:03:05.512Z</time>
      </trkpt>
      <trkpt lat="43.57559" lon="3.00182">
        <ele>228.9</ele>
        <time>2014-02-20T12:03:06.510Z</time>
      </trkpt>
      <trkpt lat="43.57557" lon="3.00175">
        <ele>229</ele>
        <time>2014-02-20T12:03:07.507Z</time>
      </trkpt>
      <trkpt lat="43.57555" lon="3.00163">
        <ele>229.3</ele>
        <time>2014-02-20T12:03:09.512Z</time>
      </trkpt>
      <trkpt lat="43.57554" lon="3.00157">
        <ele>229.5</ele>
        <time>2014-02-20T12:03:10.509Z</time>
      </trkpt>
      <trkpt lat="43.57554" lon="3.0015">
        <ele>230</ele>
        <time>2014-02-20T12:03:11.508Z</time>
      </trkpt>
      <trkpt lat="43.57553" lon="3.00142">
        <ele>230</ele>
        <time>2014-02-20T12:03:12.521Z</time>
      </trkpt>
      <trkpt lat="43.57552" lon="3.00136">
        <ele>229.9</ele>
        <time>2014-02-20T12:03:13.506Z</time>
      </trkpt>
      <trkpt lat="43.57551" lon="3.00129">
        <ele>229.7</ele>
        <time>2014-02-20T12:03:14.509Z</time>
      </trkpt>
      <trkpt lat="43.57548" lon="3.00119">
        <ele>229.7</ele>
        <time>2014-02-20T12:03:16.539Z</time>
      </trkpt>
      <trkpt lat="43.57547" lon="3.00114">
        <ele>229.4</ele>
        <time>2014-02-20T12:03:17.526Z</time>
      </trkpt>
      <trkpt lat="43.57545" lon="3.00108">
        <ele>229.7</ele>
        <time>2014-02-20T12:03:18.502Z</time>
      </trkpt>
      <trkpt lat="43.57543" lon="3.00102">
        <ele>229.1</ele>
        <time>2014-02-20T12:03:19.498Z</time>
      </trkpt>
      <trkpt lat="43.57542" lon="3.00095">
        <ele>229.4</ele>
        <time>2014-02-20T12:03:20.502Z</time>
      </trkpt>
      <trkpt lat="43.57541" lon="3.00088">
        <ele>228.8</ele>
        <time>2014-02-20T12:03:21.500Z</time>
      </trkpt>
      <trkpt lat="43.57541" lon="3.00081">
        <ele>227.4</ele>
        <time>2014-02-20T12:03:22.499Z</time>
      </trkpt>
      <trkpt lat="43.57542" lon="3.00075">
        <ele>226.5</ele>
        <time>2014-02-20T12:03:23.504Z</time>
      </trkpt>
      <trkpt lat="43.5754" lon="3.00064">
        <ele>226.3</ele>
        <time>2014-02-20T12:03:25.499Z</time>
      </trkpt>
      <trkpt lat="43.57539" lon="3.00061">
        <ele>226.5</ele>
        <time>2014-02-20T12:03:26.501Z</time>
      </trkpt>
      <trkpt lat="43.57533" lon="3.00053">
        <ele>225.6</ele>
        <time>2014-02-20T12:03:34.499Z</time>
      </trkpt>
      <trkpt lat="43.57532" lon="3.00051">
        <ele>225</ele>
        <time>2014-02-20T12:03:35.500Z</time>
      </trkpt>
      <trkpt lat="43.5753" lon="3.00042">
        <ele>226.7</ele>
        <time>2014-02-20T12:03:39.508Z</time>
      </trkpt>
      <trkpt lat="43.57529" lon="3.00037">
        <ele>226.3</ele>
        <time>2014-02-20T12:03:40.504Z</time>
      </trkpt>
      <trkpt lat="43.5753" lon="3.00031">
        <ele>226.2</ele>
        <time>2014-02-20T12:03:41.506Z</time>
      </trkpt>
      <trkpt lat="43.57529" lon="3.00025">
        <ele>226.9</ele>
        <time>2014-02-20T12:03:42.507Z</time>
      </trkpt>
      <trkpt lat="43.57526" lon="3.00015">
        <ele>227.1</ele>
        <time>2014-02-20T12:03:44.504Z</time>
      </trkpt>
      <trkpt lat="43.57524" lon="3.00012">
        <ele>227.7</ele>
        <time>2014-02-20T12:03:45.504Z</time>
      </trkpt>
      <trkpt lat="43.5752" lon="3.00002">
        <ele>226.9</ele>
        <time>2014-02-20T12:03:47.509Z</time>
      </trkpt>
      <trkpt lat="43.57518" lon="2.99997">
        <ele>227.6</ele>
        <time>2014-02-20T12:03:48.505Z</time>
      </trkpt>
      <trkpt lat="43.57517" lon="2.99991">
        <ele>228</ele>
        <time>2014-02-20T12:03:49.504Z</time>
      </trkpt>
      <trkpt lat="43.57515" lon="2.99984">
        <ele>228.5</ele>
        <time>2014-02-20T12:03:50.506Z</time>
      </trkpt>
      <trkpt lat="43.57514" lon="2.99978">
        <ele>227.6</ele>
        <time>2014-02-20T12:03:51.505Z</time>
      </trkpt>
      <trkpt lat="43.57512" lon="2.99972">
        <ele>228.1</ele>
        <time>2014-02-20T12:03:52.505Z</time>
      </trkpt>
      <trkpt lat="43.57511" lon="2.99965">
        <ele>227.7</ele>
        <time>2014-02-20T12:03:53.510Z</time>
      </trkpt>
      <trkpt lat="43.57509" lon="2.99958">
        <ele>227.4</ele>
        <time>2014-02-20T12:03:54.502Z</time>
      </trkpt>
      <trkpt lat="43.57505" lon="2.99947">
        <ele>227.5</ele>
        <time>2014-02-20T12:03:56.501Z</time>
      </trkpt>
      <trkpt lat="43.57501" lon="2.99943">
        <ele>227.8</ele>
        <time>2014-02-20T12:03:57.499Z</time>
      </trkpt>
      <trkpt lat="43.57498" lon="2.99938">
        <ele>227.5</ele>
        <time>2014-02-20T12:03:58.498Z</time>
      </trkpt>
      <trkpt lat="43.57495" lon="2.99933">
        <ele>227.5</ele>
        <time>2014-02-20T12:03:59.500Z</time>
      </trkpt>
      <trkpt lat="43.57493" lon="2.99927">
        <ele>228.1</ele>
        <time>2014-02-20T12:04:00.500Z</time>
      </trkpt>
      <trkpt lat="43.57492" lon="2.9992">
        <ele>227.6</ele>
        <time>2014-02-20T12:04:01.497Z</time>
      </trkpt>
      <trkpt lat="43.5749" lon="2.99914">
        <ele>225.3</ele>
        <time>2014-02-20T12:04:02.501Z</time>
      </trkpt>
      <trkpt lat="43.57488" lon="2.99907">
        <ele>224.7</ele>
        <time>2014-02-20T12:04:03.506Z</time>
      </trkpt>
      <trkpt lat="43.57483" lon="2.99897">
        <ele>224.9</ele>
        <time>2014-02-20T12:04:05.499Z</time>
      </trkpt>
      <trkpt lat="43.57481" lon="2.99893">
        <ele>225.2</ele>
        <time>2014-02-20T12:04:06.500Z</time>
      </trkpt>
      <trkpt lat="43.57478" lon="2.99883">
        <ele>225.6</ele>
        <time>2014-02-20T12:04:08.539Z</time>
      </trkpt>
      <trkpt lat="43.57476" lon="2.99878">
        <ele>225.9</ele>
        <time>2014-02-20T12:04:09.501Z</time>
      </trkpt>
      <trkpt lat="43.57474" lon="2.99867">
        <ele>224.4</ele>
        <time>2014-02-20T12:04:11.502Z</time>
      </trkpt>
      <trkpt lat="43.57472" lon="2.9986">
        <ele>223</ele>
        <time>2014-02-20T12:04:12.500Z</time>
      </trkpt>
      <trkpt lat="43.57471" lon="2.99852">
        <ele>222.4</ele>
        <time>2014-02-20T12:04:13.554Z</time>
      </trkpt>
      <trkpt lat="43.5747" lon="2.99846">
        <ele>222.2</ele>
        <time>2014-02-20T12:04:14.499Z</time>
      </trkpt>
      <trkpt lat="43.57468" lon="2.9984">
        <ele>221.7</ele>
        <time>2014-02-20T12:04:15.501Z</time>
      </trkpt>
      <trkpt lat="43.57466" lon="2.99833">
        <ele>220.3</ele>
        <time>2014-02-20T12:04:16.498Z</time>
      </trkpt>
      <trkpt lat="43.57464" lon="2.99826">
        <ele>220.9</ele>
        <time>2014-02-20T12:04:17.499Z</time>
      </trkpt>
      <trkpt lat="43.57461" lon="2.99819">
        <ele>221.6</ele>
        <time>2014-02-20T12:04:18.734Z</time>
      </trkpt>
      <trkpt lat="43.57456" lon="2.99808">
        <ele>221.1</ele>
        <time>2014-02-20T12:04:20.500Z</time>
      </trkpt>
      <trkpt lat="43.57455" lon="2.99802">
        <ele>221.7</ele>
        <time>2014-02-20T12:04:21.499Z</time>
      </trkpt>
      <trkpt lat="43.57454" lon="2.99795">
        <ele>221.6</ele>
        <time>2014-02-20T12:04:22.498Z</time>
      </trkpt>
      <trkpt lat="43.57452" lon="2.99789">
        <ele>221.4</ele>
        <time>2014-02-20T12:04:23.501Z</time>
      </trkpt>
      <trkpt lat="43.57448" lon="2.9978">
        <ele>224</ele>
        <time>2014-02-20T12:04:25.513Z</time>
      </trkpt>
      <trkpt lat="43.57446" lon="2.99776">
        <ele>223.9</ele>
        <time>2014-02-20T12:04:26.508Z</time>
      </trkpt>
      <trkpt lat="43.57442" lon="2.99766">
        <ele>224.9</ele>
        <time>2014-02-20T12:04:29.506Z</time>
      </trkpt>
      <trkpt lat="43.57441" lon="2.99765">
        <ele>225.3</ele>
        <time>2014-02-20T12:04:30.506Z</time>
      </trkpt>
      <trkpt lat="43.57435" lon="2.99757">
        <ele>224.7</ele>
        <time>2014-02-20T12:04:36.507Z</time>
      </trkpt>
      <trkpt lat="43.57433" lon="2.99756">
        <ele>224.2</ele>
        <time>2014-02-20T12:04:37.505Z</time>
      </trkpt>
      <trkpt lat="43.57429" lon="2.99748">
        <ele>225</ele>
        <time>2014-02-20T12:04:42.502Z</time>
      </trkpt>
      <trkpt lat="43.57427" lon="2.99745">
        <ele>226</ele>
        <time>2014-02-20T12:04:43.499Z</time>
      </trkpt>
      <trkpt lat="43.57424" lon="2.99736">
        <ele>225.8</ele>
        <time>2014-02-20T12:04:45.499Z</time>
      </trkpt>
      <trkpt lat="43.57422" lon="2.99732">
        <ele>225.5</ele>
        <time>2014-02-20T12:04:46.499Z</time>
      </trkpt>
      <trkpt lat="43.57418" lon="2.99722">
        <ele>225.8</ele>
        <time>2014-02-20T12:04:48.500Z</time>
      </trkpt>
      <trkpt lat="43.57416" lon="2.99717">
        <ele>225.6</ele>
        <time>2014-02-20T12:04:49.498Z</time>
      </trkpt>
      <trkpt lat="43.57413" lon="2.99709">
        <ele>225.2</ele>
        <time>2014-02-20T12:04:51.500Z</time>
      </trkpt>
      <trkpt lat="43.5741" lon="2.99704">
        <ele>225.3</ele>
        <time>2014-02-20T12:04:52.499Z</time>
      </trkpt>
      <trkpt lat="43.57408" lon="2.99699">
        <ele>225.1</ele>
        <time>2014-02-20T12:04:53.500Z</time>
      </trkpt>
      <trkpt lat="43.57406" lon="2.99693">
        <ele>225.4</ele>
        <time>2014-02-20T12:04:54.500Z</time>
      </trkpt>
      <trkpt lat="43.57404" lon="2.99688">
        <ele>225.3</ele>
        <time>2014-02-20T12:04:55.502Z</time>
      </trkpt>
      <trkpt lat="43.57401" lon="2.99682">
        <ele>224.7</ele>
        <time>2014-02-20T12:04:56.542Z</time>
      </trkpt>
      <trkpt lat="43.57398" lon="2.99676">
        <ele>224.3</ele>
        <time>2014-02-20T12:04:57.505Z</time>
      </trkpt>
      <trkpt lat="43.57395" lon="2.99671">
        <ele>224.5</ele>
        <time>2014-02-20T12:04:58.509Z</time>
      </trkpt>
      <trkpt lat="43.57392" lon="2.99666">
        <ele>224.3</ele>
        <time>2014-02-20T12:04:59.506Z</time>
      </trkpt>
      <trkpt lat="43.5739" lon="2.9966">
        <ele>224.1</ele>
        <time>2014-02-20T12:05:00.507Z</time>
      </trkpt>
      <trkpt lat="43.57387" lon="2.99654">
        <ele>223.7</ele>
        <time>2014-02-20T12:05:01.505Z</time>
      </trkpt>
      <trkpt lat="43.57385" lon="2.99648">
        <ele>223.5</ele>
        <time>2014-02-20T12:05:02.506Z</time>
      </trkpt>
      <trkpt lat="43.57382" lon="2.99642">
        <ele>223.9</ele>
        <time>2014-02-20T12:05:03.506Z</time>
      </trkpt>
      <trkpt lat="43.57379" lon="2.99637">
        <ele>223.3</ele>
        <time>2014-02-20T12:05:04.504Z</time>
      </trkpt>
      <trkpt lat="43.57376" lon="2.9963">
        <ele>223.9</ele>
        <time>2014-02-20T12:05:05.508Z</time>
      </trkpt>
      <trkpt lat="43.57373" lon="2.99623">
        <ele>223.5</ele>
        <time>2014-02-20T12:05:06.510Z</time>
      </trkpt>
      <trkpt lat="43.57369" lon="2.99614">
        <ele>223.4</ele>
        <time>2014-02-20T12:05:08.511Z</time>
      </trkpt>
      <trkpt lat="43.57366" lon="2.99609">
        <ele>223.7</ele>
        <time>2014-02-20T12:05:09.510Z</time>
      </trkpt>
      <trkpt lat="43.57362" lon="2.996">
        <ele>223.5</ele>
        <time>2014-02-20T12:05:11.510Z</time>
      </trkpt>
      <trkpt lat="43.5736" lon="2.99595">
        <ele>223.3</ele>
        <time>2014-02-20T12:05:12.501Z</time>
      </trkpt>
      <trkpt lat="43.57357" lon="2.99589">
        <ele>223.7</ele>
        <time>2014-02-20T12:05:13.499Z</time>
      </trkpt>
      <trkpt lat="43.57355" lon="2.99584">
        <ele>223.8</ele>
        <time>2014-02-20T12:05:14.503Z</time>
      </trkpt>
      <trkpt lat="43.57352" lon="2.99578">
        <ele>223.8</ele>
        <time>2014-02-20T12:05:15.502Z</time>
      </trkpt>
      <trkpt lat="43.5735" lon="2.99573">
        <ele>224.2</ele>
        <time>2014-02-20T12:05:16.521Z</time>
      </trkpt>
      <trkpt lat="43.57344" lon="2.99563">
        <ele>224.5</ele>
        <time>2014-02-20T12:05:18.500Z</time>
      </trkpt>
      <trkpt lat="43.57342" lon="2.99558">
        <ele>224.2</ele>
        <time>2014-02-20T12:05:19.501Z</time>
      </trkpt>
      <trkpt lat="43.57339" lon="2.99551">
        <ele>224.5</ele>
        <time>2014-02-20T12:05:20.503Z</time>
      </trkpt>
      <trkpt lat="43.57337" lon="2.99544">
        <ele>224.4</ele>
        <time>2014-02-20T12:05:21.502Z</time>
      </trkpt>
      <trkpt lat="43.57335" lon="2.99537">
        <ele>224.4</ele>
        <time>2014-02-20T12:05:22.498Z</time>
      </trkpt>
      <trkpt lat="43.57333" lon="2.99532">
        <ele>224.5</ele>
        <time>2014-02-20T12:05:23.562Z</time>
      </trkpt>
      <trkpt lat="43.57327" lon="2.99524">
        <ele>223.9</ele>
        <time>2014-02-20T12:05:25.500Z</time>
      </trkpt>
      <trkpt lat="43.57325" lon="2.99519">
        <ele>224.2</ele>
        <time>2014-02-20T12:05:26.506Z</time>
      </trkpt>
      <trkpt lat="43.5732" lon="2.9951">
        <ele>224.1</ele>
        <time>2014-02-20T12:05:28.500Z</time>
      </trkpt>
      <trkpt lat="43.57317" lon="2.99506">
        <ele>223.9</ele>
        <time>2014-02-20T12:05:29.502Z</time>
      </trkpt>
      <trkpt lat="43.57312" lon="2.99499">
        <ele>225.6</ele>
        <time>2014-02-20T12:05:30.503Z</time>
      </trkpt>
      <trkpt lat="43.57306" lon="2.99493">
        <ele>225.5</ele>
        <time>2014-02-20T12:05:31.500Z</time>
      </trkpt>
      <trkpt lat="43.57301" lon="2.99487">
        <ele>226.5</ele>
        <time>2014-02-20T12:05:32.500Z</time>
      </trkpt>
      <trkpt lat="43.57297" lon="2.99481">
        <ele>226.2</ele>
        <time>2014-02-20T12:05:33.502Z</time>
      </trkpt>
      <trkpt lat="43.57295" lon="2.99477">
        <ele>227.1</ele>
        <time>2014-02-20T12:05:34.502Z</time>
      </trkpt>
      <trkpt lat="43.57292" lon="2.99472">
        <ele>227.6</ele>
        <time>2014-02-20T12:05:35.504Z</time>
      </trkpt>
      <trkpt lat="43.57287" lon="2.99463">
        <ele>228.5</ele>
        <time>2014-02-20T12:05:37.500Z</time>
      </trkpt>
      <trkpt lat="43.57285" lon="2.99459">
        <ele>228.5</ele>
        <time>2014-02-20T12:05:38.501Z</time>
      </trkpt>
      <trkpt lat="43.5728" lon="2.99451">
        <ele>228.4</ele>
        <time>2014-02-20T12:05:40.500Z</time>
      </trkpt>
      <trkpt lat="43.57278" lon="2.99446">
        <ele>227.9</ele>
        <time>2014-02-20T12:05:41.512Z</time>
      </trkpt>
      <trkpt lat="43.57274" lon="2.99439">
        <ele>227.1</ele>
        <time>2014-02-20T12:05:43.499Z</time>
      </trkpt>
      <trkpt lat="43.57271" lon="2.99436">
        <ele>226.9</ele>
        <time>2014-02-20T12:05:44.504Z</time>
      </trkpt>
      <trkpt lat="43.57268" lon="2.99431">
        <ele>227.3</ele>
        <time>2014-02-20T12:05:45.501Z</time>
      </trkpt>
      <trkpt lat="43.57264" lon="2.99427">
        <ele>227.2</ele>
        <time>2014-02-20T12:05:46.499Z</time>
      </trkpt>
      <trkpt lat="43.5726" lon="2.99422">
        <ele>226.6</ele>
        <time>2014-02-20T12:05:47.502Z</time>
      </trkpt>
      <trkpt lat="43.57256" lon="2.99415">
        <ele>227</ele>
        <time>2014-02-20T12:05:48.519Z</time>
      </trkpt>
      <trkpt lat="43.57253" lon="2.99408">
        <ele>227.2</ele>
        <time>2014-02-20T12:05:49.515Z</time>
      </trkpt>
      <trkpt lat="43.57251" lon="2.994">
        <ele>227.4</ele>
        <time>2014-02-20T12:05:50.500Z</time>
      </trkpt>
      <trkpt lat="43.57248" lon="2.99395">
        <ele>227.5</ele>
        <time>2014-02-20T12:05:51.499Z</time>
      </trkpt>
      <trkpt lat="43.57246" lon="2.9939">
        <ele>228</ele>
        <time>2014-02-20T12:05:52.499Z</time>
      </trkpt>
      <trkpt lat="43.5724" lon="2.99384">
        <ele>229.5</ele>
        <time>2014-02-20T12:05:54.499Z</time>
      </trkpt>
      <trkpt lat="43.57237" lon="2.9938">
        <ele>230.6</ele>
        <time>2014-02-20T12:05:55.499Z</time>
      </trkpt>
      <trkpt lat="43.57231" lon="2.99374">
        <ele>232</ele>
        <time>2014-02-20T12:05:57.500Z</time>
      </trkpt>
      <trkpt lat="43.57227" lon="2.99371">
        <ele>231.8</ele>
        <time>2014-02-20T12:05:58.506Z</time>
      </trkpt>
      <trkpt lat="43.57224" lon="2.99366">
        <ele>232.1</ele>
        <time>2014-02-20T12:05:59.501Z</time>
      </trkpt>
      <trkpt lat="43.57221" lon="2.99361">
        <ele>232.6</ele>
        <time>2014-02-20T12:06:00.498Z</time>
      </trkpt>
      <trkpt lat="43.57218" lon="2.99356">
        <ele>233.8</ele>
        <time>2014-02-20T12:06:01.499Z</time>
      </trkpt>
      <trkpt lat="43.57215" lon="2.99351">
        <ele>234.2</ele>
        <time>2014-02-20T12:06:02.501Z</time>
      </trkpt>
      <trkpt lat="43.57208" lon="2.99342">
        <ele>234.6</ele>
        <time>2014-02-20T12:06:04.498Z</time>
      </trkpt>
      <trkpt lat="43.57206" lon="2.99336">
        <ele>234.7</ele>
        <time>2014-02-20T12:06:05.500Z</time>
      </trkpt>
      <trkpt lat="43.57204" lon="2.99329">
        <ele>234.9</ele>
        <time>2014-02-20T12:06:06.501Z</time>
      </trkpt>
      <trkpt lat="43.57201" lon="2.99322">
        <ele>234.5</ele>
        <time>2014-02-20T12:06:07.497Z</time>
      </trkpt>
      <trkpt lat="43.57197" lon="2.99316">
        <ele>233.5</ele>
        <time>2014-02-20T12:06:08.579Z</time>
      </trkpt>
      <trkpt lat="43.57193" lon="2.9931">
        <ele>232.4</ele>
        <time>2014-02-20T12:06:09.501Z</time>
      </trkpt>
      <trkpt lat="43.5719" lon="2.99305">
        <ele>232.2</ele>
        <time>2014-02-20T12:06:10.496Z</time>
      </trkpt>
      <trkpt lat="43.57188" lon="2.99298">
        <ele>231.7</ele>
        <time>2014-02-20T12:06:11.511Z</time>
      </trkpt>
      <trkpt lat="43.57187" lon="2.99291">
        <ele>230.9</ele>
        <time>2014-02-20T12:06:12.501Z</time>
      </trkpt>
      <trkpt lat="43.57186" lon="2.9928">
        <ele>229.5</ele>
        <time>2014-02-20T12:06:13.497Z</time>
      </trkpt>
      <trkpt lat="43.57184" lon="2.99269">
        <ele>228.8</ele>
        <time>2014-02-20T12:06:14.501Z</time>
      </trkpt>
      <trkpt lat="43.57182" lon="2.99258">
        <ele>227.2</ele>
        <time>2014-02-20T12:06:15.502Z</time>
      </trkpt>
      <trkpt lat="43.57179" lon="2.99249">
        <ele>225.4</ele>
        <time>2014-02-20T12:06:16.499Z</time>
      </trkpt>
      <trkpt lat="43.57177" lon="2.99238">
        <ele>224.3</ele>
        <time>2014-02-20T12:06:17.500Z</time>
      </trkpt>
      <trkpt lat="43.57175" lon="2.99228">
        <ele>224.9</ele>
        <time>2014-02-20T12:06:18.500Z</time>
      </trkpt>
      <trkpt lat="43.57174" lon="2.9922">
        <ele>224.4</ele>
        <time>2014-02-20T12:06:19.499Z</time>
      </trkpt>
      <trkpt lat="43.57171" lon="2.99209">
        <ele>224.3</ele>
        <time>2014-02-20T12:06:21.516Z</time>
      </trkpt>
      <trkpt lat="43.57169" lon="2.99203">
        <ele>223.8</ele>
        <time>2014-02-20T12:06:22.499Z</time>
      </trkpt>
      <trkpt lat="43.57167" lon="2.99197">
        <ele>224.9</ele>
        <time>2014-02-20T12:06:23.500Z</time>
      </trkpt>
      <trkpt lat="43.57166" lon="2.99191">
        <ele>225.3</ele>
        <time>2014-02-20T12:06:24.503Z</time>
      </trkpt>
      <trkpt lat="43.57163" lon="2.9918">
        <ele>225.4</ele>
        <time>2014-02-20T12:06:26.504Z</time>
      </trkpt>
      <trkpt lat="43.57162" lon="2.99174">
        <ele>225.3</ele>
        <time>2014-02-20T12:06:27.505Z</time>
      </trkpt>
      <trkpt lat="43.5716" lon="2.99168">
        <ele>225.9</ele>
        <time>2014-02-20T12:06:28.502Z</time>
      </trkpt>
      <trkpt lat="43.57159" lon="2.99162">
        <ele>226</ele>
        <time>2014-02-20T12:06:29.511Z</time>
      </trkpt>
      <trkpt lat="43.57155" lon="2.99153">
        <ele>226.5</ele>
        <time>2014-02-20T12:06:31.510Z</time>
      </trkpt>
      <trkpt lat="43.57153" lon="2.99148">
        <ele>226.8</ele>
        <time>2014-02-20T12:06:32.507Z</time>
      </trkpt>
      <trkpt lat="43.57151" lon="2.99138">
        <ele>226.9</ele>
        <time>2014-02-20T12:06:34.508Z</time>
      </trkpt>
      <trkpt lat="43.5715" lon="2.99132">
        <ele>226.3</ele>
        <time>2014-02-20T12:06:35.508Z</time>
      </trkpt>
      <trkpt lat="43.57148" lon="2.99123">
        <ele>225.5</ele>
        <time>2014-02-20T12:06:37.508Z</time>
      </trkpt>
      <trkpt lat="43.57146" lon="2.99119">
        <ele>225.5</ele>
        <time>2014-02-20T12:06:38.650Z</time>
      </trkpt>
      <trkpt lat="43.57142" lon="2.99109">
        <ele>225.2</ele>
        <time>2014-02-20T12:06:40.507Z</time>
      </trkpt>
      <trkpt lat="43.5714" lon="2.99102">
        <ele>225.9</ele>
        <time>2014-02-20T12:06:41.524Z</time>
      </trkpt>
      <trkpt lat="43.57135" lon="2.99093">
        <ele>225.7</ele>
        <time>2014-02-20T12:06:43.507Z</time>
      </trkpt>
      <trkpt lat="43.57133" lon="2.99086">
        <ele>226.4</ele>
        <time>2014-02-20T12:06:44.508Z</time>
      </trkpt>
      <trkpt lat="43.5713" lon="2.9908">
        <ele>226.6</ele>
        <time>2014-02-20T12:06:45.511Z</time>
      </trkpt>
      <trkpt lat="43.57127" lon="2.99074">
        <ele>227.7</ele>
        <time>2014-02-20T12:06:46.509Z</time>
      </trkpt>
      <trkpt lat="43.57124" lon="2.99067">
        <ele>227.9</ele>
        <time>2014-02-20T12:06:47.506Z</time>
      </trkpt>
      <trkpt lat="43.57122" lon="2.9906">
        <ele>228.7</ele>
        <time>2014-02-20T12:06:48.506Z</time>
      </trkpt>
      <trkpt lat="43.5712" lon="2.99054">
        <ele>229.4</ele>
        <time>2014-02-20T12:06:49.503Z</time>
      </trkpt>
      <trkpt lat="43.57117" lon="2.99047">
        <ele>230.2</ele>
        <time>2014-02-20T12:06:50.620Z</time>
      </trkpt>
      <trkpt lat="43.57115" lon="2.99041">
        <ele>230.1</ele>
        <time>2014-02-20T12:06:51.508Z</time>
      </trkpt>
      <trkpt lat="43.57113" lon="2.99034">
        <ele>229.9</ele>
        <time>2014-02-20T12:06:52.506Z</time>
      </trkpt>
      <trkpt lat="43.57111" lon="2.99027">
        <ele>229.5</ele>
        <time>2014-02-20T12:06:53.507Z</time>
      </trkpt>
      <trkpt lat="43.5711" lon="2.99018">
        <ele>228.6</ele>
        <time>2014-02-20T12:06:54.507Z</time>
      </trkpt>
      <trkpt lat="43.57109" lon="2.9901">
        <ele>228.7</ele>
        <time>2014-02-20T12:06:55.505Z</time>
      </trkpt>
      <trkpt lat="43.57107" lon="2.99002">
        <ele>228.7</ele>
        <time>2014-02-20T12:06:56.506Z</time>
      </trkpt>
      <trkpt lat="43.57106" lon="2.98996">
        <ele>228.7</ele>
        <time>2014-02-20T12:06:57.510Z</time>
      </trkpt>
      <trkpt lat="43.57104" lon="2.9899">
        <ele>228.4</ele>
        <time>2014-02-20T12:06:58.504Z</time>
      </trkpt>
      <trkpt lat="43.57101" lon="2.98985">
        <ele>228.2</ele>
        <time>2014-02-20T12:06:59.506Z</time>
      </trkpt>
      <trkpt lat="43.57098" lon="2.98978">
        <ele>228.4</ele>
        <time>2014-02-20T12:07:00.547Z</time>
      </trkpt>
      <trkpt lat="43.57095" lon="2.98972">
        <ele>228.3</ele>
        <time>2014-02-20T12:07:01.538Z</time>
      </trkpt>
      <trkpt lat="43.57092" lon="2.98967">
        <ele>227.8</ele>
        <time>2014-02-20T12:07:02.506Z</time>
      </trkpt>
      <trkpt lat="43.57089" lon="2.98961">
        <ele>227.7</ele>
        <time>2014-02-20T12:07:03.505Z</time>
      </trkpt>
      <trkpt lat="43.57087" lon="2.98956">
        <ele>228.1</ele>
        <time>2014-02-20T12:07:04.502Z</time>
      </trkpt>
      <trkpt lat="43.57082" lon="2.98947">
        <ele>228.5</ele>
        <time>2014-02-20T12:07:06.507Z</time>
      </trkpt>
      <trkpt lat="43.57079" lon="2.98943">
        <ele>228.5</ele>
        <time>2014-02-20T12:07:07.504Z</time>
      </trkpt>
      <trkpt lat="43.57077" lon="2.98938">
        <ele>228.7</ele>
        <time>2014-02-20T12:07:08.506Z</time>
      </trkpt>
      <trkpt lat="43.57074" lon="2.98933">
        <ele>228.6</ele>
        <time>2014-02-20T12:07:09.509Z</time>
      </trkpt>
      <trkpt lat="43.5707" lon="2.98928">
        <ele>228.3</ele>
        <time>2014-02-20T12:07:10.500Z</time>
      </trkpt>
      <trkpt lat="43.57067" lon="2.98923">
        <ele>227.3</ele>
        <time>2014-02-20T12:07:11.500Z</time>
      </trkpt>
      <trkpt lat="43.57063" lon="2.98919">
        <ele>227.2</ele>
        <time>2014-02-20T12:07:12.501Z</time>
      </trkpt>
      <trkpt lat="43.5706" lon="2.98913">
        <ele>226.8</ele>
        <time>2014-02-20T12:07:13.500Z</time>
      </trkpt>
      <trkpt lat="43.57055" lon="2.98907">
        <ele>226.9</ele>
        <time>2014-02-20T12:07:14.500Z</time>
      </trkpt>
      <trkpt lat="43.5705" lon="2.98902">
        <ele>227.5</ele>
        <time>2014-02-20T12:07:15.505Z</time>
      </trkpt>
      <trkpt lat="43.57045" lon="2.98896">
        <ele>227.6</ele>
        <time>2014-02-20T12:07:16.499Z</time>
      </trkpt>
      <trkpt lat="43.5704" lon="2.98891">
        <ele>227.6</ele>
        <time>2014-02-20T12:07:17.500Z</time>
      </trkpt>
      <trkpt lat="43.57036" lon="2.98885">
        <ele>227.8</ele>
        <time>2014-02-20T12:07:18.499Z</time>
      </trkpt>
      <trkpt lat="43.57032" lon="2.9888">
        <ele>228.5</ele>
        <time>2014-02-20T12:07:19.498Z</time>
      </trkpt>
      <trkpt lat="43.57029" lon="2.98875">
        <ele>228.8</ele>
        <time>2014-02-20T12:07:20.501Z</time>
      </trkpt>
      <trkpt lat="43.57026" lon="2.9887">
        <ele>228.3</ele>
        <time>2014-02-20T12:07:21.501Z</time>
      </trkpt>
      <trkpt lat="43.57019" lon="2.98862">
        <ele>228.2</ele>
        <time>2014-02-20T12:07:23.502Z</time>
      </trkpt>
      <trkpt lat="43.57016" lon="2.98857">
        <ele>228.1</ele>
        <time>2014-02-20T12:07:24.502Z</time>
      </trkpt>
      <trkpt lat="43.57011" lon="2.98847">
        <ele>228.4</ele>
        <time>2014-02-20T12:07:26.500Z</time>
      </trkpt>
      <trkpt lat="43.57008" lon="2.98842">
        <ele>228.1</ele>
        <time>2014-02-20T12:07:27.500Z</time>
      </trkpt>
      <trkpt lat="43.57004" lon="2.98836">
        <ele>228.4</ele>
        <time>2014-02-20T12:07:28.500Z</time>
      </trkpt>
      <trkpt lat="43.57001" lon="2.98831">
        <ele>228.1</ele>
        <time>2014-02-20T12:07:29.501Z</time>
      </trkpt>
      <trkpt lat="43.56997" lon="2.98827">
        <ele>227.8</ele>
        <time>2014-02-20T12:07:30.503Z</time>
      </trkpt>
      <trkpt lat="43.56994" lon="2.98822">
        <ele>227.9</ele>
        <time>2014-02-20T12:07:31.499Z</time>
      </trkpt>
      <trkpt lat="43.56987" lon="2.98816">
        <ele>228</ele>
        <time>2014-02-20T12:07:33.502Z</time>
      </trkpt>
      <trkpt lat="43.56984" lon="2.98812">
        <ele>228.2</ele>
        <time>2014-02-20T12:07:34.500Z</time>
      </trkpt>
      <trkpt lat="43.5698" lon="2.98808">
        <ele>228</ele>
        <time>2014-02-20T12:07:35.501Z</time>
      </trkpt>
      <trkpt lat="43.56976" lon="2.98805">
        <ele>228.7</ele>
        <time>2014-02-20T12:07:36.500Z</time>
      </trkpt>
      <trkpt lat="43.56972" lon="2.98801">
        <ele>228.8</ele>
        <time>2014-02-20T12:07:37.499Z</time>
      </trkpt>
      <trkpt lat="43.56967" lon="2.98798">
        <ele>228.4</ele>
        <time>2014-02-20T12:07:38.500Z</time>
      </trkpt>
      <trkpt lat="43.56959" lon="2.98793">
        <ele>227.4</ele>
        <time>2014-02-20T12:07:40.499Z</time>
      </trkpt>
      <trkpt lat="43.56956" lon="2.98789">
        <ele>227.8</ele>
        <time>2014-02-20T12:07:41.501Z</time>
      </trkpt>
      <trkpt lat="43.56952" lon="2.98784">
        <ele>227.8</ele>
        <time>2014-02-20T12:07:42.502Z</time>
      </trkpt>
      <trkpt lat="43.56948" lon="2.9878">
        <ele>227.8</ele>
        <time>2014-02-20T12:07:43.499Z</time>
      </trkpt>
      <trkpt lat="43.56944" lon="2.98777">
        <ele>228.2</ele>
        <time>2014-02-20T12:07:44.500Z</time>
      </trkpt>
      <trkpt lat="43.56939" lon="2.98774">
        <ele>228.1</ele>
        <time>2014-02-20T12:07:45.500Z</time>
      </trkpt>
      <trkpt lat="43.56935" lon="2.98771">
        <ele>229.5</ele>
        <time>2014-02-20T12:07:46.500Z</time>
      </trkpt>
      <trkpt lat="43.56931" lon="2.98766">
        <ele>230.1</ele>
        <time>2014-02-20T12:07:47.529Z</time>
      </trkpt>
      <trkpt lat="43.56927" lon="2.98758">
        <ele>231.5</ele>
        <time>2014-02-20T12:07:48.502Z</time>
      </trkpt>
      <trkpt lat="43.56923" lon="2.98753">
        <ele>232.3</ele>
        <time>2014-02-20T12:07:49.499Z</time>
      </trkpt>
      <trkpt lat="43.5692" lon="2.98746">
        <ele>233.1</ele>
        <time>2014-02-20T12:07:50.504Z</time>
      </trkpt>
      <trkpt lat="43.56917" lon="2.98741">
        <ele>233.3</ele>
        <time>2014-02-20T12:07:51.500Z</time>
      </trkpt>
      <trkpt lat="43.56911" lon="2.98732">
        <ele>233.2</ele>
        <time>2014-02-20T12:07:53.504Z</time>
      </trkpt>
      <trkpt lat="43.56909" lon="2.98728">
        <ele>233</ele>
        <time>2014-02-20T12:07:54.497Z</time>
      </trkpt>
      <trkpt lat="43.56903" lon="2.98721">
        <ele>233</ele>
        <time>2014-02-20T12:07:56.514Z</time>
      </trkpt>
      <trkpt lat="43.56818" lon="2.9838">
        <ele>231.8</ele>
        <time>2014-02-20T12:08:44.511Z</time>
      </trkpt>
      <trkpt lat="43.5682" lon="2.98373">
        <ele>232.2</ele>
        <time>2014-02-20T12:08:45.504Z</time>
      </trkpt>
      <trkpt lat="43.56821" lon="2.98367">
        <ele>232.1</ele>
        <time>2014-02-20T12:08:46.529Z</time>
      </trkpt>
      <trkpt lat="43.56822" lon="2.98355">
        <ele>233.2</ele>
        <time>2014-02-20T12:08:48.566Z</time>
      </trkpt>
      <trkpt lat="43.56822" lon="2.98349">
        <ele>232.4</ele>
        <time>2014-02-20T12:08:49.506Z</time>
      </trkpt>
      <trkpt lat="43.56823" lon="2.98343">
        <ele>231.8</ele>
        <time>2014-02-20T12:08:50.520Z</time>
      </trkpt>
      <trkpt lat="43.56825" lon="2.98335">
        <ele>231</ele>
        <time>2014-02-20T12:08:51.503Z</time>
      </trkpt>
      <trkpt lat="43.56827" lon="2.98324">
        <ele>232.2</ele>
        <time>2014-02-20T12:08:52.501Z</time>
      </trkpt>
      <trkpt lat="43.5683" lon="2.98314">
        <ele>231.5</ele>
        <time>2014-02-20T12:08:53.527Z</time>
      </trkpt>
      <trkpt lat="43.56832" lon="2.98305">
        <ele>228.8</ele>
        <time>2014-02-20T12:08:54.506Z</time>
      </trkpt>
      <trkpt lat="43.56835" lon="2.98297">
        <ele>229.2</ele>
        <time>2014-02-20T12:08:56.021Z</time>
      </trkpt>
      <trkpt lat="43.56836" lon="2.98285">
        <ele>228.3</ele>
        <time>2014-02-20T12:08:58.544Z</time>
      </trkpt>
      <trkpt lat="43.56836" lon="2.9828">
        <ele>227</ele>
        <time>2014-02-20T12:08:59.501Z</time>
      </trkpt>
      <trkpt lat="43.56836" lon="2.98273">
        <ele>225.8</ele>
        <time>2014-02-20T12:09:00.501Z</time>
      </trkpt>
      <trkpt lat="43.56837" lon="2.98266">
        <ele>224.2</ele>
        <time>2014-02-20T12:09:01.499Z</time>
      </trkpt>
      <trkpt lat="43.56838" lon="2.98255">
        <ele>222.4</ele>
        <time>2014-02-20T12:09:03.578Z</time>
      </trkpt>
      <trkpt lat="43.56839" lon="2.9825">
        <ele>222.7</ele>
        <time>2014-02-20T12:09:04.502Z</time>
      </trkpt>
      <trkpt lat="43.56841" lon="2.98242">
        <ele>223.4</ele>
        <time>2014-02-20T12:09:06.502Z</time>
      </trkpt>
      <trkpt lat="43.56843" lon="2.98238">
        <ele>223.8</ele>
        <time>2014-02-20T12:09:07.500Z</time>
      </trkpt>
      <trkpt lat="43.56846" lon="2.98228">
        <ele>223.9</ele>
        <time>2014-02-20T12:09:09.502Z</time>
      </trkpt>
      <trkpt lat="43.56847" lon="2.98223">
        <ele>223.8</ele>
        <time>2014-02-20T12:09:10.499Z</time>
      </trkpt>
      <trkpt lat="43.56849" lon="2.98217">
        <ele>223.1</ele>
        <time>2014-02-20T12:09:11.500Z</time>
      </trkpt>
      <trkpt lat="43.56852" lon="2.98212">
        <ele>220.2</ele>
        <time>2014-02-20T12:09:12.501Z</time>
      </trkpt>
      <trkpt lat="43.56855" lon="2.98206">
        <ele>220</ele>
        <time>2014-02-20T12:09:13.499Z</time>
      </trkpt>
      <trkpt lat="43.56857" lon="2.98201">
        <ele>220</ele>
        <time>2014-02-20T12:09:14.503Z</time>
      </trkpt>
      <trkpt lat="43.56859" lon="2.98196">
        <ele>219.8</ele>
        <time>2014-02-20T12:09:15.502Z</time>
      </trkpt>
      <trkpt lat="43.5686" lon="2.98189">
        <ele>222.8</ele>
        <time>2014-02-20T12:09:18.249Z</time>
      </trkpt>
      <trkpt lat="43.5686" lon="2.98187">
        <ele>223.4</ele>
        <time>2014-02-20T12:09:18.523Z</time>
      </trkpt>
      <trkpt lat="43.56864" lon="2.98171">
        <ele>224.6</ele>
        <time>2014-02-20T12:09:21.602Z</time>
      </trkpt>
      <trkpt lat="43.56866" lon="2.98164">
        <ele>224.1</ele>
        <time>2014-02-20T12:09:22.084Z</time>
      </trkpt>
      <trkpt lat="43.56869" lon="2.98157">
        <ele>225.2</ele>
        <time>2014-02-20T12:09:22.518Z</time>
      </trkpt>
      <trkpt lat="43.56873" lon="2.98147">
        <ele>226.2</ele>
        <time>2014-02-20T12:09:23.508Z</time>
      </trkpt>
      <trkpt lat="43.56875" lon="2.9814">
        <ele>225.8</ele>
        <time>2014-02-20T12:09:24.884Z</time>
      </trkpt>
      <trkpt lat="43.56878" lon="2.98131">
        <ele>227.3</ele>
        <time>2014-02-20T12:09:26.507Z</time>
      </trkpt>
      <trkpt lat="43.5688" lon="2.98127">
        <ele>225.6</ele>
        <time>2014-02-20T12:09:27.506Z</time>
      </trkpt>
      <trkpt lat="43.56883" lon="2.98118">
        <ele>225.8</ele>
        <time>2014-02-20T12:09:29.505Z</time>
      </trkpt>
      <trkpt lat="43.56886" lon="2.98114">
        <ele>225.8</ele>
        <time>2014-02-20T12:09:30.511Z</time>
      </trkpt>
      <trkpt lat="43.56888" lon="2.98108">
        <ele>225.3</ele>
        <time>2014-02-20T12:09:32.630Z</time>
      </trkpt>
      <trkpt lat="43.56891" lon="2.98101">
        <ele>224.2</ele>
        <time>2014-02-20T12:09:34.395Z</time>
      </trkpt>
      <trkpt lat="43.56895" lon="2.98093">
        <ele>223.2</ele>
        <time>2014-02-20T12:09:35.510Z</time>
      </trkpt>
      <trkpt lat="43.56899" lon="2.98088">
        <ele>222.9</ele>
        <time>2014-02-20T12:09:37.548Z</time>
      </trkpt>
      <trkpt lat="43.56904" lon="2.9808">
        <ele>221.7</ele>
        <time>2014-02-20T12:09:39.510Z</time>
      </trkpt>
      <trkpt lat="43.56906" lon="2.98075">
        <ele>221.3</ele>
        <time>2014-02-20T12:09:40.506Z</time>
      </trkpt>
      <trkpt lat="43.56911" lon="2.98065">
        <ele>220.5</ele>
        <time>2014-02-20T12:09:42.527Z</time>
      </trkpt>
      <trkpt lat="43.56913" lon="2.9806">
        <ele>220.6</ele>
        <time>2014-02-20T12:09:43.562Z</time>
      </trkpt>
      <trkpt lat="43.56916" lon="2.98054">
        <ele>220.1</ele>
        <time>2014-02-20T12:09:44.560Z</time>
      </trkpt>
      <trkpt lat="43.56918" lon="2.98048">
        <ele>220.2</ele>
        <time>2014-02-20T12:09:45.507Z</time>
      </trkpt>
      <trkpt lat="43.56921" lon="2.98042">
        <ele>219.9</ele>
        <time>2014-02-20T12:09:46.513Z</time>
      </trkpt>
      <trkpt lat="43.56923" lon="2.98036">
        <ele>220.1</ele>
        <time>2014-02-20T12:09:47.635Z</time>
      </trkpt>
      <trkpt lat="43.56926" lon="2.98031">
        <ele>220.3</ele>
        <time>2014-02-20T12:09:48.516Z</time>
      </trkpt>
      <trkpt lat="43.56927" lon="2.98024">
        <ele>220.2</ele>
        <time>2014-02-20T12:09:49.543Z</time>
      </trkpt>
      <trkpt lat="43.56929" lon="2.98018">
        <ele>220.1</ele>
        <time>2014-02-20T12:09:50.519Z</time>
      </trkpt>
      <trkpt lat="43.5693" lon="2.98011">
        <ele>220</ele>
        <time>2014-02-20T12:09:51.589Z</time>
      </trkpt>
      <trkpt lat="43.56932" lon="2.98005">
        <ele>220</ele>
        <time>2014-02-20T12:09:52.513Z</time>
      </trkpt>
      <trkpt lat="43.56933" lon="2.97997">
        <ele>219.8</ele>
        <time>2014-02-20T12:09:53.611Z</time>
      </trkpt>
      <trkpt lat="43.56935" lon="2.9799">
        <ele>219.8</ele>
        <time>2014-02-20T12:09:54.515Z</time>
      </trkpt>
      <trkpt lat="43.56937" lon="2.97982">
        <ele>219.8</ele>
        <time>2014-02-20T12:09:55.508Z</time>
      </trkpt>
      <trkpt lat="43.56939" lon="2.97975">
        <ele>220</ele>
        <time>2014-02-20T12:09:56.538Z</time>
      </trkpt>
      <trkpt lat="43.56941" lon="2.97968">
        <ele>220</ele>
        <time>2014-02-20T12:09:57.514Z</time>
      </trkpt>
      <trkpt lat="43.56941" lon="2.9796">
        <ele>219.9</ele>
        <time>2014-02-20T12:09:58.506Z</time>
      </trkpt>
      <trkpt lat="43.56943" lon="2.97956">
        <ele>220</ele>
        <time>2014-02-20T12:09:59.509Z</time>
      </trkpt>
      <trkpt lat="43.56946" lon="2.97944">
        <ele>220</ele>
        <time>2014-02-20T12:10:01.505Z</time>
      </trkpt>
      <trkpt lat="43.56947" lon="2.97937">
        <ele>220.1</ele>
        <time>2014-02-20T12:10:02.506Z</time>
      </trkpt>
      <trkpt lat="43.5695" lon="2.97927">
        <ele>219.9</ele>
        <time>2014-02-20T12:10:04.506Z</time>
      </trkpt>
      <trkpt lat="43.56951" lon="2.97919">
        <ele>219</ele>
        <time>2014-02-20T12:10:05.524Z</time>
      </trkpt>
      <trkpt lat="43.56953" lon="2.97908">
        <ele>218.4</ele>
        <time>2014-02-20T12:10:07.506Z</time>
      </trkpt>
      <trkpt lat="43.56953" lon="2.97901">
        <ele>218</ele>
        <time>2014-02-20T12:10:08.517Z</time>
      </trkpt>
      <trkpt lat="43.56953" lon="2.9789">
        <ele>218.3</ele>
        <time>2014-02-20T12:10:10.506Z</time>
      </trkpt>
      <trkpt lat="43.56954" lon="2.97885">
        <ele>217.7</ele>
        <time>2014-02-20T12:10:11.529Z</time>
      </trkpt>
      <trkpt lat="43.56953" lon="2.9788">
        <ele>217</ele>
        <time>2014-02-20T12:10:12.504Z</time>
      </trkpt>
      <trkpt lat="43.56952" lon="2.9787">
        <ele>216.5</ele>
        <time>2014-02-20T12:10:13.504Z</time>
      </trkpt>
      <trkpt lat="43.5695" lon="2.97859">
        <ele>215.8</ele>
        <time>2014-02-20T12:10:14.508Z</time>
      </trkpt>
      <trkpt lat="43.56949" lon="2.97849">
        <ele>214.1</ele>
        <time>2014-02-20T12:10:15.506Z</time>
      </trkpt>
      <trkpt lat="43.56948" lon="2.9784">
        <ele>213.6</ele>
        <time>2014-02-20T12:10:16.648Z</time>
      </trkpt>
      <trkpt lat="43.56947" lon="2.97835">
        <ele>213.7</ele>
        <time>2014-02-20T12:10:17.510Z</time>
      </trkpt>
      <trkpt lat="43.56947" lon="2.97828">
        <ele>213.1</ele>
        <time>2014-02-20T12:10:18.585Z</time>
      </trkpt>
      <trkpt lat="43.56945" lon="2.97821">
        <ele>213.1</ele>
        <time>2014-02-20T12:10:19.504Z</time>
      </trkpt>
      <trkpt lat="43.56944" lon="2.97809">
        <ele>210.1</ele>
        <time>2014-02-20T12:10:21.513Z</time>
      </trkpt>
      <trkpt lat="43.56943" lon="2.97804">
        <ele>209.7</ele>
        <time>2014-02-20T12:10:22.508Z</time>
      </trkpt>
      <trkpt lat="43.5694" lon="2.97792">
        <ele>208.8</ele>
        <time>2014-02-20T12:10:24.509Z</time>
      </trkpt>
      <trkpt lat="43.5694" lon="2.97787">
        <ele>208.5</ele>
        <time>2014-02-20T12:10:25.506Z</time>
      </trkpt>
      <trkpt lat="43.56939" lon="2.97781">
        <ele>209.1</ele>
        <time>2014-02-20T12:10:26.507Z</time>
      </trkpt>
      <trkpt lat="43.56938" lon="2.97774">
        <ele>210.1</ele>
        <time>2014-02-20T12:10:27.543Z</time>
      </trkpt>
      <trkpt lat="43.56936" lon="2.97768">
        <ele>210.8</ele>
        <time>2014-02-20T12:10:28.505Z</time>
      </trkpt>
      <trkpt lat="43.56936" lon="2.97761">
        <ele>211.2</ele>
        <time>2014-02-20T12:10:29.509Z</time>
      </trkpt>
      <trkpt lat="43.56935" lon="2.9775">
        <ele>211.5</ele>
        <time>2014-02-20T12:10:31.506Z</time>
      </trkpt>
      <trkpt lat="43.56934" lon="2.97744">
        <ele>211.7</ele>
        <time>2014-02-20T12:10:32.506Z</time>
      </trkpt>
      <trkpt lat="43.56934" lon="2.97733">
        <ele>212.1</ele>
        <time>2014-02-20T12:10:34.502Z</time>
      </trkpt>
      <trkpt lat="43.56933" lon="2.97727">
        <ele>212</ele>
        <time>2014-02-20T12:10:35.501Z</time>
      </trkpt>
      <trkpt lat="43.56931" lon="2.97715">
        <ele>212</ele>
        <time>2014-02-20T12:10:37.501Z</time>
      </trkpt>
      <trkpt lat="43.56931" lon="2.9771">
        <ele>210.8</ele>
        <time>2014-02-20T12:10:38.501Z</time>
      </trkpt>
      <trkpt lat="43.5693" lon="2.97701">
        <ele>209.1</ele>
        <time>2014-02-20T12:10:40.500Z</time>
      </trkpt>
      <trkpt lat="43.5693" lon="2.97697">
        <ele>209.4</ele>
        <time>2014-02-20T12:10:41.503Z</time>
      </trkpt>
      <trkpt lat="43.56929" lon="2.97685">
        <ele>210.7</ele>
        <time>2014-02-20T12:10:44.503Z</time>
      </trkpt>
      <trkpt lat="43.56928" lon="2.9768">
        <ele>211</ele>
        <time>2014-02-20T12:10:45.501Z</time>
      </trkpt>
      <trkpt lat="43.56926" lon="2.97669">
        <ele>212.1</ele>
        <time>2014-02-20T12:10:47.502Z</time>
      </trkpt>
      <trkpt lat="43.56925" lon="2.97665">
        <ele>212.6</ele>
        <time>2014-02-20T12:10:48.574Z</time>
      </trkpt>
      <trkpt lat="43.56924" lon="2.97656">
        <ele>213.5</ele>
        <time>2014-02-20T12:10:50.502Z</time>
      </trkpt>
      <trkpt lat="43.56923" lon="2.97651">
        <ele>213.7</ele>
        <time>2014-02-20T12:10:51.503Z</time>
      </trkpt>
      <trkpt lat="43.56923" lon="2.97641">
        <ele>214.6</ele>
        <time>2014-02-20T12:10:53.503Z</time>
      </trkpt>
      <trkpt lat="43.56923" lon="2.97636">
        <ele>214.6</ele>
        <time>2014-02-20T12:10:54.501Z</time>
      </trkpt>
      <trkpt lat="43.56924" lon="2.97625">
        <ele>214.9</ele>
        <time>2014-02-20T12:10:56.503Z</time>
      </trkpt>
      <trkpt lat="43.56923" lon="2.9762">
        <ele>215.9</ele>
        <time>2014-02-20T12:10:57.503Z</time>
      </trkpt>
      <trkpt lat="43.56923" lon="2.97608">
        <ele>217.2</ele>
        <time>2014-02-20T12:10:59.507Z</time>
      </trkpt>
      <trkpt lat="43.56923" lon="2.97602">
        <ele>217.6</ele>
        <time>2014-02-20T12:11:00.502Z</time>
      </trkpt>
      <trkpt lat="43.56922" lon="2.97592">
        <ele>219.3</ele>
        <time>2014-02-20T12:11:02.503Z</time>
      </trkpt>
      <trkpt lat="43.56922" lon="2.97587">
        <ele>219.5</ele>
        <time>2014-02-20T12:11:03.565Z</time>
      </trkpt>
      <trkpt lat="43.56922" lon="2.97579">
        <ele>219.3</ele>
        <time>2014-02-20T12:11:05.503Z</time>
      </trkpt>
      <trkpt lat="43.56922" lon="2.97575">
        <ele>219.3</ele>
        <time>2014-02-20T12:11:06.503Z</time>
      </trkpt>
      <trkpt lat="43.56975" lon="2.97381">
        <ele>217.6</ele>
        <time>2014-02-20T12:11:32.517Z</time>
      </trkpt>
      <trkpt lat="43.56979" lon="2.97379">
        <ele>217.7</ele>
        <time>2014-02-20T12:11:33.668Z</time>
      </trkpt>
      <trkpt lat="43.56983" lon="2.97375">
        <ele>216.3</ele>
        <time>2014-02-20T12:11:34.506Z</time>
      </trkpt>
      <trkpt lat="43.56987" lon="2.97372">
        <ele>217.3</ele>
        <time>2014-02-20T12:11:35.508Z</time>
      </trkpt>
      <trkpt lat="43.56991" lon="2.97369">
        <ele>216.8</ele>
        <time>2014-02-20T12:11:36.508Z</time>
      </trkpt>
      <trkpt lat="43.56993" lon="2.97363">
        <ele>216.5</ele>
        <time>2014-02-20T12:11:37.515Z</time>
      </trkpt>
      <trkpt lat="43.56996" lon="2.97357">
        <ele>216.1</ele>
        <time>2014-02-20T12:11:38.506Z</time>
      </trkpt>
      <trkpt lat="43.57002" lon="2.97347">
        <ele>216.4</ele>
        <time>2014-02-20T12:11:40.510Z</time>
      </trkpt>
      <trkpt lat="43.57004" lon="2.97343">
        <ele>216</ele>
        <time>2014-02-20T12:11:41.507Z</time>
      </trkpt>
      <trkpt lat="43.57007" lon="2.97338">
        <ele>216.2</ele>
        <time>2014-02-20T12:11:42.507Z</time>
      </trkpt>
      <trkpt lat="43.57011" lon="2.97334">
        <ele>216.1</ele>
        <time>2014-02-20T12:11:43.502Z</time>
      </trkpt>
      <trkpt lat="43.57015" lon="2.97329">
        <ele>215.7</ele>
        <time>2014-02-20T12:11:44.507Z</time>
      </trkpt>
      <trkpt lat="43.57018" lon="2.97324">
        <ele>217.2</ele>
        <time>2014-02-20T12:11:45.505Z</time>
      </trkpt>
      <trkpt lat="43.57025" lon="2.97317">
        <ele>216.6</ele>
        <time>2014-02-20T12:11:47.511Z</time>
      </trkpt>
      <trkpt lat="43.57029" lon="2.97313">
        <ele>216.5</ele>
        <time>2014-02-20T12:11:48.506Z</time>
      </trkpt>
      <trkpt lat="43.57032" lon="2.97308">
        <ele>216.6</ele>
        <time>2014-02-20T12:11:49.505Z</time>
      </trkpt>
      <trkpt lat="43.57036" lon="2.97302">
        <ele>216.8</ele>
        <time>2014-02-20T12:11:50.506Z</time>
      </trkpt>
      <trkpt lat="43.57039" lon="2.97296">
        <ele>216.4</ele>
        <time>2014-02-20T12:11:51.506Z</time>
      </trkpt>
      <trkpt lat="43.57043" lon="2.97291">
        <ele>215.6</ele>
        <time>2014-02-20T12:11:52.503Z</time>
      </trkpt>
      <trkpt lat="43.57049" lon="2.97282">
        <ele>215.8</ele>
        <time>2014-02-20T12:11:54.504Z</time>
      </trkpt>
      <trkpt lat="43.57052" lon="2.97277">
        <ele>215.9</ele>
        <time>2014-02-20T12:11:55.504Z</time>
      </trkpt>
      <trkpt lat="43.57055" lon="2.97273">
        <ele>216</ele>
        <time>2014-02-20T12:11:56.507Z</time>
      </trkpt>
      <trkpt lat="43.57059" lon="2.97268">
        <ele>215.9</ele>
        <time>2014-02-20T12:11:57.506Z</time>
      </trkpt>
      <trkpt lat="43.57064" lon="2.97258">
        <ele>215.2</ele>
        <time>2014-02-20T12:11:59.506Z</time>
      </trkpt>
      <trkpt lat="43.57066" lon="2.97253">
        <ele>214.4</ele>
        <time>2014-02-20T12:12:00.506Z</time>
      </trkpt>
      <trkpt lat="43.57071" lon="2.97244">
        <ele>214.9</ele>
        <time>2014-02-20T12:12:02.506Z</time>
      </trkpt>
      <trkpt lat="43.57073" lon="2.9724">
        <ele>215.1</ele>
        <time>2014-02-20T12:12:03.510Z</time>
      </trkpt>
      <trkpt lat="43.57079" lon="2.9723">
        <ele>216.3</ele>
        <time>2014-02-20T12:12:05.501Z</time>
      </trkpt>
      <trkpt lat="43.57082" lon="2.97225">
        <ele>216.3</ele>
        <time>2014-02-20T12:12:06.501Z</time>
      </trkpt>
      <trkpt lat="43.57086" lon="2.97222">
        <ele>216.5</ele>
        <time>2014-02-20T12:12:07.499Z</time>
      </trkpt>
      <trkpt lat="43.57089" lon="2.97217">
        <ele>216.4</ele>
        <time>2014-02-20T12:12:08.559Z</time>
      </trkpt>
      <trkpt lat="43.57092" lon="2.97213">
        <ele>216.8</ele>
        <time>2014-02-20T12:12:09.502Z</time>
      </trkpt>
      <trkpt lat="43.57095" lon="2.97207">
        <ele>216.9</ele>
        <time>2014-02-20T12:12:10.501Z</time>
      </trkpt>
      <trkpt lat="43.57099" lon="2.97197">
        <ele>217.5</ele>
        <time>2014-02-20T12:12:12.503Z</time>
      </trkpt>
      <trkpt lat="43.571" lon="2.97192">
        <ele>217.8</ele>
        <time>2014-02-20T12:12:13.502Z</time>
      </trkpt>
      <trkpt lat="43.57102" lon="2.97187">
        <ele>218.1</ele>
        <time>2014-02-20T12:12:14.504Z</time>
      </trkpt>
      <trkpt lat="43.57105" lon="2.9718">
        <ele>212.8</ele>
        <time>2014-02-20T12:12:15.504Z</time>
      </trkpt>
      <trkpt lat="43.57107" lon="2.97174">
        <ele>212.5</ele>
        <time>2014-02-20T12:12:16.500Z</time>
      </trkpt>
      <trkpt lat="43.57109" lon="2.97167">
        <ele>213</ele>
        <time>2014-02-20T12:12:17.503Z</time>
      </trkpt>
      <trkpt lat="43.57111" lon="2.97158">
        <ele>213.4</ele>
        <time>2014-02-20T12:12:19.507Z</time>
      </trkpt>
      <trkpt lat="43.57111" lon="2.97154">
        <ele>213.8</ele>
        <time>2014-02-20T12:12:20.511Z</time>
      </trkpt>
      <trkpt lat="43.57115" lon="2.97143">
        <ele>213.1</ele>
        <time>2014-02-20T12:12:23.519Z</time>
      </trkpt>
      <trkpt lat="43.57116" lon="2.97139">
        <ele>212.8</ele>
        <time>2014-02-20T12:12:24.507Z</time>
      </trkpt>
      <trkpt lat="43.57119" lon="2.97132">
        <ele>211.8</ele>
        <time>2014-02-20T12:12:26.512Z</time>
      </trkpt>
      <trkpt lat="43.57119" lon="2.97127">
        <ele>211.5</ele>
        <time>2014-02-20T12:12:27.508Z</time>
      </trkpt>
      <trkpt lat="43.5712" lon="2.97122">
        <ele>211.4</ele>
        <time>2014-02-20T12:12:28.505Z</time>
      </trkpt>
      <trkpt lat="43.5712" lon="2.97114">
        <ele>211</ele>
        <time>2014-02-20T12:12:29.509Z</time>
      </trkpt>
      <trkpt lat="43.5712" lon="2.97106">
        <ele>210.3</ele>
        <time>2014-02-20T12:12:30.509Z</time>
      </trkpt>
      <trkpt lat="43.57121" lon="2.97098">
        <ele>210.2</ele>
        <time>2014-02-20T12:12:31.504Z</time>
      </trkpt>
      <trkpt lat="43.57121" lon="2.97091">
        <ele>207.3</ele>
        <time>2014-02-20T12:12:32.545Z</time>
      </trkpt>
      <trkpt lat="43.57122" lon="2.97086">
        <ele>205.6</ele>
        <time>2014-02-20T12:12:33.507Z</time>
      </trkpt>
      <trkpt lat="43.57122" lon="2.97075">
        <ele>203.5</ele>
        <time>2014-02-20T12:12:35.509Z</time>
      </trkpt>
      <trkpt lat="43.57122" lon="2.9707">
        <ele>203.8</ele>
        <time>2014-02-20T12:12:36.502Z</time>
      </trkpt>
      <trkpt lat="43.57124" lon="2.97062">
        <ele>203.7</ele>
        <time>2014-02-20T12:12:38.502Z</time>
      </trkpt>
      <trkpt lat="43.57126" lon="2.97058">
        <ele>203.8</ele>
        <time>2014-02-20T12:12:39.499Z</time>
      </trkpt>
      <trkpt lat="43.57127" lon="2.97057">
        <ele>209.7</ele>
        <time>2014-02-20T12:12:47.502Z</time>
      </trkpt>
      <trkpt lat="43.57127" lon="2.97057">
        <ele>209.6</ele>
        <time>2014-02-20T12:12:48.501Z</time>
      </trkpt>
      <trkpt lat="43.57127" lon="2.97056">
        <ele>209.6</ele>
        <time>2014-02-20T12:12:51.501Z</time>
      </trkpt>
      <trkpt lat="43.57127" lon="2.97055">
        <ele>209.8</ele>
        <time>2014-02-20T12:12:52.498Z</time>
      </trkpt>
      <trkpt lat="43.57127" lon="2.97055">
        <ele>210.2</ele>
        <time>2014-02-20T12:12:54.500Z</time>
      </trkpt>
      <trkpt lat="43.57127" lon="2.97055">
        <ele>210.2</ele>
        <time>2014-02-20T12:12:55.496Z</time>
      </trkpt>
      <trkpt lat="43.57126" lon="2.97054">
        <ele>210.5</ele>
        <time>2014-02-20T12:12:59.501Z</time>
      </trkpt>
      <trkpt lat="43.57126" lon="2.97053">
        <ele>211.2</ele>
        <time>2014-02-20T12:13:00.602Z</time>
      </trkpt>
      <trkpt lat="43.57127" lon="2.97042">
        <ele>212.4</ele>
        <time>2014-02-20T12:13:05.499Z</time>
      </trkpt>
      <trkpt lat="43.57128" lon="2.97038">
        <ele>212.2</ele>
        <time>2014-02-20T12:13:06.500Z</time>
      </trkpt>
      <trkpt lat="43.57129" lon="2.97027">
        <ele>213.5</ele>
        <time>2014-02-20T12:13:09.502Z</time>
      </trkpt>
      <trkpt lat="43.57129" lon="2.97024">
        <ele>214.5</ele>
        <time>2014-02-20T12:13:10.500Z</time>
      </trkpt>
      <trkpt lat="43.57129" lon="2.97012">
        <ele>215.7</ele>
        <time>2014-02-20T12:13:13.498Z</time>
      </trkpt>
      <trkpt lat="43.57129" lon="2.97009">
        <ele>217</ele>
        <time>2014-02-20T12:13:14.500Z</time>
      </trkpt>
      <trkpt lat="43.57128" lon="2.96998">
        <ele>217.4</ele>
        <time>2014-02-20T12:13:18.508Z</time>
      </trkpt>
      <trkpt lat="43.57127" lon="2.96995">
        <ele>217.6</ele>
        <time>2014-02-20T12:13:19.556Z</time>
      </trkpt>
      <trkpt lat="43.57126" lon="2.96984">
        <ele>217.2</ele>
        <time>2014-02-20T12:13:23.519Z</time>
      </trkpt>
      <trkpt lat="43.57126" lon="2.96981">
        <ele>216.9</ele>
        <time>2014-02-20T12:13:24.531Z</time>
      </trkpt>
      <trkpt lat="43.57125" lon="2.9697">
        <ele>215.8</ele>
        <time>2014-02-20T12:13:30.510Z</time>
      </trkpt>
      <trkpt lat="43.57124" lon="2.96967">
        <ele>215.5</ele>
        <time>2014-02-20T12:13:31.505Z</time>
      </trkpt>
      <trkpt lat="43.57123" lon="2.9696">
        <ele>216.6</ele>
        <time>2014-02-20T12:13:33.509Z</time>
      </trkpt>
      <trkpt lat="43.57122" lon="2.96955">
        <ele>219.2</ele>
        <time>2014-02-20T12:13:34.507Z</time>
      </trkpt>
      <trkpt lat="43.5712" lon="2.96945">
        <ele>219.1</ele>
        <time>2014-02-20T12:13:36.509Z</time>
      </trkpt>
      <trkpt lat="43.5712" lon="2.96941">
        <ele>218.8</ele>
        <time>2014-02-20T12:13:37.509Z</time>
      </trkpt>
      <trkpt lat="43.57119" lon="2.9693">
        <ele>218.4</ele>
        <time>2014-02-20T12:13:41.511Z</time>
      </trkpt>
      <trkpt lat="43.57118" lon="2.96928">
        <ele>218.5</ele>
        <time>2014-02-20T12:13:42.507Z</time>
      </trkpt>
      <trkpt lat="43.57119" lon="2.96939">
        <ele>218.1</ele>
        <time>2014-02-20T12:13:49.507Z</time>
      </trkpt>
      <trkpt lat="43.5712" lon="2.96941">
        <ele>218.4</ele>
        <time>2014-02-20T12:13:50.506Z</time>
      </trkpt>
      <trkpt lat="43.57123" lon="2.96952">
        <ele>217.3</ele>
        <time>2014-02-20T12:13:56.529Z</time>
      </trkpt>
      <trkpt lat="43.57122" lon="2.96953">
        <ele>217.2</ele>
        <time>2014-02-20T12:13:57.510Z</time>
      </trkpt>
      <trkpt lat="43.57123" lon="2.96965">
        <ele>221.3</ele>
        <time>2014-02-20T12:14:12.507Z</time>
      </trkpt>
      <trkpt lat="43.57123" lon="2.96965">
        <ele>221.4</ele>
        <time>2014-02-20T12:14:13.520Z</time>
      </trkpt>
      <trkpt lat="43.57123" lon="2.96963">
        <ele>221.2</ele>
        <time>2014-02-20T12:14:33.502Z</time>
      </trkpt>
      <trkpt lat="43.57122" lon="2.96962">
        <ele>221</ele>
        <time>2014-02-20T12:14:34.501Z</time>
      </trkpt>
      <trkpt lat="43.5712" lon="2.96958">
        <ele>220.6</ele>
        <time>2014-02-20T12:14:39.502Z</time>
      </trkpt>
      <trkpt lat="43.57121" lon="2.96958">
        <ele>221.4</ele>
        <time>2014-02-20T12:14:40.499Z</time>
      </trkpt>
      <trkpt lat="43.57121" lon="2.96957">
        <ele>222.1</ele>
        <time>2014-02-20T12:16:02.521Z</time>
      </trkpt>
      <trkpt lat="43.57121" lon="2.96956">
        <ele>222.2</ele>
        <time>2014-02-20T12:16:03.509Z</time>
      </trkpt>
      <trkpt lat="43.5712" lon="2.96946">
        <ele>222.3</ele>
        <time>2014-02-20T12:16:05.515Z</time>
      </trkpt>
      <trkpt lat="43.57119" lon="2.96942">
        <ele>222</ele>
        <time>2014-02-20T12:16:06.512Z</time>
      </trkpt>
      <trkpt lat="43.57116" lon="2.96933">
        <ele>221.2</ele>
        <time>2014-02-20T12:16:08.551Z</time>
      </trkpt>
      <trkpt lat="43.57115" lon="2.96928">
        <ele>221.1</ele>
        <time>2014-02-20T12:16:09.530Z</time>
      </trkpt>
      <trkpt lat="43.57112" lon="2.96918">
        <ele>221.3</ele>
        <time>2014-02-20T12:16:11.516Z</time>
      </trkpt>
      <trkpt lat="43.5711" lon="2.96912">
        <ele>221.4</ele>
        <time>2014-02-20T12:16:12.517Z</time>
      </trkpt>
      <trkpt lat="43.57108" lon="2.96905">
        <ele>222</ele>
        <time>2014-02-20T12:16:14.519Z</time>
      </trkpt>
      <trkpt lat="43.57107" lon="2.96901">
        <ele>221.5</ele>
        <time>2014-02-20T12:16:15.524Z</time>
      </trkpt>
      <trkpt lat="43.57104" lon="2.96891">
        <ele>221.3</ele>
        <time>2014-02-20T12:16:17.514Z</time>
      </trkpt>
      <trkpt lat="43.57101" lon="2.96885">
        <ele>221</ele>
        <time>2014-02-20T12:16:18.511Z</time>
      </trkpt>
      <trkpt lat="43.57098" lon="2.96876">
        <ele>220.9</ele>
        <time>2014-02-20T12:16:20.513Z</time>
      </trkpt>
      <trkpt lat="43.57096" lon="2.96872">
        <ele>221</ele>
        <time>2014-02-20T12:16:21.511Z</time>
      </trkpt>
      <trkpt lat="43.57095" lon="2.96867">
        <ele>221.2</ele>
        <time>2014-02-20T12:16:22.504Z</time>
      </trkpt>
      <trkpt lat="43.57092" lon="2.9686">
        <ele>221.4</ele>
        <time>2014-02-20T12:16:23.515Z</time>
      </trkpt>
      <trkpt lat="43.5709" lon="2.96854">
        <ele>221.1</ele>
        <time>2014-02-20T12:16:24.514Z</time>
      </trkpt>
      <trkpt lat="43.57088" lon="2.96849">
        <ele>221.4</ele>
        <time>2014-02-20T12:16:25.505Z</time>
      </trkpt>
      <trkpt lat="43.57083" lon="2.9684">
        <ele>221.3</ele>
        <time>2014-02-20T12:16:27.509Z</time>
      </trkpt>
      <trkpt lat="43.57081" lon="2.96834">
        <ele>220.8</ele>
        <time>2014-02-20T12:16:28.577Z</time>
      </trkpt>
      <trkpt lat="43.57077" lon="2.96824">
        <ele>221.5</ele>
        <time>2014-02-20T12:16:30.510Z</time>
      </trkpt>
      <trkpt lat="43.57075" lon="2.96819">
        <ele>221.5</ele>
        <time>2014-02-20T12:16:31.505Z</time>
      </trkpt>
      <trkpt lat="43.5707" lon="2.9681">
        <ele>221.9</ele>
        <time>2014-02-20T12:16:33.508Z</time>
      </trkpt>
      <trkpt lat="43.57068" lon="2.96806">
        <ele>222.6</ele>
        <time>2014-02-20T12:16:34.505Z</time>
      </trkpt>
      <trkpt lat="43.57064" lon="2.96797">
        <ele>223.8</ele>
        <time>2014-02-20T12:16:36.509Z</time>
      </trkpt>
      <trkpt lat="43.57061" lon="2.96793">
        <ele>224.1</ele>
        <time>2014-02-20T12:16:37.507Z</time>
      </trkpt>
      <trkpt lat="43.57056" lon="2.96788">
        <ele>224.5</ele>
        <time>2014-02-20T12:16:39.509Z</time>
      </trkpt>
      <trkpt lat="43.57053" lon="2.96785">
        <ele>224.4</ele>
        <time>2014-02-20T12:16:40.503Z</time>
      </trkpt>
      <trkpt lat="43.57047" lon="2.96775">
        <ele>223.9</ele>
        <time>2014-02-20T12:16:42.510Z</time>
      </trkpt>
      <trkpt lat="43.57043" lon="2.96771">
        <ele>224.4</ele>
        <time>2014-02-20T12:16:43.506Z</time>
      </trkpt>
      <trkpt lat="43.57039" lon="2.96767">
        <ele>224.2</ele>
        <time>2014-02-20T12:16:44.508Z</time>
      </trkpt>
      <trkpt lat="43.57035" lon="2.96762">
        <ele>223.8</ele>
        <time>2014-02-20T12:16:45.545Z</time>
      </trkpt>
      <trkpt lat="43.57031" lon="2.96757">
        <ele>223.7</ele>
        <time>2014-02-20T12:16:46.503Z</time>
      </trkpt>
      <trkpt lat="43.57028" lon="2.96752">
        <ele>223.7</ele>
        <time>2014-02-20T12:16:47.506Z</time>
      </trkpt>
      <trkpt lat="43.57024" lon="2.96749">
        <ele>223.8</ele>
        <time>2014-02-20T12:16:48.509Z</time>
      </trkpt>
      <trkpt lat="43.57021" lon="2.96744">
        <ele>224.1</ele>
        <time>2014-02-20T12:16:49.502Z</time>
      </trkpt>
      <trkpt lat="43.57017" lon="2.9674">
        <ele>224.2</ele>
        <time>2014-02-20T12:16:50.507Z</time>
      </trkpt>
      <trkpt lat="43.57013" lon="2.96736">
        <ele>224.2</ele>
        <time>2014-02-20T12:16:51.508Z</time>
      </trkpt>
      <trkpt lat="43.57007" lon="2.96728">
        <ele>224</ele>
        <time>2014-02-20T12:16:53.508Z</time>
      </trkpt>
      <trkpt lat="43.57004" lon="2.96724">
        <ele>223.8</ele>
        <time>2014-02-20T12:16:54.508Z</time>
      </trkpt>
      <trkpt lat="43.57001" lon="2.9672">
        <ele>223.5</ele>
        <time>2014-02-20T12:16:55.505Z</time>
      </trkpt>
      <trkpt lat="43.56996" lon="2.96717">
        <ele>223.3</ele>
        <time>2014-02-20T12:16:56.512Z</time>
      </trkpt>
      <trkpt lat="43.56991" lon="2.96714">
        <ele>223.3</ele>
        <time>2014-02-20T12:16:57.509Z</time>
      </trkpt>
      <trkpt lat="43.56988" lon="2.9671">
        <ele>224.4</ele>
        <time>2014-02-20T12:16:58.553Z</time>
      </trkpt>
      <trkpt lat="43.56983" lon="2.96707">
        <ele>223.7</ele>
        <time>2014-02-20T12:16:59.500Z</time>
      </trkpt>
      <trkpt lat="43.56979" lon="2.96703">
        <ele>224.1</ele>
        <time>2014-02-20T12:17:00.508Z</time>
      </trkpt>
      <trkpt lat="43.56975" lon="2.96698">
        <ele>223.6</ele>
        <time>2014-02-20T12:17:01.499Z</time>
      </trkpt>
      <trkpt lat="43.5697" lon="2.96694">
        <ele>223.9</ele>
        <time>2014-02-20T12:17:02.501Z</time>
      </trkpt>
      <trkpt lat="43.56964" lon="2.96686">
        <ele>224.5</ele>
        <time>2014-02-20T12:17:04.500Z</time>
      </trkpt>
      <trkpt lat="43.5696" lon="2.96682">
        <ele>224.1</ele>
        <time>2014-02-20T12:17:05.504Z</time>
      </trkpt>
      <trkpt lat="43.56954" lon="2.96675">
        <ele>224.1</ele>
        <time>2014-02-20T12:17:07.499Z</time>
      </trkpt>
      <trkpt lat="43.56951" lon="2.96672">
        <ele>224.1</ele>
        <time>2014-02-20T12:17:08.506Z</time>
      </trkpt>
      <trkpt lat="43.56945" lon="2.96664">
        <ele>224.4</ele>
        <time>2014-02-20T12:17:10.502Z</time>
      </trkpt>
      <trkpt lat="43.56943" lon="2.96659">
        <ele>224.1</ele>
        <time>2014-02-20T12:17:11.506Z</time>
      </trkpt>
      <trkpt lat="43.56941" lon="2.96653">
        <ele>224.7</ele>
        <time>2014-02-20T12:17:12.502Z</time>
      </trkpt>
      <trkpt lat="43.56938" lon="2.96646">
        <ele>222.2</ele>
        <time>2014-02-20T12:17:13.500Z</time>
      </trkpt>
      <trkpt lat="43.56935" lon="2.96639">
        <ele>221.7</ele>
        <time>2014-02-20T12:17:14.503Z</time>
      </trkpt>
      <trkpt lat="43.56932" lon="2.96634">
        <ele>222.3</ele>
        <time>2014-02-20T12:17:15.503Z</time>
      </trkpt>
      <trkpt lat="43.56926" lon="2.96626">
        <ele>222.1</ele>
        <time>2014-02-20T12:17:17.503Z</time>
      </trkpt>
      <trkpt lat="43.56923" lon="2.96623">
        <ele>221.7</ele>
        <time>2014-02-20T12:17:18.503Z</time>
      </trkpt>
      <trkpt lat="43.56916" lon="2.96618">
        <ele>223.1</ele>
        <time>2014-02-20T12:17:20.505Z</time>
      </trkpt>
      <trkpt lat="43.56913" lon="2.96614">
        <ele>223.2</ele>
        <time>2014-02-20T12:17:21.504Z</time>
      </trkpt>
      <trkpt lat="43.56909" lon="2.96612">
        <ele>222.7</ele>
        <time>2014-02-20T12:17:22.508Z</time>
      </trkpt>
      <trkpt lat="43.56904" lon="2.96609">
        <ele>223.2</ele>
        <time>2014-02-20T12:17:23.509Z</time>
      </trkpt>
      <trkpt lat="43.569" lon="2.96605">
        <ele>223.1</ele>
        <time>2014-02-20T12:17:24.552Z</time>
      </trkpt>
      <trkpt lat="43.56897" lon="2.96601">
        <ele>223.5</ele>
        <time>2014-02-20T12:17:25.507Z</time>
      </trkpt>
      <trkpt lat="43.5689" lon="2.96593">
        <ele>223.6</ele>
        <time>2014-02-20T12:17:27.546Z</time>
      </trkpt>
      <trkpt lat="43.56887" lon="2.9659">
        <ele>224.1</ele>
        <time>2014-02-20T12:17:28.509Z</time>
      </trkpt>
      <trkpt lat="43.56885" lon="2.96585">
        <ele>223.9</ele>
        <time>2014-02-20T12:17:29.510Z</time>
      </trkpt>
      <trkpt lat="43.56881" lon="2.96579">
        <ele>224.2</ele>
        <time>2014-02-20T12:17:30.509Z</time>
      </trkpt>
      <trkpt lat="43.56879" lon="2.96573">
        <ele>223.8</ele>
        <time>2014-02-20T12:17:31.502Z</time>
      </trkpt>
      <trkpt lat="43.56876" lon="2.96567">
        <ele>223.6</ele>
        <time>2014-02-20T12:17:32.512Z</time>
      </trkpt>
      <trkpt lat="43.56873" lon="2.96561">
        <ele>223.6</ele>
        <time>2014-02-20T12:17:33.512Z</time>
      </trkpt>
      <trkpt lat="43.56869" lon="2.96555">
        <ele>223.7</ele>
        <time>2014-02-20T12:17:34.506Z</time>
      </trkpt>
      <trkpt lat="43.56865" lon="2.9655">
        <ele>223.6</ele>
        <time>2014-02-20T12:17:35.510Z</time>
      </trkpt>
      <trkpt lat="43.56861" lon="2.96545">
        <ele>223.8</ele>
        <time>2014-02-20T12:17:36.511Z</time>
      </trkpt>
      <trkpt lat="43.56857" lon="2.96539">
        <ele>224.4</ele>
        <time>2014-02-20T12:17:37.505Z</time>
      </trkpt>
      <trkpt lat="43.56853" lon="2.96534">
        <ele>224.8</ele>
        <time>2014-02-20T12:17:38.507Z</time>
      </trkpt>
      <trkpt lat="43.5685" lon="2.96527">
        <ele>224.9</ele>
        <time>2014-02-20T12:17:39.507Z</time>
      </trkpt>
      <trkpt lat="43.56847" lon="2.96519">
        <ele>225</ele>
        <time>2014-02-20T12:17:40.502Z</time>
      </trkpt>
      <trkpt lat="43.56844" lon="2.96512">
        <ele>227.8</ele>
        <time>2014-02-20T12:17:41.516Z</time>
      </trkpt>
      <trkpt lat="43.56841" lon="2.96503">
        <ele>228.7</ele>
        <time>2014-02-20T12:17:42.516Z</time>
      </trkpt>
      <trkpt lat="43.56839" lon="2.96497">
        <ele>228.8</ele>
        <time>2014-02-20T12:17:43.497Z</time>
      </trkpt>
      <trkpt lat="43.56836" lon="2.9649">
        <ele>227.5</ele>
        <time>2014-02-20T12:17:44.502Z</time>
      </trkpt>
      <trkpt lat="43.56833" lon="2.96485">
        <ele>227.6</ele>
        <time>2014-02-20T12:17:45.500Z</time>
      </trkpt>
      <trkpt lat="43.56829" lon="2.96479">
        <ele>228</ele>
        <time>2014-02-20T12:17:46.498Z</time>
      </trkpt>
      <trkpt lat="43.56826" lon="2.96474">
        <ele>229.4</ele>
        <time>2014-02-20T12:17:47.503Z</time>
      </trkpt>
      <trkpt lat="43.56824" lon="2.96468">
        <ele>230.2</ele>
        <time>2014-02-20T12:17:48.500Z</time>
      </trkpt>
      <trkpt lat="43.56822" lon="2.96461">
        <ele>227.7</ele>
        <time>2014-02-20T12:17:49.499Z</time>
      </trkpt>
      <trkpt lat="43.56821" lon="2.96452">
        <ele>227.9</ele>
        <time>2014-02-20T12:17:50.501Z</time>
      </trkpt>
      <trkpt lat="43.56819" lon="2.96444">
        <ele>227.6</ele>
        <time>2014-02-20T12:17:51.500Z</time>
      </trkpt>
      <trkpt lat="43.56817" lon="2.96437">
        <ele>229.9</ele>
        <time>2014-02-20T12:17:52.498Z</time>
      </trkpt>
      <trkpt lat="43.56814" lon="2.9643">
        <ele>230.9</ele>
        <time>2014-02-20T12:17:53.501Z</time>
      </trkpt>
      <trkpt lat="43.56811" lon="2.96423">
        <ele>231.7</ele>
        <time>2014-02-20T12:17:54.500Z</time>
      </trkpt>
      <trkpt lat="43.56807" lon="2.96417">
        <ele>232</ele>
        <time>2014-02-20T12:17:55.504Z</time>
      </trkpt>
      <trkpt lat="43.56804" lon="2.9641">
        <ele>232.8</ele>
        <time>2014-02-20T12:17:56.503Z</time>
      </trkpt>
      <trkpt lat="43.56801" lon="2.96403">
        <ele>233.2</ele>
        <time>2014-02-20T12:17:57.499Z</time>
      </trkpt>
      <trkpt lat="43.56798" lon="2.96396">
        <ele>232.9</ele>
        <time>2014-02-20T12:17:58.611Z</time>
      </trkpt>
      <trkpt lat="43.56796" lon="2.9639">
        <ele>233.9</ele>
        <time>2014-02-20T12:17:59.501Z</time>
      </trkpt>
      <trkpt lat="43.56793" lon="2.96383">
        <ele>234</ele>
        <time>2014-02-20T12:18:00.499Z</time>
      </trkpt>
      <trkpt lat="43.56791" lon="2.96377">
        <ele>233.2</ele>
        <time>2014-02-20T12:18:01.498Z</time>
      </trkpt>
      <trkpt lat="43.56789" lon="2.96371">
        <ele>232.8</ele>
        <time>2014-02-20T12:18:02.503Z</time>
      </trkpt>
      <trkpt lat="43.56786" lon="2.96364">
        <ele>232.9</ele>
        <time>2014-02-20T12:18:03.572Z</time>
      </trkpt>
      <trkpt lat="43.56784" lon="2.96358">
        <ele>233.1</ele>
        <time>2014-02-20T12:18:04.503Z</time>
      </trkpt>
      <trkpt lat="43.56781" lon="2.96352">
        <ele>233</ele>
        <time>2014-02-20T12:18:05.501Z</time>
      </trkpt>
      <trkpt lat="43.56778" lon="2.96345">
        <ele>233.7</ele>
        <time>2014-02-20T12:18:06.501Z</time>
      </trkpt>
      <trkpt lat="43.56776" lon="2.96339">
        <ele>234.1</ele>
        <time>2014-02-20T12:18:07.501Z</time>
      </trkpt>
      <trkpt lat="43.56773" lon="2.96334">
        <ele>234</ele>
        <time>2014-02-20T12:18:08.538Z</time>
      </trkpt>
      <trkpt lat="43.5677" lon="2.96328">
        <ele>233.4</ele>
        <time>2014-02-20T12:18:09.500Z</time>
      </trkpt>
      <trkpt lat="43.56767" lon="2.9632">
        <ele>233.8</ele>
        <time>2014-02-20T12:18:10.501Z</time>
      </trkpt>
      <trkpt lat="43.56764" lon="2.96313">
        <ele>234.7</ele>
        <time>2014-02-20T12:18:11.503Z</time>
      </trkpt>
      <trkpt lat="43.56761" lon="2.96307">
        <ele>234.7</ele>
        <time>2014-02-20T12:18:12.502Z</time>
      </trkpt>
      <trkpt lat="43.56755" lon="2.96298">
        <ele>234.1</ele>
        <time>2014-02-20T12:18:14.505Z</time>
      </trkpt>
      <trkpt lat="43.56752" lon="2.96293">
        <ele>234.4</ele>
        <time>2014-02-20T12:18:15.501Z</time>
      </trkpt>
      <trkpt lat="43.56749" lon="2.96285">
        <ele>237.6</ele>
        <time>2014-02-20T12:18:16.686Z</time>
      </trkpt>
      <trkpt lat="43.56747" lon="2.96278">
        <ele>238.2</ele>
        <time>2014-02-20T12:18:17.502Z</time>
      </trkpt>
      <trkpt lat="43.56744" lon="2.96271">
        <ele>238.6</ele>
        <time>2014-02-20T12:18:18.500Z</time>
      </trkpt>
      <trkpt lat="43.56742" lon="2.96263">
        <ele>239.2</ele>
        <time>2014-02-20T12:18:19.498Z</time>
      </trkpt>
      <trkpt lat="43.5674" lon="2.96257">
        <ele>239.5</ele>
        <time>2014-02-20T12:18:20.500Z</time>
      </trkpt>
      <trkpt lat="43.56737" lon="2.96251">
        <ele>240</ele>
        <time>2014-02-20T12:18:21.500Z</time>
      </trkpt>
      <trkpt lat="43.56735" lon="2.96243">
        <ele>240.8</ele>
        <time>2014-02-20T12:18:22.499Z</time>
      </trkpt>
      <trkpt lat="43.56734" lon="2.96235">
        <ele>239.6</ele>
        <time>2014-02-20T12:18:23.501Z</time>
      </trkpt>
      <trkpt lat="43.56732" lon="2.96228">
        <ele>239.9</ele>
        <time>2014-02-20T12:18:24.500Z</time>
      </trkpt>
      <trkpt lat="43.5673" lon="2.96221">
        <ele>240.2</ele>
        <time>2014-02-20T12:18:25.500Z</time>
      </trkpt>
      <trkpt lat="43.56729" lon="2.96214">
        <ele>240</ele>
        <time>2014-02-20T12:18:26.501Z</time>
      </trkpt>
      <trkpt lat="43.56727" lon="2.96205">
        <ele>240.1</ele>
        <time>2014-02-20T12:18:27.504Z</time>
      </trkpt>
      <trkpt lat="43.56725" lon="2.96198">
        <ele>238.8</ele>
        <time>2014-02-20T12:18:28.498Z</time>
      </trkpt>
      <trkpt lat="43.56723" lon="2.96191">
        <ele>238.7</ele>
        <time>2014-02-20T12:18:29.500Z</time>
      </trkpt>
      <trkpt lat="43.56721" lon="2.96184">
        <ele>239</ele>
        <time>2014-02-20T12:18:30.497Z</time>
      </trkpt>
      <trkpt lat="43.56719" lon="2.96177">
        <ele>238</ele>
        <time>2014-02-20T12:18:31.498Z</time>
      </trkpt>
      <trkpt lat="43.56718" lon="2.9617">
        <ele>237.6</ele>
        <time>2014-02-20T12:18:32.500Z</time>
      </trkpt>
      <trkpt lat="43.56716" lon="2.96163">
        <ele>237.5</ele>
        <time>2014-02-20T12:18:33.500Z</time>
      </trkpt>
      <trkpt lat="43.56714" lon="2.96157">
        <ele>237.8</ele>
        <time>2014-02-20T12:18:34.501Z</time>
      </trkpt>
      <trkpt lat="43.56712" lon="2.96151">
        <ele>237.7</ele>
        <time>2014-02-20T12:18:35.504Z</time>
      </trkpt>
      <trkpt lat="43.56711" lon="2.96145">
        <ele>236.8</ele>
        <time>2014-02-20T12:18:36.501Z</time>
      </trkpt>
      <trkpt lat="43.56709" lon="2.96139">
        <ele>237.2</ele>
        <time>2014-02-20T12:18:37.501Z</time>
      </trkpt>
      <trkpt lat="43.56705" lon="2.96128">
        <ele>237.4</ele>
        <time>2014-02-20T12:18:39.500Z</time>
      </trkpt>
      <trkpt lat="43.56703" lon="2.96123">
        <ele>237.3</ele>
        <time>2014-02-20T12:18:40.500Z</time>
      </trkpt>
      <trkpt lat="43.56701" lon="2.96116">
        <ele>238.1</ele>
        <time>2014-02-20T12:18:41.504Z</time>
      </trkpt>
      <trkpt lat="43.567" lon="2.96109">
        <ele>238.2</ele>
        <time>2014-02-20T12:18:42.500Z</time>
      </trkpt>
      <trkpt lat="43.56696" lon="2.96098">
        <ele>237.9</ele>
        <time>2014-02-20T12:18:44.501Z</time>
      </trkpt>
      <trkpt lat="43.56694" lon="2.96092">
        <ele>238</ele>
        <time>2014-02-20T12:18:45.503Z</time>
      </trkpt>
      <trkpt lat="43.56691" lon="2.96081">
        <ele>237.3</ele>
        <time>2014-02-20T12:18:47.503Z</time>
      </trkpt>
      <trkpt lat="43.5669" lon="2.96075">
        <ele>237.5</ele>
        <time>2014-02-20T12:18:48.501Z</time>
      </trkpt>
      <trkpt lat="43.56689" lon="2.96069">
        <ele>237.1</ele>
        <time>2014-02-20T12:18:49.503Z</time>
      </trkpt>
      <trkpt lat="43.56688" lon="2.96063">
        <ele>236.9</ele>
        <time>2014-02-20T12:18:50.502Z</time>
      </trkpt>
      <trkpt lat="43.56687" lon="2.96055">
        <ele>237</ele>
        <time>2014-02-20T12:18:51.500Z</time>
      </trkpt>
      <trkpt lat="43.56687" lon="2.96047">
        <ele>236.6</ele>
        <time>2014-02-20T12:18:52.499Z</time>
      </trkpt>
      <trkpt lat="43.56688" lon="2.96035">
        <ele>236.2</ele>
        <time>2014-02-20T12:18:54.501Z</time>
      </trkpt>
      <trkpt lat="43.56687" lon="2.96029">
        <ele>235.8</ele>
        <time>2014-02-20T12:18:55.498Z</time>
      </trkpt>
      <trkpt lat="43.56684" lon="2.96018">
        <ele>235.8</ele>
        <time>2014-02-20T12:18:57.499Z</time>
      </trkpt>
      <trkpt lat="43.56682" lon="2.96011">
        <ele>235.9</ele>
        <time>2014-02-20T12:18:58.502Z</time>
      </trkpt>
      <trkpt lat="43.56681" lon="2.96005">
        <ele>235.4</ele>
        <time>2014-02-20T12:18:59.509Z</time>
      </trkpt>
      <trkpt lat="43.56679" lon="2.95998">
        <ele>233.5</ele>
        <time>2014-02-20T12:19:00.505Z</time>
      </trkpt>
      <trkpt lat="43.56677" lon="2.95987">
        <ele>233.4</ele>
        <time>2014-02-20T12:19:02.504Z</time>
      </trkpt>
      <trkpt lat="43.56677" lon="2.95982">
        <ele>233.3</ele>
        <time>2014-02-20T12:19:03.502Z</time>
      </trkpt>
      <trkpt lat="43.56676" lon="2.95971">
        <ele>233</ele>
        <time>2014-02-20T12:19:06.506Z</time>
      </trkpt>
      <trkpt lat="43.56675" lon="2.95968">
        <ele>233.2</ele>
        <time>2014-02-20T12:19:07.505Z</time>
      </trkpt>
      <trkpt lat="43.5667" lon="2.9596">
        <ele>233.3</ele>
        <time>2014-02-20T12:19:10.510Z</time>
      </trkpt>
      <trkpt lat="43.56668" lon="2.95956">
        <ele>232.9</ele>
        <time>2014-02-20T12:19:11.505Z</time>
      </trkpt>
      <trkpt lat="43.56665" lon="2.95945">
        <ele>232.6</ele>
        <time>2014-02-20T12:19:16.506Z</time>
      </trkpt>
      <trkpt lat="43.56666" lon="2.95943">
        <ele>233.1</ele>
        <time>2014-02-20T12:19:17.511Z</time>
      </trkpt>
      <trkpt lat="43.56665" lon="2.95931">
        <ele>233.8</ele>
        <time>2014-02-20T12:19:24.499Z</time>
      </trkpt>
      <trkpt lat="43.56664" lon="2.9593">
        <ele>233.9</ele>
        <time>2014-02-20T12:19:25.500Z</time>
      </trkpt>
      <trkpt lat="43.56665" lon="2.9594">
        <ele>231</ele>
        <time>2014-02-20T12:19:29.501Z</time>
      </trkpt>
      <trkpt lat="43.56665" lon="2.95944">
        <ele>229.4</ele>
        <time>2014-02-20T12:19:30.498Z</time>
      </trkpt>
      <trkpt lat="43.56667" lon="2.95955">
        <ele>228.9</ele>
        <time>2014-02-20T12:19:35.501Z</time>
      </trkpt>
      <trkpt lat="43.56668" lon="2.95956">
        <ele>228.8</ele>
        <time>2014-02-20T12:19:36.500Z</time>
      </trkpt>
      <trkpt lat="43.56675" lon="2.95958">
        <ele>228.7</ele>
        <time>2014-02-20T12:19:43.506Z</time>
      </trkpt>
      <trkpt lat="43.56677" lon="2.95959">
        <ele>228.8</ele>
        <time>2014-02-20T12:19:44.509Z</time>
      </trkpt>
      <trkpt lat="43.56684" lon="2.95965">
        <ele>228.8</ele>
        <time>2014-02-20T12:19:50.510Z</time>
      </trkpt>
      <trkpt lat="43.56686" lon="2.95967">
        <ele>229</ele>
        <time>2014-02-20T12:19:51.509Z</time>
      </trkpt>
      <trkpt lat="43.56691" lon="2.95974">
        <ele>228.7</ele>
        <time>2014-02-20T12:19:54.506Z</time>
      </trkpt>
      <trkpt lat="43.56692" lon="2.95977">
        <ele>228.8</ele>
        <time>2014-02-20T12:19:55.500Z</time>
      </trkpt>
      <trkpt lat="43.56696" lon="2.95984">
        <ele>228.2</ele>
        <time>2014-02-20T12:19:57.499Z</time>
      </trkpt>
      <trkpt lat="43.56698" lon="2.95987">
        <ele>228.5</ele>
        <time>2014-02-20T12:19:58.497Z</time>
      </trkpt>
      <trkpt lat="43.56699" lon="2.95997">
        <ele>229.6</ele>
        <time>2014-02-20T12:20:00.512Z</time>
      </trkpt>
      <trkpt lat="43.567" lon="2.96001">
        <ele>229</ele>
        <time>2014-02-20T12:20:01.511Z</time>
      </trkpt>
      <trkpt lat="43.56703" lon="2.96008">
        <ele>229.2</ele>
        <time>2014-02-20T12:20:03.508Z</time>
      </trkpt>
      <trkpt lat="43.56706" lon="2.96011">
        <ele>229.1</ele>
        <time>2014-02-20T12:20:04.506Z</time>
      </trkpt>
      <trkpt lat="43.56711" lon="2.96018">
        <ele>229.6</ele>
        <time>2014-02-20T12:20:06.505Z</time>
      </trkpt>
      <trkpt lat="43.56714" lon="2.96021">
        <ele>228.9</ele>
        <time>2014-02-20T12:20:07.507Z</time>
      </trkpt>
      <trkpt lat="43.56719" lon="2.96027">
        <ele>229.3</ele>
        <time>2014-02-20T12:20:09.505Z</time>
      </trkpt>
      <trkpt lat="43.56723" lon="2.96029">
        <ele>229.5</ele>
        <time>2014-02-20T12:20:10.506Z</time>
      </trkpt>
      <trkpt lat="43.5673" lon="2.96035">
        <ele>229.9</ele>
        <time>2014-02-20T12:20:13.506Z</time>
      </trkpt>
      <trkpt lat="43.56731" lon="2.96038">
        <ele>229.4</ele>
        <time>2014-02-20T12:20:14.507Z</time>
      </trkpt>
      <trkpt lat="43.56729" lon="2.96048">
        <ele>229.2</ele>
        <time>2014-02-20T12:20:17.506Z</time>
      </trkpt>
      <trkpt lat="43.56728" lon="2.96052">
        <ele>229.4</ele>
        <time>2014-02-20T12:20:18.523Z</time>
      </trkpt>
      <trkpt lat="43.56733" lon="2.96061">
        <ele>231.1</ele>
        <time>2014-02-20T12:20:25.561Z</time>
      </trkpt>
      <trkpt lat="43.56733" lon="2.96063">
        <ele>231.1</ele>
        <time>2014-02-20T12:20:26.507Z</time>
      </trkpt>
      <trkpt lat="43.56732" lon="2.96065">
        <ele>231.1</ele>
        <time>2014-02-20T12:20:30.350Z</time>
      </trkpt>
      <trkpt lat="43.56732" lon="2.96064">
        <ele>231</ele>
        <time>2014-02-20T12:20:31.306Z</time>
      </trkpt>
      <trkpt lat="43.56732" lon="2.96063">
        <ele>230.8</ele>
        <time>2014-02-20T12:20:32.465Z</time>
      </trkpt>
      <trkpt lat="43.5673" lon="2.9606">
        <ele>230.8</ele>
        <time>2014-02-20T12:20:34.887Z</time>
      </trkpt>
    </trkseg>
  </trk>
</gpx>